<?xml version="1.0" encoding="UTF-8" standalone="no" ?>
<gpx xmlns="http://www.topografix.com/GPX/1/1" creator="MapSource 6.15.4" version="1.1" xmlns:xsi="http://www.w3.org/2001/XMLSchema-instance" xsi:schemaLocation="http://www.topografix.com/GPX/1/1 http://www.topografix.com/GPX/1/1/gpx.xsd">

  <metadata>
    <link href="http://www.garmin.com">
      <text>Garmin International</text>
    </link>
    <time>2010-10-02T21:13:44Z</time>
    <bounds maxlat="46.1671220" maxlon="12.4913780" minlat="45.9867300" minlon="12.2894800"/>
  </metadata>

  <trk>
    <name>Dolomiten Höhenweg Nr. 6</name>
    <extensions>
      <gpxx:TrackExtension xmlns:gpxx="http://www.garmin.com/xmlschemas/GpxExtensions/v3">
        <gpxx:DisplayColor>White</gpxx:DisplayColor>
      </gpxx:TrackExtension>
    </extensions>
    <trkseg>
      <trkpt lat="46.1668460" lon="12.4113010">
        <ele>884.0700000</ele>
        <time>2010-09-27T07:56:58Z</time>
      </trkpt>
      <trkpt lat="46.1668740" lon="12.4113190">
        <ele>885.5100000</ele>
        <time>2010-09-27T07:57:03Z</time>
      </trkpt>
      <trkpt lat="46.1669090" lon="12.4113620">
        <ele>886.9500000</ele>
        <time>2010-09-27T07:57:09Z</time>
      </trkpt>
      <trkpt lat="46.1669120" lon="12.4113950">
        <ele>882.1500000</ele>
        <time>2010-09-27T07:57:17Z</time>
      </trkpt>
      <trkpt lat="46.1669120" lon="12.4113990">
        <ele>887.4300000</ele>
        <time>2010-09-27T07:57:18Z</time>
      </trkpt>
      <trkpt lat="46.1669040" lon="12.4113930">
        <ele>882.6300000</ele>
        <time>2010-09-27T07:57:43Z</time>
      </trkpt>
      <trkpt lat="46.1669040" lon="12.4113910">
        <ele>887.9100000</ele>
        <time>2010-09-27T07:57:44Z</time>
      </trkpt>
      <trkpt lat="46.1669030" lon="12.4113820">
        <ele>882.1500000</ele>
        <time>2010-09-27T07:57:50Z</time>
      </trkpt>
      <trkpt lat="46.1669050" lon="12.4113820">
        <ele>887.4300000</ele>
        <time>2010-09-27T07:57:51Z</time>
      </trkpt>
      <trkpt lat="46.1669150" lon="12.4113830">
        <ele>884.0700000</ele>
        <time>2010-09-27T07:58:08Z</time>
      </trkpt>
      <trkpt lat="46.1669150" lon="12.4113820">
        <ele>887.4300000</ele>
        <time>2010-09-27T07:58:09Z</time>
      </trkpt>
      <trkpt lat="46.1669290" lon="12.4113780">
        <ele>882.6300000</ele>
        <time>2010-09-27T07:58:31Z</time>
      </trkpt>
      <trkpt lat="46.1669290" lon="12.4113790">
        <ele>887.9100000</ele>
        <time>2010-09-27T07:58:32Z</time>
      </trkpt>
      <trkpt lat="46.1669300" lon="12.4113790">
        <ele>882.1500000</ele>
        <time>2010-09-27T07:58:34Z</time>
      </trkpt>
      <trkpt lat="46.1669300" lon="12.4113780">
        <ele>887.9100000</ele>
        <time>2010-09-27T07:58:35Z</time>
      </trkpt>
      <trkpt lat="46.1669290" lon="12.4113790">
        <ele>882.1500000</ele>
        <time>2010-09-27T07:58:52Z</time>
      </trkpt>
      <trkpt lat="46.1669290" lon="12.4113790">
        <ele>886.9500000</ele>
        <time>2010-09-27T07:58:53Z</time>
      </trkpt>
      <trkpt lat="46.1669290" lon="12.4113790">
        <ele>877.8200000</ele>
        <time>2010-09-27T07:58:59Z</time>
      </trkpt>
      <trkpt lat="46.1669290" lon="12.4113790">
        <ele>885.9900000</ele>
        <time>2010-09-27T07:59:00Z</time>
      </trkpt>
      <trkpt lat="46.1669290" lon="12.4113790">
        <ele>886.4700000</ele>
        <time>2010-09-27T07:59:02Z</time>
      </trkpt>
      <trkpt lat="46.1669310" lon="12.4113780">
        <ele>882.1500000</ele>
        <time>2010-09-27T07:59:37Z</time>
      </trkpt>
      <trkpt lat="46.1669310" lon="12.4113780">
        <ele>885.9900000</ele>
        <time>2010-09-27T07:59:38Z</time>
      </trkpt>
      <trkpt lat="46.1669310" lon="12.4113780">
        <ele>886.4700000</ele>
        <time>2010-09-27T07:59:40Z</time>
      </trkpt>
      <trkpt lat="46.1669290" lon="12.4113720">
        <ele>884.5500000</ele>
        <time>2010-09-27T07:59:46Z</time>
      </trkpt>
      <trkpt lat="46.1669290" lon="12.4113720">
        <ele>890.8000000</ele>
        <time>2010-09-27T07:59:48Z</time>
      </trkpt>
      <trkpt lat="46.1669290" lon="12.4113720">
        <ele>886.9500000</ele>
        <time>2010-09-27T07:59:49Z</time>
      </trkpt>
      <trkpt lat="46.1669290" lon="12.4113720">
        <ele>883.5900000</ele>
        <time>2010-09-27T07:59:54Z</time>
      </trkpt>
      <trkpt lat="46.1669290" lon="12.4113720">
        <ele>886.9500000</ele>
        <time>2010-09-27T08:00:05Z</time>
      </trkpt>
      <trkpt lat="46.1669320" lon="12.4113720">
        <ele>881.1900000</ele>
        <time>2010-09-27T08:00:39Z</time>
      </trkpt>
      <trkpt lat="46.1669320" lon="12.4113720">
        <ele>885.9900000</ele>
        <time>2010-09-27T08:00:40Z</time>
      </trkpt>
      <trkpt lat="46.1669320" lon="12.4113720">
        <ele>885.9900000</ele>
        <time>2010-09-27T08:00:47Z</time>
      </trkpt>
      <trkpt lat="46.1669320" lon="12.4113720">
        <ele>885.0300000</ele>
        <time>2010-09-27T08:00:56Z</time>
      </trkpt>
      <trkpt lat="46.1669360" lon="12.4113680">
        <ele>885.5100000</ele>
        <time>2010-09-27T08:02:39Z</time>
      </trkpt>
      <trkpt lat="46.1669280" lon="12.4113720">
        <ele>881.6700000</ele>
        <time>2010-09-27T08:03:43Z</time>
      </trkpt>
      <trkpt lat="46.1669280" lon="12.4113720">
        <ele>885.0300000</ele>
        <time>2010-09-27T08:03:44Z</time>
      </trkpt>
      <trkpt lat="46.1669280" lon="12.4113720">
        <ele>888.8800000</ele>
        <time>2010-09-27T08:03:47Z</time>
      </trkpt>
      <trkpt lat="46.1669280" lon="12.4113720">
        <ele>885.5100000</ele>
        <time>2010-09-27T08:03:48Z</time>
      </trkpt>
      <trkpt lat="46.1669190" lon="12.4113730">
        <ele>884.5500000</ele>
        <time>2010-09-27T08:05:08Z</time>
      </trkpt>
      <trkpt lat="46.1669100" lon="12.4113870">
        <ele>884.5500000</ele>
        <time>2010-09-27T08:06:06Z</time>
      </trkpt>
      <trkpt lat="46.1669100" lon="12.4113870">
        <ele>884.5500000</ele>
        <time>2010-09-27T08:06:19Z</time>
      </trkpt>
      <trkpt lat="46.1669000" lon="12.4114320">
        <ele>885.0300000</ele>
        <time>2010-09-27T08:06:26Z</time>
      </trkpt>
      <trkpt lat="46.1668960" lon="12.4114750">
        <ele>885.0300000</ele>
        <time>2010-09-27T08:06:32Z</time>
      </trkpt>
      <trkpt lat="46.1668860" lon="12.4114940">
        <ele>885.9900000</ele>
        <time>2010-09-27T08:06:38Z</time>
      </trkpt>
      <trkpt lat="46.1668870" lon="12.4115460">
        <ele>886.4700000</ele>
        <time>2010-09-27T08:06:43Z</time>
      </trkpt>
      <trkpt lat="46.1668870" lon="12.4115460">
        <ele>887.4300000</ele>
        <time>2010-09-27T08:06:44Z</time>
      </trkpt>
      <trkpt lat="46.1668800" lon="12.4115740">
        <ele>887.4300000</ele>
        <time>2010-09-27T08:06:47Z</time>
      </trkpt>
      <trkpt lat="46.1668840" lon="12.4116370">
        <ele>887.9100000</ele>
        <time>2010-09-27T08:06:52Z</time>
      </trkpt>
      <trkpt lat="46.1668860" lon="12.4117120">
        <ele>888.4000000</ele>
        <time>2010-09-27T08:06:58Z</time>
      </trkpt>
      <trkpt lat="46.1668940" lon="12.4117780">
        <ele>888.8800000</ele>
        <time>2010-09-27T08:07:03Z</time>
      </trkpt>
      <trkpt lat="46.1669030" lon="12.4118310">
        <ele>889.3600000</ele>
        <time>2010-09-27T08:07:08Z</time>
      </trkpt>
      <trkpt lat="46.1669260" lon="12.4118960">
        <ele>890.3200000</ele>
        <time>2010-09-27T08:07:13Z</time>
      </trkpt>
      <trkpt lat="46.1669310" lon="12.4119080">
        <ele>890.8000000</ele>
        <time>2010-09-27T08:07:14Z</time>
      </trkpt>
      <trkpt lat="46.1669380" lon="12.4119730">
        <ele>890.3200000</ele>
        <time>2010-09-27T08:07:20Z</time>
      </trkpt>
      <trkpt lat="46.1669340" lon="12.4120190">
        <ele>891.7600000</ele>
        <time>2010-09-27T08:07:25Z</time>
      </trkpt>
      <trkpt lat="46.1669310" lon="12.4120600">
        <ele>891.7600000</ele>
        <time>2010-09-27T08:07:29Z</time>
      </trkpt>
      <trkpt lat="46.1669400" lon="12.4121170">
        <ele>892.7200000</ele>
        <time>2010-09-27T08:07:34Z</time>
      </trkpt>
      <trkpt lat="46.1669340" lon="12.4121320">
        <ele>892.2400000</ele>
        <time>2010-09-27T08:07:37Z</time>
      </trkpt>
      <trkpt lat="46.1669050" lon="12.4121750">
        <ele>893.2000000</ele>
        <time>2010-09-27T08:07:42Z</time>
      </trkpt>
      <trkpt lat="46.1668980" lon="12.4122170">
        <ele>894.6400000</ele>
        <time>2010-09-27T08:07:46Z</time>
      </trkpt>
      <trkpt lat="46.1668860" lon="12.4122370">
        <ele>894.1600000</ele>
        <time>2010-09-27T08:07:49Z</time>
      </trkpt>
      <trkpt lat="46.1668930" lon="12.4123310">
        <ele>894.6400000</ele>
        <time>2010-09-27T08:07:55Z</time>
      </trkpt>
      <trkpt lat="46.1668860" lon="12.4124030">
        <ele>895.6100000</ele>
        <time>2010-09-27T08:08:01Z</time>
      </trkpt>
      <trkpt lat="46.1668680" lon="12.4124690">
        <ele>896.5700000</ele>
        <time>2010-09-27T08:08:08Z</time>
      </trkpt>
      <trkpt lat="46.1668620" lon="12.4125300">
        <ele>897.0500000</ele>
        <time>2010-09-27T08:08:14Z</time>
      </trkpt>
      <trkpt lat="46.1668460" lon="12.4126000">
        <ele>897.0500000</ele>
        <time>2010-09-27T08:08:19Z</time>
      </trkpt>
      <trkpt lat="46.1668270" lon="12.4126490">
        <ele>898.0100000</ele>
        <time>2010-09-27T08:08:24Z</time>
      </trkpt>
      <trkpt lat="46.1668160" lon="12.4127000">
        <ele>898.4900000</ele>
        <time>2010-09-27T08:08:29Z</time>
      </trkpt>
      <trkpt lat="46.1668090" lon="12.4127710">
        <ele>898.9700000</ele>
        <time>2010-09-27T08:08:36Z</time>
      </trkpt>
      <trkpt lat="46.1667920" lon="12.4128270">
        <ele>898.9700000</ele>
        <time>2010-09-27T08:08:41Z</time>
      </trkpt>
      <trkpt lat="46.1667940" lon="12.4129040">
        <ele>899.9300000</ele>
        <time>2010-09-27T08:08:47Z</time>
      </trkpt>
      <trkpt lat="46.1667810" lon="12.4129730">
        <ele>900.8900000</ele>
        <time>2010-09-27T08:08:53Z</time>
      </trkpt>
      <trkpt lat="46.1667690" lon="12.4130430">
        <ele>901.3700000</ele>
        <time>2010-09-27T08:08:58Z</time>
      </trkpt>
      <trkpt lat="46.1667690" lon="12.4131300">
        <ele>901.3700000</ele>
        <time>2010-09-27T08:09:04Z</time>
      </trkpt>
      <trkpt lat="46.1667720" lon="12.4132100">
        <ele>902.8200000</ele>
        <time>2010-09-27T08:09:10Z</time>
      </trkpt>
      <trkpt lat="46.1667810" lon="12.4132710">
        <ele>903.3000000</ele>
        <time>2010-09-27T08:09:15Z</time>
      </trkpt>
      <trkpt lat="46.1667950" lon="12.4133450">
        <ele>903.3000000</ele>
        <time>2010-09-27T08:09:21Z</time>
      </trkpt>
      <trkpt lat="46.1667990" lon="12.4133940">
        <ele>904.2600000</ele>
        <time>2010-09-27T08:09:26Z</time>
      </trkpt>
      <trkpt lat="46.1668070" lon="12.4134560">
        <ele>905.2200000</ele>
        <time>2010-09-27T08:09:31Z</time>
      </trkpt>
      <trkpt lat="46.1668430" lon="12.4136070">
        <ele>906.1800000</ele>
        <time>2010-09-27T08:09:40Z</time>
      </trkpt>
      <trkpt lat="46.1668460" lon="12.4137510">
        <ele>906.6600000</ele>
        <time>2010-09-27T08:09:49Z</time>
      </trkpt>
      <trkpt lat="46.1668350" lon="12.4138180">
        <ele>906.6600000</ele>
        <time>2010-09-27T08:09:56Z</time>
      </trkpt>
      <trkpt lat="46.1668240" lon="12.4138810">
        <ele>907.6200000</ele>
        <time>2010-09-27T08:10:01Z</time>
      </trkpt>
      <trkpt lat="46.1668170" lon="12.4139360">
        <ele>908.5800000</ele>
        <time>2010-09-27T08:10:07Z</time>
      </trkpt>
      <trkpt lat="46.1668150" lon="12.4139520">
        <ele>908.1000000</ele>
        <time>2010-09-27T08:10:09Z</time>
      </trkpt>
      <trkpt lat="46.1668090" lon="12.4140520">
        <ele>909.0600000</ele>
        <time>2010-09-27T08:10:16Z</time>
      </trkpt>
      <trkpt lat="46.1668030" lon="12.4141380">
        <ele>909.5400000</ele>
        <time>2010-09-27T08:10:23Z</time>
      </trkpt>
      <trkpt lat="46.1668060" lon="12.4142210">
        <ele>910.0300000</ele>
        <time>2010-09-27T08:10:31Z</time>
      </trkpt>
      <trkpt lat="46.1668050" lon="12.4143180">
        <ele>911.9500000</ele>
        <time>2010-09-27T08:10:38Z</time>
      </trkpt>
      <trkpt lat="46.1667900" lon="12.4144040">
        <ele>911.9500000</ele>
        <time>2010-09-27T08:10:45Z</time>
      </trkpt>
      <trkpt lat="46.1667840" lon="12.4144760">
        <ele>912.9100000</ele>
        <time>2010-09-27T08:10:50Z</time>
      </trkpt>
      <trkpt lat="46.1667950" lon="12.4145680">
        <ele>912.9100000</ele>
        <time>2010-09-27T08:10:56Z</time>
      </trkpt>
      <trkpt lat="46.1667970" lon="12.4146490">
        <ele>913.8700000</ele>
        <time>2010-09-27T08:11:02Z</time>
      </trkpt>
      <trkpt lat="46.1668000" lon="12.4147180">
        <ele>913.8700000</ele>
        <time>2010-09-27T08:11:08Z</time>
      </trkpt>
      <trkpt lat="46.1668030" lon="12.4147860">
        <ele>915.3100000</ele>
        <time>2010-09-27T08:11:14Z</time>
      </trkpt>
      <trkpt lat="46.1667930" lon="12.4148890">
        <ele>915.3100000</ele>
        <time>2010-09-27T08:11:20Z</time>
      </trkpt>
      <trkpt lat="46.1667840" lon="12.4149710">
        <ele>916.2700000</ele>
        <time>2010-09-27T08:11:26Z</time>
      </trkpt>
      <trkpt lat="46.1667840" lon="12.4150260">
        <ele>916.2700000</ele>
        <time>2010-09-27T08:11:30Z</time>
      </trkpt>
      <trkpt lat="46.1667850" lon="12.4151080">
        <ele>917.2400000</ele>
        <time>2010-09-27T08:11:36Z</time>
      </trkpt>
      <trkpt lat="46.1667860" lon="12.4151330">
        <ele>917.2400000</ele>
        <time>2010-09-27T08:11:38Z</time>
      </trkpt>
      <trkpt lat="46.1667810" lon="12.4151800">
        <ele>917.2400000</ele>
        <time>2010-09-27T08:11:42Z</time>
      </trkpt>
      <trkpt lat="46.1667880" lon="12.4152640">
        <ele>918.2000000</ele>
        <time>2010-09-27T08:11:48Z</time>
      </trkpt>
      <trkpt lat="46.1668210" lon="12.4153450">
        <ele>918.6800000</ele>
        <time>2010-09-27T08:11:54Z</time>
      </trkpt>
      <trkpt lat="46.1668380" lon="12.4154220">
        <ele>919.6400000</ele>
        <time>2010-09-27T08:12:01Z</time>
      </trkpt>
      <trkpt lat="46.1668480" lon="12.4154850">
        <ele>920.1200000</ele>
        <time>2010-09-27T08:12:06Z</time>
      </trkpt>
      <trkpt lat="46.1668620" lon="12.4155660">
        <ele>921.0800000</ele>
        <time>2010-09-27T08:12:12Z</time>
      </trkpt>
      <trkpt lat="46.1668670" lon="12.4156290">
        <ele>920.6000000</ele>
        <time>2010-09-27T08:12:18Z</time>
      </trkpt>
      <trkpt lat="46.1668670" lon="12.4156840">
        <ele>922.0400000</ele>
        <time>2010-09-27T08:12:23Z</time>
      </trkpt>
      <trkpt lat="46.1668820" lon="12.4157440">
        <ele>922.5200000</ele>
        <time>2010-09-27T08:12:28Z</time>
      </trkpt>
      <trkpt lat="46.1669240" lon="12.4158170">
        <ele>922.5200000</ele>
        <time>2010-09-27T08:12:35Z</time>
      </trkpt>
      <trkpt lat="46.1669660" lon="12.4158850">
        <ele>923.0000000</ele>
        <time>2010-09-27T08:12:42Z</time>
      </trkpt>
      <trkpt lat="46.1669710" lon="12.4159050">
        <ele>923.9600000</ele>
        <time>2010-09-27T08:12:45Z</time>
      </trkpt>
      <trkpt lat="46.1669760" lon="12.4160060">
        <ele>924.4500000</ele>
        <time>2010-09-27T08:12:51Z</time>
      </trkpt>
      <trkpt lat="46.1669990" lon="12.4161080">
        <ele>925.4100000</ele>
        <time>2010-09-27T08:12:58Z</time>
      </trkpt>
      <trkpt lat="46.1670130" lon="12.4161750">
        <ele>925.8900000</ele>
        <time>2010-09-27T08:13:05Z</time>
      </trkpt>
      <trkpt lat="46.1670480" lon="12.4162750">
        <ele>926.3700000</ele>
        <time>2010-09-27T08:13:12Z</time>
      </trkpt>
      <trkpt lat="46.1670610" lon="12.4163280">
        <ele>927.3300000</ele>
        <time>2010-09-27T08:13:17Z</time>
      </trkpt>
      <trkpt lat="46.1670850" lon="12.4163900">
        <ele>927.8100000</ele>
        <time>2010-09-27T08:13:22Z</time>
      </trkpt>
      <trkpt lat="46.1671030" lon="12.4164720">
        <ele>928.2900000</ele>
        <time>2010-09-27T08:13:28Z</time>
      </trkpt>
      <trkpt lat="46.1671040" lon="12.4164890">
        <ele>928.7700000</ele>
        <time>2010-09-27T08:13:30Z</time>
      </trkpt>
      <trkpt lat="46.1671070" lon="12.4165600">
        <ele>929.2500000</ele>
        <time>2010-09-27T08:13:36Z</time>
      </trkpt>
      <trkpt lat="46.1671060" lon="12.4166140">
        <ele>930.2100000</ele>
        <time>2010-09-27T08:13:41Z</time>
      </trkpt>
      <trkpt lat="46.1671120" lon="12.4166440">
        <ele>929.7300000</ele>
        <time>2010-09-27T08:13:44Z</time>
      </trkpt>
      <trkpt lat="46.1671220" lon="12.4167340">
        <ele>931.1700000</ele>
        <time>2010-09-27T08:13:51Z</time>
      </trkpt>
      <trkpt lat="46.1671200" lon="12.4168090">
        <ele>931.6500000</ele>
        <time>2010-09-27T08:13:58Z</time>
      </trkpt>
      <trkpt lat="46.1671140" lon="12.4168580">
        <ele>932.6200000</ele>
        <time>2010-09-27T08:14:02Z</time>
      </trkpt>
      <trkpt lat="46.1671100" lon="12.4169590">
        <ele>933.5800000</ele>
        <time>2010-09-27T08:14:09Z</time>
      </trkpt>
      <trkpt lat="46.1670820" lon="12.4170330">
        <ele>933.5800000</ele>
        <time>2010-09-27T08:14:16Z</time>
      </trkpt>
      <trkpt lat="46.1670640" lon="12.4170870">
        <ele>934.5400000</ele>
        <time>2010-09-27T08:14:22Z</time>
      </trkpt>
      <trkpt lat="46.1670490" lon="12.4171310">
        <ele>935.5000000</ele>
        <time>2010-09-27T08:14:27Z</time>
      </trkpt>
      <trkpt lat="46.1670310" lon="12.4171770">
        <ele>935.5000000</ele>
        <time>2010-09-27T08:14:32Z</time>
      </trkpt>
      <trkpt lat="46.1670240" lon="12.4172150">
        <ele>936.4600000</ele>
        <time>2010-09-27T08:14:37Z</time>
      </trkpt>
      <trkpt lat="46.1669920" lon="12.4172750">
        <ele>936.4600000</ele>
        <time>2010-09-27T08:14:42Z</time>
      </trkpt>
      <trkpt lat="46.1669690" lon="12.4173300">
        <ele>936.9400000</ele>
        <time>2010-09-27T08:14:47Z</time>
      </trkpt>
      <trkpt lat="46.1669370" lon="12.4173910">
        <ele>937.4200000</ele>
        <time>2010-09-27T08:14:53Z</time>
      </trkpt>
      <trkpt lat="46.1669000" lon="12.4174590">
        <ele>938.3800000</ele>
        <time>2010-09-27T08:14:59Z</time>
      </trkpt>
      <trkpt lat="46.1668800" lon="12.4175160">
        <ele>938.8600000</ele>
        <time>2010-09-27T08:15:04Z</time>
      </trkpt>
      <trkpt lat="46.1668680" lon="12.4175960">
        <ele>939.3500000</ele>
        <time>2010-09-27T08:15:10Z</time>
      </trkpt>
      <trkpt lat="46.1668390" lon="12.4176550">
        <ele>939.8300000</ele>
        <time>2010-09-27T08:15:15Z</time>
      </trkpt>
      <trkpt lat="46.1668210" lon="12.4176930">
        <ele>940.3100000</ele>
        <time>2010-09-27T08:15:19Z</time>
      </trkpt>
      <trkpt lat="46.1668050" lon="12.4177260">
        <ele>940.3100000</ele>
        <time>2010-09-27T08:15:21Z</time>
      </trkpt>
      <trkpt lat="46.1667800" lon="12.4178080">
        <ele>941.2700000</ele>
        <time>2010-09-27T08:15:28Z</time>
      </trkpt>
      <trkpt lat="46.1667680" lon="12.4178450">
        <ele>941.2700000</ele>
        <time>2010-09-27T08:15:33Z</time>
      </trkpt>
      <trkpt lat="46.1667480" lon="12.4179020">
        <ele>941.7500000</ele>
        <time>2010-09-27T08:15:38Z</time>
      </trkpt>
      <trkpt lat="46.1667210" lon="12.4179650">
        <ele>942.7100000</ele>
        <time>2010-09-27T08:15:43Z</time>
      </trkpt>
      <trkpt lat="46.1666940" lon="12.4180390">
        <ele>942.7100000</ele>
        <time>2010-09-27T08:15:49Z</time>
      </trkpt>
      <trkpt lat="46.1666650" lon="12.4180980">
        <ele>943.6700000</ele>
        <time>2010-09-27T08:15:54Z</time>
      </trkpt>
      <trkpt lat="46.1666510" lon="12.4181420">
        <ele>943.6700000</ele>
        <time>2010-09-27T08:15:59Z</time>
      </trkpt>
      <trkpt lat="46.1666210" lon="12.4182140">
        <ele>944.6300000</ele>
        <time>2010-09-27T08:16:06Z</time>
      </trkpt>
      <trkpt lat="46.1666000" lon="12.4182700">
        <ele>945.5900000</ele>
        <time>2010-09-27T08:16:11Z</time>
      </trkpt>
      <trkpt lat="46.1665670" lon="12.4183300">
        <ele>946.0700000</ele>
        <time>2010-09-27T08:16:17Z</time>
      </trkpt>
      <trkpt lat="46.1665300" lon="12.4183820">
        <ele>946.0700000</ele>
        <time>2010-09-27T08:16:23Z</time>
      </trkpt>
      <trkpt lat="46.1664940" lon="12.4184140">
        <ele>947.0400000</ele>
        <time>2010-09-27T08:16:28Z</time>
      </trkpt>
      <trkpt lat="46.1664610" lon="12.4184430">
        <ele>947.5200000</ele>
        <time>2010-09-27T08:16:34Z</time>
      </trkpt>
      <trkpt lat="46.1664310" lon="12.4184540">
        <ele>948.0000000</ele>
        <time>2010-09-27T08:16:40Z</time>
      </trkpt>
      <trkpt lat="46.1663810" lon="12.4185220">
        <ele>948.4800000</ele>
        <time>2010-09-27T08:16:46Z</time>
      </trkpt>
      <trkpt lat="46.1663520" lon="12.4185700">
        <ele>948.0000000</ele>
        <time>2010-09-27T08:16:51Z</time>
      </trkpt>
      <trkpt lat="46.1663330" lon="12.4186300">
        <ele>948.9600000</ele>
        <time>2010-09-27T08:16:56Z</time>
      </trkpt>
      <trkpt lat="46.1663050" lon="12.4186730">
        <ele>949.4400000</ele>
        <time>2010-09-27T08:17:00Z</time>
      </trkpt>
      <trkpt lat="46.1662650" lon="12.4187510">
        <ele>949.9200000</ele>
        <time>2010-09-27T08:17:07Z</time>
      </trkpt>
      <trkpt lat="46.1662370" lon="12.4188040">
        <ele>950.8800000</ele>
        <time>2010-09-27T08:17:12Z</time>
      </trkpt>
      <trkpt lat="46.1662100" lon="12.4188570">
        <ele>950.8800000</ele>
        <time>2010-09-27T08:17:17Z</time>
      </trkpt>
      <trkpt lat="46.1661840" lon="12.4189320">
        <ele>952.3200000</ele>
        <time>2010-09-27T08:17:24Z</time>
      </trkpt>
      <trkpt lat="46.1661530" lon="12.4190180">
        <ele>952.3200000</ele>
        <time>2010-09-27T08:17:30Z</time>
      </trkpt>
      <trkpt lat="46.1660840" lon="12.4190650">
        <ele>952.8000000</ele>
        <time>2010-09-27T08:17:38Z</time>
      </trkpt>
      <trkpt lat="46.1660350" lon="12.4191780">
        <ele>953.7700000</ele>
        <time>2010-09-27T08:17:48Z</time>
      </trkpt>
      <trkpt lat="46.1660000" lon="12.4192590">
        <ele>954.7300000</ele>
        <time>2010-09-27T08:17:54Z</time>
      </trkpt>
      <trkpt lat="46.1659730" lon="12.4193410">
        <ele>954.2500000</ele>
        <time>2010-09-27T08:18:00Z</time>
      </trkpt>
      <trkpt lat="46.1659760" lon="12.4194290">
        <ele>954.7300000</ele>
        <time>2010-09-27T08:18:06Z</time>
      </trkpt>
      <trkpt lat="46.1659460" lon="12.4195330">
        <ele>955.2100000</ele>
        <time>2010-09-27T08:18:12Z</time>
      </trkpt>
      <trkpt lat="46.1659010" lon="12.4196030">
        <ele>955.6900000</ele>
        <time>2010-09-27T08:18:18Z</time>
      </trkpt>
      <trkpt lat="46.1658580" lon="12.4196440">
        <ele>956.1700000</ele>
        <time>2010-09-27T08:18:23Z</time>
      </trkpt>
      <trkpt lat="46.1658180" lon="12.4197170">
        <ele>956.1700000</ele>
        <time>2010-09-27T08:18:28Z</time>
      </trkpt>
      <trkpt lat="46.1658050" lon="12.4197870">
        <ele>956.1700000</ele>
        <time>2010-09-27T08:18:32Z</time>
      </trkpt>
      <trkpt lat="46.1657840" lon="12.4198700">
        <ele>956.6500000</ele>
        <time>2010-09-27T08:18:38Z</time>
      </trkpt>
      <trkpt lat="46.1657660" lon="12.4199180">
        <ele>956.6500000</ele>
        <time>2010-09-27T08:18:42Z</time>
      </trkpt>
      <trkpt lat="46.1657340" lon="12.4200010">
        <ele>957.1300000</ele>
        <time>2010-09-27T08:18:48Z</time>
      </trkpt>
      <trkpt lat="46.1657200" lon="12.4200620">
        <ele>957.1300000</ele>
        <time>2010-09-27T08:18:54Z</time>
      </trkpt>
      <trkpt lat="46.1657000" lon="12.4201460">
        <ele>957.6100000</ele>
        <time>2010-09-27T08:19:00Z</time>
      </trkpt>
      <trkpt lat="46.1656610" lon="12.4202410">
        <ele>957.6100000</ele>
        <time>2010-09-27T08:19:06Z</time>
      </trkpt>
      <trkpt lat="46.1656190" lon="12.4203100">
        <ele>958.0900000</ele>
        <time>2010-09-27T08:19:11Z</time>
      </trkpt>
      <trkpt lat="46.1655870" lon="12.4203640">
        <ele>957.6100000</ele>
        <time>2010-09-27T08:19:17Z</time>
      </trkpt>
      <trkpt lat="46.1655390" lon="12.4204050">
        <ele>959.0500000</ele>
        <time>2010-09-27T08:19:22Z</time>
      </trkpt>
      <trkpt lat="46.1654930" lon="12.4204280">
        <ele>959.0500000</ele>
        <time>2010-09-27T08:19:28Z</time>
      </trkpt>
      <trkpt lat="46.1654560" lon="12.4204290">
        <ele>958.0900000</ele>
        <time>2010-09-27T08:19:34Z</time>
      </trkpt>
      <trkpt lat="46.1654560" lon="12.4204140">
        <ele>958.5700000</ele>
        <time>2010-09-27T08:19:46Z</time>
      </trkpt>
      <trkpt lat="46.1654610" lon="12.4203750">
        <ele>958.5700000</ele>
        <time>2010-09-27T08:19:54Z</time>
      </trkpt>
      <trkpt lat="46.1654610" lon="12.4203750">
        <ele>958.0900000</ele>
        <time>2010-09-27T08:20:06Z</time>
      </trkpt>
      <trkpt lat="46.1654490" lon="12.4204490">
        <ele>958.5700000</ele>
        <time>2010-09-27T08:20:13Z</time>
      </trkpt>
      <trkpt lat="46.1654280" lon="12.4204760">
        <ele>959.0500000</ele>
        <time>2010-09-27T08:20:16Z</time>
      </trkpt>
      <trkpt lat="46.1654020" lon="12.4205140">
        <ele>958.5700000</ele>
        <time>2010-09-27T08:20:21Z</time>
      </trkpt>
      <trkpt lat="46.1654010" lon="12.4205160">
        <ele>958.5700000</ele>
        <time>2010-09-27T08:21:16Z</time>
      </trkpt>
      <trkpt lat="46.1654010" lon="12.4205210">
        <ele>959.0500000</ele>
        <time>2010-09-27T08:21:54Z</time>
      </trkpt>
      <trkpt lat="46.1654010" lon="12.4205160">
        <ele>958.5700000</ele>
        <time>2010-09-27T08:22:08Z</time>
      </trkpt>
      <trkpt lat="46.1654000" lon="12.4205430">
        <ele>959.5300000</ele>
        <time>2010-09-27T08:22:15Z</time>
      </trkpt>
      <trkpt lat="46.1653790" lon="12.4205680">
        <ele>959.5300000</ele>
        <time>2010-09-27T08:22:19Z</time>
      </trkpt>
      <trkpt lat="46.1653320" lon="12.4206200">
        <ele>960.0100000</ele>
        <time>2010-09-27T08:22:25Z</time>
      </trkpt>
      <trkpt lat="46.1653190" lon="12.4206600">
        <ele>960.0100000</ele>
        <time>2010-09-27T08:22:30Z</time>
      </trkpt>
      <trkpt lat="46.1653190" lon="12.4206600">
        <ele>960.0100000</ele>
        <time>2010-09-27T08:22:43Z</time>
      </trkpt>
      <trkpt lat="46.1653190" lon="12.4206600">
        <ele>960.0100000</ele>
        <time>2010-09-27T08:22:47Z</time>
      </trkpt>
      <trkpt lat="46.1652630" lon="12.4206890">
        <ele>960.4900000</ele>
        <time>2010-09-27T08:22:56Z</time>
      </trkpt>
      <trkpt lat="46.1652580" lon="12.4206910">
        <ele>960.0100000</ele>
        <time>2010-09-27T08:22:57Z</time>
      </trkpt>
      <trkpt lat="46.1652400" lon="12.4206770">
        <ele>960.4900000</ele>
        <time>2010-09-27T08:22:59Z</time>
      </trkpt>
      <trkpt lat="46.1652060" lon="12.4206370">
        <ele>959.5300000</ele>
        <time>2010-09-27T08:23:08Z</time>
      </trkpt>
      <trkpt lat="46.1652000" lon="12.4206210">
        <ele>959.5300000</ele>
        <time>2010-09-27T08:23:17Z</time>
      </trkpt>
      <trkpt lat="46.1651890" lon="12.4206370">
        <ele>959.5300000</ele>
        <time>2010-09-27T08:23:51Z</time>
      </trkpt>
      <trkpt lat="46.1652010" lon="12.4206410">
        <ele>960.4900000</ele>
        <time>2010-09-27T08:23:53Z</time>
      </trkpt>
      <trkpt lat="46.1652300" lon="12.4206890">
        <ele>960.0100000</ele>
        <time>2010-09-27T08:23:59Z</time>
      </trkpt>
      <trkpt lat="46.1652570" lon="12.4207470">
        <ele>960.0100000</ele>
        <time>2010-09-27T08:24:04Z</time>
      </trkpt>
      <trkpt lat="46.1652460" lon="12.4207940">
        <ele>960.9800000</ele>
        <time>2010-09-27T08:24:08Z</time>
      </trkpt>
      <trkpt lat="46.1652130" lon="12.4208670">
        <ele>961.4600000</ele>
        <time>2010-09-27T08:24:14Z</time>
      </trkpt>
      <trkpt lat="46.1651660" lon="12.4209040">
        <ele>961.4600000</ele>
        <time>2010-09-27T08:24:20Z</time>
      </trkpt>
      <trkpt lat="46.1651190" lon="12.4209470">
        <ele>962.4200000</ele>
        <time>2010-09-27T08:24:26Z</time>
      </trkpt>
      <trkpt lat="46.1650670" lon="12.4210110">
        <ele>961.9400000</ele>
        <time>2010-09-27T08:24:32Z</time>
      </trkpt>
      <trkpt lat="46.1650240" lon="12.4210410">
        <ele>963.3800000</ele>
        <time>2010-09-27T08:24:38Z</time>
      </trkpt>
      <trkpt lat="46.1649850" lon="12.4210850">
        <ele>963.3800000</ele>
        <time>2010-09-27T08:24:43Z</time>
      </trkpt>
      <trkpt lat="46.1649410" lon="12.4211430">
        <ele>963.8600000</ele>
        <time>2010-09-27T08:24:48Z</time>
      </trkpt>
      <trkpt lat="46.1648910" lon="12.4212000">
        <ele>964.3400000</ele>
        <time>2010-09-27T08:24:53Z</time>
      </trkpt>
      <trkpt lat="46.1648390" lon="12.4212670">
        <ele>964.3400000</ele>
        <time>2010-09-27T08:24:59Z</time>
      </trkpt>
      <trkpt lat="46.1648030" lon="12.4213340">
        <ele>965.7800000</ele>
        <time>2010-09-27T08:25:05Z</time>
      </trkpt>
      <trkpt lat="46.1647630" lon="12.4213950">
        <ele>965.7800000</ele>
        <time>2010-09-27T08:25:11Z</time>
      </trkpt>
      <trkpt lat="46.1647440" lon="12.4214800">
        <ele>966.2600000</ele>
        <time>2010-09-27T08:25:16Z</time>
      </trkpt>
      <trkpt lat="46.1647370" lon="12.4215930">
        <ele>967.2200000</ele>
        <time>2010-09-27T08:25:23Z</time>
      </trkpt>
      <trkpt lat="46.1647420" lon="12.4217210">
        <ele>967.2200000</ele>
        <time>2010-09-27T08:25:30Z</time>
      </trkpt>
      <trkpt lat="46.1647440" lon="12.4218270">
        <ele>967.7000000</ele>
        <time>2010-09-27T08:25:36Z</time>
      </trkpt>
      <trkpt lat="46.1647530" lon="12.4219350">
        <ele>968.1800000</ele>
        <time>2010-09-27T08:25:42Z</time>
      </trkpt>
      <trkpt lat="46.1647550" lon="12.4219450">
        <ele>967.7000000</ele>
        <time>2010-09-27T08:25:43Z</time>
      </trkpt>
      <trkpt lat="46.1647560" lon="12.4220130">
        <ele>967.7000000</ele>
        <time>2010-09-27T08:25:47Z</time>
      </trkpt>
      <trkpt lat="46.1647740" lon="12.4221400">
        <ele>968.6700000</ele>
        <time>2010-09-27T08:25:54Z</time>
      </trkpt>
      <trkpt lat="46.1647770" lon="12.4221530">
        <ele>968.6700000</ele>
        <time>2010-09-27T08:25:55Z</time>
      </trkpt>
      <trkpt lat="46.1647720" lon="12.4222870">
        <ele>968.1800000</ele>
        <time>2010-09-27T08:26:03Z</time>
      </trkpt>
      <trkpt lat="46.1647790" lon="12.4223620">
        <ele>969.1500000</ele>
        <time>2010-09-27T08:26:08Z</time>
      </trkpt>
      <trkpt lat="46.1647820" lon="12.4224660">
        <ele>969.6300000</ele>
        <time>2010-09-27T08:26:14Z</time>
      </trkpt>
      <trkpt lat="46.1647810" lon="12.4225680">
        <ele>970.1100000</ele>
        <time>2010-09-27T08:26:21Z</time>
      </trkpt>
      <trkpt lat="46.1647940" lon="12.4226800">
        <ele>970.1100000</ele>
        <time>2010-09-27T08:26:27Z</time>
      </trkpt>
      <trkpt lat="46.1647990" lon="12.4227490">
        <ele>970.5900000</ele>
        <time>2010-09-27T08:26:32Z</time>
      </trkpt>
      <trkpt lat="46.1648140" lon="12.4228370">
        <ele>971.5500000</ele>
        <time>2010-09-27T08:26:38Z</time>
      </trkpt>
      <trkpt lat="46.1648130" lon="12.4228990">
        <ele>972.0300000</ele>
        <time>2010-09-27T08:26:43Z</time>
      </trkpt>
      <trkpt lat="46.1648220" lon="12.4229970">
        <ele>971.5500000</ele>
        <time>2010-09-27T08:26:49Z</time>
      </trkpt>
      <trkpt lat="46.1648670" lon="12.4231050">
        <ele>972.0300000</ele>
        <time>2010-09-27T08:26:55Z</time>
      </trkpt>
      <trkpt lat="46.1648940" lon="12.4232250">
        <ele>972.0300000</ele>
        <time>2010-09-27T08:27:02Z</time>
      </trkpt>
      <trkpt lat="46.1649130" lon="12.4233550">
        <ele>972.5100000</ele>
        <time>2010-09-27T08:27:09Z</time>
      </trkpt>
      <trkpt lat="46.1649180" lon="12.4233690">
        <ele>972.9900000</ele>
        <time>2010-09-27T08:27:10Z</time>
      </trkpt>
      <trkpt lat="46.1649650" lon="12.4235050">
        <ele>972.9900000</ele>
        <time>2010-09-27T08:27:18Z</time>
      </trkpt>
      <trkpt lat="46.1650080" lon="12.4235870">
        <ele>973.9500000</ele>
        <time>2010-09-27T08:27:23Z</time>
      </trkpt>
      <trkpt lat="46.1650210" lon="12.4236080">
        <ele>973.4700000</ele>
        <time>2010-09-27T08:27:25Z</time>
      </trkpt>
      <trkpt lat="46.1650480" lon="12.4236650">
        <ele>973.4700000</ele>
        <time>2010-09-27T08:27:29Z</time>
      </trkpt>
      <trkpt lat="46.1650670" lon="12.4236880">
        <ele>974.9100000</ele>
        <time>2010-09-27T08:27:32Z</time>
      </trkpt>
      <trkpt lat="46.1650830" lon="12.4238150">
        <ele>975.3900000</ele>
        <time>2010-09-27T08:27:41Z</time>
      </trkpt>
      <trkpt lat="46.1650510" lon="12.4239020">
        <ele>975.3900000</ele>
        <time>2010-09-27T08:27:48Z</time>
      </trkpt>
      <trkpt lat="46.1650080" lon="12.4239670">
        <ele>975.8800000</ele>
        <time>2010-09-27T08:27:55Z</time>
      </trkpt>
      <trkpt lat="46.1649890" lon="12.4239880">
        <ele>975.8800000</ele>
        <time>2010-09-27T08:27:58Z</time>
      </trkpt>
      <trkpt lat="46.1649630" lon="12.4240580">
        <ele>976.8400000</ele>
        <time>2010-09-27T08:28:05Z</time>
      </trkpt>
      <trkpt lat="46.1649630" lon="12.4240580">
        <ele>975.8800000</ele>
        <time>2010-09-27T08:28:20Z</time>
      </trkpt>
      <trkpt lat="46.1649630" lon="12.4240580">
        <ele>976.3600000</ele>
        <time>2010-09-27T08:28:28Z</time>
      </trkpt>
      <trkpt lat="46.1649690" lon="12.4240790">
        <ele>976.3600000</ele>
        <time>2010-09-27T08:28:53Z</time>
      </trkpt>
      <trkpt lat="46.1649600" lon="12.4240930">
        <ele>976.3600000</ele>
        <time>2010-09-27T08:29:00Z</time>
      </trkpt>
      <trkpt lat="46.1649600" lon="12.4240930">
        <ele>976.3600000</ele>
        <time>2010-09-27T08:29:16Z</time>
      </trkpt>
      <trkpt lat="46.1649600" lon="12.4240930">
        <ele>975.8800000</ele>
        <time>2010-09-27T08:29:29Z</time>
      </trkpt>
      <trkpt lat="46.1649670" lon="12.4240780">
        <ele>975.8800000</ele>
        <time>2010-09-27T08:30:09Z</time>
      </trkpt>
      <trkpt lat="46.1649710" lon="12.4240810">
        <ele>975.3900000</ele>
        <time>2010-09-27T08:30:16Z</time>
      </trkpt>
      <trkpt lat="46.1649530" lon="12.4240560">
        <ele>975.8800000</ele>
        <time>2010-09-27T08:30:33Z</time>
      </trkpt>
      <trkpt lat="46.1649460" lon="12.4240550">
        <ele>976.3600000</ele>
        <time>2010-09-27T08:30:35Z</time>
      </trkpt>
      <trkpt lat="46.1649130" lon="12.4240430">
        <ele>976.3600000</ele>
        <time>2010-09-27T08:30:39Z</time>
      </trkpt>
      <trkpt lat="46.1648760" lon="12.4240520">
        <ele>976.3600000</ele>
        <time>2010-09-27T08:30:45Z</time>
      </trkpt>
      <trkpt lat="46.1648170" lon="12.4240450">
        <ele>975.8800000</ele>
        <time>2010-09-27T08:30:51Z</time>
      </trkpt>
      <trkpt lat="46.1647590" lon="12.4240470">
        <ele>976.8400000</ele>
        <time>2010-09-27T08:30:57Z</time>
      </trkpt>
      <trkpt lat="46.1647010" lon="12.4240580">
        <ele>976.8400000</ele>
        <time>2010-09-27T08:31:03Z</time>
      </trkpt>
      <trkpt lat="46.1646210" lon="12.4240900">
        <ele>977.3200000</ele>
        <time>2010-09-27T08:31:10Z</time>
      </trkpt>
      <trkpt lat="46.1645760" lon="12.4241140">
        <ele>978.2800000</ele>
        <time>2010-09-27T08:31:14Z</time>
      </trkpt>
      <trkpt lat="46.1645040" lon="12.4241870">
        <ele>977.8000000</ele>
        <time>2010-09-27T08:31:22Z</time>
      </trkpt>
      <trkpt lat="46.1644090" lon="12.4242490">
        <ele>979.2400000</ele>
        <time>2010-09-27T08:31:29Z</time>
      </trkpt>
      <trkpt lat="46.1643380" lon="12.4242950">
        <ele>978.7600000</ele>
        <time>2010-09-27T08:31:36Z</time>
      </trkpt>
      <trkpt lat="46.1643000" lon="12.4243430">
        <ele>980.2000000</ele>
        <time>2010-09-27T08:31:42Z</time>
      </trkpt>
      <trkpt lat="46.1642530" lon="12.4243840">
        <ele>980.2000000</ele>
        <time>2010-09-27T08:31:47Z</time>
      </trkpt>
      <trkpt lat="46.1642070" lon="12.4244450">
        <ele>980.2000000</ele>
        <time>2010-09-27T08:31:52Z</time>
      </trkpt>
      <trkpt lat="46.1641580" lon="12.4244570">
        <ele>981.1600000</ele>
        <time>2010-09-27T08:31:56Z</time>
      </trkpt>
      <trkpt lat="46.1641360" lon="12.4245440">
        <ele>981.6400000</ele>
        <time>2010-09-27T08:32:01Z</time>
      </trkpt>
      <trkpt lat="46.1640750" lon="12.4246930">
        <ele>982.1200000</ele>
        <time>2010-09-27T08:32:09Z</time>
      </trkpt>
      <trkpt lat="46.1640700" lon="12.4247320">
        <ele>982.6000000</ele>
        <time>2010-09-27T08:32:11Z</time>
      </trkpt>
      <trkpt lat="46.1640490" lon="12.4248860">
        <ele>983.0900000</ele>
        <time>2010-09-27T08:32:18Z</time>
      </trkpt>
      <trkpt lat="46.1640260" lon="12.4250080">
        <ele>983.0900000</ele>
        <time>2010-09-27T08:32:26Z</time>
      </trkpt>
      <trkpt lat="46.1640090" lon="12.4250560">
        <ele>983.5700000</ele>
        <time>2010-09-27T08:32:30Z</time>
      </trkpt>
      <trkpt lat="46.1639730" lon="12.4251270">
        <ele>983.5700000</ele>
        <time>2010-09-27T08:32:36Z</time>
      </trkpt>
      <trkpt lat="46.1639360" lon="12.4252040">
        <ele>985.0100000</ele>
        <time>2010-09-27T08:32:42Z</time>
      </trkpt>
      <trkpt lat="46.1638810" lon="12.4252670">
        <ele>985.0100000</ele>
        <time>2010-09-27T08:32:49Z</time>
      </trkpt>
      <trkpt lat="46.1638450" lon="12.4253030">
        <ele>985.4900000</ele>
        <time>2010-09-27T08:32:52Z</time>
      </trkpt>
      <trkpt lat="46.1637790" lon="12.4253440">
        <ele>986.4500000</ele>
        <time>2010-09-27T08:33:00Z</time>
      </trkpt>
      <trkpt lat="46.1637240" lon="12.4254000">
        <ele>985.9700000</ele>
        <time>2010-09-27T08:33:06Z</time>
      </trkpt>
      <trkpt lat="46.1636320" lon="12.4254470">
        <ele>986.9300000</ele>
        <time>2010-09-27T08:33:13Z</time>
      </trkpt>
      <trkpt lat="46.1635530" lon="12.4254660">
        <ele>987.4100000</ele>
        <time>2010-09-27T08:33:19Z</time>
      </trkpt>
      <trkpt lat="46.1635000" lon="12.4254700">
        <ele>987.4100000</ele>
        <time>2010-09-27T08:33:24Z</time>
      </trkpt>
      <trkpt lat="46.1634250" lon="12.4254940">
        <ele>987.8900000</ele>
        <time>2010-09-27T08:33:30Z</time>
      </trkpt>
      <trkpt lat="46.1633530" lon="12.4255210">
        <ele>988.3700000</ele>
        <time>2010-09-27T08:33:36Z</time>
      </trkpt>
      <trkpt lat="46.1632800" lon="12.4255380">
        <ele>988.8500000</ele>
        <time>2010-09-27T08:33:43Z</time>
      </trkpt>
      <trkpt lat="46.1632370" lon="12.4255320">
        <ele>989.8100000</ele>
        <time>2010-09-27T08:33:47Z</time>
      </trkpt>
      <trkpt lat="46.1631540" lon="12.4255340">
        <ele>989.8100000</ele>
        <time>2010-09-27T08:33:54Z</time>
      </trkpt>
      <trkpt lat="46.1630580" lon="12.4255490">
        <ele>990.3000000</ele>
        <time>2010-09-27T08:34:01Z</time>
      </trkpt>
      <trkpt lat="46.1629830" lon="12.4255620">
        <ele>990.7800000</ele>
        <time>2010-09-27T08:34:07Z</time>
      </trkpt>
      <trkpt lat="46.1629230" lon="12.4255820">
        <ele>990.3000000</ele>
        <time>2010-09-27T08:34:12Z</time>
      </trkpt>
      <trkpt lat="46.1628500" lon="12.4256330">
        <ele>990.7800000</ele>
        <time>2010-09-27T08:34:19Z</time>
      </trkpt>
      <trkpt lat="46.1628010" lon="12.4256660">
        <ele>991.2600000</ele>
        <time>2010-09-27T08:34:24Z</time>
      </trkpt>
      <trkpt lat="46.1627850" lon="12.4256850">
        <ele>991.2600000</ele>
        <time>2010-09-27T08:34:26Z</time>
      </trkpt>
      <trkpt lat="46.1627370" lon="12.4257340">
        <ele>991.2600000</ele>
        <time>2010-09-27T08:34:33Z</time>
      </trkpt>
      <trkpt lat="46.1626860" lon="12.4258170">
        <ele>991.7400000</ele>
        <time>2010-09-27T08:34:39Z</time>
      </trkpt>
      <trkpt lat="46.1626310" lon="12.4259420">
        <ele>992.2200000</ele>
        <time>2010-09-27T08:34:45Z</time>
      </trkpt>
      <trkpt lat="46.1626060" lon="12.4259870">
        <ele>992.7000000</ele>
        <time>2010-09-27T08:34:48Z</time>
      </trkpt>
      <trkpt lat="46.1625650" lon="12.4261030">
        <ele>993.1800000</ele>
        <time>2010-09-27T08:34:55Z</time>
      </trkpt>
      <trkpt lat="46.1625300" lon="12.4262150">
        <ele>993.1800000</ele>
        <time>2010-09-27T08:35:02Z</time>
      </trkpt>
      <trkpt lat="46.1625030" lon="12.4263310">
        <ele>993.1800000</ele>
        <time>2010-09-27T08:35:09Z</time>
      </trkpt>
      <trkpt lat="46.1624940" lon="12.4264130">
        <ele>993.6600000</ele>
        <time>2010-09-27T08:35:14Z</time>
      </trkpt>
      <trkpt lat="46.1624510" lon="12.4265180">
        <ele>993.6600000</ele>
        <time>2010-09-27T08:35:21Z</time>
      </trkpt>
      <trkpt lat="46.1624320" lon="12.4266160">
        <ele>993.6600000</ele>
        <time>2010-09-27T08:35:27Z</time>
      </trkpt>
      <trkpt lat="46.1624210" lon="12.4267390">
        <ele>994.1400000</ele>
        <time>2010-09-27T08:35:34Z</time>
      </trkpt>
      <trkpt lat="46.1624200" lon="12.4267960">
        <ele>994.1400000</ele>
        <time>2010-09-27T08:35:38Z</time>
      </trkpt>
      <trkpt lat="46.1623800" lon="12.4269180">
        <ele>994.6200000</ele>
        <time>2010-09-27T08:35:46Z</time>
      </trkpt>
      <trkpt lat="46.1623600" lon="12.4270340">
        <ele>994.6200000</ele>
        <time>2010-09-27T08:35:53Z</time>
      </trkpt>
      <trkpt lat="46.1623660" lon="12.4270770">
        <ele>995.1000000</ele>
        <time>2010-09-27T08:36:02Z</time>
      </trkpt>
      <trkpt lat="46.1623680" lon="12.4271100">
        <ele>995.5800000</ele>
        <time>2010-09-27T08:39:07Z</time>
      </trkpt>
      <trkpt lat="46.1623640" lon="12.4271640">
        <ele>995.1000000</ele>
        <time>2010-09-27T08:39:13Z</time>
      </trkpt>
      <trkpt lat="46.1623710" lon="12.4272290">
        <ele>995.5800000</ele>
        <time>2010-09-27T08:39:19Z</time>
      </trkpt>
      <trkpt lat="46.1623730" lon="12.4272390">
        <ele>996.0600000</ele>
        <time>2010-09-27T08:39:28Z</time>
      </trkpt>
      <trkpt lat="46.1623720" lon="12.4272400">
        <ele>995.5800000</ele>
        <time>2010-09-27T08:40:19Z</time>
      </trkpt>
      <trkpt lat="46.1623930" lon="12.4272300">
        <ele>995.1000000</ele>
        <time>2010-09-27T08:40:27Z</time>
      </trkpt>
      <trkpt lat="46.1623990" lon="12.4272490">
        <ele>995.1000000</ele>
        <time>2010-09-27T08:41:40Z</time>
      </trkpt>
      <trkpt lat="46.1623600" lon="12.4272980">
        <ele>995.5800000</ele>
        <time>2010-09-27T08:41:47Z</time>
      </trkpt>
      <trkpt lat="46.1623160" lon="12.4273410">
        <ele>995.5800000</ele>
        <time>2010-09-27T08:41:54Z</time>
      </trkpt>
      <trkpt lat="46.1622670" lon="12.4273450">
        <ele>996.0600000</ele>
        <time>2010-09-27T08:41:59Z</time>
      </trkpt>
      <trkpt lat="46.1622430" lon="12.4273920">
        <ele>996.5400000</ele>
        <time>2010-09-27T08:42:03Z</time>
      </trkpt>
      <trkpt lat="46.1622100" lon="12.4274620">
        <ele>997.5100000</ele>
        <time>2010-09-27T08:42:08Z</time>
      </trkpt>
      <trkpt lat="46.1621740" lon="12.4275370">
        <ele>997.5100000</ele>
        <time>2010-09-27T08:42:14Z</time>
      </trkpt>
      <trkpt lat="46.1621210" lon="12.4276530">
        <ele>996.5400000</ele>
        <time>2010-09-27T08:42:22Z</time>
      </trkpt>
      <trkpt lat="46.1620890" lon="12.4276840">
        <ele>997.0200000</ele>
        <time>2010-09-27T08:42:25Z</time>
      </trkpt>
      <trkpt lat="46.1620730" lon="12.4277460">
        <ele>997.9900000</ele>
        <time>2010-09-27T08:42:29Z</time>
      </trkpt>
      <trkpt lat="46.1620160" lon="12.4278390">
        <ele>997.0200000</ele>
        <time>2010-09-27T08:42:36Z</time>
      </trkpt>
      <trkpt lat="46.1619640" lon="12.4279320">
        <ele>997.9900000</ele>
        <time>2010-09-27T08:42:42Z</time>
      </trkpt>
      <trkpt lat="46.1618720" lon="12.4280710">
        <ele>999.4300000</ele>
        <time>2010-09-27T08:42:50Z</time>
      </trkpt>
      <trkpt lat="46.1618420" lon="12.4281920">
        <ele>998.9500000</ele>
        <time>2010-09-27T08:42:58Z</time>
      </trkpt>
      <trkpt lat="46.1618150" lon="12.4282770">
        <ele>999.4300000</ele>
        <time>2010-09-27T08:43:04Z</time>
      </trkpt>
      <trkpt lat="46.1617950" lon="12.4283350">
        <ele>999.4300000</ele>
        <time>2010-09-27T08:43:08Z</time>
      </trkpt>
      <trkpt lat="46.1617650" lon="12.4284150">
        <ele>999.9100000</ele>
        <time>2010-09-27T08:43:15Z</time>
      </trkpt>
      <trkpt lat="46.1617660" lon="12.4284320">
        <ele>999.9100000</ele>
        <time>2010-09-27T08:43:16Z</time>
      </trkpt>
      <trkpt lat="46.1617160" lon="12.4285250">
        <ele>999.9100000</ele>
        <time>2010-09-27T08:43:22Z</time>
      </trkpt>
      <trkpt lat="46.1616940" lon="12.4285900">
        <ele>1000.3900000</ele>
        <time>2010-09-27T08:43:26Z</time>
      </trkpt>
      <trkpt lat="46.1616750" lon="12.4286720">
        <ele>1001.8300000</ele>
        <time>2010-09-27T08:43:31Z</time>
      </trkpt>
      <trkpt lat="46.1616590" lon="12.4287560">
        <ele>1000.8700000</ele>
        <time>2010-09-27T08:43:37Z</time>
      </trkpt>
      <trkpt lat="46.1615960" lon="12.4288720">
        <ele>1000.8700000</ele>
        <time>2010-09-27T08:43:43Z</time>
      </trkpt>
      <trkpt lat="46.1615540" lon="12.4290040">
        <ele>1001.8300000</ele>
        <time>2010-09-27T08:43:50Z</time>
      </trkpt>
      <trkpt lat="46.1615380" lon="12.4290710">
        <ele>1001.8300000</ele>
        <time>2010-09-27T08:43:54Z</time>
      </trkpt>
      <trkpt lat="46.1615010" lon="12.4291210">
        <ele>1002.7900000</ele>
        <time>2010-09-27T08:43:59Z</time>
      </trkpt>
      <trkpt lat="46.1614560" lon="12.4292450">
        <ele>1002.3100000</ele>
        <time>2010-09-27T08:44:07Z</time>
      </trkpt>
      <trkpt lat="46.1614300" lon="12.4294080">
        <ele>1003.7500000</ele>
        <time>2010-09-27T08:44:14Z</time>
      </trkpt>
      <trkpt lat="46.1614120" lon="12.4295450">
        <ele>1003.7500000</ele>
        <time>2010-09-27T08:44:20Z</time>
      </trkpt>
      <trkpt lat="46.1613910" lon="12.4296230">
        <ele>1004.2300000</ele>
        <time>2010-09-27T08:44:25Z</time>
      </trkpt>
      <trkpt lat="46.1613790" lon="12.4297410">
        <ele>1003.7500000</ele>
        <time>2010-09-27T08:44:30Z</time>
      </trkpt>
      <trkpt lat="46.1613510" lon="12.4298340">
        <ele>1003.2700000</ele>
        <time>2010-09-27T08:44:36Z</time>
      </trkpt>
      <trkpt lat="46.1613170" lon="12.4299980">
        <ele>1004.7200000</ele>
        <time>2010-09-27T08:44:43Z</time>
      </trkpt>
      <trkpt lat="46.1613070" lon="12.4300430">
        <ele>1004.7200000</ele>
        <time>2010-09-27T08:44:47Z</time>
      </trkpt>
      <trkpt lat="46.1612570" lon="12.4301970">
        <ele>1005.2000000</ele>
        <time>2010-09-27T08:44:55Z</time>
      </trkpt>
      <trkpt lat="46.1612430" lon="12.4302860">
        <ele>1005.2000000</ele>
        <time>2010-09-27T08:45:01Z</time>
      </trkpt>
      <trkpt lat="46.1612260" lon="12.4303900">
        <ele>1004.7200000</ele>
        <time>2010-09-27T08:45:07Z</time>
      </trkpt>
      <trkpt lat="46.1611980" lon="12.4304810">
        <ele>1005.6800000</ele>
        <time>2010-09-27T08:45:13Z</time>
      </trkpt>
      <trkpt lat="46.1611480" lon="12.4305710">
        <ele>1005.6800000</ele>
        <time>2010-09-27T08:45:19Z</time>
      </trkpt>
      <trkpt lat="46.1610860" lon="12.4306830">
        <ele>1005.6800000</ele>
        <time>2010-09-27T08:45:25Z</time>
      </trkpt>
      <trkpt lat="46.1610640" lon="12.4307140">
        <ele>1005.2000000</ele>
        <time>2010-09-27T08:45:29Z</time>
      </trkpt>
      <trkpt lat="46.1610260" lon="12.4307610">
        <ele>1005.6800000</ele>
        <time>2010-09-27T08:45:33Z</time>
      </trkpt>
      <trkpt lat="46.1609630" lon="12.4308560">
        <ele>1005.6800000</ele>
        <time>2010-09-27T08:45:38Z</time>
      </trkpt>
      <trkpt lat="46.1609390" lon="12.4308790">
        <ele>1005.6800000</ele>
        <time>2010-09-27T08:45:42Z</time>
      </trkpt>
      <trkpt lat="46.1608940" lon="12.4309060">
        <ele>1007.1200000</ele>
        <time>2010-09-27T08:45:46Z</time>
      </trkpt>
      <trkpt lat="46.1608290" lon="12.4309810">
        <ele>1006.6400000</ele>
        <time>2010-09-27T08:45:53Z</time>
      </trkpt>
      <trkpt lat="46.1607700" lon="12.4310480">
        <ele>1007.6000000</ele>
        <time>2010-09-27T08:45:59Z</time>
      </trkpt>
      <trkpt lat="46.1607150" lon="12.4310970">
        <ele>1009.0400000</ele>
        <time>2010-09-27T08:46:04Z</time>
      </trkpt>
      <trkpt lat="46.1606540" lon="12.4311620">
        <ele>1008.0800000</ele>
        <time>2010-09-27T08:46:11Z</time>
      </trkpt>
      <trkpt lat="46.1605720" lon="12.4312170">
        <ele>1009.0400000</ele>
        <time>2010-09-27T08:46:17Z</time>
      </trkpt>
      <trkpt lat="46.1605430" lon="12.4312590">
        <ele>1008.0800000</ele>
        <time>2010-09-27T08:46:21Z</time>
      </trkpt>
      <trkpt lat="46.1605160" lon="12.4312900">
        <ele>1009.0400000</ele>
        <time>2010-09-27T08:46:24Z</time>
      </trkpt>
      <trkpt lat="46.1604650" lon="12.4313700">
        <ele>1008.5600000</ele>
        <time>2010-09-27T08:46:30Z</time>
      </trkpt>
      <trkpt lat="46.1604490" lon="12.4315340">
        <ele>1008.5600000</ele>
        <time>2010-09-27T08:46:38Z</time>
      </trkpt>
      <trkpt lat="46.1604550" lon="12.4315850">
        <ele>1007.1200000</ele>
        <time>2010-09-27T08:46:41Z</time>
      </trkpt>
      <trkpt lat="46.1604420" lon="12.4316840">
        <ele>1009.5200000</ele>
        <time>2010-09-27T08:46:47Z</time>
      </trkpt>
      <trkpt lat="46.1604830" lon="12.4318040">
        <ele>1010.0000000</ele>
        <time>2010-09-27T08:46:54Z</time>
      </trkpt>
      <trkpt lat="46.1604950" lon="12.4319190">
        <ele>1010.0000000</ele>
        <time>2010-09-27T08:47:01Z</time>
      </trkpt>
      <trkpt lat="46.1605020" lon="12.4320120">
        <ele>1010.9600000</ele>
        <time>2010-09-27T08:47:08Z</time>
      </trkpt>
      <trkpt lat="46.1604980" lon="12.4321390">
        <ele>1010.9600000</ele>
        <time>2010-09-27T08:47:14Z</time>
      </trkpt>
      <trkpt lat="46.1605200" lon="12.4322700">
        <ele>1010.9600000</ele>
        <time>2010-09-27T08:47:19Z</time>
      </trkpt>
      <trkpt lat="46.1605070" lon="12.4323400">
        <ele>1006.1600000</ele>
        <time>2010-09-27T08:47:22Z</time>
      </trkpt>
      <trkpt lat="46.1605090" lon="12.4323690">
        <ele>1010.4800000</ele>
        <time>2010-09-27T08:47:23Z</time>
      </trkpt>
      <trkpt lat="46.1605250" lon="12.4325310">
        <ele>1008.5600000</ele>
        <time>2010-09-27T08:47:30Z</time>
      </trkpt>
      <trkpt lat="46.1605390" lon="12.4326040">
        <ele>1011.4400000</ele>
        <time>2010-09-27T08:47:39Z</time>
      </trkpt>
      <trkpt lat="46.1605390" lon="12.4326040">
        <ele>1007.6000000</ele>
        <time>2010-09-27T08:47:40Z</time>
      </trkpt>
      <trkpt lat="46.1605390" lon="12.4326040">
        <ele>1013.8500000</ele>
        <time>2010-09-27T08:47:41Z</time>
      </trkpt>
      <trkpt lat="46.1605390" lon="12.4326040">
        <ele>1007.1200000</ele>
        <time>2010-09-27T08:47:50Z</time>
      </trkpt>
      <trkpt lat="46.1605390" lon="12.4326040">
        <ele>1012.8900000</ele>
        <time>2010-09-27T08:47:51Z</time>
      </trkpt>
      <trkpt lat="46.1605390" lon="12.4326040">
        <ele>1010.9600000</ele>
        <time>2010-09-27T08:47:54Z</time>
      </trkpt>
      <trkpt lat="46.1605390" lon="12.4326040">
        <ele>1011.4400000</ele>
        <time>2010-09-27T08:48:10Z</time>
      </trkpt>
      <trkpt lat="46.1605570" lon="12.4327180">
        <ele>1010.9600000</ele>
        <time>2010-09-27T08:48:16Z</time>
      </trkpt>
      <trkpt lat="46.1605330" lon="12.4327840">
        <ele>1011.4400000</ele>
        <time>2010-09-27T08:48:21Z</time>
      </trkpt>
      <trkpt lat="46.1605160" lon="12.4329090">
        <ele>1011.9300000</ele>
        <time>2010-09-27T08:48:27Z</time>
      </trkpt>
      <trkpt lat="46.1605240" lon="12.4329820">
        <ele>1011.9300000</ele>
        <time>2010-09-27T08:48:32Z</time>
      </trkpt>
      <trkpt lat="46.1604940" lon="12.4331290">
        <ele>1012.4100000</ele>
        <time>2010-09-27T08:48:39Z</time>
      </trkpt>
      <trkpt lat="46.1604650" lon="12.4331880">
        <ele>1012.8900000</ele>
        <time>2010-09-27T08:48:45Z</time>
      </trkpt>
      <trkpt lat="46.1604890" lon="12.4333260">
        <ele>1013.8500000</ele>
        <time>2010-09-27T08:48:53Z</time>
      </trkpt>
      <trkpt lat="46.1605250" lon="12.4334210">
        <ele>1013.8500000</ele>
        <time>2010-09-27T08:49:00Z</time>
      </trkpt>
      <trkpt lat="46.1605880" lon="12.4335270">
        <ele>1014.3300000</ele>
        <time>2010-09-27T08:49:07Z</time>
      </trkpt>
      <trkpt lat="46.1606730" lon="12.4336520">
        <ele>1014.8100000</ele>
        <time>2010-09-27T08:49:16Z</time>
      </trkpt>
      <trkpt lat="46.1607210" lon="12.4336970">
        <ele>1015.2900000</ele>
        <time>2010-09-27T08:49:20Z</time>
      </trkpt>
      <trkpt lat="46.1608190" lon="12.4337980">
        <ele>1015.2900000</ele>
        <time>2010-09-27T08:49:27Z</time>
      </trkpt>
      <trkpt lat="46.1608740" lon="12.4338570">
        <ele>1015.2900000</ele>
        <time>2010-09-27T08:49:33Z</time>
      </trkpt>
      <trkpt lat="46.1609340" lon="12.4339690">
        <ele>1015.2900000</ele>
        <time>2010-09-27T08:49:41Z</time>
      </trkpt>
      <trkpt lat="46.1609770" lon="12.4340910">
        <ele>1016.2500000</ele>
        <time>2010-09-27T08:49:49Z</time>
      </trkpt>
      <trkpt lat="46.1609940" lon="12.4341450">
        <ele>1016.2500000</ele>
        <time>2010-09-27T08:49:53Z</time>
      </trkpt>
      <trkpt lat="46.1610450" lon="12.4342970">
        <ele>1017.2100000</ele>
        <time>2010-09-27T08:50:02Z</time>
      </trkpt>
      <trkpt lat="46.1610860" lon="12.4344230">
        <ele>1017.2100000</ele>
        <time>2010-09-27T08:50:10Z</time>
      </trkpt>
      <trkpt lat="46.1611030" lon="12.4344970">
        <ele>1017.2100000</ele>
        <time>2010-09-27T08:50:15Z</time>
      </trkpt>
      <trkpt lat="46.1611080" lon="12.4345510">
        <ele>1017.2100000</ele>
        <time>2010-09-27T08:50:18Z</time>
      </trkpt>
      <trkpt lat="46.1611000" lon="12.4346730">
        <ele>1017.6900000</ele>
        <time>2010-09-27T08:50:26Z</time>
      </trkpt>
      <trkpt lat="46.1610960" lon="12.4347740">
        <ele>1018.6500000</ele>
        <time>2010-09-27T08:50:33Z</time>
      </trkpt>
      <trkpt lat="46.1610720" lon="12.4348840">
        <ele>1018.6500000</ele>
        <time>2010-09-27T08:50:40Z</time>
      </trkpt>
      <trkpt lat="46.1610840" lon="12.4350410">
        <ele>1019.1300000</ele>
        <time>2010-09-27T08:50:47Z</time>
      </trkpt>
      <trkpt lat="46.1610950" lon="12.4351780">
        <ele>1020.1000000</ele>
        <time>2010-09-27T08:50:54Z</time>
      </trkpt>
      <trkpt lat="46.1611310" lon="12.4353070">
        <ele>1020.1000000</ele>
        <time>2010-09-27T08:51:01Z</time>
      </trkpt>
      <trkpt lat="46.1611740" lon="12.4354190">
        <ele>1021.0600000</ele>
        <time>2010-09-27T08:51:07Z</time>
      </trkpt>
      <trkpt lat="46.1612330" lon="12.4355130">
        <ele>1020.5800000</ele>
        <time>2010-09-27T08:51:13Z</time>
      </trkpt>
      <trkpt lat="46.1612740" lon="12.4355750">
        <ele>1021.5400000</ele>
        <time>2010-09-27T08:51:19Z</time>
      </trkpt>
      <trkpt lat="46.1612830" lon="12.4355940">
        <ele>1021.5400000</ele>
        <time>2010-09-27T08:51:20Z</time>
      </trkpt>
      <trkpt lat="46.1613090" lon="12.4356330">
        <ele>1021.5400000</ele>
        <time>2010-09-27T08:51:22Z</time>
      </trkpt>
      <trkpt lat="46.1613530" lon="12.4356840">
        <ele>1021.5400000</ele>
        <time>2010-09-27T08:51:27Z</time>
      </trkpt>
      <trkpt lat="46.1614000" lon="12.4357680">
        <ele>1022.0200000</ele>
        <time>2010-09-27T08:51:33Z</time>
      </trkpt>
      <trkpt lat="46.1614550" lon="12.4358680">
        <ele>1022.9800000</ele>
        <time>2010-09-27T08:51:39Z</time>
      </trkpt>
      <trkpt lat="46.1614620" lon="12.4358780">
        <ele>1023.4600000</ele>
        <time>2010-09-27T08:51:41Z</time>
      </trkpt>
      <trkpt lat="46.1615070" lon="12.4359900">
        <ele>1023.4600000</ele>
        <time>2010-09-27T08:51:48Z</time>
      </trkpt>
      <trkpt lat="46.1615430" lon="12.4361050">
        <ele>1023.9400000</ele>
        <time>2010-09-27T08:51:55Z</time>
      </trkpt>
      <trkpt lat="46.1615530" lon="12.4361790">
        <ele>1024.9000000</ele>
        <time>2010-09-27T08:52:00Z</time>
      </trkpt>
      <trkpt lat="46.1615670" lon="12.4362830">
        <ele>1024.4200000</ele>
        <time>2010-09-27T08:52:06Z</time>
      </trkpt>
      <trkpt lat="46.1615670" lon="12.4364030">
        <ele>1024.9000000</ele>
        <time>2010-09-27T08:52:13Z</time>
      </trkpt>
      <trkpt lat="46.1615590" lon="12.4365140">
        <ele>1025.3800000</ele>
        <time>2010-09-27T08:52:20Z</time>
      </trkpt>
      <trkpt lat="46.1615470" lon="12.4366150">
        <ele>1025.3800000</ele>
        <time>2010-09-27T08:52:26Z</time>
      </trkpt>
      <trkpt lat="46.1615250" lon="12.4367130">
        <ele>1026.3400000</ele>
        <time>2010-09-27T08:52:33Z</time>
      </trkpt>
      <trkpt lat="46.1615080" lon="12.4367850">
        <ele>1025.8600000</ele>
        <time>2010-09-27T08:52:38Z</time>
      </trkpt>
      <trkpt lat="46.1614680" lon="12.4368250">
        <ele>1024.9000000</ele>
        <time>2010-09-27T08:52:43Z</time>
      </trkpt>
      <trkpt lat="46.1614230" lon="12.4368940">
        <ele>1024.4200000</ele>
        <time>2010-09-27T08:52:49Z</time>
      </trkpt>
      <trkpt lat="46.1613840" lon="12.4369790">
        <ele>1024.4200000</ele>
        <time>2010-09-27T08:52:55Z</time>
      </trkpt>
      <trkpt lat="46.1613490" lon="12.4370440">
        <ele>1023.9400000</ele>
        <time>2010-09-27T08:53:00Z</time>
      </trkpt>
      <trkpt lat="46.1613220" lon="12.4370760">
        <ele>1023.9400000</ele>
        <time>2010-09-27T08:53:03Z</time>
      </trkpt>
      <trkpt lat="46.1613150" lon="12.4371090">
        <ele>1024.4200000</ele>
        <time>2010-09-27T08:53:05Z</time>
      </trkpt>
      <trkpt lat="46.1612770" lon="12.4371910">
        <ele>1024.4200000</ele>
        <time>2010-09-27T08:53:11Z</time>
      </trkpt>
      <trkpt lat="46.1612710" lon="12.4372060">
        <ele>1023.9400000</ele>
        <time>2010-09-27T08:53:12Z</time>
      </trkpt>
      <trkpt lat="46.1612510" lon="12.4372370">
        <ele>1024.4200000</ele>
        <time>2010-09-27T08:53:15Z</time>
      </trkpt>
      <trkpt lat="46.1612270" lon="12.4372580">
        <ele>1024.4200000</ele>
        <time>2010-09-27T08:53:18Z</time>
      </trkpt>
      <trkpt lat="46.1612070" lon="12.4372620">
        <ele>1024.4200000</ele>
        <time>2010-09-27T08:53:20Z</time>
      </trkpt>
      <trkpt lat="46.1611870" lon="12.4372760">
        <ele>1024.4200000</ele>
        <time>2010-09-27T08:53:22Z</time>
      </trkpt>
      <trkpt lat="46.1611510" lon="12.4373220">
        <ele>1024.4200000</ele>
        <time>2010-09-27T08:53:28Z</time>
      </trkpt>
      <trkpt lat="46.1611370" lon="12.4373740">
        <ele>1024.4200000</ele>
        <time>2010-09-27T08:53:35Z</time>
      </trkpt>
      <trkpt lat="46.1611270" lon="12.4374220">
        <ele>1024.4200000</ele>
        <time>2010-09-27T08:53:41Z</time>
      </trkpt>
      <trkpt lat="46.1611280" lon="12.4374230">
        <ele>1024.4200000</ele>
        <time>2010-09-27T08:53:51Z</time>
      </trkpt>
      <trkpt lat="46.1611720" lon="12.4373800">
        <ele>1024.4200000</ele>
        <time>2010-09-27T08:53:58Z</time>
      </trkpt>
      <trkpt lat="46.1611940" lon="12.4373540">
        <ele>1024.4200000</ele>
        <time>2010-09-27T08:54:04Z</time>
      </trkpt>
      <trkpt lat="46.1612160" lon="12.4373550">
        <ele>1023.9400000</ele>
        <time>2010-09-27T08:54:17Z</time>
      </trkpt>
      <trkpt lat="46.1612250" lon="12.4373500">
        <ele>1023.9400000</ele>
        <time>2010-09-27T08:54:27Z</time>
      </trkpt>
      <trkpt lat="46.1611990" lon="12.4372890">
        <ele>1024.4200000</ele>
        <time>2010-09-27T08:54:33Z</time>
      </trkpt>
      <trkpt lat="46.1611940" lon="12.4372880">
        <ele>1023.9400000</ele>
        <time>2010-09-27T08:54:41Z</time>
      </trkpt>
      <trkpt lat="46.1612070" lon="12.4373220">
        <ele>1023.9400000</ele>
        <time>2010-09-27T08:54:48Z</time>
      </trkpt>
      <trkpt lat="46.1612110" lon="12.4373630">
        <ele>1024.9000000</ele>
        <time>2010-09-27T08:55:17Z</time>
      </trkpt>
      <trkpt lat="46.1612140" lon="12.4373810">
        <ele>1024.9000000</ele>
        <time>2010-09-27T08:55:30Z</time>
      </trkpt>
      <trkpt lat="46.1612260" lon="12.4373520">
        <ele>1023.9400000</ele>
        <time>2010-09-27T08:56:16Z</time>
      </trkpt>
      <trkpt lat="46.1612250" lon="12.4373410">
        <ele>1023.9400000</ele>
        <time>2010-09-27T08:56:51Z</time>
      </trkpt>
      <trkpt lat="46.1612520" lon="12.4372700">
        <ele>1023.4600000</ele>
        <time>2010-09-27T08:56:58Z</time>
      </trkpt>
      <trkpt lat="46.1612520" lon="12.4372640">
        <ele>1023.9400000</ele>
        <time>2010-09-27T08:56:59Z</time>
      </trkpt>
      <trkpt lat="46.1612620" lon="12.4372600">
        <ele>1023.4600000</ele>
        <time>2010-09-27T08:57:01Z</time>
      </trkpt>
      <trkpt lat="46.1613090" lon="12.4372080">
        <ele>1023.4600000</ele>
        <time>2010-09-27T08:57:06Z</time>
      </trkpt>
      <trkpt lat="46.1613760" lon="12.4371260">
        <ele>1022.9800000</ele>
        <time>2010-09-27T08:57:14Z</time>
      </trkpt>
      <trkpt lat="46.1614770" lon="12.4370110">
        <ele>1023.4600000</ele>
        <time>2010-09-27T08:57:23Z</time>
      </trkpt>
      <trkpt lat="46.1614980" lon="12.4369760">
        <ele>1023.9400000</ele>
        <time>2010-09-27T08:57:26Z</time>
      </trkpt>
      <trkpt lat="46.1615220" lon="12.4369260">
        <ele>1024.4200000</ele>
        <time>2010-09-27T08:57:30Z</time>
      </trkpt>
      <trkpt lat="46.1615680" lon="12.4369120">
        <ele>1024.9000000</ele>
        <time>2010-09-27T08:57:35Z</time>
      </trkpt>
      <trkpt lat="46.1615740" lon="12.4368960">
        <ele>1025.3800000</ele>
        <time>2010-09-27T08:57:39Z</time>
      </trkpt>
      <trkpt lat="46.1615820" lon="12.4369290">
        <ele>1025.8600000</ele>
        <time>2010-09-27T08:57:43Z</time>
      </trkpt>
      <trkpt lat="46.1615720" lon="12.4370220">
        <ele>1026.8300000</ele>
        <time>2010-09-27T08:57:51Z</time>
      </trkpt>
      <trkpt lat="46.1615790" lon="12.4371020">
        <ele>1027.7900000</ele>
        <time>2010-09-27T08:57:57Z</time>
      </trkpt>
      <trkpt lat="46.1615760" lon="12.4371730">
        <ele>1028.7500000</ele>
        <time>2010-09-27T08:58:03Z</time>
      </trkpt>
      <trkpt lat="46.1615810" lon="12.4372410">
        <ele>1029.2300000</ele>
        <time>2010-09-27T08:58:08Z</time>
      </trkpt>
      <trkpt lat="46.1615800" lon="12.4373200">
        <ele>1030.1900000</ele>
        <time>2010-09-27T08:58:13Z</time>
      </trkpt>
      <trkpt lat="46.1615820" lon="12.4373960">
        <ele>1030.1900000</ele>
        <time>2010-09-27T08:58:18Z</time>
      </trkpt>
      <trkpt lat="46.1615780" lon="12.4374700">
        <ele>1030.6700000</ele>
        <time>2010-09-27T08:58:23Z</time>
      </trkpt>
      <trkpt lat="46.1615850" lon="12.4375370">
        <ele>1031.1500000</ele>
        <time>2010-09-27T08:58:28Z</time>
      </trkpt>
      <trkpt lat="46.1615870" lon="12.4376260">
        <ele>1031.6300000</ele>
        <time>2010-09-27T08:58:34Z</time>
      </trkpt>
      <trkpt lat="46.1616090" lon="12.4377240">
        <ele>1032.1100000</ele>
        <time>2010-09-27T08:58:41Z</time>
      </trkpt>
      <trkpt lat="46.1616190" lon="12.4377990">
        <ele>1032.5900000</ele>
        <time>2010-09-27T08:58:46Z</time>
      </trkpt>
      <trkpt lat="46.1616380" lon="12.4378900">
        <ele>1033.5500000</ele>
        <time>2010-09-27T08:58:52Z</time>
      </trkpt>
      <trkpt lat="46.1616650" lon="12.4379910">
        <ele>1033.5500000</ele>
        <time>2010-09-27T08:58:59Z</time>
      </trkpt>
      <trkpt lat="46.1616760" lon="12.4380530">
        <ele>1034.0400000</ele>
        <time>2010-09-27T08:59:04Z</time>
      </trkpt>
      <trkpt lat="46.1616870" lon="12.4381240">
        <ele>1034.5200000</ele>
        <time>2010-09-27T08:59:09Z</time>
      </trkpt>
      <trkpt lat="46.1617040" lon="12.4381970">
        <ele>1035.4800000</ele>
        <time>2010-09-27T08:59:15Z</time>
      </trkpt>
      <trkpt lat="46.1617000" lon="12.4382790">
        <ele>1035.4800000</ele>
        <time>2010-09-27T08:59:21Z</time>
      </trkpt>
      <trkpt lat="46.1616950" lon="12.4383450">
        <ele>1036.4400000</ele>
        <time>2010-09-27T08:59:26Z</time>
      </trkpt>
      <trkpt lat="46.1617070" lon="12.4384330">
        <ele>1036.9200000</ele>
        <time>2010-09-27T08:59:31Z</time>
      </trkpt>
      <trkpt lat="46.1617040" lon="12.4384960">
        <ele>1037.4000000</ele>
        <time>2010-09-27T08:59:36Z</time>
      </trkpt>
      <trkpt lat="46.1617020" lon="12.4385600">
        <ele>1037.4000000</ele>
        <time>2010-09-27T08:59:41Z</time>
      </trkpt>
      <trkpt lat="46.1617060" lon="12.4386330">
        <ele>1038.3600000</ele>
        <time>2010-09-27T08:59:46Z</time>
      </trkpt>
      <trkpt lat="46.1617070" lon="12.4387210">
        <ele>1038.3600000</ele>
        <time>2010-09-27T08:59:52Z</time>
      </trkpt>
      <trkpt lat="46.1617000" lon="12.4388160">
        <ele>1040.2800000</ele>
        <time>2010-09-27T08:59:59Z</time>
      </trkpt>
      <trkpt lat="46.1617020" lon="12.4388290">
        <ele>1039.8000000</ele>
        <time>2010-09-27T09:00:00Z</time>
      </trkpt>
      <trkpt lat="46.1617130" lon="12.4389680">
        <ele>1040.2800000</ele>
        <time>2010-09-27T09:00:08Z</time>
      </trkpt>
      <trkpt lat="46.1617110" lon="12.4389900">
        <ele>1041.2500000</ele>
        <time>2010-09-27T09:00:10Z</time>
      </trkpt>
      <trkpt lat="46.1617070" lon="12.4390850">
        <ele>1041.7300000</ele>
        <time>2010-09-27T09:00:18Z</time>
      </trkpt>
      <trkpt lat="46.1617120" lon="12.4391270">
        <ele>1041.7300000</ele>
        <time>2010-09-27T09:00:23Z</time>
      </trkpt>
      <trkpt lat="46.1617140" lon="12.4391480">
        <ele>1042.6900000</ele>
        <time>2010-09-27T09:00:29Z</time>
      </trkpt>
      <trkpt lat="46.1617380" lon="12.4392140">
        <ele>1042.6900000</ele>
        <time>2010-09-27T09:00:48Z</time>
      </trkpt>
      <trkpt lat="46.1617860" lon="12.4393270">
        <ele>1043.1700000</ele>
        <time>2010-09-27T09:00:55Z</time>
      </trkpt>
      <trkpt lat="46.1618050" lon="12.4394070">
        <ele>1044.1300000</ele>
        <time>2010-09-27T09:01:01Z</time>
      </trkpt>
      <trkpt lat="46.1618260" lon="12.4394760">
        <ele>1044.6100000</ele>
        <time>2010-09-27T09:01:06Z</time>
      </trkpt>
      <trkpt lat="46.1618590" lon="12.4395450">
        <ele>1045.0900000</ele>
        <time>2010-09-27T09:01:12Z</time>
      </trkpt>
      <trkpt lat="46.1618810" lon="12.4396080">
        <ele>1045.0900000</ele>
        <time>2010-09-27T09:01:17Z</time>
      </trkpt>
      <trkpt lat="46.1619060" lon="12.4396730">
        <ele>1046.0500000</ele>
        <time>2010-09-27T09:01:22Z</time>
      </trkpt>
      <trkpt lat="46.1619130" lon="12.4396930">
        <ele>1046.0500000</ele>
        <time>2010-09-27T09:01:24Z</time>
      </trkpt>
      <trkpt lat="46.1619160" lon="12.4397880">
        <ele>1046.5300000</ele>
        <time>2010-09-27T09:01:30Z</time>
      </trkpt>
      <trkpt lat="46.1619060" lon="12.4398630">
        <ele>1047.4900000</ele>
        <time>2010-09-27T09:01:36Z</time>
      </trkpt>
      <trkpt lat="46.1618890" lon="12.4399350">
        <ele>1047.9700000</ele>
        <time>2010-09-27T09:01:42Z</time>
      </trkpt>
      <trkpt lat="46.1618680" lon="12.4400080">
        <ele>1048.4500000</ele>
        <time>2010-09-27T09:01:48Z</time>
      </trkpt>
      <trkpt lat="46.1618440" lon="12.4400920">
        <ele>1049.9000000</ele>
        <time>2010-09-27T09:01:54Z</time>
      </trkpt>
      <trkpt lat="46.1618490" lon="12.4401840">
        <ele>1050.3800000</ele>
        <time>2010-09-27T09:02:00Z</time>
      </trkpt>
      <trkpt lat="46.1618550" lon="12.4402680">
        <ele>1051.3400000</ele>
        <time>2010-09-27T09:02:05Z</time>
      </trkpt>
      <trkpt lat="46.1618720" lon="12.4403250">
        <ele>1050.8600000</ele>
        <time>2010-09-27T09:02:10Z</time>
      </trkpt>
      <trkpt lat="46.1618900" lon="12.4404030">
        <ele>1051.8200000</ele>
        <time>2010-09-27T09:02:16Z</time>
      </trkpt>
      <trkpt lat="46.1619120" lon="12.4404710">
        <ele>1052.3000000</ele>
        <time>2010-09-27T09:02:21Z</time>
      </trkpt>
      <trkpt lat="46.1619520" lon="12.4405270">
        <ele>1053.2600000</ele>
        <time>2010-09-27T09:02:27Z</time>
      </trkpt>
      <trkpt lat="46.1620020" lon="12.4405950">
        <ele>1053.7400000</ele>
        <time>2010-09-27T09:02:33Z</time>
      </trkpt>
      <trkpt lat="46.1620280" lon="12.4406500">
        <ele>1053.7400000</ele>
        <time>2010-09-27T09:02:38Z</time>
      </trkpt>
      <trkpt lat="46.1620570" lon="12.4406860">
        <ele>1053.7400000</ele>
        <time>2010-09-27T09:02:42Z</time>
      </trkpt>
      <trkpt lat="46.1620900" lon="12.4407730">
        <ele>1054.7000000</ele>
        <time>2010-09-27T09:02:48Z</time>
      </trkpt>
      <trkpt lat="46.1621270" lon="12.4408310">
        <ele>1054.7000000</ele>
        <time>2010-09-27T09:02:54Z</time>
      </trkpt>
      <trkpt lat="46.1621620" lon="12.4408880">
        <ele>1055.1800000</ele>
        <time>2010-09-27T09:02:59Z</time>
      </trkpt>
      <trkpt lat="46.1622040" lon="12.4409680">
        <ele>1055.6700000</ele>
        <time>2010-09-27T09:03:04Z</time>
      </trkpt>
      <trkpt lat="46.1622360" lon="12.4410540">
        <ele>1055.6700000</ele>
        <time>2010-09-27T09:03:11Z</time>
      </trkpt>
      <trkpt lat="46.1622360" lon="12.4410540">
        <ele>1056.6300000</ele>
        <time>2010-09-27T09:03:12Z</time>
      </trkpt>
      <trkpt lat="46.1622360" lon="12.4411680">
        <ele>1057.1100000</ele>
        <time>2010-09-27T09:03:19Z</time>
      </trkpt>
      <trkpt lat="46.1622300" lon="12.4412200">
        <ele>1057.5900000</ele>
        <time>2010-09-27T09:03:23Z</time>
      </trkpt>
      <trkpt lat="46.1621970" lon="12.4413100">
        <ele>1057.5900000</ele>
        <time>2010-09-27T09:03:29Z</time>
      </trkpt>
      <trkpt lat="46.1621730" lon="12.4413880">
        <ele>1058.0700000</ele>
        <time>2010-09-27T09:03:34Z</time>
      </trkpt>
      <trkpt lat="46.1621480" lon="12.4414880">
        <ele>1058.5500000</ele>
        <time>2010-09-27T09:03:41Z</time>
      </trkpt>
      <trkpt lat="46.1620960" lon="12.4415780">
        <ele>1058.5500000</ele>
        <time>2010-09-27T09:03:48Z</time>
      </trkpt>
      <trkpt lat="46.1620450" lon="12.4416290">
        <ele>1057.5900000</ele>
        <time>2010-09-27T09:03:55Z</time>
      </trkpt>
      <trkpt lat="46.1619770" lon="12.4416910">
        <ele>1057.1100000</ele>
        <time>2010-09-27T09:04:00Z</time>
      </trkpt>
      <trkpt lat="46.1619330" lon="12.4417260">
        <ele>1057.5900000</ele>
        <time>2010-09-27T09:04:06Z</time>
      </trkpt>
      <trkpt lat="46.1618820" lon="12.4417720">
        <ele>1057.5900000</ele>
        <time>2010-09-27T09:04:11Z</time>
      </trkpt>
      <trkpt lat="46.1617830" lon="12.4417870">
        <ele>1057.5900000</ele>
        <time>2010-09-27T09:04:20Z</time>
      </trkpt>
      <trkpt lat="46.1616760" lon="12.4418340">
        <ele>1057.5900000</ele>
        <time>2010-09-27T09:04:28Z</time>
      </trkpt>
      <trkpt lat="46.1615960" lon="12.4418760">
        <ele>1057.1100000</ele>
        <time>2010-09-27T09:04:34Z</time>
      </trkpt>
      <trkpt lat="46.1615250" lon="12.4419550">
        <ele>1057.1100000</ele>
        <time>2010-09-27T09:04:40Z</time>
      </trkpt>
      <trkpt lat="46.1614500" lon="12.4420750">
        <ele>1057.1100000</ele>
        <time>2010-09-27T09:04:47Z</time>
      </trkpt>
      <trkpt lat="46.1614180" lon="12.4421530">
        <ele>1056.6300000</ele>
        <time>2010-09-27T09:04:53Z</time>
      </trkpt>
      <trkpt lat="46.1613870" lon="12.4422350">
        <ele>1056.6300000</ele>
        <time>2010-09-27T09:04:57Z</time>
      </trkpt>
      <trkpt lat="46.1613330" lon="12.4423240">
        <ele>1056.1500000</ele>
        <time>2010-09-27T09:05:04Z</time>
      </trkpt>
      <trkpt lat="46.1612430" lon="12.4424400">
        <ele>1055.6700000</ele>
        <time>2010-09-27T09:05:12Z</time>
      </trkpt>
      <trkpt lat="46.1612160" lon="12.4425020">
        <ele>1055.1800000</ele>
        <time>2010-09-27T09:05:18Z</time>
      </trkpt>
      <trkpt lat="46.1611490" lon="12.4425770">
        <ele>1055.1800000</ele>
        <time>2010-09-27T09:05:24Z</time>
      </trkpt>
      <trkpt lat="46.1611100" lon="12.4426050">
        <ele>1055.1800000</ele>
        <time>2010-09-27T09:05:29Z</time>
      </trkpt>
      <trkpt lat="46.1610410" lon="12.4426470">
        <ele>1055.1800000</ele>
        <time>2010-09-27T09:05:35Z</time>
      </trkpt>
      <trkpt lat="46.1609600" lon="12.4426990">
        <ele>1054.7000000</ele>
        <time>2010-09-27T09:05:43Z</time>
      </trkpt>
      <trkpt lat="46.1608760" lon="12.4427480">
        <ele>1055.1800000</ele>
        <time>2010-09-27T09:05:49Z</time>
      </trkpt>
      <trkpt lat="46.1607860" lon="12.4427950">
        <ele>1054.7000000</ele>
        <time>2010-09-27T09:05:55Z</time>
      </trkpt>
      <trkpt lat="46.1607190" lon="12.4428210">
        <ele>1054.2200000</ele>
        <time>2010-09-27T09:06:01Z</time>
      </trkpt>
      <trkpt lat="46.1606800" lon="12.4428380">
        <ele>1054.2200000</ele>
        <time>2010-09-27T09:06:04Z</time>
      </trkpt>
      <trkpt lat="46.1606160" lon="12.4428900">
        <ele>1054.7000000</ele>
        <time>2010-09-27T09:06:11Z</time>
      </trkpt>
      <trkpt lat="46.1605040" lon="12.4429150">
        <ele>1054.2200000</ele>
        <time>2010-09-27T09:06:18Z</time>
      </trkpt>
      <trkpt lat="46.1604460" lon="12.4429440">
        <ele>1054.2200000</ele>
        <time>2010-09-27T09:06:24Z</time>
      </trkpt>
      <trkpt lat="46.1604350" lon="12.4429670">
        <ele>1054.2200000</ele>
        <time>2010-09-27T09:06:32Z</time>
      </trkpt>
      <trkpt lat="46.1603760" lon="12.4430160">
        <ele>1054.2200000</ele>
        <time>2010-09-27T09:06:38Z</time>
      </trkpt>
      <trkpt lat="46.1602860" lon="12.4431120">
        <ele>1054.7000000</ele>
        <time>2010-09-27T09:06:45Z</time>
      </trkpt>
      <trkpt lat="46.1602520" lon="12.4431710">
        <ele>1054.2200000</ele>
        <time>2010-09-27T09:06:51Z</time>
      </trkpt>
      <trkpt lat="46.1602310" lon="12.4432440">
        <ele>1053.7400000</ele>
        <time>2010-09-27T09:06:58Z</time>
      </trkpt>
      <trkpt lat="46.1601970" lon="12.4433620">
        <ele>1053.7400000</ele>
        <time>2010-09-27T09:07:04Z</time>
      </trkpt>
      <trkpt lat="46.1601840" lon="12.4434500">
        <ele>1053.7400000</ele>
        <time>2010-09-27T09:07:10Z</time>
      </trkpt>
      <trkpt lat="46.1601520" lon="12.4435870">
        <ele>1053.7400000</ele>
        <time>2010-09-27T09:07:16Z</time>
      </trkpt>
      <trkpt lat="46.1601270" lon="12.4437330">
        <ele>1053.7400000</ele>
        <time>2010-09-27T09:07:25Z</time>
      </trkpt>
      <trkpt lat="46.1600860" lon="12.4438780">
        <ele>1053.2600000</ele>
        <time>2010-09-27T09:07:31Z</time>
      </trkpt>
      <trkpt lat="46.1600880" lon="12.4439250">
        <ele>1053.2600000</ele>
        <time>2010-09-27T09:07:35Z</time>
      </trkpt>
      <trkpt lat="46.1600300" lon="12.4441020">
        <ele>1052.7800000</ele>
        <time>2010-09-27T09:07:44Z</time>
      </trkpt>
      <trkpt lat="46.1599890" lon="12.4441930">
        <ele>1051.8200000</ele>
        <time>2010-09-27T09:07:51Z</time>
      </trkpt>
      <trkpt lat="46.1599460" lon="12.4443130">
        <ele>1051.8200000</ele>
        <time>2010-09-27T09:07:58Z</time>
      </trkpt>
      <trkpt lat="46.1599270" lon="12.4443610">
        <ele>1051.8200000</ele>
        <time>2010-09-27T09:08:00Z</time>
      </trkpt>
      <trkpt lat="46.1598910" lon="12.4444280">
        <ele>1051.8200000</ele>
        <time>2010-09-27T09:08:06Z</time>
      </trkpt>
      <trkpt lat="46.1598390" lon="12.4445730">
        <ele>1051.3400000</ele>
        <time>2010-09-27T09:08:14Z</time>
      </trkpt>
      <trkpt lat="46.1598270" lon="12.4446410">
        <ele>1051.3400000</ele>
        <time>2010-09-27T09:08:19Z</time>
      </trkpt>
      <trkpt lat="46.1598130" lon="12.4446720">
        <ele>1051.3400000</ele>
        <time>2010-09-27T09:08:21Z</time>
      </trkpt>
      <trkpt lat="46.1597490" lon="12.4447930">
        <ele>1051.3400000</ele>
        <time>2010-09-27T09:08:28Z</time>
      </trkpt>
      <trkpt lat="46.1597020" lon="12.4448790">
        <ele>1050.8600000</ele>
        <time>2010-09-27T09:08:35Z</time>
      </trkpt>
      <trkpt lat="46.1596570" lon="12.4450020">
        <ele>1050.8600000</ele>
        <time>2010-09-27T09:08:41Z</time>
      </trkpt>
      <trkpt lat="46.1596250" lon="12.4450430">
        <ele>1050.3800000</ele>
        <time>2010-09-27T09:08:46Z</time>
      </trkpt>
      <trkpt lat="46.1595010" lon="12.4451110">
        <ele>1050.3800000</ele>
        <time>2010-09-27T09:08:55Z</time>
      </trkpt>
      <trkpt lat="46.1594510" lon="12.4451150">
        <ele>1050.3800000</ele>
        <time>2010-09-27T09:09:01Z</time>
      </trkpt>
      <trkpt lat="46.1594410" lon="12.4451160">
        <ele>1050.3800000</ele>
        <time>2010-09-27T09:09:02Z</time>
      </trkpt>
      <trkpt lat="46.1593540" lon="12.4451010">
        <ele>1050.3800000</ele>
        <time>2010-09-27T09:09:08Z</time>
      </trkpt>
      <trkpt lat="46.1593030" lon="12.4451350">
        <ele>1050.3800000</ele>
        <time>2010-09-27T09:09:13Z</time>
      </trkpt>
      <trkpt lat="46.1592500" lon="12.4452000">
        <ele>1049.9000000</ele>
        <time>2010-09-27T09:09:18Z</time>
      </trkpt>
      <trkpt lat="46.1591780" lon="12.4453200">
        <ele>1049.4200000</ele>
        <time>2010-09-27T09:09:24Z</time>
      </trkpt>
      <trkpt lat="46.1591520" lon="12.4454430">
        <ele>1049.4200000</ele>
        <time>2010-09-27T09:09:31Z</time>
      </trkpt>
      <trkpt lat="46.1591450" lon="12.4454590">
        <ele>1049.4200000</ele>
        <time>2010-09-27T09:09:32Z</time>
      </trkpt>
      <trkpt lat="46.1591010" lon="12.4455680">
        <ele>1048.9400000</ele>
        <time>2010-09-27T09:09:38Z</time>
      </trkpt>
      <trkpt lat="46.1590710" lon="12.4456570">
        <ele>1047.9700000</ele>
        <time>2010-09-27T09:09:44Z</time>
      </trkpt>
      <trkpt lat="46.1590150" lon="12.4457600">
        <ele>1047.4900000</ele>
        <time>2010-09-27T09:09:50Z</time>
      </trkpt>
      <trkpt lat="46.1589890" lon="12.4458110">
        <ele>1047.9700000</ele>
        <time>2010-09-27T09:09:55Z</time>
      </trkpt>
      <trkpt lat="46.1589050" lon="12.4458610">
        <ele>1047.9700000</ele>
        <time>2010-09-27T09:10:02Z</time>
      </trkpt>
      <trkpt lat="46.1588360" lon="12.4458910">
        <ele>1047.0100000</ele>
        <time>2010-09-27T09:10:08Z</time>
      </trkpt>
      <trkpt lat="46.1587850" lon="12.4459140">
        <ele>1047.4900000</ele>
        <time>2010-09-27T09:10:14Z</time>
      </trkpt>
      <trkpt lat="46.1587840" lon="12.4459150">
        <ele>1047.0100000</ele>
        <time>2010-09-27T09:12:07Z</time>
      </trkpt>
      <trkpt lat="46.1588130" lon="12.4459330">
        <ele>1046.5300000</ele>
        <time>2010-09-27T09:12:11Z</time>
      </trkpt>
      <trkpt lat="46.1588750" lon="12.4459530">
        <ele>1047.0100000</ele>
        <time>2010-09-27T09:12:16Z</time>
      </trkpt>
      <trkpt lat="46.1589650" lon="12.4459450">
        <ele>1047.4900000</ele>
        <time>2010-09-27T09:12:24Z</time>
      </trkpt>
      <trkpt lat="46.1590820" lon="12.4458800">
        <ele>1047.4900000</ele>
        <time>2010-09-27T09:12:31Z</time>
      </trkpt>
      <trkpt lat="46.1591660" lon="12.4457890">
        <ele>1048.4500000</ele>
        <time>2010-09-27T09:12:38Z</time>
      </trkpt>
      <trkpt lat="46.1592450" lon="12.4456490">
        <ele>1048.4500000</ele>
        <time>2010-09-27T09:12:46Z</time>
      </trkpt>
      <trkpt lat="46.1592980" lon="12.4455480">
        <ele>1049.4200000</ele>
        <time>2010-09-27T09:12:53Z</time>
      </trkpt>
      <trkpt lat="46.1593600" lon="12.4454710">
        <ele>1049.4200000</ele>
        <time>2010-09-27T09:13:00Z</time>
      </trkpt>
      <trkpt lat="46.1593960" lon="12.4453700">
        <ele>1049.9000000</ele>
        <time>2010-09-27T09:13:07Z</time>
      </trkpt>
      <trkpt lat="46.1594510" lon="12.4452690">
        <ele>1049.9000000</ele>
        <time>2010-09-27T09:13:17Z</time>
      </trkpt>
      <trkpt lat="46.1594870" lon="12.4452580">
        <ele>1049.9000000</ele>
        <time>2010-09-27T09:13:21Z</time>
      </trkpt>
      <trkpt lat="46.1595650" lon="12.4452350">
        <ele>1050.3800000</ele>
        <time>2010-09-27T09:13:28Z</time>
      </trkpt>
      <trkpt lat="46.1596630" lon="12.4451640">
        <ele>1050.3800000</ele>
        <time>2010-09-27T09:13:36Z</time>
      </trkpt>
      <trkpt lat="46.1597930" lon="12.4450530">
        <ele>1051.3400000</ele>
        <time>2010-09-27T09:13:45Z</time>
      </trkpt>
      <trkpt lat="46.1598460" lon="12.4449480">
        <ele>1051.3400000</ele>
        <time>2010-09-27T09:13:52Z</time>
      </trkpt>
      <trkpt lat="46.1598940" lon="12.4448300">
        <ele>1051.8200000</ele>
        <time>2010-09-27T09:13:58Z</time>
      </trkpt>
      <trkpt lat="46.1599040" lon="12.4448210">
        <ele>1051.8200000</ele>
        <time>2010-09-27T09:13:59Z</time>
      </trkpt>
      <trkpt lat="46.1599810" lon="12.4446790">
        <ele>1052.3000000</ele>
        <time>2010-09-27T09:14:08Z</time>
      </trkpt>
      <trkpt lat="46.1600240" lon="12.4445540">
        <ele>1052.3000000</ele>
        <time>2010-09-27T09:14:15Z</time>
      </trkpt>
      <trkpt lat="46.1600450" lon="12.4444880">
        <ele>1052.7800000</ele>
        <time>2010-09-27T09:14:18Z</time>
      </trkpt>
      <trkpt lat="46.1600560" lon="12.4444770">
        <ele>1052.3000000</ele>
        <time>2010-09-27T09:14:20Z</time>
      </trkpt>
      <trkpt lat="46.1600750" lon="12.4444140">
        <ele>1052.3000000</ele>
        <time>2010-09-27T09:14:24Z</time>
      </trkpt>
      <trkpt lat="46.1601070" lon="12.4442890">
        <ele>1052.3000000</ele>
        <time>2010-09-27T09:14:32Z</time>
      </trkpt>
      <trkpt lat="46.1601380" lon="12.4441490">
        <ele>1052.3000000</ele>
        <time>2010-09-27T09:14:39Z</time>
      </trkpt>
      <trkpt lat="46.1601750" lon="12.4440350">
        <ele>1053.2600000</ele>
        <time>2010-09-27T09:14:45Z</time>
      </trkpt>
      <trkpt lat="46.1602070" lon="12.4439380">
        <ele>1052.7800000</ele>
        <time>2010-09-27T09:14:52Z</time>
      </trkpt>
      <trkpt lat="46.1602460" lon="12.4438080">
        <ele>1053.2600000</ele>
        <time>2010-09-27T09:15:00Z</time>
      </trkpt>
      <trkpt lat="46.1602640" lon="12.4436830">
        <ele>1053.2600000</ele>
        <time>2010-09-27T09:15:06Z</time>
      </trkpt>
      <trkpt lat="46.1602810" lon="12.4435180">
        <ele>1053.7400000</ele>
        <time>2010-09-27T09:15:14Z</time>
      </trkpt>
      <trkpt lat="46.1602960" lon="12.4433890">
        <ele>1053.7400000</ele>
        <time>2010-09-27T09:15:22Z</time>
      </trkpt>
      <trkpt lat="46.1603330" lon="12.4432840">
        <ele>1054.7000000</ele>
        <time>2010-09-27T09:15:28Z</time>
      </trkpt>
      <trkpt lat="46.1603340" lon="12.4432290">
        <ele>1054.2200000</ele>
        <time>2010-09-27T09:15:34Z</time>
      </trkpt>
      <trkpt lat="46.1603370" lon="12.4432260">
        <ele>1054.2200000</ele>
        <time>2010-09-27T09:15:35Z</time>
      </trkpt>
      <trkpt lat="46.1604030" lon="12.4431350">
        <ele>1054.2200000</ele>
        <time>2010-09-27T09:15:42Z</time>
      </trkpt>
      <trkpt lat="46.1604200" lon="12.4431290">
        <ele>1054.7000000</ele>
        <time>2010-09-27T09:15:44Z</time>
      </trkpt>
      <trkpt lat="46.1604810" lon="12.4430940">
        <ele>1054.7000000</ele>
        <time>2010-09-27T09:15:50Z</time>
      </trkpt>
      <trkpt lat="46.1605400" lon="12.4430800">
        <ele>1054.2200000</ele>
        <time>2010-09-27T09:15:57Z</time>
      </trkpt>
      <trkpt lat="46.1605520" lon="12.4431050">
        <ele>1054.2200000</ele>
        <time>2010-09-27T09:16:00Z</time>
      </trkpt>
      <trkpt lat="46.1605520" lon="12.4431830">
        <ele>1054.7000000</ele>
        <time>2010-09-27T09:16:06Z</time>
      </trkpt>
      <trkpt lat="46.1605400" lon="12.4432640">
        <ele>1055.1800000</ele>
        <time>2010-09-27T09:16:12Z</time>
      </trkpt>
      <trkpt lat="46.1605370" lon="12.4432840">
        <ele>1055.6700000</ele>
        <time>2010-09-27T09:16:14Z</time>
      </trkpt>
      <trkpt lat="46.1605140" lon="12.4433490">
        <ele>1056.1500000</ele>
        <time>2010-09-27T09:16:21Z</time>
      </trkpt>
      <trkpt lat="46.1605040" lon="12.4433970">
        <ele>1057.5900000</ele>
        <time>2010-09-27T09:16:28Z</time>
      </trkpt>
      <trkpt lat="46.1605080" lon="12.4434170">
        <ele>1057.5900000</ele>
        <time>2010-09-27T09:16:38Z</time>
      </trkpt>
      <trkpt lat="46.1604660" lon="12.4434540">
        <ele>1058.0700000</ele>
        <time>2010-09-27T09:16:44Z</time>
      </trkpt>
      <trkpt lat="46.1604560" lon="12.4435180">
        <ele>1058.0700000</ele>
        <time>2010-09-27T09:16:49Z</time>
      </trkpt>
      <trkpt lat="46.1604720" lon="12.4435090">
        <ele>1057.1100000</ele>
        <time>2010-09-27T09:16:55Z</time>
      </trkpt>
      <trkpt lat="46.1604650" lon="12.4435220">
        <ele>1058.0700000</ele>
        <time>2010-09-27T09:17:00Z</time>
      </trkpt>
      <trkpt lat="46.1604550" lon="12.4435600">
        <ele>1058.0700000</ele>
        <time>2010-09-27T09:17:04Z</time>
      </trkpt>
      <trkpt lat="46.1604450" lon="12.4436320">
        <ele>1059.0300000</ele>
        <time>2010-09-27T09:17:10Z</time>
      </trkpt>
      <trkpt lat="46.1604370" lon="12.4436910">
        <ele>1059.5100000</ele>
        <time>2010-09-27T09:17:15Z</time>
      </trkpt>
      <trkpt lat="46.1604400" lon="12.4437120">
        <ele>1059.0300000</ele>
        <time>2010-09-27T09:17:17Z</time>
      </trkpt>
      <trkpt lat="46.1604480" lon="12.4437880">
        <ele>1060.4700000</ele>
        <time>2010-09-27T09:17:23Z</time>
      </trkpt>
      <trkpt lat="46.1604470" lon="12.4438310">
        <ele>1060.4700000</ele>
        <time>2010-09-27T09:17:27Z</time>
      </trkpt>
      <trkpt lat="46.1604560" lon="12.4438820">
        <ele>1060.9500000</ele>
        <time>2010-09-27T09:17:32Z</time>
      </trkpt>
      <trkpt lat="46.1604620" lon="12.4439440">
        <ele>1061.4300000</ele>
        <time>2010-09-27T09:17:37Z</time>
      </trkpt>
      <trkpt lat="46.1604570" lon="12.4440020">
        <ele>1062.3900000</ele>
        <time>2010-09-27T09:17:42Z</time>
      </trkpt>
      <trkpt lat="46.1604630" lon="12.4440350">
        <ele>1062.3900000</ele>
        <time>2010-09-27T09:17:47Z</time>
      </trkpt>
      <trkpt lat="46.1604720" lon="12.4440920">
        <ele>1062.8700000</ele>
        <time>2010-09-27T09:17:52Z</time>
      </trkpt>
      <trkpt lat="46.1604810" lon="12.4441450">
        <ele>1063.8400000</ele>
        <time>2010-09-27T09:17:58Z</time>
      </trkpt>
      <trkpt lat="46.1604640" lon="12.4442120">
        <ele>1063.8400000</ele>
        <time>2010-09-27T09:18:04Z</time>
      </trkpt>
      <trkpt lat="46.1604500" lon="12.4442930">
        <ele>1063.8400000</ele>
        <time>2010-09-27T09:18:10Z</time>
      </trkpt>
      <trkpt lat="46.1604140" lon="12.4443460">
        <ele>1064.3200000</ele>
        <time>2010-09-27T09:18:16Z</time>
      </trkpt>
      <trkpt lat="46.1603750" lon="12.4444180">
        <ele>1065.2800000</ele>
        <time>2010-09-27T09:18:22Z</time>
      </trkpt>
      <trkpt lat="46.1603300" lon="12.4444920">
        <ele>1065.2800000</ele>
        <time>2010-09-27T09:18:29Z</time>
      </trkpt>
      <trkpt lat="46.1603180" lon="12.4445210">
        <ele>1065.2800000</ele>
        <time>2010-09-27T09:18:32Z</time>
      </trkpt>
      <trkpt lat="46.1602810" lon="12.4445880">
        <ele>1065.7600000</ele>
        <time>2010-09-27T09:18:38Z</time>
      </trkpt>
      <trkpt lat="46.1602810" lon="12.4445980">
        <ele>1065.2800000</ele>
        <time>2010-09-27T09:18:39Z</time>
      </trkpt>
      <trkpt lat="46.1602770" lon="12.4446720">
        <ele>1066.2400000</ele>
        <time>2010-09-27T09:18:45Z</time>
      </trkpt>
      <trkpt lat="46.1602800" lon="12.4447100">
        <ele>1066.7200000</ele>
        <time>2010-09-27T09:18:50Z</time>
      </trkpt>
      <trkpt lat="46.1602730" lon="12.4447600">
        <ele>1066.7200000</ele>
        <time>2010-09-27T09:18:55Z</time>
      </trkpt>
      <trkpt lat="46.1602640" lon="12.4448120">
        <ele>1067.6800000</ele>
        <time>2010-09-27T09:19:01Z</time>
      </trkpt>
      <trkpt lat="46.1602560" lon="12.4448650">
        <ele>1068.6400000</ele>
        <time>2010-09-27T09:19:07Z</time>
      </trkpt>
      <trkpt lat="46.1602550" lon="12.4449240">
        <ele>1069.6000000</ele>
        <time>2010-09-27T09:19:13Z</time>
      </trkpt>
      <trkpt lat="46.1602560" lon="12.4449960">
        <ele>1070.0800000</ele>
        <time>2010-09-27T09:19:19Z</time>
      </trkpt>
      <trkpt lat="46.1602460" lon="12.4450500">
        <ele>1070.5700000</ele>
        <time>2010-09-27T09:19:25Z</time>
      </trkpt>
      <trkpt lat="46.1602380" lon="12.4451300">
        <ele>1071.0500000</ele>
        <time>2010-09-27T09:19:31Z</time>
      </trkpt>
      <trkpt lat="46.1602450" lon="12.4451840">
        <ele>1071.5300000</ele>
        <time>2010-09-27T09:19:38Z</time>
      </trkpt>
      <trkpt lat="46.1602720" lon="12.4452730">
        <ele>1072.9700000</ele>
        <time>2010-09-27T09:19:45Z</time>
      </trkpt>
      <trkpt lat="46.1602600" lon="12.4453320">
        <ele>1073.4500000</ele>
        <time>2010-09-27T09:19:51Z</time>
      </trkpt>
      <trkpt lat="46.1602450" lon="12.4453680">
        <ele>1073.9300000</ele>
        <time>2010-09-27T09:19:55Z</time>
      </trkpt>
      <trkpt lat="46.1602370" lon="12.4454060">
        <ele>1074.4100000</ele>
        <time>2010-09-27T09:19:58Z</time>
      </trkpt>
      <trkpt lat="46.1602430" lon="12.4454370">
        <ele>1074.4100000</ele>
        <time>2010-09-27T09:20:01Z</time>
      </trkpt>
      <trkpt lat="46.1602710" lon="12.4455170">
        <ele>1075.3700000</ele>
        <time>2010-09-27T09:20:08Z</time>
      </trkpt>
      <trkpt lat="46.1603140" lon="12.4455400">
        <ele>1076.3300000</ele>
        <time>2010-09-27T09:20:15Z</time>
      </trkpt>
      <trkpt lat="46.1603610" lon="12.4455370">
        <ele>1076.8100000</ele>
        <time>2010-09-27T09:20:21Z</time>
      </trkpt>
      <trkpt lat="46.1604090" lon="12.4455250">
        <ele>1077.2900000</ele>
        <time>2010-09-27T09:20:26Z</time>
      </trkpt>
      <trkpt lat="46.1604360" lon="12.4454960">
        <ele>1077.7800000</ele>
        <time>2010-09-27T09:20:34Z</time>
      </trkpt>
      <trkpt lat="46.1604490" lon="12.4454700">
        <ele>1079.7000000</ele>
        <time>2010-09-27T09:20:59Z</time>
      </trkpt>
      <trkpt lat="46.1604480" lon="12.4454890">
        <ele>1080.6600000</ele>
        <time>2010-09-27T09:21:04Z</time>
      </trkpt>
      <trkpt lat="46.1604730" lon="12.4455390">
        <ele>1081.1400000</ele>
        <time>2010-09-27T09:21:10Z</time>
      </trkpt>
      <trkpt lat="46.1604830" lon="12.4455820">
        <ele>1081.6200000</ele>
        <time>2010-09-27T09:21:16Z</time>
      </trkpt>
      <trkpt lat="46.1604700" lon="12.4456260">
        <ele>1084.0200000</ele>
        <time>2010-09-27T09:21:32Z</time>
      </trkpt>
      <trkpt lat="46.1604680" lon="12.4456560">
        <ele>1084.9900000</ele>
        <time>2010-09-27T09:21:38Z</time>
      </trkpt>
      <trkpt lat="46.1604720" lon="12.4457150">
        <ele>1085.4700000</ele>
        <time>2010-09-27T09:21:43Z</time>
      </trkpt>
      <trkpt lat="46.1604710" lon="12.4457420">
        <ele>1085.9500000</ele>
        <time>2010-09-27T09:21:49Z</time>
      </trkpt>
      <trkpt lat="46.1604680" lon="12.4457900">
        <ele>1085.9500000</ele>
        <time>2010-09-27T09:21:55Z</time>
      </trkpt>
      <trkpt lat="46.1604670" lon="12.4458210">
        <ele>1088.3500000</ele>
        <time>2010-09-27T09:22:06Z</time>
      </trkpt>
      <trkpt lat="46.1604650" lon="12.4458630">
        <ele>1088.3500000</ele>
        <time>2010-09-27T09:22:11Z</time>
      </trkpt>
      <trkpt lat="46.1604620" lon="12.4458960">
        <ele>1088.3500000</ele>
        <time>2010-09-27T09:22:16Z</time>
      </trkpt>
      <trkpt lat="46.1604450" lon="12.4459450">
        <ele>1089.7900000</ele>
        <time>2010-09-27T09:22:24Z</time>
      </trkpt>
      <trkpt lat="46.1604390" lon="12.4460060">
        <ele>1090.7500000</ele>
        <time>2010-09-27T09:22:30Z</time>
      </trkpt>
      <trkpt lat="46.1604340" lon="12.4460700">
        <ele>1091.7100000</ele>
        <time>2010-09-27T09:22:36Z</time>
      </trkpt>
      <trkpt lat="46.1604420" lon="12.4461360">
        <ele>1093.1600000</ele>
        <time>2010-09-27T09:22:48Z</time>
      </trkpt>
      <trkpt lat="46.1604450" lon="12.4462000">
        <ele>1093.6400000</ele>
        <time>2010-09-27T09:22:54Z</time>
      </trkpt>
      <trkpt lat="46.1604610" lon="12.4462560">
        <ele>1095.0800000</ele>
        <time>2010-09-27T09:23:08Z</time>
      </trkpt>
      <trkpt lat="46.1604680" lon="12.4463360">
        <ele>1096.0400000</ele>
        <time>2010-09-27T09:23:16Z</time>
      </trkpt>
      <trkpt lat="46.1604780" lon="12.4464240">
        <ele>1097.4800000</ele>
        <time>2010-09-27T09:23:23Z</time>
      </trkpt>
      <trkpt lat="46.1604910" lon="12.4464860">
        <ele>1097.4800000</ele>
        <time>2010-09-27T09:23:31Z</time>
      </trkpt>
      <trkpt lat="46.1604830" lon="12.4466230">
        <ele>1099.8900000</ele>
        <time>2010-09-27T09:23:47Z</time>
      </trkpt>
      <trkpt lat="46.1604810" lon="12.4466710">
        <ele>1100.8500000</ele>
        <time>2010-09-27T09:23:52Z</time>
      </trkpt>
      <trkpt lat="46.1604850" lon="12.4467340">
        <ele>1101.8100000</ele>
        <time>2010-09-27T09:24:02Z</time>
      </trkpt>
      <trkpt lat="46.1604810" lon="12.4467900">
        <ele>1102.7700000</ele>
        <time>2010-09-27T09:24:11Z</time>
      </trkpt>
      <trkpt lat="46.1604760" lon="12.4468020">
        <ele>1103.2500000</ele>
        <time>2010-09-27T09:24:16Z</time>
      </trkpt>
      <trkpt lat="46.1604870" lon="12.4468610">
        <ele>1104.6900000</ele>
        <time>2010-09-27T09:24:22Z</time>
      </trkpt>
      <trkpt lat="46.1605190" lon="12.4469590">
        <ele>1105.6500000</ele>
        <time>2010-09-27T09:24:32Z</time>
      </trkpt>
      <trkpt lat="46.1605170" lon="12.4470240">
        <ele>1106.1300000</ele>
        <time>2010-09-27T09:24:37Z</time>
      </trkpt>
      <trkpt lat="46.1605270" lon="12.4470780">
        <ele>1107.5800000</ele>
        <time>2010-09-27T09:24:46Z</time>
      </trkpt>
      <trkpt lat="46.1605520" lon="12.4471270">
        <ele>1109.0200000</ele>
        <time>2010-09-27T09:24:55Z</time>
      </trkpt>
      <trkpt lat="46.1605720" lon="12.4471720">
        <ele>1109.5000000</ele>
        <time>2010-09-27T09:25:01Z</time>
      </trkpt>
      <trkpt lat="46.1605780" lon="12.4471940">
        <ele>1109.9800000</ele>
        <time>2010-09-27T09:25:07Z</time>
      </trkpt>
      <trkpt lat="46.1605730" lon="12.4471980">
        <ele>1110.4600000</ele>
        <time>2010-09-27T09:25:12Z</time>
      </trkpt>
      <trkpt lat="46.1605700" lon="12.4472230">
        <ele>1111.9000000</ele>
        <time>2010-09-27T09:25:17Z</time>
      </trkpt>
      <trkpt lat="46.1605620" lon="12.4472470">
        <ele>1112.3800000</ele>
        <time>2010-09-27T09:25:22Z</time>
      </trkpt>
      <trkpt lat="46.1605440" lon="12.4472830">
        <ele>1112.8600000</ele>
        <time>2010-09-27T09:25:28Z</time>
      </trkpt>
      <trkpt lat="46.1605180" lon="12.4473560">
        <ele>1113.3400000</ele>
        <time>2010-09-27T09:25:34Z</time>
      </trkpt>
      <trkpt lat="46.1605020" lon="12.4473800">
        <ele>1113.8200000</ele>
        <time>2010-09-27T09:25:38Z</time>
      </trkpt>
      <trkpt lat="46.1604860" lon="12.4474370">
        <ele>1114.3100000</ele>
        <time>2010-09-27T09:25:45Z</time>
      </trkpt>
      <trkpt lat="46.1604940" lon="12.4474890">
        <ele>1115.2700000</ele>
        <time>2010-09-27T09:25:50Z</time>
      </trkpt>
      <trkpt lat="46.1604940" lon="12.4475290">
        <ele>1116.2300000</ele>
        <time>2010-09-27T09:26:00Z</time>
      </trkpt>
      <trkpt lat="46.1605180" lon="12.4475840">
        <ele>1117.1900000</ele>
        <time>2010-09-27T09:26:11Z</time>
      </trkpt>
      <trkpt lat="46.1605190" lon="12.4475940">
        <ele>1118.6300000</ele>
        <time>2010-09-27T09:26:19Z</time>
      </trkpt>
      <trkpt lat="46.1605580" lon="12.4476450">
        <ele>1119.5900000</ele>
        <time>2010-09-27T09:26:29Z</time>
      </trkpt>
      <trkpt lat="46.1605960" lon="12.4476930">
        <ele>1120.5500000</ele>
        <time>2010-09-27T09:26:34Z</time>
      </trkpt>
      <trkpt lat="46.1606180" lon="12.4477450">
        <ele>1121.5200000</ele>
        <time>2010-09-27T09:26:42Z</time>
      </trkpt>
      <trkpt lat="46.1606390" lon="12.4477880">
        <ele>1123.4400000</ele>
        <time>2010-09-27T09:26:53Z</time>
      </trkpt>
      <trkpt lat="46.1606480" lon="12.4478020">
        <ele>1122.9600000</ele>
        <time>2010-09-27T09:26:54Z</time>
      </trkpt>
      <trkpt lat="46.1606840" lon="12.4478620">
        <ele>1123.9200000</ele>
        <time>2010-09-27T09:27:01Z</time>
      </trkpt>
      <trkpt lat="46.1607170" lon="12.4478910">
        <ele>1125.8400000</ele>
        <time>2010-09-27T09:27:17Z</time>
      </trkpt>
      <trkpt lat="46.1607330" lon="12.4479060">
        <ele>1127.2800000</ele>
        <time>2010-09-27T09:27:26Z</time>
      </trkpt>
      <trkpt lat="46.1607690" lon="12.4479640">
        <ele>1127.7600000</ele>
        <time>2010-09-27T09:27:31Z</time>
      </trkpt>
      <trkpt lat="46.1608060" lon="12.4479900">
        <ele>1129.2100000</ele>
        <time>2010-09-27T09:27:40Z</time>
      </trkpt>
      <trkpt lat="46.1608120" lon="12.4480050">
        <ele>1130.1700000</ele>
        <time>2010-09-27T09:27:49Z</time>
      </trkpt>
      <trkpt lat="46.1608150" lon="12.4480620">
        <ele>1131.6100000</ele>
        <time>2010-09-27T09:28:01Z</time>
      </trkpt>
      <trkpt lat="46.1608340" lon="12.4481380">
        <ele>1133.5300000</ele>
        <time>2010-09-27T09:28:14Z</time>
      </trkpt>
      <trkpt lat="46.1608420" lon="12.4482130">
        <ele>1134.0100000</ele>
        <time>2010-09-27T09:28:19Z</time>
      </trkpt>
      <trkpt lat="46.1608570" lon="12.4482560">
        <ele>1134.0100000</ele>
        <time>2010-09-27T09:28:24Z</time>
      </trkpt>
      <trkpt lat="46.1608690" lon="12.4482980">
        <ele>1134.9700000</ele>
        <time>2010-09-27T09:28:30Z</time>
      </trkpt>
      <trkpt lat="46.1608850" lon="12.4483120">
        <ele>1135.4500000</ele>
        <time>2010-09-27T09:28:37Z</time>
      </trkpt>
      <trkpt lat="46.1608870" lon="12.4483520">
        <ele>1135.9400000</ele>
        <time>2010-09-27T09:28:42Z</time>
      </trkpt>
      <trkpt lat="46.1609090" lon="12.4484130">
        <ele>1136.4200000</ele>
        <time>2010-09-27T09:28:48Z</time>
      </trkpt>
      <trkpt lat="46.1609310" lon="12.4484890">
        <ele>1137.8600000</ele>
        <time>2010-09-27T09:28:56Z</time>
      </trkpt>
      <trkpt lat="46.1609440" lon="12.4485450">
        <ele>1137.8600000</ele>
        <time>2010-09-27T09:29:03Z</time>
      </trkpt>
      <trkpt lat="46.1609650" lon="12.4485790">
        <ele>1138.3400000</ele>
        <time>2010-09-27T09:29:10Z</time>
      </trkpt>
      <trkpt lat="46.1609620" lon="12.4485980">
        <ele>1138.8200000</ele>
        <time>2010-09-27T09:29:14Z</time>
      </trkpt>
      <trkpt lat="46.1609710" lon="12.4485980">
        <ele>1139.7800000</ele>
        <time>2010-09-27T09:29:19Z</time>
      </trkpt>
      <trkpt lat="46.1609840" lon="12.4486120">
        <ele>1139.7800000</ele>
        <time>2010-09-27T09:29:24Z</time>
      </trkpt>
      <trkpt lat="46.1609850" lon="12.4486100">
        <ele>1140.7400000</ele>
        <time>2010-09-27T09:29:31Z</time>
      </trkpt>
      <trkpt lat="46.1609810" lon="12.4486230">
        <ele>1141.7000000</ele>
        <time>2010-09-27T09:29:38Z</time>
      </trkpt>
      <trkpt lat="46.1609670" lon="12.4486310">
        <ele>1142.1800000</ele>
        <time>2010-09-27T09:29:43Z</time>
      </trkpt>
      <trkpt lat="46.1609710" lon="12.4486660">
        <ele>1144.1100000</ele>
        <time>2010-09-27T09:29:55Z</time>
      </trkpt>
      <trkpt lat="46.1609680" lon="12.4487060">
        <ele>1144.5900000</ele>
        <time>2010-09-27T09:30:00Z</time>
      </trkpt>
      <trkpt lat="46.1609580" lon="12.4487250">
        <ele>1145.0700000</ele>
        <time>2010-09-27T09:30:06Z</time>
      </trkpt>
      <trkpt lat="46.1609420" lon="12.4487600">
        <ele>1146.5100000</ele>
        <time>2010-09-27T09:30:13Z</time>
      </trkpt>
      <trkpt lat="46.1609200" lon="12.4487880">
        <ele>1146.9900000</ele>
        <time>2010-09-27T09:30:21Z</time>
      </trkpt>
      <trkpt lat="46.1608880" lon="12.4488190">
        <ele>1146.9900000</ele>
        <time>2010-09-27T09:31:30Z</time>
      </trkpt>
      <trkpt lat="46.1608780" lon="12.4488230">
        <ele>1148.4300000</ele>
        <time>2010-09-27T09:31:36Z</time>
      </trkpt>
      <trkpt lat="46.1608580" lon="12.4488400">
        <ele>1148.9100000</ele>
        <time>2010-09-27T09:31:42Z</time>
      </trkpt>
      <trkpt lat="46.1608310" lon="12.4488460">
        <ele>1149.8700000</ele>
        <time>2010-09-27T09:31:48Z</time>
      </trkpt>
      <trkpt lat="46.1608100" lon="12.4488920">
        <ele>1151.3200000</ele>
        <time>2010-09-27T09:31:58Z</time>
      </trkpt>
      <trkpt lat="46.1607970" lon="12.4489280">
        <ele>1151.3200000</ele>
        <time>2010-09-27T09:32:03Z</time>
      </trkpt>
      <trkpt lat="46.1608080" lon="12.4490510">
        <ele>1153.7200000</ele>
        <time>2010-09-27T09:32:23Z</time>
      </trkpt>
      <trkpt lat="46.1608200" lon="12.4491000">
        <ele>1154.6800000</ele>
        <time>2010-09-27T09:32:28Z</time>
      </trkpt>
      <trkpt lat="46.1608150" lon="12.4491520">
        <ele>1155.6400000</ele>
        <time>2010-09-27T09:32:39Z</time>
      </trkpt>
      <trkpt lat="46.1608280" lon="12.4492110">
        <ele>1157.0800000</ele>
        <time>2010-09-27T09:32:49Z</time>
      </trkpt>
      <trkpt lat="46.1608610" lon="12.4492890">
        <ele>1159.4900000</ele>
        <time>2010-09-27T09:33:07Z</time>
      </trkpt>
      <trkpt lat="46.1608990" lon="12.4493700">
        <ele>1161.4100000</ele>
        <time>2010-09-27T09:33:24Z</time>
      </trkpt>
      <trkpt lat="46.1609090" lon="12.4494470">
        <ele>1164.7700000</ele>
        <time>2010-09-27T09:33:51Z</time>
      </trkpt>
      <trkpt lat="46.1609120" lon="12.4495320">
        <ele>1166.2200000</ele>
        <time>2010-09-27T09:34:09Z</time>
      </trkpt>
      <trkpt lat="46.1609190" lon="12.4496260">
        <ele>1168.1400000</ele>
        <time>2010-09-27T09:34:24Z</time>
      </trkpt>
      <trkpt lat="46.1609040" lon="12.4497290">
        <ele>1170.0600000</ele>
        <time>2010-09-27T09:34:43Z</time>
      </trkpt>
      <trkpt lat="46.1608970" lon="12.4497800">
        <ele>1171.5000000</ele>
        <time>2010-09-27T09:34:53Z</time>
      </trkpt>
      <trkpt lat="46.1608880" lon="12.4498730">
        <ele>1173.9100000</ele>
        <time>2010-09-27T09:35:10Z</time>
      </trkpt>
      <trkpt lat="46.1608890" lon="12.4499950">
        <ele>1174.8700000</ele>
        <time>2010-09-27T09:35:26Z</time>
      </trkpt>
      <trkpt lat="46.1608600" lon="12.4500160">
        <ele>1176.3100000</ele>
        <time>2010-09-27T09:35:34Z</time>
      </trkpt>
      <trkpt lat="46.1608550" lon="12.4500630">
        <ele>1177.7500000</ele>
        <time>2010-09-27T09:35:44Z</time>
      </trkpt>
      <trkpt lat="46.1608590" lon="12.4501420">
        <ele>1179.6700000</ele>
        <time>2010-09-27T09:35:57Z</time>
      </trkpt>
      <trkpt lat="46.1608520" lon="12.4501540">
        <ele>1179.6700000</ele>
        <time>2010-09-27T09:36:02Z</time>
      </trkpt>
      <trkpt lat="46.1608160" lon="12.4501620">
        <ele>1180.1600000</ele>
        <time>2010-09-27T09:36:09Z</time>
      </trkpt>
      <trkpt lat="46.1608120" lon="12.4501610">
        <ele>1180.6400000</ele>
        <time>2010-09-27T09:36:14Z</time>
      </trkpt>
      <trkpt lat="46.1607720" lon="12.4501190">
        <ele>1181.1200000</ele>
        <time>2010-09-27T09:36:22Z</time>
      </trkpt>
      <trkpt lat="46.1607810" lon="12.4501510">
        <ele>1181.1200000</ele>
        <time>2010-09-27T09:36:31Z</time>
      </trkpt>
      <trkpt lat="46.1607190" lon="12.4500610">
        <ele>1181.6000000</ele>
        <time>2010-09-27T09:36:43Z</time>
      </trkpt>
      <trkpt lat="46.1606640" lon="12.4500060">
        <ele>1182.0800000</ele>
        <time>2010-09-27T09:36:52Z</time>
      </trkpt>
      <trkpt lat="46.1606020" lon="12.4499850">
        <ele>1182.0800000</ele>
        <time>2010-09-27T09:36:59Z</time>
      </trkpt>
      <trkpt lat="46.1605780" lon="12.4500130">
        <ele>1182.5600000</ele>
        <time>2010-09-27T09:37:05Z</time>
      </trkpt>
      <trkpt lat="46.1605780" lon="12.4500130">
        <ele>1182.5600000</ele>
        <time>2010-09-27T09:37:14Z</time>
      </trkpt>
      <trkpt lat="46.1605380" lon="12.4500530">
        <ele>1183.0400000</ele>
        <time>2010-09-27T09:37:20Z</time>
      </trkpt>
      <trkpt lat="46.1605110" lon="12.4500760">
        <ele>1183.5200000</ele>
        <time>2010-09-27T09:37:25Z</time>
      </trkpt>
      <trkpt lat="46.1604560" lon="12.4501100">
        <ele>1184.9600000</ele>
        <time>2010-09-27T09:37:38Z</time>
      </trkpt>
      <trkpt lat="46.1604310" lon="12.4501820">
        <ele>1186.8800000</ele>
        <time>2010-09-27T09:37:49Z</time>
      </trkpt>
      <trkpt lat="46.1604030" lon="12.4502030">
        <ele>1188.3300000</ele>
        <time>2010-09-27T09:38:03Z</time>
      </trkpt>
      <trkpt lat="46.1603560" lon="12.4501910">
        <ele>1191.2100000</ele>
        <time>2010-09-27T09:38:31Z</time>
      </trkpt>
      <trkpt lat="46.1603180" lon="12.4502830">
        <ele>1192.6500000</ele>
        <time>2010-09-27T09:38:48Z</time>
      </trkpt>
      <trkpt lat="46.1603270" lon="12.4502920">
        <ele>1195.5400000</ele>
        <time>2010-09-27T09:39:06Z</time>
      </trkpt>
      <trkpt lat="46.1603420" lon="12.4502560">
        <ele>1197.9400000</ele>
        <time>2010-09-27T09:39:27Z</time>
      </trkpt>
      <trkpt lat="46.1603110" lon="12.4502480">
        <ele>1198.4200000</ele>
        <time>2010-09-27T09:39:35Z</time>
      </trkpt>
      <trkpt lat="46.1601690" lon="12.4501380">
        <ele>1200.8200000</ele>
        <time>2010-09-27T09:40:01Z</time>
      </trkpt>
      <trkpt lat="46.1601200" lon="12.4500660">
        <ele>1202.2700000</ele>
        <time>2010-09-27T09:40:13Z</time>
      </trkpt>
      <trkpt lat="46.1600530" lon="12.4499450">
        <ele>1202.7500000</ele>
        <time>2010-09-27T09:40:20Z</time>
      </trkpt>
      <trkpt lat="46.1599860" lon="12.4498740">
        <ele>1203.2300000</ele>
        <time>2010-09-27T09:40:26Z</time>
      </trkpt>
      <trkpt lat="46.1598980" lon="12.4498380">
        <ele>1205.6300000</ele>
        <time>2010-09-27T09:40:41Z</time>
      </trkpt>
      <trkpt lat="46.1597510" lon="12.4498810">
        <ele>1208.5100000</ele>
        <time>2010-09-27T09:41:09Z</time>
      </trkpt>
      <trkpt lat="46.1596590" lon="12.4498580">
        <ele>1211.8800000</ele>
        <time>2010-09-27T09:41:34Z</time>
      </trkpt>
      <trkpt lat="46.1595870" lon="12.4498250">
        <ele>1212.8400000</ele>
        <time>2010-09-27T09:41:40Z</time>
      </trkpt>
      <trkpt lat="46.1595310" lon="12.4498200">
        <ele>1214.2800000</ele>
        <time>2010-09-27T09:41:53Z</time>
      </trkpt>
      <trkpt lat="46.1594820" lon="12.4498690">
        <ele>1214.7600000</ele>
        <time>2010-09-27T09:42:03Z</time>
      </trkpt>
      <trkpt lat="46.1594450" lon="12.4498980">
        <ele>1216.2100000</ele>
        <time>2010-09-27T09:42:10Z</time>
      </trkpt>
      <trkpt lat="46.1594120" lon="12.4499060">
        <ele>1217.1700000</ele>
        <time>2010-09-27T09:42:19Z</time>
      </trkpt>
      <trkpt lat="46.1593780" lon="12.4499850">
        <ele>1219.5700000</ele>
        <time>2010-09-27T09:42:36Z</time>
      </trkpt>
      <trkpt lat="46.1593520" lon="12.4500440">
        <ele>1220.0500000</ele>
        <time>2010-09-27T09:42:45Z</time>
      </trkpt>
      <trkpt lat="46.1593140" lon="12.4500700">
        <ele>1221.0100000</ele>
        <time>2010-09-27T09:42:54Z</time>
      </trkpt>
      <trkpt lat="46.1592760" lon="12.4500690">
        <ele>1222.4500000</ele>
        <time>2010-09-27T09:43:01Z</time>
      </trkpt>
      <trkpt lat="46.1592480" lon="12.4500740">
        <ele>1223.4200000</ele>
        <time>2010-09-27T09:43:07Z</time>
      </trkpt>
      <trkpt lat="46.1592390" lon="12.4500770">
        <ele>1223.4200000</ele>
        <time>2010-09-27T09:43:11Z</time>
      </trkpt>
      <trkpt lat="46.1592230" lon="12.4500870">
        <ele>1223.9000000</ele>
        <time>2010-09-27T09:43:19Z</time>
      </trkpt>
      <trkpt lat="46.1591840" lon="12.4501010">
        <ele>1224.3800000</ele>
        <time>2010-09-27T09:43:46Z</time>
      </trkpt>
      <trkpt lat="46.1591720" lon="12.4501310">
        <ele>1225.8200000</ele>
        <time>2010-09-27T09:43:51Z</time>
      </trkpt>
      <trkpt lat="46.1591390" lon="12.4501920">
        <ele>1228.2200000</ele>
        <time>2010-09-27T09:44:13Z</time>
      </trkpt>
      <trkpt lat="46.1591270" lon="12.4502120">
        <ele>1227.7400000</ele>
        <time>2010-09-27T09:44:23Z</time>
      </trkpt>
      <trkpt lat="46.1591190" lon="12.4502350">
        <ele>1229.1800000</ele>
        <time>2010-09-27T09:44:26Z</time>
      </trkpt>
      <trkpt lat="46.1591000" lon="12.4502820">
        <ele>1230.1400000</ele>
        <time>2010-09-27T09:44:37Z</time>
      </trkpt>
      <trkpt lat="46.1590960" lon="12.4503040">
        <ele>1230.6200000</ele>
        <time>2010-09-27T09:44:44Z</time>
      </trkpt>
      <trkpt lat="46.1590660" lon="12.4503400">
        <ele>1232.0700000</ele>
        <time>2010-09-27T09:44:57Z</time>
      </trkpt>
      <trkpt lat="46.1590460" lon="12.4503670">
        <ele>1233.0300000</ele>
        <time>2010-09-27T09:45:07Z</time>
      </trkpt>
      <trkpt lat="46.1590360" lon="12.4503890">
        <ele>1234.4700000</ele>
        <time>2010-09-27T09:45:15Z</time>
      </trkpt>
      <trkpt lat="46.1590250" lon="12.4504320">
        <ele>1234.4700000</ele>
        <time>2010-09-27T09:45:20Z</time>
      </trkpt>
      <trkpt lat="46.1589980" lon="12.4504590">
        <ele>1235.4300000</ele>
        <time>2010-09-27T09:45:26Z</time>
      </trkpt>
      <trkpt lat="46.1589880" lon="12.4504740">
        <ele>1236.3900000</ele>
        <time>2010-09-27T09:45:31Z</time>
      </trkpt>
      <trkpt lat="46.1589860" lon="12.4505390">
        <ele>1236.8700000</ele>
        <time>2010-09-27T09:45:38Z</time>
      </trkpt>
      <trkpt lat="46.1589770" lon="12.4505810">
        <ele>1237.3500000</ele>
        <time>2010-09-27T09:45:44Z</time>
      </trkpt>
      <trkpt lat="46.1589780" lon="12.4506060">
        <ele>1237.8300000</ele>
        <time>2010-09-27T09:45:49Z</time>
      </trkpt>
      <trkpt lat="46.1589860" lon="12.4506810">
        <ele>1239.2800000</ele>
        <time>2010-09-27T09:45:55Z</time>
      </trkpt>
      <trkpt lat="46.1589810" lon="12.4507140">
        <ele>1240.2400000</ele>
        <time>2010-09-27T09:46:01Z</time>
      </trkpt>
      <trkpt lat="46.1589770" lon="12.4507430">
        <ele>1240.2400000</ele>
        <time>2010-09-27T09:46:07Z</time>
      </trkpt>
      <trkpt lat="46.1589750" lon="12.4507530">
        <ele>1240.7200000</ele>
        <time>2010-09-27T09:46:25Z</time>
      </trkpt>
      <trkpt lat="46.1589650" lon="12.4507750">
        <ele>1240.7200000</ele>
        <time>2010-09-27T09:46:43Z</time>
      </trkpt>
      <trkpt lat="46.1589620" lon="12.4507860">
        <ele>1240.2400000</ele>
        <time>2010-09-27T09:46:56Z</time>
      </trkpt>
      <trkpt lat="46.1589810" lon="12.4508750">
        <ele>1240.2400000</ele>
        <time>2010-09-27T09:47:03Z</time>
      </trkpt>
      <trkpt lat="46.1589820" lon="12.4508800">
        <ele>1240.7200000</ele>
        <time>2010-09-27T09:47:14Z</time>
      </trkpt>
      <trkpt lat="46.1589810" lon="12.4508790">
        <ele>1240.7200000</ele>
        <time>2010-09-27T09:47:15Z</time>
      </trkpt>
      <trkpt lat="46.1589360" lon="12.4508270">
        <ele>1240.7200000</ele>
        <time>2010-09-27T09:47:21Z</time>
      </trkpt>
      <trkpt lat="46.1588990" lon="12.4508700">
        <ele>1241.2000000</ele>
        <time>2010-09-27T09:47:27Z</time>
      </trkpt>
      <trkpt lat="46.1588690" lon="12.4509130">
        <ele>1241.6800000</ele>
        <time>2010-09-27T09:47:32Z</time>
      </trkpt>
      <trkpt lat="46.1588630" lon="12.4509580">
        <ele>1242.1600000</ele>
        <time>2010-09-27T09:47:39Z</time>
      </trkpt>
      <trkpt lat="46.1588450" lon="12.4509890">
        <ele>1242.6400000</ele>
        <time>2010-09-27T09:47:44Z</time>
      </trkpt>
      <trkpt lat="46.1588380" lon="12.4510150">
        <ele>1243.1200000</ele>
        <time>2010-09-27T09:47:49Z</time>
      </trkpt>
      <trkpt lat="46.1588290" lon="12.4510360">
        <ele>1243.1200000</ele>
        <time>2010-09-27T09:47:51Z</time>
      </trkpt>
      <trkpt lat="46.1587860" lon="12.4511020">
        <ele>1243.6000000</ele>
        <time>2010-09-27T09:47:58Z</time>
      </trkpt>
      <trkpt lat="46.1587480" lon="12.4511600">
        <ele>1244.0800000</ele>
        <time>2010-09-27T09:48:04Z</time>
      </trkpt>
      <trkpt lat="46.1587090" lon="12.4511910">
        <ele>1244.5600000</ele>
        <time>2010-09-27T09:48:10Z</time>
      </trkpt>
      <trkpt lat="46.1586880" lon="12.4512240">
        <ele>1245.0400000</ele>
        <time>2010-09-27T09:48:16Z</time>
      </trkpt>
      <trkpt lat="46.1586610" lon="12.4512530">
        <ele>1245.5300000</ele>
        <time>2010-09-27T09:48:21Z</time>
      </trkpt>
      <trkpt lat="46.1586080" lon="12.4512790">
        <ele>1246.4900000</ele>
        <time>2010-09-27T09:48:27Z</time>
      </trkpt>
      <trkpt lat="46.1585680" lon="12.4513460">
        <ele>1246.0100000</ele>
        <time>2010-09-27T09:48:32Z</time>
      </trkpt>
      <trkpt lat="46.1585360" lon="12.4514380">
        <ele>1246.0100000</ele>
        <time>2010-09-27T09:48:38Z</time>
      </trkpt>
      <trkpt lat="46.1585280" lon="12.4515380">
        <ele>1246.0100000</ele>
        <time>2010-09-27T09:48:43Z</time>
      </trkpt>
      <trkpt lat="46.1585250" lon="12.4516150">
        <ele>1246.0100000</ele>
        <time>2010-09-27T09:48:49Z</time>
      </trkpt>
      <trkpt lat="46.1585000" lon="12.4517100">
        <ele>1246.4900000</ele>
        <time>2010-09-27T09:48:55Z</time>
      </trkpt>
      <trkpt lat="46.1584750" lon="12.4517930">
        <ele>1246.0100000</ele>
        <time>2010-09-27T09:49:01Z</time>
      </trkpt>
      <trkpt lat="46.1584450" lon="12.4518450">
        <ele>1246.0100000</ele>
        <time>2010-09-27T09:49:06Z</time>
      </trkpt>
      <trkpt lat="46.1584420" lon="12.4518510">
        <ele>1245.5300000</ele>
        <time>2010-09-27T09:49:07Z</time>
      </trkpt>
      <trkpt lat="46.1584070" lon="12.4518710">
        <ele>1246.4900000</ele>
        <time>2010-09-27T09:49:13Z</time>
      </trkpt>
      <trkpt lat="46.1583770" lon="12.4518810">
        <ele>1246.9700000</ele>
        <time>2010-09-27T09:49:18Z</time>
      </trkpt>
      <trkpt lat="46.1583640" lon="12.4518840">
        <ele>1247.9300000</ele>
        <time>2010-09-27T09:49:26Z</time>
      </trkpt>
      <trkpt lat="46.1583280" lon="12.4519000">
        <ele>1248.4100000</ele>
        <time>2010-09-27T09:49:35Z</time>
      </trkpt>
      <trkpt lat="46.1582960" lon="12.4519370">
        <ele>1248.8900000</ele>
        <time>2010-09-27T09:49:40Z</time>
      </trkpt>
      <trkpt lat="46.1582640" lon="12.4519810">
        <ele>1249.8500000</ele>
        <time>2010-09-27T09:49:46Z</time>
      </trkpt>
      <trkpt lat="46.1582520" lon="12.4519960">
        <ele>1246.9700000</ele>
        <time>2010-09-27T09:49:49Z</time>
      </trkpt>
      <trkpt lat="46.1582490" lon="12.4520120">
        <ele>1248.4100000</ele>
        <time>2010-09-27T09:49:50Z</time>
      </trkpt>
      <trkpt lat="46.1582470" lon="12.4520220">
        <ele>1249.8500000</ele>
        <time>2010-09-27T09:49:51Z</time>
      </trkpt>
      <trkpt lat="46.1582370" lon="12.4520570">
        <ele>1251.7700000</ele>
        <time>2010-09-27T09:49:53Z</time>
      </trkpt>
      <trkpt lat="46.1582330" lon="12.4520670">
        <ele>1248.4100000</ele>
        <time>2010-09-27T09:49:56Z</time>
      </trkpt>
      <trkpt lat="46.1582330" lon="12.4520670">
        <ele>1251.7700000</ele>
        <time>2010-09-27T09:50:00Z</time>
      </trkpt>
      <trkpt lat="46.1582330" lon="12.4520670">
        <ele>1248.8900000</ele>
        <time>2010-09-27T09:50:05Z</time>
      </trkpt>
      <trkpt lat="46.1582330" lon="12.4520670">
        <ele>1252.2500000</ele>
        <time>2010-09-27T09:50:22Z</time>
      </trkpt>
      <trkpt lat="46.1582300" lon="12.4521020">
        <ele>1246.9700000</ele>
        <time>2010-09-27T09:50:47Z</time>
      </trkpt>
      <trkpt lat="46.1582290" lon="12.4521140">
        <ele>1250.8100000</ele>
        <time>2010-09-27T09:50:48Z</time>
      </trkpt>
      <trkpt lat="46.1582340" lon="12.4521500">
        <ele>1245.5300000</ele>
        <time>2010-09-27T09:50:52Z</time>
      </trkpt>
      <trkpt lat="46.1582340" lon="12.4521500">
        <ele>1252.2500000</ele>
        <time>2010-09-27T09:50:53Z</time>
      </trkpt>
      <trkpt lat="46.1582070" lon="12.4522250">
        <ele>1252.2500000</ele>
        <time>2010-09-27T09:50:59Z</time>
      </trkpt>
      <trkpt lat="46.1581870" lon="12.4522540">
        <ele>1252.2500000</ele>
        <time>2010-09-27T09:51:04Z</time>
      </trkpt>
      <trkpt lat="46.1581670" lon="12.4522880">
        <ele>1253.7000000</ele>
        <time>2010-09-27T09:51:12Z</time>
      </trkpt>
      <trkpt lat="46.1581550" lon="12.4523240">
        <ele>1256.1000000</ele>
        <time>2010-09-27T09:51:19Z</time>
      </trkpt>
      <trkpt lat="46.1581480" lon="12.4523310">
        <ele>1256.1000000</ele>
        <time>2010-09-27T09:51:20Z</time>
      </trkpt>
      <trkpt lat="46.1581410" lon="12.4523340">
        <ele>1254.6600000</ele>
        <time>2010-09-27T09:51:22Z</time>
      </trkpt>
      <trkpt lat="46.1581110" lon="12.4523580">
        <ele>1255.6200000</ele>
        <time>2010-09-27T09:51:28Z</time>
      </trkpt>
      <trkpt lat="46.1580970" lon="12.4523870">
        <ele>1256.1000000</ele>
        <time>2010-09-27T09:51:33Z</time>
      </trkpt>
      <trkpt lat="46.1580640" lon="12.4524400">
        <ele>1257.0600000</ele>
        <time>2010-09-27T09:51:39Z</time>
      </trkpt>
      <trkpt lat="46.1580420" lon="12.4524670">
        <ele>1257.0600000</ele>
        <time>2010-09-27T09:51:45Z</time>
      </trkpt>
      <trkpt lat="46.1579860" lon="12.4525100">
        <ele>1258.9800000</ele>
        <time>2010-09-27T09:51:58Z</time>
      </trkpt>
      <trkpt lat="46.1579650" lon="12.4525540">
        <ele>1259.9400000</ele>
        <time>2010-09-27T09:52:04Z</time>
      </trkpt>
      <trkpt lat="46.1579410" lon="12.4525780">
        <ele>1259.9400000</ele>
        <time>2010-09-27T09:52:09Z</time>
      </trkpt>
      <trkpt lat="46.1579360" lon="12.4526400">
        <ele>1260.9100000</ele>
        <time>2010-09-27T09:52:15Z</time>
      </trkpt>
      <trkpt lat="46.1579380" lon="12.4526930">
        <ele>1260.9100000</ele>
        <time>2010-09-27T09:52:21Z</time>
      </trkpt>
      <trkpt lat="46.1579300" lon="12.4527580">
        <ele>1262.8300000</ele>
        <time>2010-09-27T09:52:34Z</time>
      </trkpt>
      <trkpt lat="46.1578820" lon="12.4528850">
        <ele>1264.7500000</ele>
        <time>2010-09-27T09:52:54Z</time>
      </trkpt>
      <trkpt lat="46.1578700" lon="12.4529190">
        <ele>1265.7100000</ele>
        <time>2010-09-27T09:53:00Z</time>
      </trkpt>
      <trkpt lat="46.1578210" lon="12.4529780">
        <ele>1266.6700000</ele>
        <time>2010-09-27T09:53:14Z</time>
      </trkpt>
      <trkpt lat="46.1578010" lon="12.4530300">
        <ele>1268.1200000</ele>
        <time>2010-09-27T09:53:22Z</time>
      </trkpt>
      <trkpt lat="46.1577720" lon="12.4531130">
        <ele>1268.6000000</ele>
        <time>2010-09-27T09:53:31Z</time>
      </trkpt>
      <trkpt lat="46.1577460" lon="12.4532160">
        <ele>1270.5200000</ele>
        <time>2010-09-27T09:53:43Z</time>
      </trkpt>
      <trkpt lat="46.1576970" lon="12.4532950">
        <ele>1272.4400000</ele>
        <time>2010-09-27T09:53:58Z</time>
      </trkpt>
      <trkpt lat="46.1576620" lon="12.4533930">
        <ele>1273.8800000</ele>
        <time>2010-09-27T09:54:11Z</time>
      </trkpt>
      <trkpt lat="46.1576480" lon="12.4534210">
        <ele>1274.8500000</ele>
        <time>2010-09-27T09:54:20Z</time>
      </trkpt>
      <trkpt lat="46.1576190" lon="12.4534970">
        <ele>1276.2900000</ele>
        <time>2010-09-27T09:54:31Z</time>
      </trkpt>
      <trkpt lat="46.1576040" lon="12.4535410">
        <ele>1277.2500000</ele>
        <time>2010-09-27T09:54:39Z</time>
      </trkpt>
      <trkpt lat="46.1575620" lon="12.4536590">
        <ele>1278.2100000</ele>
        <time>2010-09-27T09:54:52Z</time>
      </trkpt>
      <trkpt lat="46.1575370" lon="12.4537620">
        <ele>1279.1700000</ele>
        <time>2010-09-27T09:55:05Z</time>
      </trkpt>
      <trkpt lat="46.1575360" lon="12.4538510">
        <ele>1280.1300000</ele>
        <time>2010-09-27T09:55:13Z</time>
      </trkpt>
      <trkpt lat="46.1575220" lon="12.4538920">
        <ele>1281.5700000</ele>
        <time>2010-09-27T09:55:20Z</time>
      </trkpt>
      <trkpt lat="46.1574930" lon="12.4539690">
        <ele>1282.5400000</ele>
        <time>2010-09-27T09:55:32Z</time>
      </trkpt>
      <trkpt lat="46.1574790" lon="12.4540370">
        <ele>1283.9800000</ele>
        <time>2010-09-27T09:55:42Z</time>
      </trkpt>
      <trkpt lat="46.1574480" lon="12.4540870">
        <ele>1284.9400000</ele>
        <time>2010-09-27T09:55:52Z</time>
      </trkpt>
      <trkpt lat="46.1574020" lon="12.4541700">
        <ele>1286.3800000</ele>
        <time>2010-09-27T09:56:01Z</time>
      </trkpt>
      <trkpt lat="46.1573970" lon="12.4541760">
        <ele>1286.8600000</ele>
        <time>2010-09-27T09:56:05Z</time>
      </trkpt>
      <trkpt lat="46.1573710" lon="12.4542460">
        <ele>1287.3400000</ele>
        <time>2010-09-27T09:56:14Z</time>
      </trkpt>
      <trkpt lat="46.1573370" lon="12.4543110">
        <ele>1287.8200000</ele>
        <time>2010-09-27T09:56:20Z</time>
      </trkpt>
      <trkpt lat="46.1573260" lon="12.4543270">
        <ele>1288.3000000</ele>
        <time>2010-09-27T09:56:26Z</time>
      </trkpt>
      <trkpt lat="46.1572830" lon="12.4543820">
        <ele>1289.2700000</ele>
        <time>2010-09-27T09:56:34Z</time>
      </trkpt>
      <trkpt lat="46.1572580" lon="12.4544290">
        <ele>1289.2700000</ele>
        <time>2010-09-27T09:56:39Z</time>
      </trkpt>
      <trkpt lat="46.1572250" lon="12.4544870">
        <ele>1291.1900000</ele>
        <time>2010-09-27T09:56:47Z</time>
      </trkpt>
      <trkpt lat="46.1572090" lon="12.4545010">
        <ele>1291.6700000</ele>
        <time>2010-09-27T09:56:55Z</time>
      </trkpt>
      <trkpt lat="46.1571960" lon="12.4545440">
        <ele>1293.1100000</ele>
        <time>2010-09-27T09:57:02Z</time>
      </trkpt>
      <trkpt lat="46.1571750" lon="12.4545880">
        <ele>1293.5900000</ele>
        <time>2010-09-27T09:57:08Z</time>
      </trkpt>
      <trkpt lat="46.1571430" lon="12.4547090">
        <ele>1295.0300000</ele>
        <time>2010-09-27T09:57:20Z</time>
      </trkpt>
      <trkpt lat="46.1571190" lon="12.4547630">
        <ele>1296.4800000</ele>
        <time>2010-09-27T09:57:26Z</time>
      </trkpt>
      <trkpt lat="46.1571030" lon="12.4549220">
        <ele>1299.8400000</ele>
        <time>2010-09-27T09:57:56Z</time>
      </trkpt>
      <trkpt lat="46.1572070" lon="12.4549540">
        <ele>1300.3200000</ele>
        <time>2010-09-27T09:58:12Z</time>
      </trkpt>
      <trkpt lat="46.1573470" lon="12.4549650">
        <ele>1302.7200000</ele>
        <time>2010-09-27T09:58:32Z</time>
      </trkpt>
      <trkpt lat="46.1574610" lon="12.4549240">
        <ele>1304.6500000</ele>
        <time>2010-09-27T09:58:52Z</time>
      </trkpt>
      <trkpt lat="46.1574990" lon="12.4549050">
        <ele>1306.5700000</ele>
        <time>2010-09-27T09:58:59Z</time>
      </trkpt>
      <trkpt lat="46.1575150" lon="12.4548870">
        <ele>1307.0500000</ele>
        <time>2010-09-27T09:59:07Z</time>
      </trkpt>
      <trkpt lat="46.1575060" lon="12.4548990">
        <ele>1308.4900000</ele>
        <time>2010-09-27T09:59:12Z</time>
      </trkpt>
      <trkpt lat="46.1575120" lon="12.4548760">
        <ele>1308.0100000</ele>
        <time>2010-09-27T09:59:30Z</time>
      </trkpt>
      <trkpt lat="46.1575130" lon="12.4548810">
        <ele>1308.0100000</ele>
        <time>2010-09-27T10:00:24Z</time>
      </trkpt>
      <trkpt lat="46.1575290" lon="12.4548860">
        <ele>1308.4900000</ele>
        <time>2010-09-27T10:01:11Z</time>
      </trkpt>
      <trkpt lat="46.1575330" lon="12.4548920">
        <ele>1310.9000000</ele>
        <time>2010-09-27T10:01:45Z</time>
      </trkpt>
      <trkpt lat="46.1575330" lon="12.4548920">
        <ele>1309.4500000</ele>
        <time>2010-09-27T10:01:47Z</time>
      </trkpt>
      <trkpt lat="46.1575610" lon="12.4549190">
        <ele>1309.9300000</ele>
        <time>2010-09-27T10:02:59Z</time>
      </trkpt>
      <trkpt lat="46.1575650" lon="12.4549150">
        <ele>1309.9300000</ele>
        <time>2010-09-27T10:03:06Z</time>
      </trkpt>
      <trkpt lat="46.1575470" lon="12.4549330">
        <ele>1310.4100000</ele>
        <time>2010-09-27T10:03:28Z</time>
      </trkpt>
      <trkpt lat="46.1575550" lon="12.4549330">
        <ele>1311.3800000</ele>
        <time>2010-09-27T10:04:23Z</time>
      </trkpt>
      <trkpt lat="46.1575490" lon="12.4549320">
        <ele>1311.3800000</ele>
        <time>2010-09-27T10:04:35Z</time>
      </trkpt>
      <trkpt lat="46.1575490" lon="12.4549320">
        <ele>1311.8600000</ele>
        <time>2010-09-27T10:04:43Z</time>
      </trkpt>
      <trkpt lat="46.1575390" lon="12.4549840">
        <ele>1312.3400000</ele>
        <time>2010-09-27T10:05:22Z</time>
      </trkpt>
      <trkpt lat="46.1574880" lon="12.4550440">
        <ele>1312.8200000</ele>
        <time>2010-09-27T10:05:28Z</time>
      </trkpt>
      <trkpt lat="46.1574680" lon="12.4551240">
        <ele>1314.2600000</ele>
        <time>2010-09-27T10:05:35Z</time>
      </trkpt>
      <trkpt lat="46.1574520" lon="12.4551550">
        <ele>1313.7800000</ele>
        <time>2010-09-27T10:05:40Z</time>
      </trkpt>
      <trkpt lat="46.1574080" lon="12.4552320">
        <ele>1314.7400000</ele>
        <time>2010-09-27T10:05:48Z</time>
      </trkpt>
      <trkpt lat="46.1573790" lon="12.4552720">
        <ele>1314.7400000</ele>
        <time>2010-09-27T10:05:53Z</time>
      </trkpt>
      <trkpt lat="46.1573610" lon="12.4553270">
        <ele>1315.7000000</ele>
        <time>2010-09-27T10:05:59Z</time>
      </trkpt>
      <trkpt lat="46.1573050" lon="12.4553670">
        <ele>1316.6600000</ele>
        <time>2010-09-27T10:06:06Z</time>
      </trkpt>
      <trkpt lat="46.1572880" lon="12.4553830">
        <ele>1315.7000000</ele>
        <time>2010-09-27T10:06:08Z</time>
      </trkpt>
      <trkpt lat="46.1572230" lon="12.4554200">
        <ele>1316.6600000</ele>
        <time>2010-09-27T10:06:15Z</time>
      </trkpt>
      <trkpt lat="46.1571900" lon="12.4554550">
        <ele>1317.6200000</ele>
        <time>2010-09-27T10:06:20Z</time>
      </trkpt>
      <trkpt lat="46.1571470" lon="12.4554670">
        <ele>1318.5900000</ele>
        <time>2010-09-27T10:06:26Z</time>
      </trkpt>
      <trkpt lat="46.1571140" lon="12.4554920">
        <ele>1319.0700000</ele>
        <time>2010-09-27T10:06:33Z</time>
      </trkpt>
      <trkpt lat="46.1570530" lon="12.4555190">
        <ele>1319.5500000</ele>
        <time>2010-09-27T10:06:39Z</time>
      </trkpt>
      <trkpt lat="46.1570150" lon="12.4555370">
        <ele>1320.5100000</ele>
        <time>2010-09-27T10:06:45Z</time>
      </trkpt>
      <trkpt lat="46.1569620" lon="12.4555750">
        <ele>1320.9900000</ele>
        <time>2010-09-27T10:06:52Z</time>
      </trkpt>
      <trkpt lat="46.1569180" lon="12.4556030">
        <ele>1321.4700000</ele>
        <time>2010-09-27T10:06:58Z</time>
      </trkpt>
      <trkpt lat="46.1568820" lon="12.4556280">
        <ele>1321.9500000</ele>
        <time>2010-09-27T10:07:03Z</time>
      </trkpt>
      <trkpt lat="46.1568430" lon="12.4556660">
        <ele>1322.9100000</ele>
        <time>2010-09-27T10:07:09Z</time>
      </trkpt>
      <trkpt lat="46.1568180" lon="12.4557020">
        <ele>1323.8700000</ele>
        <time>2010-09-27T10:07:14Z</time>
      </trkpt>
      <trkpt lat="46.1568120" lon="12.4557380">
        <ele>1324.8300000</ele>
        <time>2010-09-27T10:07:19Z</time>
      </trkpt>
      <trkpt lat="46.1567860" lon="12.4558010">
        <ele>1324.8300000</ele>
        <time>2010-09-27T10:07:24Z</time>
      </trkpt>
      <trkpt lat="46.1567640" lon="12.4558610">
        <ele>1325.3100000</ele>
        <time>2010-09-27T10:07:29Z</time>
      </trkpt>
      <trkpt lat="46.1567500" lon="12.4559060">
        <ele>1325.8000000</ele>
        <time>2010-09-27T10:07:35Z</time>
      </trkpt>
      <trkpt lat="46.1567400" lon="12.4559380">
        <ele>1326.7600000</ele>
        <time>2010-09-27T10:07:40Z</time>
      </trkpt>
      <trkpt lat="46.1567320" lon="12.4559880">
        <ele>1327.2400000</ele>
        <time>2010-09-27T10:07:51Z</time>
      </trkpt>
      <trkpt lat="46.1567320" lon="12.4559880">
        <ele>1326.7600000</ele>
        <time>2010-09-27T10:07:52Z</time>
      </trkpt>
      <trkpt lat="46.1567490" lon="12.4560820">
        <ele>1326.7600000</ele>
        <time>2010-09-27T10:07:59Z</time>
      </trkpt>
      <trkpt lat="46.1567550" lon="12.4561440">
        <ele>1327.7200000</ele>
        <time>2010-09-27T10:08:03Z</time>
      </trkpt>
      <trkpt lat="46.1567510" lon="12.4562510">
        <ele>1328.2000000</ele>
        <time>2010-09-27T10:08:11Z</time>
      </trkpt>
      <trkpt lat="46.1567460" lon="12.4563550">
        <ele>1327.7200000</ele>
        <time>2010-09-27T10:08:17Z</time>
      </trkpt>
      <trkpt lat="46.1567400" lon="12.4564530">
        <ele>1328.6800000</ele>
        <time>2010-09-27T10:08:23Z</time>
      </trkpt>
      <trkpt lat="46.1567430" lon="12.4565510">
        <ele>1328.2000000</ele>
        <time>2010-09-27T10:08:29Z</time>
      </trkpt>
      <trkpt lat="46.1567540" lon="12.4566620">
        <ele>1328.2000000</ele>
        <time>2010-09-27T10:08:36Z</time>
      </trkpt>
      <trkpt lat="46.1567600" lon="12.4566730">
        <ele>1328.2000000</ele>
        <time>2010-09-27T10:08:39Z</time>
      </trkpt>
      <trkpt lat="46.1568110" lon="12.4568250">
        <ele>1327.2400000</ele>
        <time>2010-09-27T10:08:46Z</time>
      </trkpt>
      <trkpt lat="46.1568180" lon="12.4568770">
        <ele>1325.8000000</ele>
        <time>2010-09-27T10:08:51Z</time>
      </trkpt>
      <trkpt lat="46.1568340" lon="12.4569940">
        <ele>1324.8300000</ele>
        <time>2010-09-27T10:08:57Z</time>
      </trkpt>
      <trkpt lat="46.1568390" lon="12.4570780">
        <ele>1324.3500000</ele>
        <time>2010-09-27T10:09:03Z</time>
      </trkpt>
      <trkpt lat="46.1568480" lon="12.4571870">
        <ele>1324.3500000</ele>
        <time>2010-09-27T10:09:09Z</time>
      </trkpt>
      <trkpt lat="46.1568560" lon="12.4573050">
        <ele>1323.8700000</ele>
        <time>2010-09-27T10:09:16Z</time>
      </trkpt>
      <trkpt lat="46.1568530" lon="12.4573150">
        <ele>1324.3500000</ele>
        <time>2010-09-27T10:09:17Z</time>
      </trkpt>
      <trkpt lat="46.1568540" lon="12.4574370">
        <ele>1323.8700000</ele>
        <time>2010-09-27T10:09:24Z</time>
      </trkpt>
      <trkpt lat="46.1568540" lon="12.4574940">
        <ele>1323.8700000</ele>
        <time>2010-09-27T10:09:27Z</time>
      </trkpt>
      <trkpt lat="46.1568380" lon="12.4576040">
        <ele>1323.8700000</ele>
        <time>2010-09-27T10:09:33Z</time>
      </trkpt>
      <trkpt lat="46.1568400" lon="12.4577200">
        <ele>1324.3500000</ele>
        <time>2010-09-27T10:09:40Z</time>
      </trkpt>
      <trkpt lat="46.1568450" lon="12.4577300">
        <ele>1324.3500000</ele>
        <time>2010-09-27T10:09:41Z</time>
      </trkpt>
      <trkpt lat="46.1568490" lon="12.4578210">
        <ele>1324.8300000</ele>
        <time>2010-09-27T10:09:47Z</time>
      </trkpt>
      <trkpt lat="46.1568430" lon="12.4579380">
        <ele>1325.3100000</ele>
        <time>2010-09-27T10:09:54Z</time>
      </trkpt>
      <trkpt lat="46.1568270" lon="12.4580040">
        <ele>1324.8300000</ele>
        <time>2010-09-27T10:10:00Z</time>
      </trkpt>
      <trkpt lat="46.1568230" lon="12.4580860">
        <ele>1325.8000000</ele>
        <time>2010-09-27T10:10:06Z</time>
      </trkpt>
      <trkpt lat="46.1568070" lon="12.4581770">
        <ele>1326.2800000</ele>
        <time>2010-09-27T10:10:12Z</time>
      </trkpt>
      <trkpt lat="46.1567890" lon="12.4582660">
        <ele>1325.8000000</ele>
        <time>2010-09-27T10:10:18Z</time>
      </trkpt>
      <trkpt lat="46.1567630" lon="12.4583510">
        <ele>1326.7600000</ele>
        <time>2010-09-27T10:10:24Z</time>
      </trkpt>
      <trkpt lat="46.1567380" lon="12.4584430">
        <ele>1327.2400000</ele>
        <time>2010-09-27T10:10:30Z</time>
      </trkpt>
      <trkpt lat="46.1567290" lon="12.4584630">
        <ele>1327.2400000</ele>
        <time>2010-09-27T10:10:32Z</time>
      </trkpt>
      <trkpt lat="46.1567040" lon="12.4585090">
        <ele>1328.2000000</ele>
        <time>2010-09-27T10:10:38Z</time>
      </trkpt>
      <trkpt lat="46.1566800" lon="12.4585510">
        <ele>1328.6800000</ele>
        <time>2010-09-27T10:10:43Z</time>
      </trkpt>
      <trkpt lat="46.1566530" lon="12.4586480">
        <ele>1329.1600000</ele>
        <time>2010-09-27T10:10:50Z</time>
      </trkpt>
      <trkpt lat="46.1566180" lon="12.4587400">
        <ele>1330.6000000</ele>
        <time>2010-09-27T10:10:57Z</time>
      </trkpt>
      <trkpt lat="46.1566120" lon="12.4587670">
        <ele>1329.6400000</ele>
        <time>2010-09-27T10:11:02Z</time>
      </trkpt>
      <trkpt lat="46.1566050" lon="12.4587930">
        <ele>1330.6000000</ele>
        <time>2010-09-27T10:11:05Z</time>
      </trkpt>
      <trkpt lat="46.1566030" lon="12.4588630">
        <ele>1332.0400000</ele>
        <time>2010-09-27T10:11:11Z</time>
      </trkpt>
      <trkpt lat="46.1566060" lon="12.4588830">
        <ele>1332.5200000</ele>
        <time>2010-09-27T10:11:16Z</time>
      </trkpt>
      <trkpt lat="46.1565860" lon="12.4589450">
        <ele>1333.0100000</ele>
        <time>2010-09-27T10:11:21Z</time>
      </trkpt>
      <trkpt lat="46.1565810" lon="12.4589840">
        <ele>1333.4900000</ele>
        <time>2010-09-27T10:11:28Z</time>
      </trkpt>
      <trkpt lat="46.1565700" lon="12.4590350">
        <ele>1333.9700000</ele>
        <time>2010-09-27T10:11:34Z</time>
      </trkpt>
      <trkpt lat="46.1565720" lon="12.4590460">
        <ele>1333.9700000</ele>
        <time>2010-09-27T10:11:35Z</time>
      </trkpt>
      <trkpt lat="46.1565610" lon="12.4590760">
        <ele>1334.4500000</ele>
        <time>2010-09-27T10:11:38Z</time>
      </trkpt>
      <trkpt lat="46.1565460" lon="12.4591600">
        <ele>1335.4100000</ele>
        <time>2010-09-27T10:11:45Z</time>
      </trkpt>
      <trkpt lat="46.1565320" lon="12.4592000">
        <ele>1335.8900000</ele>
        <time>2010-09-27T10:11:51Z</time>
      </trkpt>
      <trkpt lat="46.1565230" lon="12.4592260">
        <ele>1336.3700000</ele>
        <time>2010-09-27T10:11:53Z</time>
      </trkpt>
      <trkpt lat="46.1565060" lon="12.4592620">
        <ele>1336.3700000</ele>
        <time>2010-09-27T10:11:59Z</time>
      </trkpt>
      <trkpt lat="46.1565010" lon="12.4592730">
        <ele>1336.3700000</ele>
        <time>2010-09-27T10:12:00Z</time>
      </trkpt>
      <trkpt lat="46.1564700" lon="12.4593040">
        <ele>1336.8500000</ele>
        <time>2010-09-27T10:12:05Z</time>
      </trkpt>
      <trkpt lat="46.1564540" lon="12.4593480">
        <ele>1337.3300000</ele>
        <time>2010-09-27T10:12:09Z</time>
      </trkpt>
      <trkpt lat="46.1564400" lon="12.4593700">
        <ele>1338.2900000</ele>
        <time>2010-09-27T10:12:15Z</time>
      </trkpt>
      <trkpt lat="46.1564340" lon="12.4594000">
        <ele>1338.7700000</ele>
        <time>2010-09-27T10:12:18Z</time>
      </trkpt>
      <trkpt lat="46.1564200" lon="12.4594280">
        <ele>1339.2500000</ele>
        <time>2010-09-27T10:12:20Z</time>
      </trkpt>
      <trkpt lat="46.1564190" lon="12.4595030">
        <ele>1339.7300000</ele>
        <time>2010-09-27T10:12:26Z</time>
      </trkpt>
      <trkpt lat="46.1564180" lon="12.4595770">
        <ele>1340.2200000</ele>
        <time>2010-09-27T10:12:32Z</time>
      </trkpt>
      <trkpt lat="46.1564190" lon="12.4596250">
        <ele>1341.1800000</ele>
        <time>2010-09-27T10:12:37Z</time>
      </trkpt>
      <trkpt lat="46.1564150" lon="12.4596520">
        <ele>1341.1800000</ele>
        <time>2010-09-27T10:12:40Z</time>
      </trkpt>
      <trkpt lat="46.1564090" lon="12.4597080">
        <ele>1341.6600000</ele>
        <time>2010-09-27T10:12:47Z</time>
      </trkpt>
      <trkpt lat="46.1564070" lon="12.4597410">
        <ele>1342.1400000</ele>
        <time>2010-09-27T10:12:52Z</time>
      </trkpt>
      <trkpt lat="46.1563870" lon="12.4598070">
        <ele>1342.1400000</ele>
        <time>2010-09-27T10:12:58Z</time>
      </trkpt>
      <trkpt lat="46.1563810" lon="12.4598180">
        <ele>1343.1000000</ele>
        <time>2010-09-27T10:13:00Z</time>
      </trkpt>
      <trkpt lat="46.1563530" lon="12.4598320">
        <ele>1343.1000000</ele>
        <time>2010-09-27T10:13:06Z</time>
      </trkpt>
      <trkpt lat="46.1563240" lon="12.4598660">
        <ele>1344.5400000</ele>
        <time>2010-09-27T10:13:11Z</time>
      </trkpt>
      <trkpt lat="46.1562880" lon="12.4599080">
        <ele>1345.5000000</ele>
        <time>2010-09-27T10:13:16Z</time>
      </trkpt>
      <trkpt lat="46.1562640" lon="12.4599490">
        <ele>1345.5000000</ele>
        <time>2010-09-27T10:13:20Z</time>
      </trkpt>
      <trkpt lat="46.1562600" lon="12.4599780">
        <ele>1345.9800000</ele>
        <time>2010-09-27T10:13:23Z</time>
      </trkpt>
      <trkpt lat="46.1562610" lon="12.4600920">
        <ele>1346.9400000</ele>
        <time>2010-09-27T10:13:31Z</time>
      </trkpt>
      <trkpt lat="46.1562740" lon="12.4601520">
        <ele>1346.9400000</ele>
        <time>2010-09-27T10:13:37Z</time>
      </trkpt>
      <trkpt lat="46.1562900" lon="12.4602080">
        <ele>1347.4300000</ele>
        <time>2010-09-27T10:13:42Z</time>
      </trkpt>
      <trkpt lat="46.1563010" lon="12.4602530">
        <ele>1347.9100000</ele>
        <time>2010-09-27T10:13:46Z</time>
      </trkpt>
      <trkpt lat="46.1563070" lon="12.4602690">
        <ele>1347.4300000</ele>
        <time>2010-09-27T10:13:49Z</time>
      </trkpt>
      <trkpt lat="46.1563360" lon="12.4603010">
        <ele>1348.8700000</ele>
        <time>2010-09-27T10:13:54Z</time>
      </trkpt>
      <trkpt lat="46.1563670" lon="12.4603400">
        <ele>1348.3900000</ele>
        <time>2010-09-27T10:13:58Z</time>
      </trkpt>
      <trkpt lat="46.1563930" lon="12.4603820">
        <ele>1349.3500000</ele>
        <time>2010-09-27T10:14:02Z</time>
      </trkpt>
      <trkpt lat="46.1564110" lon="12.4604100">
        <ele>1349.3500000</ele>
        <time>2010-09-27T10:14:07Z</time>
      </trkpt>
      <trkpt lat="46.1564410" lon="12.4604530">
        <ele>1349.3500000</ele>
        <time>2010-09-27T10:14:12Z</time>
      </trkpt>
      <trkpt lat="46.1564830" lon="12.4604760">
        <ele>1349.3500000</ele>
        <time>2010-09-27T10:14:16Z</time>
      </trkpt>
      <trkpt lat="46.1565140" lon="12.4605330">
        <ele>1350.3100000</ele>
        <time>2010-09-27T10:14:22Z</time>
      </trkpt>
      <trkpt lat="46.1565560" lon="12.4605650">
        <ele>1351.2700000</ele>
        <time>2010-09-27T10:14:26Z</time>
      </trkpt>
      <trkpt lat="46.1565690" lon="12.4605750">
        <ele>1350.7900000</ele>
        <time>2010-09-27T10:14:28Z</time>
      </trkpt>
      <trkpt lat="46.1565950" lon="12.4606290">
        <ele>1350.7900000</ele>
        <time>2010-09-27T10:14:33Z</time>
      </trkpt>
      <trkpt lat="46.1566210" lon="12.4606680">
        <ele>1352.2300000</ele>
        <time>2010-09-27T10:14:37Z</time>
      </trkpt>
      <trkpt lat="46.1566360" lon="12.4606920">
        <ele>1352.2300000</ele>
        <time>2010-09-27T10:14:42Z</time>
      </trkpt>
      <trkpt lat="46.1566820" lon="12.4607420">
        <ele>1352.7100000</ele>
        <time>2010-09-27T10:14:47Z</time>
      </trkpt>
      <trkpt lat="46.1567220" lon="12.4607870">
        <ele>1353.1900000</ele>
        <time>2010-09-27T10:14:52Z</time>
      </trkpt>
      <trkpt lat="46.1567280" lon="12.4608050">
        <ele>1353.6700000</ele>
        <time>2010-09-27T10:14:54Z</time>
      </trkpt>
      <trkpt lat="46.1567530" lon="12.4608460">
        <ele>1354.1500000</ele>
        <time>2010-09-27T10:14:59Z</time>
      </trkpt>
      <trkpt lat="46.1567710" lon="12.4608710">
        <ele>1354.1500000</ele>
        <time>2010-09-27T10:15:03Z</time>
      </trkpt>
      <trkpt lat="46.1567740" lon="12.4608760">
        <ele>1354.6300000</ele>
        <time>2010-09-27T10:15:05Z</time>
      </trkpt>
      <trkpt lat="46.1568110" lon="12.4609190">
        <ele>1355.1200000</ele>
        <time>2010-09-27T10:15:09Z</time>
      </trkpt>
      <trkpt lat="46.1568180" lon="12.4609360">
        <ele>1355.1200000</ele>
        <time>2010-09-27T10:15:11Z</time>
      </trkpt>
      <trkpt lat="46.1568410" lon="12.4609940">
        <ele>1355.6000000</ele>
        <time>2010-09-27T10:15:16Z</time>
      </trkpt>
      <trkpt lat="46.1568530" lon="12.4610330">
        <ele>1355.6000000</ele>
        <time>2010-09-27T10:15:20Z</time>
      </trkpt>
      <trkpt lat="46.1568770" lon="12.4610580">
        <ele>1356.0800000</ele>
        <time>2010-09-27T10:15:25Z</time>
      </trkpt>
      <trkpt lat="46.1568810" lon="12.4610630">
        <ele>1356.5600000</ele>
        <time>2010-09-27T10:15:26Z</time>
      </trkpt>
      <trkpt lat="46.1569060" lon="12.4610930">
        <ele>1356.5600000</ele>
        <time>2010-09-27T10:15:30Z</time>
      </trkpt>
      <trkpt lat="46.1569250" lon="12.4611040">
        <ele>1357.0400000</ele>
        <time>2010-09-27T10:15:32Z</time>
      </trkpt>
      <trkpt lat="46.1569600" lon="12.4611250">
        <ele>1357.5200000</ele>
        <time>2010-09-27T10:15:35Z</time>
      </trkpt>
      <trkpt lat="46.1569700" lon="12.4611790">
        <ele>1358.0000000</ele>
        <time>2010-09-27T10:15:41Z</time>
      </trkpt>
      <trkpt lat="46.1570080" lon="12.4612200">
        <ele>1358.4800000</ele>
        <time>2010-09-27T10:15:46Z</time>
      </trkpt>
      <trkpt lat="46.1570170" lon="12.4612310">
        <ele>1358.9600000</ele>
        <time>2010-09-27T10:15:47Z</time>
      </trkpt>
      <trkpt lat="46.1570310" lon="12.4612620">
        <ele>1358.9600000</ele>
        <time>2010-09-27T10:15:50Z</time>
      </trkpt>
      <trkpt lat="46.1570650" lon="12.4612950">
        <ele>1359.4400000</ele>
        <time>2010-09-27T10:15:56Z</time>
      </trkpt>
      <trkpt lat="46.1570890" lon="12.4613250">
        <ele>1359.9200000</ele>
        <time>2010-09-27T10:16:00Z</time>
      </trkpt>
      <trkpt lat="46.1570960" lon="12.4613440">
        <ele>1359.9200000</ele>
        <time>2010-09-27T10:16:02Z</time>
      </trkpt>
      <trkpt lat="46.1571300" lon="12.4613920">
        <ele>1360.4000000</ele>
        <time>2010-09-27T10:16:08Z</time>
      </trkpt>
      <trkpt lat="46.1571850" lon="12.4614460">
        <ele>1361.3600000</ele>
        <time>2010-09-27T10:16:15Z</time>
      </trkpt>
      <trkpt lat="46.1571980" lon="12.4614750">
        <ele>1361.3600000</ele>
        <time>2010-09-27T10:16:20Z</time>
      </trkpt>
      <trkpt lat="46.1572220" lon="12.4615020">
        <ele>1361.8400000</ele>
        <time>2010-09-27T10:16:23Z</time>
      </trkpt>
      <trkpt lat="46.1572610" lon="12.4615510">
        <ele>1362.3300000</ele>
        <time>2010-09-27T10:16:28Z</time>
      </trkpt>
      <trkpt lat="46.1572690" lon="12.4615510">
        <ele>1362.8100000</ele>
        <time>2010-09-27T10:16:29Z</time>
      </trkpt>
      <trkpt lat="46.1573240" lon="12.4615780">
        <ele>1362.8100000</ele>
        <time>2010-09-27T10:16:34Z</time>
      </trkpt>
      <trkpt lat="46.1573540" lon="12.4616080">
        <ele>1362.8100000</ele>
        <time>2010-09-27T10:16:37Z</time>
      </trkpt>
      <trkpt lat="46.1573810" lon="12.4616490">
        <ele>1363.2900000</ele>
        <time>2010-09-27T10:16:42Z</time>
      </trkpt>
      <trkpt lat="46.1574010" lon="12.4616780">
        <ele>1363.7700000</ele>
        <time>2010-09-27T10:16:47Z</time>
      </trkpt>
      <trkpt lat="46.1574290" lon="12.4617120">
        <ele>1363.7700000</ele>
        <time>2010-09-27T10:16:52Z</time>
      </trkpt>
      <trkpt lat="46.1574640" lon="12.4617290">
        <ele>1364.2500000</ele>
        <time>2010-09-27T10:16:57Z</time>
      </trkpt>
      <trkpt lat="46.1574830" lon="12.4617460">
        <ele>1364.7300000</ele>
        <time>2010-09-27T10:17:00Z</time>
      </trkpt>
      <trkpt lat="46.1575380" lon="12.4617930">
        <ele>1365.2100000</ele>
        <time>2010-09-27T10:17:07Z</time>
      </trkpt>
      <trkpt lat="46.1575710" lon="12.4618660">
        <ele>1365.2100000</ele>
        <time>2010-09-27T10:17:13Z</time>
      </trkpt>
      <trkpt lat="46.1575790" lon="12.4618820">
        <ele>1365.6900000</ele>
        <time>2010-09-27T10:17:15Z</time>
      </trkpt>
      <trkpt lat="46.1576330" lon="12.4619630">
        <ele>1366.1700000</ele>
        <time>2010-09-27T10:17:23Z</time>
      </trkpt>
      <trkpt lat="46.1576590" lon="12.4619820">
        <ele>1366.1700000</ele>
        <time>2010-09-27T10:17:27Z</time>
      </trkpt>
      <trkpt lat="46.1577130" lon="12.4620210">
        <ele>1367.1300000</ele>
        <time>2010-09-27T10:17:32Z</time>
      </trkpt>
      <trkpt lat="46.1577640" lon="12.4620710">
        <ele>1367.6100000</ele>
        <time>2010-09-27T10:17:38Z</time>
      </trkpt>
      <trkpt lat="46.1577580" lon="12.4620910">
        <ele>1367.6100000</ele>
        <time>2010-09-27T10:17:40Z</time>
      </trkpt>
      <trkpt lat="46.1577520" lon="12.4621080">
        <ele>1367.1300000</ele>
        <time>2010-09-27T10:17:41Z</time>
      </trkpt>
      <trkpt lat="46.1577650" lon="12.4621480">
        <ele>1368.0900000</ele>
        <time>2010-09-27T10:17:44Z</time>
      </trkpt>
      <trkpt lat="46.1578020" lon="12.4621700">
        <ele>1368.0900000</ele>
        <time>2010-09-27T10:17:48Z</time>
      </trkpt>
      <trkpt lat="46.1578500" lon="12.4622130">
        <ele>1368.5700000</ele>
        <time>2010-09-27T10:17:53Z</time>
      </trkpt>
      <trkpt lat="46.1578980" lon="12.4622620">
        <ele>1368.0900000</ele>
        <time>2010-09-27T10:17:58Z</time>
      </trkpt>
      <trkpt lat="46.1579420" lon="12.4622930">
        <ele>1369.0500000</ele>
        <time>2010-09-27T10:18:03Z</time>
      </trkpt>
      <trkpt lat="46.1579710" lon="12.4624260">
        <ele>1369.0500000</ele>
        <time>2010-09-27T10:18:10Z</time>
      </trkpt>
      <trkpt lat="46.1579960" lon="12.4624470">
        <ele>1369.0500000</ele>
        <time>2010-09-27T10:18:13Z</time>
      </trkpt>
      <trkpt lat="46.1580270" lon="12.4624860">
        <ele>1369.0500000</ele>
        <time>2010-09-27T10:18:18Z</time>
      </trkpt>
      <trkpt lat="46.1580540" lon="12.4625450">
        <ele>1369.0500000</ele>
        <time>2010-09-27T10:18:22Z</time>
      </trkpt>
      <trkpt lat="46.1580540" lon="12.4625450">
        <ele>1368.5700000</ele>
        <time>2010-09-27T10:18:24Z</time>
      </trkpt>
      <trkpt lat="46.1580720" lon="12.4625560">
        <ele>1369.0500000</ele>
        <time>2010-09-27T10:18:26Z</time>
      </trkpt>
      <trkpt lat="46.1581010" lon="12.4625930">
        <ele>1368.0900000</ele>
        <time>2010-09-27T10:18:30Z</time>
      </trkpt>
      <trkpt lat="46.1581090" lon="12.4626650">
        <ele>1369.0500000</ele>
        <time>2010-09-27T10:18:35Z</time>
      </trkpt>
      <trkpt lat="46.1581100" lon="12.4626810">
        <ele>1369.0500000</ele>
        <time>2010-09-27T10:18:36Z</time>
      </trkpt>
      <trkpt lat="46.1581230" lon="12.4627550">
        <ele>1368.5700000</ele>
        <time>2010-09-27T10:18:41Z</time>
      </trkpt>
      <trkpt lat="46.1581290" lon="12.4629000">
        <ele>1368.5700000</ele>
        <time>2010-09-27T10:18:49Z</time>
      </trkpt>
      <trkpt lat="46.1581260" lon="12.4629640">
        <ele>1369.0500000</ele>
        <time>2010-09-27T10:18:53Z</time>
      </trkpt>
      <trkpt lat="46.1581160" lon="12.4630460">
        <ele>1369.0500000</ele>
        <time>2010-09-27T10:18:58Z</time>
      </trkpt>
      <trkpt lat="46.1580820" lon="12.4631240">
        <ele>1369.0500000</ele>
        <time>2010-09-27T10:19:04Z</time>
      </trkpt>
      <trkpt lat="46.1580560" lon="12.4631990">
        <ele>1370.0200000</ele>
        <time>2010-09-27T10:19:10Z</time>
      </trkpt>
      <trkpt lat="46.1580290" lon="12.4632400">
        <ele>1370.0200000</ele>
        <time>2010-09-27T10:19:16Z</time>
      </trkpt>
      <trkpt lat="46.1580170" lon="12.4632690">
        <ele>1370.9800000</ele>
        <time>2010-09-27T10:19:22Z</time>
      </trkpt>
      <trkpt lat="46.1580070" lon="12.4633080">
        <ele>1370.9800000</ele>
        <time>2010-09-27T10:19:27Z</time>
      </trkpt>
      <trkpt lat="46.1579850" lon="12.4633820">
        <ele>1371.9400000</ele>
        <time>2010-09-27T10:19:32Z</time>
      </trkpt>
      <trkpt lat="46.1579660" lon="12.4634470">
        <ele>1372.9000000</ele>
        <time>2010-09-27T10:19:38Z</time>
      </trkpt>
      <trkpt lat="46.1579650" lon="12.4634580">
        <ele>1373.3800000</ele>
        <time>2010-09-27T10:19:39Z</time>
      </trkpt>
      <trkpt lat="46.1579630" lon="12.4635100">
        <ele>1372.9000000</ele>
        <time>2010-09-27T10:19:42Z</time>
      </trkpt>
      <trkpt lat="46.1579660" lon="12.4635950">
        <ele>1373.3800000</ele>
        <time>2010-09-27T10:19:49Z</time>
      </trkpt>
      <trkpt lat="46.1579670" lon="12.4636080">
        <ele>1373.3800000</ele>
        <time>2010-09-27T10:19:50Z</time>
      </trkpt>
      <trkpt lat="46.1579630" lon="12.4636780">
        <ele>1374.3400000</ele>
        <time>2010-09-27T10:19:56Z</time>
      </trkpt>
      <trkpt lat="46.1579620" lon="12.4637150">
        <ele>1374.8200000</ele>
        <time>2010-09-27T10:20:00Z</time>
      </trkpt>
      <trkpt lat="46.1579620" lon="12.4637570">
        <ele>1375.3000000</ele>
        <time>2010-09-27T10:20:04Z</time>
      </trkpt>
      <trkpt lat="46.1579590" lon="12.4638070">
        <ele>1375.7800000</ele>
        <time>2010-09-27T10:20:09Z</time>
      </trkpt>
      <trkpt lat="46.1579440" lon="12.4638710">
        <ele>1375.7800000</ele>
        <time>2010-09-27T10:20:14Z</time>
      </trkpt>
      <trkpt lat="46.1579230" lon="12.4639340">
        <ele>1376.2600000</ele>
        <time>2010-09-27T10:20:21Z</time>
      </trkpt>
      <trkpt lat="46.1578900" lon="12.4640190">
        <ele>1377.2300000</ele>
        <time>2010-09-27T10:20:28Z</time>
      </trkpt>
      <trkpt lat="46.1578620" lon="12.4640940">
        <ele>1377.7100000</ele>
        <time>2010-09-27T10:20:34Z</time>
      </trkpt>
      <trkpt lat="46.1578570" lon="12.4641140">
        <ele>1378.1900000</ele>
        <time>2010-09-27T10:20:35Z</time>
      </trkpt>
      <trkpt lat="46.1578460" lon="12.4641500">
        <ele>1377.7100000</ele>
        <time>2010-09-27T10:20:38Z</time>
      </trkpt>
      <trkpt lat="46.1578310" lon="12.4642300">
        <ele>1378.1900000</ele>
        <time>2010-09-27T10:20:45Z</time>
      </trkpt>
      <trkpt lat="46.1578000" lon="12.4643070">
        <ele>1378.1900000</ele>
        <time>2010-09-27T10:20:52Z</time>
      </trkpt>
      <trkpt lat="46.1577680" lon="12.4643590">
        <ele>1378.6700000</ele>
        <time>2010-09-27T10:20:58Z</time>
      </trkpt>
      <trkpt lat="46.1577210" lon="12.4644260">
        <ele>1379.1500000</ele>
        <time>2010-09-27T10:21:04Z</time>
      </trkpt>
      <trkpt lat="46.1577030" lon="12.4645040">
        <ele>1379.1500000</ele>
        <time>2010-09-27T10:21:08Z</time>
      </trkpt>
      <trkpt lat="46.1576850" lon="12.4645960">
        <ele>1379.1500000</ele>
        <time>2010-09-27T10:21:14Z</time>
      </trkpt>
      <trkpt lat="46.1576820" lon="12.4646400">
        <ele>1379.1500000</ele>
        <time>2010-09-27T10:21:18Z</time>
      </trkpt>
      <trkpt lat="46.1576400" lon="12.4647550">
        <ele>1379.1500000</ele>
        <time>2010-09-27T10:21:25Z</time>
      </trkpt>
      <trkpt lat="46.1576220" lon="12.4648110">
        <ele>1379.6300000</ele>
        <time>2010-09-27T10:21:31Z</time>
      </trkpt>
      <trkpt lat="46.1576240" lon="12.4648660">
        <ele>1379.1500000</ele>
        <time>2010-09-27T10:21:36Z</time>
      </trkpt>
      <trkpt lat="46.1575890" lon="12.4649570">
        <ele>1378.6700000</ele>
        <time>2010-09-27T10:21:42Z</time>
      </trkpt>
      <trkpt lat="46.1575600" lon="12.4650550">
        <ele>1378.6700000</ele>
        <time>2010-09-27T10:21:49Z</time>
      </trkpt>
      <trkpt lat="46.1575600" lon="12.4650690">
        <ele>1378.6700000</ele>
        <time>2010-09-27T10:21:50Z</time>
      </trkpt>
      <trkpt lat="46.1575660" lon="12.4651980">
        <ele>1378.6700000</ele>
        <time>2010-09-27T10:21:57Z</time>
      </trkpt>
      <trkpt lat="46.1575700" lon="12.4653170">
        <ele>1378.6700000</ele>
        <time>2010-09-27T10:22:04Z</time>
      </trkpt>
      <trkpt lat="46.1575700" lon="12.4653170">
        <ele>1379.1500000</ele>
        <time>2010-09-27T10:22:05Z</time>
      </trkpt>
      <trkpt lat="46.1575660" lon="12.4654290">
        <ele>1378.6700000</ele>
        <time>2010-09-27T10:22:11Z</time>
      </trkpt>
      <trkpt lat="46.1575770" lon="12.4654850">
        <ele>1378.6700000</ele>
        <time>2010-09-27T10:22:16Z</time>
      </trkpt>
      <trkpt lat="46.1575830" lon="12.4654850">
        <ele>1378.1900000</ele>
        <time>2010-09-27T10:22:30Z</time>
      </trkpt>
      <trkpt lat="46.1575820" lon="12.4654830">
        <ele>1378.1900000</ele>
        <time>2010-09-27T10:22:31Z</time>
      </trkpt>
      <trkpt lat="46.1575590" lon="12.4655040">
        <ele>1378.6700000</ele>
        <time>2010-09-27T10:22:39Z</time>
      </trkpt>
      <trkpt lat="46.1575520" lon="12.4655150">
        <ele>1378.1900000</ele>
        <time>2010-09-27T10:24:13Z</time>
      </trkpt>
      <trkpt lat="46.1575470" lon="12.4655770">
        <ele>1378.1900000</ele>
        <time>2010-09-27T10:24:18Z</time>
      </trkpt>
      <trkpt lat="46.1575440" lon="12.4656790">
        <ele>1378.6700000</ele>
        <time>2010-09-27T10:24:23Z</time>
      </trkpt>
      <trkpt lat="46.1575400" lon="12.4657010">
        <ele>1378.1900000</ele>
        <time>2010-09-27T10:24:24Z</time>
      </trkpt>
      <trkpt lat="46.1576210" lon="12.4657180">
        <ele>1378.6700000</ele>
        <time>2010-09-27T10:24:26Z</time>
      </trkpt>
      <trkpt lat="46.1576210" lon="12.4658150">
        <ele>1378.1900000</ele>
        <time>2010-09-27T10:24:32Z</time>
      </trkpt>
      <trkpt lat="46.1575970" lon="12.4658790">
        <ele>1377.2300000</ele>
        <time>2010-09-27T10:24:37Z</time>
      </trkpt>
      <trkpt lat="46.1575930" lon="12.4659520">
        <ele>1377.7100000</ele>
        <time>2010-09-27T10:24:42Z</time>
      </trkpt>
      <trkpt lat="46.1575870" lon="12.4660350">
        <ele>1377.2300000</ele>
        <time>2010-09-27T10:24:48Z</time>
      </trkpt>
      <trkpt lat="46.1575830" lon="12.4660570">
        <ele>1377.7100000</ele>
        <time>2010-09-27T10:24:50Z</time>
      </trkpt>
      <trkpt lat="46.1575520" lon="12.4661360">
        <ele>1376.7500000</ele>
        <time>2010-09-27T10:24:57Z</time>
      </trkpt>
      <trkpt lat="46.1575520" lon="12.4661950">
        <ele>1377.2300000</ele>
        <time>2010-09-27T10:25:03Z</time>
      </trkpt>
      <trkpt lat="46.1575280" lon="12.4663210">
        <ele>1377.2300000</ele>
        <time>2010-09-27T10:25:10Z</time>
      </trkpt>
      <trkpt lat="46.1574860" lon="12.4664280">
        <ele>1377.7100000</ele>
        <time>2010-09-27T10:25:16Z</time>
      </trkpt>
      <trkpt lat="46.1574820" lon="12.4664340">
        <ele>1377.7100000</ele>
        <time>2010-09-27T10:25:17Z</time>
      </trkpt>
      <trkpt lat="46.1574470" lon="12.4664910">
        <ele>1378.6700000</ele>
        <time>2010-09-27T10:25:24Z</time>
      </trkpt>
      <trkpt lat="46.1574310" lon="12.4665690">
        <ele>1379.1500000</ele>
        <time>2010-09-27T10:25:30Z</time>
      </trkpt>
      <trkpt lat="46.1574090" lon="12.4666390">
        <ele>1380.1100000</ele>
        <time>2010-09-27T10:25:35Z</time>
      </trkpt>
      <trkpt lat="46.1574130" lon="12.4666960">
        <ele>1381.0700000</ele>
        <time>2010-09-27T10:25:41Z</time>
      </trkpt>
      <trkpt lat="46.1574020" lon="12.4667680">
        <ele>1381.0700000</ele>
        <time>2010-09-27T10:25:46Z</time>
      </trkpt>
      <trkpt lat="46.1573970" lon="12.4667990">
        <ele>1381.5500000</ele>
        <time>2010-09-27T10:25:49Z</time>
      </trkpt>
      <trkpt lat="46.1573880" lon="12.4668380">
        <ele>1382.0300000</ele>
        <time>2010-09-27T10:25:53Z</time>
      </trkpt>
      <trkpt lat="46.1573750" lon="12.4669090">
        <ele>1382.9900000</ele>
        <time>2010-09-27T10:25:59Z</time>
      </trkpt>
      <trkpt lat="46.1573680" lon="12.4669820">
        <ele>1383.4700000</ele>
        <time>2010-09-27T10:26:05Z</time>
      </trkpt>
      <trkpt lat="46.1573440" lon="12.4670590">
        <ele>1383.9600000</ele>
        <time>2010-09-27T10:26:10Z</time>
      </trkpt>
      <trkpt lat="46.1573260" lon="12.4671310">
        <ele>1384.4400000</ele>
        <time>2010-09-27T10:26:15Z</time>
      </trkpt>
      <trkpt lat="46.1573090" lon="12.4672180">
        <ele>1384.4400000</ele>
        <time>2010-09-27T10:26:21Z</time>
      </trkpt>
      <trkpt lat="46.1572800" lon="12.4672770">
        <ele>1385.4000000</ele>
        <time>2010-09-27T10:26:26Z</time>
      </trkpt>
      <trkpt lat="46.1572790" lon="12.4672850">
        <ele>1384.9200000</ele>
        <time>2010-09-27T10:26:27Z</time>
      </trkpt>
      <trkpt lat="46.1572650" lon="12.4673680">
        <ele>1385.8800000</ele>
        <time>2010-09-27T10:26:34Z</time>
      </trkpt>
      <trkpt lat="46.1572640" lon="12.4673920">
        <ele>1385.8800000</ele>
        <time>2010-09-27T10:26:39Z</time>
      </trkpt>
      <trkpt lat="46.1572640" lon="12.4673920">
        <ele>1386.3600000</ele>
        <time>2010-09-27T10:26:42Z</time>
      </trkpt>
      <trkpt lat="46.1572470" lon="12.4674820">
        <ele>1387.8000000</ele>
        <time>2010-09-27T10:26:49Z</time>
      </trkpt>
      <trkpt lat="46.1572420" lon="12.4675330">
        <ele>1386.3600000</ele>
        <time>2010-09-27T10:26:52Z</time>
      </trkpt>
      <trkpt lat="46.1572190" lon="12.4676120">
        <ele>1386.8400000</ele>
        <time>2010-09-27T10:26:58Z</time>
      </trkpt>
      <trkpt lat="46.1572160" lon="12.4676380">
        <ele>1386.8400000</ele>
        <time>2010-09-27T10:27:00Z</time>
      </trkpt>
      <trkpt lat="46.1572110" lon="12.4677320">
        <ele>1387.8000000</ele>
        <time>2010-09-27T10:27:06Z</time>
      </trkpt>
      <trkpt lat="46.1571880" lon="12.4678000">
        <ele>1387.3200000</ele>
        <time>2010-09-27T10:27:11Z</time>
      </trkpt>
      <trkpt lat="46.1571770" lon="12.4678480">
        <ele>1387.3200000</ele>
        <time>2010-09-27T10:27:14Z</time>
      </trkpt>
      <trkpt lat="46.1571560" lon="12.4679410">
        <ele>1388.2800000</ele>
        <time>2010-09-27T10:27:20Z</time>
      </trkpt>
      <trkpt lat="46.1571340" lon="12.4680200">
        <ele>1388.7600000</ele>
        <time>2010-09-27T10:27:26Z</time>
      </trkpt>
      <trkpt lat="46.1571170" lon="12.4680850">
        <ele>1389.2400000</ele>
        <time>2010-09-27T10:27:32Z</time>
      </trkpt>
      <trkpt lat="46.1570860" lon="12.4681280">
        <ele>1390.2000000</ele>
        <time>2010-09-27T10:27:38Z</time>
      </trkpt>
      <trkpt lat="46.1570460" lon="12.4681820">
        <ele>1390.6800000</ele>
        <time>2010-09-27T10:27:43Z</time>
      </trkpt>
      <trkpt lat="46.1569740" lon="12.4682120">
        <ele>1390.2000000</ele>
        <time>2010-09-27T10:27:50Z</time>
      </trkpt>
      <trkpt lat="46.1570110" lon="12.4682230">
        <ele>1390.2000000</ele>
        <time>2010-09-27T10:28:13Z</time>
      </trkpt>
      <trkpt lat="46.1570590" lon="12.4682660">
        <ele>1390.2000000</ele>
        <time>2010-09-27T10:28:18Z</time>
      </trkpt>
      <trkpt lat="46.1570530" lon="12.4682930">
        <ele>1389.7200000</ele>
        <time>2010-09-27T10:28:25Z</time>
      </trkpt>
      <trkpt lat="46.1570710" lon="12.4682880">
        <ele>1390.2000000</ele>
        <time>2010-09-27T10:28:37Z</time>
      </trkpt>
      <trkpt lat="46.1570800" lon="12.4682820">
        <ele>1390.2000000</ele>
        <time>2010-09-27T10:28:38Z</time>
      </trkpt>
      <trkpt lat="46.1571010" lon="12.4682420">
        <ele>1390.6800000</ele>
        <time>2010-09-27T10:28:41Z</time>
      </trkpt>
      <trkpt lat="46.1570720" lon="12.4682080">
        <ele>1390.6800000</ele>
        <time>2010-09-27T10:28:47Z</time>
      </trkpt>
      <trkpt lat="46.1570390" lon="12.4682630">
        <ele>1390.2000000</ele>
        <time>2010-09-27T10:28:55Z</time>
      </trkpt>
      <trkpt lat="46.1571090" lon="12.4681130">
        <ele>1390.6800000</ele>
        <time>2010-09-27T10:33:05Z</time>
      </trkpt>
      <trkpt lat="46.1571070" lon="12.4681050">
        <ele>1390.6800000</ele>
        <time>2010-09-27T10:33:06Z</time>
      </trkpt>
      <trkpt lat="46.1570740" lon="12.4680810">
        <ele>1390.6800000</ele>
        <time>2010-09-27T10:33:09Z</time>
      </trkpt>
      <trkpt lat="46.1570450" lon="12.4680830">
        <ele>1391.1700000</ele>
        <time>2010-09-27T10:33:16Z</time>
      </trkpt>
      <trkpt lat="46.1570080" lon="12.4680080">
        <ele>1391.6500000</ele>
        <time>2010-09-27T10:33:23Z</time>
      </trkpt>
      <trkpt lat="46.1569830" lon="12.4679620">
        <ele>1390.6800000</ele>
        <time>2010-09-27T10:33:28Z</time>
      </trkpt>
      <trkpt lat="46.1569440" lon="12.4679200">
        <ele>1391.1700000</ele>
        <time>2010-09-27T10:33:35Z</time>
      </trkpt>
      <trkpt lat="46.1569400" lon="12.4679230">
        <ele>1390.6800000</ele>
        <time>2010-09-27T10:33:54Z</time>
      </trkpt>
      <trkpt lat="46.1569360" lon="12.4679240">
        <ele>1390.2000000</ele>
        <time>2010-09-27T10:34:03Z</time>
      </trkpt>
      <trkpt lat="46.1569160" lon="12.4678950">
        <ele>1391.1700000</ele>
        <time>2010-09-27T10:36:55Z</time>
      </trkpt>
      <trkpt lat="46.1569190" lon="12.4678900">
        <ele>1391.6500000</ele>
        <time>2010-09-27T10:37:12Z</time>
      </trkpt>
      <trkpt lat="46.1569160" lon="12.4678850">
        <ele>1390.6800000</ele>
        <time>2010-09-27T10:37:46Z</time>
      </trkpt>
      <trkpt lat="46.1569420" lon="12.4679070">
        <ele>1391.1700000</ele>
        <time>2010-09-27T10:37:53Z</time>
      </trkpt>
      <trkpt lat="46.1569600" lon="12.4679970">
        <ele>1390.6800000</ele>
        <time>2010-09-27T10:37:57Z</time>
      </trkpt>
      <trkpt lat="46.1570050" lon="12.4680530">
        <ele>1390.6800000</ele>
        <time>2010-09-27T10:38:03Z</time>
      </trkpt>
      <trkpt lat="46.1570140" lon="12.4680550">
        <ele>1391.1700000</ele>
        <time>2010-09-27T10:38:04Z</time>
      </trkpt>
      <trkpt lat="46.1570360" lon="12.4680640">
        <ele>1391.1700000</ele>
        <time>2010-09-27T10:38:06Z</time>
      </trkpt>
      <trkpt lat="46.1570660" lon="12.4681350">
        <ele>1390.6800000</ele>
        <time>2010-09-27T10:38:11Z</time>
      </trkpt>
      <trkpt lat="46.1570910" lon="12.4681770">
        <ele>1390.6800000</ele>
        <time>2010-09-27T10:38:17Z</time>
      </trkpt>
      <trkpt lat="46.1571200" lon="12.4681650">
        <ele>1391.1700000</ele>
        <time>2010-09-27T10:38:24Z</time>
      </trkpt>
      <trkpt lat="46.1571120" lon="12.4681300">
        <ele>1394.0500000</ele>
        <time>2010-09-27T10:51:08Z</time>
      </trkpt>
      <trkpt lat="46.1571270" lon="12.4682090">
        <ele>1393.0900000</ele>
        <time>2010-09-27T10:53:51Z</time>
      </trkpt>
      <trkpt lat="46.1571340" lon="12.4681970">
        <ele>1393.5700000</ele>
        <time>2010-09-27T10:54:01Z</time>
      </trkpt>
      <trkpt lat="46.1571310" lon="12.4681820">
        <ele>1393.5700000</ele>
        <time>2010-09-27T10:54:04Z</time>
      </trkpt>
      <trkpt lat="46.1570920" lon="12.4681740">
        <ele>1393.5700000</ele>
        <time>2010-09-27T10:54:10Z</time>
      </trkpt>
      <trkpt lat="46.1570860" lon="12.4681770">
        <ele>1394.0500000</ele>
        <time>2010-09-27T10:54:22Z</time>
      </trkpt>
      <trkpt lat="46.1570860" lon="12.4681770">
        <ele>1394.0500000</ele>
        <time>2010-09-27T10:54:47Z</time>
      </trkpt>
      <trkpt lat="46.1570790" lon="12.4682310">
        <ele>1393.5700000</ele>
        <time>2010-09-27T10:57:13Z</time>
      </trkpt>
      <trkpt lat="46.1570900" lon="12.4682300">
        <ele>1392.6100000</ele>
        <time>2010-09-27T10:57:14Z</time>
      </trkpt>
      <trkpt lat="46.1571150" lon="12.4682450">
        <ele>1393.0900000</ele>
        <time>2010-09-27T10:57:21Z</time>
      </trkpt>
      <trkpt lat="46.1571150" lon="12.4682810">
        <ele>1392.6100000</ele>
        <time>2010-09-27T10:57:24Z</time>
      </trkpt>
      <trkpt lat="46.1571250" lon="12.4683180">
        <ele>1393.0900000</ele>
        <time>2010-09-27T10:57:30Z</time>
      </trkpt>
      <trkpt lat="46.1571250" lon="12.4683180">
        <ele>1393.0900000</ele>
        <time>2010-09-27T10:57:34Z</time>
      </trkpt>
      <trkpt lat="46.1571550" lon="12.4682780">
        <ele>1392.6100000</ele>
        <time>2010-09-27T10:57:40Z</time>
      </trkpt>
      <trkpt lat="46.1571650" lon="12.4681870">
        <ele>1392.6100000</ele>
        <time>2010-09-27T10:57:46Z</time>
      </trkpt>
      <trkpt lat="46.1571250" lon="12.4681840">
        <ele>1393.0900000</ele>
        <time>2010-09-27T10:57:53Z</time>
      </trkpt>
      <trkpt lat="46.1571670" lon="12.4682470">
        <ele>1393.0900000</ele>
        <time>2010-09-27T11:02:40Z</time>
      </trkpt>
      <trkpt lat="46.1571520" lon="12.4682400">
        <ele>1392.6100000</ele>
        <time>2010-09-27T11:02:44Z</time>
      </trkpt>
      <trkpt lat="46.1571330" lon="12.4682950">
        <ele>1392.6100000</ele>
        <time>2010-09-27T11:02:51Z</time>
      </trkpt>
      <trkpt lat="46.1571240" lon="12.4684190">
        <ele>1393.0900000</ele>
        <time>2010-09-27T11:02:58Z</time>
      </trkpt>
      <trkpt lat="46.1571270" lon="12.4684300">
        <ele>1393.0900000</ele>
        <time>2010-09-27T11:02:59Z</time>
      </trkpt>
      <trkpt lat="46.1571100" lon="12.4685220">
        <ele>1393.0900000</ele>
        <time>2010-09-27T11:03:04Z</time>
      </trkpt>
      <trkpt lat="46.1571280" lon="12.4686500">
        <ele>1393.0900000</ele>
        <time>2010-09-27T11:03:11Z</time>
      </trkpt>
      <trkpt lat="46.1571390" lon="12.4687300">
        <ele>1391.6500000</ele>
        <time>2010-09-27T11:03:16Z</time>
      </trkpt>
      <trkpt lat="46.1571330" lon="12.4688340">
        <ele>1391.6500000</ele>
        <time>2010-09-27T11:03:22Z</time>
      </trkpt>
      <trkpt lat="46.1571400" lon="12.4689440">
        <ele>1390.6800000</ele>
        <time>2010-09-27T11:03:28Z</time>
      </trkpt>
      <trkpt lat="46.1571460" lon="12.4689760">
        <ele>1390.6800000</ele>
        <time>2010-09-27T11:03:30Z</time>
      </trkpt>
      <trkpt lat="46.1571910" lon="12.4691050">
        <ele>1390.2000000</ele>
        <time>2010-09-27T11:03:36Z</time>
      </trkpt>
      <trkpt lat="46.1571900" lon="12.4691710">
        <ele>1389.7200000</ele>
        <time>2010-09-27T11:03:42Z</time>
      </trkpt>
      <trkpt lat="46.1572010" lon="12.4692490">
        <ele>1389.7200000</ele>
        <time>2010-09-27T11:03:48Z</time>
      </trkpt>
      <trkpt lat="46.1571900" lon="12.4693030">
        <ele>1389.7200000</ele>
        <time>2010-09-27T11:03:51Z</time>
      </trkpt>
      <trkpt lat="46.1571710" lon="12.4694170">
        <ele>1389.2400000</ele>
        <time>2010-09-27T11:03:58Z</time>
      </trkpt>
      <trkpt lat="46.1571620" lon="12.4695070">
        <ele>1388.7600000</ele>
        <time>2010-09-27T11:04:05Z</time>
      </trkpt>
      <trkpt lat="46.1571490" lon="12.4696230">
        <ele>1387.3200000</ele>
        <time>2010-09-27T11:04:12Z</time>
      </trkpt>
      <trkpt lat="46.1570850" lon="12.4697550">
        <ele>1387.3200000</ele>
        <time>2010-09-27T11:04:18Z</time>
      </trkpt>
      <trkpt lat="46.1570680" lon="12.4697840">
        <ele>1386.8400000</ele>
        <time>2010-09-27T11:04:22Z</time>
      </trkpt>
      <trkpt lat="46.1570600" lon="12.4698250">
        <ele>1386.3600000</ele>
        <time>2010-09-27T11:04:25Z</time>
      </trkpt>
      <trkpt lat="46.1570110" lon="12.4699420">
        <ele>1386.3600000</ele>
        <time>2010-09-27T11:04:32Z</time>
      </trkpt>
      <trkpt lat="46.1570080" lon="12.4699750">
        <ele>1386.3600000</ele>
        <time>2010-09-27T11:04:34Z</time>
      </trkpt>
      <trkpt lat="46.1569860" lon="12.4700830">
        <ele>1386.3600000</ele>
        <time>2010-09-27T11:04:39Z</time>
      </trkpt>
      <trkpt lat="46.1569390" lon="12.4701810">
        <ele>1386.8400000</ele>
        <time>2010-09-27T11:04:47Z</time>
      </trkpt>
      <trkpt lat="46.1569260" lon="12.4702370">
        <ele>1386.8400000</ele>
        <time>2010-09-27T11:04:53Z</time>
      </trkpt>
      <trkpt lat="46.1569280" lon="12.4703100">
        <ele>1387.3200000</ele>
        <time>2010-09-27T11:04:58Z</time>
      </trkpt>
      <trkpt lat="46.1568860" lon="12.4703920">
        <ele>1386.8400000</ele>
        <time>2010-09-27T11:05:04Z</time>
      </trkpt>
      <trkpt lat="46.1568690" lon="12.4704160">
        <ele>1387.3200000</ele>
        <time>2010-09-27T11:05:06Z</time>
      </trkpt>
      <trkpt lat="46.1568050" lon="12.4704610">
        <ele>1387.3200000</ele>
        <time>2010-09-27T11:05:10Z</time>
      </trkpt>
      <trkpt lat="46.1567510" lon="12.4705140">
        <ele>1387.8000000</ele>
        <time>2010-09-27T11:05:15Z</time>
      </trkpt>
      <trkpt lat="46.1567070" lon="12.4705760">
        <ele>1387.8000000</ele>
        <time>2010-09-27T11:05:20Z</time>
      </trkpt>
      <trkpt lat="46.1566440" lon="12.4706990">
        <ele>1388.2800000</ele>
        <time>2010-09-27T11:05:27Z</time>
      </trkpt>
      <trkpt lat="46.1566280" lon="12.4707710">
        <ele>1388.2800000</ele>
        <time>2010-09-27T11:05:32Z</time>
      </trkpt>
      <trkpt lat="46.1566130" lon="12.4708290">
        <ele>1388.2800000</ele>
        <time>2010-09-27T11:05:37Z</time>
      </trkpt>
      <trkpt lat="46.1565700" lon="12.4709170">
        <ele>1388.2800000</ele>
        <time>2010-09-27T11:05:42Z</time>
      </trkpt>
      <trkpt lat="46.1565350" lon="12.4709580">
        <ele>1388.2800000</ele>
        <time>2010-09-27T11:05:46Z</time>
      </trkpt>
      <trkpt lat="46.1564920" lon="12.4710060">
        <ele>1389.7200000</ele>
        <time>2010-09-27T11:05:52Z</time>
      </trkpt>
      <trkpt lat="46.1564550" lon="12.4710690">
        <ele>1389.7200000</ele>
        <time>2010-09-27T11:05:58Z</time>
      </trkpt>
      <trkpt lat="46.1564090" lon="12.4711580">
        <ele>1389.7200000</ele>
        <time>2010-09-27T11:06:05Z</time>
      </trkpt>
      <trkpt lat="46.1563930" lon="12.4711820">
        <ele>1389.7200000</ele>
        <time>2010-09-27T11:06:07Z</time>
      </trkpt>
      <trkpt lat="46.1563700" lon="12.4712130">
        <ele>1390.6800000</ele>
        <time>2010-09-27T11:06:11Z</time>
      </trkpt>
      <trkpt lat="46.1563620" lon="12.4713410">
        <ele>1390.6800000</ele>
        <time>2010-09-27T11:06:18Z</time>
      </trkpt>
      <trkpt lat="46.1563540" lon="12.4714120">
        <ele>1392.1300000</ele>
        <time>2010-09-27T11:06:23Z</time>
      </trkpt>
      <trkpt lat="46.1563420" lon="12.4714780">
        <ele>1392.1300000</ele>
        <time>2010-09-27T11:06:28Z</time>
      </trkpt>
      <trkpt lat="46.1563380" lon="12.4714940">
        <ele>1392.6100000</ele>
        <time>2010-09-27T11:06:30Z</time>
      </trkpt>
      <trkpt lat="46.1563160" lon="12.4715730">
        <ele>1392.6100000</ele>
        <time>2010-09-27T11:06:37Z</time>
      </trkpt>
      <trkpt lat="46.1562990" lon="12.4715990">
        <ele>1393.5700000</ele>
        <time>2010-09-27T11:06:40Z</time>
      </trkpt>
      <trkpt lat="46.1562610" lon="12.4716940">
        <ele>1393.5700000</ele>
        <time>2010-09-27T11:06:46Z</time>
      </trkpt>
      <trkpt lat="46.1562560" lon="12.4717650">
        <ele>1394.0500000</ele>
        <time>2010-09-27T11:06:52Z</time>
      </trkpt>
      <trkpt lat="46.1562470" lon="12.4717960">
        <ele>1395.0100000</ele>
        <time>2010-09-27T11:06:54Z</time>
      </trkpt>
      <trkpt lat="46.1561970" lon="12.4718610">
        <ele>1395.0100000</ele>
        <time>2010-09-27T11:06:59Z</time>
      </trkpt>
      <trkpt lat="46.1561940" lon="12.4718690">
        <ele>1395.4900000</ele>
        <time>2010-09-27T11:07:00Z</time>
      </trkpt>
      <trkpt lat="46.1561950" lon="12.4719070">
        <ele>1395.9700000</ele>
        <time>2010-09-27T11:07:03Z</time>
      </trkpt>
      <trkpt lat="46.1561650" lon="12.4719530">
        <ele>1396.9300000</ele>
        <time>2010-09-27T11:07:10Z</time>
      </trkpt>
      <trkpt lat="46.1561580" lon="12.4720110">
        <ele>1397.4100000</ele>
        <time>2010-09-27T11:07:15Z</time>
      </trkpt>
      <trkpt lat="46.1561500" lon="12.4720440">
        <ele>1397.4100000</ele>
        <time>2010-09-27T11:07:18Z</time>
      </trkpt>
      <trkpt lat="46.1561320" lon="12.4720800">
        <ele>1398.3700000</ele>
        <time>2010-09-27T11:07:24Z</time>
      </trkpt>
      <trkpt lat="46.1561130" lon="12.4721220">
        <ele>1398.8600000</ele>
        <time>2010-09-27T11:07:30Z</time>
      </trkpt>
      <trkpt lat="46.1560920" lon="12.4721750">
        <ele>1399.8200000</ele>
        <time>2010-09-27T11:07:37Z</time>
      </trkpt>
      <trkpt lat="46.1560850" lon="12.4722510">
        <ele>1399.8200000</ele>
        <time>2010-09-27T11:07:43Z</time>
      </trkpt>
      <trkpt lat="46.1560790" lon="12.4722830">
        <ele>1401.2600000</ele>
        <time>2010-09-27T11:07:47Z</time>
      </trkpt>
      <trkpt lat="46.1560700" lon="12.4723130">
        <ele>1401.2600000</ele>
        <time>2010-09-27T11:07:50Z</time>
      </trkpt>
      <trkpt lat="46.1560550" lon="12.4723700">
        <ele>1402.2200000</ele>
        <time>2010-09-27T11:07:55Z</time>
      </trkpt>
      <trkpt lat="46.1560410" lon="12.4724170">
        <ele>1402.7000000</ele>
        <time>2010-09-27T11:08:00Z</time>
      </trkpt>
      <trkpt lat="46.1560170" lon="12.4724530">
        <ele>1403.6600000</ele>
        <time>2010-09-27T11:08:05Z</time>
      </trkpt>
      <trkpt lat="46.1560090" lon="12.4724850">
        <ele>1404.1400000</ele>
        <time>2010-09-27T11:08:11Z</time>
      </trkpt>
      <trkpt lat="46.1560100" lon="12.4725050">
        <ele>1404.1400000</ele>
        <time>2010-09-27T11:08:15Z</time>
      </trkpt>
      <trkpt lat="46.1560040" lon="12.4725250">
        <ele>1404.6200000</ele>
        <time>2010-09-27T11:08:19Z</time>
      </trkpt>
      <trkpt lat="46.1559820" lon="12.4725700">
        <ele>1405.5800000</ele>
        <time>2010-09-27T11:08:25Z</time>
      </trkpt>
      <trkpt lat="46.1559760" lon="12.4726110">
        <ele>1406.0700000</ele>
        <time>2010-09-27T11:08:30Z</time>
      </trkpt>
      <trkpt lat="46.1559680" lon="12.4726560">
        <ele>1407.0300000</ele>
        <time>2010-09-27T11:08:37Z</time>
      </trkpt>
      <trkpt lat="46.1559480" lon="12.4726950">
        <ele>1407.0300000</ele>
        <time>2010-09-27T11:08:41Z</time>
      </trkpt>
      <trkpt lat="46.1559170" lon="12.4727350">
        <ele>1407.5100000</ele>
        <time>2010-09-27T11:08:46Z</time>
      </trkpt>
      <trkpt lat="46.1558930" lon="12.4728240">
        <ele>1408.9500000</ele>
        <time>2010-09-27T11:08:53Z</time>
      </trkpt>
      <trkpt lat="46.1558930" lon="12.4728900">
        <ele>1409.9100000</ele>
        <time>2010-09-27T11:09:03Z</time>
      </trkpt>
      <trkpt lat="46.1558670" lon="12.4729420">
        <ele>1410.3900000</ele>
        <time>2010-09-27T11:09:09Z</time>
      </trkpt>
      <trkpt lat="46.1558650" lon="12.4729630">
        <ele>1410.8700000</ele>
        <time>2010-09-27T11:09:14Z</time>
      </trkpt>
      <trkpt lat="46.1558450" lon="12.4730030">
        <ele>1411.3500000</ele>
        <time>2010-09-27T11:09:18Z</time>
      </trkpt>
      <trkpt lat="46.1558170" lon="12.4730250">
        <ele>1411.8300000</ele>
        <time>2010-09-27T11:09:23Z</time>
      </trkpt>
      <trkpt lat="46.1557920" lon="12.4730540">
        <ele>1413.7600000</ele>
        <time>2010-09-27T11:09:27Z</time>
      </trkpt>
      <trkpt lat="46.1557690" lon="12.4730830">
        <ele>1413.2800000</ele>
        <time>2010-09-27T11:09:31Z</time>
      </trkpt>
      <trkpt lat="46.1557510" lon="12.4731020">
        <ele>1412.7900000</ele>
        <time>2010-09-27T11:09:35Z</time>
      </trkpt>
      <trkpt lat="46.1557510" lon="12.4731390">
        <ele>1414.2400000</ele>
        <time>2010-09-27T11:09:38Z</time>
      </trkpt>
      <trkpt lat="46.1557330" lon="12.4731670">
        <ele>1413.7600000</ele>
        <time>2010-09-27T11:09:43Z</time>
      </trkpt>
      <trkpt lat="46.1557040" lon="12.4732180">
        <ele>1414.2400000</ele>
        <time>2010-09-27T11:09:49Z</time>
      </trkpt>
      <trkpt lat="46.1556840" lon="12.4732470">
        <ele>1415.2000000</ele>
        <time>2010-09-27T11:09:54Z</time>
      </trkpt>
      <trkpt lat="46.1556680" lon="12.4732720">
        <ele>1415.6800000</ele>
        <time>2010-09-27T11:09:59Z</time>
      </trkpt>
      <trkpt lat="46.1556590" lon="12.4733100">
        <ele>1415.6800000</ele>
        <time>2010-09-27T11:10:02Z</time>
      </trkpt>
      <trkpt lat="46.1556410" lon="12.4733700">
        <ele>1416.6400000</ele>
        <time>2010-09-27T11:10:07Z</time>
      </trkpt>
      <trkpt lat="46.1556420" lon="12.4734380">
        <ele>1417.1200000</ele>
        <time>2010-09-27T11:10:12Z</time>
      </trkpt>
      <trkpt lat="46.1556460" lon="12.4735570">
        <ele>1418.5600000</ele>
        <time>2010-09-27T11:10:24Z</time>
      </trkpt>
      <trkpt lat="46.1556440" lon="12.4735990">
        <ele>1418.5600000</ele>
        <time>2010-09-27T11:10:27Z</time>
      </trkpt>
      <trkpt lat="46.1556440" lon="12.4736610">
        <ele>1419.5200000</ele>
        <time>2010-09-27T11:10:32Z</time>
      </trkpt>
      <trkpt lat="46.1556540" lon="12.4736840">
        <ele>1419.5200000</ele>
        <time>2010-09-27T11:10:35Z</time>
      </trkpt>
      <trkpt lat="46.1556110" lon="12.4737210">
        <ele>1419.5200000</ele>
        <time>2010-09-27T11:10:41Z</time>
      </trkpt>
      <trkpt lat="46.1556050" lon="12.4737250">
        <ele>1418.5600000</ele>
        <time>2010-09-27T11:10:47Z</time>
      </trkpt>
      <trkpt lat="46.1555460" lon="12.4737640">
        <ele>1419.0400000</ele>
        <time>2010-09-27T11:10:51Z</time>
      </trkpt>
      <trkpt lat="46.1555020" lon="12.4738320">
        <ele>1419.0400000</ele>
        <time>2010-09-27T11:10:57Z</time>
      </trkpt>
      <trkpt lat="46.1554370" lon="12.4738910">
        <ele>1420.0000000</ele>
        <time>2010-09-27T11:11:02Z</time>
      </trkpt>
      <trkpt lat="46.1554350" lon="12.4739040">
        <ele>1420.0000000</ele>
        <time>2010-09-27T11:11:03Z</time>
      </trkpt>
      <trkpt lat="46.1554490" lon="12.4740250">
        <ele>1420.9700000</ele>
        <time>2010-09-27T11:11:11Z</time>
      </trkpt>
      <trkpt lat="46.1554360" lon="12.4740780">
        <ele>1420.9700000</ele>
        <time>2010-09-27T11:11:16Z</time>
      </trkpt>
      <trkpt lat="46.1554540" lon="12.4741400">
        <ele>1420.9700000</ele>
        <time>2010-09-27T11:11:21Z</time>
      </trkpt>
      <trkpt lat="46.1554830" lon="12.4741980">
        <ele>1420.9700000</ele>
        <time>2010-09-27T11:11:27Z</time>
      </trkpt>
      <trkpt lat="46.1554750" lon="12.4742010">
        <ele>1421.4500000</ele>
        <time>2010-09-27T11:11:50Z</time>
      </trkpt>
      <trkpt lat="46.1554770" lon="12.4742940">
        <ele>1421.4500000</ele>
        <time>2010-09-27T11:11:56Z</time>
      </trkpt>
      <trkpt lat="46.1554790" lon="12.4743370">
        <ele>1421.4500000</ele>
        <time>2010-09-27T11:11:59Z</time>
      </trkpt>
      <trkpt lat="46.1554850" lon="12.4744320">
        <ele>1421.4500000</ele>
        <time>2010-09-27T11:12:04Z</time>
      </trkpt>
      <trkpt lat="46.1554710" lon="12.4745300">
        <ele>1421.4500000</ele>
        <time>2010-09-27T11:12:10Z</time>
      </trkpt>
      <trkpt lat="46.1555050" lon="12.4745860">
        <ele>1421.9300000</ele>
        <time>2010-09-27T11:12:18Z</time>
      </trkpt>
      <trkpt lat="46.1554990" lon="12.4744760">
        <ele>1420.9700000</ele>
        <time>2010-09-27T11:14:49Z</time>
      </trkpt>
      <trkpt lat="46.1554980" lon="12.4744900">
        <ele>1420.9700000</ele>
        <time>2010-09-27T11:14:58Z</time>
      </trkpt>
      <trkpt lat="46.1554440" lon="12.4745100">
        <ele>1420.9700000</ele>
        <time>2010-09-27T11:16:47Z</time>
      </trkpt>
      <trkpt lat="46.1554330" lon="12.4745340">
        <ele>1420.9700000</ele>
        <time>2010-09-27T11:16:51Z</time>
      </trkpt>
      <trkpt lat="46.1554220" lon="12.4745590">
        <ele>1421.9300000</ele>
        <time>2010-09-27T11:16:56Z</time>
      </trkpt>
      <trkpt lat="46.1554270" lon="12.4745750">
        <ele>1422.4100000</ele>
        <time>2010-09-27T11:17:07Z</time>
      </trkpt>
      <trkpt lat="46.1553750" lon="12.4746380">
        <ele>1422.4100000</ele>
        <time>2010-09-27T11:17:21Z</time>
      </trkpt>
      <trkpt lat="46.1553680" lon="12.4746460">
        <ele>1424.3300000</ele>
        <time>2010-09-27T11:17:24Z</time>
      </trkpt>
      <trkpt lat="46.1553550" lon="12.4746490">
        <ele>1425.2900000</ele>
        <time>2010-09-27T11:17:26Z</time>
      </trkpt>
      <trkpt lat="46.1553280" lon="12.4746570">
        <ele>1425.2900000</ele>
        <time>2010-09-27T11:17:31Z</time>
      </trkpt>
      <trkpt lat="46.1553220" lon="12.4747190">
        <ele>1426.2500000</ele>
        <time>2010-09-27T11:17:36Z</time>
      </trkpt>
      <trkpt lat="46.1553400" lon="12.4747710">
        <ele>1425.7700000</ele>
        <time>2010-09-27T11:17:40Z</time>
      </trkpt>
      <trkpt lat="46.1553470" lon="12.4748270">
        <ele>1426.2500000</ele>
        <time>2010-09-27T11:17:46Z</time>
      </trkpt>
      <trkpt lat="46.1553560" lon="12.4748000">
        <ele>1425.2900000</ele>
        <time>2010-09-27T11:18:24Z</time>
      </trkpt>
      <trkpt lat="46.1553230" lon="12.4747820">
        <ele>1426.2500000</ele>
        <time>2010-09-27T11:18:31Z</time>
      </trkpt>
      <trkpt lat="46.1553180" lon="12.4747830">
        <ele>1427.2100000</ele>
        <time>2010-09-27T11:18:51Z</time>
      </trkpt>
      <trkpt lat="46.1553120" lon="12.4747830">
        <ele>1427.2100000</ele>
        <time>2010-09-27T11:18:52Z</time>
      </trkpt>
      <trkpt lat="46.1552600" lon="12.4748020">
        <ele>1428.6600000</ele>
        <time>2010-09-27T11:18:59Z</time>
      </trkpt>
      <trkpt lat="46.1552420" lon="12.4748470">
        <ele>1429.6200000</ele>
        <time>2010-09-27T11:19:04Z</time>
      </trkpt>
      <trkpt lat="46.1552200" lon="12.4748930">
        <ele>1430.1000000</ele>
        <time>2010-09-27T11:19:09Z</time>
      </trkpt>
      <trkpt lat="46.1551770" lon="12.4749160">
        <ele>1431.0600000</ele>
        <time>2010-09-27T11:19:17Z</time>
      </trkpt>
      <trkpt lat="46.1551670" lon="12.4749580">
        <ele>1432.0200000</ele>
        <time>2010-09-27T11:19:22Z</time>
      </trkpt>
      <trkpt lat="46.1551550" lon="12.4749760">
        <ele>1433.4600000</ele>
        <time>2010-09-27T11:19:29Z</time>
      </trkpt>
      <trkpt lat="46.1551460" lon="12.4749670">
        <ele>1433.4600000</ele>
        <time>2010-09-27T11:19:35Z</time>
      </trkpt>
      <trkpt lat="46.1551630" lon="12.4750100">
        <ele>1434.9100000</ele>
        <time>2010-09-27T11:19:42Z</time>
      </trkpt>
      <trkpt lat="46.1551420" lon="12.4750320">
        <ele>1434.9100000</ele>
        <time>2010-09-27T11:19:47Z</time>
      </trkpt>
      <trkpt lat="46.1551290" lon="12.4751020">
        <ele>1437.7900000</ele>
        <time>2010-09-27T11:20:00Z</time>
      </trkpt>
      <trkpt lat="46.1551110" lon="12.4751360">
        <ele>1437.7900000</ele>
        <time>2010-09-27T11:20:06Z</time>
      </trkpt>
      <trkpt lat="46.1551240" lon="12.4751710">
        <ele>1438.7500000</ele>
        <time>2010-09-27T11:20:12Z</time>
      </trkpt>
      <trkpt lat="46.1551160" lon="12.4752970">
        <ele>1442.1100000</ele>
        <time>2010-09-27T11:20:40Z</time>
      </trkpt>
      <trkpt lat="46.1550800" lon="12.4753320">
        <ele>1443.0800000</ele>
        <time>2010-09-27T11:20:53Z</time>
      </trkpt>
      <trkpt lat="46.1550230" lon="12.4753570">
        <ele>1444.0400000</ele>
        <time>2010-09-27T11:20:58Z</time>
      </trkpt>
      <trkpt lat="46.1549890" lon="12.4753440">
        <ele>1445.0000000</ele>
        <time>2010-09-27T11:21:08Z</time>
      </trkpt>
      <trkpt lat="46.1549560" lon="12.4753920">
        <ele>1445.9600000</ele>
        <time>2010-09-27T11:21:16Z</time>
      </trkpt>
      <trkpt lat="46.1549420" lon="12.4754670">
        <ele>1447.4000000</ele>
        <time>2010-09-27T11:21:31Z</time>
      </trkpt>
      <trkpt lat="46.1549390" lon="12.4755280">
        <ele>1449.8100000</ele>
        <time>2010-09-27T11:21:48Z</time>
      </trkpt>
      <trkpt lat="46.1549220" lon="12.4755250">
        <ele>1450.7700000</ele>
        <time>2010-09-27T11:21:53Z</time>
      </trkpt>
      <trkpt lat="46.1548770" lon="12.4755550">
        <ele>1451.2500000</ele>
        <time>2010-09-27T11:22:02Z</time>
      </trkpt>
      <trkpt lat="46.1548620" lon="12.4756190">
        <ele>1453.6500000</ele>
        <time>2010-09-27T11:22:14Z</time>
      </trkpt>
      <trkpt lat="46.1548620" lon="12.4756190">
        <ele>1454.1300000</ele>
        <time>2010-09-27T11:22:15Z</time>
      </trkpt>
      <trkpt lat="46.1548420" lon="12.4756560">
        <ele>1455.0900000</ele>
        <time>2010-09-27T11:22:21Z</time>
      </trkpt>
      <trkpt lat="46.1548110" lon="12.4756850">
        <ele>1455.5700000</ele>
        <time>2010-09-27T11:22:26Z</time>
      </trkpt>
      <trkpt lat="46.1547620" lon="12.4757640">
        <ele>1456.5300000</ele>
        <time>2010-09-27T11:22:41Z</time>
      </trkpt>
      <trkpt lat="46.1546880" lon="12.4758050">
        <ele>1457.9800000</ele>
        <time>2010-09-27T11:22:55Z</time>
      </trkpt>
      <trkpt lat="46.1546660" lon="12.4758290">
        <ele>1458.9400000</ele>
        <time>2010-09-27T11:23:02Z</time>
      </trkpt>
      <trkpt lat="46.1546200" lon="12.4758550">
        <ele>1459.4200000</ele>
        <time>2010-09-27T11:23:11Z</time>
      </trkpt>
      <trkpt lat="46.1545850" lon="12.4759020">
        <ele>1460.8600000</ele>
        <time>2010-09-27T11:23:23Z</time>
      </trkpt>
      <trkpt lat="46.1545410" lon="12.4760500">
        <ele>1462.7800000</ele>
        <time>2010-09-27T11:23:43Z</time>
      </trkpt>
      <trkpt lat="46.1545180" lon="12.4761040">
        <ele>1463.2600000</ele>
        <time>2010-09-27T11:23:50Z</time>
      </trkpt>
      <trkpt lat="46.1544420" lon="12.4761300">
        <ele>1464.7100000</ele>
        <time>2010-09-27T11:24:01Z</time>
      </trkpt>
      <trkpt lat="46.1544020" lon="12.4761580">
        <ele>1464.7100000</ele>
        <time>2010-09-27T11:24:05Z</time>
      </trkpt>
      <trkpt lat="46.1543580" lon="12.4762010">
        <ele>1465.1900000</ele>
        <time>2010-09-27T11:24:12Z</time>
      </trkpt>
      <trkpt lat="46.1543360" lon="12.4762250">
        <ele>1468.0700000</ele>
        <time>2010-09-27T11:24:24Z</time>
      </trkpt>
      <trkpt lat="46.1543350" lon="12.4762640">
        <ele>1469.0300000</ele>
        <time>2010-09-27T11:24:37Z</time>
      </trkpt>
      <trkpt lat="46.1543330" lon="12.4763940">
        <ele>1470.4700000</ele>
        <time>2010-09-27T11:24:54Z</time>
      </trkpt>
      <trkpt lat="46.1543250" lon="12.4764230">
        <ele>1471.4400000</ele>
        <time>2010-09-27T11:24:58Z</time>
      </trkpt>
      <trkpt lat="46.1543070" lon="12.4764590">
        <ele>1473.3600000</ele>
        <time>2010-09-27T11:25:06Z</time>
      </trkpt>
      <trkpt lat="46.1542780" lon="12.4764650">
        <ele>1473.3600000</ele>
        <time>2010-09-27T11:25:11Z</time>
      </trkpt>
      <trkpt lat="46.1542540" lon="12.4764620">
        <ele>1474.8000000</ele>
        <time>2010-09-27T11:25:20Z</time>
      </trkpt>
      <trkpt lat="46.1542190" lon="12.4764790">
        <ele>1475.2800000</ele>
        <time>2010-09-27T11:25:30Z</time>
      </trkpt>
      <trkpt lat="46.1541970" lon="12.4764830">
        <ele>1475.7600000</ele>
        <time>2010-09-27T11:25:34Z</time>
      </trkpt>
      <trkpt lat="46.1541940" lon="12.4765190">
        <ele>1477.2000000</ele>
        <time>2010-09-27T11:25:39Z</time>
      </trkpt>
      <trkpt lat="46.1541830" lon="12.4765170">
        <ele>1477.6800000</ele>
        <time>2010-09-27T11:25:43Z</time>
      </trkpt>
      <trkpt lat="46.1541490" lon="12.4765720">
        <ele>1479.1300000</ele>
        <time>2010-09-27T11:25:53Z</time>
      </trkpt>
      <trkpt lat="46.1541100" lon="12.4766380">
        <ele>1480.5700000</ele>
        <time>2010-09-27T11:26:06Z</time>
      </trkpt>
      <trkpt lat="46.1540940" lon="12.4766690">
        <ele>1481.5300000</ele>
        <time>2010-09-27T11:26:15Z</time>
      </trkpt>
      <trkpt lat="46.1540530" lon="12.4767450">
        <ele>1484.4100000</ele>
        <time>2010-09-27T11:26:37Z</time>
      </trkpt>
      <trkpt lat="46.1540500" lon="12.4769210">
        <ele>1487.3000000</ele>
        <time>2010-09-27T11:27:02Z</time>
      </trkpt>
      <trkpt lat="46.1540630" lon="12.4769850">
        <ele>1488.2600000</ele>
        <time>2010-09-27T11:27:10Z</time>
      </trkpt>
      <trkpt lat="46.1540670" lon="12.4770460">
        <ele>1489.2200000</ele>
        <time>2010-09-27T11:27:21Z</time>
      </trkpt>
      <trkpt lat="46.1540380" lon="12.4770870">
        <ele>1489.2200000</ele>
        <time>2010-09-27T11:27:27Z</time>
      </trkpt>
      <trkpt lat="46.1540090" lon="12.4771530">
        <ele>1492.5800000</ele>
        <time>2010-09-27T11:27:45Z</time>
      </trkpt>
      <trkpt lat="46.1539890" lon="12.4771930">
        <ele>1493.5500000</ele>
        <time>2010-09-27T11:27:56Z</time>
      </trkpt>
      <trkpt lat="46.1539690" lon="12.4773920">
        <ele>1496.4300000</ele>
        <time>2010-09-27T11:28:18Z</time>
      </trkpt>
      <trkpt lat="46.1539420" lon="12.4774600">
        <ele>1497.3900000</ele>
        <time>2010-09-27T11:28:31Z</time>
      </trkpt>
      <trkpt lat="46.1538580" lon="12.4775270">
        <ele>1499.3100000</ele>
        <time>2010-09-27T11:28:54Z</time>
      </trkpt>
      <trkpt lat="46.1538540" lon="12.4775970">
        <ele>1501.2400000</ele>
        <time>2010-09-27T11:29:13Z</time>
      </trkpt>
      <trkpt lat="46.1538400" lon="12.4776340">
        <ele>1502.2000000</ele>
        <time>2010-09-27T11:29:20Z</time>
      </trkpt>
      <trkpt lat="46.1538950" lon="12.4777260">
        <ele>1502.2000000</ele>
        <time>2010-09-27T11:29:28Z</time>
      </trkpt>
      <trkpt lat="46.1538730" lon="12.4777640">
        <ele>1503.1600000</ele>
        <time>2010-09-27T11:29:33Z</time>
      </trkpt>
      <trkpt lat="46.1538450" lon="12.4777920">
        <ele>1505.5600000</ele>
        <time>2010-09-27T11:29:44Z</time>
      </trkpt>
      <trkpt lat="46.1538050" lon="12.4777970">
        <ele>1506.0400000</ele>
        <time>2010-09-27T11:29:49Z</time>
      </trkpt>
      <trkpt lat="46.1538020" lon="12.4778200">
        <ele>1506.5200000</ele>
        <time>2010-09-27T11:29:52Z</time>
      </trkpt>
      <trkpt lat="46.1538030" lon="12.4778800">
        <ele>1508.4500000</ele>
        <time>2010-09-27T11:30:09Z</time>
      </trkpt>
      <trkpt lat="46.1537840" lon="12.4779110">
        <ele>1509.8900000</ele>
        <time>2010-09-27T11:30:15Z</time>
      </trkpt>
      <trkpt lat="46.1537860" lon="12.4779190">
        <ele>1548.8200000</ele>
        <time>2010-09-27T11:31:34Z</time>
      </trkpt>
      <trkpt lat="46.1537860" lon="12.4779190">
        <ele>1511.8100000</ele>
        <time>2010-09-27T11:31:35Z</time>
      </trkpt>
      <trkpt lat="46.1537860" lon="12.4779190">
        <ele>1510.3700000</ele>
        <time>2010-09-27T11:31:45Z</time>
      </trkpt>
      <trkpt lat="46.1540840" lon="12.4780720">
        <ele>1515.1800000</ele>
        <time>2010-09-27T11:31:50Z</time>
      </trkpt>
      <trkpt lat="46.1539580" lon="12.4780890">
        <ele>1515.1800000</ele>
        <time>2010-09-27T11:32:09Z</time>
      </trkpt>
      <trkpt lat="46.1539090" lon="12.4781020">
        <ele>1518.0600000</ele>
        <time>2010-09-27T11:32:24Z</time>
      </trkpt>
      <trkpt lat="46.1539170" lon="12.4782250">
        <ele>1520.4600000</ele>
        <time>2010-09-27T11:32:39Z</time>
      </trkpt>
      <trkpt lat="46.1538990" lon="12.4782680">
        <ele>1522.3900000</ele>
        <time>2010-09-27T11:32:47Z</time>
      </trkpt>
      <trkpt lat="46.1539180" lon="12.4783370">
        <ele>1522.3900000</ele>
        <time>2010-09-27T11:32:54Z</time>
      </trkpt>
      <trkpt lat="46.1539200" lon="12.4783480">
        <ele>1523.3500000</ele>
        <time>2010-09-27T11:32:57Z</time>
      </trkpt>
      <trkpt lat="46.1539010" lon="12.4784530">
        <ele>1526.7100000</ele>
        <time>2010-09-27T11:33:20Z</time>
      </trkpt>
      <trkpt lat="46.1539000" lon="12.4784650">
        <ele>1526.7100000</ele>
        <time>2010-09-27T11:33:21Z</time>
      </trkpt>
      <trkpt lat="46.1538960" lon="12.4785190">
        <ele>1527.1900000</ele>
        <time>2010-09-27T11:33:29Z</time>
      </trkpt>
      <trkpt lat="46.1539210" lon="12.4785860">
        <ele>1530.5600000</ele>
        <time>2010-09-27T11:33:50Z</time>
      </trkpt>
      <trkpt lat="46.1539000" lon="12.4786280">
        <ele>1530.5600000</ele>
        <time>2010-09-27T11:33:58Z</time>
      </trkpt>
      <trkpt lat="46.1539010" lon="12.4786770">
        <ele>1533.9200000</ele>
        <time>2010-09-27T11:34:19Z</time>
      </trkpt>
      <trkpt lat="46.1539080" lon="12.4787250">
        <ele>1536.3200000</ele>
        <time>2010-09-27T11:34:32Z</time>
      </trkpt>
      <trkpt lat="46.1539440" lon="12.4788380">
        <ele>1537.2900000</ele>
        <time>2010-09-27T11:34:42Z</time>
      </trkpt>
      <trkpt lat="46.1539600" lon="12.4789080">
        <ele>1537.2900000</ele>
        <time>2010-09-27T11:34:52Z</time>
      </trkpt>
      <trkpt lat="46.1539190" lon="12.4789720">
        <ele>1540.6500000</ele>
        <time>2010-09-27T11:35:11Z</time>
      </trkpt>
      <trkpt lat="46.1539380" lon="12.4790840">
        <ele>1540.6500000</ele>
        <time>2010-09-27T11:35:25Z</time>
      </trkpt>
      <trkpt lat="46.1539500" lon="12.4792260">
        <ele>1544.9800000</ele>
        <time>2010-09-27T11:35:48Z</time>
      </trkpt>
      <trkpt lat="46.1538890" lon="12.4793260">
        <ele>1545.9400000</ele>
        <time>2010-09-27T11:36:10Z</time>
      </trkpt>
      <trkpt lat="46.1538950" lon="12.4793800">
        <ele>1547.3800000</ele>
        <time>2010-09-27T11:36:19Z</time>
      </trkpt>
      <trkpt lat="46.1538880" lon="12.4794120">
        <ele>1547.8600000</ele>
        <time>2010-09-27T11:36:28Z</time>
      </trkpt>
      <trkpt lat="46.1538630" lon="12.4794790">
        <ele>1550.2600000</ele>
        <time>2010-09-27T11:36:48Z</time>
      </trkpt>
      <trkpt lat="46.1538640" lon="12.4795530">
        <ele>1552.1900000</ele>
        <time>2010-09-27T11:37:00Z</time>
      </trkpt>
      <trkpt lat="46.1539110" lon="12.4796590">
        <ele>1553.6300000</ele>
        <time>2010-09-27T11:37:16Z</time>
      </trkpt>
      <trkpt lat="46.1538850" lon="12.4797300">
        <ele>1556.9900000</ele>
        <time>2010-09-27T11:37:34Z</time>
      </trkpt>
      <trkpt lat="46.1539000" lon="12.4797790">
        <ele>1557.9500000</ele>
        <time>2010-09-27T11:37:43Z</time>
      </trkpt>
      <trkpt lat="46.1539990" lon="12.4799950">
        <ele>1558.9200000</ele>
        <time>2010-09-27T11:39:49Z</time>
      </trkpt>
      <trkpt lat="46.1540050" lon="12.4800580">
        <ele>1558.9200000</ele>
        <time>2010-09-27T11:39:55Z</time>
      </trkpt>
      <trkpt lat="46.1540040" lon="12.4801120">
        <ele>1558.4300000</ele>
        <time>2010-09-27T11:40:00Z</time>
      </trkpt>
      <trkpt lat="46.1540100" lon="12.4801660">
        <ele>1558.9200000</ele>
        <time>2010-09-27T11:40:06Z</time>
      </trkpt>
      <trkpt lat="46.1540540" lon="12.4802440">
        <ele>1558.4300000</ele>
        <time>2010-09-27T11:40:12Z</time>
      </trkpt>
      <trkpt lat="46.1541470" lon="12.4803690">
        <ele>1558.9200000</ele>
        <time>2010-09-27T11:40:19Z</time>
      </trkpt>
      <trkpt lat="46.1541810" lon="12.4804650">
        <ele>1557.9500000</ele>
        <time>2010-09-27T11:40:26Z</time>
      </trkpt>
      <trkpt lat="46.1542240" lon="12.4805250">
        <ele>1557.9500000</ele>
        <time>2010-09-27T11:40:31Z</time>
      </trkpt>
      <trkpt lat="46.1541810" lon="12.4805490">
        <ele>1557.9500000</ele>
        <time>2010-09-27T11:40:34Z</time>
      </trkpt>
      <trkpt lat="46.1540610" lon="12.4806060">
        <ele>1557.9500000</ele>
        <time>2010-09-27T11:40:43Z</time>
      </trkpt>
      <trkpt lat="46.1540280" lon="12.4806500">
        <ele>1557.9500000</ele>
        <time>2010-09-27T11:40:53Z</time>
      </trkpt>
      <trkpt lat="46.1540080" lon="12.4806520">
        <ele>1558.9200000</ele>
        <time>2010-09-27T11:40:59Z</time>
      </trkpt>
      <trkpt lat="46.1539790" lon="12.4806760">
        <ele>1558.9200000</ele>
        <time>2010-09-27T11:41:06Z</time>
      </trkpt>
      <trkpt lat="46.1539610" lon="12.4807000">
        <ele>1558.9200000</ele>
        <time>2010-09-27T11:41:10Z</time>
      </trkpt>
      <trkpt lat="46.1538720" lon="12.4807310">
        <ele>1558.4300000</ele>
        <time>2010-09-27T11:41:17Z</time>
      </trkpt>
      <trkpt lat="46.1538490" lon="12.4807460">
        <ele>1557.9500000</ele>
        <time>2010-09-27T11:41:20Z</time>
      </trkpt>
      <trkpt lat="46.1537990" lon="12.4808000">
        <ele>1558.4300000</ele>
        <time>2010-09-27T11:41:27Z</time>
      </trkpt>
      <trkpt lat="46.1537770" lon="12.4808350">
        <ele>1557.9500000</ele>
        <time>2010-09-27T11:41:32Z</time>
      </trkpt>
      <trkpt lat="46.1537550" lon="12.4808510">
        <ele>1556.5100000</ele>
        <time>2010-09-27T11:41:35Z</time>
      </trkpt>
      <trkpt lat="46.1537890" lon="12.4809090">
        <ele>1555.0700000</ele>
        <time>2010-09-27T11:41:40Z</time>
      </trkpt>
      <trkpt lat="46.1538220" lon="12.4809540">
        <ele>1555.0700000</ele>
        <time>2010-09-27T11:41:45Z</time>
      </trkpt>
      <trkpt lat="46.1537940" lon="12.4809830">
        <ele>1555.0700000</ele>
        <time>2010-09-27T11:41:50Z</time>
      </trkpt>
      <trkpt lat="46.1537630" lon="12.4810440">
        <ele>1554.1100000</ele>
        <time>2010-09-27T11:41:54Z</time>
      </trkpt>
      <trkpt lat="46.1537000" lon="12.4811020">
        <ele>1554.1100000</ele>
        <time>2010-09-27T11:41:59Z</time>
      </trkpt>
      <trkpt lat="46.1536110" lon="12.4810930">
        <ele>1554.1100000</ele>
        <time>2010-09-27T11:42:06Z</time>
      </trkpt>
      <trkpt lat="46.1534970" lon="12.4811260">
        <ele>1552.6700000</ele>
        <time>2010-09-27T11:42:15Z</time>
      </trkpt>
      <trkpt lat="46.1534680" lon="12.4811860">
        <ele>1551.7100000</ele>
        <time>2010-09-27T11:42:22Z</time>
      </trkpt>
      <trkpt lat="46.1534600" lon="12.4812290">
        <ele>1552.6700000</ele>
        <time>2010-09-27T11:42:29Z</time>
      </trkpt>
      <trkpt lat="46.1534410" lon="12.4812790">
        <ele>1553.1500000</ele>
        <time>2010-09-27T11:42:34Z</time>
      </trkpt>
      <trkpt lat="46.1534450" lon="12.4812990">
        <ele>1553.1500000</ele>
        <time>2010-09-27T11:42:36Z</time>
      </trkpt>
      <trkpt lat="46.1534020" lon="12.4813330">
        <ele>1552.6700000</ele>
        <time>2010-09-27T11:42:41Z</time>
      </trkpt>
      <trkpt lat="46.1533560" lon="12.4813580">
        <ele>1552.6700000</ele>
        <time>2010-09-27T11:42:46Z</time>
      </trkpt>
      <trkpt lat="46.1532890" lon="12.4813650">
        <ele>1553.6300000</ele>
        <time>2010-09-27T11:42:53Z</time>
      </trkpt>
      <trkpt lat="46.1532450" lon="12.4813720">
        <ele>1554.5900000</ele>
        <time>2010-09-27T11:42:59Z</time>
      </trkpt>
      <trkpt lat="46.1531970" lon="12.4814110">
        <ele>1555.0700000</ele>
        <time>2010-09-27T11:43:08Z</time>
      </trkpt>
      <trkpt lat="46.1531820" lon="12.4814850">
        <ele>1556.5100000</ele>
        <time>2010-09-27T11:43:19Z</time>
      </trkpt>
      <trkpt lat="46.1531290" lon="12.4814850">
        <ele>1556.9900000</ele>
        <time>2010-09-27T11:43:26Z</time>
      </trkpt>
      <trkpt lat="46.1531020" lon="12.4815220">
        <ele>1557.4700000</ele>
        <time>2010-09-27T11:43:31Z</time>
      </trkpt>
      <trkpt lat="46.1530780" lon="12.4816080">
        <ele>1557.4700000</ele>
        <time>2010-09-27T11:43:37Z</time>
      </trkpt>
      <trkpt lat="46.1530530" lon="12.4816330">
        <ele>1557.4700000</ele>
        <time>2010-09-27T11:43:41Z</time>
      </trkpt>
      <trkpt lat="46.1530100" lon="12.4816420">
        <ele>1556.9900000</ele>
        <time>2010-09-27T11:43:46Z</time>
      </trkpt>
      <trkpt lat="46.1529210" lon="12.4816640">
        <ele>1558.4300000</ele>
        <time>2010-09-27T11:43:53Z</time>
      </trkpt>
      <trkpt lat="46.1529180" lon="12.4817060">
        <ele>1558.9200000</ele>
        <time>2010-09-27T11:43:57Z</time>
      </trkpt>
      <trkpt lat="46.1529160" lon="12.4817410">
        <ele>1559.4000000</ele>
        <time>2010-09-27T11:44:01Z</time>
      </trkpt>
      <trkpt lat="46.1529090" lon="12.4818170">
        <ele>1559.4000000</ele>
        <time>2010-09-27T11:44:09Z</time>
      </trkpt>
      <trkpt lat="46.1528600" lon="12.4818490">
        <ele>1560.3600000</ele>
        <time>2010-09-27T11:44:15Z</time>
      </trkpt>
      <trkpt lat="46.1528070" lon="12.4818530">
        <ele>1560.8400000</ele>
        <time>2010-09-27T11:44:21Z</time>
      </trkpt>
      <trkpt lat="46.1527430" lon="12.4818910">
        <ele>1561.3200000</ele>
        <time>2010-09-27T11:44:28Z</time>
      </trkpt>
      <trkpt lat="46.1527030" lon="12.4819060">
        <ele>1562.2800000</ele>
        <time>2010-09-27T11:44:33Z</time>
      </trkpt>
      <trkpt lat="46.1526970" lon="12.4819220">
        <ele>1562.7600000</ele>
        <time>2010-09-27T11:44:37Z</time>
      </trkpt>
      <trkpt lat="46.1526740" lon="12.4819320">
        <ele>1563.7200000</ele>
        <time>2010-09-27T11:44:42Z</time>
      </trkpt>
      <trkpt lat="46.1526080" lon="12.4819580">
        <ele>1564.2000000</ele>
        <time>2010-09-27T11:44:48Z</time>
      </trkpt>
      <trkpt lat="46.1525730" lon="12.4819560">
        <ele>1564.6800000</ele>
        <time>2010-09-27T11:44:50Z</time>
      </trkpt>
      <trkpt lat="46.1525310" lon="12.4819680">
        <ele>1564.2000000</ele>
        <time>2010-09-27T11:44:55Z</time>
      </trkpt>
      <trkpt lat="46.1524960" lon="12.4819690">
        <ele>1566.1200000</ele>
        <time>2010-09-27T11:45:02Z</time>
      </trkpt>
      <trkpt lat="46.1524570" lon="12.4819860">
        <ele>1566.1200000</ele>
        <time>2010-09-27T11:45:09Z</time>
      </trkpt>
      <trkpt lat="46.1524250" lon="12.4819960">
        <ele>1567.0900000</ele>
        <time>2010-09-27T11:45:16Z</time>
      </trkpt>
      <trkpt lat="46.1524110" lon="12.4820190">
        <ele>1567.5700000</ele>
        <time>2010-09-27T11:45:21Z</time>
      </trkpt>
      <trkpt lat="46.1524080" lon="12.4820530">
        <ele>1568.5300000</ele>
        <time>2010-09-27T11:45:26Z</time>
      </trkpt>
      <trkpt lat="46.1523820" lon="12.4820830">
        <ele>1569.0100000</ele>
        <time>2010-09-27T11:45:32Z</time>
      </trkpt>
      <trkpt lat="46.1523760" lon="12.4821000">
        <ele>1569.4900000</ele>
        <time>2010-09-27T11:45:36Z</time>
      </trkpt>
      <trkpt lat="46.1523950" lon="12.4821280">
        <ele>1569.9700000</ele>
        <time>2010-09-27T11:45:43Z</time>
      </trkpt>
      <trkpt lat="46.1523740" lon="12.4822360">
        <ele>1570.4500000</ele>
        <time>2010-09-27T11:45:56Z</time>
      </trkpt>
      <trkpt lat="46.1523400" lon="12.4822570">
        <ele>1572.3700000</ele>
        <time>2010-09-27T11:46:03Z</time>
      </trkpt>
      <trkpt lat="46.1523580" lon="12.4823180">
        <ele>1574.3000000</ele>
        <time>2010-09-27T11:46:17Z</time>
      </trkpt>
      <trkpt lat="46.1523840" lon="12.4823870">
        <ele>1575.2600000</ele>
        <time>2010-09-27T11:46:25Z</time>
      </trkpt>
      <trkpt lat="46.1524300" lon="12.4824600">
        <ele>1575.2600000</ele>
        <time>2010-09-27T11:46:31Z</time>
      </trkpt>
      <trkpt lat="46.1524270" lon="12.4825070">
        <ele>1576.7000000</ele>
        <time>2010-09-27T11:46:41Z</time>
      </trkpt>
      <trkpt lat="46.1523940" lon="12.4825820">
        <ele>1579.1000000</ele>
        <time>2010-09-27T11:47:00Z</time>
      </trkpt>
      <trkpt lat="46.1523490" lon="12.4826700">
        <ele>1582.4700000</ele>
        <time>2010-09-27T11:47:19Z</time>
      </trkpt>
      <trkpt lat="46.1523460" lon="12.4827240">
        <ele>1583.4300000</ele>
        <time>2010-09-27T11:47:29Z</time>
      </trkpt>
      <trkpt lat="46.1522910" lon="12.4827850">
        <ele>1582.4700000</ele>
        <time>2010-09-27T11:47:35Z</time>
      </trkpt>
      <trkpt lat="46.1523030" lon="12.4828180">
        <ele>1582.9500000</ele>
        <time>2010-09-27T11:47:41Z</time>
      </trkpt>
      <trkpt lat="46.1522580" lon="12.4828480">
        <ele>1585.3500000</ele>
        <time>2010-09-27T11:47:54Z</time>
      </trkpt>
      <trkpt lat="46.1522080" lon="12.4828440">
        <ele>1585.3500000</ele>
        <time>2010-09-27T11:47:59Z</time>
      </trkpt>
      <trkpt lat="46.1522130" lon="12.4828570">
        <ele>1585.3500000</ele>
        <time>2010-09-27T11:48:00Z</time>
      </trkpt>
      <trkpt lat="46.1522020" lon="12.4829420">
        <ele>1586.3100000</ele>
        <time>2010-09-27T11:48:06Z</time>
      </trkpt>
      <trkpt lat="46.1521520" lon="12.4829520">
        <ele>1586.3100000</ele>
        <time>2010-09-27T11:48:11Z</time>
      </trkpt>
      <trkpt lat="46.1521360" lon="12.4829820">
        <ele>1587.7500000</ele>
        <time>2010-09-27T11:48:20Z</time>
      </trkpt>
      <trkpt lat="46.1521270" lon="12.4829940">
        <ele>1587.7500000</ele>
        <time>2010-09-27T11:48:24Z</time>
      </trkpt>
      <trkpt lat="46.1521210" lon="12.4829920">
        <ele>1588.7200000</ele>
        <time>2010-09-27T11:48:26Z</time>
      </trkpt>
      <trkpt lat="46.1521000" lon="12.4829820">
        <ele>1588.7200000</ele>
        <time>2010-09-27T11:48:28Z</time>
      </trkpt>
      <trkpt lat="46.1520350" lon="12.4829850">
        <ele>1589.6800000</ele>
        <time>2010-09-27T11:48:35Z</time>
      </trkpt>
      <trkpt lat="46.1520020" lon="12.4830400">
        <ele>1590.1600000</ele>
        <time>2010-09-27T11:48:42Z</time>
      </trkpt>
      <trkpt lat="46.1519570" lon="12.4830800">
        <ele>1590.6400000</ele>
        <time>2010-09-27T11:48:49Z</time>
      </trkpt>
      <trkpt lat="46.1519710" lon="12.4831230">
        <ele>1591.6000000</ele>
        <time>2010-09-27T11:48:54Z</time>
      </trkpt>
      <trkpt lat="46.1519900" lon="12.4831820">
        <ele>1592.5600000</ele>
        <time>2010-09-27T11:48:59Z</time>
      </trkpt>
      <trkpt lat="46.1519140" lon="12.4832320">
        <ele>1594.0000000</ele>
        <time>2010-09-27T11:49:14Z</time>
      </trkpt>
      <trkpt lat="46.1518510" lon="12.4832750">
        <ele>1594.4800000</ele>
        <time>2010-09-27T11:49:20Z</time>
      </trkpt>
      <trkpt lat="46.1518430" lon="12.4833100">
        <ele>1595.4500000</ele>
        <time>2010-09-27T11:49:28Z</time>
      </trkpt>
      <trkpt lat="46.1518490" lon="12.4833880">
        <ele>1596.4100000</ele>
        <time>2010-09-27T11:49:42Z</time>
      </trkpt>
      <trkpt lat="46.1517680" lon="12.4833900">
        <ele>1597.8500000</ele>
        <time>2010-09-27T11:49:50Z</time>
      </trkpt>
      <trkpt lat="46.1517590" lon="12.4834220">
        <ele>1598.3300000</ele>
        <time>2010-09-27T11:49:57Z</time>
      </trkpt>
      <trkpt lat="46.1517150" lon="12.4834120">
        <ele>1598.8100000</ele>
        <time>2010-09-27T11:50:00Z</time>
      </trkpt>
      <trkpt lat="46.1516790" lon="12.4834490">
        <ele>1599.7700000</ele>
        <time>2010-09-27T11:50:06Z</time>
      </trkpt>
      <trkpt lat="46.1517370" lon="12.4835170">
        <ele>1601.2100000</ele>
        <time>2010-09-27T11:50:13Z</time>
      </trkpt>
      <trkpt lat="46.1517540" lon="12.4835350">
        <ele>1601.2100000</ele>
        <time>2010-09-27T11:50:15Z</time>
      </trkpt>
      <trkpt lat="46.1518980" lon="12.4836460">
        <ele>1601.6900000</ele>
        <time>2010-09-27T11:50:25Z</time>
      </trkpt>
      <trkpt lat="46.1519380" lon="12.4836650">
        <ele>1602.1700000</ele>
        <time>2010-09-27T11:50:31Z</time>
      </trkpt>
      <trkpt lat="46.1519630" lon="12.4836830">
        <ele>1601.6900000</ele>
        <time>2010-09-27T11:50:39Z</time>
      </trkpt>
      <trkpt lat="46.1519820" lon="12.4837100">
        <ele>1601.6900000</ele>
        <time>2010-09-27T11:50:41Z</time>
      </trkpt>
      <trkpt lat="46.1520020" lon="12.4837630">
        <ele>1601.6900000</ele>
        <time>2010-09-27T11:50:46Z</time>
      </trkpt>
      <trkpt lat="46.1520770" lon="12.4838580">
        <ele>1603.1400000</ele>
        <time>2010-09-27T11:50:57Z</time>
      </trkpt>
      <trkpt lat="46.1520310" lon="12.4838910">
        <ele>1604.5800000</ele>
        <time>2010-09-27T11:51:07Z</time>
      </trkpt>
      <trkpt lat="46.1520460" lon="12.4839290">
        <ele>1605.0600000</ele>
        <time>2010-09-27T11:51:12Z</time>
      </trkpt>
      <trkpt lat="46.1520680" lon="12.4839700">
        <ele>1606.0200000</ele>
        <time>2010-09-27T11:51:17Z</time>
      </trkpt>
      <trkpt lat="46.1520630" lon="12.4839720">
        <ele>1606.5000000</ele>
        <time>2010-09-27T11:51:23Z</time>
      </trkpt>
      <trkpt lat="46.1520600" lon="12.4839780">
        <ele>1606.5000000</ele>
        <time>2010-09-27T11:51:28Z</time>
      </trkpt>
      <trkpt lat="46.1520730" lon="12.4840090">
        <ele>1607.9400000</ele>
        <time>2010-09-27T11:51:35Z</time>
      </trkpt>
      <trkpt lat="46.1520730" lon="12.4840450">
        <ele>1608.9000000</ele>
        <time>2010-09-27T11:51:41Z</time>
      </trkpt>
      <trkpt lat="46.1520660" lon="12.4840720">
        <ele>1610.3500000</ele>
        <time>2010-09-27T11:51:46Z</time>
      </trkpt>
      <trkpt lat="46.1520810" lon="12.4841170">
        <ele>1609.8600000</ele>
        <time>2010-09-27T11:51:51Z</time>
      </trkpt>
      <trkpt lat="46.1521120" lon="12.4841770">
        <ele>1610.8300000</ele>
        <time>2010-09-27T11:51:57Z</time>
      </trkpt>
      <trkpt lat="46.1521150" lon="12.4842090">
        <ele>1610.8300000</ele>
        <time>2010-09-27T11:52:02Z</time>
      </trkpt>
      <trkpt lat="46.1521290" lon="12.4842370">
        <ele>1611.7900000</ele>
        <time>2010-09-27T11:52:07Z</time>
      </trkpt>
      <trkpt lat="46.1521310" lon="12.4842490">
        <ele>1611.7900000</ele>
        <time>2010-09-27T11:52:13Z</time>
      </trkpt>
      <trkpt lat="46.1521400" lon="12.4842700">
        <ele>1612.2700000</ele>
        <time>2010-09-27T11:52:19Z</time>
      </trkpt>
      <trkpt lat="46.1521560" lon="12.4843110">
        <ele>1613.7100000</ele>
        <time>2010-09-27T11:52:24Z</time>
      </trkpt>
      <trkpt lat="46.1521610" lon="12.4843190">
        <ele>1613.7100000</ele>
        <time>2010-09-27T11:52:29Z</time>
      </trkpt>
      <trkpt lat="46.1522250" lon="12.4843840">
        <ele>1614.1900000</ele>
        <time>2010-09-27T11:52:33Z</time>
      </trkpt>
      <trkpt lat="46.1522290" lon="12.4843860">
        <ele>1614.6700000</ele>
        <time>2010-09-27T11:52:36Z</time>
      </trkpt>
      <trkpt lat="46.1522390" lon="12.4844220">
        <ele>1614.6700000</ele>
        <time>2010-09-27T11:52:42Z</time>
      </trkpt>
      <trkpt lat="46.1522410" lon="12.4844580">
        <ele>1615.6300000</ele>
        <time>2010-09-27T11:52:50Z</time>
      </trkpt>
      <trkpt lat="46.1522260" lon="12.4844680">
        <ele>1616.5900000</ele>
        <time>2010-09-27T11:52:56Z</time>
      </trkpt>
      <trkpt lat="46.1522060" lon="12.4844950">
        <ele>1617.5600000</ele>
        <time>2010-09-27T11:53:01Z</time>
      </trkpt>
      <trkpt lat="46.1521990" lon="12.4845200">
        <ele>1618.0400000</ele>
        <time>2010-09-27T11:53:07Z</time>
      </trkpt>
      <trkpt lat="46.1521810" lon="12.4845590">
        <ele>1619.0000000</ele>
        <time>2010-09-27T11:53:15Z</time>
      </trkpt>
      <trkpt lat="46.1521600" lon="12.4846010">
        <ele>1619.9600000</ele>
        <time>2010-09-27T11:53:20Z</time>
      </trkpt>
      <trkpt lat="46.1521610" lon="12.4846440">
        <ele>1620.4400000</ele>
        <time>2010-09-27T11:53:24Z</time>
      </trkpt>
      <trkpt lat="46.1521420" lon="12.4846880">
        <ele>1620.9200000</ele>
        <time>2010-09-27T11:53:31Z</time>
      </trkpt>
      <trkpt lat="46.1521400" lon="12.4847110">
        <ele>1621.4000000</ele>
        <time>2010-09-27T11:53:36Z</time>
      </trkpt>
      <trkpt lat="46.1521360" lon="12.4847780">
        <ele>1621.8800000</ele>
        <time>2010-09-27T11:53:43Z</time>
      </trkpt>
      <trkpt lat="46.1521360" lon="12.4848360">
        <ele>1622.8400000</ele>
        <time>2010-09-27T11:53:53Z</time>
      </trkpt>
      <trkpt lat="46.1521110" lon="12.4848660">
        <ele>1624.2800000</ele>
        <time>2010-09-27T11:54:05Z</time>
      </trkpt>
      <trkpt lat="46.1521100" lon="12.4848900">
        <ele>1624.7700000</ele>
        <time>2010-09-27T11:54:10Z</time>
      </trkpt>
      <trkpt lat="46.1521180" lon="12.4849250">
        <ele>1626.6900000</ele>
        <time>2010-09-27T11:54:20Z</time>
      </trkpt>
      <trkpt lat="46.1521200" lon="12.4849430">
        <ele>1626.6900000</ele>
        <time>2010-09-27T11:54:28Z</time>
      </trkpt>
      <trkpt lat="46.1521180" lon="12.4849770">
        <ele>1628.1300000</ele>
        <time>2010-09-27T11:54:35Z</time>
      </trkpt>
      <trkpt lat="46.1521190" lon="12.4850060">
        <ele>1629.0900000</ele>
        <time>2010-09-27T11:54:40Z</time>
      </trkpt>
      <trkpt lat="46.1521250" lon="12.4850240">
        <ele>1628.1300000</ele>
        <time>2010-09-27T11:54:48Z</time>
      </trkpt>
      <trkpt lat="46.1521250" lon="12.4850240">
        <ele>1628.6100000</ele>
        <time>2010-09-27T11:54:57Z</time>
      </trkpt>
      <trkpt lat="46.1521420" lon="12.4850750">
        <ele>1630.0500000</ele>
        <time>2010-09-27T11:55:03Z</time>
      </trkpt>
      <trkpt lat="46.1521590" lon="12.4851180">
        <ele>1629.5700000</ele>
        <time>2010-09-27T11:55:10Z</time>
      </trkpt>
      <trkpt lat="46.1521670" lon="12.4851410">
        <ele>1631.4900000</ele>
        <time>2010-09-27T11:55:21Z</time>
      </trkpt>
      <trkpt lat="46.1521670" lon="12.4851470">
        <ele>1631.4900000</ele>
        <time>2010-09-27T11:55:22Z</time>
      </trkpt>
      <trkpt lat="46.1521710" lon="12.4851640">
        <ele>1631.9800000</ele>
        <time>2010-09-27T11:55:26Z</time>
      </trkpt>
      <trkpt lat="46.1521860" lon="12.4852070">
        <ele>1632.4600000</ele>
        <time>2010-09-27T11:55:32Z</time>
      </trkpt>
      <trkpt lat="46.1522100" lon="12.4852640">
        <ele>1633.4200000</ele>
        <time>2010-09-27T11:55:37Z</time>
      </trkpt>
      <trkpt lat="46.1522200" lon="12.4852810">
        <ele>1633.4200000</ele>
        <time>2010-09-27T11:55:48Z</time>
      </trkpt>
      <trkpt lat="46.1522540" lon="12.4853340">
        <ele>1634.3800000</ele>
        <time>2010-09-27T11:55:55Z</time>
      </trkpt>
      <trkpt lat="46.1522760" lon="12.4853890">
        <ele>1634.3800000</ele>
        <time>2010-09-27T11:56:01Z</time>
      </trkpt>
      <trkpt lat="46.1522930" lon="12.4854320">
        <ele>1634.3800000</ele>
        <time>2010-09-27T11:56:05Z</time>
      </trkpt>
      <trkpt lat="46.1523120" lon="12.4854570">
        <ele>1635.3400000</ele>
        <time>2010-09-27T11:56:10Z</time>
      </trkpt>
      <trkpt lat="46.1523240" lon="12.4854730">
        <ele>1636.3000000</ele>
        <time>2010-09-27T11:56:14Z</time>
      </trkpt>
      <trkpt lat="46.1523370" lon="12.4855160">
        <ele>1636.3000000</ele>
        <time>2010-09-27T11:56:21Z</time>
      </trkpt>
      <trkpt lat="46.1523420" lon="12.4855390">
        <ele>1637.2600000</ele>
        <time>2010-09-27T11:56:25Z</time>
      </trkpt>
      <trkpt lat="46.1523590" lon="12.4855770">
        <ele>1637.7400000</ele>
        <time>2010-09-27T11:56:34Z</time>
      </trkpt>
      <trkpt lat="46.1523610" lon="12.4855920">
        <ele>1638.2200000</ele>
        <time>2010-09-27T11:56:39Z</time>
      </trkpt>
      <trkpt lat="46.1523640" lon="12.4856130">
        <ele>1639.1900000</ele>
        <time>2010-09-27T11:56:45Z</time>
      </trkpt>
      <trkpt lat="46.1523540" lon="12.4855620">
        <ele>1640.6300000</ele>
        <time>2010-09-27T11:57:02Z</time>
      </trkpt>
      <trkpt lat="46.1523120" lon="12.4855150">
        <ele>1642.0700000</ele>
        <time>2010-09-27T11:57:09Z</time>
      </trkpt>
      <trkpt lat="46.1523030" lon="12.4855430">
        <ele>1642.0700000</ele>
        <time>2010-09-27T11:57:15Z</time>
      </trkpt>
      <trkpt lat="46.1523050" lon="12.4856140">
        <ele>1642.5500000</ele>
        <time>2010-09-27T11:57:21Z</time>
      </trkpt>
      <trkpt lat="46.1522980" lon="12.4856410">
        <ele>1643.9900000</ele>
        <time>2010-09-27T11:57:28Z</time>
      </trkpt>
      <trkpt lat="46.1523010" lon="12.4856820">
        <ele>1643.9900000</ele>
        <time>2010-09-27T11:57:32Z</time>
      </trkpt>
      <trkpt lat="46.1523090" lon="12.4857070">
        <ele>1643.9900000</ele>
        <time>2010-09-27T11:57:37Z</time>
      </trkpt>
      <trkpt lat="46.1523190" lon="12.4857390">
        <ele>1644.9500000</ele>
        <time>2010-09-27T11:57:45Z</time>
      </trkpt>
      <trkpt lat="46.1523160" lon="12.4857760">
        <ele>1645.9100000</ele>
        <time>2010-09-27T11:57:52Z</time>
      </trkpt>
      <trkpt lat="46.1524120" lon="12.4858630">
        <ele>1648.3200000</ele>
        <time>2010-09-27T11:58:00Z</time>
      </trkpt>
      <trkpt lat="46.1524790" lon="12.4859180">
        <ele>1648.3200000</ele>
        <time>2010-09-27T11:58:05Z</time>
      </trkpt>
      <trkpt lat="46.1524750" lon="12.4859450">
        <ele>1649.7600000</ele>
        <time>2010-09-27T11:58:10Z</time>
      </trkpt>
      <trkpt lat="46.1524560" lon="12.4859780">
        <ele>1649.2800000</ele>
        <time>2010-09-27T11:58:15Z</time>
      </trkpt>
      <trkpt lat="46.1524400" lon="12.4860000">
        <ele>1650.2400000</ele>
        <time>2010-09-27T11:58:19Z</time>
      </trkpt>
      <trkpt lat="46.1524320" lon="12.4860020">
        <ele>1651.2000000</ele>
        <time>2010-09-27T11:58:24Z</time>
      </trkpt>
      <trkpt lat="46.1524340" lon="12.4860110">
        <ele>1651.2000000</ele>
        <time>2010-09-27T11:58:27Z</time>
      </trkpt>
      <trkpt lat="46.1523870" lon="12.4860070">
        <ele>1651.6800000</ele>
        <time>2010-09-27T11:58:32Z</time>
      </trkpt>
      <trkpt lat="46.1523470" lon="12.4860020">
        <ele>1651.6800000</ele>
        <time>2010-09-27T11:58:36Z</time>
      </trkpt>
      <trkpt lat="46.1523170" lon="12.4859910">
        <ele>1652.6400000</ele>
        <time>2010-09-27T11:58:42Z</time>
      </trkpt>
      <trkpt lat="46.1523170" lon="12.4859910">
        <ele>1652.6400000</ele>
        <time>2010-09-27T11:58:49Z</time>
      </trkpt>
      <trkpt lat="46.1523070" lon="12.4859880">
        <ele>1653.1200000</ele>
        <time>2010-09-27T11:58:50Z</time>
      </trkpt>
      <trkpt lat="46.1522650" lon="12.4859910">
        <ele>1654.0900000</ele>
        <time>2010-09-27T11:58:55Z</time>
      </trkpt>
      <trkpt lat="46.1522500" lon="12.4860390">
        <ele>1657.4500000</ele>
        <time>2010-09-27T11:59:20Z</time>
      </trkpt>
      <trkpt lat="46.1522400" lon="12.4860450">
        <ele>1656.4900000</ele>
        <time>2010-09-27T11:59:21Z</time>
      </trkpt>
      <trkpt lat="46.1522250" lon="12.4860460">
        <ele>1657.4500000</ele>
        <time>2010-09-27T11:59:22Z</time>
      </trkpt>
      <trkpt lat="46.1521960" lon="12.4860500">
        <ele>1656.9700000</ele>
        <time>2010-09-27T11:59:24Z</time>
      </trkpt>
      <trkpt lat="46.1521410" lon="12.4860950">
        <ele>1657.4500000</ele>
        <time>2010-09-27T11:59:29Z</time>
      </trkpt>
      <trkpt lat="46.1521080" lon="12.4861110">
        <ele>1658.8900000</ele>
        <time>2010-09-27T11:59:36Z</time>
      </trkpt>
      <trkpt lat="46.1520640" lon="12.4861230">
        <ele>1659.8500000</ele>
        <time>2010-09-27T11:59:43Z</time>
      </trkpt>
      <trkpt lat="46.1520270" lon="12.4861430">
        <ele>1660.3300000</ele>
        <time>2010-09-27T11:59:51Z</time>
      </trkpt>
      <trkpt lat="46.1520250" lon="12.4862730">
        <ele>1662.7400000</ele>
        <time>2010-09-27T12:00:17Z</time>
      </trkpt>
      <trkpt lat="46.1519820" lon="12.4862930">
        <ele>1664.6600000</ele>
        <time>2010-09-27T12:00:30Z</time>
      </trkpt>
      <trkpt lat="46.1520270" lon="12.4864190">
        <ele>1667.5400000</ele>
        <time>2010-09-27T12:01:00Z</time>
      </trkpt>
      <trkpt lat="46.1520380" lon="12.4864310">
        <ele>1667.5400000</ele>
        <time>2010-09-27T12:01:02Z</time>
      </trkpt>
      <trkpt lat="46.1523280" lon="12.4865620">
        <ele>1668.5100000</ele>
        <time>2010-09-27T12:01:09Z</time>
      </trkpt>
      <trkpt lat="46.1526760" lon="12.4866910">
        <ele>1668.5100000</ele>
        <time>2010-09-27T12:01:14Z</time>
      </trkpt>
      <trkpt lat="46.1530270" lon="12.4868700">
        <ele>1669.9500000</ele>
        <time>2010-09-27T12:01:20Z</time>
      </trkpt>
      <trkpt lat="46.1533380" lon="12.4870510">
        <ele>1670.9100000</ele>
        <time>2010-09-27T12:01:27Z</time>
      </trkpt>
      <trkpt lat="46.1533840" lon="12.4870910">
        <ele>1670.9100000</ele>
        <time>2010-09-27T12:01:31Z</time>
      </trkpt>
      <trkpt lat="46.1533520" lon="12.4871170">
        <ele>1671.8700000</ele>
        <time>2010-09-27T12:01:36Z</time>
      </trkpt>
      <trkpt lat="46.1532830" lon="12.4871040">
        <ele>1672.3500000</ele>
        <time>2010-09-27T12:01:40Z</time>
      </trkpt>
      <trkpt lat="46.1531580" lon="12.4870890">
        <ele>1672.8300000</ele>
        <time>2010-09-27T12:01:46Z</time>
      </trkpt>
      <trkpt lat="46.1530470" lon="12.4870800">
        <ele>1674.2700000</ele>
        <time>2010-09-27T12:01:52Z</time>
      </trkpt>
      <trkpt lat="46.1530200" lon="12.4870780">
        <ele>1674.2700000</ele>
        <time>2010-09-27T12:02:01Z</time>
      </trkpt>
      <trkpt lat="46.1529410" lon="12.4870510">
        <ele>1675.2300000</ele>
        <time>2010-09-27T12:02:11Z</time>
      </trkpt>
      <trkpt lat="46.1529380" lon="12.4869900">
        <ele>1676.6800000</ele>
        <time>2010-09-27T12:02:19Z</time>
      </trkpt>
      <trkpt lat="46.1530840" lon="12.4870360">
        <ele>1679.0800000</ele>
        <time>2010-09-27T12:02:40Z</time>
      </trkpt>
      <trkpt lat="46.1531390" lon="12.4870410">
        <ele>1679.0800000</ele>
        <time>2010-09-27T12:02:44Z</time>
      </trkpt>
      <trkpt lat="46.1532270" lon="12.4870540">
        <ele>1679.5600000</ele>
        <time>2010-09-27T12:02:49Z</time>
      </trkpt>
      <trkpt lat="46.1533220" lon="12.4871010">
        <ele>1681.0000000</ele>
        <time>2010-09-27T12:02:55Z</time>
      </trkpt>
      <trkpt lat="46.1534500" lon="12.4871290">
        <ele>1681.0000000</ele>
        <time>2010-09-27T12:03:00Z</time>
      </trkpt>
      <trkpt lat="46.1535730" lon="12.4872020">
        <ele>1682.4400000</ele>
        <time>2010-09-27T12:03:05Z</time>
      </trkpt>
      <trkpt lat="46.1537500" lon="12.4873450">
        <ele>1682.9300000</ele>
        <time>2010-09-27T12:03:10Z</time>
      </trkpt>
      <trkpt lat="46.1537470" lon="12.4873990">
        <ele>1684.8500000</ele>
        <time>2010-09-27T12:03:18Z</time>
      </trkpt>
      <trkpt lat="46.1534310" lon="12.4874190">
        <ele>1684.3700000</ele>
        <time>2010-09-27T12:03:26Z</time>
      </trkpt>
      <trkpt lat="46.1531190" lon="12.4873150">
        <ele>1685.3300000</ele>
        <time>2010-09-27T12:03:49Z</time>
      </trkpt>
      <trkpt lat="46.1530270" lon="12.4872800">
        <ele>1686.2900000</ele>
        <time>2010-09-27T12:03:57Z</time>
      </trkpt>
      <trkpt lat="46.1528980" lon="12.4872590">
        <ele>1687.7300000</ele>
        <time>2010-09-27T12:04:06Z</time>
      </trkpt>
      <trkpt lat="46.1527790" lon="12.4872260">
        <ele>1688.2100000</ele>
        <time>2010-09-27T12:04:12Z</time>
      </trkpt>
      <trkpt lat="46.1526950" lon="12.4871940">
        <ele>1688.2100000</ele>
        <time>2010-09-27T12:04:15Z</time>
      </trkpt>
      <trkpt lat="46.1526150" lon="12.4872010">
        <ele>1689.1700000</ele>
        <time>2010-09-27T12:04:20Z</time>
      </trkpt>
      <trkpt lat="46.1524920" lon="12.4871600">
        <ele>1689.1700000</ele>
        <time>2010-09-27T12:04:23Z</time>
      </trkpt>
      <trkpt lat="46.1523890" lon="12.4871130">
        <ele>1689.6500000</ele>
        <time>2010-09-27T12:04:31Z</time>
      </trkpt>
      <trkpt lat="46.1523590" lon="12.4870990">
        <ele>1689.6500000</ele>
        <time>2010-09-27T12:04:33Z</time>
      </trkpt>
      <trkpt lat="46.1522890" lon="12.4870940">
        <ele>1690.1400000</ele>
        <time>2010-09-27T12:04:38Z</time>
      </trkpt>
      <trkpt lat="46.1522580" lon="12.4870850">
        <ele>1691.5800000</ele>
        <time>2010-09-27T12:04:43Z</time>
      </trkpt>
      <trkpt lat="46.1522440" lon="12.4871130">
        <ele>1693.0200000</ele>
        <time>2010-09-27T12:04:53Z</time>
      </trkpt>
      <trkpt lat="46.1522310" lon="12.4871340">
        <ele>1693.9800000</ele>
        <time>2010-09-27T12:05:00Z</time>
      </trkpt>
      <trkpt lat="46.1523090" lon="12.4871650">
        <ele>1693.9800000</ele>
        <time>2010-09-27T12:05:07Z</time>
      </trkpt>
      <trkpt lat="46.1523590" lon="12.4871930">
        <ele>1697.3400000</ele>
        <time>2010-09-27T12:05:41Z</time>
      </trkpt>
      <trkpt lat="46.1523610" lon="12.4871830">
        <ele>1697.3400000</ele>
        <time>2010-09-27T12:05:47Z</time>
      </trkpt>
      <trkpt lat="46.1523520" lon="12.4871830">
        <ele>1698.7900000</ele>
        <time>2010-09-27T12:06:04Z</time>
      </trkpt>
      <trkpt lat="46.1522930" lon="12.4872230">
        <ele>1699.7500000</ele>
        <time>2010-09-27T12:06:16Z</time>
      </trkpt>
      <trkpt lat="46.1523430" lon="12.4873040">
        <ele>1701.6700000</ele>
        <time>2010-09-27T12:06:22Z</time>
      </trkpt>
      <trkpt lat="46.1522920" lon="12.4873260">
        <ele>1702.6300000</ele>
        <time>2010-09-27T12:06:29Z</time>
      </trkpt>
      <trkpt lat="46.1522600" lon="12.4873430">
        <ele>1702.1500000</ele>
        <time>2010-09-27T12:06:34Z</time>
      </trkpt>
      <trkpt lat="46.1522030" lon="12.4873360">
        <ele>1703.5900000</ele>
        <time>2010-09-27T12:06:41Z</time>
      </trkpt>
      <trkpt lat="46.1521110" lon="12.4873240">
        <ele>1704.5500000</ele>
        <time>2010-09-27T12:06:46Z</time>
      </trkpt>
      <trkpt lat="46.1520800" lon="12.4873380">
        <ele>1704.0700000</ele>
        <time>2010-09-27T12:06:49Z</time>
      </trkpt>
      <trkpt lat="46.1520400" lon="12.4873360">
        <ele>1705.5200000</ele>
        <time>2010-09-27T12:06:56Z</time>
      </trkpt>
      <trkpt lat="46.1520020" lon="12.4873340">
        <ele>1706.0000000</ele>
        <time>2010-09-27T12:07:00Z</time>
      </trkpt>
      <trkpt lat="46.1519670" lon="12.4873880">
        <ele>1706.4800000</ele>
        <time>2010-09-27T12:07:13Z</time>
      </trkpt>
      <trkpt lat="46.1520190" lon="12.4874200">
        <ele>1708.4000000</ele>
        <time>2010-09-27T12:07:22Z</time>
      </trkpt>
      <trkpt lat="46.1520560" lon="12.4874480">
        <ele>1710.3200000</ele>
        <time>2010-09-27T12:07:37Z</time>
      </trkpt>
      <trkpt lat="46.1521200" lon="12.4875030">
        <ele>1711.2800000</ele>
        <time>2010-09-27T12:07:44Z</time>
      </trkpt>
      <trkpt lat="46.1521990" lon="12.4875970">
        <ele>1712.7300000</ele>
        <time>2010-09-27T12:07:53Z</time>
      </trkpt>
      <trkpt lat="46.1519420" lon="12.4876670">
        <ele>1715.1300000</ele>
        <time>2010-09-27T12:08:19Z</time>
      </trkpt>
      <trkpt lat="46.1518170" lon="12.4876620">
        <ele>1715.1300000</ele>
        <time>2010-09-27T12:08:23Z</time>
      </trkpt>
      <trkpt lat="46.1517060" lon="12.4877010">
        <ele>1715.1300000</ele>
        <time>2010-09-27T12:08:30Z</time>
      </trkpt>
      <trkpt lat="46.1516470" lon="12.4876690">
        <ele>1715.1300000</ele>
        <time>2010-09-27T12:08:38Z</time>
      </trkpt>
      <trkpt lat="46.1516340" lon="12.4876790">
        <ele>1716.0900000</ele>
        <time>2010-09-27T12:08:43Z</time>
      </trkpt>
      <trkpt lat="46.1516080" lon="12.4876580">
        <ele>1716.5700000</ele>
        <time>2010-09-27T12:09:26Z</time>
      </trkpt>
      <trkpt lat="46.1516160" lon="12.4876500">
        <ele>1716.5700000</ele>
        <time>2010-09-27T12:11:12Z</time>
      </trkpt>
      <trkpt lat="46.1515970" lon="12.4876400">
        <ele>1716.5700000</ele>
        <time>2010-09-27T12:11:17Z</time>
      </trkpt>
      <trkpt lat="46.1515950" lon="12.4876310">
        <ele>1716.5700000</ele>
        <time>2010-09-27T12:11:31Z</time>
      </trkpt>
      <trkpt lat="46.1515920" lon="12.4876220">
        <ele>1715.6100000</ele>
        <time>2010-09-27T12:13:32Z</time>
      </trkpt>
      <trkpt lat="46.1515430" lon="12.4876270">
        <ele>1715.6100000</ele>
        <time>2010-09-27T12:13:38Z</time>
      </trkpt>
      <trkpt lat="46.1515150" lon="12.4876290">
        <ele>1715.6100000</ele>
        <time>2010-09-27T12:14:23Z</time>
      </trkpt>
      <trkpt lat="46.1514660" lon="12.4876430">
        <ele>1714.6500000</ele>
        <time>2010-09-27T12:14:28Z</time>
      </trkpt>
      <trkpt lat="46.1514220" lon="12.4876540">
        <ele>1713.6900000</ele>
        <time>2010-09-27T12:14:32Z</time>
      </trkpt>
      <trkpt lat="46.1513920" lon="12.4876890">
        <ele>1713.2100000</ele>
        <time>2010-09-27T12:14:37Z</time>
      </trkpt>
      <trkpt lat="46.1513340" lon="12.4877100">
        <ele>1712.2500000</ele>
        <time>2010-09-27T12:14:42Z</time>
      </trkpt>
      <trkpt lat="46.1513280" lon="12.4877120">
        <ele>1712.2500000</ele>
        <time>2010-09-27T12:14:44Z</time>
      </trkpt>
      <trkpt lat="46.1512690" lon="12.4877290">
        <ele>1712.7300000</ele>
        <time>2010-09-27T12:14:51Z</time>
      </trkpt>
      <trkpt lat="46.1512170" lon="12.4877290">
        <ele>1714.1700000</ele>
        <time>2010-09-27T12:15:02Z</time>
      </trkpt>
      <trkpt lat="46.1511760" lon="12.4877610">
        <ele>1713.6900000</ele>
        <time>2010-09-27T12:15:06Z</time>
      </trkpt>
      <trkpt lat="46.1511380" lon="12.4877880">
        <ele>1714.6500000</ele>
        <time>2010-09-27T12:15:12Z</time>
      </trkpt>
      <trkpt lat="46.1511150" lon="12.4877970">
        <ele>1714.6500000</ele>
        <time>2010-09-27T12:15:16Z</time>
      </trkpt>
      <trkpt lat="46.1510700" lon="12.4878470">
        <ele>1714.6500000</ele>
        <time>2010-09-27T12:15:21Z</time>
      </trkpt>
      <trkpt lat="46.1510470" lon="12.4878670">
        <ele>1713.6900000</ele>
        <time>2010-09-27T12:15:26Z</time>
      </trkpt>
      <trkpt lat="46.1510430" lon="12.4878770">
        <ele>1713.6900000</ele>
        <time>2010-09-27T12:15:28Z</time>
      </trkpt>
      <trkpt lat="46.1509900" lon="12.4879630">
        <ele>1713.6900000</ele>
        <time>2010-09-27T12:15:34Z</time>
      </trkpt>
      <trkpt lat="46.1509720" lon="12.4880050">
        <ele>1714.1700000</ele>
        <time>2010-09-27T12:15:39Z</time>
      </trkpt>
      <trkpt lat="46.1509370" lon="12.4880430">
        <ele>1714.6500000</ele>
        <time>2010-09-27T12:15:44Z</time>
      </trkpt>
      <trkpt lat="46.1509030" lon="12.4880570">
        <ele>1714.6500000</ele>
        <time>2010-09-27T12:15:47Z</time>
      </trkpt>
      <trkpt lat="46.1508410" lon="12.4880590">
        <ele>1714.6500000</ele>
        <time>2010-09-27T12:15:54Z</time>
      </trkpt>
      <trkpt lat="46.1508070" lon="12.4880830">
        <ele>1714.6500000</ele>
        <time>2010-09-27T12:15:59Z</time>
      </trkpt>
      <trkpt lat="46.1507710" lon="12.4881050">
        <ele>1714.6500000</ele>
        <time>2010-09-27T12:16:04Z</time>
      </trkpt>
      <trkpt lat="46.1507390" lon="12.4881060">
        <ele>1715.1300000</ele>
        <time>2010-09-27T12:16:08Z</time>
      </trkpt>
      <trkpt lat="46.1507040" lon="12.4880920">
        <ele>1715.6100000</ele>
        <time>2010-09-27T12:16:16Z</time>
      </trkpt>
      <trkpt lat="46.1506550" lon="12.4880780">
        <ele>1716.5700000</ele>
        <time>2010-09-27T12:16:22Z</time>
      </trkpt>
      <trkpt lat="46.1506460" lon="12.4880870">
        <ele>1716.5700000</ele>
        <time>2010-09-27T12:16:27Z</time>
      </trkpt>
      <trkpt lat="46.1505970" lon="12.4881110">
        <ele>1717.0500000</ele>
        <time>2010-09-27T12:16:35Z</time>
      </trkpt>
      <trkpt lat="46.1505840" lon="12.4881400">
        <ele>1717.5300000</ele>
        <time>2010-09-27T12:16:40Z</time>
      </trkpt>
      <trkpt lat="46.1505660" lon="12.4881260">
        <ele>1718.0100000</ele>
        <time>2010-09-27T12:16:48Z</time>
      </trkpt>
      <trkpt lat="46.1505340" lon="12.4881170">
        <ele>1718.9700000</ele>
        <time>2010-09-27T12:16:54Z</time>
      </trkpt>
      <trkpt lat="46.1504930" lon="12.4881020">
        <ele>1718.9700000</ele>
        <time>2010-09-27T12:16:58Z</time>
      </trkpt>
      <trkpt lat="46.1504770" lon="12.4881000">
        <ele>1718.9700000</ele>
        <time>2010-09-27T12:17:03Z</time>
      </trkpt>
      <trkpt lat="46.1504400" lon="12.4881170">
        <ele>1720.4200000</ele>
        <time>2010-09-27T12:17:10Z</time>
      </trkpt>
      <trkpt lat="46.1504150" lon="12.4880790">
        <ele>1723.7800000</ele>
        <time>2010-09-27T12:17:34Z</time>
      </trkpt>
      <trkpt lat="46.1503940" lon="12.4880910">
        <ele>1724.2600000</ele>
        <time>2010-09-27T12:17:41Z</time>
      </trkpt>
      <trkpt lat="46.1503350" lon="12.4880940">
        <ele>1726.6700000</ele>
        <time>2010-09-27T12:17:58Z</time>
      </trkpt>
      <trkpt lat="46.1503110" lon="12.4881030">
        <ele>1730.0300000</ele>
        <time>2010-09-27T12:18:20Z</time>
      </trkpt>
      <trkpt lat="46.1502560" lon="12.4881240">
        <ele>1730.5100000</ele>
        <time>2010-09-27T12:18:31Z</time>
      </trkpt>
      <trkpt lat="46.1502010" lon="12.4881360">
        <ele>1733.3900000</ele>
        <time>2010-09-27T12:18:52Z</time>
      </trkpt>
      <trkpt lat="46.1501780" lon="12.4881350">
        <ele>1734.3600000</ele>
        <time>2010-09-27T12:18:58Z</time>
      </trkpt>
      <trkpt lat="46.1501630" lon="12.4881320">
        <ele>1735.8000000</ele>
        <time>2010-09-27T12:19:07Z</time>
      </trkpt>
      <trkpt lat="46.1500160" lon="12.4881350">
        <ele>1736.7600000</ele>
        <time>2010-09-27T12:19:26Z</time>
      </trkpt>
      <trkpt lat="46.1499880" lon="12.4881320">
        <ele>1737.7200000</ele>
        <time>2010-09-27T12:19:32Z</time>
      </trkpt>
      <trkpt lat="46.1499720" lon="12.4881320">
        <ele>1738.2000000</ele>
        <time>2010-09-27T12:19:37Z</time>
      </trkpt>
      <trkpt lat="46.1499550" lon="12.4881320">
        <ele>1738.6800000</ele>
        <time>2010-09-27T12:19:42Z</time>
      </trkpt>
      <trkpt lat="46.1499400" lon="12.4881330">
        <ele>1739.6400000</ele>
        <time>2010-09-27T12:19:47Z</time>
      </trkpt>
      <trkpt lat="46.1499090" lon="12.4881470">
        <ele>1739.6400000</ele>
        <time>2010-09-27T12:19:53Z</time>
      </trkpt>
      <trkpt lat="46.1498710" lon="12.4881620">
        <ele>1740.6000000</ele>
        <time>2010-09-27T12:20:00Z</time>
      </trkpt>
      <trkpt lat="46.1498250" lon="12.4881790">
        <ele>1742.5300000</ele>
        <time>2010-09-27T12:20:15Z</time>
      </trkpt>
      <trkpt lat="46.1497720" lon="12.4881890">
        <ele>1743.0100000</ele>
        <time>2010-09-27T12:20:22Z</time>
      </trkpt>
      <trkpt lat="46.1497600" lon="12.4882110">
        <ele>1743.9700000</ele>
        <time>2010-09-27T12:20:27Z</time>
      </trkpt>
      <trkpt lat="46.1497300" lon="12.4882110">
        <ele>1743.9700000</ele>
        <time>2010-09-27T12:20:32Z</time>
      </trkpt>
      <trkpt lat="46.1496960" lon="12.4882210">
        <ele>1744.4500000</ele>
        <time>2010-09-27T12:20:39Z</time>
      </trkpt>
      <trkpt lat="46.1496500" lon="12.4882370">
        <ele>1745.8900000</ele>
        <time>2010-09-27T12:20:46Z</time>
      </trkpt>
      <trkpt lat="46.1495690" lon="12.4882580">
        <ele>1745.8900000</ele>
        <time>2010-09-27T12:21:00Z</time>
      </trkpt>
      <trkpt lat="46.1495180" lon="12.4882830">
        <ele>1748.2900000</ele>
        <time>2010-09-27T12:21:11Z</time>
      </trkpt>
      <trkpt lat="46.1494830" lon="12.4882750">
        <ele>1749.7400000</ele>
        <time>2010-09-27T12:21:21Z</time>
      </trkpt>
      <trkpt lat="46.1494400" lon="12.4882760">
        <ele>1749.7400000</ele>
        <time>2010-09-27T12:21:28Z</time>
      </trkpt>
      <trkpt lat="46.1494070" lon="12.4882800">
        <ele>1749.7400000</ele>
        <time>2010-09-27T12:21:35Z</time>
      </trkpt>
      <trkpt lat="46.1493650" lon="12.4882910">
        <ele>1750.2200000</ele>
        <time>2010-09-27T12:21:44Z</time>
      </trkpt>
      <trkpt lat="46.1493400" lon="12.4882950">
        <ele>1749.7400000</ele>
        <time>2010-09-27T12:21:48Z</time>
      </trkpt>
      <trkpt lat="46.1492790" lon="12.4882930">
        <ele>1749.7400000</ele>
        <time>2010-09-27T12:21:53Z</time>
      </trkpt>
      <trkpt lat="46.1492430" lon="12.4882910">
        <ele>1749.7400000</ele>
        <time>2010-09-27T12:21:57Z</time>
      </trkpt>
      <trkpt lat="46.1492020" lon="12.4882940">
        <ele>1750.7000000</ele>
        <time>2010-09-27T12:22:04Z</time>
      </trkpt>
      <trkpt lat="46.1491810" lon="12.4883140">
        <ele>1750.2200000</ele>
        <time>2010-09-27T12:22:08Z</time>
      </trkpt>
      <trkpt lat="46.1491650" lon="12.4883300">
        <ele>1751.1800000</ele>
        <time>2010-09-27T12:22:12Z</time>
      </trkpt>
      <trkpt lat="46.1491110" lon="12.4883800">
        <ele>1749.7400000</ele>
        <time>2010-09-27T12:22:27Z</time>
      </trkpt>
      <trkpt lat="46.1491080" lon="12.4883820">
        <ele>1750.2200000</ele>
        <time>2010-09-27T12:22:28Z</time>
      </trkpt>
      <trkpt lat="46.1490720" lon="12.4883910">
        <ele>1748.7800000</ele>
        <time>2010-09-27T12:22:35Z</time>
      </trkpt>
      <trkpt lat="46.1490740" lon="12.4884080">
        <ele>1748.2900000</ele>
        <time>2010-09-27T12:22:45Z</time>
      </trkpt>
      <trkpt lat="46.1490520" lon="12.4884140">
        <ele>1748.7800000</ele>
        <time>2010-09-27T12:24:04Z</time>
      </trkpt>
      <trkpt lat="46.1490660" lon="12.4884350">
        <ele>1748.2900000</ele>
        <time>2010-09-27T12:24:11Z</time>
      </trkpt>
      <trkpt lat="46.1490620" lon="12.4884390">
        <ele>1748.2900000</ele>
        <time>2010-09-27T12:24:16Z</time>
      </trkpt>
      <trkpt lat="46.1490630" lon="12.4884050">
        <ele>1747.8100000</ele>
        <time>2010-09-27T12:28:04Z</time>
      </trkpt>
      <trkpt lat="46.1490140" lon="12.4884120">
        <ele>1746.8500000</ele>
        <time>2010-09-27T12:28:11Z</time>
      </trkpt>
      <trkpt lat="46.1490000" lon="12.4884060">
        <ele>1745.4100000</ele>
        <time>2010-09-27T12:28:19Z</time>
      </trkpt>
      <trkpt lat="46.1489500" lon="12.4884090">
        <ele>1744.4500000</ele>
        <time>2010-09-27T12:28:27Z</time>
      </trkpt>
      <trkpt lat="46.1489370" lon="12.4884400">
        <ele>1743.4900000</ele>
        <time>2010-09-27T12:28:35Z</time>
      </trkpt>
      <trkpt lat="46.1488990" lon="12.4884470">
        <ele>1743.0100000</ele>
        <time>2010-09-27T12:28:41Z</time>
      </trkpt>
      <trkpt lat="46.1488740" lon="12.4884730">
        <ele>1742.5300000</ele>
        <time>2010-09-27T12:28:46Z</time>
      </trkpt>
      <trkpt lat="46.1488300" lon="12.4885010">
        <ele>1742.0500000</ele>
        <time>2010-09-27T12:28:52Z</time>
      </trkpt>
      <trkpt lat="46.1487880" lon="12.4885300">
        <ele>1742.5300000</ele>
        <time>2010-09-27T12:28:56Z</time>
      </trkpt>
      <trkpt lat="46.1487710" lon="12.4885360">
        <ele>1742.5300000</ele>
        <time>2010-09-27T12:29:02Z</time>
      </trkpt>
      <trkpt lat="46.1487510" lon="12.4885380">
        <ele>1741.0800000</ele>
        <time>2010-09-27T12:29:08Z</time>
      </trkpt>
      <trkpt lat="46.1487310" lon="12.4885410">
        <ele>1741.0800000</ele>
        <time>2010-09-27T12:29:10Z</time>
      </trkpt>
      <trkpt lat="46.1487020" lon="12.4885540">
        <ele>1740.1200000</ele>
        <time>2010-09-27T12:29:16Z</time>
      </trkpt>
      <trkpt lat="46.1486580" lon="12.4885520">
        <ele>1739.1600000</ele>
        <time>2010-09-27T12:29:22Z</time>
      </trkpt>
      <trkpt lat="46.1486220" lon="12.4885540">
        <ele>1738.6800000</ele>
        <time>2010-09-27T12:29:28Z</time>
      </trkpt>
      <trkpt lat="46.1485710" lon="12.4885670">
        <ele>1738.2000000</ele>
        <time>2010-09-27T12:29:33Z</time>
      </trkpt>
      <trkpt lat="46.1485300" lon="12.4885910">
        <ele>1739.1600000</ele>
        <time>2010-09-27T12:29:38Z</time>
      </trkpt>
      <trkpt lat="46.1484710" lon="12.4886270">
        <ele>1738.2000000</ele>
        <time>2010-09-27T12:29:43Z</time>
      </trkpt>
      <trkpt lat="46.1484270" lon="12.4886580">
        <ele>1737.2400000</ele>
        <time>2010-09-27T12:29:48Z</time>
      </trkpt>
      <trkpt lat="46.1483880" lon="12.4886360">
        <ele>1736.7600000</ele>
        <time>2010-09-27T12:29:53Z</time>
      </trkpt>
      <trkpt lat="46.1483820" lon="12.4886520">
        <ele>1736.2800000</ele>
        <time>2010-09-27T12:29:56Z</time>
      </trkpt>
      <trkpt lat="46.1483470" lon="12.4886780">
        <ele>1736.2800000</ele>
        <time>2010-09-27T12:30:01Z</time>
      </trkpt>
      <trkpt lat="46.1482670" lon="12.4887220">
        <ele>1736.2800000</ele>
        <time>2010-09-27T12:30:07Z</time>
      </trkpt>
      <trkpt lat="46.1482500" lon="12.4887560">
        <ele>1736.2800000</ele>
        <time>2010-09-27T12:30:12Z</time>
      </trkpt>
      <trkpt lat="46.1482130" lon="12.4887880">
        <ele>1736.7600000</ele>
        <time>2010-09-27T12:30:18Z</time>
      </trkpt>
      <trkpt lat="46.1482110" lon="12.4887920">
        <ele>1736.7600000</ele>
        <time>2010-09-27T12:30:19Z</time>
      </trkpt>
      <trkpt lat="46.1481550" lon="12.4888030">
        <ele>1736.2800000</ele>
        <time>2010-09-27T12:30:26Z</time>
      </trkpt>
      <trkpt lat="46.1481500" lon="12.4888330">
        <ele>1734.8400000</ele>
        <time>2010-09-27T12:30:32Z</time>
      </trkpt>
      <trkpt lat="46.1481170" lon="12.4888500">
        <ele>1734.8400000</ele>
        <time>2010-09-27T12:30:39Z</time>
      </trkpt>
      <trkpt lat="46.1481050" lon="12.4888840">
        <ele>1731.9500000</ele>
        <time>2010-09-27T12:30:52Z</time>
      </trkpt>
      <trkpt lat="46.1480790" lon="12.4888850">
        <ele>1731.4700000</ele>
        <time>2010-09-27T12:30:57Z</time>
      </trkpt>
      <trkpt lat="46.1480430" lon="12.4888950">
        <ele>1731.4700000</ele>
        <time>2010-09-27T12:31:02Z</time>
      </trkpt>
      <trkpt lat="46.1480100" lon="12.4888970">
        <ele>1730.0300000</ele>
        <time>2010-09-27T12:31:06Z</time>
      </trkpt>
      <trkpt lat="46.1479840" lon="12.4889100">
        <ele>1729.5500000</ele>
        <time>2010-09-27T12:31:09Z</time>
      </trkpt>
      <trkpt lat="46.1479560" lon="12.4889450">
        <ele>1729.0700000</ele>
        <time>2010-09-27T12:31:13Z</time>
      </trkpt>
      <trkpt lat="46.1478740" lon="12.4889640">
        <ele>1728.1100000</ele>
        <time>2010-09-27T12:31:20Z</time>
      </trkpt>
      <trkpt lat="46.1478390" lon="12.4889670">
        <ele>1727.1500000</ele>
        <time>2010-09-27T12:31:26Z</time>
      </trkpt>
      <trkpt lat="46.1478270" lon="12.4889670">
        <ele>1726.6700000</ele>
        <time>2010-09-27T12:31:27Z</time>
      </trkpt>
      <trkpt lat="46.1477800" lon="12.4889300">
        <ele>1726.1800000</ele>
        <time>2010-09-27T12:31:36Z</time>
      </trkpt>
      <trkpt lat="46.1477430" lon="12.4889280">
        <ele>1725.7000000</ele>
        <time>2010-09-27T12:31:42Z</time>
      </trkpt>
      <trkpt lat="46.1476750" lon="12.4889280">
        <ele>1722.8200000</ele>
        <time>2010-09-27T12:32:04Z</time>
      </trkpt>
      <trkpt lat="46.1476400" lon="12.4889640">
        <ele>1722.8200000</ele>
        <time>2010-09-27T12:32:10Z</time>
      </trkpt>
      <trkpt lat="46.1476120" lon="12.4889960">
        <ele>1721.8600000</ele>
        <time>2010-09-27T12:32:17Z</time>
      </trkpt>
      <trkpt lat="46.1475860" lon="12.4890440">
        <ele>1719.9400000</ele>
        <time>2010-09-27T12:32:23Z</time>
      </trkpt>
      <trkpt lat="46.1475530" lon="12.4890410">
        <ele>1718.9700000</ele>
        <time>2010-09-27T12:32:27Z</time>
      </trkpt>
      <trkpt lat="46.1474950" lon="12.4890770">
        <ele>1716.5700000</ele>
        <time>2010-09-27T12:32:35Z</time>
      </trkpt>
      <trkpt lat="46.1474800" lon="12.4891180">
        <ele>1716.0900000</ele>
        <time>2010-09-27T12:32:40Z</time>
      </trkpt>
      <trkpt lat="46.1474640" lon="12.4891650">
        <ele>1714.6500000</ele>
        <time>2010-09-27T12:32:47Z</time>
      </trkpt>
      <trkpt lat="46.1474550" lon="12.4891910">
        <ele>1714.6500000</ele>
        <time>2010-09-27T12:32:50Z</time>
      </trkpt>
      <trkpt lat="46.1474460" lon="12.4892620">
        <ele>1713.6900000</ele>
        <time>2010-09-27T12:32:57Z</time>
      </trkpt>
      <trkpt lat="46.1474330" lon="12.4892880">
        <ele>1713.6900000</ele>
        <time>2010-09-27T12:33:00Z</time>
      </trkpt>
      <trkpt lat="46.1473690" lon="12.4893350">
        <ele>1713.6900000</ele>
        <time>2010-09-27T12:33:08Z</time>
      </trkpt>
      <trkpt lat="46.1473500" lon="12.4893410">
        <ele>1713.2100000</ele>
        <time>2010-09-27T12:33:11Z</time>
      </trkpt>
      <trkpt lat="46.1472840" lon="12.4893600">
        <ele>1712.7300000</ele>
        <time>2010-09-27T12:33:16Z</time>
      </trkpt>
      <trkpt lat="46.1472110" lon="12.4893790">
        <ele>1713.2100000</ele>
        <time>2010-09-27T12:33:24Z</time>
      </trkpt>
      <trkpt lat="46.1471800" lon="12.4893850">
        <ele>1713.2100000</ele>
        <time>2010-09-27T12:33:29Z</time>
      </trkpt>
      <trkpt lat="46.1471520" lon="12.4894180">
        <ele>1713.2100000</ele>
        <time>2010-09-27T12:33:35Z</time>
      </trkpt>
      <trkpt lat="46.1471310" lon="12.4894610">
        <ele>1712.7300000</ele>
        <time>2010-09-27T12:33:40Z</time>
      </trkpt>
      <trkpt lat="46.1470810" lon="12.4894630">
        <ele>1712.7300000</ele>
        <time>2010-09-27T12:33:45Z</time>
      </trkpt>
      <trkpt lat="46.1470540" lon="12.4894790">
        <ele>1713.2100000</ele>
        <time>2010-09-27T12:33:49Z</time>
      </trkpt>
      <trkpt lat="46.1470150" lon="12.4894750">
        <ele>1713.6900000</ele>
        <time>2010-09-27T12:33:53Z</time>
      </trkpt>
      <trkpt lat="46.1469730" lon="12.4894930">
        <ele>1713.2100000</ele>
        <time>2010-09-27T12:34:00Z</time>
      </trkpt>
      <trkpt lat="46.1469370" lon="12.4895080">
        <ele>1713.2100000</ele>
        <time>2010-09-27T12:34:05Z</time>
      </trkpt>
      <trkpt lat="46.1468950" lon="12.4895170">
        <ele>1714.1700000</ele>
        <time>2010-09-27T12:34:11Z</time>
      </trkpt>
      <trkpt lat="46.1468660" lon="12.4895460">
        <ele>1713.6900000</ele>
        <time>2010-09-27T12:34:16Z</time>
      </trkpt>
      <trkpt lat="46.1468460" lon="12.4895490">
        <ele>1715.6100000</ele>
        <time>2010-09-27T12:34:20Z</time>
      </trkpt>
      <trkpt lat="46.1468330" lon="12.4895490">
        <ele>1715.6100000</ele>
        <time>2010-09-27T12:34:22Z</time>
      </trkpt>
      <trkpt lat="46.1468070" lon="12.4895690">
        <ele>1716.0900000</ele>
        <time>2010-09-27T12:34:27Z</time>
      </trkpt>
      <trkpt lat="46.1467980" lon="12.4895830">
        <ele>1716.5700000</ele>
        <time>2010-09-27T12:34:30Z</time>
      </trkpt>
      <trkpt lat="46.1467840" lon="12.4896300">
        <ele>1717.0500000</ele>
        <time>2010-09-27T12:34:37Z</time>
      </trkpt>
      <trkpt lat="46.1467670" lon="12.4896660">
        <ele>1718.0100000</ele>
        <time>2010-09-27T12:34:41Z</time>
      </trkpt>
      <trkpt lat="46.1467450" lon="12.4896890">
        <ele>1718.0100000</ele>
        <time>2010-09-27T12:34:46Z</time>
      </trkpt>
      <trkpt lat="46.1467050" lon="12.4897060">
        <ele>1718.0100000</ele>
        <time>2010-09-27T12:34:53Z</time>
      </trkpt>
      <trkpt lat="46.1466840" lon="12.4897080">
        <ele>1718.9700000</ele>
        <time>2010-09-27T12:34:58Z</time>
      </trkpt>
      <trkpt lat="46.1466330" lon="12.4896820">
        <ele>1719.4600000</ele>
        <time>2010-09-27T12:35:03Z</time>
      </trkpt>
      <trkpt lat="46.1466150" lon="12.4896990">
        <ele>1720.4200000</ele>
        <time>2010-09-27T12:35:09Z</time>
      </trkpt>
      <trkpt lat="46.1466040" lon="12.4897210">
        <ele>1720.4200000</ele>
        <time>2010-09-27T12:35:15Z</time>
      </trkpt>
      <trkpt lat="46.1465580" lon="12.4897680">
        <ele>1721.3800000</ele>
        <time>2010-09-27T12:35:20Z</time>
      </trkpt>
      <trkpt lat="46.1465300" lon="12.4898020">
        <ele>1721.8600000</ele>
        <time>2010-09-27T12:35:25Z</time>
      </trkpt>
      <trkpt lat="46.1464770" lon="12.4898320">
        <ele>1721.3800000</ele>
        <time>2010-09-27T12:35:31Z</time>
      </trkpt>
      <trkpt lat="46.1464590" lon="12.4898420">
        <ele>1721.3800000</ele>
        <time>2010-09-27T12:35:34Z</time>
      </trkpt>
      <trkpt lat="46.1464320" lon="12.4898650">
        <ele>1722.8200000</ele>
        <time>2010-09-27T12:35:40Z</time>
      </trkpt>
      <trkpt lat="46.1464160" lon="12.4898780">
        <ele>1722.8200000</ele>
        <time>2010-09-27T12:35:42Z</time>
      </trkpt>
      <trkpt lat="46.1463600" lon="12.4898670">
        <ele>1722.3400000</ele>
        <time>2010-09-27T12:35:47Z</time>
      </trkpt>
      <trkpt lat="46.1463300" lon="12.4898960">
        <ele>1722.8200000</ele>
        <time>2010-09-27T12:35:52Z</time>
      </trkpt>
      <trkpt lat="46.1463190" lon="12.4898940">
        <ele>1723.3000000</ele>
        <time>2010-09-27T12:35:57Z</time>
      </trkpt>
      <trkpt lat="46.1462980" lon="12.4899150">
        <ele>1724.7400000</ele>
        <time>2010-09-27T12:36:03Z</time>
      </trkpt>
      <trkpt lat="46.1462530" lon="12.4899050">
        <ele>1725.2200000</ele>
        <time>2010-09-27T12:36:11Z</time>
      </trkpt>
      <trkpt lat="46.1462310" lon="12.4899190">
        <ele>1726.1800000</ele>
        <time>2010-09-27T12:36:18Z</time>
      </trkpt>
      <trkpt lat="46.1462060" lon="12.4899400">
        <ele>1726.6700000</ele>
        <time>2010-09-27T12:36:23Z</time>
      </trkpt>
      <trkpt lat="46.1461920" lon="12.4899550">
        <ele>1726.6700000</ele>
        <time>2010-09-27T12:36:26Z</time>
      </trkpt>
      <trkpt lat="46.1461560" lon="12.4899560">
        <ele>1727.1500000</ele>
        <time>2010-09-27T12:36:33Z</time>
      </trkpt>
      <trkpt lat="46.1461430" lon="12.4899700">
        <ele>1727.1500000</ele>
        <time>2010-09-27T12:36:39Z</time>
      </trkpt>
      <trkpt lat="46.1461290" lon="12.4899910">
        <ele>1728.5900000</ele>
        <time>2010-09-27T12:36:44Z</time>
      </trkpt>
      <trkpt lat="46.1461220" lon="12.4900070">
        <ele>1728.1100000</ele>
        <time>2010-09-27T12:36:48Z</time>
      </trkpt>
      <trkpt lat="46.1460700" lon="12.4899910">
        <ele>1729.0700000</ele>
        <time>2010-09-27T12:36:53Z</time>
      </trkpt>
      <trkpt lat="46.1460170" lon="12.4899730">
        <ele>1729.0700000</ele>
        <time>2010-09-27T12:36:59Z</time>
      </trkpt>
      <trkpt lat="46.1459860" lon="12.4899810">
        <ele>1730.0300000</ele>
        <time>2010-09-27T12:37:04Z</time>
      </trkpt>
      <trkpt lat="46.1459410" lon="12.4899940">
        <ele>1730.9900000</ele>
        <time>2010-09-27T12:37:12Z</time>
      </trkpt>
      <trkpt lat="46.1459240" lon="12.4900130">
        <ele>1730.9900000</ele>
        <time>2010-09-27T12:37:16Z</time>
      </trkpt>
      <trkpt lat="46.1458930" lon="12.4900350">
        <ele>1731.9500000</ele>
        <time>2010-09-27T12:37:21Z</time>
      </trkpt>
      <trkpt lat="46.1458480" lon="12.4900510">
        <ele>1731.9500000</ele>
        <time>2010-09-27T12:37:27Z</time>
      </trkpt>
      <trkpt lat="46.1457800" lon="12.4900640">
        <ele>1732.9100000</ele>
        <time>2010-09-27T12:37:34Z</time>
      </trkpt>
      <trkpt lat="46.1457190" lon="12.4900880">
        <ele>1732.9100000</ele>
        <time>2010-09-27T12:37:40Z</time>
      </trkpt>
      <trkpt lat="46.1456880" lon="12.4900790">
        <ele>1732.9100000</ele>
        <time>2010-09-27T12:37:46Z</time>
      </trkpt>
      <trkpt lat="46.1456510" lon="12.4900810">
        <ele>1733.8800000</ele>
        <time>2010-09-27T12:37:51Z</time>
      </trkpt>
      <trkpt lat="46.1456330" lon="12.4900790">
        <ele>1733.8800000</ele>
        <time>2010-09-27T12:37:56Z</time>
      </trkpt>
      <trkpt lat="46.1456080" lon="12.4900810">
        <ele>1735.3200000</ele>
        <time>2010-09-27T12:38:01Z</time>
      </trkpt>
      <trkpt lat="46.1455820" lon="12.4900820">
        <ele>1735.8000000</ele>
        <time>2010-09-27T12:38:06Z</time>
      </trkpt>
      <trkpt lat="46.1455470" lon="12.4900730">
        <ele>1735.8000000</ele>
        <time>2010-09-27T12:38:11Z</time>
      </trkpt>
      <trkpt lat="46.1455080" lon="12.4901020">
        <ele>1736.7600000</ele>
        <time>2010-09-27T12:38:16Z</time>
      </trkpt>
      <trkpt lat="46.1454710" lon="12.4900890">
        <ele>1736.2800000</ele>
        <time>2010-09-27T12:38:21Z</time>
      </trkpt>
      <trkpt lat="46.1454300" lon="12.4900960">
        <ele>1736.7600000</ele>
        <time>2010-09-27T12:38:25Z</time>
      </trkpt>
      <trkpt lat="46.1453940" lon="12.4900940">
        <ele>1737.7200000</ele>
        <time>2010-09-27T12:38:31Z</time>
      </trkpt>
      <trkpt lat="46.1453400" lon="12.4900870">
        <ele>1737.7200000</ele>
        <time>2010-09-27T12:38:37Z</time>
      </trkpt>
      <trkpt lat="46.1453170" lon="12.4900860">
        <ele>1738.2000000</ele>
        <time>2010-09-27T12:38:41Z</time>
      </trkpt>
      <trkpt lat="46.1452760" lon="12.4900780">
        <ele>1738.6800000</ele>
        <time>2010-09-27T12:38:46Z</time>
      </trkpt>
      <trkpt lat="46.1452440" lon="12.4900850">
        <ele>1738.2000000</ele>
        <time>2010-09-27T12:38:50Z</time>
      </trkpt>
      <trkpt lat="46.1451980" lon="12.4900720">
        <ele>1738.6800000</ele>
        <time>2010-09-27T12:38:57Z</time>
      </trkpt>
      <trkpt lat="46.1451780" lon="12.4900840">
        <ele>1739.1600000</ele>
        <time>2010-09-27T12:39:02Z</time>
      </trkpt>
      <trkpt lat="46.1451170" lon="12.4900710">
        <ele>1739.1600000</ele>
        <time>2010-09-27T12:39:06Z</time>
      </trkpt>
      <trkpt lat="46.1450760" lon="12.4900560">
        <ele>1739.6400000</ele>
        <time>2010-09-27T12:39:11Z</time>
      </trkpt>
      <trkpt lat="46.1450480" lon="12.4900520">
        <ele>1740.1200000</ele>
        <time>2010-09-27T12:39:16Z</time>
      </trkpt>
      <trkpt lat="46.1450340" lon="12.4900460">
        <ele>1741.0800000</ele>
        <time>2010-09-27T12:39:21Z</time>
      </trkpt>
      <trkpt lat="46.1450080" lon="12.4900350">
        <ele>1741.5700000</ele>
        <time>2010-09-27T12:39:26Z</time>
      </trkpt>
      <trkpt lat="46.1449740" lon="12.4900260">
        <ele>1742.0500000</ele>
        <time>2010-09-27T12:39:34Z</time>
      </trkpt>
      <trkpt lat="46.1449360" lon="12.4900170">
        <ele>1742.0500000</ele>
        <time>2010-09-27T12:39:39Z</time>
      </trkpt>
      <trkpt lat="46.1448650" lon="12.4900080">
        <ele>1742.5300000</ele>
        <time>2010-09-27T12:39:46Z</time>
      </trkpt>
      <trkpt lat="46.1448330" lon="12.4899870">
        <ele>1742.5300000</ele>
        <time>2010-09-27T12:39:50Z</time>
      </trkpt>
      <trkpt lat="46.1448030" lon="12.4899610">
        <ele>1743.0100000</ele>
        <time>2010-09-27T12:39:54Z</time>
      </trkpt>
      <trkpt lat="46.1447800" lon="12.4899620">
        <ele>1743.0100000</ele>
        <time>2010-09-27T12:39:56Z</time>
      </trkpt>
      <trkpt lat="46.1447380" lon="12.4899850">
        <ele>1743.9700000</ele>
        <time>2010-09-27T12:40:03Z</time>
      </trkpt>
      <trkpt lat="46.1446960" lon="12.4900070">
        <ele>1745.4100000</ele>
        <time>2010-09-27T12:40:10Z</time>
      </trkpt>
      <trkpt lat="46.1446730" lon="12.4900130">
        <ele>1745.8900000</ele>
        <time>2010-09-27T12:40:15Z</time>
      </trkpt>
      <trkpt lat="46.1446510" lon="12.4900370">
        <ele>1745.8900000</ele>
        <time>2010-09-27T12:40:20Z</time>
      </trkpt>
      <trkpt lat="46.1446270" lon="12.4900360">
        <ele>1746.8500000</ele>
        <time>2010-09-27T12:40:25Z</time>
      </trkpt>
      <trkpt lat="46.1445990" lon="12.4900560">
        <ele>1747.3300000</ele>
        <time>2010-09-27T12:40:39Z</time>
      </trkpt>
      <trkpt lat="46.1445810" lon="12.4900630">
        <ele>1747.8100000</ele>
        <time>2010-09-27T12:40:42Z</time>
      </trkpt>
      <trkpt lat="46.1445320" lon="12.4901050">
        <ele>1747.3300000</ele>
        <time>2010-09-27T12:40:47Z</time>
      </trkpt>
      <trkpt lat="46.1444740" lon="12.4901210">
        <ele>1746.8500000</ele>
        <time>2010-09-27T12:40:51Z</time>
      </trkpt>
      <trkpt lat="46.1444230" lon="12.4901260">
        <ele>1746.3700000</ele>
        <time>2010-09-27T12:40:57Z</time>
      </trkpt>
      <trkpt lat="46.1444150" lon="12.4901240">
        <ele>1745.8900000</ele>
        <time>2010-09-27T12:40:58Z</time>
      </trkpt>
      <trkpt lat="46.1443870" lon="12.4901350">
        <ele>1746.8500000</ele>
        <time>2010-09-27T12:41:01Z</time>
      </trkpt>
      <trkpt lat="46.1443450" lon="12.4901040">
        <ele>1746.3700000</ele>
        <time>2010-09-27T12:41:08Z</time>
      </trkpt>
      <trkpt lat="46.1442970" lon="12.4901210">
        <ele>1745.8900000</ele>
        <time>2010-09-27T12:41:14Z</time>
      </trkpt>
      <trkpt lat="46.1442900" lon="12.4901260">
        <ele>1745.8900000</ele>
        <time>2010-09-27T12:41:16Z</time>
      </trkpt>
      <trkpt lat="46.1442590" lon="12.4901470">
        <ele>1745.4100000</ele>
        <time>2010-09-27T12:41:22Z</time>
      </trkpt>
      <trkpt lat="46.1442500" lon="12.4901600">
        <ele>1745.4100000</ele>
        <time>2010-09-27T12:41:24Z</time>
      </trkpt>
      <trkpt lat="46.1442250" lon="12.4902100">
        <ele>1745.8900000</ele>
        <time>2010-09-27T12:41:29Z</time>
      </trkpt>
      <trkpt lat="46.1442250" lon="12.4902100">
        <ele>1746.3700000</ele>
        <time>2010-09-27T12:41:30Z</time>
      </trkpt>
      <trkpt lat="46.1441820" lon="12.4902200">
        <ele>1746.3700000</ele>
        <time>2010-09-27T12:41:35Z</time>
      </trkpt>
      <trkpt lat="46.1441530" lon="12.4902330">
        <ele>1746.8500000</ele>
        <time>2010-09-27T12:41:40Z</time>
      </trkpt>
      <trkpt lat="46.1441110" lon="12.4902560">
        <ele>1746.8500000</ele>
        <time>2010-09-27T12:41:44Z</time>
      </trkpt>
      <trkpt lat="46.1440710" lon="12.4902780">
        <ele>1746.3700000</ele>
        <time>2010-09-27T12:41:48Z</time>
      </trkpt>
      <trkpt lat="46.1440170" lon="12.4902990">
        <ele>1745.8900000</ele>
        <time>2010-09-27T12:41:54Z</time>
      </trkpt>
      <trkpt lat="46.1439760" lon="12.4903150">
        <ele>1746.3700000</ele>
        <time>2010-09-27T12:42:00Z</time>
      </trkpt>
      <trkpt lat="46.1439210" lon="12.4902910">
        <ele>1746.8500000</ele>
        <time>2010-09-27T12:42:06Z</time>
      </trkpt>
      <trkpt lat="46.1438530" lon="12.4903090">
        <ele>1746.3700000</ele>
        <time>2010-09-27T12:42:16Z</time>
      </trkpt>
      <trkpt lat="46.1437660" lon="12.4903430">
        <ele>1744.9300000</ele>
        <time>2010-09-27T12:42:32Z</time>
      </trkpt>
      <trkpt lat="46.1437030" lon="12.4903270">
        <ele>1745.8900000</ele>
        <time>2010-09-27T12:42:39Z</time>
      </trkpt>
      <trkpt lat="46.1436560" lon="12.4903620">
        <ele>1745.4100000</ele>
        <time>2010-09-27T12:42:44Z</time>
      </trkpt>
      <trkpt lat="46.1436090" lon="12.4903690">
        <ele>1745.8900000</ele>
        <time>2010-09-27T12:42:48Z</time>
      </trkpt>
      <trkpt lat="46.1435390" lon="12.4903380">
        <ele>1748.7800000</ele>
        <time>2010-09-27T12:43:09Z</time>
      </trkpt>
      <trkpt lat="46.1435240" lon="12.4903160">
        <ele>1748.7800000</ele>
        <time>2010-09-27T12:43:14Z</time>
      </trkpt>
      <trkpt lat="46.1434890" lon="12.4903030">
        <ele>1752.1400000</ele>
        <time>2010-09-27T12:43:33Z</time>
      </trkpt>
      <trkpt lat="46.1434820" lon="12.4903040">
        <ele>1752.1400000</ele>
        <time>2010-09-27T12:43:34Z</time>
      </trkpt>
      <trkpt lat="46.1434500" lon="12.4902650">
        <ele>1752.6200000</ele>
        <time>2010-09-27T12:43:41Z</time>
      </trkpt>
      <trkpt lat="46.1434450" lon="12.4902610">
        <ele>1754.0600000</ele>
        <time>2010-09-27T12:43:43Z</time>
      </trkpt>
      <trkpt lat="46.1434050" lon="12.4902310">
        <ele>1755.5000000</ele>
        <time>2010-09-27T12:44:18Z</time>
      </trkpt>
      <trkpt lat="46.1433210" lon="12.4901680">
        <ele>1757.4300000</ele>
        <time>2010-09-27T12:44:42Z</time>
      </trkpt>
      <trkpt lat="46.1432690" lon="12.4900750">
        <ele>1758.3900000</ele>
        <time>2010-09-27T12:44:54Z</time>
      </trkpt>
      <trkpt lat="46.1432210" lon="12.4900490">
        <ele>1758.3900000</ele>
        <time>2010-09-27T12:45:00Z</time>
      </trkpt>
      <trkpt lat="46.1431190" lon="12.4900800">
        <ele>1759.8300000</ele>
        <time>2010-09-27T12:45:15Z</time>
      </trkpt>
      <trkpt lat="46.1429470" lon="12.4900420">
        <ele>1758.8700000</ele>
        <time>2010-09-27T12:45:31Z</time>
      </trkpt>
      <trkpt lat="46.1427430" lon="12.4900690">
        <ele>1762.2300000</ele>
        <time>2010-09-27T12:46:03Z</time>
      </trkpt>
      <trkpt lat="46.1426840" lon="12.4901260">
        <ele>1762.2300000</ele>
        <time>2010-09-27T12:46:08Z</time>
      </trkpt>
      <trkpt lat="46.1426380" lon="12.4901290">
        <ele>1762.2300000</ele>
        <time>2010-09-27T12:46:13Z</time>
      </trkpt>
      <trkpt lat="46.1426230" lon="12.4901320">
        <ele>1762.2300000</ele>
        <time>2010-09-27T12:46:15Z</time>
      </trkpt>
      <trkpt lat="46.1425540" lon="12.4902410">
        <ele>1761.7500000</ele>
        <time>2010-09-27T12:46:22Z</time>
      </trkpt>
      <trkpt lat="46.1424680" lon="12.4902000">
        <ele>1764.1600000</ele>
        <time>2010-09-27T12:46:35Z</time>
      </trkpt>
      <trkpt lat="46.1424150" lon="12.4901650">
        <ele>1763.6800000</ele>
        <time>2010-09-27T12:46:42Z</time>
      </trkpt>
      <trkpt lat="46.1423590" lon="12.4901360">
        <ele>1762.7100000</ele>
        <time>2010-09-27T12:46:48Z</time>
      </trkpt>
      <trkpt lat="46.1422350" lon="12.4901380">
        <ele>1766.0800000</ele>
        <time>2010-09-27T12:47:09Z</time>
      </trkpt>
      <trkpt lat="46.1422010" lon="12.4900780">
        <ele>1767.5200000</ele>
        <time>2010-09-27T12:47:23Z</time>
      </trkpt>
      <trkpt lat="46.1421800" lon="12.4900380">
        <ele>1768.4800000</ele>
        <time>2010-09-27T12:47:31Z</time>
      </trkpt>
      <trkpt lat="46.1421680" lon="12.4900400">
        <ele>1769.4400000</ele>
        <time>2010-09-27T12:47:34Z</time>
      </trkpt>
      <trkpt lat="46.1421270" lon="12.4900520">
        <ele>1769.4400000</ele>
        <time>2010-09-27T12:47:39Z</time>
      </trkpt>
      <trkpt lat="46.1420900" lon="12.4900230">
        <ele>1769.4400000</ele>
        <time>2010-09-27T12:47:47Z</time>
      </trkpt>
      <trkpt lat="46.1420370" lon="12.4899930">
        <ele>1769.4400000</ele>
        <time>2010-09-27T12:47:55Z</time>
      </trkpt>
      <trkpt lat="46.1420070" lon="12.4899560">
        <ele>1771.3700000</ele>
        <time>2010-09-27T12:48:00Z</time>
      </trkpt>
      <trkpt lat="46.1419800" lon="12.4899430">
        <ele>1770.8900000</ele>
        <time>2010-09-27T12:48:04Z</time>
      </trkpt>
      <trkpt lat="46.1419400" lon="12.4899690">
        <ele>1770.8900000</ele>
        <time>2010-09-27T12:48:09Z</time>
      </trkpt>
      <trkpt lat="46.1418940" lon="12.4899940">
        <ele>1770.4100000</ele>
        <time>2010-09-27T12:48:14Z</time>
      </trkpt>
      <trkpt lat="46.1418130" lon="12.4900080">
        <ele>1771.8500000</ele>
        <time>2010-09-27T12:48:23Z</time>
      </trkpt>
      <trkpt lat="46.1417910" lon="12.4899940">
        <ele>1773.2900000</ele>
        <time>2010-09-27T12:48:29Z</time>
      </trkpt>
      <trkpt lat="46.1417040" lon="12.4900820">
        <ele>1774.2500000</ele>
        <time>2010-09-27T12:48:48Z</time>
      </trkpt>
      <trkpt lat="46.1416830" lon="12.4900910">
        <ele>1775.2100000</ele>
        <time>2010-09-27T12:48:53Z</time>
      </trkpt>
      <trkpt lat="46.1416780" lon="12.4900940">
        <ele>1775.2100000</ele>
        <time>2010-09-27T12:48:56Z</time>
      </trkpt>
      <trkpt lat="46.1416280" lon="12.4901460">
        <ele>1775.2100000</ele>
        <time>2010-09-27T12:49:01Z</time>
      </trkpt>
      <trkpt lat="46.1415950" lon="12.4901100">
        <ele>1775.2100000</ele>
        <time>2010-09-27T12:49:05Z</time>
      </trkpt>
      <trkpt lat="46.1414250" lon="12.4901110">
        <ele>1778.5800000</ele>
        <time>2010-09-27T12:49:40Z</time>
      </trkpt>
      <trkpt lat="46.1413710" lon="12.4901100">
        <ele>1779.0600000</ele>
        <time>2010-09-27T12:49:49Z</time>
      </trkpt>
      <trkpt lat="46.1413200" lon="12.4901110">
        <ele>1778.5800000</ele>
        <time>2010-09-27T12:49:57Z</time>
      </trkpt>
      <trkpt lat="46.1411900" lon="12.4901780">
        <ele>1778.5800000</ele>
        <time>2010-09-27T12:50:16Z</time>
      </trkpt>
      <trkpt lat="46.1411120" lon="12.4902040">
        <ele>1780.0200000</ele>
        <time>2010-09-27T12:50:27Z</time>
      </trkpt>
      <trkpt lat="46.1410470" lon="12.4902390">
        <ele>1780.0200000</ele>
        <time>2010-09-27T12:50:33Z</time>
      </trkpt>
      <trkpt lat="46.1409920" lon="12.4902570">
        <ele>1780.0200000</ele>
        <time>2010-09-27T12:50:39Z</time>
      </trkpt>
      <trkpt lat="46.1409240" lon="12.4902590">
        <ele>1780.9800000</ele>
        <time>2010-09-27T12:50:47Z</time>
      </trkpt>
      <trkpt lat="46.1408500" lon="12.4902960">
        <ele>1782.4200000</ele>
        <time>2010-09-27T12:51:01Z</time>
      </trkpt>
      <trkpt lat="46.1408410" lon="12.4903060">
        <ele>1782.4200000</ele>
        <time>2010-09-27T12:51:06Z</time>
      </trkpt>
      <trkpt lat="46.1407620" lon="12.4903310">
        <ele>1783.3800000</ele>
        <time>2010-09-27T12:51:16Z</time>
      </trkpt>
      <trkpt lat="46.1407310" lon="12.4903320">
        <ele>1782.9000000</ele>
        <time>2010-09-27T12:51:20Z</time>
      </trkpt>
      <trkpt lat="46.1406690" lon="12.4903480">
        <ele>1782.4200000</ele>
        <time>2010-09-27T12:51:31Z</time>
      </trkpt>
      <trkpt lat="46.1406460" lon="12.4903850">
        <ele>1781.9400000</ele>
        <time>2010-09-27T12:51:36Z</time>
      </trkpt>
      <trkpt lat="46.1406060" lon="12.4903790">
        <ele>1782.4200000</ele>
        <time>2010-09-27T12:51:45Z</time>
      </trkpt>
      <trkpt lat="46.1405770" lon="12.4903790">
        <ele>1782.4200000</ele>
        <time>2010-09-27T12:51:50Z</time>
      </trkpt>
      <trkpt lat="46.1405240" lon="12.4903870">
        <ele>1782.4200000</ele>
        <time>2010-09-27T12:51:55Z</time>
      </trkpt>
      <trkpt lat="46.1404890" lon="12.4904160">
        <ele>1782.9000000</ele>
        <time>2010-09-27T12:52:00Z</time>
      </trkpt>
      <trkpt lat="46.1404490" lon="12.4904470">
        <ele>1782.4200000</ele>
        <time>2010-09-27T12:52:05Z</time>
      </trkpt>
      <trkpt lat="46.1404450" lon="12.4904800">
        <ele>1782.4200000</ele>
        <time>2010-09-27T12:52:14Z</time>
      </trkpt>
      <trkpt lat="46.1404130" lon="12.4904800">
        <ele>1783.3800000</ele>
        <time>2010-09-27T12:52:32Z</time>
      </trkpt>
      <trkpt lat="46.1403600" lon="12.4905010">
        <ele>1782.4200000</ele>
        <time>2010-09-27T12:52:39Z</time>
      </trkpt>
      <trkpt lat="46.1403100" lon="12.4904670">
        <ele>1782.9000000</ele>
        <time>2010-09-27T12:52:51Z</time>
      </trkpt>
      <trkpt lat="46.1402640" lon="12.4904530">
        <ele>1783.8600000</ele>
        <time>2010-09-27T12:52:56Z</time>
      </trkpt>
      <trkpt lat="46.1401780" lon="12.4904220">
        <ele>1786.7500000</ele>
        <time>2010-09-27T12:53:18Z</time>
      </trkpt>
      <trkpt lat="46.1401500" lon="12.4903980">
        <ele>1787.7100000</ele>
        <time>2010-09-27T12:53:28Z</time>
      </trkpt>
      <trkpt lat="46.1400720" lon="12.4903380">
        <ele>1791.0700000</ele>
        <time>2010-09-27T12:54:02Z</time>
      </trkpt>
      <trkpt lat="46.1400470" lon="12.4903020">
        <ele>1792.0300000</ele>
        <time>2010-09-27T12:54:14Z</time>
      </trkpt>
      <trkpt lat="46.1400220" lon="12.4902660">
        <ele>1793.0000000</ele>
        <time>2010-09-27T12:54:21Z</time>
      </trkpt>
      <trkpt lat="46.1399720" lon="12.4902960">
        <ele>1794.4400000</ele>
        <time>2010-09-27T12:54:30Z</time>
      </trkpt>
      <trkpt lat="46.1399340" lon="12.4903420">
        <ele>1795.4000000</ele>
        <time>2010-09-27T12:54:34Z</time>
      </trkpt>
      <trkpt lat="46.1398660" lon="12.4903810">
        <ele>1796.3600000</ele>
        <time>2010-09-27T12:54:48Z</time>
      </trkpt>
      <trkpt lat="46.1398350" lon="12.4903950">
        <ele>1796.8400000</ele>
        <time>2010-09-27T12:54:52Z</time>
      </trkpt>
      <trkpt lat="46.1397210" lon="12.4904520">
        <ele>1799.2400000</ele>
        <time>2010-09-27T12:55:16Z</time>
      </trkpt>
      <trkpt lat="46.1396900" lon="12.4904800">
        <ele>1799.2400000</ele>
        <time>2010-09-27T12:55:20Z</time>
      </trkpt>
      <trkpt lat="46.1396460" lon="12.4904850">
        <ele>1800.2100000</ele>
        <time>2010-09-27T12:55:26Z</time>
      </trkpt>
      <trkpt lat="46.1396140" lon="12.4904370">
        <ele>1803.0900000</ele>
        <time>2010-09-27T12:55:48Z</time>
      </trkpt>
      <trkpt lat="46.1395660" lon="12.4904470">
        <ele>1803.0900000</ele>
        <time>2010-09-27T12:55:54Z</time>
      </trkpt>
      <trkpt lat="46.1395410" lon="12.4904080">
        <ele>1803.0900000</ele>
        <time>2010-09-27T12:56:02Z</time>
      </trkpt>
      <trkpt lat="46.1394950" lon="12.4904080">
        <ele>1805.4900000</ele>
        <time>2010-09-27T12:56:18Z</time>
      </trkpt>
      <trkpt lat="46.1394700" lon="12.4904140">
        <ele>1807.4200000</ele>
        <time>2010-09-27T12:56:35Z</time>
      </trkpt>
      <trkpt lat="46.1394360" lon="12.4904710">
        <ele>1807.9000000</ele>
        <time>2010-09-27T12:56:40Z</time>
      </trkpt>
      <trkpt lat="46.1394210" lon="12.4904870">
        <ele>1808.3800000</ele>
        <time>2010-09-27T12:56:49Z</time>
      </trkpt>
      <trkpt lat="46.1394200" lon="12.4904900">
        <ele>1808.8600000</ele>
        <time>2010-09-27T12:56:56Z</time>
      </trkpt>
      <trkpt lat="46.1393780" lon="12.4905140">
        <ele>1810.3000000</ele>
        <time>2010-09-27T12:57:08Z</time>
      </trkpt>
      <trkpt lat="46.1393670" lon="12.4905280">
        <ele>1810.3000000</ele>
        <time>2010-09-27T12:57:13Z</time>
      </trkpt>
      <trkpt lat="46.1393670" lon="12.4905280">
        <ele>1810.7800000</ele>
        <time>2010-09-27T12:57:17Z</time>
      </trkpt>
      <trkpt lat="46.1393730" lon="12.4905250">
        <ele>1810.7800000</ele>
        <time>2010-09-27T12:57:25Z</time>
      </trkpt>
      <trkpt lat="46.1393630" lon="12.4905420">
        <ele>1810.3000000</ele>
        <time>2010-09-27T12:57:37Z</time>
      </trkpt>
      <trkpt lat="46.1393370" lon="12.4905730">
        <ele>1813.1800000</ele>
        <time>2010-09-27T12:57:49Z</time>
      </trkpt>
      <trkpt lat="46.1393120" lon="12.4905930">
        <ele>1813.1800000</ele>
        <time>2010-09-27T12:58:00Z</time>
      </trkpt>
      <trkpt lat="46.1392630" lon="12.4905970">
        <ele>1814.6300000</ele>
        <time>2010-09-27T12:58:06Z</time>
      </trkpt>
      <trkpt lat="46.1392140" lon="12.4906160">
        <ele>1816.5500000</ele>
        <time>2010-09-27T12:58:15Z</time>
      </trkpt>
      <trkpt lat="46.1391990" lon="12.4906240">
        <ele>1817.0300000</ele>
        <time>2010-09-27T12:58:26Z</time>
      </trkpt>
      <trkpt lat="46.1391850" lon="12.4906670">
        <ele>1818.4700000</ele>
        <time>2010-09-27T12:58:34Z</time>
      </trkpt>
      <trkpt lat="46.1391670" lon="12.4906930">
        <ele>1818.4700000</ele>
        <time>2010-09-27T12:58:41Z</time>
      </trkpt>
      <trkpt lat="46.1391470" lon="12.4907000">
        <ele>1819.9100000</ele>
        <time>2010-09-27T12:58:48Z</time>
      </trkpt>
      <trkpt lat="46.1391200" lon="12.4907120">
        <ele>1821.3500000</ele>
        <time>2010-09-27T12:58:59Z</time>
      </trkpt>
      <trkpt lat="46.1390980" lon="12.4907090">
        <ele>1821.8400000</ele>
        <time>2010-09-27T12:59:05Z</time>
      </trkpt>
      <trkpt lat="46.1390820" lon="12.4907190">
        <ele>1822.3200000</ele>
        <time>2010-09-27T12:59:10Z</time>
      </trkpt>
      <trkpt lat="46.1390820" lon="12.4907190">
        <ele>1822.3200000</ele>
        <time>2010-09-27T12:59:18Z</time>
      </trkpt>
      <trkpt lat="46.1390630" lon="12.4907330">
        <ele>1822.8000000</ele>
        <time>2010-09-27T12:59:24Z</time>
      </trkpt>
      <trkpt lat="46.1390340" lon="12.4907570">
        <ele>1823.7600000</ele>
        <time>2010-09-27T12:59:31Z</time>
      </trkpt>
      <trkpt lat="46.1390160" lon="12.4907570">
        <ele>1824.7200000</ele>
        <time>2010-09-27T12:59:40Z</time>
      </trkpt>
      <trkpt lat="46.1390040" lon="12.4907610">
        <ele>1825.6800000</ele>
        <time>2010-09-27T12:59:46Z</time>
      </trkpt>
      <trkpt lat="46.1389770" lon="12.4907450">
        <ele>1826.1600000</ele>
        <time>2010-09-27T12:59:54Z</time>
      </trkpt>
      <trkpt lat="46.1389540" lon="12.4907450">
        <ele>1827.1200000</ele>
        <time>2010-09-27T13:00:05Z</time>
      </trkpt>
      <trkpt lat="46.1389350" lon="12.4907380">
        <ele>1828.5600000</ele>
        <time>2010-09-27T13:00:13Z</time>
      </trkpt>
      <trkpt lat="46.1389030" lon="12.4907240">
        <ele>1830.9700000</ele>
        <time>2010-09-27T13:00:33Z</time>
      </trkpt>
      <trkpt lat="46.1388900" lon="12.4907120">
        <ele>1831.9300000</ele>
        <time>2010-09-27T13:00:40Z</time>
      </trkpt>
      <trkpt lat="46.1388630" lon="12.4907180">
        <ele>1831.9300000</ele>
        <time>2010-09-27T13:00:47Z</time>
      </trkpt>
      <trkpt lat="46.1388270" lon="12.4907250">
        <ele>1833.8500000</ele>
        <time>2010-09-27T13:01:03Z</time>
      </trkpt>
      <trkpt lat="46.1388060" lon="12.4907110">
        <ele>1835.2900000</ele>
        <time>2010-09-27T13:01:09Z</time>
      </trkpt>
      <trkpt lat="46.1387740" lon="12.4907100">
        <ele>1835.2900000</ele>
        <time>2010-09-27T13:01:18Z</time>
      </trkpt>
      <trkpt lat="46.1387470" lon="12.4907150">
        <ele>1836.2600000</ele>
        <time>2010-09-27T13:01:26Z</time>
      </trkpt>
      <trkpt lat="46.1387360" lon="12.4907140">
        <ele>1837.7000000</ele>
        <time>2010-09-27T13:01:32Z</time>
      </trkpt>
      <trkpt lat="46.1387230" lon="12.4907160">
        <ele>1838.6600000</ele>
        <time>2010-09-27T13:01:39Z</time>
      </trkpt>
      <trkpt lat="46.1387150" lon="12.4907140">
        <ele>1838.6600000</ele>
        <time>2010-09-27T13:01:45Z</time>
      </trkpt>
      <trkpt lat="46.1386950" lon="12.4907020">
        <ele>1839.6200000</ele>
        <time>2010-09-27T13:01:51Z</time>
      </trkpt>
      <trkpt lat="46.1386820" lon="12.4907070">
        <ele>1840.5800000</ele>
        <time>2010-09-27T13:02:00Z</time>
      </trkpt>
      <trkpt lat="46.1386670" lon="12.4906990">
        <ele>1841.5400000</ele>
        <time>2010-09-27T13:02:09Z</time>
      </trkpt>
      <trkpt lat="46.1386580" lon="12.4907080">
        <ele>1842.5000000</ele>
        <time>2010-09-27T13:02:15Z</time>
      </trkpt>
      <trkpt lat="46.1386610" lon="12.4907080">
        <ele>1843.4700000</ele>
        <time>2010-09-27T13:02:21Z</time>
      </trkpt>
      <trkpt lat="46.1386640" lon="12.4907010">
        <ele>1843.4700000</ele>
        <time>2010-09-27T13:02:30Z</time>
      </trkpt>
      <trkpt lat="46.1386430" lon="12.4906860">
        <ele>1845.8700000</ele>
        <time>2010-09-27T13:02:50Z</time>
      </trkpt>
      <trkpt lat="46.1386160" lon="12.4906630">
        <ele>1847.3100000</ele>
        <time>2010-09-27T13:02:58Z</time>
      </trkpt>
      <trkpt lat="46.1386060" lon="12.4906420">
        <ele>1847.7900000</ele>
        <time>2010-09-27T13:03:06Z</time>
      </trkpt>
      <trkpt lat="46.1385820" lon="12.4906370">
        <ele>1848.7500000</ele>
        <time>2010-09-27T13:03:16Z</time>
      </trkpt>
      <trkpt lat="46.1385670" lon="12.4906370">
        <ele>1850.1900000</ele>
        <time>2010-09-27T13:03:24Z</time>
      </trkpt>
      <trkpt lat="46.1385600" lon="12.4906350">
        <ele>1850.6800000</ele>
        <time>2010-09-27T13:03:30Z</time>
      </trkpt>
      <trkpt lat="46.1385320" lon="12.4906180">
        <ele>1852.1200000</ele>
        <time>2010-09-27T13:03:40Z</time>
      </trkpt>
      <trkpt lat="46.1385240" lon="12.4906230">
        <ele>1853.0800000</ele>
        <time>2010-09-27T13:03:52Z</time>
      </trkpt>
      <trkpt lat="46.1385310" lon="12.4906160">
        <ele>1853.0800000</ele>
        <time>2010-09-27T13:04:49Z</time>
      </trkpt>
      <trkpt lat="46.1385260" lon="12.4906110">
        <ele>1855.9600000</ele>
        <time>2010-09-27T13:05:29Z</time>
      </trkpt>
      <trkpt lat="46.1384820" lon="12.4905830">
        <ele>1855.9600000</ele>
        <time>2010-09-27T13:05:34Z</time>
      </trkpt>
      <trkpt lat="46.1384720" lon="12.4905740">
        <ele>1856.4400000</ele>
        <time>2010-09-27T13:05:41Z</time>
      </trkpt>
      <trkpt lat="46.1384530" lon="12.4905550">
        <ele>1857.4000000</ele>
        <time>2010-09-27T13:05:48Z</time>
      </trkpt>
      <trkpt lat="46.1384470" lon="12.4905480">
        <ele>1857.8900000</ele>
        <time>2010-09-27T13:05:54Z</time>
      </trkpt>
      <trkpt lat="46.1384460" lon="12.4905470">
        <ele>1858.3700000</ele>
        <time>2010-09-27T13:06:09Z</time>
      </trkpt>
      <trkpt lat="46.1384350" lon="12.4905340">
        <ele>1859.3300000</ele>
        <time>2010-09-27T13:06:14Z</time>
      </trkpt>
      <trkpt lat="46.1384080" lon="12.4905160">
        <ele>1860.7700000</ele>
        <time>2010-09-27T13:06:21Z</time>
      </trkpt>
      <trkpt lat="46.1383920" lon="12.4905150">
        <ele>1861.2500000</ele>
        <time>2010-09-27T13:06:29Z</time>
      </trkpt>
      <trkpt lat="46.1383820" lon="12.4905140">
        <ele>1861.2500000</ele>
        <time>2010-09-27T13:06:43Z</time>
      </trkpt>
      <trkpt lat="46.1383820" lon="12.4904920">
        <ele>1862.2100000</ele>
        <time>2010-09-27T13:06:50Z</time>
      </trkpt>
      <trkpt lat="46.1383570" lon="12.4904770">
        <ele>1862.6900000</ele>
        <time>2010-09-27T13:06:55Z</time>
      </trkpt>
      <trkpt lat="46.1383410" lon="12.4904750">
        <ele>1864.1300000</ele>
        <time>2010-09-27T13:07:01Z</time>
      </trkpt>
      <trkpt lat="46.1383260" lon="12.4904760">
        <ele>1865.0900000</ele>
        <time>2010-09-27T13:07:13Z</time>
      </trkpt>
      <trkpt lat="46.1383220" lon="12.4904700">
        <ele>1866.5400000</ele>
        <time>2010-09-27T13:07:20Z</time>
      </trkpt>
      <trkpt lat="46.1383100" lon="12.4904580">
        <ele>1867.5000000</ele>
        <time>2010-09-27T13:07:29Z</time>
      </trkpt>
      <trkpt lat="46.1382840" lon="12.4904510">
        <ele>1868.4600000</ele>
        <time>2010-09-27T13:07:37Z</time>
      </trkpt>
      <trkpt lat="46.1382770" lon="12.4904580">
        <ele>1868.9400000</ele>
        <time>2010-09-27T13:07:45Z</time>
      </trkpt>
      <trkpt lat="46.1382820" lon="12.4904390">
        <ele>1869.4200000</ele>
        <time>2010-09-27T13:07:53Z</time>
      </trkpt>
      <trkpt lat="46.1382370" lon="12.4904120">
        <ele>1870.8600000</ele>
        <time>2010-09-27T13:08:13Z</time>
      </trkpt>
      <trkpt lat="46.1382010" lon="12.4904000">
        <ele>1870.8600000</ele>
        <time>2010-09-27T13:08:19Z</time>
      </trkpt>
      <trkpt lat="46.1381830" lon="12.4903990">
        <ele>1872.7900000</ele>
        <time>2010-09-27T13:08:24Z</time>
      </trkpt>
      <trkpt lat="46.1381800" lon="12.4904060">
        <ele>1872.7900000</ele>
        <time>2010-09-27T13:08:32Z</time>
      </trkpt>
      <trkpt lat="46.1381680" lon="12.4904000">
        <ele>1873.2700000</ele>
        <time>2010-09-27T13:08:38Z</time>
      </trkpt>
      <trkpt lat="46.1381420" lon="12.4904110">
        <ele>1873.7500000</ele>
        <time>2010-09-27T13:08:46Z</time>
      </trkpt>
      <trkpt lat="46.1381290" lon="12.4904080">
        <ele>1875.1900000</ele>
        <time>2010-09-27T13:08:48Z</time>
      </trkpt>
      <trkpt lat="46.1381130" lon="12.4904180">
        <ele>1876.1500000</ele>
        <time>2010-09-27T13:08:53Z</time>
      </trkpt>
      <trkpt lat="46.1380980" lon="12.4904280">
        <ele>1876.1500000</ele>
        <time>2010-09-27T13:08:58Z</time>
      </trkpt>
      <trkpt lat="46.1380870" lon="12.4904230">
        <ele>1877.1100000</ele>
        <time>2010-09-27T13:09:03Z</time>
      </trkpt>
      <trkpt lat="46.1380650" lon="12.4904410">
        <ele>1878.0700000</ele>
        <time>2010-09-27T13:09:11Z</time>
      </trkpt>
      <trkpt lat="46.1380460" lon="12.4904530">
        <ele>1878.5500000</ele>
        <time>2010-09-27T13:09:15Z</time>
      </trkpt>
      <trkpt lat="46.1380220" lon="12.4904630">
        <ele>1879.5100000</ele>
        <time>2010-09-27T13:09:20Z</time>
      </trkpt>
      <trkpt lat="46.1380120" lon="12.4904780">
        <ele>1880.4800000</ele>
        <time>2010-09-27T13:09:34Z</time>
      </trkpt>
      <trkpt lat="46.1379990" lon="12.4904850">
        <ele>1879.5100000</ele>
        <time>2010-09-27T13:09:47Z</time>
      </trkpt>
      <trkpt lat="46.1379990" lon="12.4904950">
        <ele>1880.0000000</ele>
        <time>2010-09-27T13:09:53Z</time>
      </trkpt>
      <trkpt lat="46.1379870" lon="12.4904900">
        <ele>1880.9600000</ele>
        <time>2010-09-27T13:09:59Z</time>
      </trkpt>
      <trkpt lat="46.1379790" lon="12.4904930">
        <ele>1881.4400000</ele>
        <time>2010-09-27T13:10:01Z</time>
      </trkpt>
      <trkpt lat="46.1379590" lon="12.4904910">
        <ele>1881.9200000</ele>
        <time>2010-09-27T13:10:06Z</time>
      </trkpt>
      <trkpt lat="46.1379270" lon="12.4904930">
        <ele>1882.8800000</ele>
        <time>2010-09-27T13:10:11Z</time>
      </trkpt>
      <trkpt lat="46.1379010" lon="12.4905010">
        <ele>1883.3600000</ele>
        <time>2010-09-27T13:10:17Z</time>
      </trkpt>
      <trkpt lat="46.1378890" lon="12.4905010">
        <ele>1883.8400000</ele>
        <time>2010-09-27T13:10:21Z</time>
      </trkpt>
      <trkpt lat="46.1378740" lon="12.4905030">
        <ele>1884.3200000</ele>
        <time>2010-09-27T13:10:26Z</time>
      </trkpt>
      <trkpt lat="46.1378710" lon="12.4904970">
        <ele>1884.8000000</ele>
        <time>2010-09-27T13:10:31Z</time>
      </trkpt>
      <trkpt lat="46.1378610" lon="12.4904990">
        <ele>1885.2800000</ele>
        <time>2010-09-27T13:10:38Z</time>
      </trkpt>
      <trkpt lat="46.1378540" lon="12.4904990">
        <ele>1886.2400000</ele>
        <time>2010-09-27T13:10:43Z</time>
      </trkpt>
      <trkpt lat="46.1378470" lon="12.4904990">
        <ele>1886.2400000</ele>
        <time>2010-09-27T13:10:47Z</time>
      </trkpt>
      <trkpt lat="46.1378320" lon="12.4904950">
        <ele>1887.2100000</ele>
        <time>2010-09-27T13:10:53Z</time>
      </trkpt>
      <trkpt lat="46.1378320" lon="12.4904950">
        <ele>1887.6900000</ele>
        <time>2010-09-27T13:10:58Z</time>
      </trkpt>
      <trkpt lat="46.1378310" lon="12.4904880">
        <ele>1887.6900000</ele>
        <time>2010-09-27T13:11:02Z</time>
      </trkpt>
      <trkpt lat="46.1378100" lon="12.4904660">
        <ele>1888.6500000</ele>
        <time>2010-09-27T13:11:08Z</time>
      </trkpt>
      <trkpt lat="46.1377980" lon="12.4904420">
        <ele>1889.6100000</ele>
        <time>2010-09-27T13:11:13Z</time>
      </trkpt>
      <trkpt lat="46.1378020" lon="12.4904060">
        <ele>1890.0900000</ele>
        <time>2010-09-27T13:11:25Z</time>
      </trkpt>
      <trkpt lat="46.1378050" lon="12.4903950">
        <ele>1891.0500000</ele>
        <time>2010-09-27T13:11:31Z</time>
      </trkpt>
      <trkpt lat="46.1378020" lon="12.4903800">
        <ele>1891.5300000</ele>
        <time>2010-09-27T13:11:32Z</time>
      </trkpt>
      <trkpt lat="46.1377950" lon="12.4903790">
        <ele>1891.5300000</ele>
        <time>2010-09-27T13:11:40Z</time>
      </trkpt>
      <trkpt lat="46.1377950" lon="12.4903790">
        <ele>1892.9700000</ele>
        <time>2010-09-27T13:11:53Z</time>
      </trkpt>
      <trkpt lat="46.1377870" lon="12.4903750">
        <ele>1893.9300000</ele>
        <time>2010-09-27T13:11:58Z</time>
      </trkpt>
      <trkpt lat="46.1377870" lon="12.4903750">
        <ele>1894.4200000</ele>
        <time>2010-09-27T13:12:04Z</time>
      </trkpt>
      <trkpt lat="46.1377740" lon="12.4903660">
        <ele>1894.9000000</ele>
        <time>2010-09-27T13:12:09Z</time>
      </trkpt>
      <trkpt lat="46.1377740" lon="12.4903660">
        <ele>1894.9000000</ele>
        <time>2010-09-27T13:12:17Z</time>
      </trkpt>
      <trkpt lat="46.1377630" lon="12.4903610">
        <ele>1894.9000000</ele>
        <time>2010-09-27T13:12:24Z</time>
      </trkpt>
      <trkpt lat="46.1377520" lon="12.4903600">
        <ele>1895.8600000</ele>
        <time>2010-09-27T13:12:30Z</time>
      </trkpt>
      <trkpt lat="46.1377420" lon="12.4903580">
        <ele>1896.8200000</ele>
        <time>2010-09-27T13:12:35Z</time>
      </trkpt>
      <trkpt lat="46.1377320" lon="12.4903570">
        <ele>1897.3000000</ele>
        <time>2010-09-27T13:12:40Z</time>
      </trkpt>
      <trkpt lat="46.1377200" lon="12.4903540">
        <ele>1898.2600000</ele>
        <time>2010-09-27T13:12:45Z</time>
      </trkpt>
      <trkpt lat="46.1376900" lon="12.4903490">
        <ele>1898.2600000</ele>
        <time>2010-09-27T13:12:50Z</time>
      </trkpt>
      <trkpt lat="46.1376900" lon="12.4903490">
        <ele>1898.2600000</ele>
        <time>2010-09-27T13:12:56Z</time>
      </trkpt>
      <trkpt lat="46.1376900" lon="12.4903490">
        <ele>1899.7000000</ele>
        <time>2010-09-27T13:13:03Z</time>
      </trkpt>
      <trkpt lat="46.1376900" lon="12.4903490">
        <ele>1900.6600000</ele>
        <time>2010-09-27T13:13:09Z</time>
      </trkpt>
      <trkpt lat="46.1376900" lon="12.4903490">
        <ele>1901.1400000</ele>
        <time>2010-09-27T13:13:11Z</time>
      </trkpt>
      <trkpt lat="46.1376900" lon="12.4903490">
        <ele>1902.5900000</ele>
        <time>2010-09-27T13:13:28Z</time>
      </trkpt>
      <trkpt lat="46.1376640" lon="12.4903320">
        <ele>1904.0300000</ele>
        <time>2010-09-27T13:13:44Z</time>
      </trkpt>
      <trkpt lat="46.1375960" lon="12.4903130">
        <ele>1904.5100000</ele>
        <time>2010-09-27T13:13:49Z</time>
      </trkpt>
      <trkpt lat="46.1375700" lon="12.4903080">
        <ele>1905.4700000</ele>
        <time>2010-09-27T13:13:56Z</time>
      </trkpt>
      <trkpt lat="46.1375570" lon="12.4902920">
        <ele>1905.9500000</ele>
        <time>2010-09-27T13:14:01Z</time>
      </trkpt>
      <trkpt lat="46.1375370" lon="12.4902890">
        <ele>1906.4300000</ele>
        <time>2010-09-27T13:14:07Z</time>
      </trkpt>
      <trkpt lat="46.1375250" lon="12.4902870">
        <ele>1906.9100000</ele>
        <time>2010-09-27T13:14:11Z</time>
      </trkpt>
      <trkpt lat="46.1375140" lon="12.4902800">
        <ele>1907.3900000</ele>
        <time>2010-09-27T13:14:16Z</time>
      </trkpt>
      <trkpt lat="46.1375010" lon="12.4902700">
        <ele>1907.3900000</ele>
        <time>2010-09-27T13:14:21Z</time>
      </trkpt>
      <trkpt lat="46.1374830" lon="12.4902670">
        <ele>1907.8700000</ele>
        <time>2010-09-27T13:14:28Z</time>
      </trkpt>
      <trkpt lat="46.1374830" lon="12.4902670">
        <ele>1908.8300000</ele>
        <time>2010-09-27T13:14:36Z</time>
      </trkpt>
      <trkpt lat="46.1374830" lon="12.4902670">
        <ele>1908.8300000</ele>
        <time>2010-09-27T13:15:01Z</time>
      </trkpt>
      <trkpt lat="46.1374710" lon="12.4902380">
        <ele>1909.3200000</ele>
        <time>2010-09-27T13:15:06Z</time>
      </trkpt>
      <trkpt lat="46.1374710" lon="12.4902380">
        <ele>1909.8000000</ele>
        <time>2010-09-27T13:15:08Z</time>
      </trkpt>
      <trkpt lat="46.1374160" lon="12.4902130">
        <ele>1909.8000000</ele>
        <time>2010-09-27T13:15:13Z</time>
      </trkpt>
      <trkpt lat="46.1373620" lon="12.4902040">
        <ele>1911.2400000</ele>
        <time>2010-09-27T13:15:18Z</time>
      </trkpt>
      <trkpt lat="46.1373620" lon="12.4902040">
        <ele>1911.7200000</ele>
        <time>2010-09-27T13:15:25Z</time>
      </trkpt>
      <trkpt lat="46.1373620" lon="12.4902040">
        <ele>1912.6800000</ele>
        <time>2010-09-27T13:15:32Z</time>
      </trkpt>
      <trkpt lat="46.1373620" lon="12.4902040">
        <ele>1914.6000000</ele>
        <time>2010-09-27T13:15:45Z</time>
      </trkpt>
      <trkpt lat="46.1373620" lon="12.4902040">
        <ele>1915.5600000</ele>
        <time>2010-09-27T13:15:54Z</time>
      </trkpt>
      <trkpt lat="46.1372390" lon="12.4901530">
        <ele>1916.0400000</ele>
        <time>2010-09-27T13:16:00Z</time>
      </trkpt>
      <trkpt lat="46.1372140" lon="12.4901330">
        <ele>1916.0400000</ele>
        <time>2010-09-27T13:16:05Z</time>
      </trkpt>
      <trkpt lat="46.1371840" lon="12.4900920">
        <ele>1917.4900000</ele>
        <time>2010-09-27T13:16:11Z</time>
      </trkpt>
      <trkpt lat="46.1371760" lon="12.4900880">
        <ele>1917.9700000</ele>
        <time>2010-09-27T13:16:17Z</time>
      </trkpt>
      <trkpt lat="46.1371400" lon="12.4900660">
        <ele>1918.4500000</ele>
        <time>2010-09-27T13:16:30Z</time>
      </trkpt>
      <trkpt lat="46.1371140" lon="12.4900440">
        <ele>1919.4100000</ele>
        <time>2010-09-27T13:16:35Z</time>
      </trkpt>
      <trkpt lat="46.1370990" lon="12.4900490">
        <ele>1919.4100000</ele>
        <time>2010-09-27T13:16:41Z</time>
      </trkpt>
      <trkpt lat="46.1370940" lon="12.4900040">
        <ele>1920.8500000</ele>
        <time>2010-09-27T13:16:46Z</time>
      </trkpt>
      <trkpt lat="46.1370840" lon="12.4899990">
        <ele>1921.3300000</ele>
        <time>2010-09-27T13:16:48Z</time>
      </trkpt>
      <trkpt lat="46.1370590" lon="12.4899850">
        <ele>1921.3300000</ele>
        <time>2010-09-27T13:16:54Z</time>
      </trkpt>
      <trkpt lat="46.1370420" lon="12.4899840">
        <ele>1921.3300000</ele>
        <time>2010-09-27T13:17:00Z</time>
      </trkpt>
      <trkpt lat="46.1370400" lon="12.4899780">
        <ele>1921.8100000</ele>
        <time>2010-09-27T13:17:07Z</time>
      </trkpt>
      <trkpt lat="46.1370200" lon="12.4899600">
        <ele>1922.2900000</ele>
        <time>2010-09-27T13:17:11Z</time>
      </trkpt>
      <trkpt lat="46.1370050" lon="12.4899440">
        <ele>1922.2900000</ele>
        <time>2010-09-27T13:17:19Z</time>
      </trkpt>
      <trkpt lat="46.1369880" lon="12.4899250">
        <ele>1923.7400000</ele>
        <time>2010-09-27T13:17:27Z</time>
      </trkpt>
      <trkpt lat="46.1369920" lon="12.4899190">
        <ele>1924.2200000</ele>
        <time>2010-09-27T13:17:33Z</time>
      </trkpt>
      <trkpt lat="46.1369900" lon="12.4899090">
        <ele>1924.7000000</ele>
        <time>2010-09-27T13:17:44Z</time>
      </trkpt>
      <trkpt lat="46.1369900" lon="12.4899090">
        <ele>1924.7000000</ele>
        <time>2010-09-27T13:17:47Z</time>
      </trkpt>
      <trkpt lat="46.1369800" lon="12.4898890">
        <ele>1926.1400000</ele>
        <time>2010-09-27T13:17:52Z</time>
      </trkpt>
      <trkpt lat="46.1369780" lon="12.4898820">
        <ele>1926.1400000</ele>
        <time>2010-09-27T13:18:02Z</time>
      </trkpt>
      <trkpt lat="46.1369750" lon="12.4898650">
        <ele>1926.6200000</ele>
        <time>2010-09-27T13:18:07Z</time>
      </trkpt>
      <trkpt lat="46.1369720" lon="12.4898520">
        <ele>1927.5800000</ele>
        <time>2010-09-27T13:18:13Z</time>
      </trkpt>
      <trkpt lat="46.1369730" lon="12.4898410">
        <ele>1928.5400000</ele>
        <time>2010-09-27T13:18:18Z</time>
      </trkpt>
      <trkpt lat="46.1369620" lon="12.4898210">
        <ele>1929.0200000</ele>
        <time>2010-09-27T13:18:26Z</time>
      </trkpt>
      <trkpt lat="46.1369620" lon="12.4898210">
        <ele>1929.9800000</ele>
        <time>2010-09-27T13:18:33Z</time>
      </trkpt>
      <trkpt lat="46.1369480" lon="12.4898010">
        <ele>1929.9800000</ele>
        <time>2010-09-27T13:18:38Z</time>
      </trkpt>
      <trkpt lat="46.1369170" lon="12.4897770">
        <ele>1930.9500000</ele>
        <time>2010-09-27T13:18:44Z</time>
      </trkpt>
      <trkpt lat="46.1368900" lon="12.4897680">
        <ele>1930.4600000</ele>
        <time>2010-09-27T13:18:46Z</time>
      </trkpt>
      <trkpt lat="46.1368510" lon="12.4897510">
        <ele>1930.4600000</ele>
        <time>2010-09-27T13:18:51Z</time>
      </trkpt>
      <trkpt lat="46.1368120" lon="12.4897490">
        <ele>1929.9800000</ele>
        <time>2010-09-27T13:18:56Z</time>
      </trkpt>
      <trkpt lat="46.1367930" lon="12.4897590">
        <ele>1931.4300000</ele>
        <time>2010-09-27T13:19:08Z</time>
      </trkpt>
      <trkpt lat="46.1367740" lon="12.4897460">
        <ele>1932.8700000</ele>
        <time>2010-09-27T13:19:16Z</time>
      </trkpt>
      <trkpt lat="46.1367610" lon="12.4897540">
        <ele>1932.3900000</ele>
        <time>2010-09-27T13:19:22Z</time>
      </trkpt>
      <trkpt lat="46.1367510" lon="12.4897540">
        <ele>1933.8300000</ele>
        <time>2010-09-27T13:19:30Z</time>
      </trkpt>
      <trkpt lat="46.1367250" lon="12.4897600">
        <ele>1934.3100000</ele>
        <time>2010-09-27T13:19:37Z</time>
      </trkpt>
      <trkpt lat="46.1367100" lon="12.4897660">
        <ele>1935.7500000</ele>
        <time>2010-09-27T13:19:43Z</time>
      </trkpt>
      <trkpt lat="46.1366850" lon="12.4897870">
        <ele>1935.2700000</ele>
        <time>2010-09-27T13:19:49Z</time>
      </trkpt>
      <trkpt lat="46.1366700" lon="12.4897990">
        <ele>1936.2300000</ele>
        <time>2010-09-27T13:19:58Z</time>
      </trkpt>
      <trkpt lat="46.1366640" lon="12.4898220">
        <ele>1936.7100000</ele>
        <time>2010-09-27T13:20:03Z</time>
      </trkpt>
      <trkpt lat="46.1366490" lon="12.4898900">
        <ele>1938.6400000</ele>
        <time>2010-09-27T13:20:19Z</time>
      </trkpt>
      <trkpt lat="46.1366320" lon="12.4899220">
        <ele>1939.6000000</ele>
        <time>2010-09-27T13:20:27Z</time>
      </trkpt>
      <trkpt lat="46.1366340" lon="12.4899220">
        <ele>1940.5600000</ele>
        <time>2010-09-27T13:20:36Z</time>
      </trkpt>
      <trkpt lat="46.1366340" lon="12.4899220">
        <ele>1942.0000000</ele>
        <time>2010-09-27T13:20:55Z</time>
      </trkpt>
      <trkpt lat="46.1366340" lon="12.4899220">
        <ele>1943.9200000</ele>
        <time>2010-09-27T13:21:11Z</time>
      </trkpt>
      <trkpt lat="46.1366280" lon="12.4899060">
        <ele>1944.8800000</ele>
        <time>2010-09-27T13:21:16Z</time>
      </trkpt>
      <trkpt lat="46.1366070" lon="12.4898980">
        <ele>1945.3600000</ele>
        <time>2010-09-27T13:21:21Z</time>
      </trkpt>
      <trkpt lat="46.1365720" lon="12.4898890">
        <ele>1945.8500000</ele>
        <time>2010-09-27T13:21:25Z</time>
      </trkpt>
      <trkpt lat="46.1365370" lon="12.4898600">
        <ele>1945.3600000</ele>
        <time>2010-09-27T13:21:29Z</time>
      </trkpt>
      <trkpt lat="46.1365190" lon="12.4898430">
        <ele>1945.8500000</ele>
        <time>2010-09-27T13:21:32Z</time>
      </trkpt>
      <trkpt lat="46.1364810" lon="12.4898170">
        <ele>1945.8500000</ele>
        <time>2010-09-27T13:21:40Z</time>
      </trkpt>
      <trkpt lat="46.1364740" lon="12.4898180">
        <ele>1945.8500000</ele>
        <time>2010-09-27T13:21:53Z</time>
      </trkpt>
      <trkpt lat="46.1364450" lon="12.4898330">
        <ele>1947.2900000</ele>
        <time>2010-09-27T13:22:00Z</time>
      </trkpt>
      <trkpt lat="46.1364150" lon="12.4898260">
        <ele>1947.7700000</ele>
        <time>2010-09-27T13:22:05Z</time>
      </trkpt>
      <trkpt lat="46.1363990" lon="12.4898310">
        <ele>1948.2500000</ele>
        <time>2010-09-27T13:22:10Z</time>
      </trkpt>
      <trkpt lat="46.1363940" lon="12.4898250">
        <ele>1948.7300000</ele>
        <time>2010-09-27T13:22:15Z</time>
      </trkpt>
      <trkpt lat="46.1363800" lon="12.4898430">
        <ele>1950.1700000</ele>
        <time>2010-09-27T13:22:19Z</time>
      </trkpt>
      <trkpt lat="46.1363560" lon="12.4898340">
        <ele>1949.6900000</ele>
        <time>2010-09-27T13:22:24Z</time>
      </trkpt>
      <trkpt lat="46.1363480" lon="12.4898410">
        <ele>1950.6500000</ele>
        <time>2010-09-27T13:22:29Z</time>
      </trkpt>
      <trkpt lat="46.1363090" lon="12.4898790">
        <ele>1950.6500000</ele>
        <time>2010-09-27T13:22:35Z</time>
      </trkpt>
      <trkpt lat="46.1362000" lon="12.4899150">
        <ele>1953.5400000</ele>
        <time>2010-09-27T13:24:07Z</time>
      </trkpt>
      <trkpt lat="46.1361770" lon="12.4899160">
        <ele>1954.5000000</ele>
        <time>2010-09-27T13:24:15Z</time>
      </trkpt>
      <trkpt lat="46.1361290" lon="12.4899280">
        <ele>1957.8600000</ele>
        <time>2010-09-27T13:24:39Z</time>
      </trkpt>
      <trkpt lat="46.1360710" lon="12.4899400">
        <ele>1961.2300000</ele>
        <time>2010-09-27T13:25:09Z</time>
      </trkpt>
      <trkpt lat="46.1360390" lon="12.4899640">
        <ele>1961.7100000</ele>
        <time>2010-09-27T13:25:20Z</time>
      </trkpt>
      <trkpt lat="46.1360260" lon="12.4899700">
        <ele>1961.7100000</ele>
        <time>2010-09-27T13:25:25Z</time>
      </trkpt>
      <trkpt lat="46.1359950" lon="12.4899520">
        <ele>1963.1500000</ele>
        <time>2010-09-27T13:25:33Z</time>
      </trkpt>
      <trkpt lat="46.1359660" lon="12.4899540">
        <ele>1964.5900000</ele>
        <time>2010-09-27T13:25:44Z</time>
      </trkpt>
      <trkpt lat="46.1359480" lon="12.4899460">
        <ele>1965.5500000</ele>
        <time>2010-09-27T13:25:50Z</time>
      </trkpt>
      <trkpt lat="46.1359270" lon="12.4899460">
        <ele>1966.5100000</ele>
        <time>2010-09-27T13:25:57Z</time>
      </trkpt>
      <trkpt lat="46.1359020" lon="12.4899230">
        <ele>1966.9900000</ele>
        <time>2010-09-27T13:26:01Z</time>
      </trkpt>
      <trkpt lat="46.1358790" lon="12.4899060">
        <ele>1967.9600000</ele>
        <time>2010-09-27T13:26:10Z</time>
      </trkpt>
      <trkpt lat="46.1358750" lon="12.4899070">
        <ele>1967.9600000</ele>
        <time>2010-09-27T13:26:17Z</time>
      </trkpt>
      <trkpt lat="46.1358600" lon="12.4898910">
        <ele>1967.9600000</ele>
        <time>2010-09-27T13:26:26Z</time>
      </trkpt>
      <trkpt lat="46.1358370" lon="12.4898880">
        <ele>1968.9200000</ele>
        <time>2010-09-27T13:26:31Z</time>
      </trkpt>
      <trkpt lat="46.1358240" lon="12.4898830">
        <ele>1968.9200000</ele>
        <time>2010-09-27T13:26:36Z</time>
      </trkpt>
      <trkpt lat="46.1358020" lon="12.4898840">
        <ele>1970.3600000</ele>
        <time>2010-09-27T13:26:41Z</time>
      </trkpt>
      <trkpt lat="46.1357900" lon="12.4898760">
        <ele>1971.3200000</ele>
        <time>2010-09-27T13:26:51Z</time>
      </trkpt>
      <trkpt lat="46.1357760" lon="12.4898790">
        <ele>1972.2800000</ele>
        <time>2010-09-27T13:26:55Z</time>
      </trkpt>
      <trkpt lat="46.1357570" lon="12.4898820">
        <ele>1972.7600000</ele>
        <time>2010-09-27T13:27:02Z</time>
      </trkpt>
      <trkpt lat="46.1357270" lon="12.4899140">
        <ele>1975.1700000</ele>
        <time>2010-09-27T13:27:14Z</time>
      </trkpt>
      <trkpt lat="46.1357020" lon="12.4898740">
        <ele>1976.1300000</ele>
        <time>2010-09-27T13:27:24Z</time>
      </trkpt>
      <trkpt lat="46.1357020" lon="12.4898740">
        <ele>1976.6100000</ele>
        <time>2010-09-27T13:27:30Z</time>
      </trkpt>
      <trkpt lat="46.1356850" lon="12.4898910">
        <ele>1977.5700000</ele>
        <time>2010-09-27T13:27:35Z</time>
      </trkpt>
      <trkpt lat="46.1356850" lon="12.4898910">
        <ele>1978.0500000</ele>
        <time>2010-09-27T13:27:41Z</time>
      </trkpt>
      <trkpt lat="46.1356660" lon="12.4898980">
        <ele>1979.0100000</ele>
        <time>2010-09-27T13:27:45Z</time>
      </trkpt>
      <trkpt lat="46.1356350" lon="12.4899180">
        <ele>1979.0100000</ele>
        <time>2010-09-27T13:27:49Z</time>
      </trkpt>
      <trkpt lat="46.1356020" lon="12.4899670">
        <ele>1978.5300000</ele>
        <time>2010-09-27T13:27:55Z</time>
      </trkpt>
      <trkpt lat="46.1356020" lon="12.4899670">
        <ele>1979.9700000</ele>
        <time>2010-09-27T13:27:56Z</time>
      </trkpt>
      <trkpt lat="46.1356060" lon="12.4899660">
        <ele>1979.9700000</ele>
        <time>2010-09-27T13:28:03Z</time>
      </trkpt>
      <trkpt lat="46.1356040" lon="12.4899730">
        <ele>1978.0500000</ele>
        <time>2010-09-27T13:28:16Z</time>
      </trkpt>
      <trkpt lat="46.1355870" lon="12.4899590">
        <ele>1979.0100000</ele>
        <time>2010-09-27T13:28:20Z</time>
      </trkpt>
      <trkpt lat="46.1355630" lon="12.4899390">
        <ele>1979.4900000</ele>
        <time>2010-09-27T13:28:25Z</time>
      </trkpt>
      <trkpt lat="46.1355320" lon="12.4899110">
        <ele>1979.9700000</ele>
        <time>2010-09-27T13:28:30Z</time>
      </trkpt>
      <trkpt lat="46.1355090" lon="12.4899070">
        <ele>1979.9700000</ele>
        <time>2010-09-27T13:28:33Z</time>
      </trkpt>
      <trkpt lat="46.1354940" lon="12.4898840">
        <ele>1980.4500000</ele>
        <time>2010-09-27T13:28:36Z</time>
      </trkpt>
      <trkpt lat="46.1354640" lon="12.4898570">
        <ele>1980.4500000</ele>
        <time>2010-09-27T13:28:42Z</time>
      </trkpt>
      <trkpt lat="46.1354390" lon="12.4898540">
        <ele>1980.4500000</ele>
        <time>2010-09-27T13:28:49Z</time>
      </trkpt>
      <trkpt lat="46.1354340" lon="12.4898570">
        <ele>1981.9000000</ele>
        <time>2010-09-27T13:28:55Z</time>
      </trkpt>
      <trkpt lat="46.1354340" lon="12.4898570">
        <ele>1981.4100000</ele>
        <time>2010-09-27T13:29:05Z</time>
      </trkpt>
      <trkpt lat="46.1354370" lon="12.4898680">
        <ele>1980.4500000</ele>
        <time>2010-09-27T13:29:13Z</time>
      </trkpt>
      <trkpt lat="46.1354360" lon="12.4898670">
        <ele>1983.3400000</ele>
        <time>2010-09-27T13:29:50Z</time>
      </trkpt>
      <trkpt lat="46.1354100" lon="12.4898780">
        <ele>1983.8200000</ele>
        <time>2010-09-27T13:29:57Z</time>
      </trkpt>
      <trkpt lat="46.1354120" lon="12.4898620">
        <ele>1985.2600000</ele>
        <time>2010-09-27T13:30:03Z</time>
      </trkpt>
      <trkpt lat="46.1353950" lon="12.4898570">
        <ele>1985.7400000</ele>
        <time>2010-09-27T13:32:10Z</time>
      </trkpt>
      <trkpt lat="46.1353850" lon="12.4898630">
        <ele>1986.7000000</ele>
        <time>2010-09-27T13:32:22Z</time>
      </trkpt>
      <trkpt lat="46.1353380" lon="12.4898630">
        <ele>1986.7000000</ele>
        <time>2010-09-27T13:32:29Z</time>
      </trkpt>
      <trkpt lat="46.1352880" lon="12.4898420">
        <ele>1988.1400000</ele>
        <time>2010-09-27T13:32:39Z</time>
      </trkpt>
      <trkpt lat="46.1352380" lon="12.4898400">
        <ele>1991.0300000</ele>
        <time>2010-09-27T13:33:44Z</time>
      </trkpt>
      <trkpt lat="46.1352020" lon="12.4898430">
        <ele>1992.9500000</ele>
        <time>2010-09-27T13:34:03Z</time>
      </trkpt>
      <trkpt lat="46.1352020" lon="12.4898430">
        <ele>1995.8300000</ele>
        <time>2010-09-27T13:34:25Z</time>
      </trkpt>
      <trkpt lat="46.1351780" lon="12.4898490">
        <ele>1996.8000000</ele>
        <time>2010-09-27T13:34:32Z</time>
      </trkpt>
      <trkpt lat="46.1351380" lon="12.4898510">
        <ele>1997.2800000</ele>
        <time>2010-09-27T13:34:38Z</time>
      </trkpt>
      <trkpt lat="46.1351320" lon="12.4898450">
        <ele>2000.6400000</ele>
        <time>2010-09-27T13:35:07Z</time>
      </trkpt>
      <trkpt lat="46.1351140" lon="12.4898560">
        <ele>2002.0800000</ele>
        <time>2010-09-27T13:35:21Z</time>
      </trkpt>
      <trkpt lat="46.1350400" lon="12.4898760">
        <ele>2002.0800000</ele>
        <time>2010-09-27T13:35:27Z</time>
      </trkpt>
      <trkpt lat="46.1349580" lon="12.4899120">
        <ele>2002.5600000</ele>
        <time>2010-09-27T13:35:39Z</time>
      </trkpt>
      <trkpt lat="46.1349230" lon="12.4899510">
        <ele>2004.4900000</ele>
        <time>2010-09-27T13:36:00Z</time>
      </trkpt>
      <trkpt lat="46.1349080" lon="12.4899500">
        <ele>2004.9700000</ele>
        <time>2010-09-27T13:36:05Z</time>
      </trkpt>
      <trkpt lat="46.1348880" lon="12.4899640">
        <ele>2005.9300000</ele>
        <time>2010-09-27T13:36:11Z</time>
      </trkpt>
      <trkpt lat="46.1348770" lon="12.4899910">
        <ele>2006.4100000</ele>
        <time>2010-09-27T13:36:21Z</time>
      </trkpt>
      <trkpt lat="46.1348770" lon="12.4899910">
        <ele>2007.3700000</ele>
        <time>2010-09-27T13:36:27Z</time>
      </trkpt>
      <trkpt lat="46.1348770" lon="12.4899910">
        <ele>2008.3300000</ele>
        <time>2010-09-27T13:36:34Z</time>
      </trkpt>
      <trkpt lat="46.1348730" lon="12.4899910">
        <ele>2009.2900000</ele>
        <time>2010-09-27T13:36:39Z</time>
      </trkpt>
      <trkpt lat="46.1348730" lon="12.4899910">
        <ele>2008.8100000</ele>
        <time>2010-09-27T13:36:41Z</time>
      </trkpt>
      <trkpt lat="46.1348670" lon="12.4899950">
        <ele>2009.2900000</ele>
        <time>2010-09-27T13:36:46Z</time>
      </trkpt>
      <trkpt lat="46.1348270" lon="12.4900310">
        <ele>2010.2500000</ele>
        <time>2010-09-27T13:36:54Z</time>
      </trkpt>
      <trkpt lat="46.1348050" lon="12.4900410">
        <ele>2010.7300000</ele>
        <time>2010-09-27T13:37:01Z</time>
      </trkpt>
      <trkpt lat="46.1347920" lon="12.4900480">
        <ele>2011.7000000</ele>
        <time>2010-09-27T13:37:06Z</time>
      </trkpt>
      <trkpt lat="46.1347750" lon="12.4900490">
        <ele>2011.7000000</ele>
        <time>2010-09-27T13:37:13Z</time>
      </trkpt>
      <trkpt lat="46.1347500" lon="12.4900640">
        <ele>2013.1400000</ele>
        <time>2010-09-27T13:37:22Z</time>
      </trkpt>
      <trkpt lat="46.1347130" lon="12.4901210">
        <ele>2013.6200000</ele>
        <time>2010-09-27T13:38:05Z</time>
      </trkpt>
      <trkpt lat="46.1346630" lon="12.4901530">
        <ele>2014.5800000</ele>
        <time>2010-09-27T13:38:11Z</time>
      </trkpt>
      <trkpt lat="46.1346210" lon="12.4901660">
        <ele>2015.5400000</ele>
        <time>2010-09-27T13:38:18Z</time>
      </trkpt>
      <trkpt lat="46.1346130" lon="12.4901810">
        <ele>2017.4600000</ele>
        <time>2010-09-27T13:38:23Z</time>
      </trkpt>
      <trkpt lat="46.1346110" lon="12.4901860">
        <ele>2017.9400000</ele>
        <time>2010-09-27T13:38:27Z</time>
      </trkpt>
      <trkpt lat="46.1345810" lon="12.4902210">
        <ele>2018.9100000</ele>
        <time>2010-09-27T13:38:34Z</time>
      </trkpt>
      <trkpt lat="46.1345640" lon="12.4902370">
        <ele>2020.3500000</ele>
        <time>2010-09-27T13:38:39Z</time>
      </trkpt>
      <trkpt lat="46.1345430" lon="12.4902530">
        <ele>2019.3900000</ele>
        <time>2010-09-27T13:38:46Z</time>
      </trkpt>
      <trkpt lat="46.1345370" lon="12.4902900">
        <ele>2019.3900000</ele>
        <time>2010-09-27T13:39:01Z</time>
      </trkpt>
      <trkpt lat="46.1345240" lon="12.4902970">
        <ele>2019.8700000</ele>
        <time>2010-09-27T13:39:09Z</time>
      </trkpt>
      <trkpt lat="46.1345240" lon="12.4902970">
        <ele>2019.3900000</ele>
        <time>2010-09-27T13:39:27Z</time>
      </trkpt>
      <trkpt lat="46.1345150" lon="12.4903040">
        <ele>2018.9100000</ele>
        <time>2010-09-27T13:40:14Z</time>
      </trkpt>
      <trkpt lat="46.1345100" lon="12.4903380">
        <ele>2019.8700000</ele>
        <time>2010-09-27T13:40:20Z</time>
      </trkpt>
      <trkpt lat="46.1345190" lon="12.4903660">
        <ele>2019.8700000</ele>
        <time>2010-09-27T13:40:26Z</time>
      </trkpt>
      <trkpt lat="46.1345330" lon="12.4903840">
        <ele>2021.7900000</ele>
        <time>2010-09-27T13:40:34Z</time>
      </trkpt>
      <trkpt lat="46.1345350" lon="12.4903880">
        <ele>2020.3500000</ele>
        <time>2010-09-27T13:40:37Z</time>
      </trkpt>
      <trkpt lat="46.1345170" lon="12.4904390">
        <ele>2021.7900000</ele>
        <time>2010-09-27T13:40:43Z</time>
      </trkpt>
      <trkpt lat="46.1345410" lon="12.4905190">
        <ele>2021.3100000</ele>
        <time>2010-09-27T13:40:50Z</time>
      </trkpt>
      <trkpt lat="46.1345680" lon="12.4905570">
        <ele>2022.2700000</ele>
        <time>2010-09-27T13:40:54Z</time>
      </trkpt>
      <trkpt lat="46.1345870" lon="12.4905880">
        <ele>2022.2700000</ele>
        <time>2010-09-27T13:40:58Z</time>
      </trkpt>
      <trkpt lat="46.1346100" lon="12.4906320">
        <ele>2023.7100000</ele>
        <time>2010-09-27T13:41:03Z</time>
      </trkpt>
      <trkpt lat="46.1346590" lon="12.4906790">
        <ele>2023.2300000</ele>
        <time>2010-09-27T13:41:08Z</time>
      </trkpt>
      <trkpt lat="46.1346750" lon="12.4906990">
        <ele>2022.2700000</ele>
        <time>2010-09-27T13:41:10Z</time>
      </trkpt>
      <trkpt lat="46.1346900" lon="12.4907240">
        <ele>2023.2300000</ele>
        <time>2010-09-27T13:41:15Z</time>
      </trkpt>
      <trkpt lat="46.1347100" lon="12.4907670">
        <ele>2024.1900000</ele>
        <time>2010-09-27T13:41:20Z</time>
      </trkpt>
      <trkpt lat="46.1347350" lon="12.4907920">
        <ele>2024.1900000</ele>
        <time>2010-09-27T13:41:25Z</time>
      </trkpt>
      <trkpt lat="46.1347440" lon="12.4907990">
        <ele>2023.2300000</ele>
        <time>2010-09-27T13:41:28Z</time>
      </trkpt>
      <trkpt lat="46.1347630" lon="12.4908070">
        <ele>2023.2300000</ele>
        <time>2010-09-27T13:41:31Z</time>
      </trkpt>
      <trkpt lat="46.1348200" lon="12.4908300">
        <ele>2022.7500000</ele>
        <time>2010-09-27T13:41:37Z</time>
      </trkpt>
      <trkpt lat="46.1348240" lon="12.4908960">
        <ele>2023.2300000</ele>
        <time>2010-09-27T13:41:43Z</time>
      </trkpt>
      <trkpt lat="46.1348290" lon="12.4909430">
        <ele>2023.7100000</ele>
        <time>2010-09-27T13:41:48Z</time>
      </trkpt>
      <trkpt lat="46.1348320" lon="12.4909800">
        <ele>2024.6700000</ele>
        <time>2010-09-27T13:41:52Z</time>
      </trkpt>
      <trkpt lat="46.1348590" lon="12.4910090">
        <ele>2025.1500000</ele>
        <time>2010-09-27T13:41:58Z</time>
      </trkpt>
      <trkpt lat="46.1348810" lon="12.4910310">
        <ele>2024.6700000</ele>
        <time>2010-09-27T13:42:05Z</time>
      </trkpt>
      <trkpt lat="46.1349110" lon="12.4910260">
        <ele>2025.1500000</ele>
        <time>2010-09-27T13:42:17Z</time>
      </trkpt>
      <trkpt lat="46.1349470" lon="12.4909390">
        <ele>2025.1500000</ele>
        <time>2010-09-27T13:42:35Z</time>
      </trkpt>
      <trkpt lat="46.1349920" lon="12.4908400">
        <ele>2024.6700000</ele>
        <time>2010-09-27T13:42:42Z</time>
      </trkpt>
      <trkpt lat="46.1349810" lon="12.4908470">
        <ele>2024.6700000</ele>
        <time>2010-09-27T13:42:45Z</time>
      </trkpt>
      <trkpt lat="46.1349840" lon="12.4908260">
        <ele>2025.1500000</ele>
        <time>2010-09-27T13:42:52Z</time>
      </trkpt>
      <trkpt lat="46.1349550" lon="12.4908340">
        <ele>2023.7100000</ele>
        <time>2010-09-27T13:43:00Z</time>
      </trkpt>
      <trkpt lat="46.1349550" lon="12.4908340">
        <ele>2024.1900000</ele>
        <time>2010-09-27T13:43:34Z</time>
      </trkpt>
      <trkpt lat="46.1349690" lon="12.4908760">
        <ele>2024.6700000</ele>
        <time>2010-09-27T13:43:37Z</time>
      </trkpt>
      <trkpt lat="46.1349830" lon="12.4908740">
        <ele>2025.1500000</ele>
        <time>2010-09-27T13:43:43Z</time>
      </trkpt>
      <trkpt lat="46.1349460" lon="12.4909440">
        <ele>2024.1900000</ele>
        <time>2010-09-27T13:44:19Z</time>
      </trkpt>
      <trkpt lat="46.1349260" lon="12.4909540">
        <ele>2024.6700000</ele>
        <time>2010-09-27T13:44:21Z</time>
      </trkpt>
      <trkpt lat="46.1348380" lon="12.4910080">
        <ele>2025.1500000</ele>
        <time>2010-09-27T13:44:27Z</time>
      </trkpt>
      <trkpt lat="46.1345770" lon="12.4910860">
        <ele>2024.6700000</ele>
        <time>2010-09-27T13:44:41Z</time>
      </trkpt>
      <trkpt lat="46.1345010" lon="12.4910930">
        <ele>2024.6700000</ele>
        <time>2010-09-27T13:45:03Z</time>
      </trkpt>
      <trkpt lat="46.1346990" lon="12.4910370">
        <ele>2024.1900000</ele>
        <time>2010-09-27T13:45:47Z</time>
      </trkpt>
      <trkpt lat="46.1348450" lon="12.4909860">
        <ele>2024.6700000</ele>
        <time>2010-09-27T13:46:55Z</time>
      </trkpt>
      <trkpt lat="46.1347900" lon="12.4909820">
        <ele>2024.1900000</ele>
        <time>2010-09-27T13:47:06Z</time>
      </trkpt>
      <trkpt lat="46.1349350" lon="12.4909250">
        <ele>2024.1900000</ele>
        <time>2010-09-27T13:47:18Z</time>
      </trkpt>
      <trkpt lat="46.1349690" lon="12.4909060">
        <ele>2023.7100000</ele>
        <time>2010-09-27T13:47:26Z</time>
      </trkpt>
      <trkpt lat="46.1349790" lon="12.4909470">
        <ele>2023.2300000</ele>
        <time>2010-09-27T13:47:32Z</time>
      </trkpt>
      <trkpt lat="46.1349790" lon="12.4909470">
        <ele>2023.7100000</ele>
        <time>2010-09-27T13:48:07Z</time>
      </trkpt>
      <trkpt lat="46.1349900" lon="12.4909110">
        <ele>2024.6700000</ele>
        <time>2010-09-27T13:48:14Z</time>
      </trkpt>
      <trkpt lat="46.1349940" lon="12.4909080">
        <ele>2025.1500000</ele>
        <time>2010-09-27T13:48:25Z</time>
      </trkpt>
      <trkpt lat="46.1349780" lon="12.4908530">
        <ele>2024.1900000</ele>
        <time>2010-09-27T13:48:42Z</time>
      </trkpt>
      <trkpt lat="46.1349110" lon="12.4908780">
        <ele>2024.1900000</ele>
        <time>2010-09-27T13:48:52Z</time>
      </trkpt>
      <trkpt lat="46.1347620" lon="12.4906520">
        <ele>2025.1500000</ele>
        <time>2010-09-27T13:49:41Z</time>
      </trkpt>
      <trkpt lat="46.1347620" lon="12.4906520">
        <ele>2024.6700000</ele>
        <time>2010-09-27T13:50:10Z</time>
      </trkpt>
      <trkpt lat="46.1347620" lon="12.4906520">
        <ele>2016.9800000</ele>
        <time>2010-09-27T13:51:42Z</time>
      </trkpt>
      <trkpt lat="46.1350770" lon="12.4908690">
        <ele>2024.6700000</ele>
        <time>2010-09-27T13:51:43Z</time>
      </trkpt>
      <trkpt lat="46.1350530" lon="12.4908690">
        <ele>2024.1900000</ele>
        <time>2010-09-27T13:51:53Z</time>
      </trkpt>
      <trkpt lat="46.1350530" lon="12.4908690">
        <ele>2043.4200000</ele>
        <time>2010-09-28T05:17:30Z</time>
      </trkpt>
      <trkpt lat="46.1350530" lon="12.4908690">
        <ele>2020.8300000</ele>
        <time>2010-09-28T05:17:31Z</time>
      </trkpt>
      <trkpt lat="46.1350530" lon="12.4908690">
        <ele>2018.9100000</ele>
        <time>2010-09-28T05:17:54Z</time>
      </trkpt>
      <trkpt lat="46.1346810" lon="12.4912180">
        <ele>2021.3100000</ele>
        <time>2010-09-28T05:18:16Z</time>
      </trkpt>
      <trkpt lat="46.1314690" lon="12.4913760">
        <ele>2017.4600000</ele>
        <time>2010-09-28T05:18:22Z</time>
      </trkpt>
      <trkpt lat="46.1314700" lon="12.4913770">
        <ele>2014.5800000</ele>
        <time>2010-09-28T05:18:23Z</time>
      </trkpt>
      <trkpt lat="46.1314720" lon="12.4913780">
        <ele>2008.3300000</ele>
        <time>2010-09-28T05:18:25Z</time>
      </trkpt>
      <trkpt lat="46.1349160" lon="12.4907790">
        <ele>2003.0400000</ele>
        <time>2010-09-28T05:18:27Z</time>
      </trkpt>
      <trkpt lat="46.1323100" lon="12.4901780">
        <ele>2006.4100000</ele>
        <time>2010-09-28T05:18:32Z</time>
      </trkpt>
      <trkpt lat="46.1323100" lon="12.4901780">
        <ele>2007.8500000</ele>
        <time>2010-09-28T05:18:34Z</time>
      </trkpt>
      <trkpt lat="46.1347710" lon="12.4907730">
        <ele>2011.7000000</ele>
        <time>2010-09-28T05:18:49Z</time>
      </trkpt>
      <trkpt lat="46.1347770" lon="12.4907800">
        <ele>2015.0600000</ele>
        <time>2010-09-28T05:18:52Z</time>
      </trkpt>
      <trkpt lat="46.1347830" lon="12.4907810">
        <ele>2018.9100000</ele>
        <time>2010-09-28T05:18:55Z</time>
      </trkpt>
      <trkpt lat="46.1348750" lon="12.4908400">
        <ele>2022.2700000</ele>
        <time>2010-09-28T05:18:58Z</time>
      </trkpt>
      <trkpt lat="46.1349120" lon="12.4908570">
        <ele>2025.6400000</ele>
        <time>2010-09-28T05:19:05Z</time>
      </trkpt>
      <trkpt lat="46.1349340" lon="12.4908640">
        <ele>2027.5600000</ele>
        <time>2010-09-28T05:19:10Z</time>
      </trkpt>
      <trkpt lat="46.1349240" lon="12.4908720">
        <ele>2029.0000000</ele>
        <time>2010-09-28T05:19:14Z</time>
      </trkpt>
      <trkpt lat="46.1349350" lon="12.4908750">
        <ele>2032.8400000</ele>
        <time>2010-09-28T05:19:22Z</time>
      </trkpt>
      <trkpt lat="46.1349610" lon="12.4908630">
        <ele>2036.2100000</ele>
        <time>2010-09-28T05:19:36Z</time>
      </trkpt>
      <trkpt lat="46.1349970" lon="12.4908450">
        <ele>2039.0900000</ele>
        <time>2010-09-28T05:19:50Z</time>
      </trkpt>
      <trkpt lat="46.1349980" lon="12.4908540">
        <ele>2042.4600000</ele>
        <time>2010-09-28T05:22:56Z</time>
      </trkpt>
      <trkpt lat="46.1349820" lon="12.4908380">
        <ele>2041.5000000</ele>
        <time>2010-09-28T05:25:24Z</time>
      </trkpt>
      <trkpt lat="46.1350000" lon="12.4908490">
        <ele>2041.5000000</ele>
        <time>2010-09-28T05:25:56Z</time>
      </trkpt>
      <trkpt lat="46.1350010" lon="12.4908260">
        <ele>2041.5000000</ele>
        <time>2010-09-28T05:26:04Z</time>
      </trkpt>
      <trkpt lat="46.1350090" lon="12.4908410">
        <ele>2041.9800000</ele>
        <time>2010-09-28T05:26:36Z</time>
      </trkpt>
      <trkpt lat="46.1350090" lon="12.4908410">
        <ele>2041.9800000</ele>
        <time>2010-09-28T05:26:37Z</time>
      </trkpt>
      <trkpt lat="46.1350410" lon="12.4908410">
        <ele>2041.9800000</ele>
        <time>2010-09-28T05:26:45Z</time>
      </trkpt>
      <trkpt lat="46.1349060" lon="12.4907330">
        <ele>2042.4600000</ele>
        <time>2010-09-28T05:27:29Z</time>
      </trkpt>
      <trkpt lat="46.1348330" lon="12.4906220">
        <ele>2041.9800000</ele>
        <time>2010-09-28T05:27:40Z</time>
      </trkpt>
      <trkpt lat="46.1348160" lon="12.4906120">
        <ele>2041.9800000</ele>
        <time>2010-09-28T05:27:42Z</time>
      </trkpt>
      <trkpt lat="46.1346780" lon="12.4904580">
        <ele>2042.4600000</ele>
        <time>2010-09-28T05:27:54Z</time>
      </trkpt>
      <trkpt lat="46.1346420" lon="12.4904550">
        <ele>2041.9800000</ele>
        <time>2010-09-28T05:28:02Z</time>
      </trkpt>
      <trkpt lat="46.1348560" lon="12.4908400">
        <ele>2041.9800000</ele>
        <time>2010-09-28T05:28:45Z</time>
      </trkpt>
      <trkpt lat="46.1349350" lon="12.4909560">
        <ele>2042.4600000</ele>
        <time>2010-09-28T05:29:07Z</time>
      </trkpt>
      <trkpt lat="46.1348870" lon="12.4909760">
        <ele>2042.4600000</ele>
        <time>2010-09-28T05:29:21Z</time>
      </trkpt>
      <trkpt lat="46.1348940" lon="12.4908940">
        <ele>2045.3400000</ele>
        <time>2010-09-28T05:30:14Z</time>
      </trkpt>
      <trkpt lat="46.1348940" lon="12.4908940">
        <ele>2041.9800000</ele>
        <time>2010-09-28T05:30:15Z</time>
      </trkpt>
      <trkpt lat="46.1348650" lon="12.4908960">
        <ele>2043.9000000</ele>
        <time>2010-09-28T05:36:28Z</time>
      </trkpt>
      <trkpt lat="46.1350000" lon="12.4908170">
        <ele>2042.9400000</ele>
        <time>2010-09-28T05:36:30Z</time>
      </trkpt>
      <trkpt lat="46.1350920" lon="12.4908780">
        <ele>2043.4200000</ele>
        <time>2010-09-28T05:37:22Z</time>
      </trkpt>
      <trkpt lat="46.1352090" lon="12.4908820">
        <ele>2043.4200000</ele>
        <time>2010-09-28T05:37:33Z</time>
      </trkpt>
      <trkpt lat="46.1352690" lon="12.4908660">
        <ele>2042.9400000</ele>
        <time>2010-09-28T05:37:43Z</time>
      </trkpt>
      <trkpt lat="46.1353090" lon="12.4908790">
        <ele>2042.9400000</ele>
        <time>2010-09-28T05:37:52Z</time>
      </trkpt>
      <trkpt lat="46.1353140" lon="12.4908810">
        <ele>2046.3000000</ele>
        <time>2010-09-28T05:37:53Z</time>
      </trkpt>
      <trkpt lat="46.1353180" lon="12.4908830">
        <ele>2044.3800000</ele>
        <time>2010-09-28T05:37:54Z</time>
      </trkpt>
      <trkpt lat="46.1353370" lon="12.4908920">
        <ele>2042.9400000</ele>
        <time>2010-09-28T05:37:58Z</time>
      </trkpt>
      <trkpt lat="46.1354680" lon="12.4909420">
        <ele>2043.9000000</ele>
        <time>2010-09-28T05:38:29Z</time>
      </trkpt>
      <trkpt lat="46.1354140" lon="12.4909060">
        <ele>2042.9400000</ele>
        <time>2010-09-28T05:38:42Z</time>
      </trkpt>
      <trkpt lat="46.1354980" lon="12.4909280">
        <ele>2042.4600000</ele>
        <time>2010-09-28T05:38:52Z</time>
      </trkpt>
      <trkpt lat="46.1350650" lon="12.4908260">
        <ele>2042.4600000</ele>
        <time>2010-09-28T05:39:09Z</time>
      </trkpt>
      <trkpt lat="46.1351100" lon="12.4908980">
        <ele>2042.4600000</ele>
        <time>2010-09-28T05:39:30Z</time>
      </trkpt>
      <trkpt lat="46.1352730" lon="12.4910770">
        <ele>2042.4600000</ele>
        <time>2010-09-28T05:40:01Z</time>
      </trkpt>
      <trkpt lat="46.1352730" lon="12.4910770">
        <ele>2041.5000000</ele>
        <time>2010-09-28T05:40:03Z</time>
      </trkpt>
      <trkpt lat="46.1352460" lon="12.4908970">
        <ele>2041.9800000</ele>
        <time>2010-09-28T05:40:17Z</time>
      </trkpt>
      <trkpt lat="46.1350240" lon="12.4909060">
        <ele>2041.5000000</ele>
        <time>2010-09-28T05:41:50Z</time>
      </trkpt>
      <trkpt lat="46.1350120" lon="12.4908610">
        <ele>2041.0200000</ele>
        <time>2010-09-28T05:42:04Z</time>
      </trkpt>
      <trkpt lat="46.1350040" lon="12.4908450">
        <ele>2041.0200000</ele>
        <time>2010-09-28T05:42:11Z</time>
      </trkpt>
      <trkpt lat="46.1350190" lon="12.4908410">
        <ele>2041.5000000</ele>
        <time>2010-09-28T05:42:22Z</time>
      </trkpt>
      <trkpt lat="46.1350190" lon="12.4908410">
        <ele>2041.9800000</ele>
        <time>2010-09-28T05:42:24Z</time>
      </trkpt>
      <trkpt lat="46.1350010" lon="12.4908300">
        <ele>2041.5000000</ele>
        <time>2010-09-28T05:42:31Z</time>
      </trkpt>
      <trkpt lat="46.1350280" lon="12.4908520">
        <ele>2041.0200000</ele>
        <time>2010-09-28T05:42:46Z</time>
      </trkpt>
      <trkpt lat="46.1350220" lon="12.4908480">
        <ele>2041.5000000</ele>
        <time>2010-09-28T05:43:12Z</time>
      </trkpt>
      <trkpt lat="46.1350270" lon="12.4908640">
        <ele>2041.0200000</ele>
        <time>2010-09-28T05:43:26Z</time>
      </trkpt>
      <trkpt lat="46.1350310" lon="12.4908620">
        <ele>2041.9800000</ele>
        <time>2010-09-28T05:43:39Z</time>
      </trkpt>
      <trkpt lat="46.1350350" lon="12.4908580">
        <ele>2042.4600000</ele>
        <time>2010-09-28T05:44:10Z</time>
      </trkpt>
      <trkpt lat="46.1350340" lon="12.4908550">
        <ele>2041.0200000</ele>
        <time>2010-09-28T05:44:57Z</time>
      </trkpt>
      <trkpt lat="46.1350310" lon="12.4908370">
        <ele>2041.0200000</ele>
        <time>2010-09-28T05:45:04Z</time>
      </trkpt>
      <trkpt lat="46.1350270" lon="12.4908350">
        <ele>2041.5000000</ele>
        <time>2010-09-28T05:45:17Z</time>
      </trkpt>
      <trkpt lat="46.1350160" lon="12.4908370">
        <ele>2041.5000000</ele>
        <time>2010-09-28T05:45:38Z</time>
      </trkpt>
      <trkpt lat="46.1350190" lon="12.4908410">
        <ele>2041.5000000</ele>
        <time>2010-09-28T05:46:01Z</time>
      </trkpt>
      <trkpt lat="46.1349870" lon="12.4908700">
        <ele>2041.5000000</ele>
        <time>2010-09-28T05:46:08Z</time>
      </trkpt>
      <trkpt lat="46.1349720" lon="12.4908640">
        <ele>2041.9800000</ele>
        <time>2010-09-28T05:46:27Z</time>
      </trkpt>
      <trkpt lat="46.1349720" lon="12.4908640">
        <ele>2041.9800000</ele>
        <time>2010-09-28T05:46:48Z</time>
      </trkpt>
      <trkpt lat="46.1349830" lon="12.4908720">
        <ele>2040.5400000</ele>
        <time>2010-09-28T05:46:54Z</time>
      </trkpt>
      <trkpt lat="46.1350040" lon="12.4908830">
        <ele>2041.0200000</ele>
        <time>2010-09-28T05:46:59Z</time>
      </trkpt>
      <trkpt lat="46.1350080" lon="12.4908810">
        <ele>2041.9800000</ele>
        <time>2010-09-28T05:47:13Z</time>
      </trkpt>
      <trkpt lat="46.1350080" lon="12.4908810">
        <ele>2041.9800000</ele>
        <time>2010-09-28T05:47:46Z</time>
      </trkpt>
      <trkpt lat="46.1350070" lon="12.4908880">
        <ele>2041.5000000</ele>
        <time>2010-09-28T05:47:52Z</time>
      </trkpt>
      <trkpt lat="46.1350070" lon="12.4908880">
        <ele>2041.0200000</ele>
        <time>2010-09-28T05:47:57Z</time>
      </trkpt>
      <trkpt lat="46.1349770" lon="12.4908730">
        <ele>2041.9800000</ele>
        <time>2010-09-28T05:48:03Z</time>
      </trkpt>
      <trkpt lat="46.1349760" lon="12.4908750">
        <ele>2041.9800000</ele>
        <time>2010-09-28T05:48:10Z</time>
      </trkpt>
      <trkpt lat="46.1350120" lon="12.4908720">
        <ele>2041.9800000</ele>
        <time>2010-09-28T05:48:16Z</time>
      </trkpt>
      <trkpt lat="46.1350290" lon="12.4908730">
        <ele>2041.5000000</ele>
        <time>2010-09-28T05:48:23Z</time>
      </trkpt>
      <trkpt lat="46.1349830" lon="12.4908310">
        <ele>2041.9800000</ele>
        <time>2010-09-28T05:48:48Z</time>
      </trkpt>
      <trkpt lat="46.1349730" lon="12.4908680">
        <ele>2041.9800000</ele>
        <time>2010-09-28T05:48:55Z</time>
      </trkpt>
      <trkpt lat="46.1349590" lon="12.4908850">
        <ele>2042.9400000</ele>
        <time>2010-09-28T05:49:03Z</time>
      </trkpt>
      <trkpt lat="46.1349580" lon="12.4908990">
        <ele>2043.9000000</ele>
        <time>2010-09-28T05:49:21Z</time>
      </trkpt>
      <trkpt lat="46.1349560" lon="12.4909020">
        <ele>2043.4200000</ele>
        <time>2010-09-28T05:50:49Z</time>
      </trkpt>
      <trkpt lat="46.1349620" lon="12.4908740">
        <ele>2042.4600000</ele>
        <time>2010-09-28T05:50:53Z</time>
      </trkpt>
      <trkpt lat="46.1349680" lon="12.4908660">
        <ele>2042.4600000</ele>
        <time>2010-09-28T05:50:59Z</time>
      </trkpt>
      <trkpt lat="46.1349680" lon="12.4908660">
        <ele>2038.6100000</ele>
        <time>2010-09-28T05:51:09Z</time>
      </trkpt>
      <trkpt lat="46.1349680" lon="12.4908660">
        <ele>2042.9400000</ele>
        <time>2010-09-28T05:51:10Z</time>
      </trkpt>
      <trkpt lat="46.1349680" lon="12.4908660">
        <ele>2042.9400000</ele>
        <time>2010-09-28T05:51:11Z</time>
      </trkpt>
      <trkpt lat="46.1349680" lon="12.4908660">
        <ele>2041.5000000</ele>
        <time>2010-09-28T05:51:13Z</time>
      </trkpt>
      <trkpt lat="46.1349740" lon="12.4908620">
        <ele>2041.9800000</ele>
        <time>2010-09-28T05:51:22Z</time>
      </trkpt>
      <trkpt lat="46.1349750" lon="12.4908700">
        <ele>2041.5000000</ele>
        <time>2010-09-28T05:51:30Z</time>
      </trkpt>
      <trkpt lat="46.1349750" lon="12.4908700">
        <ele>2041.9800000</ele>
        <time>2010-09-28T05:51:47Z</time>
      </trkpt>
      <trkpt lat="46.1349580" lon="12.4908670">
        <ele>2041.9800000</ele>
        <time>2010-09-28T05:51:52Z</time>
      </trkpt>
      <trkpt lat="46.1349590" lon="12.4908440">
        <ele>2042.4600000</ele>
        <time>2010-09-28T05:52:03Z</time>
      </trkpt>
      <trkpt lat="46.1349410" lon="12.4908060">
        <ele>2041.0200000</ele>
        <time>2010-09-28T05:52:09Z</time>
      </trkpt>
      <trkpt lat="46.1349330" lon="12.4907960">
        <ele>2040.5400000</ele>
        <time>2010-09-28T05:52:10Z</time>
      </trkpt>
      <trkpt lat="46.1348500" lon="12.4907400">
        <ele>2040.5400000</ele>
        <time>2010-09-28T05:52:17Z</time>
      </trkpt>
      <trkpt lat="46.1347960" lon="12.4907150">
        <ele>2041.5000000</ele>
        <time>2010-09-28T05:52:23Z</time>
      </trkpt>
      <trkpt lat="46.1347880" lon="12.4907100">
        <ele>2041.5000000</ele>
        <time>2010-09-28T05:52:29Z</time>
      </trkpt>
      <trkpt lat="46.1347790" lon="12.4907080">
        <ele>2041.5000000</ele>
        <time>2010-09-28T05:52:47Z</time>
      </trkpt>
      <trkpt lat="46.1347650" lon="12.4907000">
        <ele>2041.5000000</ele>
        <time>2010-09-28T05:53:31Z</time>
      </trkpt>
      <trkpt lat="46.1347360" lon="12.4906890">
        <ele>2041.0200000</ele>
        <time>2010-09-28T05:53:38Z</time>
      </trkpt>
      <trkpt lat="46.1347140" lon="12.4906690">
        <ele>2041.0200000</ele>
        <time>2010-09-28T05:53:49Z</time>
      </trkpt>
      <trkpt lat="46.1346820" lon="12.4906550">
        <ele>2040.0500000</ele>
        <time>2010-09-28T05:53:54Z</time>
      </trkpt>
      <trkpt lat="46.1346070" lon="12.4906100">
        <ele>2039.5700000</ele>
        <time>2010-09-28T05:54:01Z</time>
      </trkpt>
      <trkpt lat="46.1345820" lon="12.4905800">
        <ele>2040.5400000</ele>
        <time>2010-09-28T05:54:04Z</time>
      </trkpt>
      <trkpt lat="46.1345530" lon="12.4905110">
        <ele>2038.1300000</ele>
        <time>2010-09-28T05:54:09Z</time>
      </trkpt>
      <trkpt lat="46.1345180" lon="12.4904470">
        <ele>2038.6100000</ele>
        <time>2010-09-28T05:54:16Z</time>
      </trkpt>
      <trkpt lat="46.1345160" lon="12.4904300">
        <ele>2038.1300000</ele>
        <time>2010-09-28T05:54:21Z</time>
      </trkpt>
      <trkpt lat="46.1345160" lon="12.4904330">
        <ele>2038.1300000</ele>
        <time>2010-09-28T05:54:35Z</time>
      </trkpt>
      <trkpt lat="46.1345210" lon="12.4904230">
        <ele>2037.1700000</ele>
        <time>2010-09-28T05:55:07Z</time>
      </trkpt>
      <trkpt lat="46.1345210" lon="12.4904230">
        <ele>2036.6900000</ele>
        <time>2010-09-28T05:55:15Z</time>
      </trkpt>
      <trkpt lat="46.1344790" lon="12.4903660">
        <ele>2035.7300000</ele>
        <time>2010-09-28T05:55:20Z</time>
      </trkpt>
      <trkpt lat="46.1344660" lon="12.4903490">
        <ele>2035.2500000</ele>
        <time>2010-09-28T05:55:21Z</time>
      </trkpt>
      <trkpt lat="46.1344450" lon="12.4903090">
        <ele>2033.8100000</ele>
        <time>2010-09-28T05:55:24Z</time>
      </trkpt>
      <trkpt lat="46.1344010" lon="12.4902340">
        <ele>2032.8400000</ele>
        <time>2010-09-28T05:55:31Z</time>
      </trkpt>
      <trkpt lat="46.1343900" lon="12.4902090">
        <ele>2032.3600000</ele>
        <time>2010-09-28T05:55:33Z</time>
      </trkpt>
      <trkpt lat="46.1343710" lon="12.4901090">
        <ele>2030.9200000</ele>
        <time>2010-09-28T05:55:39Z</time>
      </trkpt>
      <trkpt lat="46.1343730" lon="12.4900930">
        <ele>2030.9200000</ele>
        <time>2010-09-28T05:55:40Z</time>
      </trkpt>
      <trkpt lat="46.1343660" lon="12.4900670">
        <ele>2028.5200000</ele>
        <time>2010-09-28T05:55:43Z</time>
      </trkpt>
      <trkpt lat="46.1343450" lon="12.4900300">
        <ele>2028.0400000</ele>
        <time>2010-09-28T05:55:50Z</time>
      </trkpt>
      <trkpt lat="46.1343300" lon="12.4900180">
        <ele>2026.6000000</ele>
        <time>2010-09-28T05:55:56Z</time>
      </trkpt>
      <trkpt lat="46.1343160" lon="12.4900020">
        <ele>2025.6400000</ele>
        <time>2010-09-28T05:56:02Z</time>
      </trkpt>
      <trkpt lat="46.1343160" lon="12.4900020">
        <ele>2025.1500000</ele>
        <time>2010-09-28T05:56:06Z</time>
      </trkpt>
      <trkpt lat="46.1342370" lon="12.4899770">
        <ele>2023.7100000</ele>
        <time>2010-09-28T05:56:13Z</time>
      </trkpt>
      <trkpt lat="46.1342300" lon="12.4899570">
        <ele>2021.7900000</ele>
        <time>2010-09-28T05:56:19Z</time>
      </trkpt>
      <trkpt lat="46.1342200" lon="12.4898970">
        <ele>2020.3500000</ele>
        <time>2010-09-28T05:56:25Z</time>
      </trkpt>
      <trkpt lat="46.1342100" lon="12.4898630">
        <ele>2019.3900000</ele>
        <time>2010-09-28T05:56:31Z</time>
      </trkpt>
      <trkpt lat="46.1341970" lon="12.4898450">
        <ele>2017.9400000</ele>
        <time>2010-09-28T05:56:35Z</time>
      </trkpt>
      <trkpt lat="46.1341890" lon="12.4898330">
        <ele>2016.9800000</ele>
        <time>2010-09-28T05:56:40Z</time>
      </trkpt>
      <trkpt lat="46.1341360" lon="12.4898190">
        <ele>2015.5400000</ele>
        <time>2010-09-28T05:56:47Z</time>
      </trkpt>
      <trkpt lat="46.1340940" lon="12.4898120">
        <ele>2014.5800000</ele>
        <time>2010-09-28T05:56:53Z</time>
      </trkpt>
      <trkpt lat="46.1340740" lon="12.4897860">
        <ele>2012.6600000</ele>
        <time>2010-09-28T05:57:01Z</time>
      </trkpt>
      <trkpt lat="46.1340550" lon="12.4897550">
        <ele>2011.7000000</ele>
        <time>2010-09-28T05:57:07Z</time>
      </trkpt>
      <trkpt lat="46.1340330" lon="12.4897080">
        <ele>2012.1800000</ele>
        <time>2010-09-28T05:57:12Z</time>
      </trkpt>
      <trkpt lat="46.1340490" lon="12.4896090">
        <ele>2010.7300000</ele>
        <time>2010-09-28T05:57:22Z</time>
      </trkpt>
      <trkpt lat="46.1340460" lon="12.4896220">
        <ele>2010.7300000</ele>
        <time>2010-09-28T05:57:28Z</time>
      </trkpt>
      <trkpt lat="46.1340460" lon="12.4896220">
        <ele>2010.2500000</ele>
        <time>2010-09-28T05:57:48Z</time>
      </trkpt>
      <trkpt lat="46.1340650" lon="12.4896270">
        <ele>2010.7300000</ele>
        <time>2010-09-28T05:57:56Z</time>
      </trkpt>
      <trkpt lat="46.1340520" lon="12.4896160">
        <ele>2011.2200000</ele>
        <time>2010-09-28T05:58:54Z</time>
      </trkpt>
      <trkpt lat="46.1340110" lon="12.4896750">
        <ele>2011.7000000</ele>
        <time>2010-09-28T05:59:00Z</time>
      </trkpt>
      <trkpt lat="46.1339940" lon="12.4897360">
        <ele>2011.2200000</ele>
        <time>2010-09-28T05:59:06Z</time>
      </trkpt>
      <trkpt lat="46.1339920" lon="12.4897480">
        <ele>2011.7000000</ele>
        <time>2010-09-28T05:59:08Z</time>
      </trkpt>
      <trkpt lat="46.1339970" lon="12.4897680">
        <ele>2012.1800000</ele>
        <time>2010-09-28T05:59:14Z</time>
      </trkpt>
      <trkpt lat="46.1340060" lon="12.4897380">
        <ele>2012.6600000</ele>
        <time>2010-09-28T05:59:40Z</time>
      </trkpt>
      <trkpt lat="46.1340160" lon="12.4895860">
        <ele>2011.7000000</ele>
        <time>2010-09-28T05:59:49Z</time>
      </trkpt>
      <trkpt lat="46.1340270" lon="12.4895700">
        <ele>2011.2200000</ele>
        <time>2010-09-28T05:59:57Z</time>
      </trkpt>
      <trkpt lat="46.1340580" lon="12.4895790">
        <ele>2011.2200000</ele>
        <time>2010-09-28T06:00:07Z</time>
      </trkpt>
      <trkpt lat="46.1340820" lon="12.4896090">
        <ele>2010.7300000</ele>
        <time>2010-09-28T06:00:09Z</time>
      </trkpt>
      <trkpt lat="46.1341310" lon="12.4896040">
        <ele>2012.1800000</ele>
        <time>2010-09-28T06:00:15Z</time>
      </trkpt>
      <trkpt lat="46.1341630" lon="12.4895670">
        <ele>2011.7000000</ele>
        <time>2010-09-28T06:00:20Z</time>
      </trkpt>
      <trkpt lat="46.1342120" lon="12.4894820">
        <ele>2011.7000000</ele>
        <time>2010-09-28T06:00:27Z</time>
      </trkpt>
      <trkpt lat="46.1342430" lon="12.4894410">
        <ele>2011.2200000</ele>
        <time>2010-09-28T06:00:32Z</time>
      </trkpt>
      <trkpt lat="46.1342630" lon="12.4894300">
        <ele>2010.2500000</ele>
        <time>2010-09-28T06:00:34Z</time>
      </trkpt>
      <trkpt lat="46.1343060" lon="12.4893830">
        <ele>2012.6600000</ele>
        <time>2010-09-28T06:00:40Z</time>
      </trkpt>
      <trkpt lat="46.1343320" lon="12.4893640">
        <ele>2009.2900000</ele>
        <time>2010-09-28T06:00:42Z</time>
      </trkpt>
      <trkpt lat="46.1343810" lon="12.4892820">
        <ele>2011.7000000</ele>
        <time>2010-09-28T06:00:47Z</time>
      </trkpt>
      <trkpt lat="46.1344100" lon="12.4892400">
        <ele>2010.2500000</ele>
        <time>2010-09-28T06:00:53Z</time>
      </trkpt>
      <trkpt lat="46.1344270" lon="12.4891920">
        <ele>2009.2900000</ele>
        <time>2010-09-28T06:01:08Z</time>
      </trkpt>
      <trkpt lat="46.1344440" lon="12.4891520">
        <ele>2012.1800000</ele>
        <time>2010-09-28T06:01:11Z</time>
      </trkpt>
      <trkpt lat="46.1344570" lon="12.4890750">
        <ele>2009.2900000</ele>
        <time>2010-09-28T06:01:17Z</time>
      </trkpt>
      <trkpt lat="46.1344460" lon="12.4889290">
        <ele>2010.7300000</ele>
        <time>2010-09-28T06:01:32Z</time>
      </trkpt>
      <trkpt lat="46.1344260" lon="12.4889200">
        <ele>2008.8100000</ele>
        <time>2010-09-28T06:01:36Z</time>
      </trkpt>
      <trkpt lat="46.1344150" lon="12.4889020">
        <ele>2008.8100000</ele>
        <time>2010-09-28T06:01:49Z</time>
      </trkpt>
      <trkpt lat="46.1344170" lon="12.4889350">
        <ele>2009.2900000</ele>
        <time>2010-09-28T06:01:53Z</time>
      </trkpt>
      <trkpt lat="46.1344390" lon="12.4890230">
        <ele>2010.2500000</ele>
        <time>2010-09-28T06:02:00Z</time>
      </trkpt>
      <trkpt lat="46.1344310" lon="12.4890380">
        <ele>2010.7300000</ele>
        <time>2010-09-28T06:02:02Z</time>
      </trkpt>
      <trkpt lat="46.1344020" lon="12.4890460">
        <ele>2011.2200000</ele>
        <time>2010-09-28T06:02:07Z</time>
      </trkpt>
      <trkpt lat="46.1343870" lon="12.4891030">
        <ele>2010.2500000</ele>
        <time>2010-09-28T06:02:11Z</time>
      </trkpt>
      <trkpt lat="46.1343670" lon="12.4891500">
        <ele>2010.7300000</ele>
        <time>2010-09-28T06:02:16Z</time>
      </trkpt>
      <trkpt lat="46.1343260" lon="12.4891640">
        <ele>2012.1800000</ele>
        <time>2010-09-28T06:02:22Z</time>
      </trkpt>
      <trkpt lat="46.1343210" lon="12.4891690">
        <ele>2010.7300000</ele>
        <time>2010-09-28T06:02:23Z</time>
      </trkpt>
      <trkpt lat="46.1342810" lon="12.4891930">
        <ele>2011.2200000</ele>
        <time>2010-09-28T06:02:28Z</time>
      </trkpt>
      <trkpt lat="46.1342510" lon="12.4893020">
        <ele>2012.1800000</ele>
        <time>2010-09-28T06:02:34Z</time>
      </trkpt>
      <trkpt lat="46.1342390" lon="12.4893250">
        <ele>2012.1800000</ele>
        <time>2010-09-28T06:02:36Z</time>
      </trkpt>
      <trkpt lat="46.1341940" lon="12.4893380">
        <ele>2009.7700000</ele>
        <time>2010-09-28T06:02:43Z</time>
      </trkpt>
      <trkpt lat="46.1341650" lon="12.4893620">
        <ele>2009.2900000</ele>
        <time>2010-09-28T06:02:47Z</time>
      </trkpt>
      <trkpt lat="46.1341030" lon="12.4894090">
        <ele>2009.7700000</ele>
        <time>2010-09-28T06:02:53Z</time>
      </trkpt>
      <trkpt lat="46.1340530" lon="12.4894060">
        <ele>2010.7300000</ele>
        <time>2010-09-28T06:03:00Z</time>
      </trkpt>
      <trkpt lat="46.1340340" lon="12.4894260">
        <ele>2007.3700000</ele>
        <time>2010-09-28T06:03:04Z</time>
      </trkpt>
      <trkpt lat="46.1340340" lon="12.4894260">
        <ele>2008.3300000</ele>
        <time>2010-09-28T06:03:05Z</time>
      </trkpt>
      <trkpt lat="46.1339980" lon="12.4894920">
        <ele>2007.8500000</ele>
        <time>2010-09-28T06:03:08Z</time>
      </trkpt>
      <trkpt lat="46.1339530" lon="12.4895180">
        <ele>2008.3300000</ele>
        <time>2010-09-28T06:03:14Z</time>
      </trkpt>
      <trkpt lat="46.1339460" lon="12.4894940">
        <ele>2006.8900000</ele>
        <time>2010-09-28T06:03:21Z</time>
      </trkpt>
      <trkpt lat="46.1339100" lon="12.4894670">
        <ele>2002.5600000</ele>
        <time>2010-09-28T06:03:28Z</time>
      </trkpt>
      <trkpt lat="46.1339010" lon="12.4894780">
        <ele>2004.0100000</ele>
        <time>2010-09-28T06:03:33Z</time>
      </trkpt>
      <trkpt lat="46.1338980" lon="12.4894800">
        <ele>1999.6800000</ele>
        <time>2010-09-28T06:03:37Z</time>
      </trkpt>
      <trkpt lat="46.1339010" lon="12.4894790">
        <ele>2001.6000000</ele>
        <time>2010-09-28T06:03:38Z</time>
      </trkpt>
      <trkpt lat="46.1339080" lon="12.4894460">
        <ele>2002.0800000</ele>
        <time>2010-09-28T06:03:43Z</time>
      </trkpt>
      <trkpt lat="46.1338760" lon="12.4894270">
        <ele>2000.6400000</ele>
        <time>2010-09-28T06:03:47Z</time>
      </trkpt>
      <trkpt lat="46.1338600" lon="12.4893940">
        <ele>1998.7200000</ele>
        <time>2010-09-28T06:03:52Z</time>
      </trkpt>
      <trkpt lat="46.1338410" lon="12.4893830">
        <ele>1998.2400000</ele>
        <time>2010-09-28T06:03:57Z</time>
      </trkpt>
      <trkpt lat="46.1338130" lon="12.4893700">
        <ele>1997.2800000</ele>
        <time>2010-09-28T06:04:03Z</time>
      </trkpt>
      <trkpt lat="46.1338110" lon="12.4893680">
        <ele>1996.3200000</ele>
        <time>2010-09-28T06:04:06Z</time>
      </trkpt>
      <trkpt lat="46.1338050" lon="12.4893460">
        <ele>1994.3900000</ele>
        <time>2010-09-28T06:04:13Z</time>
      </trkpt>
      <trkpt lat="46.1338160" lon="12.4893180">
        <ele>1994.8700000</ele>
        <time>2010-09-28T06:04:17Z</time>
      </trkpt>
      <trkpt lat="46.1338230" lon="12.4892690">
        <ele>1993.4300000</ele>
        <time>2010-09-28T06:04:21Z</time>
      </trkpt>
      <trkpt lat="46.1338180" lon="12.4892480">
        <ele>1992.9500000</ele>
        <time>2010-09-28T06:04:24Z</time>
      </trkpt>
      <trkpt lat="46.1337970" lon="12.4892090">
        <ele>1990.5500000</ele>
        <time>2010-09-28T06:04:29Z</time>
      </trkpt>
      <trkpt lat="46.1337970" lon="12.4892090">
        <ele>1990.5500000</ele>
        <time>2010-09-28T06:04:30Z</time>
      </trkpt>
      <trkpt lat="46.1338110" lon="12.4891390">
        <ele>1990.5500000</ele>
        <time>2010-09-28T06:04:37Z</time>
      </trkpt>
      <trkpt lat="46.1338120" lon="12.4891300">
        <ele>1989.5900000</ele>
        <time>2010-09-28T06:04:38Z</time>
      </trkpt>
      <trkpt lat="46.1338100" lon="12.4891110">
        <ele>1989.1000000</ele>
        <time>2010-09-28T06:04:40Z</time>
      </trkpt>
      <trkpt lat="46.1338060" lon="12.4890830">
        <ele>1988.6200000</ele>
        <time>2010-09-28T06:04:45Z</time>
      </trkpt>
      <trkpt lat="46.1338070" lon="12.4890670">
        <ele>1988.1400000</ele>
        <time>2010-09-28T06:04:48Z</time>
      </trkpt>
      <trkpt lat="46.1338170" lon="12.4890470">
        <ele>1986.7000000</ele>
        <time>2010-09-28T06:04:50Z</time>
      </trkpt>
      <trkpt lat="46.1338150" lon="12.4889620">
        <ele>1986.2200000</ele>
        <time>2010-09-28T06:04:56Z</time>
      </trkpt>
      <trkpt lat="46.1338000" lon="12.4889030">
        <ele>1982.8600000</ele>
        <time>2010-09-28T06:05:02Z</time>
      </trkpt>
      <trkpt lat="46.1337950" lon="12.4888900">
        <ele>1982.8600000</ele>
        <time>2010-09-28T06:05:03Z</time>
      </trkpt>
      <trkpt lat="46.1337930" lon="12.4888750">
        <ele>1984.3000000</ele>
        <time>2010-09-28T06:05:04Z</time>
      </trkpt>
      <trkpt lat="46.1338000" lon="12.4888380">
        <ele>1983.3400000</ele>
        <time>2010-09-28T06:05:10Z</time>
      </trkpt>
      <trkpt lat="46.1337980" lon="12.4888340">
        <ele>1982.8600000</ele>
        <time>2010-09-28T06:05:13Z</time>
      </trkpt>
      <trkpt lat="46.1337950" lon="12.4888200">
        <ele>1982.3800000</ele>
        <time>2010-09-28T06:05:15Z</time>
      </trkpt>
      <trkpt lat="46.1338040" lon="12.4887620">
        <ele>1979.0100000</ele>
        <time>2010-09-28T06:05:21Z</time>
      </trkpt>
      <trkpt lat="46.1338050" lon="12.4887440">
        <ele>1979.9700000</ele>
        <time>2010-09-28T06:05:26Z</time>
      </trkpt>
      <trkpt lat="46.1338340" lon="12.4886570">
        <ele>1977.5700000</ele>
        <time>2010-09-28T06:05:33Z</time>
      </trkpt>
      <trkpt lat="46.1338580" lon="12.4885870">
        <ele>1978.5300000</ele>
        <time>2010-09-28T06:05:39Z</time>
      </trkpt>
      <trkpt lat="46.1338620" lon="12.4885540">
        <ele>1976.1300000</ele>
        <time>2010-09-28T06:05:42Z</time>
      </trkpt>
      <trkpt lat="46.1338680" lon="12.4885340">
        <ele>1974.2000000</ele>
        <time>2010-09-28T06:05:45Z</time>
      </trkpt>
      <trkpt lat="46.1338520" lon="12.4884970">
        <ele>1973.7200000</ele>
        <time>2010-09-28T06:05:52Z</time>
      </trkpt>
      <trkpt lat="46.1338550" lon="12.4884990">
        <ele>1973.2400000</ele>
        <time>2010-09-28T06:06:04Z</time>
      </trkpt>
      <trkpt lat="46.1338550" lon="12.4884990">
        <ele>1972.7600000</ele>
        <time>2010-09-28T06:06:15Z</time>
      </trkpt>
      <trkpt lat="46.1338580" lon="12.4884980">
        <ele>1973.2400000</ele>
        <time>2010-09-28T06:06:41Z</time>
      </trkpt>
      <trkpt lat="46.1338590" lon="12.4884910">
        <ele>1972.7600000</ele>
        <time>2010-09-28T06:07:35Z</time>
      </trkpt>
      <trkpt lat="46.1338720" lon="12.4884090">
        <ele>1973.7200000</ele>
        <time>2010-09-28T06:07:41Z</time>
      </trkpt>
      <trkpt lat="46.1338790" lon="12.4883730">
        <ele>1970.8400000</ele>
        <time>2010-09-28T06:07:43Z</time>
      </trkpt>
      <trkpt lat="46.1338820" lon="12.4883350">
        <ele>1969.8800000</ele>
        <time>2010-09-28T06:07:46Z</time>
      </trkpt>
      <trkpt lat="46.1338730" lon="12.4883070">
        <ele>1968.4400000</ele>
        <time>2010-09-28T06:07:48Z</time>
      </trkpt>
      <trkpt lat="46.1338660" lon="12.4882350">
        <ele>1967.9600000</ele>
        <time>2010-09-28T06:07:53Z</time>
      </trkpt>
      <trkpt lat="46.1338470" lon="12.4881030">
        <ele>1964.5900000</ele>
        <time>2010-09-28T06:08:00Z</time>
      </trkpt>
      <trkpt lat="46.1338440" lon="12.4880970">
        <ele>1965.0700000</ele>
        <time>2010-09-28T06:08:01Z</time>
      </trkpt>
      <trkpt lat="46.1338330" lon="12.4880080">
        <ele>1962.6700000</ele>
        <time>2010-09-28T06:08:07Z</time>
      </trkpt>
      <trkpt lat="46.1338110" lon="12.4879800">
        <ele>1963.6300000</ele>
        <time>2010-09-28T06:08:10Z</time>
      </trkpt>
      <trkpt lat="46.1337830" lon="12.4878840">
        <ele>1958.8200000</ele>
        <time>2010-09-28T06:08:17Z</time>
      </trkpt>
      <trkpt lat="46.1337890" lon="12.4878110">
        <ele>1960.2700000</ele>
        <time>2010-09-28T06:08:26Z</time>
      </trkpt>
      <trkpt lat="46.1337830" lon="12.4877590">
        <ele>1959.7800000</ele>
        <time>2010-09-28T06:10:24Z</time>
      </trkpt>
      <trkpt lat="46.1337770" lon="12.4877220">
        <ele>1958.8200000</ele>
        <time>2010-09-28T06:10:28Z</time>
      </trkpt>
      <trkpt lat="46.1337750" lon="12.4877190">
        <ele>1957.3800000</ele>
        <time>2010-09-28T06:10:35Z</time>
      </trkpt>
      <trkpt lat="46.1337630" lon="12.4877140">
        <ele>1955.4600000</ele>
        <time>2010-09-28T06:10:37Z</time>
      </trkpt>
      <trkpt lat="46.1337470" lon="12.4876960">
        <ele>1956.9000000</ele>
        <time>2010-09-28T06:10:40Z</time>
      </trkpt>
      <trkpt lat="46.1337390" lon="12.4876400">
        <ele>1954.5000000</ele>
        <time>2010-09-28T06:10:46Z</time>
      </trkpt>
      <trkpt lat="46.1337110" lon="12.4875590">
        <ele>1953.5400000</ele>
        <time>2010-09-28T06:11:18Z</time>
      </trkpt>
      <trkpt lat="46.1337030" lon="12.4875550">
        <ele>1953.0600000</ele>
        <time>2010-09-28T06:11:19Z</time>
      </trkpt>
      <trkpt lat="46.1336790" lon="12.4875510">
        <ele>1952.0900000</ele>
        <time>2010-09-28T06:11:21Z</time>
      </trkpt>
      <trkpt lat="46.1336110" lon="12.4874730">
        <ele>1950.6500000</ele>
        <time>2010-09-28T06:11:29Z</time>
      </trkpt>
      <trkpt lat="46.1335740" lon="12.4874230">
        <ele>1949.6900000</ele>
        <time>2010-09-28T06:11:35Z</time>
      </trkpt>
      <trkpt lat="46.1335940" lon="12.4873710">
        <ele>1948.7300000</ele>
        <time>2010-09-28T06:11:40Z</time>
      </trkpt>
      <trkpt lat="46.1335860" lon="12.4873300">
        <ele>1947.7700000</ele>
        <time>2010-09-28T06:11:42Z</time>
      </trkpt>
      <trkpt lat="46.1335730" lon="12.4872900">
        <ele>1949.2100000</ele>
        <time>2010-09-28T06:11:46Z</time>
      </trkpt>
      <trkpt lat="46.1335570" lon="12.4872250">
        <ele>1946.3300000</ele>
        <time>2010-09-28T06:11:53Z</time>
      </trkpt>
      <trkpt lat="46.1335550" lon="12.4871860">
        <ele>1947.7700000</ele>
        <time>2010-09-28T06:11:56Z</time>
      </trkpt>
      <trkpt lat="46.1335350" lon="12.4871180">
        <ele>1947.7700000</ele>
        <time>2010-09-28T06:12:01Z</time>
      </trkpt>
      <trkpt lat="46.1334820" lon="12.4870580">
        <ele>1943.9200000</ele>
        <time>2010-09-28T06:12:08Z</time>
      </trkpt>
      <trkpt lat="46.1334600" lon="12.4870540">
        <ele>1943.9200000</ele>
        <time>2010-09-28T06:12:12Z</time>
      </trkpt>
      <trkpt lat="46.1334360" lon="12.4870040">
        <ele>1944.8800000</ele>
        <time>2010-09-28T06:12:18Z</time>
      </trkpt>
      <trkpt lat="46.1334280" lon="12.4869880">
        <ele>1945.8500000</ele>
        <time>2010-09-28T06:12:20Z</time>
      </trkpt>
      <trkpt lat="46.1334220" lon="12.4869810">
        <ele>1944.4000000</ele>
        <time>2010-09-28T06:12:21Z</time>
      </trkpt>
      <trkpt lat="46.1333790" lon="12.4869010">
        <ele>1940.5600000</ele>
        <time>2010-09-28T06:12:26Z</time>
      </trkpt>
      <trkpt lat="46.1333510" lon="12.4868590">
        <ele>1940.0800000</ele>
        <time>2010-09-28T06:12:30Z</time>
      </trkpt>
      <trkpt lat="46.1333150" lon="12.4868320">
        <ele>1939.1200000</ele>
        <time>2010-09-28T06:12:35Z</time>
      </trkpt>
      <trkpt lat="46.1332650" lon="12.4867500">
        <ele>1939.1200000</ele>
        <time>2010-09-28T06:12:41Z</time>
      </trkpt>
      <trkpt lat="46.1332440" lon="12.4867210">
        <ele>1938.6400000</ele>
        <time>2010-09-28T06:12:45Z</time>
      </trkpt>
      <trkpt lat="46.1332240" lon="12.4867020">
        <ele>1939.6000000</ele>
        <time>2010-09-28T06:13:34Z</time>
      </trkpt>
      <trkpt lat="46.1332070" lon="12.4866910">
        <ele>1938.6400000</ele>
        <time>2010-09-28T06:13:36Z</time>
      </trkpt>
      <trkpt lat="46.1331990" lon="12.4866840">
        <ele>1940.0800000</ele>
        <time>2010-09-28T06:13:37Z</time>
      </trkpt>
      <trkpt lat="46.1331790" lon="12.4866720">
        <ele>1938.6400000</ele>
        <time>2010-09-28T06:13:39Z</time>
      </trkpt>
      <trkpt lat="46.1331240" lon="12.4866380">
        <ele>1936.7100000</ele>
        <time>2010-09-28T06:13:46Z</time>
      </trkpt>
      <trkpt lat="46.1331110" lon="12.4866230">
        <ele>1934.7900000</ele>
        <time>2010-09-28T06:13:48Z</time>
      </trkpt>
      <trkpt lat="46.1330770" lon="12.4866010">
        <ele>1933.8300000</ele>
        <time>2010-09-28T06:13:53Z</time>
      </trkpt>
      <trkpt lat="46.1329990" lon="12.4866870">
        <ele>1934.3100000</ele>
        <time>2010-09-28T06:13:58Z</time>
      </trkpt>
      <trkpt lat="46.1330560" lon="12.4874870">
        <ele>1933.8300000</ele>
        <time>2010-09-28T06:14:06Z</time>
      </trkpt>
      <trkpt lat="46.1330510" lon="12.4874840">
        <ele>1933.8300000</ele>
        <time>2010-09-28T06:14:07Z</time>
      </trkpt>
      <trkpt lat="46.1329970" lon="12.4873970">
        <ele>1934.7900000</ele>
        <time>2010-09-28T06:14:13Z</time>
      </trkpt>
      <trkpt lat="46.1331290" lon="12.4874740">
        <ele>1938.1600000</ele>
        <time>2010-09-28T06:14:54Z</time>
      </trkpt>
      <trkpt lat="46.1331350" lon="12.4877180">
        <ele>1941.0400000</ele>
        <time>2010-09-28T06:15:23Z</time>
      </trkpt>
      <trkpt lat="46.1328780" lon="12.4868050">
        <ele>1940.5600000</ele>
        <time>2010-09-28T06:16:42Z</time>
      </trkpt>
      <trkpt lat="46.1328590" lon="12.4866560">
        <ele>1942.0000000</ele>
        <time>2010-09-28T06:16:47Z</time>
      </trkpt>
      <trkpt lat="46.1328510" lon="12.4865470">
        <ele>1941.0400000</ele>
        <time>2010-09-28T06:16:52Z</time>
      </trkpt>
      <trkpt lat="46.1328310" lon="12.4864860">
        <ele>1942.4800000</ele>
        <time>2010-09-28T06:16:57Z</time>
      </trkpt>
      <trkpt lat="46.1327730" lon="12.4864290">
        <ele>1943.9200000</ele>
        <time>2010-09-28T06:17:07Z</time>
      </trkpt>
      <trkpt lat="46.1326850" lon="12.4862950">
        <ele>1941.0400000</ele>
        <time>2010-09-28T06:17:12Z</time>
      </trkpt>
      <trkpt lat="46.1325190" lon="12.4863060">
        <ele>1941.5200000</ele>
        <time>2010-09-28T06:17:26Z</time>
      </trkpt>
      <trkpt lat="46.1324840" lon="12.4862330">
        <ele>1942.0000000</ele>
        <time>2010-09-28T06:17:32Z</time>
      </trkpt>
      <trkpt lat="46.1324720" lon="12.4861850">
        <ele>1941.5200000</ele>
        <time>2010-09-28T06:17:37Z</time>
      </trkpt>
      <trkpt lat="46.1324270" lon="12.4861960">
        <ele>1941.0400000</ele>
        <time>2010-09-28T06:18:18Z</time>
      </trkpt>
      <trkpt lat="46.1324280" lon="12.4861740">
        <ele>1942.0000000</ele>
        <time>2010-09-28T06:18:22Z</time>
      </trkpt>
      <trkpt lat="46.1324080" lon="12.4860870">
        <ele>1942.9600000</ele>
        <time>2010-09-28T06:18:28Z</time>
      </trkpt>
      <trkpt lat="46.1323790" lon="12.4860170">
        <ele>1942.0000000</ele>
        <time>2010-09-28T06:18:35Z</time>
      </trkpt>
      <trkpt lat="46.1323660" lon="12.4859840">
        <ele>1940.0800000</ele>
        <time>2010-09-28T06:18:38Z</time>
      </trkpt>
      <trkpt lat="46.1323600" lon="12.4859670">
        <ele>1939.1200000</ele>
        <time>2010-09-28T06:18:39Z</time>
      </trkpt>
      <trkpt lat="46.1323310" lon="12.4858850">
        <ele>1939.6000000</ele>
        <time>2010-09-28T06:18:44Z</time>
      </trkpt>
      <trkpt lat="46.1323210" lon="12.4858740">
        <ele>1939.6000000</ele>
        <time>2010-09-28T06:18:46Z</time>
      </trkpt>
      <trkpt lat="46.1323120" lon="12.4858340">
        <ele>1941.0400000</ele>
        <time>2010-09-28T06:18:49Z</time>
      </trkpt>
      <trkpt lat="46.1322810" lon="12.4857300">
        <ele>1940.5600000</ele>
        <time>2010-09-28T06:18:57Z</time>
      </trkpt>
      <trkpt lat="46.1322450" lon="12.4856520">
        <ele>1939.6000000</ele>
        <time>2010-09-28T06:19:03Z</time>
      </trkpt>
      <trkpt lat="46.1322200" lon="12.4856210">
        <ele>1939.1200000</ele>
        <time>2010-09-28T06:19:07Z</time>
      </trkpt>
      <trkpt lat="46.1321690" lon="12.4855500">
        <ele>1939.1200000</ele>
        <time>2010-09-28T06:19:13Z</time>
      </trkpt>
      <trkpt lat="46.1321550" lon="12.4854900">
        <ele>1938.6400000</ele>
        <time>2010-09-28T06:19:17Z</time>
      </trkpt>
      <trkpt lat="46.1321150" lon="12.4853960">
        <ele>1938.1600000</ele>
        <time>2010-09-28T06:19:22Z</time>
      </trkpt>
      <trkpt lat="46.1320270" lon="12.4853530">
        <ele>1936.7100000</ele>
        <time>2010-09-28T06:19:29Z</time>
      </trkpt>
      <trkpt lat="46.1320260" lon="12.4853360">
        <ele>1936.2300000</ele>
        <time>2010-09-28T06:19:30Z</time>
      </trkpt>
      <trkpt lat="46.1319750" lon="12.4852160">
        <ele>1937.1900000</ele>
        <time>2010-09-28T06:19:37Z</time>
      </trkpt>
      <trkpt lat="46.1319580" lon="12.4851850">
        <ele>1937.1900000</ele>
        <time>2010-09-28T06:19:40Z</time>
      </trkpt>
      <trkpt lat="46.1319260" lon="12.4851610">
        <ele>1935.7500000</ele>
        <time>2010-09-28T06:19:44Z</time>
      </trkpt>
      <trkpt lat="46.1319030" lon="12.4851490">
        <ele>1934.3100000</ele>
        <time>2010-09-28T06:19:46Z</time>
      </trkpt>
      <trkpt lat="46.1318710" lon="12.4851320">
        <ele>1932.8700000</ele>
        <time>2010-09-28T06:19:50Z</time>
      </trkpt>
      <trkpt lat="46.1318650" lon="12.4851190">
        <ele>1931.9100000</ele>
        <time>2010-09-28T06:19:52Z</time>
      </trkpt>
      <trkpt lat="46.1318510" lon="12.4850790">
        <ele>1931.4300000</ele>
        <time>2010-09-28T06:19:58Z</time>
      </trkpt>
      <trkpt lat="46.1318050" lon="12.4850600">
        <ele>1931.4300000</ele>
        <time>2010-09-28T06:20:15Z</time>
      </trkpt>
      <trkpt lat="46.1317800" lon="12.4850340">
        <ele>1928.5400000</ele>
        <time>2010-09-28T06:20:18Z</time>
      </trkpt>
      <trkpt lat="46.1317800" lon="12.4850260">
        <ele>1927.5800000</ele>
        <time>2010-09-28T06:20:20Z</time>
      </trkpt>
      <trkpt lat="46.1317490" lon="12.4850000">
        <ele>1928.0600000</ele>
        <time>2010-09-28T06:20:25Z</time>
      </trkpt>
      <trkpt lat="46.1317090" lon="12.4849640">
        <ele>1924.7000000</ele>
        <time>2010-09-28T06:20:30Z</time>
      </trkpt>
      <trkpt lat="46.1317040" lon="12.4849510">
        <ele>1923.7400000</ele>
        <time>2010-09-28T06:20:31Z</time>
      </trkpt>
      <trkpt lat="46.1316680" lon="12.4848650">
        <ele>1923.7400000</ele>
        <time>2010-09-28T06:20:37Z</time>
      </trkpt>
      <trkpt lat="46.1316530" lon="12.4847950">
        <ele>1920.8500000</ele>
        <time>2010-09-28T06:20:42Z</time>
      </trkpt>
      <trkpt lat="46.1316310" lon="12.4846880">
        <ele>1922.7700000</ele>
        <time>2010-09-28T06:20:50Z</time>
      </trkpt>
      <trkpt lat="46.1316200" lon="12.4846540">
        <ele>1920.8500000</ele>
        <time>2010-09-28T06:20:53Z</time>
      </trkpt>
      <trkpt lat="46.1315980" lon="12.4845840">
        <ele>1921.8100000</ele>
        <time>2010-09-28T06:20:58Z</time>
      </trkpt>
      <trkpt lat="46.1315830" lon="12.4845170">
        <ele>1920.3700000</ele>
        <time>2010-09-28T06:21:03Z</time>
      </trkpt>
      <trkpt lat="46.1315740" lon="12.4844710">
        <ele>1920.8500000</ele>
        <time>2010-09-28T06:21:09Z</time>
      </trkpt>
      <trkpt lat="46.1315790" lon="12.4844710">
        <ele>1922.7700000</ele>
        <time>2010-09-28T06:21:40Z</time>
      </trkpt>
      <trkpt lat="46.1315510" lon="12.4844170">
        <ele>1918.9300000</ele>
        <time>2010-09-28T06:22:25Z</time>
      </trkpt>
      <trkpt lat="46.1315450" lon="12.4844180">
        <ele>1920.8500000</ele>
        <time>2010-09-28T06:22:26Z</time>
      </trkpt>
      <trkpt lat="46.1315370" lon="12.4844030">
        <ele>1920.8500000</ele>
        <time>2010-09-28T06:22:40Z</time>
      </trkpt>
      <trkpt lat="46.1315240" lon="12.4843900">
        <ele>1920.3700000</ele>
        <time>2010-09-28T06:23:03Z</time>
      </trkpt>
      <trkpt lat="46.1314940" lon="12.4843760">
        <ele>1917.9700000</ele>
        <time>2010-09-28T06:23:07Z</time>
      </trkpt>
      <trkpt lat="46.1314840" lon="12.4843830">
        <ele>1918.4500000</ele>
        <time>2010-09-28T06:23:09Z</time>
      </trkpt>
      <trkpt lat="46.1314480" lon="12.4843710">
        <ele>1916.5300000</ele>
        <time>2010-09-28T06:23:15Z</time>
      </trkpt>
      <trkpt lat="46.1314340" lon="12.4844090">
        <ele>1915.0800000</ele>
        <time>2010-09-28T06:23:21Z</time>
      </trkpt>
      <trkpt lat="46.1314340" lon="12.4844000">
        <ele>1913.6400000</ele>
        <time>2010-09-28T06:23:27Z</time>
      </trkpt>
      <trkpt lat="46.1314310" lon="12.4843940">
        <ele>1911.7200000</ele>
        <time>2010-09-28T06:23:29Z</time>
      </trkpt>
      <trkpt lat="46.1314210" lon="12.4843730">
        <ele>1912.6800000</ele>
        <time>2010-09-28T06:23:31Z</time>
      </trkpt>
      <trkpt lat="46.1313870" lon="12.4843370">
        <ele>1910.2800000</ele>
        <time>2010-09-28T06:23:38Z</time>
      </trkpt>
      <trkpt lat="46.1313710" lon="12.4843160">
        <ele>1909.8000000</ele>
        <time>2010-09-28T06:23:44Z</time>
      </trkpt>
      <trkpt lat="46.1313390" lon="12.4843330">
        <ele>1907.3900000</ele>
        <time>2010-09-28T06:23:50Z</time>
      </trkpt>
      <trkpt lat="46.1313050" lon="12.4843760">
        <ele>1905.9500000</ele>
        <time>2010-09-28T06:23:56Z</time>
      </trkpt>
      <trkpt lat="46.1312920" lon="12.4843440">
        <ele>1903.0700000</ele>
        <time>2010-09-28T06:24:03Z</time>
      </trkpt>
      <trkpt lat="46.1312800" lon="12.4843320">
        <ele>1903.0700000</ele>
        <time>2010-09-28T06:24:07Z</time>
      </trkpt>
      <trkpt lat="46.1312420" lon="12.4843070">
        <ele>1903.0700000</ele>
        <time>2010-09-28T06:24:13Z</time>
      </trkpt>
      <trkpt lat="46.1312360" lon="12.4842950">
        <ele>1901.1400000</ele>
        <time>2010-09-28T06:24:16Z</time>
      </trkpt>
      <trkpt lat="46.1312100" lon="12.4842920">
        <ele>1899.7000000</ele>
        <time>2010-09-28T06:24:19Z</time>
      </trkpt>
      <trkpt lat="46.1311970" lon="12.4842980">
        <ele>1898.7400000</ele>
        <time>2010-09-28T06:24:21Z</time>
      </trkpt>
      <trkpt lat="46.1311860" lon="12.4842820">
        <ele>1899.7000000</ele>
        <time>2010-09-28T06:24:23Z</time>
      </trkpt>
      <trkpt lat="46.1311820" lon="12.4842460">
        <ele>1897.7800000</ele>
        <time>2010-09-28T06:24:26Z</time>
      </trkpt>
      <trkpt lat="46.1311540" lon="12.4842750">
        <ele>1896.3400000</ele>
        <time>2010-09-28T06:24:31Z</time>
      </trkpt>
      <trkpt lat="46.1311410" lon="12.4842970">
        <ele>1895.8600000</ele>
        <time>2010-09-28T06:24:37Z</time>
      </trkpt>
      <trkpt lat="46.1311300" lon="12.4842910">
        <ele>1895.8600000</ele>
        <time>2010-09-28T06:24:45Z</time>
      </trkpt>
      <trkpt lat="46.1311200" lon="12.4842930">
        <ele>1891.5300000</ele>
        <time>2010-09-28T06:24:47Z</time>
      </trkpt>
      <trkpt lat="46.1311000" lon="12.4843250">
        <ele>1891.5300000</ele>
        <time>2010-09-28T06:24:53Z</time>
      </trkpt>
      <trkpt lat="46.1310610" lon="12.4843280">
        <ele>1890.5700000</ele>
        <time>2010-09-28T06:24:57Z</time>
      </trkpt>
      <trkpt lat="46.1310490" lon="12.4843130">
        <ele>1889.6100000</ele>
        <time>2010-09-28T06:25:04Z</time>
      </trkpt>
      <trkpt lat="46.1310210" lon="12.4842990">
        <ele>1888.1700000</ele>
        <time>2010-09-28T06:25:08Z</time>
      </trkpt>
      <trkpt lat="46.1309760" lon="12.4842640">
        <ele>1883.8400000</ele>
        <time>2010-09-28T06:25:16Z</time>
      </trkpt>
      <trkpt lat="46.1309720" lon="12.4842590">
        <ele>1884.3200000</ele>
        <time>2010-09-28T06:25:17Z</time>
      </trkpt>
      <trkpt lat="46.1309610" lon="12.4842500">
        <ele>1884.3200000</ele>
        <time>2010-09-28T06:25:19Z</time>
      </trkpt>
      <trkpt lat="46.1309430" lon="12.4842320">
        <ele>1883.3600000</ele>
        <time>2010-09-28T06:25:21Z</time>
      </trkpt>
      <trkpt lat="46.1309180" lon="12.4842090">
        <ele>1882.4000000</ele>
        <time>2010-09-28T06:25:23Z</time>
      </trkpt>
      <trkpt lat="46.1308770" lon="12.4841800">
        <ele>1880.4800000</ele>
        <time>2010-09-28T06:25:27Z</time>
      </trkpt>
      <trkpt lat="46.1308650" lon="12.4841510">
        <ele>1876.6300000</ele>
        <time>2010-09-28T06:25:32Z</time>
      </trkpt>
      <trkpt lat="46.1308590" lon="12.4841310">
        <ele>1880.0000000</ele>
        <time>2010-09-28T06:25:34Z</time>
      </trkpt>
      <trkpt lat="46.1308330" lon="12.4841060">
        <ele>1876.6300000</ele>
        <time>2010-09-28T06:25:38Z</time>
      </trkpt>
      <trkpt lat="46.1308220" lon="12.4840970">
        <ele>1877.5900000</ele>
        <time>2010-09-28T06:25:39Z</time>
      </trkpt>
      <trkpt lat="46.1307910" lon="12.4840690">
        <ele>1871.8200000</ele>
        <time>2010-09-28T06:25:43Z</time>
      </trkpt>
      <trkpt lat="46.1307900" lon="12.4840650">
        <ele>1873.2700000</ele>
        <time>2010-09-28T06:25:44Z</time>
      </trkpt>
      <trkpt lat="46.1307590" lon="12.4840270">
        <ele>1873.7500000</ele>
        <time>2010-09-28T06:25:50Z</time>
      </trkpt>
      <trkpt lat="46.1307530" lon="12.4840220">
        <ele>1873.7500000</ele>
        <time>2010-09-28T06:25:51Z</time>
      </trkpt>
      <trkpt lat="46.1307480" lon="12.4839660">
        <ele>1870.3800000</ele>
        <time>2010-09-28T06:25:56Z</time>
      </trkpt>
      <trkpt lat="46.1307300" lon="12.4839420">
        <ele>1872.3000000</ele>
        <time>2010-09-28T06:25:59Z</time>
      </trkpt>
      <trkpt lat="46.1306930" lon="12.4838880">
        <ele>1870.3800000</ele>
        <time>2010-09-28T06:26:06Z</time>
      </trkpt>
      <trkpt lat="46.1306860" lon="12.4838670">
        <ele>1869.4200000</ele>
        <time>2010-09-28T06:26:09Z</time>
      </trkpt>
      <trkpt lat="46.1306550" lon="12.4838560">
        <ele>1868.4600000</ele>
        <time>2010-09-28T06:26:13Z</time>
      </trkpt>
      <trkpt lat="46.1306350" lon="12.4838310">
        <ele>1866.5400000</ele>
        <time>2010-09-28T06:26:19Z</time>
      </trkpt>
      <trkpt lat="46.1306210" lon="12.4838140">
        <ele>1867.5000000</ele>
        <time>2010-09-28T06:26:24Z</time>
      </trkpt>
      <trkpt lat="46.1306010" lon="12.4837980">
        <ele>1866.0600000</ele>
        <time>2010-09-28T06:26:29Z</time>
      </trkpt>
      <trkpt lat="46.1305950" lon="12.4837770">
        <ele>1863.6500000</ele>
        <time>2010-09-28T06:26:34Z</time>
      </trkpt>
      <trkpt lat="46.1305900" lon="12.4837800">
        <ele>1863.6500000</ele>
        <time>2010-09-28T06:26:35Z</time>
      </trkpt>
      <trkpt lat="46.1305700" lon="12.4837640">
        <ele>1863.1700000</ele>
        <time>2010-09-28T06:26:41Z</time>
      </trkpt>
      <trkpt lat="46.1305320" lon="12.4837350">
        <ele>1862.6900000</ele>
        <time>2010-09-28T06:26:46Z</time>
      </trkpt>
      <trkpt lat="46.1305160" lon="12.4837130">
        <ele>1861.7300000</ele>
        <time>2010-09-28T06:26:48Z</time>
      </trkpt>
      <trkpt lat="46.1304920" lon="12.4836900">
        <ele>1859.8100000</ele>
        <time>2010-09-28T06:26:55Z</time>
      </trkpt>
      <trkpt lat="46.1304760" lon="12.4836820">
        <ele>1859.3300000</ele>
        <time>2010-09-28T06:27:01Z</time>
      </trkpt>
      <trkpt lat="46.1304490" lon="12.4836540">
        <ele>1860.2900000</ele>
        <time>2010-09-28T06:27:10Z</time>
      </trkpt>
      <trkpt lat="46.1304250" lon="12.4836290">
        <ele>1856.4400000</ele>
        <time>2010-09-28T06:27:16Z</time>
      </trkpt>
      <trkpt lat="46.1303770" lon="12.4835970">
        <ele>1855.0000000</ele>
        <time>2010-09-28T06:27:23Z</time>
      </trkpt>
      <trkpt lat="46.1303520" lon="12.4835560">
        <ele>1851.1600000</ele>
        <time>2010-09-28T06:27:30Z</time>
      </trkpt>
      <trkpt lat="46.1303500" lon="12.4835490">
        <ele>1851.6400000</ele>
        <time>2010-09-28T06:27:31Z</time>
      </trkpt>
      <trkpt lat="46.1303190" lon="12.4834960">
        <ele>1852.6000000</ele>
        <time>2010-09-28T06:27:38Z</time>
      </trkpt>
      <trkpt lat="46.1303030" lon="12.4834740">
        <ele>1850.6800000</ele>
        <time>2010-09-28T06:27:44Z</time>
      </trkpt>
      <trkpt lat="46.1302900" lon="12.4834770">
        <ele>1849.7100000</ele>
        <time>2010-09-28T06:27:53Z</time>
      </trkpt>
      <trkpt lat="46.1302850" lon="12.4834730">
        <ele>1849.2300000</ele>
        <time>2010-09-28T06:28:03Z</time>
      </trkpt>
      <trkpt lat="46.1302780" lon="12.4834440">
        <ele>1849.2300000</ele>
        <time>2010-09-28T06:28:11Z</time>
      </trkpt>
      <trkpt lat="46.1302520" lon="12.4834140">
        <ele>1846.8300000</ele>
        <time>2010-09-28T06:28:14Z</time>
      </trkpt>
      <trkpt lat="46.1302440" lon="12.4834110">
        <ele>1846.3500000</ele>
        <time>2010-09-28T06:28:15Z</time>
      </trkpt>
      <trkpt lat="46.1302060" lon="12.4833710">
        <ele>1846.8300000</ele>
        <time>2010-09-28T06:28:22Z</time>
      </trkpt>
      <trkpt lat="46.1301820" lon="12.4833290">
        <ele>1847.3100000</ele>
        <time>2010-09-28T06:28:27Z</time>
      </trkpt>
      <trkpt lat="46.1301660" lon="12.4833070">
        <ele>1842.9800000</ele>
        <time>2010-09-28T06:28:30Z</time>
      </trkpt>
      <trkpt lat="46.1301380" lon="12.4832800">
        <ele>1844.4300000</ele>
        <time>2010-09-28T06:28:35Z</time>
      </trkpt>
      <trkpt lat="46.1301230" lon="12.4832650">
        <ele>1842.5000000</ele>
        <time>2010-09-28T06:28:43Z</time>
      </trkpt>
      <trkpt lat="46.1301230" lon="12.4832650">
        <ele>1842.9800000</ele>
        <time>2010-09-28T06:28:44Z</time>
      </trkpt>
      <trkpt lat="46.1301100" lon="12.4832610">
        <ele>1842.0200000</ele>
        <time>2010-09-28T06:29:46Z</time>
      </trkpt>
      <trkpt lat="46.1300810" lon="12.4832250">
        <ele>1840.5800000</ele>
        <time>2010-09-28T06:30:03Z</time>
      </trkpt>
      <trkpt lat="46.1300520" lon="12.4831990">
        <ele>1840.1000000</ele>
        <time>2010-09-28T06:30:08Z</time>
      </trkpt>
      <trkpt lat="46.1300390" lon="12.4831970">
        <ele>1838.1800000</ele>
        <time>2010-09-28T06:30:10Z</time>
      </trkpt>
      <trkpt lat="46.1299990" lon="12.4831640">
        <ele>1837.2200000</ele>
        <time>2010-09-28T06:30:17Z</time>
      </trkpt>
      <trkpt lat="46.1299680" lon="12.4831610">
        <ele>1837.2200000</ele>
        <time>2010-09-28T06:30:23Z</time>
      </trkpt>
      <trkpt lat="46.1299360" lon="12.4831420">
        <ele>1837.2200000</ele>
        <time>2010-09-28T06:30:29Z</time>
      </trkpt>
      <trkpt lat="46.1299320" lon="12.4831270">
        <ele>1833.3700000</ele>
        <time>2010-09-28T06:30:32Z</time>
      </trkpt>
      <trkpt lat="46.1299050" lon="12.4830840">
        <ele>1832.4100000</ele>
        <time>2010-09-28T06:30:38Z</time>
      </trkpt>
      <trkpt lat="46.1298950" lon="12.4830520">
        <ele>1830.9700000</ele>
        <time>2010-09-28T06:30:43Z</time>
      </trkpt>
      <trkpt lat="46.1298910" lon="12.4830480">
        <ele>1830.9700000</ele>
        <time>2010-09-28T06:30:44Z</time>
      </trkpt>
      <trkpt lat="46.1298760" lon="12.4830230">
        <ele>1831.9300000</ele>
        <time>2010-09-28T06:30:56Z</time>
      </trkpt>
      <trkpt lat="46.1298350" lon="12.4829710">
        <ele>1829.0500000</ele>
        <time>2010-09-28T06:31:02Z</time>
      </trkpt>
      <trkpt lat="46.1298210" lon="12.4829550">
        <ele>1827.6000000</ele>
        <time>2010-09-28T06:31:04Z</time>
      </trkpt>
      <trkpt lat="46.1298150" lon="12.4829550">
        <ele>1825.6800000</ele>
        <time>2010-09-28T06:31:05Z</time>
      </trkpt>
      <trkpt lat="46.1297730" lon="12.4829440">
        <ele>1825.6800000</ele>
        <time>2010-09-28T06:31:12Z</time>
      </trkpt>
      <trkpt lat="46.1297290" lon="12.4829550">
        <ele>1823.7600000</ele>
        <time>2010-09-28T06:31:18Z</time>
      </trkpt>
      <trkpt lat="46.1297210" lon="12.4829530">
        <ele>1822.3200000</ele>
        <time>2010-09-28T06:31:20Z</time>
      </trkpt>
      <trkpt lat="46.1297120" lon="12.4829440">
        <ele>1823.7600000</ele>
        <time>2010-09-28T06:31:22Z</time>
      </trkpt>
      <trkpt lat="46.1296830" lon="12.4828710">
        <ele>1822.3200000</ele>
        <time>2010-09-28T06:31:29Z</time>
      </trkpt>
      <trkpt lat="46.1296680" lon="12.4828710">
        <ele>1820.8700000</ele>
        <time>2010-09-28T06:31:36Z</time>
      </trkpt>
      <trkpt lat="46.1296510" lon="12.4828820">
        <ele>1817.5100000</ele>
        <time>2010-09-28T06:31:40Z</time>
      </trkpt>
      <trkpt lat="46.1296490" lon="12.4828860">
        <ele>1817.5100000</ele>
        <time>2010-09-28T06:31:41Z</time>
      </trkpt>
      <trkpt lat="46.1296350" lon="12.4828630">
        <ele>1819.9100000</ele>
        <time>2010-09-28T06:31:44Z</time>
      </trkpt>
      <trkpt lat="46.1295920" lon="12.4828340">
        <ele>1816.5500000</ele>
        <time>2010-09-28T06:31:50Z</time>
      </trkpt>
      <trkpt lat="46.1295870" lon="12.4828300">
        <ele>1813.1800000</ele>
        <time>2010-09-28T06:31:52Z</time>
      </trkpt>
      <trkpt lat="46.1295810" lon="12.4828310">
        <ele>1814.1500000</ele>
        <time>2010-09-28T06:31:53Z</time>
      </trkpt>
      <trkpt lat="46.1295710" lon="12.4828170">
        <ele>1814.1500000</ele>
        <time>2010-09-28T06:31:55Z</time>
      </trkpt>
      <trkpt lat="46.1295500" lon="12.4827770">
        <ele>1812.2200000</ele>
        <time>2010-09-28T06:31:59Z</time>
      </trkpt>
      <trkpt lat="46.1295380" lon="12.4827590">
        <ele>1812.2200000</ele>
        <time>2010-09-28T06:32:02Z</time>
      </trkpt>
      <trkpt lat="46.1295080" lon="12.4827560">
        <ele>1808.8600000</ele>
        <time>2010-09-28T06:32:06Z</time>
      </trkpt>
      <trkpt lat="46.1295040" lon="12.4827470">
        <ele>1809.3400000</ele>
        <time>2010-09-28T06:32:07Z</time>
      </trkpt>
      <trkpt lat="46.1295060" lon="12.4827240">
        <ele>1811.2600000</ele>
        <time>2010-09-28T06:32:11Z</time>
      </trkpt>
      <trkpt lat="46.1294780" lon="12.4827090">
        <ele>1809.8200000</ele>
        <time>2010-09-28T06:32:16Z</time>
      </trkpt>
      <trkpt lat="46.1294510" lon="12.4827200">
        <ele>1805.9700000</ele>
        <time>2010-09-28T06:32:21Z</time>
      </trkpt>
      <trkpt lat="46.1294510" lon="12.4827200">
        <ele>1806.4500000</ele>
        <time>2010-09-28T06:32:22Z</time>
      </trkpt>
      <trkpt lat="46.1294310" lon="12.4826920">
        <ele>1806.4500000</ele>
        <time>2010-09-28T06:32:27Z</time>
      </trkpt>
      <trkpt lat="46.1294020" lon="12.4826880">
        <ele>1804.5300000</ele>
        <time>2010-09-28T06:32:33Z</time>
      </trkpt>
      <trkpt lat="46.1293910" lon="12.4826830">
        <ele>1804.5300000</ele>
        <time>2010-09-28T06:32:35Z</time>
      </trkpt>
      <trkpt lat="46.1293720" lon="12.4826750">
        <ele>1804.5300000</ele>
        <time>2010-09-28T06:32:37Z</time>
      </trkpt>
      <trkpt lat="46.1293470" lon="12.4826820">
        <ele>1802.6100000</ele>
        <time>2010-09-28T06:32:41Z</time>
      </trkpt>
      <trkpt lat="46.1293310" lon="12.4826540">
        <ele>1800.2100000</ele>
        <time>2010-09-28T06:32:48Z</time>
      </trkpt>
      <trkpt lat="46.1292910" lon="12.4826690">
        <ele>1798.7600000</ele>
        <time>2010-09-28T06:32:55Z</time>
      </trkpt>
      <trkpt lat="46.1292780" lon="12.4826660">
        <ele>1797.3200000</ele>
        <time>2010-09-28T06:32:58Z</time>
      </trkpt>
      <trkpt lat="46.1292710" lon="12.4826660">
        <ele>1797.3200000</ele>
        <time>2010-09-28T06:32:59Z</time>
      </trkpt>
      <trkpt lat="46.1292310" lon="12.4826350">
        <ele>1794.9200000</ele>
        <time>2010-09-28T06:33:06Z</time>
      </trkpt>
      <trkpt lat="46.1292200" lon="12.4826060">
        <ele>1795.8800000</ele>
        <time>2010-09-28T06:33:10Z</time>
      </trkpt>
      <trkpt lat="46.1291960" lon="12.4825930">
        <ele>1793.0000000</ele>
        <time>2010-09-28T06:33:14Z</time>
      </trkpt>
      <trkpt lat="46.1291580" lon="12.4825740">
        <ele>1792.5200000</ele>
        <time>2010-09-28T06:33:20Z</time>
      </trkpt>
      <trkpt lat="46.1291520" lon="12.4825680">
        <ele>1792.0300000</ele>
        <time>2010-09-28T06:33:21Z</time>
      </trkpt>
      <trkpt lat="46.1291360" lon="12.4825330">
        <ele>1790.5900000</ele>
        <time>2010-09-28T06:33:27Z</time>
      </trkpt>
      <trkpt lat="46.1291270" lon="12.4825330">
        <ele>1790.5900000</ele>
        <time>2010-09-28T06:33:28Z</time>
      </trkpt>
      <trkpt lat="46.1291010" lon="12.4825260">
        <ele>1789.6300000</ele>
        <time>2010-09-28T06:33:34Z</time>
      </trkpt>
      <trkpt lat="46.1290920" lon="12.4825020">
        <ele>1788.6700000</ele>
        <time>2010-09-28T06:33:36Z</time>
      </trkpt>
      <trkpt lat="46.1290790" lon="12.4824730">
        <ele>1787.7100000</ele>
        <time>2010-09-28T06:33:43Z</time>
      </trkpt>
      <trkpt lat="46.1290450" lon="12.4824880">
        <ele>1786.2700000</ele>
        <time>2010-09-28T06:33:52Z</time>
      </trkpt>
      <trkpt lat="46.1290290" lon="12.4824780">
        <ele>1782.4200000</ele>
        <time>2010-09-28T06:34:13Z</time>
      </trkpt>
      <trkpt lat="46.1289960" lon="12.4824900">
        <ele>1784.3400000</ele>
        <time>2010-09-28T06:34:19Z</time>
      </trkpt>
      <trkpt lat="46.1289900" lon="12.4825120">
        <ele>1783.3800000</ele>
        <time>2010-09-28T06:34:26Z</time>
      </trkpt>
      <trkpt lat="46.1289830" lon="12.4825270">
        <ele>1782.9000000</ele>
        <time>2010-09-28T06:34:33Z</time>
      </trkpt>
      <trkpt lat="46.1289760" lon="12.4825280">
        <ele>1780.9800000</ele>
        <time>2010-09-28T06:34:45Z</time>
      </trkpt>
      <trkpt lat="46.1289570" lon="12.4824940">
        <ele>1780.0200000</ele>
        <time>2010-09-28T06:34:53Z</time>
      </trkpt>
      <trkpt lat="46.1289520" lon="12.4824740">
        <ele>1778.1000000</ele>
        <time>2010-09-28T06:35:02Z</time>
      </trkpt>
      <trkpt lat="46.1289430" lon="12.4824520">
        <ele>1778.1000000</ele>
        <time>2010-09-28T06:35:07Z</time>
      </trkpt>
      <trkpt lat="46.1289300" lon="12.4824390">
        <ele>1777.1300000</ele>
        <time>2010-09-28T06:35:16Z</time>
      </trkpt>
      <trkpt lat="46.1289210" lon="12.4824460">
        <ele>1775.6900000</ele>
        <time>2010-09-28T06:35:22Z</time>
      </trkpt>
      <trkpt lat="46.1289160" lon="12.4824490">
        <ele>1775.6900000</ele>
        <time>2010-09-28T06:35:23Z</time>
      </trkpt>
      <trkpt lat="46.1289090" lon="12.4824300">
        <ele>1775.2100000</ele>
        <time>2010-09-28T06:35:33Z</time>
      </trkpt>
      <trkpt lat="46.1289030" lon="12.4824150">
        <ele>1773.7700000</ele>
        <time>2010-09-28T06:35:41Z</time>
      </trkpt>
      <trkpt lat="46.1288600" lon="12.4823860">
        <ele>1772.3300000</ele>
        <time>2010-09-28T06:35:55Z</time>
      </trkpt>
      <trkpt lat="46.1288380" lon="12.4823930">
        <ele>1771.3700000</ele>
        <time>2010-09-28T06:36:03Z</time>
      </trkpt>
      <trkpt lat="46.1288210" lon="12.4824070">
        <ele>1769.9200000</ele>
        <time>2010-09-28T06:36:11Z</time>
      </trkpt>
      <trkpt lat="46.1288170" lon="12.4824320">
        <ele>1768.4800000</ele>
        <time>2010-09-28T06:36:19Z</time>
      </trkpt>
      <trkpt lat="46.1288000" lon="12.4824400">
        <ele>1766.0800000</ele>
        <time>2010-09-28T06:36:34Z</time>
      </trkpt>
      <trkpt lat="46.1287770" lon="12.4825300">
        <ele>1762.7100000</ele>
        <time>2010-09-28T06:36:54Z</time>
      </trkpt>
      <trkpt lat="46.1287670" lon="12.4825440">
        <ele>1761.7500000</ele>
        <time>2010-09-28T06:37:01Z</time>
      </trkpt>
      <trkpt lat="46.1287610" lon="12.4825600">
        <ele>1760.3100000</ele>
        <time>2010-09-28T06:37:04Z</time>
      </trkpt>
      <trkpt lat="46.1287610" lon="12.4825600">
        <ele>1760.3100000</ele>
        <time>2010-09-28T06:37:05Z</time>
      </trkpt>
      <trkpt lat="46.1287390" lon="12.4825850">
        <ele>1759.3500000</ele>
        <time>2010-09-28T06:37:11Z</time>
      </trkpt>
      <trkpt lat="46.1287310" lon="12.4825860">
        <ele>1757.4300000</ele>
        <time>2010-09-28T06:37:21Z</time>
      </trkpt>
      <trkpt lat="46.1287150" lon="12.4826010">
        <ele>1757.4300000</ele>
        <time>2010-09-28T06:37:27Z</time>
      </trkpt>
      <trkpt lat="46.1287010" lon="12.4826170">
        <ele>1755.9900000</ele>
        <time>2010-09-28T06:37:32Z</time>
      </trkpt>
      <trkpt lat="46.1286900" lon="12.4826290">
        <ele>1752.6200000</ele>
        <time>2010-09-28T06:37:43Z</time>
      </trkpt>
      <trkpt lat="46.1286830" lon="12.4826380">
        <ele>1753.1000000</ele>
        <time>2010-09-28T06:37:44Z</time>
      </trkpt>
      <trkpt lat="46.1286700" lon="12.4826410">
        <ele>1753.1000000</ele>
        <time>2010-09-28T06:37:49Z</time>
      </trkpt>
      <trkpt lat="46.1286490" lon="12.4826430">
        <ele>1751.6600000</ele>
        <time>2010-09-28T06:37:54Z</time>
      </trkpt>
      <trkpt lat="46.1286250" lon="12.4826270">
        <ele>1749.7400000</ele>
        <time>2010-09-28T06:38:02Z</time>
      </trkpt>
      <trkpt lat="46.1285920" lon="12.4826170">
        <ele>1748.7800000</ele>
        <time>2010-09-28T06:38:07Z</time>
      </trkpt>
      <trkpt lat="46.1285650" lon="12.4826180">
        <ele>1748.2900000</ele>
        <time>2010-09-28T06:38:13Z</time>
      </trkpt>
      <trkpt lat="46.1285560" lon="12.4826200">
        <ele>1747.3300000</ele>
        <time>2010-09-28T06:38:22Z</time>
      </trkpt>
      <trkpt lat="46.1285490" lon="12.4826180">
        <ele>1746.3700000</ele>
        <time>2010-09-28T06:38:42Z</time>
      </trkpt>
      <trkpt lat="46.1285330" lon="12.4825990">
        <ele>1746.8500000</ele>
        <time>2010-09-28T06:39:04Z</time>
      </trkpt>
      <trkpt lat="46.1285230" lon="12.4825990">
        <ele>1745.4100000</ele>
        <time>2010-09-28T06:39:07Z</time>
      </trkpt>
      <trkpt lat="46.1284790" lon="12.4825860">
        <ele>1743.9700000</ele>
        <time>2010-09-28T06:39:13Z</time>
      </trkpt>
      <trkpt lat="46.1284440" lon="12.4825700">
        <ele>1742.5300000</ele>
        <time>2010-09-28T06:39:19Z</time>
      </trkpt>
      <trkpt lat="46.1284260" lon="12.4825670">
        <ele>1742.0500000</ele>
        <time>2010-09-28T06:39:23Z</time>
      </trkpt>
      <trkpt lat="46.1283750" lon="12.4825610">
        <ele>1740.1200000</ele>
        <time>2010-09-28T06:39:30Z</time>
      </trkpt>
      <trkpt lat="46.1283290" lon="12.4825380">
        <ele>1740.6000000</ele>
        <time>2010-09-28T06:39:35Z</time>
      </trkpt>
      <trkpt lat="46.1283210" lon="12.4825300">
        <ele>1740.1200000</ele>
        <time>2010-09-28T06:39:36Z</time>
      </trkpt>
      <trkpt lat="46.1282880" lon="12.4825140">
        <ele>1738.6800000</ele>
        <time>2010-09-28T06:39:43Z</time>
      </trkpt>
      <trkpt lat="46.1282770" lon="12.4824820">
        <ele>1736.7600000</ele>
        <time>2010-09-28T06:39:47Z</time>
      </trkpt>
      <trkpt lat="46.1282410" lon="12.4824350">
        <ele>1735.3200000</ele>
        <time>2010-09-28T06:39:54Z</time>
      </trkpt>
      <trkpt lat="46.1282300" lon="12.4824080">
        <ele>1734.8400000</ele>
        <time>2010-09-28T06:40:01Z</time>
      </trkpt>
      <trkpt lat="46.1282280" lon="12.4823970">
        <ele>1733.3900000</ele>
        <time>2010-09-28T06:41:04Z</time>
      </trkpt>
      <trkpt lat="46.1281990" lon="12.4823670">
        <ele>1731.4700000</ele>
        <time>2010-09-28T06:41:12Z</time>
      </trkpt>
      <trkpt lat="46.1281910" lon="12.4823540">
        <ele>1730.5100000</ele>
        <time>2010-09-28T06:41:16Z</time>
      </trkpt>
      <trkpt lat="46.1281790" lon="12.4823400">
        <ele>1729.5500000</ele>
        <time>2010-09-28T06:41:18Z</time>
      </trkpt>
      <trkpt lat="46.1281660" lon="12.4823040">
        <ele>1726.6700000</ele>
        <time>2010-09-28T06:41:22Z</time>
      </trkpt>
      <trkpt lat="46.1281620" lon="12.4822980">
        <ele>1728.1100000</ele>
        <time>2010-09-28T06:41:23Z</time>
      </trkpt>
      <trkpt lat="46.1281530" lon="12.4822750">
        <ele>1726.6700000</ele>
        <time>2010-09-28T06:41:31Z</time>
      </trkpt>
      <trkpt lat="46.1281370" lon="12.4822500">
        <ele>1723.3000000</ele>
        <time>2010-09-28T06:41:37Z</time>
      </trkpt>
      <trkpt lat="46.1281090" lon="12.4822390">
        <ele>1726.6700000</ele>
        <time>2010-09-28T06:41:43Z</time>
      </trkpt>
      <trkpt lat="46.1280920" lon="12.4822450">
        <ele>1724.7400000</ele>
        <time>2010-09-28T06:41:47Z</time>
      </trkpt>
      <trkpt lat="46.1280760" lon="12.4823090">
        <ele>1722.3400000</ele>
        <time>2010-09-28T06:41:54Z</time>
      </trkpt>
      <trkpt lat="46.1280750" lon="12.4823010">
        <ele>1722.8200000</ele>
        <time>2010-09-28T06:42:01Z</time>
      </trkpt>
      <trkpt lat="46.1280710" lon="12.4823000">
        <ele>1721.3800000</ele>
        <time>2010-09-28T06:42:04Z</time>
      </trkpt>
      <trkpt lat="46.1280670" lon="12.4822950">
        <ele>1719.4600000</ele>
        <time>2010-09-28T06:42:14Z</time>
      </trkpt>
      <trkpt lat="46.1280440" lon="12.4822590">
        <ele>1718.4900000</ele>
        <time>2010-09-28T06:42:20Z</time>
      </trkpt>
      <trkpt lat="46.1280210" lon="12.4822450">
        <ele>1716.5700000</ele>
        <time>2010-09-28T06:42:28Z</time>
      </trkpt>
      <trkpt lat="46.1280180" lon="12.4822330">
        <ele>1716.5700000</ele>
        <time>2010-09-28T06:42:31Z</time>
      </trkpt>
      <trkpt lat="46.1280110" lon="12.4822080">
        <ele>1714.6500000</ele>
        <time>2010-09-28T06:42:34Z</time>
      </trkpt>
      <trkpt lat="46.1279980" lon="12.4821820">
        <ele>1714.1700000</ele>
        <time>2010-09-28T06:42:38Z</time>
      </trkpt>
      <trkpt lat="46.1279810" lon="12.4821520">
        <ele>1713.2100000</ele>
        <time>2010-09-28T06:42:41Z</time>
      </trkpt>
      <trkpt lat="46.1279660" lon="12.4821390">
        <ele>1710.8000000</ele>
        <time>2010-09-28T06:42:44Z</time>
      </trkpt>
      <trkpt lat="46.1279240" lon="12.4821280">
        <ele>1711.2800000</ele>
        <time>2010-09-28T06:42:50Z</time>
      </trkpt>
      <trkpt lat="46.1279000" lon="12.4821540">
        <ele>1709.3600000</ele>
        <time>2010-09-28T06:42:56Z</time>
      </trkpt>
      <trkpt lat="46.1278550" lon="12.4821750">
        <ele>1705.5200000</ele>
        <time>2010-09-28T06:43:02Z</time>
      </trkpt>
      <trkpt lat="46.1278520" lon="12.4821800">
        <ele>1706.0000000</ele>
        <time>2010-09-28T06:43:03Z</time>
      </trkpt>
      <trkpt lat="46.1278390" lon="12.4821910">
        <ele>1705.5200000</ele>
        <time>2010-09-28T06:43:07Z</time>
      </trkpt>
      <trkpt lat="46.1278210" lon="12.4822030">
        <ele>1706.0000000</ele>
        <time>2010-09-28T06:43:13Z</time>
      </trkpt>
      <trkpt lat="46.1278090" lon="12.4821610">
        <ele>1704.5500000</ele>
        <time>2010-09-28T06:43:19Z</time>
      </trkpt>
      <trkpt lat="46.1277950" lon="12.4821070">
        <ele>1702.6300000</ele>
        <time>2010-09-28T06:43:28Z</time>
      </trkpt>
      <trkpt lat="46.1277610" lon="12.4821130">
        <ele>1700.7100000</ele>
        <time>2010-09-28T06:43:34Z</time>
      </trkpt>
      <trkpt lat="46.1277340" lon="12.4821050">
        <ele>1700.2300000</ele>
        <time>2010-09-28T06:43:40Z</time>
      </trkpt>
      <trkpt lat="46.1277140" lon="12.4821110">
        <ele>1699.7500000</ele>
        <time>2010-09-28T06:43:44Z</time>
      </trkpt>
      <trkpt lat="46.1277100" lon="12.4820920">
        <ele>1699.7500000</ele>
        <time>2010-09-28T06:43:48Z</time>
      </trkpt>
      <trkpt lat="46.1276750" lon="12.4820890">
        <ele>1697.3400000</ele>
        <time>2010-09-28T06:44:01Z</time>
      </trkpt>
      <trkpt lat="46.1276750" lon="12.4820890">
        <ele>1696.8600000</ele>
        <time>2010-09-28T06:44:02Z</time>
      </trkpt>
      <trkpt lat="46.1276350" lon="12.4820480">
        <ele>1695.9000000</ele>
        <time>2010-09-28T06:44:09Z</time>
      </trkpt>
      <trkpt lat="46.1276170" lon="12.4820640">
        <ele>1695.9000000</ele>
        <time>2010-09-28T06:46:45Z</time>
      </trkpt>
      <trkpt lat="46.1276110" lon="12.4820400">
        <ele>1694.4600000</ele>
        <time>2010-09-28T06:47:07Z</time>
      </trkpt>
      <trkpt lat="46.1275830" lon="12.4820310">
        <ele>1693.5000000</ele>
        <time>2010-09-28T06:47:14Z</time>
      </trkpt>
      <trkpt lat="46.1275830" lon="12.4820310">
        <ele>1693.5000000</ele>
        <time>2010-09-28T06:47:15Z</time>
      </trkpt>
      <trkpt lat="46.1275710" lon="12.4820230">
        <ele>1693.0200000</ele>
        <time>2010-09-28T06:47:21Z</time>
      </trkpt>
      <trkpt lat="46.1275600" lon="12.4820160">
        <ele>1691.1000000</ele>
        <time>2010-09-28T06:47:31Z</time>
      </trkpt>
      <trkpt lat="46.1275430" lon="12.4820200">
        <ele>1689.6500000</ele>
        <time>2010-09-28T06:47:34Z</time>
      </trkpt>
      <trkpt lat="46.1275400" lon="12.4820170">
        <ele>1689.6500000</ele>
        <time>2010-09-28T06:47:41Z</time>
      </trkpt>
      <trkpt lat="46.1275140" lon="12.4819980">
        <ele>1687.7300000</ele>
        <time>2010-09-28T06:47:46Z</time>
      </trkpt>
      <trkpt lat="46.1274980" lon="12.4819450">
        <ele>1686.2900000</ele>
        <time>2010-09-28T06:47:52Z</time>
      </trkpt>
      <trkpt lat="46.1274940" lon="12.4819240">
        <ele>1685.8100000</ele>
        <time>2010-09-28T06:47:58Z</time>
      </trkpt>
      <trkpt lat="46.1274780" lon="12.4818890">
        <ele>1684.8500000</ele>
        <time>2010-09-28T06:48:04Z</time>
      </trkpt>
      <trkpt lat="46.1274530" lon="12.4818610">
        <ele>1682.4400000</ele>
        <time>2010-09-28T06:48:08Z</time>
      </trkpt>
      <trkpt lat="46.1274150" lon="12.4818200">
        <ele>1682.4400000</ele>
        <time>2010-09-28T06:48:14Z</time>
      </trkpt>
      <trkpt lat="46.1273770" lon="12.4817760">
        <ele>1679.5600000</ele>
        <time>2010-09-28T06:48:20Z</time>
      </trkpt>
      <trkpt lat="46.1273240" lon="12.4817140">
        <ele>1678.6000000</ele>
        <time>2010-09-28T06:48:27Z</time>
      </trkpt>
      <trkpt lat="46.1273010" lon="12.4816810">
        <ele>1674.7500000</ele>
        <time>2010-09-28T06:48:31Z</time>
      </trkpt>
      <trkpt lat="46.1273000" lon="12.4816500">
        <ele>1678.1200000</ele>
        <time>2010-09-28T06:48:35Z</time>
      </trkpt>
      <trkpt lat="46.1272790" lon="12.4816290">
        <ele>1675.7200000</ele>
        <time>2010-09-28T06:48:41Z</time>
      </trkpt>
      <trkpt lat="46.1272730" lon="12.4816260">
        <ele>1676.2000000</ele>
        <time>2010-09-28T06:48:43Z</time>
      </trkpt>
      <trkpt lat="46.1272360" lon="12.4815470">
        <ele>1676.2000000</ele>
        <time>2010-09-28T06:48:51Z</time>
      </trkpt>
      <trkpt lat="46.1272100" lon="12.4815270">
        <ele>1674.2700000</ele>
        <time>2010-09-28T06:48:57Z</time>
      </trkpt>
      <trkpt lat="46.1271990" lon="12.4815030">
        <ele>1672.8300000</ele>
        <time>2010-09-28T06:49:00Z</time>
      </trkpt>
      <trkpt lat="46.1271920" lon="12.4814940">
        <ele>1672.8300000</ele>
        <time>2010-09-28T06:49:01Z</time>
      </trkpt>
      <trkpt lat="46.1271620" lon="12.4814810">
        <ele>1670.4300000</ele>
        <time>2010-09-28T06:49:03Z</time>
      </trkpt>
      <trkpt lat="46.1271570" lon="12.4814800">
        <ele>1671.3900000</ele>
        <time>2010-09-28T06:49:04Z</time>
      </trkpt>
      <trkpt lat="46.1271050" lon="12.4814550">
        <ele>1668.0200000</ele>
        <time>2010-09-28T06:49:11Z</time>
      </trkpt>
      <trkpt lat="46.1270860" lon="12.4814430">
        <ele>1672.8300000</ele>
        <time>2010-09-28T06:49:13Z</time>
      </trkpt>
      <trkpt lat="46.1270780" lon="12.4814440">
        <ele>1669.9500000</ele>
        <time>2010-09-28T06:49:18Z</time>
      </trkpt>
      <trkpt lat="46.1270240" lon="12.4814040">
        <ele>1668.5100000</ele>
        <time>2010-09-28T06:49:23Z</time>
      </trkpt>
      <trkpt lat="46.1269910" lon="12.4813650">
        <ele>1668.0200000</ele>
        <time>2010-09-28T06:49:29Z</time>
      </trkpt>
      <trkpt lat="46.1269780" lon="12.4813540">
        <ele>1665.1400000</ele>
        <time>2010-09-28T06:49:31Z</time>
      </trkpt>
      <trkpt lat="46.1269670" lon="12.4813510">
        <ele>1665.6200000</ele>
        <time>2010-09-28T06:49:32Z</time>
      </trkpt>
      <trkpt lat="46.1269520" lon="12.4813440">
        <ele>1666.1000000</ele>
        <time>2010-09-28T06:49:34Z</time>
      </trkpt>
      <trkpt lat="46.1269130" lon="12.4813180">
        <ele>1666.1000000</ele>
        <time>2010-09-28T06:49:38Z</time>
      </trkpt>
      <trkpt lat="46.1268900" lon="12.4813000">
        <ele>1664.6600000</ele>
        <time>2010-09-28T06:49:41Z</time>
      </trkpt>
      <trkpt lat="46.1268710" lon="12.4812880">
        <ele>1665.1400000</ele>
        <time>2010-09-28T06:49:43Z</time>
      </trkpt>
      <trkpt lat="46.1267470" lon="12.4812200">
        <ele>1660.8100000</ele>
        <time>2010-09-28T06:49:52Z</time>
      </trkpt>
      <trkpt lat="46.1267290" lon="12.4812160">
        <ele>1662.7400000</ele>
        <time>2010-09-28T06:49:53Z</time>
      </trkpt>
      <trkpt lat="46.1266650" lon="12.4811720">
        <ele>1662.2600000</ele>
        <time>2010-09-28T06:49:58Z</time>
      </trkpt>
      <trkpt lat="46.1266320" lon="12.4811570">
        <ele>1661.3000000</ele>
        <time>2010-09-28T06:50:01Z</time>
      </trkpt>
      <trkpt lat="46.1266240" lon="12.4811540">
        <ele>1659.8500000</ele>
        <time>2010-09-28T06:50:02Z</time>
      </trkpt>
      <trkpt lat="46.1265810" lon="12.4811290">
        <ele>1661.7800000</ele>
        <time>2010-09-28T06:50:08Z</time>
      </trkpt>
      <trkpt lat="46.1265080" lon="12.4811990">
        <ele>1662.2600000</ele>
        <time>2010-09-28T06:50:15Z</time>
      </trkpt>
      <trkpt lat="46.1265020" lon="12.4812010">
        <ele>1661.7800000</ele>
        <time>2010-09-28T06:50:17Z</time>
      </trkpt>
      <trkpt lat="46.1264980" lon="12.4812080">
        <ele>1661.3000000</ele>
        <time>2010-09-28T06:50:30Z</time>
      </trkpt>
      <trkpt lat="46.1264790" lon="12.4812280">
        <ele>1661.3000000</ele>
        <time>2010-09-28T06:50:35Z</time>
      </trkpt>
      <trkpt lat="46.1264600" lon="12.4812290">
        <ele>1661.3000000</ele>
        <time>2010-09-28T06:50:37Z</time>
      </trkpt>
      <trkpt lat="46.1264080" lon="12.4811960">
        <ele>1657.9300000</ele>
        <time>2010-09-28T06:50:44Z</time>
      </trkpt>
      <trkpt lat="46.1263950" lon="12.4811930">
        <ele>1657.9300000</ele>
        <time>2010-09-28T06:50:48Z</time>
      </trkpt>
      <trkpt lat="46.1263660" lon="12.4811840">
        <ele>1656.0100000</ele>
        <time>2010-09-28T06:50:56Z</time>
      </trkpt>
      <trkpt lat="46.1263290" lon="12.4811800">
        <ele>1655.0500000</ele>
        <time>2010-09-28T06:51:00Z</time>
      </trkpt>
      <trkpt lat="46.1263090" lon="12.4811870">
        <ele>1654.0900000</ele>
        <time>2010-09-28T06:51:05Z</time>
      </trkpt>
      <trkpt lat="46.1262890" lon="12.4811900">
        <ele>1651.6800000</ele>
        <time>2010-09-28T06:51:10Z</time>
      </trkpt>
      <trkpt lat="46.1262700" lon="12.4811700">
        <ele>1653.6000000</ele>
        <time>2010-09-28T06:51:12Z</time>
      </trkpt>
      <trkpt lat="46.1262380" lon="12.4811460">
        <ele>1652.6400000</ele>
        <time>2010-09-28T06:51:16Z</time>
      </trkpt>
      <trkpt lat="46.1261580" lon="12.4811250">
        <ele>1651.6800000</ele>
        <time>2010-09-28T06:51:24Z</time>
      </trkpt>
      <trkpt lat="46.1261400" lon="12.4811080">
        <ele>1652.1600000</ele>
        <time>2010-09-28T06:51:27Z</time>
      </trkpt>
      <trkpt lat="46.1260980" lon="12.4810500">
        <ele>1653.1200000</ele>
        <time>2010-09-28T06:51:32Z</time>
      </trkpt>
      <trkpt lat="46.1260690" lon="12.4810500">
        <ele>1649.2800000</ele>
        <time>2010-09-28T06:51:34Z</time>
      </trkpt>
      <trkpt lat="46.1260430" lon="12.4810430">
        <ele>1653.1200000</ele>
        <time>2010-09-28T06:51:37Z</time>
      </trkpt>
      <trkpt lat="46.1260400" lon="12.4810430">
        <ele>1653.1200000</ele>
        <time>2010-09-28T06:51:38Z</time>
      </trkpt>
      <trkpt lat="46.1260360" lon="12.4810430">
        <ele>1649.2800000</ele>
        <time>2010-09-28T06:51:48Z</time>
      </trkpt>
      <trkpt lat="46.1260360" lon="12.4810430">
        <ele>1650.2400000</ele>
        <time>2010-09-28T06:51:54Z</time>
      </trkpt>
      <trkpt lat="46.1260150" lon="12.4810240">
        <ele>1651.2000000</ele>
        <time>2010-09-28T06:51:56Z</time>
      </trkpt>
      <trkpt lat="46.1259660" lon="12.4809990">
        <ele>1648.8000000</ele>
        <time>2010-09-28T06:52:02Z</time>
      </trkpt>
      <trkpt lat="46.1259130" lon="12.4809880">
        <ele>1649.2800000</ele>
        <time>2010-09-28T06:52:07Z</time>
      </trkpt>
      <trkpt lat="46.1258840" lon="12.4809790">
        <ele>1647.8400000</ele>
        <time>2010-09-28T06:52:10Z</time>
      </trkpt>
      <trkpt lat="46.1258660" lon="12.4809960">
        <ele>1646.8800000</ele>
        <time>2010-09-28T06:52:16Z</time>
      </trkpt>
      <trkpt lat="46.1258780" lon="12.4810220">
        <ele>1644.9500000</ele>
        <time>2010-09-28T06:52:22Z</time>
      </trkpt>
      <trkpt lat="46.1258640" lon="12.4809910">
        <ele>1647.3600000</ele>
        <time>2010-09-28T06:52:51Z</time>
      </trkpt>
      <trkpt lat="46.1258300" lon="12.4809750">
        <ele>1645.9100000</ele>
        <time>2010-09-28T06:52:56Z</time>
      </trkpt>
      <trkpt lat="46.1257790" lon="12.4809970">
        <ele>1643.9900000</ele>
        <time>2010-09-28T06:53:02Z</time>
      </trkpt>
      <trkpt lat="46.1257700" lon="12.4810050">
        <ele>1644.4700000</ele>
        <time>2010-09-28T06:53:03Z</time>
      </trkpt>
      <trkpt lat="46.1257520" lon="12.4810210">
        <ele>1644.9500000</ele>
        <time>2010-09-28T06:53:05Z</time>
      </trkpt>
      <trkpt lat="46.1257390" lon="12.4810300">
        <ele>1644.9500000</ele>
        <time>2010-09-28T06:53:11Z</time>
      </trkpt>
      <trkpt lat="46.1257330" lon="12.4810360">
        <ele>1645.4300000</ele>
        <time>2010-09-28T06:53:27Z</time>
      </trkpt>
      <trkpt lat="46.1257070" lon="12.4810530">
        <ele>1644.9500000</ele>
        <time>2010-09-28T06:53:31Z</time>
      </trkpt>
      <trkpt lat="46.1256380" lon="12.4810740">
        <ele>1644.4700000</ele>
        <time>2010-09-28T06:53:38Z</time>
      </trkpt>
      <trkpt lat="46.1256160" lon="12.4810950">
        <ele>1644.9500000</ele>
        <time>2010-09-28T06:53:44Z</time>
      </trkpt>
      <trkpt lat="46.1255980" lon="12.4811240">
        <ele>1644.4700000</ele>
        <time>2010-09-28T06:54:09Z</time>
      </trkpt>
      <trkpt lat="46.1255920" lon="12.4811480">
        <ele>1646.4000000</ele>
        <time>2010-09-28T06:54:14Z</time>
      </trkpt>
      <trkpt lat="46.1255860" lon="12.4811510">
        <ele>1645.4300000</ele>
        <time>2010-09-28T06:54:18Z</time>
      </trkpt>
      <trkpt lat="46.1255610" lon="12.4811480">
        <ele>1645.9100000</ele>
        <time>2010-09-28T06:54:26Z</time>
      </trkpt>
      <trkpt lat="46.1255600" lon="12.4811570">
        <ele>1645.9100000</ele>
        <time>2010-09-28T06:54:34Z</time>
      </trkpt>
      <trkpt lat="46.1255710" lon="12.4811740">
        <ele>1645.9100000</ele>
        <time>2010-09-28T06:55:12Z</time>
      </trkpt>
      <trkpt lat="46.1255930" lon="12.4812850">
        <ele>1646.4000000</ele>
        <time>2010-09-28T06:55:18Z</time>
      </trkpt>
      <trkpt lat="46.1256210" lon="12.4813490">
        <ele>1646.4000000</ele>
        <time>2010-09-28T06:55:23Z</time>
      </trkpt>
      <trkpt lat="46.1256310" lon="12.4813540">
        <ele>1646.4000000</ele>
        <time>2010-09-28T06:55:40Z</time>
      </trkpt>
      <trkpt lat="46.1256280" lon="12.4813480">
        <ele>1645.9100000</ele>
        <time>2010-09-28T06:55:42Z</time>
      </trkpt>
      <trkpt lat="46.1256030" lon="12.4812500">
        <ele>1643.9900000</ele>
        <time>2010-09-28T06:55:49Z</time>
      </trkpt>
      <trkpt lat="46.1255610" lon="12.4812140">
        <ele>1646.4000000</ele>
        <time>2010-09-28T06:55:53Z</time>
      </trkpt>
      <trkpt lat="46.1255290" lon="12.4812000">
        <ele>1644.9500000</ele>
        <time>2010-09-28T06:55:56Z</time>
      </trkpt>
      <trkpt lat="46.1255170" lon="12.4811960">
        <ele>1643.9900000</ele>
        <time>2010-09-28T06:55:57Z</time>
      </trkpt>
      <trkpt lat="46.1254010" lon="12.4812080">
        <ele>1645.4300000</ele>
        <time>2010-09-28T06:56:04Z</time>
      </trkpt>
      <trkpt lat="46.1253920" lon="12.4812140">
        <ele>1646.4000000</ele>
        <time>2010-09-28T06:56:06Z</time>
      </trkpt>
      <trkpt lat="46.1253330" lon="12.4812590">
        <ele>1643.5100000</ele>
        <time>2010-09-28T06:56:11Z</time>
      </trkpt>
      <trkpt lat="46.1253090" lon="12.4812660">
        <ele>1643.5100000</ele>
        <time>2010-09-28T06:56:14Z</time>
      </trkpt>
      <trkpt lat="46.1252400" lon="12.4812800">
        <ele>1641.5900000</ele>
        <time>2010-09-28T06:56:22Z</time>
      </trkpt>
      <trkpt lat="46.1252340" lon="12.4812820">
        <ele>1642.0700000</ele>
        <time>2010-09-28T06:56:23Z</time>
      </trkpt>
      <trkpt lat="46.1252220" lon="12.4812790">
        <ele>1643.0300000</ele>
        <time>2010-09-28T06:56:25Z</time>
      </trkpt>
      <trkpt lat="46.1251690" lon="12.4812930">
        <ele>1642.0700000</ele>
        <time>2010-09-28T06:56:32Z</time>
      </trkpt>
      <trkpt lat="46.1251070" lon="12.4812960">
        <ele>1643.0300000</ele>
        <time>2010-09-28T06:56:38Z</time>
      </trkpt>
      <trkpt lat="46.1250980" lon="12.4812960">
        <ele>1641.5900000</ele>
        <time>2010-09-28T06:56:39Z</time>
      </trkpt>
      <trkpt lat="46.1250770" lon="12.4813280">
        <ele>1641.5900000</ele>
        <time>2010-09-28T06:56:47Z</time>
      </trkpt>
      <trkpt lat="46.1250230" lon="12.4813450">
        <ele>1642.0700000</ele>
        <time>2010-09-28T06:56:57Z</time>
      </trkpt>
      <trkpt lat="46.1249830" lon="12.4813410">
        <ele>1641.5900000</ele>
        <time>2010-09-28T06:57:02Z</time>
      </trkpt>
      <trkpt lat="46.1249460" lon="12.4813360">
        <ele>1641.1100000</ele>
        <time>2010-09-28T06:57:06Z</time>
      </trkpt>
      <trkpt lat="46.1248890" lon="12.4813690">
        <ele>1642.0700000</ele>
        <time>2010-09-28T06:57:11Z</time>
      </trkpt>
      <trkpt lat="46.1248490" lon="12.4814050">
        <ele>1641.5900000</ele>
        <time>2010-09-28T06:57:16Z</time>
      </trkpt>
      <trkpt lat="46.1248280" lon="12.4813970">
        <ele>1640.6300000</ele>
        <time>2010-09-28T06:57:18Z</time>
      </trkpt>
      <trkpt lat="46.1247870" lon="12.4813810">
        <ele>1640.6300000</ele>
        <time>2010-09-28T06:57:23Z</time>
      </trkpt>
      <trkpt lat="46.1247330" lon="12.4813770">
        <ele>1639.6700000</ele>
        <time>2010-09-28T06:57:29Z</time>
      </trkpt>
      <trkpt lat="46.1246950" lon="12.4813730">
        <ele>1638.2200000</ele>
        <time>2010-09-28T06:57:35Z</time>
      </trkpt>
      <trkpt lat="46.1246600" lon="12.4813570">
        <ele>1640.1500000</ele>
        <time>2010-09-28T06:57:41Z</time>
      </trkpt>
      <trkpt lat="46.1246260" lon="12.4813260">
        <ele>1640.6300000</ele>
        <time>2010-09-28T06:57:47Z</time>
      </trkpt>
      <trkpt lat="46.1245890" lon="12.4813060">
        <ele>1640.6300000</ele>
        <time>2010-09-28T06:57:53Z</time>
      </trkpt>
      <trkpt lat="46.1245610" lon="12.4812800">
        <ele>1641.1100000</ele>
        <time>2010-09-28T06:58:55Z</time>
      </trkpt>
      <trkpt lat="46.1244910" lon="12.4812880">
        <ele>1640.6300000</ele>
        <time>2010-09-28T06:59:05Z</time>
      </trkpt>
      <trkpt lat="46.1244740" lon="12.4812840">
        <ele>1642.5500000</ele>
        <time>2010-09-28T06:59:09Z</time>
      </trkpt>
      <trkpt lat="46.1244710" lon="12.4812860">
        <ele>1638.7000000</ele>
        <time>2010-09-28T06:59:10Z</time>
      </trkpt>
      <trkpt lat="46.1244660" lon="12.4812870">
        <ele>1640.1500000</ele>
        <time>2010-09-28T06:59:11Z</time>
      </trkpt>
      <trkpt lat="46.1244360" lon="12.4812930">
        <ele>1641.1100000</ele>
        <time>2010-09-28T06:59:20Z</time>
      </trkpt>
      <trkpt lat="46.1244320" lon="12.4813030">
        <ele>1640.6300000</ele>
        <time>2010-09-28T06:59:30Z</time>
      </trkpt>
      <trkpt lat="46.1244070" lon="12.4813000">
        <ele>1640.1500000</ele>
        <time>2010-09-28T06:59:36Z</time>
      </trkpt>
      <trkpt lat="46.1244040" lon="12.4812910">
        <ele>1640.1500000</ele>
        <time>2010-09-28T06:59:41Z</time>
      </trkpt>
      <trkpt lat="46.1243570" lon="12.4812720">
        <ele>1638.7000000</ele>
        <time>2010-09-28T06:59:51Z</time>
      </trkpt>
      <trkpt lat="46.1242740" lon="12.4812440">
        <ele>1639.6700000</ele>
        <time>2010-09-28T06:59:57Z</time>
      </trkpt>
      <trkpt lat="46.1242510" lon="12.4812180">
        <ele>1638.2200000</ele>
        <time>2010-09-28T07:00:02Z</time>
      </trkpt>
      <trkpt lat="46.1242270" lon="12.4812060">
        <ele>1639.6700000</ele>
        <time>2010-09-28T07:00:07Z</time>
      </trkpt>
      <trkpt lat="46.1241910" lon="12.4811930">
        <ele>1638.7000000</ele>
        <time>2010-09-28T07:00:10Z</time>
      </trkpt>
      <trkpt lat="46.1241050" lon="12.4811630">
        <ele>1638.7000000</ele>
        <time>2010-09-28T07:00:17Z</time>
      </trkpt>
      <trkpt lat="46.1240370" lon="12.4811070">
        <ele>1637.2600000</ele>
        <time>2010-09-28T07:00:25Z</time>
      </trkpt>
      <trkpt lat="46.1239910" lon="12.4810880">
        <ele>1637.2600000</ele>
        <time>2010-09-28T07:00:32Z</time>
      </trkpt>
      <trkpt lat="46.1239480" lon="12.4810650">
        <ele>1635.8200000</ele>
        <time>2010-09-28T07:00:37Z</time>
      </trkpt>
      <trkpt lat="46.1239240" lon="12.4810640">
        <ele>1634.3800000</ele>
        <time>2010-09-28T07:00:43Z</time>
      </trkpt>
      <trkpt lat="46.1239190" lon="12.4810610">
        <ele>1631.0100000</ele>
        <time>2010-09-28T07:00:44Z</time>
      </trkpt>
      <trkpt lat="46.1239150" lon="12.4810600">
        <ele>1632.9400000</ele>
        <time>2010-09-28T07:00:45Z</time>
      </trkpt>
      <trkpt lat="46.1239030" lon="12.4810690">
        <ele>1634.3800000</ele>
        <time>2010-09-28T07:00:47Z</time>
      </trkpt>
      <trkpt lat="46.1238810" lon="12.4810300">
        <ele>1630.5300000</ele>
        <time>2010-09-28T07:00:54Z</time>
      </trkpt>
      <trkpt lat="46.1238650" lon="12.4809830">
        <ele>1633.9000000</ele>
        <time>2010-09-28T07:00:57Z</time>
      </trkpt>
      <trkpt lat="46.1238580" lon="12.4809680">
        <ele>1632.4600000</ele>
        <time>2010-09-28T07:01:00Z</time>
      </trkpt>
      <trkpt lat="46.1238570" lon="12.4809560">
        <ele>1630.5300000</ele>
        <time>2010-09-28T07:01:03Z</time>
      </trkpt>
      <trkpt lat="46.1238600" lon="12.4809290">
        <ele>1630.5300000</ele>
        <time>2010-09-28T07:01:07Z</time>
      </trkpt>
      <trkpt lat="46.1238400" lon="12.4808690">
        <ele>1631.4900000</ele>
        <time>2010-09-28T07:01:12Z</time>
      </trkpt>
      <trkpt lat="46.1237870" lon="12.4807920">
        <ele>1629.5700000</ele>
        <time>2010-09-28T07:01:19Z</time>
      </trkpt>
      <trkpt lat="46.1237300" lon="12.4807130">
        <ele>1628.6100000</ele>
        <time>2010-09-28T07:01:36Z</time>
      </trkpt>
      <trkpt lat="46.1237250" lon="12.4807060">
        <ele>1625.2500000</ele>
        <time>2010-09-28T07:01:37Z</time>
      </trkpt>
      <trkpt lat="46.1237220" lon="12.4806970">
        <ele>1626.6900000</ele>
        <time>2010-09-28T07:01:38Z</time>
      </trkpt>
      <trkpt lat="46.1237060" lon="12.4805940">
        <ele>1624.2800000</ele>
        <time>2010-09-28T07:01:45Z</time>
      </trkpt>
      <trkpt lat="46.1236750" lon="12.4805430">
        <ele>1625.2500000</ele>
        <time>2010-09-28T07:01:52Z</time>
      </trkpt>
      <trkpt lat="46.1236720" lon="12.4804930">
        <ele>1624.2800000</ele>
        <time>2010-09-28T07:01:57Z</time>
      </trkpt>
      <trkpt lat="46.1236610" lon="12.4804630">
        <ele>1622.3600000</ele>
        <time>2010-09-28T07:02:00Z</time>
      </trkpt>
      <trkpt lat="46.1236640" lon="12.4803630">
        <ele>1620.4400000</ele>
        <time>2010-09-28T07:02:07Z</time>
      </trkpt>
      <trkpt lat="46.1236550" lon="12.4803310">
        <ele>1620.4400000</ele>
        <time>2010-09-28T07:02:15Z</time>
      </trkpt>
      <trkpt lat="46.1236510" lon="12.4802790">
        <ele>1618.5200000</ele>
        <time>2010-09-28T07:02:30Z</time>
      </trkpt>
      <trkpt lat="46.1236310" lon="12.4801660">
        <ele>1618.0400000</ele>
        <time>2010-09-28T07:02:45Z</time>
      </trkpt>
      <trkpt lat="46.1236200" lon="12.4801440">
        <ele>1619.0000000</ele>
        <time>2010-09-28T07:02:47Z</time>
      </trkpt>
      <trkpt lat="46.1235710" lon="12.4801020">
        <ele>1613.7100000</ele>
        <time>2010-09-28T07:02:51Z</time>
      </trkpt>
      <trkpt lat="46.1235360" lon="12.4800750">
        <ele>1616.1100000</ele>
        <time>2010-09-28T07:02:55Z</time>
      </trkpt>
      <trkpt lat="46.1235230" lon="12.4800440">
        <ele>1617.0700000</ele>
        <time>2010-09-28T07:02:57Z</time>
      </trkpt>
      <trkpt lat="46.1235010" lon="12.4799910">
        <ele>1614.6700000</ele>
        <time>2010-09-28T07:03:02Z</time>
      </trkpt>
      <trkpt lat="46.1234970" lon="12.4799840">
        <ele>1613.2300000</ele>
        <time>2010-09-28T07:03:04Z</time>
      </trkpt>
      <trkpt lat="46.1234610" lon="12.4799360">
        <ele>1613.2300000</ele>
        <time>2010-09-28T07:03:09Z</time>
      </trkpt>
      <trkpt lat="46.1234380" lon="12.4799260">
        <ele>1614.1900000</ele>
        <time>2010-09-28T07:03:11Z</time>
      </trkpt>
      <trkpt lat="46.1233990" lon="12.4799260">
        <ele>1612.7500000</ele>
        <time>2010-09-28T07:03:18Z</time>
      </trkpt>
      <trkpt lat="46.1234200" lon="12.4798710">
        <ele>1612.2700000</ele>
        <time>2010-09-28T07:03:25Z</time>
      </trkpt>
      <trkpt lat="46.1234260" lon="12.4797840">
        <ele>1610.3500000</ele>
        <time>2010-09-28T07:03:32Z</time>
      </trkpt>
      <trkpt lat="46.1233890" lon="12.4797050">
        <ele>1609.8600000</ele>
        <time>2010-09-28T07:03:40Z</time>
      </trkpt>
      <trkpt lat="46.1233940" lon="12.4796500">
        <ele>1607.9400000</ele>
        <time>2010-09-28T07:03:49Z</time>
      </trkpt>
      <trkpt lat="46.1233460" lon="12.4795700">
        <ele>1608.4200000</ele>
        <time>2010-09-28T07:03:56Z</time>
      </trkpt>
      <trkpt lat="46.1233260" lon="12.4795310">
        <ele>1604.5800000</ele>
        <time>2010-09-28T07:03:58Z</time>
      </trkpt>
      <trkpt lat="46.1232820" lon="12.4794810">
        <ele>1606.9800000</ele>
        <time>2010-09-28T07:04:04Z</time>
      </trkpt>
      <trkpt lat="46.1232680" lon="12.4794700">
        <ele>1606.0200000</ele>
        <time>2010-09-28T07:04:10Z</time>
      </trkpt>
      <trkpt lat="46.1232570" lon="12.4794660">
        <ele>1604.5800000</ele>
        <time>2010-09-28T07:04:18Z</time>
      </trkpt>
      <trkpt lat="46.1232560" lon="12.4794540">
        <ele>1604.5800000</ele>
        <time>2010-09-28T07:04:19Z</time>
      </trkpt>
      <trkpt lat="46.1232410" lon="12.4794280">
        <ele>1604.1000000</ele>
        <time>2010-09-28T07:04:24Z</time>
      </trkpt>
      <trkpt lat="46.1232430" lon="12.4794130">
        <ele>1603.6200000</ele>
        <time>2010-09-28T07:04:30Z</time>
      </trkpt>
      <trkpt lat="46.1232240" lon="12.4793810">
        <ele>1599.7700000</ele>
        <time>2010-09-28T07:04:34Z</time>
      </trkpt>
      <trkpt lat="46.1232180" lon="12.4793720">
        <ele>1599.7700000</ele>
        <time>2010-09-28T07:04:35Z</time>
      </trkpt>
      <trkpt lat="46.1232080" lon="12.4793530">
        <ele>1601.6900000</ele>
        <time>2010-09-28T07:04:37Z</time>
      </trkpt>
      <trkpt lat="46.1231930" lon="12.4793450">
        <ele>1598.3300000</ele>
        <time>2010-09-28T07:04:43Z</time>
      </trkpt>
      <trkpt lat="46.1231970" lon="12.4793320">
        <ele>1596.8900000</ele>
        <time>2010-09-28T07:04:52Z</time>
      </trkpt>
      <trkpt lat="46.1231930" lon="12.4793230">
        <ele>1594.9600000</ele>
        <time>2010-09-28T07:04:59Z</time>
      </trkpt>
      <trkpt lat="46.1231910" lon="12.4793250">
        <ele>1594.4800000</ele>
        <time>2010-09-28T07:05:02Z</time>
      </trkpt>
      <trkpt lat="46.1232150" lon="12.4793150">
        <ele>1592.5600000</ele>
        <time>2010-09-28T07:05:08Z</time>
      </trkpt>
      <trkpt lat="46.1232250" lon="12.4792530">
        <ele>1590.6400000</ele>
        <time>2010-09-28T07:05:16Z</time>
      </trkpt>
      <trkpt lat="46.1232180" lon="12.4792420">
        <ele>1587.2700000</ele>
        <time>2010-09-28T07:05:26Z</time>
      </trkpt>
      <trkpt lat="46.1232180" lon="12.4792420">
        <ele>1588.7200000</ele>
        <time>2010-09-28T07:05:28Z</time>
      </trkpt>
      <trkpt lat="46.1231620" lon="12.4791430">
        <ele>1587.7500000</ele>
        <time>2010-09-28T07:05:37Z</time>
      </trkpt>
      <trkpt lat="46.1231310" lon="12.4791180">
        <ele>1585.8300000</ele>
        <time>2010-09-28T07:05:40Z</time>
      </trkpt>
      <trkpt lat="46.1231070" lon="12.4790840">
        <ele>1584.3900000</ele>
        <time>2010-09-28T07:05:46Z</time>
      </trkpt>
      <trkpt lat="46.1231010" lon="12.4790300">
        <ele>1582.9500000</ele>
        <time>2010-09-28T07:05:53Z</time>
      </trkpt>
      <trkpt lat="46.1230950" lon="12.4789740">
        <ele>1579.1000000</ele>
        <time>2010-09-28T07:05:57Z</time>
      </trkpt>
      <trkpt lat="46.1230760" lon="12.4789300">
        <ele>1578.1400000</ele>
        <time>2010-09-28T07:06:04Z</time>
      </trkpt>
      <trkpt lat="46.1230780" lon="12.4788980">
        <ele>1578.1400000</ele>
        <time>2010-09-28T07:06:09Z</time>
      </trkpt>
      <trkpt lat="46.1230690" lon="12.4788240">
        <ele>1573.8200000</ele>
        <time>2010-09-28T07:06:15Z</time>
      </trkpt>
      <trkpt lat="46.1230540" lon="12.4788020">
        <ele>1573.3300000</ele>
        <time>2010-09-28T07:06:17Z</time>
      </trkpt>
      <trkpt lat="46.1230330" lon="12.4787760">
        <ele>1576.7000000</ele>
        <time>2010-09-28T07:06:20Z</time>
      </trkpt>
      <trkpt lat="46.1230300" lon="12.4787680">
        <ele>1576.2200000</ele>
        <time>2010-09-28T07:06:21Z</time>
      </trkpt>
      <trkpt lat="46.1229830" lon="12.4787190">
        <ele>1573.8200000</ele>
        <time>2010-09-28T07:06:27Z</time>
      </trkpt>
      <trkpt lat="46.1229660" lon="12.4786990">
        <ele>1574.3000000</ele>
        <time>2010-09-28T07:06:28Z</time>
      </trkpt>
      <trkpt lat="46.1229220" lon="12.4786800">
        <ele>1572.8500000</ele>
        <time>2010-09-28T07:06:31Z</time>
      </trkpt>
      <trkpt lat="46.1229000" lon="12.4786640">
        <ele>1571.4100000</ele>
        <time>2010-09-28T07:06:33Z</time>
      </trkpt>
      <trkpt lat="46.1228620" lon="12.4785430">
        <ele>1572.8500000</ele>
        <time>2010-09-28T07:06:40Z</time>
      </trkpt>
      <trkpt lat="46.1228580" lon="12.4784930">
        <ele>1569.4900000</ele>
        <time>2010-09-28T07:06:45Z</time>
      </trkpt>
      <trkpt lat="46.1228590" lon="12.4784840">
        <ele>1569.9700000</ele>
        <time>2010-09-28T07:06:46Z</time>
      </trkpt>
      <trkpt lat="46.1228620" lon="12.4784610">
        <ele>1569.4900000</ele>
        <time>2010-09-28T07:06:52Z</time>
      </trkpt>
      <trkpt lat="46.1228310" lon="12.4783920">
        <ele>1569.9700000</ele>
        <time>2010-09-28T07:06:59Z</time>
      </trkpt>
      <trkpt lat="46.1228280" lon="12.4783810">
        <ele>1569.4900000</ele>
        <time>2010-09-28T07:07:00Z</time>
      </trkpt>
      <trkpt lat="46.1228200" lon="12.4783250">
        <ele>1569.9700000</ele>
        <time>2010-09-28T07:07:04Z</time>
      </trkpt>
      <trkpt lat="46.1228230" lon="12.4783030">
        <ele>1569.0100000</ele>
        <time>2010-09-28T07:07:06Z</time>
      </trkpt>
      <trkpt lat="46.1228000" lon="12.4782500">
        <ele>1569.9700000</ele>
        <time>2010-09-28T07:07:12Z</time>
      </trkpt>
      <trkpt lat="46.1228000" lon="12.4782030">
        <ele>1570.9300000</ele>
        <time>2010-09-28T07:07:18Z</time>
      </trkpt>
      <trkpt lat="46.1227940" lon="12.4781130">
        <ele>1569.4900000</ele>
        <time>2010-09-28T07:07:24Z</time>
      </trkpt>
      <trkpt lat="46.1227340" lon="12.4780440">
        <ele>1570.4500000</ele>
        <time>2010-09-28T07:07:32Z</time>
      </trkpt>
      <trkpt lat="46.1226410" lon="12.4779450">
        <ele>1571.8900000</ele>
        <time>2010-09-28T07:07:41Z</time>
      </trkpt>
      <trkpt lat="46.1226100" lon="12.4778780">
        <ele>1570.9300000</ele>
        <time>2010-09-28T07:07:49Z</time>
      </trkpt>
      <trkpt lat="46.1225670" lon="12.4778000">
        <ele>1570.9300000</ele>
        <time>2010-09-28T07:07:56Z</time>
      </trkpt>
      <trkpt lat="46.1225660" lon="12.4777450">
        <ele>1572.3700000</ele>
        <time>2010-09-28T07:08:02Z</time>
      </trkpt>
      <trkpt lat="46.1225520" lon="12.4777190">
        <ele>1572.8500000</ele>
        <time>2010-09-28T07:08:07Z</time>
      </trkpt>
      <trkpt lat="46.1225100" lon="12.4776120">
        <ele>1573.3300000</ele>
        <time>2010-09-28T07:08:15Z</time>
      </trkpt>
      <trkpt lat="46.1224620" lon="12.4775380">
        <ele>1573.3300000</ele>
        <time>2010-09-28T07:08:21Z</time>
      </trkpt>
      <trkpt lat="46.1224130" lon="12.4774890">
        <ele>1574.7800000</ele>
        <time>2010-09-28T07:08:27Z</time>
      </trkpt>
      <trkpt lat="46.1224090" lon="12.4774760">
        <ele>1575.2600000</ele>
        <time>2010-09-28T07:08:32Z</time>
      </trkpt>
      <trkpt lat="46.1224130" lon="12.4774550">
        <ele>1575.7400000</ele>
        <time>2010-09-28T07:08:39Z</time>
      </trkpt>
      <trkpt lat="46.1224310" lon="12.4774160">
        <ele>1576.7000000</ele>
        <time>2010-09-28T07:08:44Z</time>
      </trkpt>
      <trkpt lat="46.1224340" lon="12.4773550">
        <ele>1576.7000000</ele>
        <time>2010-09-28T07:08:49Z</time>
      </trkpt>
      <trkpt lat="46.1224110" lon="12.4772940">
        <ele>1577.1800000</ele>
        <time>2010-09-28T07:08:55Z</time>
      </trkpt>
      <trkpt lat="46.1224220" lon="12.4772760">
        <ele>1576.7000000</ele>
        <time>2010-09-28T07:09:00Z</time>
      </trkpt>
      <trkpt lat="46.1224220" lon="12.4772760">
        <ele>1576.7000000</ele>
        <time>2010-09-28T07:09:10Z</time>
      </trkpt>
      <trkpt lat="46.1224370" lon="12.4772440">
        <ele>1574.7800000</ele>
        <time>2010-09-28T07:09:12Z</time>
      </trkpt>
      <trkpt lat="46.1224480" lon="12.4771840">
        <ele>1575.7400000</ele>
        <time>2010-09-28T07:09:17Z</time>
      </trkpt>
      <trkpt lat="46.1224570" lon="12.4771070">
        <ele>1573.3300000</ele>
        <time>2010-09-28T07:09:21Z</time>
      </trkpt>
      <trkpt lat="46.1225050" lon="12.4770360">
        <ele>1574.7800000</ele>
        <time>2010-09-28T07:09:27Z</time>
      </trkpt>
      <trkpt lat="46.1225060" lon="12.4769910">
        <ele>1571.4100000</ele>
        <time>2010-09-28T07:09:31Z</time>
      </trkpt>
      <trkpt lat="46.1225090" lon="12.4769770">
        <ele>1571.8900000</ele>
        <time>2010-09-28T07:09:32Z</time>
      </trkpt>
      <trkpt lat="46.1225140" lon="12.4768900">
        <ele>1573.3300000</ele>
        <time>2010-09-28T07:09:37Z</time>
      </trkpt>
      <trkpt lat="46.1225090" lon="12.4768520">
        <ele>1569.9700000</ele>
        <time>2010-09-28T07:09:40Z</time>
      </trkpt>
      <trkpt lat="46.1225080" lon="12.4768350">
        <ele>1571.4100000</ele>
        <time>2010-09-28T07:09:41Z</time>
      </trkpt>
      <trkpt lat="46.1224830" lon="12.4767570">
        <ele>1569.4900000</ele>
        <time>2010-09-28T07:09:46Z</time>
      </trkpt>
      <trkpt lat="46.1224750" lon="12.4767480">
        <ele>1569.4900000</ele>
        <time>2010-09-28T07:09:47Z</time>
      </trkpt>
      <trkpt lat="46.1224550" lon="12.4766720">
        <ele>1569.9700000</ele>
        <time>2010-09-28T07:09:53Z</time>
      </trkpt>
      <trkpt lat="46.1224410" lon="12.4765680">
        <ele>1571.4100000</ele>
        <time>2010-09-28T07:09:59Z</time>
      </trkpt>
      <trkpt lat="46.1224480" lon="12.4765280">
        <ele>1568.5300000</ele>
        <time>2010-09-28T07:10:04Z</time>
      </trkpt>
      <trkpt lat="46.1224820" lon="12.4764630">
        <ele>1569.0100000</ele>
        <time>2010-09-28T07:10:11Z</time>
      </trkpt>
      <trkpt lat="46.1224980" lon="12.4763770">
        <ele>1568.0500000</ele>
        <time>2010-09-28T07:10:16Z</time>
      </trkpt>
      <trkpt lat="46.1224560" lon="12.4761630">
        <ele>1568.5300000</ele>
        <time>2010-09-28T07:10:37Z</time>
      </trkpt>
      <trkpt lat="46.1223750" lon="12.4759680">
        <ele>1570.4500000</ele>
        <time>2010-09-28T07:10:58Z</time>
      </trkpt>
      <trkpt lat="46.1223480" lon="12.4757890">
        <ele>1571.4100000</ele>
        <time>2010-09-28T07:11:12Z</time>
      </trkpt>
      <trkpt lat="46.1223110" lon="12.4757560">
        <ele>1570.9300000</ele>
        <time>2010-09-28T07:11:17Z</time>
      </trkpt>
      <trkpt lat="46.1222880" lon="12.4756850">
        <ele>1570.9300000</ele>
        <time>2010-09-28T07:11:24Z</time>
      </trkpt>
      <trkpt lat="46.1222670" lon="12.4755930">
        <ele>1571.4100000</ele>
        <time>2010-09-28T07:11:30Z</time>
      </trkpt>
      <trkpt lat="46.1222430" lon="12.4755110">
        <ele>1572.3700000</ele>
        <time>2010-09-28T07:11:36Z</time>
      </trkpt>
      <trkpt lat="46.1221990" lon="12.4754300">
        <ele>1571.4100000</ele>
        <time>2010-09-28T07:11:42Z</time>
      </trkpt>
      <trkpt lat="46.1221700" lon="12.4753610">
        <ele>1569.9700000</ele>
        <time>2010-09-28T07:11:47Z</time>
      </trkpt>
      <trkpt lat="46.1221280" lon="12.4753180">
        <ele>1568.5300000</ele>
        <time>2010-09-28T07:11:55Z</time>
      </trkpt>
      <trkpt lat="46.1221280" lon="12.4753180">
        <ele>1568.5300000</ele>
        <time>2010-09-28T07:11:56Z</time>
      </trkpt>
      <trkpt lat="46.1221360" lon="12.4752840">
        <ele>1568.5300000</ele>
        <time>2010-09-28T07:12:01Z</time>
      </trkpt>
      <trkpt lat="46.1221240" lon="12.4751980">
        <ele>1567.5700000</ele>
        <time>2010-09-28T07:12:11Z</time>
      </trkpt>
      <trkpt lat="46.1221220" lon="12.4751730">
        <ele>1566.1200000</ele>
        <time>2010-09-28T07:12:13Z</time>
      </trkpt>
      <trkpt lat="46.1221170" lon="12.4751650">
        <ele>1567.0900000</ele>
        <time>2010-09-28T07:12:15Z</time>
      </trkpt>
      <trkpt lat="46.1220440" lon="12.4750990">
        <ele>1565.6400000</ele>
        <time>2010-09-28T07:12:21Z</time>
      </trkpt>
      <trkpt lat="46.1219420" lon="12.4749880">
        <ele>1565.6400000</ele>
        <time>2010-09-28T07:12:29Z</time>
      </trkpt>
      <trkpt lat="46.1219210" lon="12.4749570">
        <ele>1565.6400000</ele>
        <time>2010-09-28T07:12:33Z</time>
      </trkpt>
      <trkpt lat="46.1218930" lon="12.4748890">
        <ele>1563.2400000</ele>
        <time>2010-09-28T07:12:39Z</time>
      </trkpt>
      <trkpt lat="46.1218790" lon="12.4748460">
        <ele>1563.7200000</ele>
        <time>2010-09-28T07:12:43Z</time>
      </trkpt>
      <trkpt lat="46.1218390" lon="12.4747890">
        <ele>1563.7200000</ele>
        <time>2010-09-28T07:12:50Z</time>
      </trkpt>
      <trkpt lat="46.1218300" lon="12.4747580">
        <ele>1562.2800000</ele>
        <time>2010-09-28T07:12:52Z</time>
      </trkpt>
      <trkpt lat="46.1217980" lon="12.4746900">
        <ele>1560.3600000</ele>
        <time>2010-09-28T07:12:58Z</time>
      </trkpt>
      <trkpt lat="46.1217890" lon="12.4746770">
        <ele>1560.3600000</ele>
        <time>2010-09-28T07:12:59Z</time>
      </trkpt>
      <trkpt lat="46.1217690" lon="12.4746550">
        <ele>1561.8000000</ele>
        <time>2010-09-28T07:13:01Z</time>
      </trkpt>
      <trkpt lat="46.1217600" lon="12.4746450">
        <ele>1560.8400000</ele>
        <time>2010-09-28T07:13:02Z</time>
      </trkpt>
      <trkpt lat="46.1217110" lon="12.4746350">
        <ele>1561.3200000</ele>
        <time>2010-09-28T07:13:08Z</time>
      </trkpt>
      <trkpt lat="46.1216530" lon="12.4745750">
        <ele>1560.8400000</ele>
        <time>2010-09-28T07:13:16Z</time>
      </trkpt>
      <trkpt lat="46.1216240" lon="12.4744720">
        <ele>1560.3600000</ele>
        <time>2010-09-28T07:13:38Z</time>
      </trkpt>
      <trkpt lat="46.1215960" lon="12.4744830">
        <ele>1559.8800000</ele>
        <time>2010-09-28T07:13:58Z</time>
      </trkpt>
      <trkpt lat="46.1216010" lon="12.4744650">
        <ele>1560.3600000</ele>
        <time>2010-09-28T07:14:02Z</time>
      </trkpt>
      <trkpt lat="46.1215860" lon="12.4744440">
        <ele>1560.8400000</ele>
        <time>2010-09-28T07:14:09Z</time>
      </trkpt>
      <trkpt lat="46.1215650" lon="12.4744380">
        <ele>1561.3200000</ele>
        <time>2010-09-28T07:14:37Z</time>
      </trkpt>
      <trkpt lat="46.1215550" lon="12.4744390">
        <ele>1561.8000000</ele>
        <time>2010-09-28T07:14:41Z</time>
      </trkpt>
      <trkpt lat="46.1214940" lon="12.4743970">
        <ele>1559.8800000</ele>
        <time>2010-09-28T07:14:46Z</time>
      </trkpt>
      <trkpt lat="46.1214460" lon="12.4743680">
        <ele>1560.8400000</ele>
        <time>2010-09-28T07:14:55Z</time>
      </trkpt>
      <trkpt lat="46.1214460" lon="12.4743680">
        <ele>1568.0500000</ele>
        <time>2010-09-28T07:15:29Z</time>
      </trkpt>
      <trkpt lat="46.1214360" lon="12.4743750">
        <ele>1561.8000000</ele>
        <time>2010-09-28T07:15:30Z</time>
      </trkpt>
      <trkpt lat="46.1213980" lon="12.4744110">
        <ele>1560.8400000</ele>
        <time>2010-09-28T07:15:38Z</time>
      </trkpt>
      <trkpt lat="46.1213980" lon="12.4744110">
        <ele>1560.8400000</ele>
        <time>2010-09-28T07:15:55Z</time>
      </trkpt>
      <trkpt lat="46.1213980" lon="12.4744110">
        <ele>1560.8400000</ele>
        <time>2010-09-28T07:16:11Z</time>
      </trkpt>
      <trkpt lat="46.1213630" lon="12.4743380">
        <ele>1561.3200000</ele>
        <time>2010-09-28T07:16:25Z</time>
      </trkpt>
      <trkpt lat="46.1213630" lon="12.4743380">
        <ele>1561.3200000</ele>
        <time>2010-09-28T07:16:45Z</time>
      </trkpt>
      <trkpt lat="46.1213630" lon="12.4743380">
        <ele>1561.3200000</ele>
        <time>2010-09-28T07:16:53Z</time>
      </trkpt>
      <trkpt lat="46.1213360" lon="12.4743390">
        <ele>1560.3600000</ele>
        <time>2010-09-28T07:17:33Z</time>
      </trkpt>
      <trkpt lat="46.1213210" lon="12.4743320">
        <ele>1559.8800000</ele>
        <time>2010-09-28T07:17:41Z</time>
      </trkpt>
      <trkpt lat="46.1213210" lon="12.4743320">
        <ele>1557.9500000</ele>
        <time>2010-09-28T07:17:50Z</time>
      </trkpt>
      <trkpt lat="46.1212930" lon="12.4743260">
        <ele>1555.0700000</ele>
        <time>2010-09-28T07:17:57Z</time>
      </trkpt>
      <trkpt lat="46.1212930" lon="12.4743260">
        <ele>1555.0700000</ele>
        <time>2010-09-28T07:18:03Z</time>
      </trkpt>
      <trkpt lat="46.1212930" lon="12.4743260">
        <ele>1553.6300000</ele>
        <time>2010-09-28T07:18:06Z</time>
      </trkpt>
      <trkpt lat="46.1212930" lon="12.4743260">
        <ele>1552.1900000</ele>
        <time>2010-09-28T07:18:11Z</time>
      </trkpt>
      <trkpt lat="46.1212710" lon="12.4743450">
        <ele>1552.6700000</ele>
        <time>2010-09-28T07:18:34Z</time>
      </trkpt>
      <trkpt lat="46.1211560" lon="12.4744320">
        <ele>1551.7100000</ele>
        <time>2010-09-28T07:18:40Z</time>
      </trkpt>
      <trkpt lat="46.1210830" lon="12.4744710">
        <ele>1551.2200000</ele>
        <time>2010-09-28T07:18:46Z</time>
      </trkpt>
      <trkpt lat="46.1210610" lon="12.4745120">
        <ele>1548.8200000</ele>
        <time>2010-09-28T07:18:50Z</time>
      </trkpt>
      <trkpt lat="46.1210190" lon="12.4745910">
        <ele>1548.8200000</ele>
        <time>2010-09-28T07:18:57Z</time>
      </trkpt>
      <trkpt lat="46.1210030" lon="12.4746120">
        <ele>1548.3400000</ele>
        <time>2010-09-28T07:19:02Z</time>
      </trkpt>
      <trkpt lat="46.1209950" lon="12.4746320">
        <ele>1546.9000000</ele>
        <time>2010-09-28T07:19:41Z</time>
      </trkpt>
      <trkpt lat="46.1209910" lon="12.4746360">
        <ele>1547.8600000</ele>
        <time>2010-09-28T07:19:42Z</time>
      </trkpt>
      <trkpt lat="46.1209520" lon="12.4747110">
        <ele>1547.3800000</ele>
        <time>2010-09-28T07:19:48Z</time>
      </trkpt>
      <trkpt lat="46.1209410" lon="12.4747530">
        <ele>1544.9800000</ele>
        <time>2010-09-28T07:19:54Z</time>
      </trkpt>
      <trkpt lat="46.1209220" lon="12.4747990">
        <ele>1544.0100000</ele>
        <time>2010-09-28T07:19:57Z</time>
      </trkpt>
      <trkpt lat="46.1209080" lon="12.4748200">
        <ele>1543.0500000</ele>
        <time>2010-09-28T07:19:59Z</time>
      </trkpt>
      <trkpt lat="46.1208540" lon="12.4748950">
        <ele>1543.5300000</ele>
        <time>2010-09-28T07:20:06Z</time>
      </trkpt>
      <trkpt lat="46.1208330" lon="12.4749450">
        <ele>1540.1700000</ele>
        <time>2010-09-28T07:20:10Z</time>
      </trkpt>
      <trkpt lat="46.1207840" lon="12.4750260">
        <ele>1541.1300000</ele>
        <time>2010-09-28T07:20:16Z</time>
      </trkpt>
      <trkpt lat="46.1207670" lon="12.4750700">
        <ele>1541.6100000</ele>
        <time>2010-09-28T07:20:23Z</time>
      </trkpt>
      <trkpt lat="46.1207630" lon="12.4750830">
        <ele>1541.6100000</ele>
        <time>2010-09-28T07:20:36Z</time>
      </trkpt>
      <trkpt lat="46.1207520" lon="12.4750930">
        <ele>1541.1300000</ele>
        <time>2010-09-28T07:20:42Z</time>
      </trkpt>
      <trkpt lat="46.1207360" lon="12.4751190">
        <ele>1540.1700000</ele>
        <time>2010-09-28T07:20:49Z</time>
      </trkpt>
      <trkpt lat="46.1206990" lon="12.4752050">
        <ele>1539.6900000</ele>
        <time>2010-09-28T07:20:56Z</time>
      </trkpt>
      <trkpt lat="46.1206940" lon="12.4752200">
        <ele>1539.2100000</ele>
        <time>2010-09-28T07:20:57Z</time>
      </trkpt>
      <trkpt lat="46.1206370" lon="12.4753100">
        <ele>1538.7300000</ele>
        <time>2010-09-28T07:21:04Z</time>
      </trkpt>
      <trkpt lat="46.1206080" lon="12.4753750">
        <ele>1537.2900000</ele>
        <time>2010-09-28T07:21:08Z</time>
      </trkpt>
      <trkpt lat="46.1205970" lon="12.4753990">
        <ele>1537.2900000</ele>
        <time>2010-09-28T07:21:10Z</time>
      </trkpt>
      <trkpt lat="46.1205790" lon="12.4754150">
        <ele>1537.7700000</ele>
        <time>2010-09-28T07:21:12Z</time>
      </trkpt>
      <trkpt lat="46.1205680" lon="12.4754360">
        <ele>1535.8400000</ele>
        <time>2010-09-28T07:21:14Z</time>
      </trkpt>
      <trkpt lat="46.1205350" lon="12.4754700">
        <ele>1534.8800000</ele>
        <time>2010-09-28T07:21:20Z</time>
      </trkpt>
      <trkpt lat="46.1205000" lon="12.4754550">
        <ele>1536.3200000</ele>
        <time>2010-09-28T07:21:23Z</time>
      </trkpt>
      <trkpt lat="46.1204970" lon="12.4754770">
        <ele>1534.8800000</ele>
        <time>2010-09-28T07:21:25Z</time>
      </trkpt>
      <trkpt lat="46.1204960" lon="12.4754960">
        <ele>1533.9200000</ele>
        <time>2010-09-28T07:21:26Z</time>
      </trkpt>
      <trkpt lat="46.1204840" lon="12.4755450">
        <ele>1533.9200000</ele>
        <time>2010-09-28T07:21:33Z</time>
      </trkpt>
      <trkpt lat="46.1204770" lon="12.4755630">
        <ele>1533.9200000</ele>
        <time>2010-09-28T07:21:39Z</time>
      </trkpt>
      <trkpt lat="46.1204670" lon="12.4756250">
        <ele>1533.9200000</ele>
        <time>2010-09-28T07:21:59Z</time>
      </trkpt>
      <trkpt lat="46.1204510" lon="12.4757110">
        <ele>1532.9600000</ele>
        <time>2010-09-28T07:22:05Z</time>
      </trkpt>
      <trkpt lat="46.1204410" lon="12.4757710">
        <ele>1533.4400000</ele>
        <time>2010-09-28T07:22:10Z</time>
      </trkpt>
      <trkpt lat="46.1204390" lon="12.4757830">
        <ele>1530.0800000</ele>
        <time>2010-09-28T07:22:11Z</time>
      </trkpt>
      <trkpt lat="46.1204360" lon="12.4758110">
        <ele>1533.4400000</ele>
        <time>2010-09-28T07:22:13Z</time>
      </trkpt>
      <trkpt lat="46.1204310" lon="12.4758290">
        <ele>1532.9600000</ele>
        <time>2010-09-28T07:22:14Z</time>
      </trkpt>
      <trkpt lat="46.1204210" lon="12.4758880">
        <ele>1532.4800000</ele>
        <time>2010-09-28T07:22:19Z</time>
      </trkpt>
      <trkpt lat="46.1204100" lon="12.4759030">
        <ele>1531.5200000</ele>
        <time>2010-09-28T07:22:24Z</time>
      </trkpt>
      <trkpt lat="46.1203930" lon="12.4759520">
        <ele>1530.0800000</ele>
        <time>2010-09-28T07:22:32Z</time>
      </trkpt>
      <trkpt lat="46.1203860" lon="12.4759660">
        <ele>1532.0000000</ele>
        <time>2010-09-28T07:22:34Z</time>
      </trkpt>
      <trkpt lat="46.1203580" lon="12.4760700">
        <ele>1530.0800000</ele>
        <time>2010-09-28T07:22:40Z</time>
      </trkpt>
      <trkpt lat="46.1203230" lon="12.4761540">
        <ele>1528.6300000</ele>
        <time>2010-09-28T07:22:46Z</time>
      </trkpt>
      <trkpt lat="46.1203020" lon="12.4761910">
        <ele>1526.2300000</ele>
        <time>2010-09-28T07:22:49Z</time>
      </trkpt>
      <trkpt lat="46.1202900" lon="12.4762240">
        <ele>1530.0800000</ele>
        <time>2010-09-28T07:22:52Z</time>
      </trkpt>
      <trkpt lat="46.1202860" lon="12.4762710">
        <ele>1528.6300000</ele>
        <time>2010-09-28T07:22:56Z</time>
      </trkpt>
      <trkpt lat="46.1202940" lon="12.4763050">
        <ele>1527.6700000</ele>
        <time>2010-09-28T07:22:58Z</time>
      </trkpt>
      <trkpt lat="46.1202890" lon="12.4764210">
        <ele>1525.7500000</ele>
        <time>2010-09-28T07:23:04Z</time>
      </trkpt>
      <trkpt lat="46.1202900" lon="12.4764320">
        <ele>1526.2300000</ele>
        <time>2010-09-28T07:23:05Z</time>
      </trkpt>
      <trkpt lat="46.1202930" lon="12.4764450">
        <ele>1525.2700000</ele>
        <time>2010-09-28T07:23:06Z</time>
      </trkpt>
      <trkpt lat="46.1202880" lon="12.4764960">
        <ele>1524.7900000</ele>
        <time>2010-09-28T07:23:11Z</time>
      </trkpt>
      <trkpt lat="46.1202610" lon="12.4765320">
        <ele>1525.2700000</ele>
        <time>2010-09-28T07:23:17Z</time>
      </trkpt>
      <trkpt lat="46.1202310" lon="12.4765510">
        <ele>1525.2700000</ele>
        <time>2010-09-28T07:23:21Z</time>
      </trkpt>
      <trkpt lat="46.1202160" lon="12.4765780">
        <ele>1521.9000000</ele>
        <time>2010-09-28T07:23:23Z</time>
      </trkpt>
      <trkpt lat="46.1202120" lon="12.4765870">
        <ele>1524.3100000</ele>
        <time>2010-09-28T07:23:24Z</time>
      </trkpt>
      <trkpt lat="46.1201640" lon="12.4766180">
        <ele>1523.3500000</ele>
        <time>2010-09-28T07:23:29Z</time>
      </trkpt>
      <trkpt lat="46.1201410" lon="12.4766340">
        <ele>1523.3500000</ele>
        <time>2010-09-28T07:23:34Z</time>
      </trkpt>
      <trkpt lat="46.1201250" lon="12.4766770">
        <ele>1522.3900000</ele>
        <time>2010-09-28T07:23:40Z</time>
      </trkpt>
      <trkpt lat="46.1201050" lon="12.4767170">
        <ele>1523.8300000</ele>
        <time>2010-09-28T07:23:49Z</time>
      </trkpt>
      <trkpt lat="46.1200960" lon="12.4767750">
        <ele>1521.9000000</ele>
        <time>2010-09-28T07:23:54Z</time>
      </trkpt>
      <trkpt lat="46.1200950" lon="12.4768730">
        <ele>1522.8700000</ele>
        <time>2010-09-28T07:24:00Z</time>
      </trkpt>
      <trkpt lat="46.1200850" lon="12.4769280">
        <ele>1523.3500000</ele>
        <time>2010-09-28T07:24:05Z</time>
      </trkpt>
      <trkpt lat="46.1200810" lon="12.4769680">
        <ele>1522.3900000</ele>
        <time>2010-09-28T07:24:08Z</time>
      </trkpt>
      <trkpt lat="46.1200680" lon="12.4770220">
        <ele>1523.3500000</ele>
        <time>2010-09-28T07:24:14Z</time>
      </trkpt>
      <trkpt lat="46.1200620" lon="12.4770820">
        <ele>1523.8300000</ele>
        <time>2010-09-28T07:24:19Z</time>
      </trkpt>
      <trkpt lat="46.1200550" lon="12.4771550">
        <ele>1524.3100000</ele>
        <time>2010-09-28T07:24:25Z</time>
      </trkpt>
      <trkpt lat="46.1200360" lon="12.4771940">
        <ele>1522.8700000</ele>
        <time>2010-09-28T07:24:28Z</time>
      </trkpt>
      <trkpt lat="46.1200130" lon="12.4772240">
        <ele>1523.8300000</ele>
        <time>2010-09-28T07:24:33Z</time>
      </trkpt>
      <trkpt lat="46.1199780" lon="12.4773120">
        <ele>1523.8300000</ele>
        <time>2010-09-28T07:24:39Z</time>
      </trkpt>
      <trkpt lat="46.1199640" lon="12.4773400">
        <ele>1521.9000000</ele>
        <time>2010-09-28T07:24:41Z</time>
      </trkpt>
      <trkpt lat="46.1199180" lon="12.4774080">
        <ele>1522.8700000</ele>
        <time>2010-09-28T07:24:47Z</time>
      </trkpt>
      <trkpt lat="46.1198610" lon="12.4774590">
        <ele>1523.8300000</ele>
        <time>2010-09-28T07:24:53Z</time>
      </trkpt>
      <trkpt lat="46.1198280" lon="12.4774940">
        <ele>1523.8300000</ele>
        <time>2010-09-28T07:24:58Z</time>
      </trkpt>
      <trkpt lat="46.1198020" lon="12.4775140">
        <ele>1524.3100000</ele>
        <time>2010-09-28T07:25:02Z</time>
      </trkpt>
      <trkpt lat="46.1197930" lon="12.4775420">
        <ele>1525.2700000</ele>
        <time>2010-09-28T07:25:10Z</time>
      </trkpt>
      <trkpt lat="46.1198070" lon="12.4775630">
        <ele>1525.2700000</ele>
        <time>2010-09-28T07:25:16Z</time>
      </trkpt>
      <trkpt lat="46.1198120" lon="12.4776320">
        <ele>1525.7500000</ele>
        <time>2010-09-28T07:25:21Z</time>
      </trkpt>
      <trkpt lat="46.1197890" lon="12.4776350">
        <ele>1523.3500000</ele>
        <time>2010-09-28T07:25:24Z</time>
      </trkpt>
      <trkpt lat="46.1197800" lon="12.4776330">
        <ele>1523.8300000</ele>
        <time>2010-09-28T07:25:25Z</time>
      </trkpt>
      <trkpt lat="46.1197720" lon="12.4776360">
        <ele>1527.1900000</ele>
        <time>2010-09-28T07:25:26Z</time>
      </trkpt>
      <trkpt lat="46.1197610" lon="12.4776360">
        <ele>1527.1900000</ele>
        <time>2010-09-28T07:25:27Z</time>
      </trkpt>
      <trkpt lat="46.1197160" lon="12.4776380">
        <ele>1524.3100000</ele>
        <time>2010-09-28T07:25:32Z</time>
      </trkpt>
      <trkpt lat="46.1197010" lon="12.4775310">
        <ele>1524.7900000</ele>
        <time>2010-09-28T07:25:39Z</time>
      </trkpt>
      <trkpt lat="46.1196970" lon="12.4775220">
        <ele>1523.8300000</ele>
        <time>2010-09-28T07:25:44Z</time>
      </trkpt>
      <trkpt lat="46.1196970" lon="12.4775220">
        <ele>1524.3100000</ele>
        <time>2010-09-28T07:25:57Z</time>
      </trkpt>
      <trkpt lat="46.1196950" lon="12.4775600">
        <ele>1524.7900000</ele>
        <time>2010-09-28T07:26:01Z</time>
      </trkpt>
      <trkpt lat="46.1197140" lon="12.4775810">
        <ele>1524.3100000</ele>
        <time>2010-09-28T07:26:08Z</time>
      </trkpt>
      <trkpt lat="46.1197030" lon="12.4775820">
        <ele>1524.3100000</ele>
        <time>2010-09-28T07:26:11Z</time>
      </trkpt>
      <trkpt lat="46.1196620" lon="12.4776300">
        <ele>1522.8700000</ele>
        <time>2010-09-28T07:26:16Z</time>
      </trkpt>
      <trkpt lat="46.1196030" lon="12.4776710">
        <ele>1522.8700000</ele>
        <time>2010-09-28T07:26:21Z</time>
      </trkpt>
      <trkpt lat="46.1195650" lon="12.4777050">
        <ele>1521.4200000</ele>
        <time>2010-09-28T07:26:26Z</time>
      </trkpt>
      <trkpt lat="46.1195070" lon="12.4777360">
        <ele>1521.9000000</ele>
        <time>2010-09-28T07:26:32Z</time>
      </trkpt>
      <trkpt lat="46.1195070" lon="12.4777420">
        <ele>1522.3900000</ele>
        <time>2010-09-28T07:26:36Z</time>
      </trkpt>
      <trkpt lat="46.1195550" lon="12.4777280">
        <ele>1521.4200000</ele>
        <time>2010-09-28T07:26:43Z</time>
      </trkpt>
      <trkpt lat="46.1195640" lon="12.4777310">
        <ele>1521.9000000</ele>
        <time>2010-09-28T07:26:44Z</time>
      </trkpt>
      <trkpt lat="46.1196160" lon="12.4777230">
        <ele>1523.3500000</ele>
        <time>2010-09-28T07:26:49Z</time>
      </trkpt>
      <trkpt lat="46.1196770" lon="12.4776620">
        <ele>1523.8300000</ele>
        <time>2010-09-28T07:26:55Z</time>
      </trkpt>
      <trkpt lat="46.1196910" lon="12.4776330">
        <ele>1524.3100000</ele>
        <time>2010-09-28T07:26:58Z</time>
      </trkpt>
      <trkpt lat="46.1197480" lon="12.4775650">
        <ele>1524.3100000</ele>
        <time>2010-09-28T07:27:05Z</time>
      </trkpt>
      <trkpt lat="46.1197430" lon="12.4775450">
        <ele>1523.8300000</ele>
        <time>2010-09-28T07:28:49Z</time>
      </trkpt>
      <trkpt lat="46.1197450" lon="12.4775520">
        <ele>1523.8300000</ele>
        <time>2010-09-28T07:28:58Z</time>
      </trkpt>
      <trkpt lat="46.1197440" lon="12.4775550">
        <ele>1523.8300000</ele>
        <time>2010-09-28T07:29:07Z</time>
      </trkpt>
      <trkpt lat="46.1197270" lon="12.4775570">
        <ele>1524.3100000</ele>
        <time>2010-09-28T07:29:12Z</time>
      </trkpt>
      <trkpt lat="46.1197070" lon="12.4775850">
        <ele>1523.8300000</ele>
        <time>2010-09-28T07:29:18Z</time>
      </trkpt>
      <trkpt lat="46.1197370" lon="12.4775860">
        <ele>1524.3100000</ele>
        <time>2010-09-28T07:29:38Z</time>
      </trkpt>
      <trkpt lat="46.1197570" lon="12.4775860">
        <ele>1523.8300000</ele>
        <time>2010-09-28T07:29:48Z</time>
      </trkpt>
      <trkpt lat="46.1197590" lon="12.4775950">
        <ele>1524.3100000</ele>
        <time>2010-09-28T07:30:02Z</time>
      </trkpt>
      <trkpt lat="46.1197580" lon="12.4776000">
        <ele>1523.8300000</ele>
        <time>2010-09-28T07:30:19Z</time>
      </trkpt>
      <trkpt lat="46.1197600" lon="12.4776030">
        <ele>1524.3100000</ele>
        <time>2010-09-28T07:30:55Z</time>
      </trkpt>
      <trkpt lat="46.1197580" lon="12.4775960">
        <ele>1523.8300000</ele>
        <time>2010-09-28T07:31:58Z</time>
      </trkpt>
      <trkpt lat="46.1197550" lon="12.4775990">
        <ele>1523.3500000</ele>
        <time>2010-09-28T07:32:13Z</time>
      </trkpt>
      <trkpt lat="46.1197530" lon="12.4775870">
        <ele>1523.3500000</ele>
        <time>2010-09-28T07:33:24Z</time>
      </trkpt>
      <trkpt lat="46.1197580" lon="12.4775880">
        <ele>1523.3500000</ele>
        <time>2010-09-28T07:35:18Z</time>
      </trkpt>
      <trkpt lat="46.1197550" lon="12.4775770">
        <ele>1521.9000000</ele>
        <time>2010-09-28T07:35:38Z</time>
      </trkpt>
      <trkpt lat="46.1197680" lon="12.4775720">
        <ele>1523.3500000</ele>
        <time>2010-09-28T07:36:06Z</time>
      </trkpt>
      <trkpt lat="46.1198310" lon="12.4775390">
        <ele>1523.3500000</ele>
        <time>2010-09-28T07:36:10Z</time>
      </trkpt>
      <trkpt lat="46.1198620" lon="12.4775040">
        <ele>1518.5400000</ele>
        <time>2010-09-28T07:36:13Z</time>
      </trkpt>
      <trkpt lat="46.1198670" lon="12.4774970">
        <ele>1518.5400000</ele>
        <time>2010-09-28T07:36:14Z</time>
      </trkpt>
      <trkpt lat="46.1198830" lon="12.4774770">
        <ele>1519.9800000</ele>
        <time>2010-09-28T07:36:16Z</time>
      </trkpt>
      <trkpt lat="46.1199530" lon="12.4773990">
        <ele>1518.0600000</ele>
        <time>2010-09-28T07:36:22Z</time>
      </trkpt>
      <trkpt lat="46.1199660" lon="12.4773790">
        <ele>1520.9400000</ele>
        <time>2010-09-28T07:36:24Z</time>
      </trkpt>
      <trkpt lat="46.1200110" lon="12.4772680">
        <ele>1521.9000000</ele>
        <time>2010-09-28T07:36:32Z</time>
      </trkpt>
      <trkpt lat="46.1200430" lon="12.4771990">
        <ele>1520.9400000</ele>
        <time>2010-09-28T07:36:37Z</time>
      </trkpt>
      <trkpt lat="46.1200690" lon="12.4770860">
        <ele>1520.9400000</ele>
        <time>2010-09-28T07:36:45Z</time>
      </trkpt>
      <trkpt lat="46.1200670" lon="12.4770730">
        <ele>1521.4200000</ele>
        <time>2010-09-28T07:36:47Z</time>
      </trkpt>
      <trkpt lat="46.1200430" lon="12.4770540">
        <ele>1521.9000000</ele>
        <time>2010-09-28T07:36:51Z</time>
      </trkpt>
      <trkpt lat="46.1200250" lon="12.4770310">
        <ele>1520.4600000</ele>
        <time>2010-09-28T07:36:53Z</time>
      </trkpt>
      <trkpt lat="46.1199920" lon="12.4770080">
        <ele>1521.9000000</ele>
        <time>2010-09-28T07:36:56Z</time>
      </trkpt>
      <trkpt lat="46.1199250" lon="12.4770160">
        <ele>1519.9800000</ele>
        <time>2010-09-28T07:37:03Z</time>
      </trkpt>
      <trkpt lat="46.1199120" lon="12.4770170">
        <ele>1519.9800000</ele>
        <time>2010-09-28T07:37:04Z</time>
      </trkpt>
      <trkpt lat="46.1198520" lon="12.4770060">
        <ele>1519.9800000</ele>
        <time>2010-09-28T07:37:09Z</time>
      </trkpt>
      <trkpt lat="46.1198440" lon="12.4769510">
        <ele>1518.5400000</ele>
        <time>2010-09-28T07:37:16Z</time>
      </trkpt>
      <trkpt lat="46.1198860" lon="12.4768760">
        <ele>1516.1400000</ele>
        <time>2010-09-28T07:37:22Z</time>
      </trkpt>
      <trkpt lat="46.1198780" lon="12.4768220">
        <ele>1515.6600000</ele>
        <time>2010-09-28T07:37:28Z</time>
      </trkpt>
      <trkpt lat="46.1198510" lon="12.4767690">
        <ele>1513.2500000</ele>
        <time>2010-09-28T07:37:34Z</time>
      </trkpt>
      <trkpt lat="46.1198090" lon="12.4767390">
        <ele>1511.8100000</ele>
        <time>2010-09-28T07:37:39Z</time>
      </trkpt>
      <trkpt lat="46.1197940" lon="12.4767230">
        <ele>1511.3300000</ele>
        <time>2010-09-28T07:37:46Z</time>
      </trkpt>
      <trkpt lat="46.1197740" lon="12.4766700">
        <ele>1508.4500000</ele>
        <time>2010-09-28T07:37:54Z</time>
      </trkpt>
      <trkpt lat="46.1197740" lon="12.4766570">
        <ele>1508.4500000</ele>
        <time>2010-09-28T07:37:55Z</time>
      </trkpt>
      <trkpt lat="46.1197750" lon="12.4766440">
        <ele>1509.4100000</ele>
        <time>2010-09-28T07:37:56Z</time>
      </trkpt>
      <trkpt lat="46.1197690" lon="12.4765500">
        <ele>1507.0000000</ele>
        <time>2010-09-28T07:38:03Z</time>
      </trkpt>
      <trkpt lat="46.1197650" lon="12.4764910">
        <ele>1503.6400000</ele>
        <time>2010-09-28T07:38:09Z</time>
      </trkpt>
      <trkpt lat="46.1197620" lon="12.4764850">
        <ele>1504.1200000</ele>
        <time>2010-09-28T07:38:10Z</time>
      </trkpt>
      <trkpt lat="46.1197620" lon="12.4764420">
        <ele>1502.6800000</ele>
        <time>2010-09-28T07:38:17Z</time>
      </trkpt>
      <trkpt lat="46.1197610" lon="12.4764350">
        <ele>1503.1600000</ele>
        <time>2010-09-28T07:38:36Z</time>
      </trkpt>
      <trkpt lat="46.1197630" lon="12.4763980">
        <ele>1499.7900000</ele>
        <time>2010-09-28T07:38:39Z</time>
      </trkpt>
      <trkpt lat="46.1197630" lon="12.4763480">
        <ele>1501.7200000</ele>
        <time>2010-09-28T07:38:43Z</time>
      </trkpt>
      <trkpt lat="46.1197660" lon="12.4763300">
        <ele>1500.2700000</ele>
        <time>2010-09-28T07:38:45Z</time>
      </trkpt>
      <trkpt lat="46.1197470" lon="12.4762630">
        <ele>1498.8300000</ele>
        <time>2010-09-28T07:38:52Z</time>
      </trkpt>
      <trkpt lat="46.1197360" lon="12.4762070">
        <ele>1496.9100000</ele>
        <time>2010-09-28T07:38:57Z</time>
      </trkpt>
      <trkpt lat="46.1197220" lon="12.4761270">
        <ele>1495.4700000</ele>
        <time>2010-09-28T07:39:03Z</time>
      </trkpt>
      <trkpt lat="46.1197050" lon="12.4761050">
        <ele>1494.5100000</ele>
        <time>2010-09-28T07:39:05Z</time>
      </trkpt>
      <trkpt lat="46.1196970" lon="12.4760880">
        <ele>1494.5100000</ele>
        <time>2010-09-28T07:39:07Z</time>
      </trkpt>
      <trkpt lat="46.1196970" lon="12.4759950">
        <ele>1494.0300000</ele>
        <time>2010-09-28T07:39:14Z</time>
      </trkpt>
      <trkpt lat="46.1196950" lon="12.4759880">
        <ele>1494.0300000</ele>
        <time>2010-09-28T07:39:15Z</time>
      </trkpt>
      <trkpt lat="46.1196870" lon="12.4759710">
        <ele>1490.6600000</ele>
        <time>2010-09-28T07:39:17Z</time>
      </trkpt>
      <trkpt lat="46.1196750" lon="12.4759390">
        <ele>1491.6200000</ele>
        <time>2010-09-28T07:39:24Z</time>
      </trkpt>
      <trkpt lat="46.1196480" lon="12.4758750">
        <ele>1491.1400000</ele>
        <time>2010-09-28T07:39:28Z</time>
      </trkpt>
      <trkpt lat="46.1196420" lon="12.4758590">
        <ele>1490.6600000</ele>
        <time>2010-09-28T07:39:30Z</time>
      </trkpt>
      <trkpt lat="46.1196120" lon="12.4758270">
        <ele>1491.6200000</ele>
        <time>2010-09-28T07:39:35Z</time>
      </trkpt>
      <trkpt lat="46.1195950" lon="12.4757820">
        <ele>1490.1800000</ele>
        <time>2010-09-28T07:39:40Z</time>
      </trkpt>
      <trkpt lat="46.1195510" lon="12.4757580">
        <ele>1489.2200000</ele>
        <time>2010-09-28T07:39:45Z</time>
      </trkpt>
      <trkpt lat="46.1195080" lon="12.4757250">
        <ele>1486.8200000</ele>
        <time>2010-09-28T07:39:50Z</time>
      </trkpt>
      <trkpt lat="46.1194960" lon="12.4756920">
        <ele>1485.8500000</ele>
        <time>2010-09-28T07:39:53Z</time>
      </trkpt>
      <trkpt lat="46.1194880" lon="12.4756200">
        <ele>1486.3400000</ele>
        <time>2010-09-28T07:39:59Z</time>
      </trkpt>
      <trkpt lat="46.1194900" lon="12.4755550">
        <ele>1485.3700000</ele>
        <time>2010-09-28T07:40:03Z</time>
      </trkpt>
      <trkpt lat="46.1194980" lon="12.4755280">
        <ele>1484.4100000</ele>
        <time>2010-09-28T07:40:05Z</time>
      </trkpt>
      <trkpt lat="46.1195070" lon="12.4754670">
        <ele>1482.9700000</ele>
        <time>2010-09-28T07:40:09Z</time>
      </trkpt>
      <trkpt lat="46.1195190" lon="12.4753960">
        <ele>1483.4500000</ele>
        <time>2010-09-28T07:40:14Z</time>
      </trkpt>
      <trkpt lat="46.1195220" lon="12.4753500">
        <ele>1479.6100000</ele>
        <time>2010-09-28T07:40:18Z</time>
      </trkpt>
      <trkpt lat="46.1195300" lon="12.4753230">
        <ele>1481.0500000</ele>
        <time>2010-09-28T07:40:22Z</time>
      </trkpt>
      <trkpt lat="46.1195610" lon="12.4752120">
        <ele>1480.5700000</ele>
        <time>2010-09-28T07:40:30Z</time>
      </trkpt>
      <trkpt lat="46.1195610" lon="12.4751730">
        <ele>1481.5300000</ele>
        <time>2010-09-28T07:40:33Z</time>
      </trkpt>
      <trkpt lat="46.1195450" lon="12.4751490">
        <ele>1480.5700000</ele>
        <time>2010-09-28T07:40:37Z</time>
      </trkpt>
      <trkpt lat="46.1195260" lon="12.4751080">
        <ele>1477.2000000</ele>
        <time>2010-09-28T07:40:46Z</time>
      </trkpt>
      <trkpt lat="46.1195090" lon="12.4750560">
        <ele>1475.7600000</ele>
        <time>2010-09-28T07:40:49Z</time>
      </trkpt>
      <trkpt lat="46.1194450" lon="12.4750210">
        <ele>1476.2400000</ele>
        <time>2010-09-28T07:40:56Z</time>
      </trkpt>
      <trkpt lat="46.1194120" lon="12.4750000">
        <ele>1475.2800000</ele>
        <time>2010-09-28T07:41:00Z</time>
      </trkpt>
      <trkpt lat="46.1193780" lon="12.4749230">
        <ele>1473.8400000</ele>
        <time>2010-09-28T07:41:08Z</time>
      </trkpt>
      <trkpt lat="46.1193650" lon="12.4748990">
        <ele>1475.2800000</ele>
        <time>2010-09-28T07:41:10Z</time>
      </trkpt>
      <trkpt lat="46.1193490" lon="12.4748650">
        <ele>1473.8400000</ele>
        <time>2010-09-28T07:41:13Z</time>
      </trkpt>
      <trkpt lat="46.1193220" lon="12.4747620">
        <ele>1470.9500000</ele>
        <time>2010-09-28T07:41:26Z</time>
      </trkpt>
      <trkpt lat="46.1193240" lon="12.4747200">
        <ele>1471.4400000</ele>
        <time>2010-09-28T07:41:31Z</time>
      </trkpt>
      <trkpt lat="46.1192890" lon="12.4746810">
        <ele>1467.1100000</ele>
        <time>2010-09-28T07:41:37Z</time>
      </trkpt>
      <trkpt lat="46.1192440" lon="12.4746070">
        <ele>1467.1100000</ele>
        <time>2010-09-28T07:41:46Z</time>
      </trkpt>
      <trkpt lat="46.1192020" lon="12.4745630">
        <ele>1464.2300000</ele>
        <time>2010-09-28T07:41:59Z</time>
      </trkpt>
      <trkpt lat="46.1191340" lon="12.4745530">
        <ele>1462.7800000</ele>
        <time>2010-09-28T07:42:11Z</time>
      </trkpt>
      <trkpt lat="46.1190950" lon="12.4744920">
        <ele>1461.3400000</ele>
        <time>2010-09-28T07:42:18Z</time>
      </trkpt>
      <trkpt lat="46.1190760" lon="12.4744250">
        <ele>1460.8600000</ele>
        <time>2010-09-28T07:42:24Z</time>
      </trkpt>
      <trkpt lat="46.1190710" lon="12.4744010">
        <ele>1457.5000000</ele>
        <time>2010-09-28T07:42:27Z</time>
      </trkpt>
      <trkpt lat="46.1190650" lon="12.4743750">
        <ele>1457.9800000</ele>
        <time>2010-09-28T07:42:31Z</time>
      </trkpt>
      <trkpt lat="46.1190500" lon="12.4743530">
        <ele>1457.5000000</ele>
        <time>2010-09-28T07:42:37Z</time>
      </trkpt>
      <trkpt lat="46.1189840" lon="12.4743020">
        <ele>1452.6900000</ele>
        <time>2010-09-28T07:42:48Z</time>
      </trkpt>
      <trkpt lat="46.1189780" lon="12.4742940">
        <ele>1453.1700000</ele>
        <time>2010-09-28T07:42:49Z</time>
      </trkpt>
      <trkpt lat="46.1189550" lon="12.4742310">
        <ele>1449.8100000</ele>
        <time>2010-09-28T07:43:03Z</time>
      </trkpt>
      <trkpt lat="46.1189500" lon="12.4742190">
        <ele>1450.2900000</ele>
        <time>2010-09-28T07:43:04Z</time>
      </trkpt>
      <trkpt lat="46.1189180" lon="12.4741460">
        <ele>1452.2100000</ele>
        <time>2010-09-28T07:43:09Z</time>
      </trkpt>
      <trkpt lat="46.1188740" lon="12.4740420">
        <ele>1450.7700000</ele>
        <time>2010-09-28T07:43:16Z</time>
      </trkpt>
      <trkpt lat="46.1188230" lon="12.4739530">
        <ele>1447.8800000</ele>
        <time>2010-09-28T07:43:24Z</time>
      </trkpt>
      <trkpt lat="46.1187060" lon="12.4738080">
        <ele>1449.3200000</ele>
        <time>2010-09-28T07:43:37Z</time>
      </trkpt>
      <trkpt lat="46.1186740" lon="12.4737600">
        <ele>1447.4000000</ele>
        <time>2010-09-28T07:43:43Z</time>
      </trkpt>
      <trkpt lat="46.1186070" lon="12.4736890">
        <ele>1450.7700000</ele>
        <time>2010-09-28T07:43:51Z</time>
      </trkpt>
      <trkpt lat="46.1185130" lon="12.4736040">
        <ele>1448.8400000</ele>
        <time>2010-09-28T07:43:59Z</time>
      </trkpt>
      <trkpt lat="46.1184650" lon="12.4735930">
        <ele>1448.8400000</ele>
        <time>2010-09-28T07:44:01Z</time>
      </trkpt>
      <trkpt lat="46.1182790" lon="12.4735220">
        <ele>1447.4000000</ele>
        <time>2010-09-28T07:44:09Z</time>
      </trkpt>
      <trkpt lat="46.1182650" lon="12.4735060">
        <ele>1448.8400000</ele>
        <time>2010-09-28T07:44:11Z</time>
      </trkpt>
      <trkpt lat="46.1181690" lon="12.4734300">
        <ele>1445.4800000</ele>
        <time>2010-09-28T07:44:17Z</time>
      </trkpt>
      <trkpt lat="46.1180720" lon="12.4733890">
        <ele>1445.0000000</ele>
        <time>2010-09-28T07:44:25Z</time>
      </trkpt>
      <trkpt lat="46.1180540" lon="12.4733890">
        <ele>1448.3600000</ele>
        <time>2010-09-28T07:44:26Z</time>
      </trkpt>
      <trkpt lat="46.1180190" lon="12.4733640">
        <ele>1445.4800000</ele>
        <time>2010-09-28T07:44:29Z</time>
      </trkpt>
      <trkpt lat="46.1179510" lon="12.4733060">
        <ele>1446.4400000</ele>
        <time>2010-09-28T07:44:38Z</time>
      </trkpt>
      <trkpt lat="46.1179360" lon="12.4732910">
        <ele>1445.0000000</ele>
        <time>2010-09-28T07:44:41Z</time>
      </trkpt>
      <trkpt lat="46.1179050" lon="12.4732180">
        <ele>1443.5600000</ele>
        <time>2010-09-28T07:44:51Z</time>
      </trkpt>
      <trkpt lat="46.1178970" lon="12.4731800">
        <ele>1445.0000000</ele>
        <time>2010-09-28T07:44:55Z</time>
      </trkpt>
      <trkpt lat="46.1178450" lon="12.4730410">
        <ele>1442.6000000</ele>
        <time>2010-09-28T07:45:01Z</time>
      </trkpt>
      <trkpt lat="46.1178110" lon="12.4729910">
        <ele>1441.6300000</ele>
        <time>2010-09-28T07:45:07Z</time>
      </trkpt>
      <trkpt lat="46.1177770" lon="12.4729570">
        <ele>1444.5200000</ele>
        <time>2010-09-28T07:45:16Z</time>
      </trkpt>
      <trkpt lat="46.1175880" lon="12.4728220">
        <ele>1443.0800000</ele>
        <time>2010-09-28T07:45:33Z</time>
      </trkpt>
      <trkpt lat="46.1175860" lon="12.4728090">
        <ele>1443.5600000</ele>
        <time>2010-09-28T07:45:34Z</time>
      </trkpt>
      <trkpt lat="46.1175780" lon="12.4727000">
        <ele>1445.0000000</ele>
        <time>2010-09-28T07:45:41Z</time>
      </trkpt>
      <trkpt lat="46.1175570" lon="12.4726120">
        <ele>1445.4800000</ele>
        <time>2010-09-28T07:45:48Z</time>
      </trkpt>
      <trkpt lat="46.1175480" lon="12.4725140">
        <ele>1444.0400000</ele>
        <time>2010-09-28T07:45:52Z</time>
      </trkpt>
      <trkpt lat="46.1175540" lon="12.4724560">
        <ele>1444.5200000</ele>
        <time>2010-09-28T07:45:57Z</time>
      </trkpt>
      <trkpt lat="46.1175390" lon="12.4724390">
        <ele>1445.4800000</ele>
        <time>2010-09-28T07:46:00Z</time>
      </trkpt>
      <trkpt lat="46.1174920" lon="12.4723680">
        <ele>1445.9600000</ele>
        <time>2010-09-28T07:46:09Z</time>
      </trkpt>
      <trkpt lat="46.1174770" lon="12.4722780">
        <ele>1445.9600000</ele>
        <time>2010-09-28T07:46:21Z</time>
      </trkpt>
      <trkpt lat="46.1172470" lon="12.4721490">
        <ele>1447.4000000</ele>
        <time>2010-09-28T07:46:44Z</time>
      </trkpt>
      <trkpt lat="46.1171210" lon="12.4720300">
        <ele>1450.2900000</ele>
        <time>2010-09-28T07:47:08Z</time>
      </trkpt>
      <trkpt lat="46.1169900" lon="12.4718530">
        <ele>1452.2100000</ele>
        <time>2010-09-28T07:47:25Z</time>
      </trkpt>
      <trkpt lat="46.1168870" lon="12.4717570">
        <ele>1451.2500000</ele>
        <time>2010-09-28T07:47:34Z</time>
      </trkpt>
      <trkpt lat="46.1168370" lon="12.4716940">
        <ele>1449.3200000</ele>
        <time>2010-09-28T07:47:40Z</time>
      </trkpt>
      <trkpt lat="46.1167770" lon="12.4716730">
        <ele>1447.4000000</ele>
        <time>2010-09-28T07:47:44Z</time>
      </trkpt>
      <trkpt lat="46.1167060" lon="12.4716520">
        <ele>1450.2900000</ele>
        <time>2010-09-28T07:47:48Z</time>
      </trkpt>
      <trkpt lat="46.1166320" lon="12.4715940">
        <ele>1451.2500000</ele>
        <time>2010-09-28T07:47:55Z</time>
      </trkpt>
      <trkpt lat="46.1165460" lon="12.4714880">
        <ele>1450.2900000</ele>
        <time>2010-09-28T07:48:02Z</time>
      </trkpt>
      <trkpt lat="46.1164660" lon="12.4713500">
        <ele>1447.8800000</ele>
        <time>2010-09-28T07:48:10Z</time>
      </trkpt>
      <trkpt lat="46.1164240" lon="12.4712720">
        <ele>1448.8400000</ele>
        <time>2010-09-28T07:48:18Z</time>
      </trkpt>
      <trkpt lat="46.1163800" lon="12.4711380">
        <ele>1450.7700000</ele>
        <time>2010-09-28T07:48:28Z</time>
      </trkpt>
      <trkpt lat="46.1163380" lon="12.4710270">
        <ele>1450.7700000</ele>
        <time>2010-09-28T07:48:36Z</time>
      </trkpt>
      <trkpt lat="46.1162480" lon="12.4708940">
        <ele>1449.8100000</ele>
        <time>2010-09-28T07:48:44Z</time>
      </trkpt>
      <trkpt lat="46.1161910" lon="12.4708210">
        <ele>1446.9200000</ele>
        <time>2010-09-28T07:48:50Z</time>
      </trkpt>
      <trkpt lat="46.1161530" lon="12.4707340">
        <ele>1445.9600000</ele>
        <time>2010-09-28T07:48:57Z</time>
      </trkpt>
      <trkpt lat="46.1161360" lon="12.4706740">
        <ele>1446.4400000</ele>
        <time>2010-09-28T07:49:02Z</time>
      </trkpt>
      <trkpt lat="46.1161260" lon="12.4705950">
        <ele>1446.9200000</ele>
        <time>2010-09-28T07:49:09Z</time>
      </trkpt>
      <trkpt lat="46.1161090" lon="12.4705290">
        <ele>1443.5600000</ele>
        <time>2010-09-28T07:49:15Z</time>
      </trkpt>
      <trkpt lat="46.1161040" lon="12.4705100">
        <ele>1441.1500000</ele>
        <time>2010-09-28T07:49:17Z</time>
      </trkpt>
      <trkpt lat="46.1160950" lon="12.4704760">
        <ele>1444.0400000</ele>
        <time>2010-09-28T07:49:20Z</time>
      </trkpt>
      <trkpt lat="46.1160900" lon="12.4704610">
        <ele>1443.5600000</ele>
        <time>2010-09-28T07:49:21Z</time>
      </trkpt>
      <trkpt lat="46.1160520" lon="12.4703640">
        <ele>1442.6000000</ele>
        <time>2010-09-28T07:49:28Z</time>
      </trkpt>
      <trkpt lat="46.1159320" lon="12.4701390">
        <ele>1443.5600000</ele>
        <time>2010-09-28T07:50:02Z</time>
      </trkpt>
      <trkpt lat="46.1157720" lon="12.4698920">
        <ele>1444.0400000</ele>
        <time>2010-09-28T07:50:12Z</time>
      </trkpt>
      <trkpt lat="46.1157390" lon="12.4697780">
        <ele>1444.0400000</ele>
        <time>2010-09-28T07:50:18Z</time>
      </trkpt>
      <trkpt lat="46.1157230" lon="12.4697430">
        <ele>1444.0400000</ele>
        <time>2010-09-28T07:50:23Z</time>
      </trkpt>
      <trkpt lat="46.1157230" lon="12.4697430">
        <ele>1444.5200000</ele>
        <time>2010-09-28T07:50:33Z</time>
      </trkpt>
      <trkpt lat="46.1157140" lon="12.4697170">
        <ele>1444.5200000</ele>
        <time>2010-09-28T07:50:35Z</time>
      </trkpt>
      <trkpt lat="46.1157010" lon="12.4695770">
        <ele>1444.0400000</ele>
        <time>2010-09-28T07:50:41Z</time>
      </trkpt>
      <trkpt lat="46.1156760" lon="12.4695230">
        <ele>1442.6000000</ele>
        <time>2010-09-28T07:50:45Z</time>
      </trkpt>
      <trkpt lat="46.1156460" lon="12.4694580">
        <ele>1444.0400000</ele>
        <time>2010-09-28T07:50:52Z</time>
      </trkpt>
      <trkpt lat="46.1156310" lon="12.4694160">
        <ele>1445.0000000</ele>
        <time>2010-09-28T07:50:59Z</time>
      </trkpt>
      <trkpt lat="46.1155640" lon="12.4693820">
        <ele>1444.5200000</ele>
        <time>2010-09-28T07:51:06Z</time>
      </trkpt>
      <trkpt lat="46.1155640" lon="12.4693820">
        <ele>1444.5200000</ele>
        <time>2010-09-28T07:51:07Z</time>
      </trkpt>
      <trkpt lat="46.1155200" lon="12.4692360">
        <ele>1444.0400000</ele>
        <time>2010-09-28T07:51:11Z</time>
      </trkpt>
      <trkpt lat="46.1155090" lon="12.4691970">
        <ele>1445.0000000</ele>
        <time>2010-09-28T07:51:13Z</time>
      </trkpt>
      <trkpt lat="46.1154840" lon="12.4690770">
        <ele>1444.5200000</ele>
        <time>2010-09-28T07:51:18Z</time>
      </trkpt>
      <trkpt lat="46.1154730" lon="12.4690240">
        <ele>1445.0000000</ele>
        <time>2010-09-28T07:51:34Z</time>
      </trkpt>
      <trkpt lat="46.1154440" lon="12.4689100">
        <ele>1444.5200000</ele>
        <time>2010-09-28T07:51:41Z</time>
      </trkpt>
      <trkpt lat="46.1154420" lon="12.4688860">
        <ele>1441.1500000</ele>
        <time>2010-09-28T07:51:43Z</time>
      </trkpt>
      <trkpt lat="46.1154390" lon="12.4688740">
        <ele>1441.1500000</ele>
        <time>2010-09-28T07:51:44Z</time>
      </trkpt>
      <trkpt lat="46.1154400" lon="12.4687530">
        <ele>1437.3100000</ele>
        <time>2010-09-28T07:51:51Z</time>
      </trkpt>
      <trkpt lat="46.1154420" lon="12.4687320">
        <ele>1438.7500000</ele>
        <time>2010-09-28T07:51:52Z</time>
      </trkpt>
      <trkpt lat="46.1154560" lon="12.4686850">
        <ele>1438.2700000</ele>
        <time>2010-09-28T07:51:54Z</time>
      </trkpt>
      <trkpt lat="46.1154560" lon="12.4685550">
        <ele>1436.8300000</ele>
        <time>2010-09-28T07:52:00Z</time>
      </trkpt>
      <trkpt lat="46.1154380" lon="12.4683750">
        <ele>1437.7900000</ele>
        <time>2010-09-28T07:52:06Z</time>
      </trkpt>
      <trkpt lat="46.1154440" lon="12.4683040">
        <ele>1440.1900000</ele>
        <time>2010-09-28T07:52:09Z</time>
      </trkpt>
      <trkpt lat="46.1154280" lon="12.4681530">
        <ele>1438.7500000</ele>
        <time>2010-09-28T07:52:17Z</time>
      </trkpt>
      <trkpt lat="46.1154300" lon="12.4681380">
        <ele>1438.2700000</ele>
        <time>2010-09-28T07:52:18Z</time>
      </trkpt>
      <trkpt lat="46.1154300" lon="12.4680750">
        <ele>1435.8700000</ele>
        <time>2010-09-28T07:52:26Z</time>
      </trkpt>
      <trkpt lat="46.1154250" lon="12.4680030">
        <ele>1431.0600000</ele>
        <time>2010-09-28T07:52:32Z</time>
      </trkpt>
      <trkpt lat="46.1154220" lon="12.4679870">
        <ele>1431.0600000</ele>
        <time>2010-09-28T07:52:33Z</time>
      </trkpt>
      <trkpt lat="46.1153860" lon="12.4678670">
        <ele>1432.0200000</ele>
        <time>2010-09-28T07:52:39Z</time>
      </trkpt>
      <trkpt lat="46.1153740" lon="12.4678240">
        <ele>1433.4600000</ele>
        <time>2010-09-28T07:52:41Z</time>
      </trkpt>
      <trkpt lat="46.1153440" lon="12.4676970">
        <ele>1432.9800000</ele>
        <time>2010-09-28T07:52:48Z</time>
      </trkpt>
      <trkpt lat="46.1153330" lon="12.4675980">
        <ele>1431.5400000</ele>
        <time>2010-09-28T07:52:54Z</time>
      </trkpt>
      <trkpt lat="46.1153220" lon="12.4674630">
        <ele>1431.0600000</ele>
        <time>2010-09-28T07:53:01Z</time>
      </trkpt>
      <trkpt lat="46.1153010" lon="12.4673880">
        <ele>1430.1000000</ele>
        <time>2010-09-28T07:53:09Z</time>
      </trkpt>
      <trkpt lat="46.1152950" lon="12.4673370">
        <ele>1429.1400000</ele>
        <time>2010-09-28T07:53:12Z</time>
      </trkpt>
      <trkpt lat="46.1152940" lon="12.4673170">
        <ele>1429.1400000</ele>
        <time>2010-09-28T07:53:13Z</time>
      </trkpt>
      <trkpt lat="46.1153000" lon="12.4672240">
        <ele>1424.8100000</ele>
        <time>2010-09-28T07:53:17Z</time>
      </trkpt>
      <trkpt lat="46.1153110" lon="12.4671050">
        <ele>1425.7700000</ele>
        <time>2010-09-28T07:53:24Z</time>
      </trkpt>
      <trkpt lat="46.1153070" lon="12.4670870">
        <ele>1424.8100000</ele>
        <time>2010-09-28T07:53:26Z</time>
      </trkpt>
      <trkpt lat="46.1152490" lon="12.4669300">
        <ele>1425.7700000</ele>
        <time>2010-09-28T07:53:35Z</time>
      </trkpt>
      <trkpt lat="46.1152420" lon="12.4668520">
        <ele>1425.2900000</ele>
        <time>2010-09-28T07:53:41Z</time>
      </trkpt>
      <trkpt lat="46.1152240" lon="12.4668150">
        <ele>1424.8100000</ele>
        <time>2010-09-28T07:53:45Z</time>
      </trkpt>
      <trkpt lat="46.1151760" lon="12.4666480">
        <ele>1424.3300000</ele>
        <time>2010-09-28T07:53:53Z</time>
      </trkpt>
      <trkpt lat="46.1151650" lon="12.4665910">
        <ele>1422.8900000</ele>
        <time>2010-09-28T07:53:57Z</time>
      </trkpt>
      <trkpt lat="46.1151590" lon="12.4664750">
        <ele>1420.0000000</ele>
        <time>2010-09-28T07:54:02Z</time>
      </trkpt>
      <trkpt lat="46.1151590" lon="12.4664240">
        <ele>1418.5600000</ele>
        <time>2010-09-28T07:54:05Z</time>
      </trkpt>
      <trkpt lat="46.1151490" lon="12.4663670">
        <ele>1419.5200000</ele>
        <time>2010-09-28T07:54:09Z</time>
      </trkpt>
      <trkpt lat="46.1151490" lon="12.4663130">
        <ele>1418.5600000</ele>
        <time>2010-09-28T07:54:18Z</time>
      </trkpt>
      <trkpt lat="46.1151140" lon="12.4662400">
        <ele>1418.0800000</ele>
        <time>2010-09-28T07:55:32Z</time>
      </trkpt>
      <trkpt lat="46.1150980" lon="12.4662020">
        <ele>1418.5600000</ele>
        <time>2010-09-28T07:55:35Z</time>
      </trkpt>
      <trkpt lat="46.1150830" lon="12.4661530">
        <ele>1416.1600000</ele>
        <time>2010-09-28T07:55:38Z</time>
      </trkpt>
      <trkpt lat="46.1150400" lon="12.4660050">
        <ele>1415.2000000</ele>
        <time>2010-09-28T07:55:48Z</time>
      </trkpt>
      <trkpt lat="46.1150340" lon="12.4659890">
        <ele>1415.2000000</ele>
        <time>2010-09-28T07:55:49Z</time>
      </trkpt>
      <trkpt lat="46.1150100" lon="12.4659390">
        <ele>1418.0800000</ele>
        <time>2010-09-28T07:55:53Z</time>
      </trkpt>
      <trkpt lat="46.1149470" lon="12.4657620">
        <ele>1415.2000000</ele>
        <time>2010-09-28T07:56:00Z</time>
      </trkpt>
      <trkpt lat="46.1149470" lon="12.4657330">
        <ele>1414.2400000</ele>
        <time>2010-09-28T07:56:02Z</time>
      </trkpt>
      <trkpt lat="46.1149480" lon="12.4656260">
        <ele>1410.8700000</ele>
        <time>2010-09-28T07:56:10Z</time>
      </trkpt>
      <trkpt lat="46.1149370" lon="12.4655930">
        <ele>1412.3100000</ele>
        <time>2010-09-28T07:56:16Z</time>
      </trkpt>
      <trkpt lat="46.1149170" lon="12.4655190">
        <ele>1411.3500000</ele>
        <time>2010-09-28T07:56:22Z</time>
      </trkpt>
      <trkpt lat="46.1149160" lon="12.4655090">
        <ele>1412.7900000</ele>
        <time>2010-09-28T07:56:24Z</time>
      </trkpt>
      <trkpt lat="46.1149010" lon="12.4654320">
        <ele>1411.3500000</ele>
        <time>2010-09-28T07:56:30Z</time>
      </trkpt>
      <trkpt lat="46.1148990" lon="12.4654150">
        <ele>1411.3500000</ele>
        <time>2010-09-28T07:56:35Z</time>
      </trkpt>
      <trkpt lat="46.1148640" lon="12.4653590">
        <ele>1407.9900000</ele>
        <time>2010-09-28T07:56:40Z</time>
      </trkpt>
      <trkpt lat="46.1148560" lon="12.4653410">
        <ele>1408.4700000</ele>
        <time>2010-09-28T07:56:41Z</time>
      </trkpt>
      <trkpt lat="46.1148410" lon="12.4652830">
        <ele>1410.3900000</ele>
        <time>2010-09-28T07:56:44Z</time>
      </trkpt>
      <trkpt lat="46.1148250" lon="12.4652220">
        <ele>1408.4700000</ele>
        <time>2010-09-28T07:56:47Z</time>
      </trkpt>
      <trkpt lat="46.1147750" lon="12.4650280">
        <ele>1407.9900000</ele>
        <time>2010-09-28T07:56:57Z</time>
      </trkpt>
      <trkpt lat="46.1147650" lon="12.4650040">
        <ele>1409.4300000</ele>
        <time>2010-09-28T07:56:58Z</time>
      </trkpt>
      <trkpt lat="46.1147370" lon="12.4648470">
        <ele>1410.8700000</ele>
        <time>2010-09-28T07:57:04Z</time>
      </trkpt>
      <trkpt lat="46.1147400" lon="12.4648050">
        <ele>1409.4300000</ele>
        <time>2010-09-28T07:57:05Z</time>
      </trkpt>
      <trkpt lat="46.1147430" lon="12.4647770">
        <ele>1409.4300000</ele>
        <time>2010-09-28T07:57:06Z</time>
      </trkpt>
      <trkpt lat="46.1147340" lon="12.4646200">
        <ele>1407.0300000</ele>
        <time>2010-09-28T07:57:15Z</time>
      </trkpt>
      <trkpt lat="46.1147310" lon="12.4645990">
        <ele>1407.0300000</ele>
        <time>2010-09-28T07:57:16Z</time>
      </trkpt>
      <trkpt lat="46.1147080" lon="12.4645070">
        <ele>1402.7000000</ele>
        <time>2010-09-28T07:57:20Z</time>
      </trkpt>
      <trkpt lat="46.1146960" lon="12.4643400">
        <ele>1404.6200000</ele>
        <time>2010-09-28T07:57:27Z</time>
      </trkpt>
      <trkpt lat="46.1146900" lon="12.4643200">
        <ele>1404.1400000</ele>
        <time>2010-09-28T07:57:28Z</time>
      </trkpt>
      <trkpt lat="46.1146820" lon="12.4642320">
        <ele>1404.6200000</ele>
        <time>2010-09-28T07:57:32Z</time>
      </trkpt>
      <trkpt lat="46.1146810" lon="12.4641920">
        <ele>1401.7400000</ele>
        <time>2010-09-28T07:57:34Z</time>
      </trkpt>
      <trkpt lat="46.1146840" lon="12.4641680">
        <ele>1401.7400000</ele>
        <time>2010-09-28T07:57:35Z</time>
      </trkpt>
      <trkpt lat="46.1146970" lon="12.4640440">
        <ele>1400.3000000</ele>
        <time>2010-09-28T07:57:43Z</time>
      </trkpt>
      <trkpt lat="46.1146790" lon="12.4639470">
        <ele>1401.2600000</ele>
        <time>2010-09-28T07:57:51Z</time>
      </trkpt>
      <trkpt lat="46.1146720" lon="12.4638690">
        <ele>1400.7800000</ele>
        <time>2010-09-28T07:57:56Z</time>
      </trkpt>
      <trkpt lat="46.1146320" lon="12.4637370">
        <ele>1400.7800000</ele>
        <time>2010-09-28T07:58:04Z</time>
      </trkpt>
      <trkpt lat="46.1146270" lon="12.4636670">
        <ele>1396.9300000</ele>
        <time>2010-09-28T07:58:09Z</time>
      </trkpt>
      <trkpt lat="46.1146280" lon="12.4636570">
        <ele>1397.4100000</ele>
        <time>2010-09-28T07:58:10Z</time>
      </trkpt>
      <trkpt lat="46.1146340" lon="12.4636310">
        <ele>1393.5700000</ele>
        <time>2010-09-28T07:58:13Z</time>
      </trkpt>
      <trkpt lat="46.1146340" lon="12.4636170">
        <ele>1394.5300000</ele>
        <time>2010-09-28T07:58:14Z</time>
      </trkpt>
      <trkpt lat="46.1146430" lon="12.4635150">
        <ele>1394.5300000</ele>
        <time>2010-09-28T07:58:21Z</time>
      </trkpt>
      <trkpt lat="46.1146640" lon="12.4633860">
        <ele>1395.9700000</ele>
        <time>2010-09-28T07:58:28Z</time>
      </trkpt>
      <trkpt lat="46.1146680" lon="12.4632980">
        <ele>1393.5700000</ele>
        <time>2010-09-28T07:58:32Z</time>
      </trkpt>
      <trkpt lat="46.1146490" lon="12.4631570">
        <ele>1393.0900000</ele>
        <time>2010-09-28T07:58:38Z</time>
      </trkpt>
      <trkpt lat="46.1146180" lon="12.4630480">
        <ele>1393.0900000</ele>
        <time>2010-09-28T07:58:44Z</time>
      </trkpt>
      <trkpt lat="46.1146160" lon="12.4630050">
        <ele>1391.6500000</ele>
        <time>2010-09-28T07:58:46Z</time>
      </trkpt>
      <trkpt lat="46.1146170" lon="12.4629500">
        <ele>1391.6500000</ele>
        <time>2010-09-28T07:58:52Z</time>
      </trkpt>
      <trkpt lat="46.1146130" lon="12.4628880">
        <ele>1387.3200000</ele>
        <time>2010-09-28T07:58:57Z</time>
      </trkpt>
      <trkpt lat="46.1146150" lon="12.4628820">
        <ele>1387.8000000</ele>
        <time>2010-09-28T07:58:58Z</time>
      </trkpt>
      <trkpt lat="46.1146110" lon="12.4628650">
        <ele>1389.2400000</ele>
        <time>2010-09-28T07:59:01Z</time>
      </trkpt>
      <trkpt lat="46.1146100" lon="12.4628370">
        <ele>1384.9200000</ele>
        <time>2010-09-28T07:59:04Z</time>
      </trkpt>
      <trkpt lat="46.1146100" lon="12.4628370">
        <ele>1384.9200000</ele>
        <time>2010-09-28T07:59:05Z</time>
      </trkpt>
      <trkpt lat="46.1145990" lon="12.4628050">
        <ele>1383.4700000</ele>
        <time>2010-09-28T07:59:08Z</time>
      </trkpt>
      <trkpt lat="46.1145900" lon="12.4627650">
        <ele>1385.4000000</ele>
        <time>2010-09-28T07:59:10Z</time>
      </trkpt>
      <trkpt lat="46.1145620" lon="12.4626560">
        <ele>1382.5100000</ele>
        <time>2010-09-28T07:59:15Z</time>
      </trkpt>
      <trkpt lat="46.1145190" lon="12.4624920">
        <ele>1382.5100000</ele>
        <time>2010-09-28T07:59:21Z</time>
      </trkpt>
      <trkpt lat="46.1145060" lon="12.4624520">
        <ele>1382.9900000</ele>
        <time>2010-09-28T07:59:27Z</time>
      </trkpt>
      <trkpt lat="46.1145110" lon="12.4624050">
        <ele>1379.6300000</ele>
        <time>2010-09-28T07:59:32Z</time>
      </trkpt>
      <trkpt lat="46.1144960" lon="12.4623100">
        <ele>1381.0700000</ele>
        <time>2010-09-28T07:59:38Z</time>
      </trkpt>
      <trkpt lat="46.1144940" lon="12.4622200">
        <ele>1381.0700000</ele>
        <time>2010-09-28T07:59:44Z</time>
      </trkpt>
      <trkpt lat="46.1144970" lon="12.4621590">
        <ele>1376.7500000</ele>
        <time>2010-09-28T07:59:47Z</time>
      </trkpt>
      <trkpt lat="46.1144960" lon="12.4621290">
        <ele>1376.7500000</ele>
        <time>2010-09-28T07:59:48Z</time>
      </trkpt>
      <trkpt lat="46.1144950" lon="12.4618580">
        <ele>1379.6300000</ele>
        <time>2010-09-28T07:59:56Z</time>
      </trkpt>
      <trkpt lat="46.1145010" lon="12.4617630">
        <ele>1376.2600000</ele>
        <time>2010-09-28T08:00:00Z</time>
      </trkpt>
      <trkpt lat="46.1144950" lon="12.4617090">
        <ele>1373.3800000</ele>
        <time>2010-09-28T08:00:04Z</time>
      </trkpt>
      <trkpt lat="46.1144790" lon="12.4616370">
        <ele>1375.7800000</ele>
        <time>2010-09-28T08:00:08Z</time>
      </trkpt>
      <trkpt lat="46.1144760" lon="12.4616180">
        <ele>1375.3000000</ele>
        <time>2010-09-28T08:00:09Z</time>
      </trkpt>
      <trkpt lat="46.1144600" lon="12.4615120">
        <ele>1373.8600000</ele>
        <time>2010-09-28T08:00:17Z</time>
      </trkpt>
      <trkpt lat="46.1144650" lon="12.4614820">
        <ele>1372.9000000</ele>
        <time>2010-09-28T08:00:19Z</time>
      </trkpt>
      <trkpt lat="46.1144420" lon="12.4614020">
        <ele>1369.0500000</ele>
        <time>2010-09-28T08:00:25Z</time>
      </trkpt>
      <trkpt lat="46.1144410" lon="12.4613960">
        <ele>1367.6100000</ele>
        <time>2010-09-28T08:00:27Z</time>
      </trkpt>
      <trkpt lat="46.1144280" lon="12.4613460">
        <ele>1364.7300000</ele>
        <time>2010-09-28T08:00:33Z</time>
      </trkpt>
      <trkpt lat="46.1144320" lon="12.4613020">
        <ele>1367.6100000</ele>
        <time>2010-09-28T08:00:38Z</time>
      </trkpt>
      <trkpt lat="46.1144290" lon="12.4612920">
        <ele>1367.6100000</ele>
        <time>2010-09-28T08:00:39Z</time>
      </trkpt>
      <trkpt lat="46.1144260" lon="12.4612670">
        <ele>1364.2500000</ele>
        <time>2010-09-28T08:00:41Z</time>
      </trkpt>
      <trkpt lat="46.1144280" lon="12.4612590">
        <ele>1364.2500000</ele>
        <time>2010-09-28T08:00:42Z</time>
      </trkpt>
      <trkpt lat="46.1144320" lon="12.4612490">
        <ele>1363.2900000</ele>
        <time>2010-09-28T08:00:43Z</time>
      </trkpt>
      <trkpt lat="46.1144160" lon="12.4610970">
        <ele>1363.2900000</ele>
        <time>2010-09-28T08:00:51Z</time>
      </trkpt>
      <trkpt lat="46.1144190" lon="12.4610430">
        <ele>1360.4000000</ele>
        <time>2010-09-28T08:00:57Z</time>
      </trkpt>
      <trkpt lat="46.1144340" lon="12.4609850">
        <ele>1359.4400000</ele>
        <time>2010-09-28T08:01:03Z</time>
      </trkpt>
      <trkpt lat="46.1144390" lon="12.4609510">
        <ele>1358.0000000</ele>
        <time>2010-09-28T08:01:11Z</time>
      </trkpt>
      <trkpt lat="46.1144480" lon="12.4609220">
        <ele>1353.6700000</ele>
        <time>2010-09-28T08:01:18Z</time>
      </trkpt>
      <trkpt lat="46.1144390" lon="12.4608460">
        <ele>1350.7900000</ele>
        <time>2010-09-28T08:01:25Z</time>
      </trkpt>
      <trkpt lat="46.1144330" lon="12.4608300">
        <ele>1350.7900000</ele>
        <time>2010-09-28T08:01:26Z</time>
      </trkpt>
      <trkpt lat="46.1144250" lon="12.4607670">
        <ele>1350.7900000</ele>
        <time>2010-09-28T08:01:32Z</time>
      </trkpt>
      <trkpt lat="46.1144150" lon="12.4607020">
        <ele>1347.4300000</ele>
        <time>2010-09-28T08:01:38Z</time>
      </trkpt>
      <trkpt lat="46.1144040" lon="12.4606610">
        <ele>1350.3100000</ele>
        <time>2010-09-28T08:01:41Z</time>
      </trkpt>
      <trkpt lat="46.1144040" lon="12.4606410">
        <ele>1346.4600000</ele>
        <time>2010-09-28T08:01:44Z</time>
      </trkpt>
      <trkpt lat="46.1143970" lon="12.4605550">
        <ele>1346.4600000</ele>
        <time>2010-09-28T08:01:51Z</time>
      </trkpt>
      <trkpt lat="46.1143900" lon="12.4605270">
        <ele>1345.0200000</ele>
        <time>2010-09-28T08:01:54Z</time>
      </trkpt>
      <trkpt lat="46.1143900" lon="12.4605270">
        <ele>1346.9400000</ele>
        <time>2010-09-28T08:01:59Z</time>
      </trkpt>
      <trkpt lat="46.1143900" lon="12.4605270">
        <ele>1345.9800000</ele>
        <time>2010-09-28T08:02:01Z</time>
      </trkpt>
      <trkpt lat="46.1143920" lon="12.4604490">
        <ele>1345.0200000</ele>
        <time>2010-09-28T08:02:11Z</time>
      </trkpt>
      <trkpt lat="46.1143690" lon="12.4603530">
        <ele>1345.9800000</ele>
        <time>2010-09-28T08:02:17Z</time>
      </trkpt>
      <trkpt lat="46.1143570" lon="12.4602410">
        <ele>1345.0200000</ele>
        <time>2010-09-28T08:02:24Z</time>
      </trkpt>
      <trkpt lat="46.1143520" lon="12.4602040">
        <ele>1345.5000000</ele>
        <time>2010-09-28T08:02:30Z</time>
      </trkpt>
      <trkpt lat="46.1143470" lon="12.4601690">
        <ele>1343.5800000</ele>
        <time>2010-09-28T08:02:33Z</time>
      </trkpt>
      <trkpt lat="46.1143490" lon="12.4601300">
        <ele>1343.1000000</ele>
        <time>2010-09-28T08:02:35Z</time>
      </trkpt>
      <trkpt lat="46.1143550" lon="12.4600770">
        <ele>1342.1400000</ele>
        <time>2010-09-28T08:02:37Z</time>
      </trkpt>
      <trkpt lat="46.1143630" lon="12.4599240">
        <ele>1343.5800000</ele>
        <time>2010-09-28T08:02:43Z</time>
      </trkpt>
      <trkpt lat="46.1143610" lon="12.4598830">
        <ele>1343.5800000</ele>
        <time>2010-09-28T08:02:44Z</time>
      </trkpt>
      <trkpt lat="46.1143610" lon="12.4597690">
        <ele>1342.6200000</ele>
        <time>2010-09-28T08:02:51Z</time>
      </trkpt>
      <trkpt lat="46.1143360" lon="12.4595670">
        <ele>1342.1400000</ele>
        <time>2010-09-28T08:02:59Z</time>
      </trkpt>
      <trkpt lat="46.1143250" lon="12.4594600">
        <ele>1342.1400000</ele>
        <time>2010-09-28T08:03:06Z</time>
      </trkpt>
      <trkpt lat="46.1143200" lon="12.4594270">
        <ele>1341.1800000</ele>
        <time>2010-09-28T08:03:08Z</time>
      </trkpt>
      <trkpt lat="46.1143260" lon="12.4593700">
        <ele>1338.2900000</ele>
        <time>2010-09-28T08:03:12Z</time>
      </trkpt>
      <trkpt lat="46.1143270" lon="12.4593630">
        <ele>1339.2500000</ele>
        <time>2010-09-28T08:03:13Z</time>
      </trkpt>
      <trkpt lat="46.1143310" lon="12.4593420">
        <ele>1335.8900000</ele>
        <time>2010-09-28T08:03:15Z</time>
      </trkpt>
      <trkpt lat="46.1143340" lon="12.4593360">
        <ele>1338.7700000</ele>
        <time>2010-09-28T08:03:16Z</time>
      </trkpt>
      <trkpt lat="46.1143320" lon="12.4593230">
        <ele>1334.9300000</ele>
        <time>2010-09-28T08:03:19Z</time>
      </trkpt>
      <trkpt lat="46.1143290" lon="12.4593110">
        <ele>1335.8900000</ele>
        <time>2010-09-28T08:03:20Z</time>
      </trkpt>
      <trkpt lat="46.1143270" lon="12.4592780">
        <ele>1336.3700000</ele>
        <time>2010-09-28T08:03:22Z</time>
      </trkpt>
      <trkpt lat="46.1143130" lon="12.4592010">
        <ele>1334.4500000</ele>
        <time>2010-09-28T08:03:27Z</time>
      </trkpt>
      <trkpt lat="46.1142780" lon="12.4591210">
        <ele>1336.8500000</ele>
        <time>2010-09-28T08:03:34Z</time>
      </trkpt>
      <trkpt lat="46.1142810" lon="12.4590580">
        <ele>1334.9300000</ele>
        <time>2010-09-28T08:03:40Z</time>
      </trkpt>
      <trkpt lat="46.1142810" lon="12.4590450">
        <ele>1335.4100000</ele>
        <time>2010-09-28T08:03:42Z</time>
      </trkpt>
      <trkpt lat="46.1142920" lon="12.4590180">
        <ele>1332.0400000</ele>
        <time>2010-09-28T08:03:45Z</time>
      </trkpt>
      <trkpt lat="46.1142830" lon="12.4589320">
        <ele>1332.0400000</ele>
        <time>2010-09-28T08:03:50Z</time>
      </trkpt>
      <trkpt lat="46.1142830" lon="12.4589320">
        <ele>1330.6000000</ele>
        <time>2010-09-28T08:03:52Z</time>
      </trkpt>
      <trkpt lat="46.1142650" lon="12.4588970">
        <ele>1331.0800000</ele>
        <time>2010-09-28T08:03:59Z</time>
      </trkpt>
      <trkpt lat="46.1142650" lon="12.4588970">
        <ele>1327.7200000</ele>
        <time>2010-09-28T08:04:04Z</time>
      </trkpt>
      <trkpt lat="46.1142700" lon="12.4588570">
        <ele>1328.2000000</ele>
        <time>2010-09-28T08:04:11Z</time>
      </trkpt>
      <trkpt lat="46.1142520" lon="12.4587700">
        <ele>1322.9100000</ele>
        <time>2010-09-28T08:04:16Z</time>
      </trkpt>
      <trkpt lat="46.1142480" lon="12.4586870">
        <ele>1325.8000000</ele>
        <time>2010-09-28T08:04:23Z</time>
      </trkpt>
      <trkpt lat="46.1142710" lon="12.4585400">
        <ele>1326.7600000</ele>
        <time>2010-09-28T08:04:30Z</time>
      </trkpt>
      <trkpt lat="46.1142510" lon="12.4583970">
        <ele>1324.8300000</ele>
        <time>2010-09-28T08:04:38Z</time>
      </trkpt>
      <trkpt lat="46.1142540" lon="12.4583830">
        <ele>1321.4700000</ele>
        <time>2010-09-28T08:04:40Z</time>
      </trkpt>
      <trkpt lat="46.1142540" lon="12.4583830">
        <ele>1321.9500000</ele>
        <time>2010-09-28T08:04:41Z</time>
      </trkpt>
      <trkpt lat="46.1142560" lon="12.4583550">
        <ele>1320.5100000</ele>
        <time>2010-09-28T08:04:44Z</time>
      </trkpt>
      <trkpt lat="46.1142600" lon="12.4583240">
        <ele>1320.9900000</ele>
        <time>2010-09-28T08:04:45Z</time>
      </trkpt>
      <trkpt lat="46.1142650" lon="12.4582230">
        <ele>1321.4700000</ele>
        <time>2010-09-28T08:04:50Z</time>
      </trkpt>
      <trkpt lat="46.1142610" lon="12.4581360">
        <ele>1320.5100000</ele>
        <time>2010-09-28T08:04:57Z</time>
      </trkpt>
      <trkpt lat="46.1142580" lon="12.4581160">
        <ele>1318.5900000</ele>
        <time>2010-09-28T08:04:59Z</time>
      </trkpt>
      <trkpt lat="46.1142460" lon="12.4579860">
        <ele>1317.6200000</ele>
        <time>2010-09-28T08:05:06Z</time>
      </trkpt>
      <trkpt lat="46.1142490" lon="12.4578570">
        <ele>1314.7400000</ele>
        <time>2010-09-28T08:05:09Z</time>
      </trkpt>
      <trkpt lat="46.1142480" lon="12.4578390">
        <ele>1314.2600000</ele>
        <time>2010-09-28T08:05:10Z</time>
      </trkpt>
      <trkpt lat="46.1142510" lon="12.4576490">
        <ele>1317.1400000</ele>
        <time>2010-09-28T08:05:18Z</time>
      </trkpt>
      <trkpt lat="46.1142580" lon="12.4575240">
        <ele>1313.7800000</ele>
        <time>2010-09-28T08:05:26Z</time>
      </trkpt>
      <trkpt lat="46.1142640" lon="12.4574830">
        <ele>1310.4100000</ele>
        <time>2010-09-28T08:05:28Z</time>
      </trkpt>
      <trkpt lat="46.1142550" lon="12.4573730">
        <ele>1313.3000000</ele>
        <time>2010-09-28T08:05:33Z</time>
      </trkpt>
      <trkpt lat="46.1142500" lon="12.4573030">
        <ele>1311.8600000</ele>
        <time>2010-09-28T08:05:36Z</time>
      </trkpt>
      <trkpt lat="46.1142590" lon="12.4572140">
        <ele>1310.9000000</ele>
        <time>2010-09-28T08:05:43Z</time>
      </trkpt>
      <trkpt lat="46.1142450" lon="12.4571680">
        <ele>1310.4100000</ele>
        <time>2010-09-28T08:05:47Z</time>
      </trkpt>
      <trkpt lat="46.1142240" lon="12.4570620">
        <ele>1311.8600000</ele>
        <time>2010-09-28T08:05:52Z</time>
      </trkpt>
      <trkpt lat="46.1141990" lon="12.4570100">
        <ele>1310.9000000</ele>
        <time>2010-09-28T08:05:55Z</time>
      </trkpt>
      <trkpt lat="46.1141970" lon="12.4569480">
        <ele>1309.4500000</ele>
        <time>2010-09-28T08:05:58Z</time>
      </trkpt>
      <trkpt lat="46.1141940" lon="12.4568540">
        <ele>1308.0100000</ele>
        <time>2010-09-28T08:06:06Z</time>
      </trkpt>
      <trkpt lat="46.1141990" lon="12.4568070">
        <ele>1308.4900000</ele>
        <time>2010-09-28T08:06:14Z</time>
      </trkpt>
      <trkpt lat="46.1142020" lon="12.4567250">
        <ele>1305.1300000</ele>
        <time>2010-09-28T08:06:19Z</time>
      </trkpt>
      <trkpt lat="46.1142050" lon="12.4566860">
        <ele>1302.7200000</ele>
        <time>2010-09-28T08:06:21Z</time>
      </trkpt>
      <trkpt lat="46.1142080" lon="12.4565380">
        <ele>1304.1700000</ele>
        <time>2010-09-28T08:06:28Z</time>
      </trkpt>
      <trkpt lat="46.1142260" lon="12.4564380">
        <ele>1299.8400000</ele>
        <time>2010-09-28T08:06:32Z</time>
      </trkpt>
      <trkpt lat="46.1142110" lon="12.4563390">
        <ele>1301.2800000</ele>
        <time>2010-09-28T08:06:37Z</time>
      </trkpt>
      <trkpt lat="46.1142210" lon="12.4562730">
        <ele>1297.9200000</ele>
        <time>2010-09-28T08:06:41Z</time>
      </trkpt>
      <trkpt lat="46.1142260" lon="12.4562170">
        <ele>1298.4000000</ele>
        <time>2010-09-28T08:06:45Z</time>
      </trkpt>
      <trkpt lat="46.1142220" lon="12.4561930">
        <ele>1299.3600000</ele>
        <time>2010-09-28T08:06:47Z</time>
      </trkpt>
      <trkpt lat="46.1142010" lon="12.4561180">
        <ele>1299.8400000</ele>
        <time>2010-09-28T08:06:55Z</time>
      </trkpt>
      <trkpt lat="46.1142000" lon="12.4560170">
        <ele>1298.4000000</ele>
        <time>2010-09-28T08:07:04Z</time>
      </trkpt>
      <trkpt lat="46.1142070" lon="12.4559620">
        <ele>1297.4400000</ele>
        <time>2010-09-28T08:07:10Z</time>
      </trkpt>
      <trkpt lat="46.1142160" lon="12.4558600">
        <ele>1292.1500000</ele>
        <time>2010-09-28T08:07:17Z</time>
      </trkpt>
      <trkpt lat="46.1142160" lon="12.4558510">
        <ele>1292.6300000</ele>
        <time>2010-09-28T08:07:18Z</time>
      </trkpt>
      <trkpt lat="46.1142270" lon="12.4557350">
        <ele>1294.0700000</ele>
        <time>2010-09-28T08:07:25Z</time>
      </trkpt>
      <trkpt lat="46.1142300" lon="12.4555860">
        <ele>1293.1100000</ele>
        <time>2010-09-28T08:07:32Z</time>
      </trkpt>
      <trkpt lat="46.1142360" lon="12.4554480">
        <ele>1291.6700000</ele>
        <time>2010-09-28T08:07:39Z</time>
      </trkpt>
      <trkpt lat="46.1142380" lon="12.4554040">
        <ele>1289.7500000</ele>
        <time>2010-09-28T08:07:41Z</time>
      </trkpt>
      <trkpt lat="46.1142320" lon="12.4553220">
        <ele>1287.3400000</ele>
        <time>2010-09-28T08:07:44Z</time>
      </trkpt>
      <trkpt lat="46.1142380" lon="12.4551740">
        <ele>1287.3400000</ele>
        <time>2010-09-28T08:07:50Z</time>
      </trkpt>
      <trkpt lat="46.1142270" lon="12.4550010">
        <ele>1284.9400000</ele>
        <time>2010-09-28T08:07:59Z</time>
      </trkpt>
      <trkpt lat="46.1142210" lon="12.4549640">
        <ele>1283.0200000</ele>
        <time>2010-09-28T08:08:02Z</time>
      </trkpt>
      <trkpt lat="46.1142000" lon="12.4548580">
        <ele>1283.9800000</ele>
        <time>2010-09-28T08:08:10Z</time>
      </trkpt>
      <trkpt lat="46.1142000" lon="12.4547900">
        <ele>1280.6100000</ele>
        <time>2010-09-28T08:08:14Z</time>
      </trkpt>
      <trkpt lat="46.1141860" lon="12.4547300">
        <ele>1278.2100000</ele>
        <time>2010-09-28T08:08:20Z</time>
      </trkpt>
      <trkpt lat="46.1141780" lon="12.4546390">
        <ele>1274.8500000</ele>
        <time>2010-09-28T08:08:28Z</time>
      </trkpt>
      <trkpt lat="46.1141840" lon="12.4546220">
        <ele>1274.3600000</ele>
        <time>2010-09-28T08:08:29Z</time>
      </trkpt>
      <trkpt lat="46.1141900" lon="12.4545730">
        <ele>1273.4000000</ele>
        <time>2010-09-28T08:08:31Z</time>
      </trkpt>
      <trkpt lat="46.1141880" lon="12.4544590">
        <ele>1274.8500000</ele>
        <time>2010-09-28T08:08:39Z</time>
      </trkpt>
      <trkpt lat="46.1141730" lon="12.4543610">
        <ele>1270.0400000</ele>
        <time>2010-09-28T08:08:45Z</time>
      </trkpt>
      <trkpt lat="46.1141650" lon="12.4542830">
        <ele>1270.5200000</ele>
        <time>2010-09-28T08:08:49Z</time>
      </trkpt>
      <trkpt lat="46.1141560" lon="12.4541740">
        <ele>1267.1600000</ele>
        <time>2010-09-28T08:08:55Z</time>
      </trkpt>
      <trkpt lat="46.1141560" lon="12.4541610">
        <ele>1267.1600000</ele>
        <time>2010-09-28T08:08:56Z</time>
      </trkpt>
      <trkpt lat="46.1141390" lon="12.4540570">
        <ele>1267.1600000</ele>
        <time>2010-09-28T08:09:02Z</time>
      </trkpt>
      <trkpt lat="46.1141390" lon="12.4539440">
        <ele>1265.7100000</ele>
        <time>2010-09-28T08:09:08Z</time>
      </trkpt>
      <trkpt lat="46.1141360" lon="12.4538930">
        <ele>1262.3500000</ele>
        <time>2010-09-28T08:09:12Z</time>
      </trkpt>
      <trkpt lat="46.1141190" lon="12.4537630">
        <ele>1260.9100000</ele>
        <time>2010-09-28T08:09:23Z</time>
      </trkpt>
      <trkpt lat="46.1141010" lon="12.4536920">
        <ele>1256.5800000</ele>
        <time>2010-09-28T08:09:27Z</time>
      </trkpt>
      <trkpt lat="46.1140990" lon="12.4536700">
        <ele>1257.5400000</ele>
        <time>2010-09-28T08:09:28Z</time>
      </trkpt>
      <trkpt lat="46.1141000" lon="12.4536310">
        <ele>1258.0200000</ele>
        <time>2010-09-28T08:09:30Z</time>
      </trkpt>
      <trkpt lat="46.1140920" lon="12.4535520">
        <ele>1255.6200000</ele>
        <time>2010-09-28T08:09:37Z</time>
      </trkpt>
      <trkpt lat="46.1140880" lon="12.4535140">
        <ele>1253.7000000</ele>
        <time>2010-09-28T08:09:40Z</time>
      </trkpt>
      <trkpt lat="46.1140850" lon="12.4535000">
        <ele>1253.2200000</ele>
        <time>2010-09-28T08:09:41Z</time>
      </trkpt>
      <trkpt lat="46.1140680" lon="12.4534180">
        <ele>1254.1800000</ele>
        <time>2010-09-28T08:09:48Z</time>
      </trkpt>
      <trkpt lat="46.1140490" lon="12.4532440">
        <ele>1250.8100000</ele>
        <time>2010-09-28T08:09:55Z</time>
      </trkpt>
      <trkpt lat="46.1140540" lon="12.4531730">
        <ele>1248.8900000</ele>
        <time>2010-09-28T08:09:57Z</time>
      </trkpt>
      <trkpt lat="46.1140560" lon="12.4530760">
        <ele>1250.8100000</ele>
        <time>2010-09-28T08:10:02Z</time>
      </trkpt>
      <trkpt lat="46.1140240" lon="12.4529750">
        <ele>1246.0100000</ele>
        <time>2010-09-28T08:10:09Z</time>
      </trkpt>
      <trkpt lat="46.1140090" lon="12.4529280">
        <ele>1245.0400000</ele>
        <time>2010-09-28T08:10:11Z</time>
      </trkpt>
      <trkpt lat="46.1139910" lon="12.4527170">
        <ele>1245.5300000</ele>
        <time>2010-09-28T08:10:21Z</time>
      </trkpt>
      <trkpt lat="46.1139930" lon="12.4526640">
        <ele>1242.6400000</ele>
        <time>2010-09-28T08:10:24Z</time>
      </trkpt>
      <trkpt lat="46.1139740" lon="12.4525510">
        <ele>1239.2800000</ele>
        <time>2010-09-28T08:10:31Z</time>
      </trkpt>
      <trkpt lat="46.1139670" lon="12.4525210">
        <ele>1242.6400000</ele>
        <time>2010-09-28T08:10:34Z</time>
      </trkpt>
      <trkpt lat="46.1139390" lon="12.4524570">
        <ele>1240.7200000</ele>
        <time>2010-09-28T08:10:39Z</time>
      </trkpt>
      <trkpt lat="46.1139270" lon="12.4524160">
        <ele>1238.3200000</ele>
        <time>2010-09-28T08:10:45Z</time>
      </trkpt>
      <trkpt lat="46.1139280" lon="12.4523840">
        <ele>1236.3900000</ele>
        <time>2010-09-28T08:10:48Z</time>
      </trkpt>
      <trkpt lat="46.1139120" lon="12.4523200">
        <ele>1235.9100000</ele>
        <time>2010-09-28T08:10:53Z</time>
      </trkpt>
      <trkpt lat="46.1138810" lon="12.4522390">
        <ele>1236.8700000</ele>
        <time>2010-09-28T08:11:00Z</time>
      </trkpt>
      <trkpt lat="46.1138770" lon="12.4521710">
        <ele>1235.4300000</ele>
        <time>2010-09-28T08:11:07Z</time>
      </trkpt>
      <trkpt lat="46.1138550" lon="12.4521230">
        <ele>1231.5900000</ele>
        <time>2010-09-28T08:11:11Z</time>
      </trkpt>
      <trkpt lat="46.1138480" lon="12.4521120">
        <ele>1232.5500000</ele>
        <time>2010-09-28T08:11:12Z</time>
      </trkpt>
      <trkpt lat="46.1138150" lon="12.4519990">
        <ele>1230.1400000</ele>
        <time>2010-09-28T08:11:20Z</time>
      </trkpt>
      <trkpt lat="46.1138110" lon="12.4519680">
        <ele>1232.0700000</ele>
        <time>2010-09-28T08:11:21Z</time>
      </trkpt>
      <trkpt lat="46.1137720" lon="12.4518240">
        <ele>1232.5500000</ele>
        <time>2010-09-28T08:11:28Z</time>
      </trkpt>
      <trkpt lat="46.1137570" lon="12.4517630">
        <ele>1229.1800000</ele>
        <time>2010-09-28T08:11:33Z</time>
      </trkpt>
      <trkpt lat="46.1137520" lon="12.4517410">
        <ele>1228.2200000</ele>
        <time>2010-09-28T08:11:35Z</time>
      </trkpt>
      <trkpt lat="46.1137380" lon="12.4516420">
        <ele>1226.3000000</ele>
        <time>2010-09-28T08:11:41Z</time>
      </trkpt>
      <trkpt lat="46.1136890" lon="12.4514720">
        <ele>1226.7800000</ele>
        <time>2010-09-28T08:11:49Z</time>
      </trkpt>
      <trkpt lat="46.1136800" lon="12.4513730">
        <ele>1225.3400000</ele>
        <time>2010-09-28T08:11:57Z</time>
      </trkpt>
      <trkpt lat="46.1136350" lon="12.4512160">
        <ele>1224.3800000</ele>
        <time>2010-09-28T08:12:03Z</time>
      </trkpt>
      <trkpt lat="46.1136290" lon="12.4510710">
        <ele>1223.9000000</ele>
        <time>2010-09-28T08:12:09Z</time>
      </trkpt>
      <trkpt lat="46.1136280" lon="12.4509700">
        <ele>1218.6100000</ele>
        <time>2010-09-28T08:12:16Z</time>
      </trkpt>
      <trkpt lat="46.1136250" lon="12.4509640">
        <ele>1219.5700000</ele>
        <time>2010-09-28T08:12:17Z</time>
      </trkpt>
      <trkpt lat="46.1136070" lon="12.4508680">
        <ele>1220.5300000</ele>
        <time>2010-09-28T08:12:24Z</time>
      </trkpt>
      <trkpt lat="46.1135930" lon="12.4507570">
        <ele>1218.1300000</ele>
        <time>2010-09-28T08:12:30Z</time>
      </trkpt>
      <trkpt lat="46.1135760" lon="12.4505900">
        <ele>1219.5700000</ele>
        <time>2010-09-28T08:12:37Z</time>
      </trkpt>
      <trkpt lat="46.1135840" lon="12.4505260">
        <ele>1214.7600000</ele>
        <time>2010-09-28T08:12:41Z</time>
      </trkpt>
      <trkpt lat="46.1135860" lon="12.4505120">
        <ele>1215.7200000</ele>
        <time>2010-09-28T08:12:42Z</time>
      </trkpt>
      <trkpt lat="46.1135760" lon="12.4504380">
        <ele>1216.2100000</ele>
        <time>2010-09-28T08:12:47Z</time>
      </trkpt>
      <trkpt lat="46.1135460" lon="12.4502980">
        <ele>1216.2100000</ele>
        <time>2010-09-28T08:12:54Z</time>
      </trkpt>
      <trkpt lat="46.1135300" lon="12.4501540">
        <ele>1214.7600000</ele>
        <time>2010-09-28T08:13:02Z</time>
      </trkpt>
      <trkpt lat="46.1134870" lon="12.4499710">
        <ele>1213.3200000</ele>
        <time>2010-09-28T08:13:11Z</time>
      </trkpt>
      <trkpt lat="46.1134250" lon="12.4498320">
        <ele>1212.3600000</ele>
        <time>2010-09-28T08:13:19Z</time>
      </trkpt>
      <trkpt lat="46.1134200" lon="12.4496780">
        <ele>1211.4000000</ele>
        <time>2010-09-28T08:13:26Z</time>
      </trkpt>
      <trkpt lat="46.1134260" lon="12.4496230">
        <ele>1209.4800000</ele>
        <time>2010-09-28T08:13:32Z</time>
      </trkpt>
      <trkpt lat="46.1134250" lon="12.4496130">
        <ele>1209.4800000</ele>
        <time>2010-09-28T08:13:33Z</time>
      </trkpt>
      <trkpt lat="46.1134230" lon="12.4496080">
        <ele>1209.0000000</ele>
        <time>2010-09-28T08:13:46Z</time>
      </trkpt>
      <trkpt lat="46.1134230" lon="12.4496080">
        <ele>1214.7600000</ele>
        <time>2010-09-28T08:14:13Z</time>
      </trkpt>
      <trkpt lat="46.1134230" lon="12.4496080">
        <ele>1211.8800000</ele>
        <time>2010-09-28T08:14:14Z</time>
      </trkpt>
      <trkpt lat="46.1134290" lon="12.4496080">
        <ele>1209.4800000</ele>
        <time>2010-09-28T08:14:15Z</time>
      </trkpt>
      <trkpt lat="46.1134780" lon="12.4495850">
        <ele>1209.0000000</ele>
        <time>2010-09-28T08:14:21Z</time>
      </trkpt>
      <trkpt lat="46.1134700" lon="12.4495550">
        <ele>1209.0000000</ele>
        <time>2010-09-28T08:14:35Z</time>
      </trkpt>
      <trkpt lat="46.1134680" lon="12.4494440">
        <ele>1206.5900000</ele>
        <time>2010-09-28T08:19:23Z</time>
      </trkpt>
      <trkpt lat="46.1134410" lon="12.4493870">
        <ele>1209.4800000</ele>
        <time>2010-09-28T08:19:27Z</time>
      </trkpt>
      <trkpt lat="46.1134410" lon="12.4493740">
        <ele>1209.0000000</ele>
        <time>2010-09-28T08:19:28Z</time>
      </trkpt>
      <trkpt lat="46.1134420" lon="12.4492810">
        <ele>1208.0300000</ele>
        <time>2010-09-28T08:19:37Z</time>
      </trkpt>
      <trkpt lat="46.1134520" lon="12.4492410">
        <ele>1204.1900000</ele>
        <time>2010-09-28T08:19:49Z</time>
      </trkpt>
      <trkpt lat="46.1134520" lon="12.4492300">
        <ele>1204.1900000</ele>
        <time>2010-09-28T08:19:50Z</time>
      </trkpt>
      <trkpt lat="46.1134520" lon="12.4492300">
        <ele>1205.6300000</ele>
        <time>2010-09-28T08:19:53Z</time>
      </trkpt>
      <trkpt lat="46.1134140" lon="12.4490870">
        <ele>1203.7100000</ele>
        <time>2010-09-28T08:19:58Z</time>
      </trkpt>
      <trkpt lat="46.1134050" lon="12.4489320">
        <ele>1202.7500000</ele>
        <time>2010-09-28T08:20:05Z</time>
      </trkpt>
      <trkpt lat="46.1133900" lon="12.4488610">
        <ele>1200.8200000</ele>
        <time>2010-09-28T08:20:12Z</time>
      </trkpt>
      <trkpt lat="46.1133730" lon="12.4487970">
        <ele>1203.7100000</ele>
        <time>2010-09-28T08:20:15Z</time>
      </trkpt>
      <trkpt lat="46.1133590" lon="12.4486890">
        <ele>1203.2300000</ele>
        <time>2010-09-28T08:20:21Z</time>
      </trkpt>
      <trkpt lat="46.1133170" lon="12.4485500">
        <ele>1203.2300000</ele>
        <time>2010-09-28T08:20:27Z</time>
      </trkpt>
      <trkpt lat="46.1132730" lon="12.4484330">
        <ele>1202.2700000</ele>
        <time>2010-09-28T08:20:34Z</time>
      </trkpt>
      <trkpt lat="46.1132310" lon="12.4483220">
        <ele>1201.3000000</ele>
        <time>2010-09-28T08:20:39Z</time>
      </trkpt>
      <trkpt lat="46.1131760" lon="12.4482940">
        <ele>1198.9000000</ele>
        <time>2010-09-28T08:20:42Z</time>
      </trkpt>
      <trkpt lat="46.1131450" lon="12.4481980">
        <ele>1198.9000000</ele>
        <time>2010-09-28T08:20:49Z</time>
      </trkpt>
      <trkpt lat="46.1131520" lon="12.4481170">
        <ele>1199.8600000</ele>
        <time>2010-09-28T08:20:55Z</time>
      </trkpt>
      <trkpt lat="46.1131410" lon="12.4479590">
        <ele>1197.4600000</ele>
        <time>2010-09-28T08:21:02Z</time>
      </trkpt>
      <trkpt lat="46.1131290" lon="12.4478570">
        <ele>1196.0200000</ele>
        <time>2010-09-28T08:21:09Z</time>
      </trkpt>
      <trkpt lat="46.1131460" lon="12.4478250">
        <ele>1196.9800000</ele>
        <time>2010-09-28T08:21:11Z</time>
      </trkpt>
      <trkpt lat="46.1131430" lon="12.4477310">
        <ele>1196.0200000</ele>
        <time>2010-09-28T08:21:18Z</time>
      </trkpt>
      <trkpt lat="46.1131340" lon="12.4476920">
        <ele>1195.0600000</ele>
        <time>2010-09-28T08:21:24Z</time>
      </trkpt>
      <trkpt lat="46.1131030" lon="12.4476300">
        <ele>1191.6900000</ele>
        <time>2010-09-28T08:21:28Z</time>
      </trkpt>
      <trkpt lat="46.1130970" lon="12.4476070">
        <ele>1191.6900000</ele>
        <time>2010-09-28T08:21:29Z</time>
      </trkpt>
      <trkpt lat="46.1130300" lon="12.4474830">
        <ele>1192.6500000</ele>
        <time>2010-09-28T08:21:36Z</time>
      </trkpt>
      <trkpt lat="46.1130130" lon="12.4474290">
        <ele>1192.1700000</ele>
        <time>2010-09-28T08:21:38Z</time>
      </trkpt>
      <trkpt lat="46.1129890" lon="12.4472270">
        <ele>1188.8100000</ele>
        <time>2010-09-28T08:21:45Z</time>
      </trkpt>
      <trkpt lat="46.1129590" lon="12.4470370">
        <ele>1190.7300000</ele>
        <time>2010-09-28T08:21:53Z</time>
      </trkpt>
      <trkpt lat="46.1129440" lon="12.4470020">
        <ele>1187.8500000</ele>
        <time>2010-09-28T08:21:56Z</time>
      </trkpt>
      <trkpt lat="46.1129410" lon="12.4469870">
        <ele>1189.2900000</ele>
        <time>2010-09-28T08:21:58Z</time>
      </trkpt>
      <trkpt lat="46.1129410" lon="12.4469210">
        <ele>1186.4000000</ele>
        <time>2010-09-28T08:22:07Z</time>
      </trkpt>
      <trkpt lat="46.1128620" lon="12.4466930">
        <ele>1187.8500000</ele>
        <time>2010-09-28T08:22:17Z</time>
      </trkpt>
      <trkpt lat="46.1128410" lon="12.4466580">
        <ele>1184.0000000</ele>
        <time>2010-09-28T08:22:20Z</time>
      </trkpt>
      <trkpt lat="46.1128360" lon="12.4466470">
        <ele>1184.0000000</ele>
        <time>2010-09-28T08:22:21Z</time>
      </trkpt>
      <trkpt lat="46.1128360" lon="12.4466350">
        <ele>1184.4800000</ele>
        <time>2010-09-28T08:22:22Z</time>
      </trkpt>
      <trkpt lat="46.1128860" lon="12.4465050">
        <ele>1184.9600000</ele>
        <time>2010-09-28T08:22:30Z</time>
      </trkpt>
      <trkpt lat="46.1128780" lon="12.4464100">
        <ele>1182.0800000</ele>
        <time>2010-09-28T08:22:36Z</time>
      </trkpt>
      <trkpt lat="46.1128510" lon="12.4463310">
        <ele>1180.1600000</ele>
        <time>2010-09-28T08:22:41Z</time>
      </trkpt>
      <trkpt lat="46.1128240" lon="12.4462180">
        <ele>1178.2300000</ele>
        <time>2010-09-28T08:22:48Z</time>
      </trkpt>
      <trkpt lat="46.1127890" lon="12.4460960">
        <ele>1178.7100000</ele>
        <time>2010-09-28T08:22:56Z</time>
      </trkpt>
      <trkpt lat="46.1127310" lon="12.4460460">
        <ele>1177.2700000</ele>
        <time>2010-09-28T08:22:59Z</time>
      </trkpt>
      <trkpt lat="46.1126760" lon="12.4459300">
        <ele>1177.2700000</ele>
        <time>2010-09-28T08:23:06Z</time>
      </trkpt>
      <trkpt lat="46.1126570" lon="12.4458570">
        <ele>1177.7500000</ele>
        <time>2010-09-28T08:23:13Z</time>
      </trkpt>
      <trkpt lat="46.1126420" lon="12.4457820">
        <ele>1178.7100000</ele>
        <time>2010-09-28T08:23:18Z</time>
      </trkpt>
      <trkpt lat="46.1126190" lon="12.4456580">
        <ele>1178.7100000</ele>
        <time>2010-09-28T08:23:25Z</time>
      </trkpt>
      <trkpt lat="46.1126000" lon="12.4455840">
        <ele>1177.2700000</ele>
        <time>2010-09-28T08:23:28Z</time>
      </trkpt>
      <trkpt lat="46.1125820" lon="12.4454900">
        <ele>1175.3500000</ele>
        <time>2010-09-28T08:23:34Z</time>
      </trkpt>
      <trkpt lat="46.1125840" lon="12.4454190">
        <ele>1176.3100000</ele>
        <time>2010-09-28T08:23:39Z</time>
      </trkpt>
      <trkpt lat="46.1125790" lon="12.4452910">
        <ele>1173.9100000</ele>
        <time>2010-09-28T08:23:47Z</time>
      </trkpt>
      <trkpt lat="46.1125480" lon="12.4452140">
        <ele>1170.0600000</ele>
        <time>2010-09-28T08:23:50Z</time>
      </trkpt>
      <trkpt lat="46.1125490" lon="12.4451930">
        <ele>1171.9800000</ele>
        <time>2010-09-28T08:23:51Z</time>
      </trkpt>
      <trkpt lat="46.1125530" lon="12.4450030">
        <ele>1173.9100000</ele>
        <time>2010-09-28T08:23:59Z</time>
      </trkpt>
      <trkpt lat="46.1125460" lon="12.4449240">
        <ele>1173.4300000</ele>
        <time>2010-09-28T08:24:06Z</time>
      </trkpt>
      <trkpt lat="46.1125460" lon="12.4448490">
        <ele>1173.9100000</ele>
        <time>2010-09-28T08:24:11Z</time>
      </trkpt>
      <trkpt lat="46.1125590" lon="12.4447860">
        <ele>1174.3900000</ele>
        <time>2010-09-28T08:24:17Z</time>
      </trkpt>
      <trkpt lat="46.1125510" lon="12.4447000">
        <ele>1173.4300000</ele>
        <time>2010-09-28T08:24:24Z</time>
      </trkpt>
      <trkpt lat="46.1125820" lon="12.4445810">
        <ele>1171.5000000</ele>
        <time>2010-09-28T08:24:32Z</time>
      </trkpt>
      <trkpt lat="46.1126050" lon="12.4444820">
        <ele>1170.0600000</ele>
        <time>2010-09-28T08:24:40Z</time>
      </trkpt>
      <trkpt lat="46.1126180" lon="12.4443050">
        <ele>1169.5800000</ele>
        <time>2010-09-28T08:24:48Z</time>
      </trkpt>
      <trkpt lat="46.1126120" lon="12.4442180">
        <ele>1168.6200000</ele>
        <time>2010-09-28T08:24:54Z</time>
      </trkpt>
      <trkpt lat="46.1126070" lon="12.4441380">
        <ele>1170.5400000</ele>
        <time>2010-09-28T08:25:03Z</time>
      </trkpt>
      <trkpt lat="46.1125960" lon="12.4439550">
        <ele>1170.5400000</ele>
        <time>2010-09-28T08:25:17Z</time>
      </trkpt>
      <trkpt lat="46.1126140" lon="12.4438620">
        <ele>1168.6200000</ele>
        <time>2010-09-28T08:25:21Z</time>
      </trkpt>
      <trkpt lat="46.1126200" lon="12.4438360">
        <ele>1170.0600000</ele>
        <time>2010-09-28T08:25:22Z</time>
      </trkpt>
      <trkpt lat="46.1126270" lon="12.4436740">
        <ele>1168.6200000</ele>
        <time>2010-09-28T08:25:27Z</time>
      </trkpt>
      <trkpt lat="46.1126350" lon="12.4435600">
        <ele>1167.6600000</ele>
        <time>2010-09-28T08:25:33Z</time>
      </trkpt>
      <trkpt lat="46.1126460" lon="12.4434200">
        <ele>1168.6200000</ele>
        <time>2010-09-28T08:25:40Z</time>
      </trkpt>
      <trkpt lat="46.1126660" lon="12.4433040">
        <ele>1166.2200000</ele>
        <time>2010-09-28T08:25:47Z</time>
      </trkpt>
      <trkpt lat="46.1126460" lon="12.4432080">
        <ele>1167.1800000</ele>
        <time>2010-09-28T08:25:53Z</time>
      </trkpt>
      <trkpt lat="46.1126400" lon="12.4430610">
        <ele>1165.2600000</ele>
        <time>2010-09-28T08:26:01Z</time>
      </trkpt>
      <trkpt lat="46.1126520" lon="12.4429390">
        <ele>1162.3700000</ele>
        <time>2010-09-28T08:26:08Z</time>
      </trkpt>
      <trkpt lat="46.1126780" lon="12.4427700">
        <ele>1163.3300000</ele>
        <time>2010-09-28T08:26:16Z</time>
      </trkpt>
      <trkpt lat="46.1126810" lon="12.4427130">
        <ele>1162.3700000</ele>
        <time>2010-09-28T08:26:22Z</time>
      </trkpt>
      <trkpt lat="46.1126840" lon="12.4426500">
        <ele>1161.8900000</ele>
        <time>2010-09-28T08:26:31Z</time>
      </trkpt>
      <trkpt lat="46.1126820" lon="12.4425330">
        <ele>1160.9300000</ele>
        <time>2010-09-28T08:26:36Z</time>
      </trkpt>
      <trkpt lat="46.1126930" lon="12.4423970">
        <ele>1157.5600000</ele>
        <time>2010-09-28T08:26:42Z</time>
      </trkpt>
      <trkpt lat="46.1127020" lon="12.4423350">
        <ele>1159.0100000</ele>
        <time>2010-09-28T08:26:46Z</time>
      </trkpt>
      <trkpt lat="46.1127070" lon="12.4422800">
        <ele>1159.4900000</ele>
        <time>2010-09-28T08:26:55Z</time>
      </trkpt>
      <trkpt lat="46.1127150" lon="12.4422440">
        <ele>1157.0800000</ele>
        <time>2010-09-28T08:27:03Z</time>
      </trkpt>
      <trkpt lat="46.1127240" lon="12.4421950">
        <ele>1157.0800000</ele>
        <time>2010-09-28T08:27:06Z</time>
      </trkpt>
      <trkpt lat="46.1127330" lon="12.4420880">
        <ele>1154.2000000</ele>
        <time>2010-09-28T08:27:13Z</time>
      </trkpt>
      <trkpt lat="46.1127020" lon="12.4420130">
        <ele>1152.7600000</ele>
        <time>2010-09-28T08:27:21Z</time>
      </trkpt>
      <trkpt lat="46.1127010" lon="12.4420000">
        <ele>1151.3200000</ele>
        <time>2010-09-28T08:27:23Z</time>
      </trkpt>
      <trkpt lat="46.1126860" lon="12.4419430">
        <ele>1150.3500000</ele>
        <time>2010-09-28T08:27:26Z</time>
      </trkpt>
      <trkpt lat="46.1126720" lon="12.4419060">
        <ele>1151.3200000</ele>
        <time>2010-09-28T08:27:28Z</time>
      </trkpt>
      <trkpt lat="46.1126560" lon="12.4418230">
        <ele>1148.4300000</ele>
        <time>2010-09-28T08:27:34Z</time>
      </trkpt>
      <trkpt lat="46.1126410" lon="12.4417230">
        <ele>1146.5100000</ele>
        <time>2010-09-28T08:27:41Z</time>
      </trkpt>
      <trkpt lat="46.1126370" lon="12.4417100">
        <ele>1146.5100000</ele>
        <time>2010-09-28T08:27:42Z</time>
      </trkpt>
      <trkpt lat="46.1126460" lon="12.4416370">
        <ele>1145.0700000</ele>
        <time>2010-09-28T08:27:46Z</time>
      </trkpt>
      <trkpt lat="46.1126640" lon="12.4413970">
        <ele>1144.1100000</ele>
        <time>2010-09-28T08:27:56Z</time>
      </trkpt>
      <trkpt lat="46.1126630" lon="12.4413830">
        <ele>1144.1100000</ele>
        <time>2010-09-28T08:27:57Z</time>
      </trkpt>
      <trkpt lat="46.1126640" lon="12.4413570">
        <ele>1143.1400000</ele>
        <time>2010-09-28T08:28:00Z</time>
      </trkpt>
      <trkpt lat="46.1126660" lon="12.4412920">
        <ele>1142.6600000</ele>
        <time>2010-09-28T08:28:05Z</time>
      </trkpt>
      <trkpt lat="46.1126200" lon="12.4411740">
        <ele>1139.7800000</ele>
        <time>2010-09-28T08:28:14Z</time>
      </trkpt>
      <trkpt lat="46.1126030" lon="12.4410740">
        <ele>1139.7800000</ele>
        <time>2010-09-28T08:28:21Z</time>
      </trkpt>
      <trkpt lat="46.1125990" lon="12.4410580">
        <ele>1139.7800000</ele>
        <time>2010-09-28T08:28:22Z</time>
      </trkpt>
      <trkpt lat="46.1125960" lon="12.4409650">
        <ele>1137.8600000</ele>
        <time>2010-09-28T08:28:28Z</time>
      </trkpt>
      <trkpt lat="46.1125440" lon="12.4407410">
        <ele>1134.4900000</ele>
        <time>2010-09-28T08:28:35Z</time>
      </trkpt>
      <trkpt lat="46.1125280" lon="12.4406550">
        <ele>1133.5300000</ele>
        <time>2010-09-28T08:28:40Z</time>
      </trkpt>
      <trkpt lat="46.1125220" lon="12.4405190">
        <ele>1132.0900000</ele>
        <time>2010-09-28T08:28:49Z</time>
      </trkpt>
      <trkpt lat="46.1125420" lon="12.4404670">
        <ele>1130.6500000</ele>
        <time>2010-09-28T08:28:55Z</time>
      </trkpt>
      <trkpt lat="46.1125480" lon="12.4403790">
        <ele>1130.6500000</ele>
        <time>2010-09-28T08:29:03Z</time>
      </trkpt>
      <trkpt lat="46.1125430" lon="12.4402710">
        <ele>1129.2100000</ele>
        <time>2010-09-28T08:29:09Z</time>
      </trkpt>
      <trkpt lat="46.1125290" lon="12.4401280">
        <ele>1127.7600000</ele>
        <time>2010-09-28T08:29:18Z</time>
      </trkpt>
      <trkpt lat="46.1125180" lon="12.4400410">
        <ele>1124.8800000</ele>
        <time>2010-09-28T08:29:24Z</time>
      </trkpt>
      <trkpt lat="46.1125090" lon="12.4399370">
        <ele>1123.9200000</ele>
        <time>2010-09-28T08:29:29Z</time>
      </trkpt>
      <trkpt lat="46.1125080" lon="12.4399210">
        <ele>1123.9200000</ele>
        <time>2010-09-28T08:29:30Z</time>
      </trkpt>
      <trkpt lat="46.1124910" lon="12.4397480">
        <ele>1124.4000000</ele>
        <time>2010-09-28T08:29:38Z</time>
      </trkpt>
      <trkpt lat="46.1125060" lon="12.4396750">
        <ele>1122.4800000</ele>
        <time>2010-09-28T08:29:43Z</time>
      </trkpt>
      <trkpt lat="46.1124950" lon="12.4396620">
        <ele>1121.5200000</ele>
        <time>2010-09-28T08:30:18Z</time>
      </trkpt>
      <trkpt lat="46.1124960" lon="12.4395520">
        <ele>1120.0700000</ele>
        <time>2010-09-28T08:30:44Z</time>
      </trkpt>
      <trkpt lat="46.1124620" lon="12.4393970">
        <ele>1117.6700000</ele>
        <time>2010-09-28T08:30:51Z</time>
      </trkpt>
      <trkpt lat="46.1124620" lon="12.4393130">
        <ele>1118.6300000</ele>
        <time>2010-09-28T08:30:56Z</time>
      </trkpt>
      <trkpt lat="46.1124500" lon="12.4391150">
        <ele>1115.7500000</ele>
        <time>2010-09-28T08:31:03Z</time>
      </trkpt>
      <trkpt lat="46.1124600" lon="12.4390770">
        <ele>1116.2300000</ele>
        <time>2010-09-28T08:31:11Z</time>
      </trkpt>
      <trkpt lat="46.1124450" lon="12.4390240">
        <ele>1115.2700000</ele>
        <time>2010-09-28T08:32:38Z</time>
      </trkpt>
      <trkpt lat="46.1124170" lon="12.4389120">
        <ele>1114.7900000</ele>
        <time>2010-09-28T08:32:43Z</time>
      </trkpt>
      <trkpt lat="46.1123950" lon="12.4388000">
        <ele>1113.8200000</ele>
        <time>2010-09-28T08:32:51Z</time>
      </trkpt>
      <trkpt lat="46.1124000" lon="12.4387600">
        <ele>1111.9000000</ele>
        <time>2010-09-28T08:32:55Z</time>
      </trkpt>
      <trkpt lat="46.1124010" lon="12.4387420">
        <ele>1111.4200000</ele>
        <time>2010-09-28T08:32:57Z</time>
      </trkpt>
      <trkpt lat="46.1123880" lon="12.4386180">
        <ele>1109.9800000</ele>
        <time>2010-09-28T08:33:04Z</time>
      </trkpt>
      <trkpt lat="46.1123750" lon="12.4385720">
        <ele>1110.4600000</ele>
        <time>2010-09-28T08:33:07Z</time>
      </trkpt>
      <trkpt lat="46.1123430" lon="12.4384770">
        <ele>1109.0200000</ele>
        <time>2010-09-28T08:33:15Z</time>
      </trkpt>
      <trkpt lat="46.1123160" lon="12.4383650">
        <ele>1106.6100000</ele>
        <time>2010-09-28T08:33:21Z</time>
      </trkpt>
      <trkpt lat="46.1123150" lon="12.4383120">
        <ele>1105.6500000</ele>
        <time>2010-09-28T08:33:23Z</time>
      </trkpt>
      <trkpt lat="46.1123050" lon="12.4382640">
        <ele>1106.1300000</ele>
        <time>2010-09-28T08:33:25Z</time>
      </trkpt>
      <trkpt lat="46.1123110" lon="12.4381300">
        <ele>1104.6900000</ele>
        <time>2010-09-28T08:33:33Z</time>
      </trkpt>
      <trkpt lat="46.1122780" lon="12.4380240">
        <ele>1102.2900000</ele>
        <time>2010-09-28T08:33:40Z</time>
      </trkpt>
      <trkpt lat="46.1122720" lon="12.4379970">
        <ele>1102.2900000</ele>
        <time>2010-09-28T08:33:41Z</time>
      </trkpt>
      <trkpt lat="46.1122630" lon="12.4378910">
        <ele>1101.8100000</ele>
        <time>2010-09-28T08:33:48Z</time>
      </trkpt>
      <trkpt lat="46.1122420" lon="12.4377700">
        <ele>1098.9200000</ele>
        <time>2010-09-28T08:33:56Z</time>
      </trkpt>
      <trkpt lat="46.1121990" lon="12.4377780">
        <ele>1098.9200000</ele>
        <time>2010-09-28T08:34:02Z</time>
      </trkpt>
      <trkpt lat="46.1121920" lon="12.4377830">
        <ele>1097.4800000</ele>
        <time>2010-09-28T08:34:03Z</time>
      </trkpt>
      <trkpt lat="46.1120560" lon="12.4378020">
        <ele>1095.0800000</ele>
        <time>2010-09-28T08:34:11Z</time>
      </trkpt>
      <trkpt lat="46.1119470" lon="12.4378410">
        <ele>1092.6800000</ele>
        <time>2010-09-28T08:34:17Z</time>
      </trkpt>
      <trkpt lat="46.1118730" lon="12.4379160">
        <ele>1090.2700000</ele>
        <time>2010-09-28T08:34:24Z</time>
      </trkpt>
      <trkpt lat="46.1118620" lon="12.4379260">
        <ele>1089.7900000</ele>
        <time>2010-09-28T08:34:25Z</time>
      </trkpt>
      <trkpt lat="46.1118500" lon="12.4379360">
        <ele>1089.3100000</ele>
        <time>2010-09-28T08:34:27Z</time>
      </trkpt>
      <trkpt lat="46.1117570" lon="12.4379990">
        <ele>1088.3500000</ele>
        <time>2010-09-28T08:34:34Z</time>
      </trkpt>
      <trkpt lat="46.1116550" lon="12.4380790">
        <ele>1085.9500000</ele>
        <time>2010-09-28T08:34:42Z</time>
      </trkpt>
      <trkpt lat="46.1116360" lon="12.4381060">
        <ele>1087.3900000</ele>
        <time>2010-09-28T08:34:45Z</time>
      </trkpt>
      <trkpt lat="46.1115800" lon="12.4381740">
        <ele>1086.9100000</ele>
        <time>2010-09-28T08:34:49Z</time>
      </trkpt>
      <trkpt lat="46.1115920" lon="12.4382330">
        <ele>1085.9500000</ele>
        <time>2010-09-28T08:34:54Z</time>
      </trkpt>
      <trkpt lat="46.1115950" lon="12.4383170">
        <ele>1086.9100000</ele>
        <time>2010-09-28T08:34:59Z</time>
      </trkpt>
      <trkpt lat="46.1115070" lon="12.4383640">
        <ele>1086.4300000</ele>
        <time>2010-09-28T08:35:04Z</time>
      </trkpt>
      <trkpt lat="46.1115420" lon="12.4384560">
        <ele>1086.4300000</ele>
        <time>2010-09-28T08:35:12Z</time>
      </trkpt>
      <trkpt lat="46.1115330" lon="12.4385050">
        <ele>1085.9500000</ele>
        <time>2010-09-28T08:35:22Z</time>
      </trkpt>
      <trkpt lat="46.1115330" lon="12.4385050">
        <ele>1082.1000000</ele>
        <time>2010-09-28T08:35:26Z</time>
      </trkpt>
      <trkpt lat="46.1115330" lon="12.4385050">
        <ele>1086.4300000</ele>
        <time>2010-09-28T08:35:27Z</time>
      </trkpt>
      <trkpt lat="46.1115710" lon="12.4385240">
        <ele>1085.9500000</ele>
        <time>2010-09-28T08:35:59Z</time>
      </trkpt>
      <trkpt lat="46.1115510" lon="12.4385310">
        <ele>1085.9500000</ele>
        <time>2010-09-28T08:37:39Z</time>
      </trkpt>
      <trkpt lat="46.1115930" lon="12.4385250">
        <ele>1085.9500000</ele>
        <time>2010-09-28T08:38:22Z</time>
      </trkpt>
      <trkpt lat="46.1115820" lon="12.4385340">
        <ele>1085.9500000</ele>
        <time>2010-09-28T08:38:32Z</time>
      </trkpt>
      <trkpt lat="46.1115790" lon="12.4385380">
        <ele>1086.4300000</ele>
        <time>2010-09-28T08:38:57Z</time>
      </trkpt>
      <trkpt lat="46.1115790" lon="12.4385380">
        <ele>1085.4700000</ele>
        <time>2010-09-28T08:39:16Z</time>
      </trkpt>
      <trkpt lat="46.1116310" lon="12.4386340">
        <ele>1085.4700000</ele>
        <time>2010-09-28T08:41:18Z</time>
      </trkpt>
      <trkpt lat="46.1116010" lon="12.4385650">
        <ele>1085.4700000</ele>
        <time>2010-09-28T08:41:24Z</time>
      </trkpt>
      <trkpt lat="46.1116010" lon="12.4385650">
        <ele>1085.4700000</ele>
        <time>2010-09-28T08:41:30Z</time>
      </trkpt>
      <trkpt lat="46.1115830" lon="12.4385970">
        <ele>1084.9900000</ele>
        <time>2010-09-28T08:41:37Z</time>
      </trkpt>
      <trkpt lat="46.1115830" lon="12.4385970">
        <ele>1084.9900000</ele>
        <time>2010-09-28T08:42:00Z</time>
      </trkpt>
      <trkpt lat="46.1115850" lon="12.4385500">
        <ele>1084.5000000</ele>
        <time>2010-09-28T08:42:07Z</time>
      </trkpt>
      <trkpt lat="46.1115830" lon="12.4385520">
        <ele>1084.5000000</ele>
        <time>2010-09-28T08:42:10Z</time>
      </trkpt>
      <trkpt lat="46.1115840" lon="12.4386260">
        <ele>1083.5400000</ele>
        <time>2010-09-28T08:42:16Z</time>
      </trkpt>
      <trkpt lat="46.1116070" lon="12.4386360">
        <ele>1080.1800000</ele>
        <time>2010-09-28T08:54:59Z</time>
      </trkpt>
      <trkpt lat="46.1116000" lon="12.4386330">
        <ele>1080.6600000</ele>
        <time>2010-09-28T08:55:11Z</time>
      </trkpt>
      <trkpt lat="46.1116000" lon="12.4386330">
        <ele>1081.1400000</ele>
        <time>2010-09-28T08:55:36Z</time>
      </trkpt>
      <trkpt lat="46.1115920" lon="12.4385500">
        <ele>1081.1400000</ele>
        <time>2010-09-28T08:55:43Z</time>
      </trkpt>
      <trkpt lat="46.1115900" lon="12.4385670">
        <ele>1080.6600000</ele>
        <time>2010-09-28T08:55:50Z</time>
      </trkpt>
      <trkpt lat="46.1115890" lon="12.4385720">
        <ele>1080.6600000</ele>
        <time>2010-09-28T08:57:16Z</time>
      </trkpt>
      <trkpt lat="46.1115880" lon="12.4385780">
        <ele>1079.7000000</ele>
        <time>2010-09-28T08:59:15Z</time>
      </trkpt>
      <trkpt lat="46.1115900" lon="12.4385720">
        <ele>1079.2200000</ele>
        <time>2010-09-28T08:59:25Z</time>
      </trkpt>
      <trkpt lat="46.1115990" lon="12.4385710">
        <ele>1079.7000000</ele>
        <time>2010-09-28T08:59:32Z</time>
      </trkpt>
      <trkpt lat="46.1115990" lon="12.4385710">
        <ele>1079.2200000</ele>
        <time>2010-09-28T08:59:42Z</time>
      </trkpt>
      <trkpt lat="46.1115990" lon="12.4385710">
        <ele>1079.2200000</ele>
        <time>2010-09-28T08:59:45Z</time>
      </trkpt>
      <trkpt lat="46.1116190" lon="12.4386240">
        <ele>1078.7400000</ele>
        <time>2010-09-28T08:59:51Z</time>
      </trkpt>
      <trkpt lat="46.1116110" lon="12.4386410">
        <ele>1078.7400000</ele>
        <time>2010-09-28T08:59:53Z</time>
      </trkpt>
      <trkpt lat="46.1115500" lon="12.4387180">
        <ele>1078.7400000</ele>
        <time>2010-09-28T08:59:59Z</time>
      </trkpt>
      <trkpt lat="46.1115350" lon="12.4387740">
        <ele>1078.7400000</ele>
        <time>2010-09-28T09:00:06Z</time>
      </trkpt>
      <trkpt lat="46.1115350" lon="12.4387880">
        <ele>1078.2600000</ele>
        <time>2010-09-28T09:00:15Z</time>
      </trkpt>
      <trkpt lat="46.1115320" lon="12.4387970">
        <ele>1078.2600000</ele>
        <time>2010-09-28T09:00:17Z</time>
      </trkpt>
      <trkpt lat="46.1114620" lon="12.4388710">
        <ele>1077.2900000</ele>
        <time>2010-09-28T09:00:24Z</time>
      </trkpt>
      <trkpt lat="46.1114190" lon="12.4388910">
        <ele>1076.8100000</ele>
        <time>2010-09-28T09:00:29Z</time>
      </trkpt>
      <trkpt lat="46.1114050" lon="12.4388870">
        <ele>1077.2900000</ele>
        <time>2010-09-28T09:00:31Z</time>
      </trkpt>
      <trkpt lat="46.1113620" lon="12.4388680">
        <ele>1075.8500000</ele>
        <time>2010-09-28T09:00:40Z</time>
      </trkpt>
      <trkpt lat="46.1113580" lon="12.4388710">
        <ele>1075.3700000</ele>
        <time>2010-09-28T09:00:49Z</time>
      </trkpt>
      <trkpt lat="46.1113500" lon="12.4388770">
        <ele>1075.3700000</ele>
        <time>2010-09-28T09:00:58Z</time>
      </trkpt>
      <trkpt lat="46.1113280" lon="12.4389100">
        <ele>1075.3700000</ele>
        <time>2010-09-28T09:01:07Z</time>
      </trkpt>
      <trkpt lat="46.1113370" lon="12.4389440">
        <ele>1074.4100000</ele>
        <time>2010-09-28T09:01:12Z</time>
      </trkpt>
      <trkpt lat="46.1113570" lon="12.4389990">
        <ele>1075.3700000</ele>
        <time>2010-09-28T09:01:18Z</time>
      </trkpt>
      <trkpt lat="46.1113670" lon="12.4390240">
        <ele>1076.8100000</ele>
        <time>2010-09-28T09:01:25Z</time>
      </trkpt>
      <trkpt lat="46.1113870" lon="12.4389750">
        <ele>1077.7800000</ele>
        <time>2010-09-28T09:01:34Z</time>
      </trkpt>
      <trkpt lat="46.1113920" lon="12.4389620">
        <ele>1077.2900000</ele>
        <time>2010-09-28T09:01:35Z</time>
      </trkpt>
      <trkpt lat="46.1114400" lon="12.4388690">
        <ele>1077.7800000</ele>
        <time>2010-09-28T09:01:41Z</time>
      </trkpt>
      <trkpt lat="46.1115760" lon="12.4387130">
        <ele>1079.2200000</ele>
        <time>2010-09-28T09:01:49Z</time>
      </trkpt>
      <trkpt lat="46.1115960" lon="12.4386830">
        <ele>1078.7400000</ele>
        <time>2010-09-28T09:01:51Z</time>
      </trkpt>
      <trkpt lat="46.1116220" lon="12.4385500">
        <ele>1078.2600000</ele>
        <time>2010-09-28T09:01:59Z</time>
      </trkpt>
      <trkpt lat="46.1116220" lon="12.4385330">
        <ele>1076.8100000</ele>
        <time>2010-09-28T09:02:05Z</time>
      </trkpt>
      <trkpt lat="46.1115920" lon="12.4384980">
        <ele>1077.2900000</ele>
        <time>2010-09-28T09:02:13Z</time>
      </trkpt>
      <trkpt lat="46.1114990" lon="12.4384350">
        <ele>1077.7800000</ele>
        <time>2010-09-28T09:02:18Z</time>
      </trkpt>
      <trkpt lat="46.1114500" lon="12.4384010">
        <ele>1077.2900000</ele>
        <time>2010-09-28T09:02:26Z</time>
      </trkpt>
      <trkpt lat="46.1114220" lon="12.4383940">
        <ele>1076.3300000</ele>
        <time>2010-09-28T09:02:28Z</time>
      </trkpt>
      <trkpt lat="46.1112450" lon="12.4382760">
        <ele>1075.8500000</ele>
        <time>2010-09-28T09:02:36Z</time>
      </trkpt>
      <trkpt lat="46.1111350" lon="12.4382420">
        <ele>1075.3700000</ele>
        <time>2010-09-28T09:02:42Z</time>
      </trkpt>
      <trkpt lat="46.1110910" lon="12.4382690">
        <ele>1073.9300000</ele>
        <time>2010-09-28T09:02:45Z</time>
      </trkpt>
      <trkpt lat="46.1110220" lon="12.4383190">
        <ele>1073.4500000</ele>
        <time>2010-09-28T09:02:51Z</time>
      </trkpt>
      <trkpt lat="46.1110310" lon="12.4383470">
        <ele>1072.4900000</ele>
        <time>2010-09-28T09:02:53Z</time>
      </trkpt>
      <trkpt lat="46.1110340" lon="12.4384170">
        <ele>1071.5300000</ele>
        <time>2010-09-28T09:02:57Z</time>
      </trkpt>
      <trkpt lat="46.1110140" lon="12.4385430">
        <ele>1069.6000000</ele>
        <time>2010-09-28T09:03:04Z</time>
      </trkpt>
      <trkpt lat="46.1110160" lon="12.4385630">
        <ele>1069.6000000</ele>
        <time>2010-09-28T09:03:05Z</time>
      </trkpt>
      <trkpt lat="46.1110100" lon="12.4386130">
        <ele>1070.0800000</ele>
        <time>2010-09-28T09:03:08Z</time>
      </trkpt>
      <trkpt lat="46.1109470" lon="12.4386840">
        <ele>1070.5700000</ele>
        <time>2010-09-28T09:03:13Z</time>
      </trkpt>
      <trkpt lat="46.1109090" lon="12.4387140">
        <ele>1069.6000000</ele>
        <time>2010-09-28T09:03:16Z</time>
      </trkpt>
      <trkpt lat="46.1108410" lon="12.4388530">
        <ele>1068.6400000</ele>
        <time>2010-09-28T09:03:24Z</time>
      </trkpt>
      <trkpt lat="46.1108080" lon="12.4388800">
        <ele>1068.6400000</ele>
        <time>2010-09-28T09:03:28Z</time>
      </trkpt>
      <trkpt lat="46.1107280" lon="12.4388630">
        <ele>1068.1600000</ele>
        <time>2010-09-28T09:03:38Z</time>
      </trkpt>
      <trkpt lat="46.1106980" lon="12.4388530">
        <ele>1067.6800000</ele>
        <time>2010-09-28T09:03:41Z</time>
      </trkpt>
      <trkpt lat="46.1106620" lon="12.4388610">
        <ele>1066.2400000</ele>
        <time>2010-09-28T09:03:44Z</time>
      </trkpt>
      <trkpt lat="46.1106220" lon="12.4388260">
        <ele>1063.3600000</ele>
        <time>2010-09-28T09:03:50Z</time>
      </trkpt>
      <trkpt lat="46.1106130" lon="12.4388180">
        <ele>1063.3600000</ele>
        <time>2010-09-28T09:03:51Z</time>
      </trkpt>
      <trkpt lat="46.1105550" lon="12.4388200">
        <ele>1064.3200000</ele>
        <time>2010-09-28T09:03:57Z</time>
      </trkpt>
      <trkpt lat="46.1104970" lon="12.4387800">
        <ele>1060.4700000</ele>
        <time>2010-09-28T09:04:01Z</time>
      </trkpt>
      <trkpt lat="46.1104270" lon="12.4387700">
        <ele>1060.4700000</ele>
        <time>2010-09-28T09:04:09Z</time>
      </trkpt>
      <trkpt lat="46.1103880" lon="12.4387800">
        <ele>1059.0300000</ele>
        <time>2010-09-28T09:04:13Z</time>
      </trkpt>
      <trkpt lat="46.1103640" lon="12.4387650">
        <ele>1058.0700000</ele>
        <time>2010-09-28T09:04:16Z</time>
      </trkpt>
      <trkpt lat="46.1103180" lon="12.4387330">
        <ele>1059.5100000</ele>
        <time>2010-09-28T09:04:20Z</time>
      </trkpt>
      <trkpt lat="46.1102270" lon="12.4386400">
        <ele>1056.6300000</ele>
        <time>2010-09-28T09:04:27Z</time>
      </trkpt>
      <trkpt lat="46.1101110" lon="12.4385860">
        <ele>1054.7000000</ele>
        <time>2010-09-28T09:04:35Z</time>
      </trkpt>
      <trkpt lat="46.1101030" lon="12.4385780">
        <ele>1056.6300000</ele>
        <time>2010-09-28T09:04:37Z</time>
      </trkpt>
      <trkpt lat="46.1100390" lon="12.4385460">
        <ele>1056.6300000</ele>
        <time>2010-09-28T09:04:43Z</time>
      </trkpt>
      <trkpt lat="46.1099930" lon="12.4385150">
        <ele>1054.7000000</ele>
        <time>2010-09-28T09:04:49Z</time>
      </trkpt>
      <trkpt lat="46.1099180" lon="12.4383990">
        <ele>1052.3000000</ele>
        <time>2010-09-28T09:04:55Z</time>
      </trkpt>
      <trkpt lat="46.1098590" lon="12.4383860">
        <ele>1052.7800000</ele>
        <time>2010-09-28T09:05:00Z</time>
      </trkpt>
      <trkpt lat="46.1098140" lon="12.4383600">
        <ele>1053.2600000</ele>
        <time>2010-09-28T09:05:08Z</time>
      </trkpt>
      <trkpt lat="46.1097700" lon="12.4383480">
        <ele>1052.3000000</ele>
        <time>2010-09-28T09:05:15Z</time>
      </trkpt>
      <trkpt lat="46.1097560" lon="12.4383500">
        <ele>1052.3000000</ele>
        <time>2010-09-28T09:05:16Z</time>
      </trkpt>
      <trkpt lat="46.1097110" lon="12.4383630">
        <ele>1052.3000000</ele>
        <time>2010-09-28T09:05:22Z</time>
      </trkpt>
      <trkpt lat="46.1096090" lon="12.4383030">
        <ele>1051.3400000</ele>
        <time>2010-09-28T09:05:30Z</time>
      </trkpt>
      <trkpt lat="46.1095510" lon="12.4382790">
        <ele>1049.9000000</ele>
        <time>2010-09-28T09:05:34Z</time>
      </trkpt>
      <trkpt lat="46.1094520" lon="12.4382520">
        <ele>1049.9000000</ele>
        <time>2010-09-28T09:05:43Z</time>
      </trkpt>
      <trkpt lat="46.1094360" lon="12.4382760">
        <ele>1051.3400000</ele>
        <time>2010-09-28T09:05:46Z</time>
      </trkpt>
      <trkpt lat="46.1092950" lon="12.4382390">
        <ele>1050.3800000</ele>
        <time>2010-09-28T09:05:55Z</time>
      </trkpt>
      <trkpt lat="46.1092560" lon="12.4382170">
        <ele>1049.4200000</ele>
        <time>2010-09-28T09:06:00Z</time>
      </trkpt>
      <trkpt lat="46.1091690" lon="12.4381680">
        <ele>1049.4200000</ele>
        <time>2010-09-28T09:06:05Z</time>
      </trkpt>
      <trkpt lat="46.1090420" lon="12.4381850">
        <ele>1050.3800000</ele>
        <time>2010-09-28T09:06:11Z</time>
      </trkpt>
      <trkpt lat="46.1089360" lon="12.4381390">
        <ele>1048.4500000</ele>
        <time>2010-09-28T09:06:22Z</time>
      </trkpt>
      <trkpt lat="46.1089050" lon="12.4381040">
        <ele>1049.4200000</ele>
        <time>2010-09-28T09:06:40Z</time>
      </trkpt>
      <trkpt lat="46.1088410" lon="12.4380330">
        <ele>1048.9400000</ele>
        <time>2010-09-28T09:06:46Z</time>
      </trkpt>
      <trkpt lat="46.1086990" lon="12.4377710">
        <ele>1046.5300000</ele>
        <time>2010-09-28T09:07:10Z</time>
      </trkpt>
      <trkpt lat="46.1085710" lon="12.4377060">
        <ele>1044.1300000</ele>
        <time>2010-09-28T09:07:16Z</time>
      </trkpt>
      <trkpt lat="46.1084900" lon="12.4376680">
        <ele>1047.0100000</ele>
        <time>2010-09-28T09:07:19Z</time>
      </trkpt>
      <trkpt lat="46.1083330" lon="12.4375100">
        <ele>1046.0500000</ele>
        <time>2010-09-28T09:07:28Z</time>
      </trkpt>
      <trkpt lat="46.1083030" lon="12.4374000">
        <ele>1043.6500000</ele>
        <time>2010-09-28T09:07:44Z</time>
      </trkpt>
      <trkpt lat="46.1083100" lon="12.4373620">
        <ele>1043.6500000</ele>
        <time>2010-09-28T09:07:51Z</time>
      </trkpt>
      <trkpt lat="46.1082920" lon="12.4373310">
        <ele>1045.0900000</ele>
        <time>2010-09-28T09:07:53Z</time>
      </trkpt>
      <trkpt lat="46.1082680" lon="12.4371800">
        <ele>1043.6500000</ele>
        <time>2010-09-28T09:08:01Z</time>
      </trkpt>
      <trkpt lat="46.1082400" lon="12.4370690">
        <ele>1041.7300000</ele>
        <time>2010-09-28T09:08:08Z</time>
      </trkpt>
      <trkpt lat="46.1082440" lon="12.4370580">
        <ele>1041.2500000</ele>
        <time>2010-09-28T09:08:09Z</time>
      </trkpt>
      <trkpt lat="46.1082390" lon="12.4370270">
        <ele>1042.6900000</ele>
        <time>2010-09-28T09:08:12Z</time>
      </trkpt>
      <trkpt lat="46.1081990" lon="12.4368810">
        <ele>1040.7600000</ele>
        <time>2010-09-28T09:08:18Z</time>
      </trkpt>
      <trkpt lat="46.1081590" lon="12.4367850">
        <ele>1041.2500000</ele>
        <time>2010-09-28T09:08:26Z</time>
      </trkpt>
      <trkpt lat="46.1081300" lon="12.4364800">
        <ele>1040.7600000</ele>
        <time>2010-09-28T09:08:40Z</time>
      </trkpt>
      <trkpt lat="46.1080850" lon="12.4363280">
        <ele>1039.8000000</ele>
        <time>2010-09-28T09:09:19Z</time>
      </trkpt>
      <trkpt lat="46.1080420" lon="12.4361730">
        <ele>1039.8000000</ele>
        <time>2010-09-28T09:09:25Z</time>
      </trkpt>
      <trkpt lat="46.1079900" lon="12.4359620">
        <ele>1040.2800000</ele>
        <time>2010-09-28T09:09:33Z</time>
      </trkpt>
      <trkpt lat="46.1079570" lon="12.4357680">
        <ele>1040.2800000</ele>
        <time>2010-09-28T09:09:42Z</time>
      </trkpt>
      <trkpt lat="46.1079330" lon="12.4356740">
        <ele>1039.8000000</ele>
        <time>2010-09-28T09:09:49Z</time>
      </trkpt>
      <trkpt lat="46.1079230" lon="12.4356080">
        <ele>1038.3600000</ele>
        <time>2010-09-28T09:10:17Z</time>
      </trkpt>
      <trkpt lat="46.1078720" lon="12.4352360">
        <ele>1037.8800000</ele>
        <time>2010-09-28T09:10:39Z</time>
      </trkpt>
      <trkpt lat="46.1078460" lon="12.4350680">
        <ele>1038.3600000</ele>
        <time>2010-09-28T09:11:56Z</time>
      </trkpt>
      <trkpt lat="46.1078130" lon="12.4349790">
        <ele>1038.3600000</ele>
        <time>2010-09-28T09:11:59Z</time>
      </trkpt>
      <trkpt lat="46.1077100" lon="12.4346370">
        <ele>1037.8800000</ele>
        <time>2010-09-28T09:12:07Z</time>
      </trkpt>
      <trkpt lat="46.1076140" lon="12.4343620">
        <ele>1037.8800000</ele>
        <time>2010-09-28T09:12:17Z</time>
      </trkpt>
      <trkpt lat="46.1076210" lon="12.4343120">
        <ele>1038.3600000</ele>
        <time>2010-09-28T09:12:24Z</time>
      </trkpt>
      <trkpt lat="46.1076460" lon="12.4342710">
        <ele>1037.4000000</ele>
        <time>2010-09-28T09:12:30Z</time>
      </trkpt>
      <trkpt lat="46.1076860" lon="12.4342130">
        <ele>1037.8800000</ele>
        <time>2010-09-28T09:12:36Z</time>
      </trkpt>
      <trkpt lat="46.1076940" lon="12.4341150">
        <ele>1037.4000000</ele>
        <time>2010-09-28T09:12:41Z</time>
      </trkpt>
      <trkpt lat="46.1077190" lon="12.4340060">
        <ele>1037.8800000</ele>
        <time>2010-09-28T09:12:49Z</time>
      </trkpt>
      <trkpt lat="46.1076900" lon="12.4338500">
        <ele>1034.5200000</ele>
        <time>2010-09-28T09:13:44Z</time>
      </trkpt>
      <trkpt lat="46.1077030" lon="12.4337880">
        <ele>1034.0400000</ele>
        <time>2010-09-28T09:13:53Z</time>
      </trkpt>
      <trkpt lat="46.1077480" lon="12.4337350">
        <ele>1033.5500000</ele>
        <time>2010-09-28T09:14:05Z</time>
      </trkpt>
      <trkpt lat="46.1077680" lon="12.4337080">
        <ele>1033.5500000</ele>
        <time>2010-09-28T09:14:08Z</time>
      </trkpt>
      <trkpt lat="46.1078380" lon="12.4336360">
        <ele>1031.1500000</ele>
        <time>2010-09-28T09:14:16Z</time>
      </trkpt>
      <trkpt lat="46.1078900" lon="12.4335260">
        <ele>1032.5900000</ele>
        <time>2010-09-28T09:14:23Z</time>
      </trkpt>
      <trkpt lat="46.1079920" lon="12.4334370">
        <ele>1030.6700000</ele>
        <time>2010-09-28T09:14:30Z</time>
      </trkpt>
      <trkpt lat="46.1080040" lon="12.4333560">
        <ele>1032.1100000</ele>
        <time>2010-09-28T09:14:33Z</time>
      </trkpt>
      <trkpt lat="46.1080290" lon="12.4332180">
        <ele>1031.1500000</ele>
        <time>2010-09-28T09:14:41Z</time>
      </trkpt>
      <trkpt lat="46.1080000" lon="12.4330190">
        <ele>1029.2300000</ele>
        <time>2010-09-28T09:14:50Z</time>
      </trkpt>
      <trkpt lat="46.1080050" lon="12.4329540">
        <ele>1028.7500000</ele>
        <time>2010-09-28T09:15:02Z</time>
      </trkpt>
      <trkpt lat="46.1080600" lon="12.4329760">
        <ele>1028.7500000</ele>
        <time>2010-09-28T09:15:08Z</time>
      </trkpt>
      <trkpt lat="46.1081830" lon="12.4330080">
        <ele>1027.7900000</ele>
        <time>2010-09-28T09:15:17Z</time>
      </trkpt>
      <trkpt lat="46.1082050" lon="12.4330170">
        <ele>1028.2700000</ele>
        <time>2010-09-28T09:15:23Z</time>
      </trkpt>
      <trkpt lat="46.1082150" lon="12.4326050">
        <ele>1025.8600000</ele>
        <time>2010-09-28T09:15:45Z</time>
      </trkpt>
      <trkpt lat="46.1082530" lon="12.4325550">
        <ele>1025.8600000</ele>
        <time>2010-09-28T09:15:56Z</time>
      </trkpt>
      <trkpt lat="46.1083370" lon="12.4326180">
        <ele>1024.4200000</ele>
        <time>2010-09-28T09:16:07Z</time>
      </trkpt>
      <trkpt lat="46.1083840" lon="12.4326470">
        <ele>1024.4200000</ele>
        <time>2010-09-28T09:16:12Z</time>
      </trkpt>
      <trkpt lat="46.1084150" lon="12.4326580">
        <ele>1022.9800000</ele>
        <time>2010-09-28T09:16:15Z</time>
      </trkpt>
      <trkpt lat="46.1084170" lon="12.4326840">
        <ele>1023.9400000</ele>
        <time>2010-09-28T09:16:17Z</time>
      </trkpt>
      <trkpt lat="46.1084650" lon="12.4327640">
        <ele>1023.4600000</ele>
        <time>2010-09-28T09:16:25Z</time>
      </trkpt>
      <trkpt lat="46.1084900" lon="12.4327940">
        <ele>1023.4600000</ele>
        <time>2010-09-28T09:16:33Z</time>
      </trkpt>
      <trkpt lat="46.1085010" lon="12.4328110">
        <ele>1023.4600000</ele>
        <time>2010-09-28T09:16:44Z</time>
      </trkpt>
      <trkpt lat="46.1085010" lon="12.4328110">
        <ele>1021.5400000</ele>
        <time>2010-09-28T09:16:48Z</time>
      </trkpt>
      <trkpt lat="46.1085680" lon="12.4328880">
        <ele>1021.5400000</ele>
        <time>2010-09-28T09:17:00Z</time>
      </trkpt>
      <trkpt lat="46.1086950" lon="12.4329660">
        <ele>1021.0600000</ele>
        <time>2010-09-28T09:17:12Z</time>
      </trkpt>
      <trkpt lat="46.1087800" lon="12.4329690">
        <ele>1019.1300000</ele>
        <time>2010-09-28T09:17:19Z</time>
      </trkpt>
      <trkpt lat="46.1088600" lon="12.4329720">
        <ele>1020.1000000</ele>
        <time>2010-09-28T09:17:26Z</time>
      </trkpt>
      <trkpt lat="46.1088710" lon="12.4329670">
        <ele>1020.5800000</ele>
        <time>2010-09-28T09:17:27Z</time>
      </trkpt>
      <trkpt lat="46.1089270" lon="12.4329880">
        <ele>1019.1300000</ele>
        <time>2010-09-28T09:17:33Z</time>
      </trkpt>
      <trkpt lat="46.1090500" lon="12.4330000">
        <ele>1018.6500000</ele>
        <time>2010-09-28T09:17:42Z</time>
      </trkpt>
      <trkpt lat="46.1091380" lon="12.4330120">
        <ele>1019.1300000</ele>
        <time>2010-09-28T09:17:48Z</time>
      </trkpt>
      <trkpt lat="46.1091860" lon="12.4329930">
        <ele>1019.6200000</ele>
        <time>2010-09-28T09:17:55Z</time>
      </trkpt>
      <trkpt lat="46.1092270" lon="12.4329690">
        <ele>1016.2500000</ele>
        <time>2010-09-28T09:18:02Z</time>
      </trkpt>
      <trkpt lat="46.1092820" lon="12.4329630">
        <ele>1018.6500000</ele>
        <time>2010-09-28T09:18:08Z</time>
      </trkpt>
      <trkpt lat="46.1094120" lon="12.4329350">
        <ele>1017.2100000</ele>
        <time>2010-09-28T09:18:15Z</time>
      </trkpt>
      <trkpt lat="46.1094130" lon="12.4329250">
        <ele>1017.6900000</ele>
        <time>2010-09-28T09:18:16Z</time>
      </trkpt>
      <trkpt lat="46.1094820" lon="12.4328550">
        <ele>1017.6900000</ele>
        <time>2010-09-28T09:18:23Z</time>
      </trkpt>
      <trkpt lat="46.1095630" lon="12.4328410">
        <ele>1016.7300000</ele>
        <time>2010-09-28T09:18:29Z</time>
      </trkpt>
      <trkpt lat="46.1096250" lon="12.4328230">
        <ele>1017.2100000</ele>
        <time>2010-09-28T09:18:35Z</time>
      </trkpt>
      <trkpt lat="46.1096880" lon="12.4328050">
        <ele>1017.6900000</ele>
        <time>2010-09-28T09:18:41Z</time>
      </trkpt>
      <trkpt lat="46.1097840" lon="12.4327620">
        <ele>1016.2500000</ele>
        <time>2010-09-28T09:18:50Z</time>
      </trkpt>
      <trkpt lat="46.1098190" lon="12.4327560">
        <ele>1017.6900000</ele>
        <time>2010-09-28T09:18:53Z</time>
      </trkpt>
      <trkpt lat="46.1098620" lon="12.4327170">
        <ele>1017.2100000</ele>
        <time>2010-09-28T09:19:00Z</time>
      </trkpt>
      <trkpt lat="46.1099610" lon="12.4326940">
        <ele>1016.7300000</ele>
        <time>2010-09-28T09:19:06Z</time>
      </trkpt>
      <trkpt lat="46.1099770" lon="12.4326850">
        <ele>1017.2100000</ele>
        <time>2010-09-28T09:19:12Z</time>
      </trkpt>
      <trkpt lat="46.1100330" lon="12.4326440">
        <ele>1016.7300000</ele>
        <time>2010-09-28T09:19:22Z</time>
      </trkpt>
      <trkpt lat="46.1101030" lon="12.4326000">
        <ele>1016.2500000</ele>
        <time>2010-09-28T09:19:29Z</time>
      </trkpt>
      <trkpt lat="46.1101610" lon="12.4324930">
        <ele>1016.7300000</ele>
        <time>2010-09-28T09:19:35Z</time>
      </trkpt>
      <trkpt lat="46.1102790" lon="12.4323040">
        <ele>1016.2500000</ele>
        <time>2010-09-28T09:19:42Z</time>
      </trkpt>
      <trkpt lat="46.1104080" lon="12.4321720">
        <ele>1015.7700000</ele>
        <time>2010-09-28T09:19:50Z</time>
      </trkpt>
      <trkpt lat="46.1104980" lon="12.4320730">
        <ele>1015.2900000</ele>
        <time>2010-09-28T09:19:57Z</time>
      </trkpt>
      <trkpt lat="46.1105370" lon="12.4319860">
        <ele>1016.2500000</ele>
        <time>2010-09-28T09:20:02Z</time>
      </trkpt>
      <trkpt lat="46.1105380" lon="12.4319280">
        <ele>1014.3300000</ele>
        <time>2010-09-28T09:20:05Z</time>
      </trkpt>
      <trkpt lat="46.1105560" lon="12.4317830">
        <ele>1014.3300000</ele>
        <time>2010-09-28T09:20:11Z</time>
      </trkpt>
      <trkpt lat="46.1105610" lon="12.4316620">
        <ele>1012.8900000</ele>
        <time>2010-09-28T09:20:17Z</time>
      </trkpt>
      <trkpt lat="46.1105940" lon="12.4316020">
        <ele>1012.8900000</ele>
        <time>2010-09-28T09:20:23Z</time>
      </trkpt>
      <trkpt lat="46.1105970" lon="12.4315680">
        <ele>1012.8900000</ele>
        <time>2010-09-28T09:20:25Z</time>
      </trkpt>
      <trkpt lat="46.1106040" lon="12.4313660">
        <ele>1012.8900000</ele>
        <time>2010-09-28T09:20:33Z</time>
      </trkpt>
      <trkpt lat="46.1106470" lon="12.4312570">
        <ele>1011.9300000</ele>
        <time>2010-09-28T09:20:40Z</time>
      </trkpt>
      <trkpt lat="46.1106740" lon="12.4311940">
        <ele>1010.9600000</ele>
        <time>2010-09-28T09:20:45Z</time>
      </trkpt>
      <trkpt lat="46.1106990" lon="12.4311360">
        <ele>1010.9600000</ele>
        <time>2010-09-28T09:20:52Z</time>
      </trkpt>
      <trkpt lat="46.1107170" lon="12.4311230">
        <ele>1011.4400000</ele>
        <time>2010-09-28T09:20:59Z</time>
      </trkpt>
      <trkpt lat="46.1107420" lon="12.4310310">
        <ele>1008.0800000</ele>
        <time>2010-09-28T09:21:07Z</time>
      </trkpt>
      <trkpt lat="46.1107570" lon="12.4310170">
        <ele>1009.0400000</ele>
        <time>2010-09-28T09:21:09Z</time>
      </trkpt>
      <trkpt lat="46.1109160" lon="12.4310360">
        <ele>1007.6000000</ele>
        <time>2010-09-28T09:21:19Z</time>
      </trkpt>
      <trkpt lat="46.1109360" lon="12.4310000">
        <ele>1007.6000000</ele>
        <time>2010-09-28T09:21:23Z</time>
      </trkpt>
      <trkpt lat="46.1109460" lon="12.4308480">
        <ele>1006.1600000</ele>
        <time>2010-09-28T09:21:30Z</time>
      </trkpt>
      <trkpt lat="46.1109480" lon="12.4308340">
        <ele>1006.1600000</ele>
        <time>2010-09-28T09:21:31Z</time>
      </trkpt>
      <trkpt lat="46.1109690" lon="12.4306800">
        <ele>1005.6800000</ele>
        <time>2010-09-28T09:21:38Z</time>
      </trkpt>
      <trkpt lat="46.1109850" lon="12.4306490">
        <ele>1005.6800000</ele>
        <time>2010-09-28T09:21:47Z</time>
      </trkpt>
      <trkpt lat="46.1110240" lon="12.4305730">
        <ele>1008.5600000</ele>
        <time>2010-09-28T09:22:03Z</time>
      </trkpt>
      <trkpt lat="46.1109900" lon="12.4305240">
        <ele>1011.9300000</ele>
        <time>2010-09-28T09:22:34Z</time>
      </trkpt>
      <trkpt lat="46.1108520" lon="12.4303650">
        <ele>1014.8100000</ele>
        <time>2010-09-28T09:22:59Z</time>
      </trkpt>
      <trkpt lat="46.1108500" lon="12.4302770">
        <ele>1014.3300000</ele>
        <time>2010-09-28T09:23:06Z</time>
      </trkpt>
      <trkpt lat="46.1108330" lon="12.4302430">
        <ele>1015.7700000</ele>
        <time>2010-09-28T09:23:12Z</time>
      </trkpt>
      <trkpt lat="46.1108300" lon="12.4301970">
        <ele>1015.2900000</ele>
        <time>2010-09-28T09:23:22Z</time>
      </trkpt>
      <trkpt lat="46.1107630" lon="12.4299940">
        <ele>1017.6900000</ele>
        <time>2010-09-28T09:23:53Z</time>
      </trkpt>
      <trkpt lat="46.1107140" lon="12.4298890">
        <ele>1018.6500000</ele>
        <time>2010-09-28T09:24:04Z</time>
      </trkpt>
      <trkpt lat="46.1107070" lon="12.4298820">
        <ele>1018.6500000</ele>
        <time>2010-09-28T09:24:05Z</time>
      </trkpt>
      <trkpt lat="46.1106280" lon="12.4296220">
        <ele>1022.0200000</ele>
        <time>2010-09-28T09:24:37Z</time>
      </trkpt>
      <trkpt lat="46.1105580" lon="12.4295280">
        <ele>1024.9000000</ele>
        <time>2010-09-28T09:25:06Z</time>
      </trkpt>
      <trkpt lat="46.1105880" lon="12.4294760">
        <ele>1025.8600000</ele>
        <time>2010-09-28T09:25:17Z</time>
      </trkpt>
      <trkpt lat="46.1105810" lon="12.4294490">
        <ele>1029.2300000</ele>
        <time>2010-09-28T09:25:37Z</time>
      </trkpt>
      <trkpt lat="46.1105210" lon="12.4293620">
        <ele>1032.5900000</ele>
        <time>2010-09-28T09:26:05Z</time>
      </trkpt>
      <trkpt lat="46.1105130" lon="12.4293520">
        <ele>1032.5900000</ele>
        <time>2010-09-28T09:26:06Z</time>
      </trkpt>
      <trkpt lat="46.1102990" lon="12.4291720">
        <ele>1032.1100000</ele>
        <time>2010-09-28T09:26:26Z</time>
      </trkpt>
      <trkpt lat="46.1101400" lon="12.4290100">
        <ele>1031.1500000</ele>
        <time>2010-09-28T09:26:33Z</time>
      </trkpt>
      <trkpt lat="46.1101090" lon="12.4289470">
        <ele>1031.6300000</ele>
        <time>2010-09-28T09:26:39Z</time>
      </trkpt>
      <trkpt lat="46.1100500" lon="12.4288420">
        <ele>1029.7100000</ele>
        <time>2010-09-28T09:31:22Z</time>
      </trkpt>
      <trkpt lat="46.1100060" lon="12.4286310">
        <ele>1030.1900000</ele>
        <time>2010-09-28T09:31:33Z</time>
      </trkpt>
      <trkpt lat="46.1099990" lon="12.4285120">
        <ele>1030.6700000</ele>
        <time>2010-09-28T09:31:39Z</time>
      </trkpt>
      <trkpt lat="46.1099570" lon="12.4283500">
        <ele>1031.1500000</ele>
        <time>2010-09-28T09:31:47Z</time>
      </trkpt>
      <trkpt lat="46.1099340" lon="12.4282300">
        <ele>1027.3100000</ele>
        <time>2010-09-28T09:31:55Z</time>
      </trkpt>
      <trkpt lat="46.1099290" lon="12.4282210">
        <ele>1027.7900000</ele>
        <time>2010-09-28T09:31:56Z</time>
      </trkpt>
      <trkpt lat="46.1098950" lon="12.4281000">
        <ele>1031.1500000</ele>
        <time>2010-09-28T09:32:03Z</time>
      </trkpt>
      <trkpt lat="46.1098780" lon="12.4280150">
        <ele>1029.2300000</ele>
        <time>2010-09-28T09:32:08Z</time>
      </trkpt>
      <trkpt lat="46.1098500" lon="12.4278890">
        <ele>1027.3100000</ele>
        <time>2010-09-28T09:32:15Z</time>
      </trkpt>
      <trkpt lat="46.1097970" lon="12.4277660">
        <ele>1027.3100000</ele>
        <time>2010-09-28T09:32:24Z</time>
      </trkpt>
      <trkpt lat="46.1097950" lon="12.4277260">
        <ele>1026.8300000</ele>
        <time>2010-09-28T09:32:28Z</time>
      </trkpt>
      <trkpt lat="46.1097950" lon="12.4276370">
        <ele>1027.3100000</ele>
        <time>2010-09-28T09:32:35Z</time>
      </trkpt>
      <trkpt lat="46.1097810" lon="12.4275910">
        <ele>1027.7900000</ele>
        <time>2010-09-28T09:32:41Z</time>
      </trkpt>
      <trkpt lat="46.1097640" lon="12.4275530">
        <ele>1027.7900000</ele>
        <time>2010-09-28T09:32:47Z</time>
      </trkpt>
      <trkpt lat="46.1096810" lon="12.4274340">
        <ele>1028.2700000</ele>
        <time>2010-09-28T09:32:54Z</time>
      </trkpt>
      <trkpt lat="46.1096690" lon="12.4274020">
        <ele>1028.7500000</ele>
        <time>2010-09-28T09:32:56Z</time>
      </trkpt>
      <trkpt lat="46.1096210" lon="12.4273570">
        <ele>1027.3100000</ele>
        <time>2010-09-28T09:33:00Z</time>
      </trkpt>
      <trkpt lat="46.1095620" lon="12.4272680">
        <ele>1028.7500000</ele>
        <time>2010-09-28T09:33:06Z</time>
      </trkpt>
      <trkpt lat="46.1095140" lon="12.4271710">
        <ele>1024.9000000</ele>
        <time>2010-09-28T09:33:13Z</time>
      </trkpt>
      <trkpt lat="46.1095090" lon="12.4271600">
        <ele>1026.3400000</ele>
        <time>2010-09-28T09:33:14Z</time>
      </trkpt>
      <trkpt lat="46.1094960" lon="12.4271340">
        <ele>1028.2700000</ele>
        <time>2010-09-28T09:33:17Z</time>
      </trkpt>
      <trkpt lat="46.1094470" lon="12.4270430">
        <ele>1025.3800000</ele>
        <time>2010-09-28T09:33:24Z</time>
      </trkpt>
      <trkpt lat="46.1094020" lon="12.4268860">
        <ele>1025.8600000</ele>
        <time>2010-09-28T09:33:31Z</time>
      </trkpt>
      <trkpt lat="46.1092810" lon="12.4267900">
        <ele>1026.3400000</ele>
        <time>2010-09-28T09:33:39Z</time>
      </trkpt>
      <trkpt lat="46.1092100" lon="12.4267390">
        <ele>1026.3400000</ele>
        <time>2010-09-28T09:33:45Z</time>
      </trkpt>
      <trkpt lat="46.1091760" lon="12.4266820">
        <ele>1025.8600000</ele>
        <time>2010-09-28T09:33:52Z</time>
      </trkpt>
      <trkpt lat="46.1091270" lon="12.4266560">
        <ele>1026.3400000</ele>
        <time>2010-09-28T09:33:59Z</time>
      </trkpt>
      <trkpt lat="46.1091250" lon="12.4266530">
        <ele>1026.3400000</ele>
        <time>2010-09-28T09:34:00Z</time>
      </trkpt>
      <trkpt lat="46.1091050" lon="12.4266120">
        <ele>1026.8300000</ele>
        <time>2010-09-28T09:34:16Z</time>
      </trkpt>
      <trkpt lat="46.1090660" lon="12.4265490">
        <ele>1027.3100000</ele>
        <time>2010-09-28T09:34:22Z</time>
      </trkpt>
      <trkpt lat="46.1090090" lon="12.4265010">
        <ele>1027.3100000</ele>
        <time>2010-09-28T09:34:27Z</time>
      </trkpt>
      <trkpt lat="46.1089510" lon="12.4264640">
        <ele>1027.7900000</ele>
        <time>2010-09-28T09:34:32Z</time>
      </trkpt>
      <trkpt lat="46.1089110" lon="12.4264190">
        <ele>1025.8600000</ele>
        <time>2010-09-28T09:34:36Z</time>
      </trkpt>
      <trkpt lat="46.1087500" lon="12.4262980">
        <ele>1025.8600000</ele>
        <time>2010-09-28T09:34:54Z</time>
      </trkpt>
      <trkpt lat="46.1087100" lon="12.4262020">
        <ele>1026.8300000</ele>
        <time>2010-09-28T09:35:00Z</time>
      </trkpt>
      <trkpt lat="46.1086760" lon="12.4261470">
        <ele>1024.4200000</ele>
        <time>2010-09-28T09:35:04Z</time>
      </trkpt>
      <trkpt lat="46.1086470" lon="12.4261210">
        <ele>1022.9800000</ele>
        <time>2010-09-28T09:35:07Z</time>
      </trkpt>
      <trkpt lat="46.1086210" lon="12.4260980">
        <ele>1024.9000000</ele>
        <time>2010-09-28T09:35:10Z</time>
      </trkpt>
      <trkpt lat="46.1085680" lon="12.4260380">
        <ele>1021.5400000</ele>
        <time>2010-09-28T09:35:16Z</time>
      </trkpt>
      <trkpt lat="46.1085570" lon="12.4260240">
        <ele>1021.5400000</ele>
        <time>2010-09-28T09:35:17Z</time>
      </trkpt>
      <trkpt lat="46.1084440" lon="12.4259270">
        <ele>1020.5800000</ele>
        <time>2010-09-28T09:35:31Z</time>
      </trkpt>
      <trkpt lat="46.1084080" lon="12.4258870">
        <ele>1017.2100000</ele>
        <time>2010-09-28T09:35:33Z</time>
      </trkpt>
      <trkpt lat="46.1083880" lon="12.4258100">
        <ele>1017.2100000</ele>
        <time>2010-09-28T09:35:38Z</time>
      </trkpt>
      <trkpt lat="46.1083230" lon="12.4256650">
        <ele>1017.2100000</ele>
        <time>2010-09-28T09:35:43Z</time>
      </trkpt>
      <trkpt lat="46.1083060" lon="12.4256120">
        <ele>1015.2900000</ele>
        <time>2010-09-28T09:35:48Z</time>
      </trkpt>
      <trkpt lat="46.1083040" lon="12.4255870">
        <ele>1014.8100000</ele>
        <time>2010-09-28T09:35:50Z</time>
      </trkpt>
      <trkpt lat="46.1083150" lon="12.4254680">
        <ele>1012.8900000</ele>
        <time>2010-09-28T09:35:58Z</time>
      </trkpt>
      <trkpt lat="46.1083280" lon="12.4253640">
        <ele>1012.4100000</ele>
        <time>2010-09-28T09:36:03Z</time>
      </trkpt>
      <trkpt lat="46.1083140" lon="12.4252530">
        <ele>1010.0000000</ele>
        <time>2010-09-28T09:36:09Z</time>
      </trkpt>
      <trkpt lat="46.1082910" lon="12.4252100">
        <ele>1006.6400000</ele>
        <time>2010-09-28T09:36:16Z</time>
      </trkpt>
      <trkpt lat="46.1082880" lon="12.4252050">
        <ele>1006.6400000</ele>
        <time>2010-09-28T09:36:17Z</time>
      </trkpt>
      <trkpt lat="46.1082790" lon="12.4251290">
        <ele>1005.6800000</ele>
        <time>2010-09-28T09:36:25Z</time>
      </trkpt>
      <trkpt lat="46.1082180" lon="12.4248830">
        <ele>1004.2300000</ele>
        <time>2010-09-28T09:36:41Z</time>
      </trkpt>
      <trkpt lat="46.1081560" lon="12.4246770">
        <ele>1000.8700000</ele>
        <time>2010-09-28T09:36:54Z</time>
      </trkpt>
      <trkpt lat="46.1081210" lon="12.4244250">
        <ele>1001.3500000</ele>
        <time>2010-09-28T09:37:12Z</time>
      </trkpt>
      <trkpt lat="46.1080880" lon="12.4241920">
        <ele>1004.7200000</ele>
        <time>2010-09-28T09:37:45Z</time>
      </trkpt>
      <trkpt lat="46.1080600" lon="12.4241370">
        <ele>1005.6800000</ele>
        <time>2010-09-28T09:37:55Z</time>
      </trkpt>
      <trkpt lat="46.1080750" lon="12.4240360">
        <ele>1006.6400000</ele>
        <time>2010-09-28T09:38:04Z</time>
      </trkpt>
      <trkpt lat="46.1079950" lon="12.4239410">
        <ele>1010.0000000</ele>
        <time>2010-09-28T09:38:28Z</time>
      </trkpt>
      <trkpt lat="46.1079100" lon="12.4238040">
        <ele>1012.8900000</ele>
        <time>2010-09-28T09:38:52Z</time>
      </trkpt>
      <trkpt lat="46.1078820" lon="12.4236690">
        <ele>1013.3700000</ele>
        <time>2010-09-28T09:39:04Z</time>
      </trkpt>
      <trkpt lat="46.1078720" lon="12.4235570">
        <ele>1013.8500000</ele>
        <time>2010-09-28T09:39:11Z</time>
      </trkpt>
      <trkpt lat="46.1078180" lon="12.4234750">
        <ele>1014.8100000</ele>
        <time>2010-09-28T09:39:22Z</time>
      </trkpt>
      <trkpt lat="46.1078140" lon="12.4233180">
        <ele>1017.6900000</ele>
        <time>2010-09-28T09:39:46Z</time>
      </trkpt>
      <trkpt lat="46.1077960" lon="12.4232450">
        <ele>1017.6900000</ele>
        <time>2010-09-28T09:39:54Z</time>
      </trkpt>
      <trkpt lat="46.1077930" lon="12.4231430">
        <ele>1018.6500000</ele>
        <time>2010-09-28T09:40:02Z</time>
      </trkpt>
      <trkpt lat="46.1077900" lon="12.4230800">
        <ele>1019.6200000</ele>
        <time>2010-09-28T09:40:07Z</time>
      </trkpt>
      <trkpt lat="46.1077920" lon="12.4230090">
        <ele>1020.1000000</ele>
        <time>2010-09-28T09:40:14Z</time>
      </trkpt>
      <trkpt lat="46.1078060" lon="12.4229350">
        <ele>1021.0600000</ele>
        <time>2010-09-28T09:40:24Z</time>
      </trkpt>
      <trkpt lat="46.1078150" lon="12.4229180">
        <ele>1022.5000000</ele>
        <time>2010-09-28T09:40:30Z</time>
      </trkpt>
      <trkpt lat="46.1078240" lon="12.4228250">
        <ele>1022.5000000</ele>
        <time>2010-09-28T09:40:36Z</time>
      </trkpt>
      <trkpt lat="46.1078700" lon="12.4226460">
        <ele>1023.4600000</ele>
        <time>2010-09-28T09:40:45Z</time>
      </trkpt>
      <trkpt lat="46.1079280" lon="12.4225160">
        <ele>1023.9400000</ele>
        <time>2010-09-28T09:41:00Z</time>
      </trkpt>
      <trkpt lat="46.1079660" lon="12.4224430">
        <ele>1023.9400000</ele>
        <time>2010-09-28T09:41:18Z</time>
      </trkpt>
      <trkpt lat="46.1079850" lon="12.4223820">
        <ele>1024.9000000</ele>
        <time>2010-09-28T09:41:59Z</time>
      </trkpt>
      <trkpt lat="46.1080180" lon="12.4222780">
        <ele>1024.9000000</ele>
        <time>2010-09-28T09:42:08Z</time>
      </trkpt>
      <trkpt lat="46.1080310" lon="12.4222150">
        <ele>1024.4200000</ele>
        <time>2010-09-28T09:42:15Z</time>
      </trkpt>
      <trkpt lat="46.1080390" lon="12.4220940">
        <ele>1024.4200000</ele>
        <time>2010-09-28T09:42:24Z</time>
      </trkpt>
      <trkpt lat="46.1080430" lon="12.4218790">
        <ele>1022.9800000</ele>
        <time>2010-09-28T09:42:46Z</time>
      </trkpt>
      <trkpt lat="46.1080680" lon="12.4218350">
        <ele>1024.4200000</ele>
        <time>2010-09-28T09:42:56Z</time>
      </trkpt>
      <trkpt lat="46.1080840" lon="12.4218100">
        <ele>1022.5000000</ele>
        <time>2010-09-28T09:42:59Z</time>
      </trkpt>
      <trkpt lat="46.1080860" lon="12.4217420">
        <ele>1022.9800000</ele>
        <time>2010-09-28T09:43:05Z</time>
      </trkpt>
      <trkpt lat="46.1081210" lon="12.4216150">
        <ele>1021.5400000</ele>
        <time>2010-09-28T09:43:11Z</time>
      </trkpt>
      <trkpt lat="46.1081600" lon="12.4215290">
        <ele>1021.5400000</ele>
        <time>2010-09-28T09:43:17Z</time>
      </trkpt>
      <trkpt lat="46.1082110" lon="12.4213930">
        <ele>1021.0600000</ele>
        <time>2010-09-28T09:43:24Z</time>
      </trkpt>
      <trkpt lat="46.1082210" lon="12.4213530">
        <ele>1022.0200000</ele>
        <time>2010-09-28T09:43:26Z</time>
      </trkpt>
      <trkpt lat="46.1082520" lon="12.4213230">
        <ele>1020.5800000</ele>
        <time>2010-09-28T09:43:29Z</time>
      </trkpt>
      <trkpt lat="46.1082990" lon="12.4212240">
        <ele>1017.6900000</ele>
        <time>2010-09-28T09:43:34Z</time>
      </trkpt>
      <trkpt lat="46.1083040" lon="12.4211830">
        <ele>1020.1000000</ele>
        <time>2010-09-28T09:43:36Z</time>
      </trkpt>
      <trkpt lat="46.1083050" lon="12.4211650">
        <ele>1020.1000000</ele>
        <time>2010-09-28T09:43:37Z</time>
      </trkpt>
      <trkpt lat="46.1083230" lon="12.4210880">
        <ele>1020.1000000</ele>
        <time>2010-09-28T09:43:44Z</time>
      </trkpt>
      <trkpt lat="46.1083500" lon="12.4210330">
        <ele>1018.1700000</ele>
        <time>2010-09-28T09:43:59Z</time>
      </trkpt>
      <trkpt lat="46.1084030" lon="12.4209760">
        <ele>1017.6900000</ele>
        <time>2010-09-28T09:44:07Z</time>
      </trkpt>
      <trkpt lat="46.1084140" lon="12.4209080">
        <ele>1017.2100000</ele>
        <time>2010-09-28T09:44:10Z</time>
      </trkpt>
      <trkpt lat="46.1084380" lon="12.4207920">
        <ele>1017.2100000</ele>
        <time>2010-09-28T09:44:19Z</time>
      </trkpt>
      <trkpt lat="46.1084550" lon="12.4207550">
        <ele>1017.2100000</ele>
        <time>2010-09-28T09:44:34Z</time>
      </trkpt>
      <trkpt lat="46.1084830" lon="12.4205420">
        <ele>1016.2500000</ele>
        <time>2010-09-28T09:44:49Z</time>
      </trkpt>
      <trkpt lat="46.1084780" lon="12.4204340">
        <ele>1017.6900000</ele>
        <time>2010-09-28T09:44:54Z</time>
      </trkpt>
      <trkpt lat="46.1083930" lon="12.4202060">
        <ele>1017.2100000</ele>
        <time>2010-09-28T09:45:04Z</time>
      </trkpt>
      <trkpt lat="46.1083720" lon="12.4201350">
        <ele>1018.1700000</ele>
        <time>2010-09-28T09:45:14Z</time>
      </trkpt>
      <trkpt lat="46.1083000" lon="12.4200130">
        <ele>1020.1000000</ele>
        <time>2010-09-28T09:45:35Z</time>
      </trkpt>
      <trkpt lat="46.1082790" lon="12.4196950">
        <ele>1020.1000000</ele>
        <time>2010-09-28T09:46:17Z</time>
      </trkpt>
      <trkpt lat="46.1082050" lon="12.4193160">
        <ele>1022.0200000</ele>
        <time>2010-09-28T09:46:48Z</time>
      </trkpt>
      <trkpt lat="46.1082550" lon="12.4191640">
        <ele>1023.4600000</ele>
        <time>2010-09-28T09:47:01Z</time>
      </trkpt>
      <trkpt lat="46.1082630" lon="12.4188900">
        <ele>1026.3400000</ele>
        <time>2010-09-28T09:47:36Z</time>
      </trkpt>
      <trkpt lat="46.1082760" lon="12.4186690">
        <ele>1027.3100000</ele>
        <time>2010-09-28T09:47:52Z</time>
      </trkpt>
      <trkpt lat="46.1082860" lon="12.4184890">
        <ele>1028.7500000</ele>
        <time>2010-09-28T09:48:02Z</time>
      </trkpt>
      <trkpt lat="46.1083210" lon="12.4182050">
        <ele>1029.2300000</ele>
        <time>2010-09-28T09:48:28Z</time>
      </trkpt>
      <trkpt lat="46.1083430" lon="12.4179240">
        <ele>1030.6700000</ele>
        <time>2010-09-28T09:48:49Z</time>
      </trkpt>
      <trkpt lat="46.1082750" lon="12.4175960">
        <ele>1034.5200000</ele>
        <time>2010-09-28T09:49:37Z</time>
      </trkpt>
      <trkpt lat="46.1081960" lon="12.4174840">
        <ele>1034.5200000</ele>
        <time>2010-09-28T09:49:50Z</time>
      </trkpt>
      <trkpt lat="46.1081050" lon="12.4171630">
        <ele>1036.4400000</ele>
        <time>2010-09-28T09:50:12Z</time>
      </trkpt>
      <trkpt lat="46.1080250" lon="12.4170970">
        <ele>1039.8000000</ele>
        <time>2010-09-28T09:50:49Z</time>
      </trkpt>
      <trkpt lat="46.1078010" lon="12.4165330">
        <ele>1043.1700000</ele>
        <time>2010-09-28T09:51:36Z</time>
      </trkpt>
      <trkpt lat="46.1077220" lon="12.4164120">
        <ele>1042.2100000</ele>
        <time>2010-09-28T09:51:41Z</time>
      </trkpt>
      <trkpt lat="46.1076780" lon="12.4163660">
        <ele>1042.2100000</ele>
        <time>2010-09-28T09:51:49Z</time>
      </trkpt>
      <trkpt lat="46.1075740" lon="12.4162410">
        <ele>1045.0900000</ele>
        <time>2010-09-28T09:52:20Z</time>
      </trkpt>
      <trkpt lat="46.1074860" lon="12.4161780">
        <ele>1045.5700000</ele>
        <time>2010-09-28T09:52:31Z</time>
      </trkpt>
      <trkpt lat="46.1074360" lon="12.4160890">
        <ele>1046.0500000</ele>
        <time>2010-09-28T09:52:36Z</time>
      </trkpt>
      <trkpt lat="46.1073930" lon="12.4159870">
        <ele>1047.0100000</ele>
        <time>2010-09-28T09:52:42Z</time>
      </trkpt>
      <trkpt lat="46.1073800" lon="12.4159580">
        <ele>1046.5300000</ele>
        <time>2010-09-28T09:52:47Z</time>
      </trkpt>
      <trkpt lat="46.1073180" lon="12.4158780">
        <ele>1047.4900000</ele>
        <time>2010-09-28T09:52:54Z</time>
      </trkpt>
      <trkpt lat="46.1072840" lon="12.4158080">
        <ele>1048.9400000</ele>
        <time>2010-09-28T09:53:00Z</time>
      </trkpt>
      <trkpt lat="46.1072740" lon="12.4157050">
        <ele>1048.9400000</ele>
        <time>2010-09-28T09:53:07Z</time>
      </trkpt>
      <trkpt lat="46.1072370" lon="12.4156090">
        <ele>1048.9400000</ele>
        <time>2010-09-28T09:53:14Z</time>
      </trkpt>
      <trkpt lat="46.1072050" lon="12.4155720">
        <ele>1049.4200000</ele>
        <time>2010-09-28T09:53:21Z</time>
      </trkpt>
      <trkpt lat="46.1071810" lon="12.4155160">
        <ele>1050.3800000</ele>
        <time>2010-09-28T09:53:29Z</time>
      </trkpt>
      <trkpt lat="46.1071650" lon="12.4154910">
        <ele>1050.3800000</ele>
        <time>2010-09-28T09:53:33Z</time>
      </trkpt>
      <trkpt lat="46.1071220" lon="12.4154530">
        <ele>1050.3800000</ele>
        <time>2010-09-28T09:53:37Z</time>
      </trkpt>
      <trkpt lat="46.1070410" lon="12.4153960">
        <ele>1051.3400000</ele>
        <time>2010-09-28T09:53:44Z</time>
      </trkpt>
      <trkpt lat="46.1069890" lon="12.4153420">
        <ele>1051.8200000</ele>
        <time>2010-09-28T09:53:50Z</time>
      </trkpt>
      <trkpt lat="46.1069660" lon="12.4153000">
        <ele>1051.3400000</ele>
        <time>2010-09-28T09:53:55Z</time>
      </trkpt>
      <trkpt lat="46.1069420" lon="12.4152640">
        <ele>1051.8200000</ele>
        <time>2010-09-28T09:54:06Z</time>
      </trkpt>
      <trkpt lat="46.1069150" lon="12.4152520">
        <ele>1052.7800000</ele>
        <time>2010-09-28T09:54:11Z</time>
      </trkpt>
      <trkpt lat="46.1069020" lon="12.4151990">
        <ele>1052.7800000</ele>
        <time>2010-09-28T09:54:20Z</time>
      </trkpt>
      <trkpt lat="46.1068560" lon="12.4150710">
        <ele>1054.2200000</ele>
        <time>2010-09-28T09:54:27Z</time>
      </trkpt>
      <trkpt lat="46.1067900" lon="12.4149700">
        <ele>1053.7400000</ele>
        <time>2010-09-28T09:54:36Z</time>
      </trkpt>
      <trkpt lat="46.1067590" lon="12.4149140">
        <ele>1053.7400000</ele>
        <time>2010-09-28T09:54:41Z</time>
      </trkpt>
      <trkpt lat="46.1067460" lon="12.4148640">
        <ele>1055.1800000</ele>
        <time>2010-09-28T09:54:50Z</time>
      </trkpt>
      <trkpt lat="46.1067220" lon="12.4148480">
        <ele>1055.6700000</ele>
        <time>2010-09-28T09:54:57Z</time>
      </trkpt>
      <trkpt lat="46.1067080" lon="12.4148350">
        <ele>1055.6700000</ele>
        <time>2010-09-28T09:54:58Z</time>
      </trkpt>
      <trkpt lat="46.1066400" lon="12.4147630">
        <ele>1056.1500000</ele>
        <time>2010-09-28T09:55:06Z</time>
      </trkpt>
      <trkpt lat="46.1065970" lon="12.4147020">
        <ele>1056.1500000</ele>
        <time>2010-09-28T09:55:12Z</time>
      </trkpt>
      <trkpt lat="46.1065460" lon="12.4146590">
        <ele>1056.1500000</ele>
        <time>2010-09-28T09:55:18Z</time>
      </trkpt>
      <trkpt lat="46.1064750" lon="12.4145610">
        <ele>1056.1500000</ele>
        <time>2010-09-28T09:55:27Z</time>
      </trkpt>
      <trkpt lat="46.1064440" lon="12.4145070">
        <ele>1056.1500000</ele>
        <time>2010-09-28T09:55:33Z</time>
      </trkpt>
      <trkpt lat="46.1064280" lon="12.4143890">
        <ele>1056.6300000</ele>
        <time>2010-09-28T09:55:40Z</time>
      </trkpt>
      <trkpt lat="46.1063800" lon="12.4142980">
        <ele>1056.6300000</ele>
        <time>2010-09-28T09:55:49Z</time>
      </trkpt>
      <trkpt lat="46.1063030" lon="12.4142020">
        <ele>1057.5900000</ele>
        <time>2010-09-28T09:56:03Z</time>
      </trkpt>
      <trkpt lat="46.1062840" lon="12.4141820">
        <ele>1058.0700000</ele>
        <time>2010-09-28T09:56:16Z</time>
      </trkpt>
      <trkpt lat="46.1062550" lon="12.4141810">
        <ele>1057.5900000</ele>
        <time>2010-09-28T09:56:45Z</time>
      </trkpt>
      <trkpt lat="46.1062110" lon="12.4141350">
        <ele>1059.0300000</ele>
        <time>2010-09-28T09:56:51Z</time>
      </trkpt>
      <trkpt lat="46.1062030" lon="12.4141030">
        <ele>1059.0300000</ele>
        <time>2010-09-28T09:56:54Z</time>
      </trkpt>
      <trkpt lat="46.1061850" lon="12.4140190">
        <ele>1059.5100000</ele>
        <time>2010-09-28T09:57:01Z</time>
      </trkpt>
      <trkpt lat="46.1061680" lon="12.4139740">
        <ele>1059.0300000</ele>
        <time>2010-09-28T09:57:09Z</time>
      </trkpt>
      <trkpt lat="46.1061510" lon="12.4139210">
        <ele>1059.0300000</ele>
        <time>2010-09-28T09:57:34Z</time>
      </trkpt>
      <trkpt lat="46.1061140" lon="12.4138780">
        <ele>1059.9900000</ele>
        <time>2010-09-28T09:57:40Z</time>
      </trkpt>
      <trkpt lat="46.1061040" lon="12.4138100">
        <ele>1059.9900000</ele>
        <time>2010-09-28T09:57:46Z</time>
      </trkpt>
      <trkpt lat="46.1061130" lon="12.4137480">
        <ele>1059.5100000</ele>
        <time>2010-09-28T09:57:53Z</time>
      </trkpt>
      <trkpt lat="46.1061040" lon="12.4137620">
        <ele>1058.0700000</ele>
        <time>2010-09-28T09:58:44Z</time>
      </trkpt>
      <trkpt lat="46.1060660" lon="12.4138200">
        <ele>1058.5500000</ele>
        <time>2010-09-28T09:58:50Z</time>
      </trkpt>
      <trkpt lat="46.1060670" lon="12.4138480">
        <ele>1058.5500000</ele>
        <time>2010-09-28T09:58:54Z</time>
      </trkpt>
      <trkpt lat="46.1060910" lon="12.4138860">
        <ele>1058.0700000</ele>
        <time>2010-09-28T09:59:02Z</time>
      </trkpt>
      <trkpt lat="46.1060850" lon="12.4138740">
        <ele>1058.5500000</ele>
        <time>2010-09-28T09:59:35Z</time>
      </trkpt>
      <trkpt lat="46.1060820" lon="12.4138700">
        <ele>1058.5500000</ele>
        <time>2010-09-28T09:59:36Z</time>
      </trkpt>
      <trkpt lat="46.1060460" lon="12.4138080">
        <ele>1058.5500000</ele>
        <time>2010-09-28T09:59:44Z</time>
      </trkpt>
      <trkpt lat="46.1060470" lon="12.4137530">
        <ele>1059.5100000</ele>
        <time>2010-09-28T09:59:49Z</time>
      </trkpt>
      <trkpt lat="46.1060370" lon="12.4137270">
        <ele>1057.5900000</ele>
        <time>2010-09-28T09:59:55Z</time>
      </trkpt>
      <trkpt lat="46.1060230" lon="12.4136900">
        <ele>1058.0700000</ele>
        <time>2010-09-28T10:00:02Z</time>
      </trkpt>
      <trkpt lat="46.1060250" lon="12.4136910">
        <ele>1057.1100000</ele>
        <time>2010-09-28T10:00:41Z</time>
      </trkpt>
      <trkpt lat="46.1060360" lon="12.4136410">
        <ele>1056.1500000</ele>
        <time>2010-09-28T10:00:47Z</time>
      </trkpt>
      <trkpt lat="46.1060000" lon="12.4136440">
        <ele>1056.1500000</ele>
        <time>2010-09-28T10:01:39Z</time>
      </trkpt>
      <trkpt lat="46.1060380" lon="12.4137040">
        <ele>1056.6300000</ele>
        <time>2010-09-28T10:01:50Z</time>
      </trkpt>
      <trkpt lat="46.1057110" lon="12.4133980">
        <ele>1055.6700000</ele>
        <time>2010-09-28T10:03:41Z</time>
      </trkpt>
      <trkpt lat="46.1058580" lon="12.4135900">
        <ele>1054.7000000</ele>
        <time>2010-09-28T10:04:58Z</time>
      </trkpt>
      <trkpt lat="46.1057380" lon="12.4134540">
        <ele>1053.2600000</ele>
        <time>2010-09-28T10:07:39Z</time>
      </trkpt>
      <trkpt lat="46.1057640" lon="12.4134900">
        <ele>1052.3000000</ele>
        <time>2010-09-28T10:07:45Z</time>
      </trkpt>
      <trkpt lat="46.1057540" lon="12.4135110">
        <ele>1050.8600000</ele>
        <time>2010-09-28T10:07:47Z</time>
      </trkpt>
      <trkpt lat="46.1057320" lon="12.4135310">
        <ele>1048.9400000</ele>
        <time>2010-09-28T10:07:50Z</time>
      </trkpt>
      <trkpt lat="46.1056940" lon="12.4135330">
        <ele>1048.9400000</ele>
        <time>2010-09-28T10:07:57Z</time>
      </trkpt>
      <trkpt lat="46.1056940" lon="12.4135330">
        <ele>1047.4900000</ele>
        <time>2010-09-28T10:08:04Z</time>
      </trkpt>
      <trkpt lat="46.1056210" lon="12.4135160">
        <ele>1047.9700000</ele>
        <time>2010-09-28T10:08:11Z</time>
      </trkpt>
      <trkpt lat="46.1055250" lon="12.4135320">
        <ele>1046.0500000</ele>
        <time>2010-09-28T10:08:18Z</time>
      </trkpt>
      <trkpt lat="46.1054930" lon="12.4135360">
        <ele>1043.1700000</ele>
        <time>2010-09-28T10:08:22Z</time>
      </trkpt>
      <trkpt lat="46.1054860" lon="12.4135300">
        <ele>1046.0500000</ele>
        <time>2010-09-28T10:08:24Z</time>
      </trkpt>
      <trkpt lat="46.1054730" lon="12.4135280">
        <ele>1045.0900000</ele>
        <time>2010-09-28T10:08:25Z</time>
      </trkpt>
      <trkpt lat="46.1054330" lon="12.4135120">
        <ele>1042.6900000</ele>
        <time>2010-09-28T10:08:31Z</time>
      </trkpt>
      <trkpt lat="46.1054270" lon="12.4134830">
        <ele>1045.0900000</ele>
        <time>2010-09-28T10:08:38Z</time>
      </trkpt>
      <trkpt lat="46.1054290" lon="12.4134620">
        <ele>1044.6100000</ele>
        <time>2010-09-28T10:08:40Z</time>
      </trkpt>
      <trkpt lat="46.1054240" lon="12.4134290">
        <ele>1043.6500000</ele>
        <time>2010-09-28T10:08:48Z</time>
      </trkpt>
      <trkpt lat="46.1054080" lon="12.4134280">
        <ele>1043.1700000</ele>
        <time>2010-09-28T10:08:57Z</time>
      </trkpt>
      <trkpt lat="46.1054180" lon="12.4133980">
        <ele>1045.0900000</ele>
        <time>2010-09-28T10:09:04Z</time>
      </trkpt>
      <trkpt lat="46.1054180" lon="12.4133980">
        <ele>1047.0100000</ele>
        <time>2010-09-28T10:09:19Z</time>
      </trkpt>
      <trkpt lat="46.1054000" lon="12.4132760">
        <ele>1047.9700000</ele>
        <time>2010-09-28T10:09:26Z</time>
      </trkpt>
      <trkpt lat="46.1053530" lon="12.4130560">
        <ele>1050.8600000</ele>
        <time>2010-09-28T10:09:45Z</time>
      </trkpt>
      <trkpt lat="46.1052010" lon="12.4128380">
        <ele>1051.3400000</ele>
        <time>2010-09-28T10:09:54Z</time>
      </trkpt>
      <trkpt lat="46.1052020" lon="12.4127360">
        <ele>1051.3400000</ele>
        <time>2010-09-28T10:10:02Z</time>
      </trkpt>
      <trkpt lat="46.1052130" lon="12.4125950">
        <ele>1051.8200000</ele>
        <time>2010-09-28T10:10:09Z</time>
      </trkpt>
      <trkpt lat="46.1051980" lon="12.4125560">
        <ele>1052.7800000</ele>
        <time>2010-09-28T10:10:17Z</time>
      </trkpt>
      <trkpt lat="46.1051820" lon="12.4124850">
        <ele>1053.2600000</ele>
        <time>2010-09-28T10:10:24Z</time>
      </trkpt>
      <trkpt lat="46.1051720" lon="12.4124760">
        <ele>1053.2600000</ele>
        <time>2010-09-28T10:10:25Z</time>
      </trkpt>
      <trkpt lat="46.1051320" lon="12.4124230">
        <ele>1053.7400000</ele>
        <time>2010-09-28T10:10:32Z</time>
      </trkpt>
      <trkpt lat="46.1051320" lon="12.4124230">
        <ele>1053.2600000</ele>
        <time>2010-09-28T10:10:38Z</time>
      </trkpt>
      <trkpt lat="46.1051310" lon="12.4124220">
        <ele>1052.7800000</ele>
        <time>2010-09-28T10:11:13Z</time>
      </trkpt>
      <trkpt lat="46.1051210" lon="12.4123480">
        <ele>1053.7400000</ele>
        <time>2010-09-28T10:11:18Z</time>
      </trkpt>
      <trkpt lat="46.1050980" lon="12.4122980">
        <ele>1053.7400000</ele>
        <time>2010-09-28T10:11:51Z</time>
      </trkpt>
      <trkpt lat="46.1050980" lon="12.4122980">
        <ele>1054.7000000</ele>
        <time>2010-09-28T10:12:14Z</time>
      </trkpt>
      <trkpt lat="46.1051060" lon="12.4122790">
        <ele>1054.2200000</ele>
        <time>2010-09-28T10:12:39Z</time>
      </trkpt>
      <trkpt lat="46.1051020" lon="12.4120920">
        <ele>1055.1800000</ele>
        <time>2010-09-28T10:12:47Z</time>
      </trkpt>
      <trkpt lat="46.1050760" lon="12.4119740">
        <ele>1055.1800000</ele>
        <time>2010-09-28T10:12:53Z</time>
      </trkpt>
      <trkpt lat="46.1050410" lon="12.4118920">
        <ele>1055.6700000</ele>
        <time>2010-09-28T10:12:59Z</time>
      </trkpt>
      <trkpt lat="46.1049940" lon="12.4118080">
        <ele>1055.6700000</ele>
        <time>2010-09-28T10:13:06Z</time>
      </trkpt>
      <trkpt lat="46.1049550" lon="12.4117520">
        <ele>1056.1500000</ele>
        <time>2010-09-28T10:13:11Z</time>
      </trkpt>
      <trkpt lat="46.1048730" lon="12.4116170">
        <ele>1057.5900000</ele>
        <time>2010-09-28T10:13:20Z</time>
      </trkpt>
      <trkpt lat="46.1048570" lon="12.4116030">
        <ele>1058.0700000</ele>
        <time>2010-09-28T10:13:30Z</time>
      </trkpt>
      <trkpt lat="46.1048570" lon="12.4116030">
        <ele>1059.5100000</ele>
        <time>2010-09-28T10:13:37Z</time>
      </trkpt>
      <trkpt lat="46.1048570" lon="12.4116030">
        <ele>1059.9900000</ele>
        <time>2010-09-28T10:13:43Z</time>
      </trkpt>
      <trkpt lat="46.1048460" lon="12.4115510">
        <ele>1059.9900000</ele>
        <time>2010-09-28T10:13:52Z</time>
      </trkpt>
      <trkpt lat="46.1047890" lon="12.4114550">
        <ele>1061.4300000</ele>
        <time>2010-09-28T10:14:02Z</time>
      </trkpt>
      <trkpt lat="46.1046170" lon="12.4112680">
        <ele>1062.3900000</ele>
        <time>2010-09-28T10:14:09Z</time>
      </trkpt>
      <trkpt lat="46.1045450" lon="12.4111750">
        <ele>1060.9500000</ele>
        <time>2010-09-28T10:14:15Z</time>
      </trkpt>
      <trkpt lat="46.1045160" lon="12.4111500">
        <ele>1059.9900000</ele>
        <time>2010-09-28T10:14:17Z</time>
      </trkpt>
      <trkpt lat="46.1044810" lon="12.4111150">
        <ele>1062.3900000</ele>
        <time>2010-09-28T10:14:20Z</time>
      </trkpt>
      <trkpt lat="46.1044560" lon="12.4110810">
        <ele>1061.4300000</ele>
        <time>2010-09-28T10:14:22Z</time>
      </trkpt>
      <trkpt lat="46.1044350" lon="12.4110580">
        <ele>1060.4700000</ele>
        <time>2010-09-28T10:14:24Z</time>
      </trkpt>
      <trkpt lat="46.1044000" lon="12.4110320">
        <ele>1061.9100000</ele>
        <time>2010-09-28T10:14:27Z</time>
      </trkpt>
      <trkpt lat="46.1043210" lon="12.4109550">
        <ele>1059.9900000</ele>
        <time>2010-09-28T10:14:34Z</time>
      </trkpt>
      <trkpt lat="46.1042940" lon="12.4109210">
        <ele>1058.0700000</ele>
        <time>2010-09-28T10:14:37Z</time>
      </trkpt>
      <trkpt lat="46.1041750" lon="12.4108290">
        <ele>1058.5500000</ele>
        <time>2010-09-28T10:14:45Z</time>
      </trkpt>
      <trkpt lat="46.1041070" lon="12.4107540">
        <ele>1057.1100000</ele>
        <time>2010-09-28T10:14:51Z</time>
      </trkpt>
      <trkpt lat="46.1040590" lon="12.4106740">
        <ele>1055.6700000</ele>
        <time>2010-09-28T10:14:58Z</time>
      </trkpt>
      <trkpt lat="46.1040400" lon="12.4106490">
        <ele>1054.2200000</ele>
        <time>2010-09-28T10:15:00Z</time>
      </trkpt>
      <trkpt lat="46.1039580" lon="12.4105500">
        <ele>1054.2200000</ele>
        <time>2010-09-28T10:15:10Z</time>
      </trkpt>
      <trkpt lat="46.1039260" lon="12.4105100">
        <ele>1053.7400000</ele>
        <time>2010-09-28T10:15:16Z</time>
      </trkpt>
      <trkpt lat="46.1039010" lon="12.4104710">
        <ele>1052.3000000</ele>
        <time>2010-09-28T10:15:19Z</time>
      </trkpt>
      <trkpt lat="46.1038880" lon="12.4104260">
        <ele>1052.7800000</ele>
        <time>2010-09-28T10:15:28Z</time>
      </trkpt>
      <trkpt lat="46.1038280" lon="12.4104040">
        <ele>1050.8600000</ele>
        <time>2010-09-28T10:16:54Z</time>
      </trkpt>
      <trkpt lat="46.1038280" lon="12.4104040">
        <ele>1050.8600000</ele>
        <time>2010-09-28T10:16:55Z</time>
      </trkpt>
      <trkpt lat="46.1038230" lon="12.4103860">
        <ele>1049.9000000</ele>
        <time>2010-09-28T10:16:58Z</time>
      </trkpt>
      <trkpt lat="46.1038120" lon="12.4103410">
        <ele>1052.7800000</ele>
        <time>2010-09-28T10:17:00Z</time>
      </trkpt>
      <trkpt lat="46.1038070" lon="12.4103240">
        <ele>1052.7800000</ele>
        <time>2010-09-28T10:17:01Z</time>
      </trkpt>
      <trkpt lat="46.1037770" lon="12.4102580">
        <ele>1051.8200000</ele>
        <time>2010-09-28T10:17:05Z</time>
      </trkpt>
      <trkpt lat="46.1037200" lon="12.4102010">
        <ele>1050.8600000</ele>
        <time>2010-09-28T10:17:12Z</time>
      </trkpt>
      <trkpt lat="46.1036390" lon="12.4101390">
        <ele>1049.9000000</ele>
        <time>2010-09-28T10:17:19Z</time>
      </trkpt>
      <trkpt lat="46.1035720" lon="12.4100690">
        <ele>1048.4500000</ele>
        <time>2010-09-28T10:17:22Z</time>
      </trkpt>
      <trkpt lat="46.1034750" lon="12.4100180">
        <ele>1045.0900000</ele>
        <time>2010-09-28T10:17:25Z</time>
      </trkpt>
      <trkpt lat="46.1033590" lon="12.4099840">
        <ele>1048.9400000</ele>
        <time>2010-09-28T10:17:28Z</time>
      </trkpt>
      <trkpt lat="46.1033360" lon="12.4099720">
        <ele>1048.9400000</ele>
        <time>2010-09-28T10:17:29Z</time>
      </trkpt>
      <trkpt lat="46.1032340" lon="12.4099030">
        <ele>1047.9700000</ele>
        <time>2010-09-28T10:17:37Z</time>
      </trkpt>
      <trkpt lat="46.1031810" lon="12.4099010">
        <ele>1047.0100000</ele>
        <time>2010-09-28T10:17:43Z</time>
      </trkpt>
      <trkpt lat="46.1031560" lon="12.4098590">
        <ele>1045.5700000</ele>
        <time>2010-09-28T10:17:51Z</time>
      </trkpt>
      <trkpt lat="46.1031560" lon="12.4098590">
        <ele>1046.0500000</ele>
        <time>2010-09-28T10:17:52Z</time>
      </trkpt>
      <trkpt lat="46.1031280" lon="12.4097690">
        <ele>1046.0500000</ele>
        <time>2010-09-28T10:17:58Z</time>
      </trkpt>
      <trkpt lat="46.1031000" lon="12.4097350">
        <ele>1046.5300000</ele>
        <time>2010-09-28T10:18:02Z</time>
      </trkpt>
      <trkpt lat="46.1030600" lon="12.4096930">
        <ele>1046.0500000</ele>
        <time>2010-09-28T10:18:08Z</time>
      </trkpt>
      <trkpt lat="46.1030270" lon="12.4096230">
        <ele>1046.0500000</ele>
        <time>2010-09-28T10:18:13Z</time>
      </trkpt>
      <trkpt lat="46.1030200" lon="12.4095450">
        <ele>1046.0500000</ele>
        <time>2010-09-28T10:18:20Z</time>
      </trkpt>
      <trkpt lat="46.1030060" lon="12.4095420">
        <ele>1045.5700000</ele>
        <time>2010-09-28T10:18:27Z</time>
      </trkpt>
      <trkpt lat="46.1030050" lon="12.4095380">
        <ele>1046.0500000</ele>
        <time>2010-09-28T10:18:40Z</time>
      </trkpt>
      <trkpt lat="46.1030080" lon="12.4095140">
        <ele>1046.0500000</ele>
        <time>2010-09-28T10:18:46Z</time>
      </trkpt>
      <trkpt lat="46.1030050" lon="12.4094840">
        <ele>1046.0500000</ele>
        <time>2010-09-28T10:18:56Z</time>
      </trkpt>
      <trkpt lat="46.1030050" lon="12.4094840">
        <ele>1045.0900000</ele>
        <time>2010-09-28T10:19:26Z</time>
      </trkpt>
      <trkpt lat="46.1030450" lon="12.4094780">
        <ele>1044.6100000</ele>
        <time>2010-09-28T10:19:33Z</time>
      </trkpt>
      <trkpt lat="46.1031140" lon="12.4094850">
        <ele>1045.0900000</ele>
        <time>2010-09-28T10:19:42Z</time>
      </trkpt>
      <trkpt lat="46.1031500" lon="12.4094890">
        <ele>1046.5300000</ele>
        <time>2010-09-28T10:19:45Z</time>
      </trkpt>
      <trkpt lat="46.1032000" lon="12.4094750">
        <ele>1046.5300000</ele>
        <time>2010-09-28T10:19:51Z</time>
      </trkpt>
      <trkpt lat="46.1032860" lon="12.4094710">
        <ele>1042.6900000</ele>
        <time>2010-09-28T10:19:58Z</time>
      </trkpt>
      <trkpt lat="46.1033060" lon="12.4094640">
        <ele>1045.0900000</ele>
        <time>2010-09-28T10:19:59Z</time>
      </trkpt>
      <trkpt lat="46.1033060" lon="12.4094640">
        <ele>1056.6300000</ele>
        <time>2010-09-29T07:14:56Z</time>
      </trkpt>
      <trkpt lat="46.1033060" lon="12.4094640">
        <ele>1010.4800000</ele>
        <time>2010-09-29T07:14:57Z</time>
      </trkpt>
      <trkpt lat="46.1030370" lon="12.4093050">
        <ele>1010.9600000</ele>
        <time>2010-09-29T07:15:07Z</time>
      </trkpt>
      <trkpt lat="46.1030180" lon="12.4093100">
        <ele>1011.4400000</ele>
        <time>2010-09-29T07:15:09Z</time>
      </trkpt>
      <trkpt lat="46.1029860" lon="12.4093120">
        <ele>1014.3300000</ele>
        <time>2010-09-29T07:15:13Z</time>
      </trkpt>
      <trkpt lat="46.1029930" lon="12.4092020">
        <ele>1017.2100000</ele>
        <time>2010-09-29T07:15:21Z</time>
      </trkpt>
      <trkpt lat="46.1029880" lon="12.4091920">
        <ele>1020.1000000</ele>
        <time>2010-09-29T07:15:24Z</time>
      </trkpt>
      <trkpt lat="46.1029990" lon="12.4092240">
        <ele>1023.4600000</ele>
        <time>2010-09-29T07:15:29Z</time>
      </trkpt>
      <trkpt lat="46.1030140" lon="12.4092750">
        <ele>1027.3100000</ele>
        <time>2010-09-29T07:15:37Z</time>
      </trkpt>
      <trkpt lat="46.1030250" lon="12.4093300">
        <ele>1030.1900000</ele>
        <time>2010-09-29T07:15:44Z</time>
      </trkpt>
      <trkpt lat="46.1030360" lon="12.4093850">
        <ele>1033.5500000</ele>
        <time>2010-09-29T07:15:52Z</time>
      </trkpt>
      <trkpt lat="46.1030540" lon="12.4093360">
        <ele>1035.9600000</ele>
        <time>2010-09-29T07:15:59Z</time>
      </trkpt>
      <trkpt lat="46.1030590" lon="12.4093240">
        <ele>1036.4400000</ele>
        <time>2010-09-29T07:16:01Z</time>
      </trkpt>
      <trkpt lat="46.1030770" lon="12.4092590">
        <ele>1038.3600000</ele>
        <time>2010-09-29T07:16:08Z</time>
      </trkpt>
      <trkpt lat="46.1031030" lon="12.4092530">
        <ele>1039.8000000</ele>
        <time>2010-09-29T07:16:12Z</time>
      </trkpt>
      <trkpt lat="46.1031290" lon="12.4092160">
        <ele>1040.2800000</ele>
        <time>2010-09-29T07:16:16Z</time>
      </trkpt>
      <trkpt lat="46.1031600" lon="12.4091400">
        <ele>1041.7300000</ele>
        <time>2010-09-29T07:16:22Z</time>
      </trkpt>
      <trkpt lat="46.1031780" lon="12.4091030">
        <ele>1043.6500000</ele>
        <time>2010-09-29T07:16:27Z</time>
      </trkpt>
      <trkpt lat="46.1031880" lon="12.4090640">
        <ele>1044.6100000</ele>
        <time>2010-09-29T07:16:33Z</time>
      </trkpt>
      <trkpt lat="46.1032200" lon="12.4090250">
        <ele>1047.0100000</ele>
        <time>2010-09-29T07:16:41Z</time>
      </trkpt>
      <trkpt lat="46.1032770" lon="12.4089490">
        <ele>1049.4200000</ele>
        <time>2010-09-29T07:16:51Z</time>
      </trkpt>
      <trkpt lat="46.1033210" lon="12.4088860">
        <ele>1051.3400000</ele>
        <time>2010-09-29T07:16:58Z</time>
      </trkpt>
      <trkpt lat="46.1033640" lon="12.4088300">
        <ele>1052.7800000</ele>
        <time>2010-09-29T07:17:04Z</time>
      </trkpt>
      <trkpt lat="46.1034080" lon="12.4087830">
        <ele>1055.6700000</ele>
        <time>2010-09-29T07:17:14Z</time>
      </trkpt>
      <trkpt lat="46.1034600" lon="12.4087420">
        <ele>1055.6700000</ele>
        <time>2010-09-29T07:17:21Z</time>
      </trkpt>
      <trkpt lat="46.1034820" lon="12.4086540">
        <ele>1056.1500000</ele>
        <time>2010-09-29T07:17:28Z</time>
      </trkpt>
      <trkpt lat="46.1034930" lon="12.4086110">
        <ele>1056.6300000</ele>
        <time>2010-09-29T07:17:31Z</time>
      </trkpt>
      <trkpt lat="46.1035220" lon="12.4085220">
        <ele>1057.5900000</ele>
        <time>2010-09-29T07:17:39Z</time>
      </trkpt>
      <trkpt lat="46.1035520" lon="12.4084410">
        <ele>1057.5900000</ele>
        <time>2010-09-29T07:17:44Z</time>
      </trkpt>
      <trkpt lat="46.1035730" lon="12.4083630">
        <ele>1058.5500000</ele>
        <time>2010-09-29T07:17:51Z</time>
      </trkpt>
      <trkpt lat="46.1036140" lon="12.4082530">
        <ele>1058.5500000</ele>
        <time>2010-09-29T07:18:01Z</time>
      </trkpt>
      <trkpt lat="46.1036540" lon="12.4080910">
        <ele>1061.4300000</ele>
        <time>2010-09-29T07:18:22Z</time>
      </trkpt>
      <trkpt lat="46.1036850" lon="12.4079760">
        <ele>1060.9500000</ele>
        <time>2010-09-29T07:18:28Z</time>
      </trkpt>
      <trkpt lat="46.1036940" lon="12.4078670">
        <ele>1061.9100000</ele>
        <time>2010-09-29T07:18:35Z</time>
      </trkpt>
      <trkpt lat="46.1037430" lon="12.4076610">
        <ele>1065.2800000</ele>
        <time>2010-09-29T07:18:53Z</time>
      </trkpt>
      <trkpt lat="46.1037690" lon="12.4075750">
        <ele>1065.2800000</ele>
        <time>2010-09-29T07:18:58Z</time>
      </trkpt>
      <trkpt lat="46.1038120" lon="12.4074630">
        <ele>1065.2800000</ele>
        <time>2010-09-29T07:19:05Z</time>
      </trkpt>
      <trkpt lat="46.1038380" lon="12.4073470">
        <ele>1066.2400000</ele>
        <time>2010-09-29T07:19:13Z</time>
      </trkpt>
      <trkpt lat="46.1038420" lon="12.4072540">
        <ele>1066.2400000</ele>
        <time>2010-09-29T07:19:19Z</time>
      </trkpt>
      <trkpt lat="46.1038440" lon="12.4071600">
        <ele>1066.2400000</ele>
        <time>2010-09-29T07:19:25Z</time>
      </trkpt>
      <trkpt lat="46.1038210" lon="12.4070640">
        <ele>1066.7200000</ele>
        <time>2010-09-29T07:20:02Z</time>
      </trkpt>
      <trkpt lat="46.1038250" lon="12.4069600">
        <ele>1066.7200000</ele>
        <time>2010-09-29T07:20:10Z</time>
      </trkpt>
      <trkpt lat="46.1038300" lon="12.4068800">
        <ele>1065.7600000</ele>
        <time>2010-09-29T07:20:15Z</time>
      </trkpt>
      <trkpt lat="46.1038290" lon="12.4067760">
        <ele>1065.7600000</ele>
        <time>2010-09-29T07:20:22Z</time>
      </trkpt>
      <trkpt lat="46.1038300" lon="12.4067050">
        <ele>1065.2800000</ele>
        <time>2010-09-29T07:20:28Z</time>
      </trkpt>
      <trkpt lat="46.1038330" lon="12.4066110">
        <ele>1065.2800000</ele>
        <time>2010-09-29T07:20:34Z</time>
      </trkpt>
      <trkpt lat="46.1038210" lon="12.4064760">
        <ele>1064.8000000</ele>
        <time>2010-09-29T07:20:41Z</time>
      </trkpt>
      <trkpt lat="46.1038070" lon="12.4063860">
        <ele>1064.3200000</ele>
        <time>2010-09-29T07:20:46Z</time>
      </trkpt>
      <trkpt lat="46.1038060" lon="12.4062700">
        <ele>1063.8400000</ele>
        <time>2010-09-29T07:20:53Z</time>
      </trkpt>
      <trkpt lat="46.1038110" lon="12.4061150">
        <ele>1063.3600000</ele>
        <time>2010-09-29T07:21:00Z</time>
      </trkpt>
      <trkpt lat="46.1037820" lon="12.4059840">
        <ele>1063.3600000</ele>
        <time>2010-09-29T07:21:08Z</time>
      </trkpt>
      <trkpt lat="46.1037660" lon="12.4058640">
        <ele>1062.3900000</ele>
        <time>2010-09-29T07:21:15Z</time>
      </trkpt>
      <trkpt lat="46.1037480" lon="12.4057110">
        <ele>1062.3900000</ele>
        <time>2010-09-29T07:21:23Z</time>
      </trkpt>
      <trkpt lat="46.1037010" lon="12.4055660">
        <ele>1062.3900000</ele>
        <time>2010-09-29T07:21:32Z</time>
      </trkpt>
      <trkpt lat="46.1036840" lon="12.4054780">
        <ele>1061.9100000</ele>
        <time>2010-09-29T07:21:38Z</time>
      </trkpt>
      <trkpt lat="46.1037030" lon="12.4053210">
        <ele>1061.9100000</ele>
        <time>2010-09-29T07:21:45Z</time>
      </trkpt>
      <trkpt lat="46.1037210" lon="12.4051710">
        <ele>1061.9100000</ele>
        <time>2010-09-29T07:21:53Z</time>
      </trkpt>
      <trkpt lat="46.1037320" lon="12.4050730">
        <ele>1061.9100000</ele>
        <time>2010-09-29T07:21:58Z</time>
      </trkpt>
      <trkpt lat="46.1037270" lon="12.4050340">
        <ele>1061.9100000</ele>
        <time>2010-09-29T07:22:01Z</time>
      </trkpt>
      <trkpt lat="46.1037210" lon="12.4049180">
        <ele>1060.9500000</ele>
        <time>2010-09-29T07:22:09Z</time>
      </trkpt>
      <trkpt lat="46.1037200" lon="12.4048200">
        <ele>1061.4300000</ele>
        <time>2010-09-29T07:22:14Z</time>
      </trkpt>
      <trkpt lat="46.1037200" lon="12.4047460">
        <ele>1061.9100000</ele>
        <time>2010-09-29T07:22:19Z</time>
      </trkpt>
      <trkpt lat="46.1037000" lon="12.4046260">
        <ele>1061.9100000</ele>
        <time>2010-09-29T07:22:26Z</time>
      </trkpt>
      <trkpt lat="46.1036430" lon="12.4045090">
        <ele>1062.3900000</ele>
        <time>2010-09-29T07:22:34Z</time>
      </trkpt>
      <trkpt lat="46.1036640" lon="12.4043980">
        <ele>1062.8700000</ele>
        <time>2010-09-29T07:22:42Z</time>
      </trkpt>
      <trkpt lat="46.1036720" lon="12.4043670">
        <ele>1063.3600000</ele>
        <time>2010-09-29T07:23:41Z</time>
      </trkpt>
      <trkpt lat="46.1036520" lon="12.4042770">
        <ele>1062.8700000</ele>
        <time>2010-09-29T07:23:47Z</time>
      </trkpt>
      <trkpt lat="46.1036400" lon="12.4041950">
        <ele>1064.3200000</ele>
        <time>2010-09-29T07:23:53Z</time>
      </trkpt>
      <trkpt lat="46.1036380" lon="12.4041020">
        <ele>1063.8400000</ele>
        <time>2010-09-29T07:24:01Z</time>
      </trkpt>
      <trkpt lat="46.1036340" lon="12.4039170">
        <ele>1063.3600000</ele>
        <time>2010-09-29T07:24:08Z</time>
      </trkpt>
      <trkpt lat="46.1036260" lon="12.4038140">
        <ele>1063.3600000</ele>
        <time>2010-09-29T07:24:14Z</time>
      </trkpt>
      <trkpt lat="46.1036220" lon="12.4037800">
        <ele>1062.8700000</ele>
        <time>2010-09-29T07:24:19Z</time>
      </trkpt>
      <trkpt lat="46.1036250" lon="12.4036190">
        <ele>1063.3600000</ele>
        <time>2010-09-29T07:24:29Z</time>
      </trkpt>
      <trkpt lat="46.1036120" lon="12.4034450">
        <ele>1062.3900000</ele>
        <time>2010-09-29T07:24:39Z</time>
      </trkpt>
      <trkpt lat="46.1035940" lon="12.4033570">
        <ele>1062.3900000</ele>
        <time>2010-09-29T07:24:46Z</time>
      </trkpt>
      <trkpt lat="46.1035940" lon="12.4033480">
        <ele>1061.9100000</ele>
        <time>2010-09-29T07:24:48Z</time>
      </trkpt>
      <trkpt lat="46.1036140" lon="12.4032000">
        <ele>1062.3900000</ele>
        <time>2010-09-29T07:24:56Z</time>
      </trkpt>
      <trkpt lat="46.1036120" lon="12.4030760">
        <ele>1060.9500000</ele>
        <time>2010-09-29T07:25:02Z</time>
      </trkpt>
      <trkpt lat="46.1036090" lon="12.4029640">
        <ele>1060.9500000</ele>
        <time>2010-09-29T07:25:08Z</time>
      </trkpt>
      <trkpt lat="46.1035910" lon="12.4028610">
        <ele>1060.9500000</ele>
        <time>2010-09-29T07:25:12Z</time>
      </trkpt>
      <trkpt lat="46.1035340" lon="12.4027010">
        <ele>1060.4700000</ele>
        <time>2010-09-29T07:25:21Z</time>
      </trkpt>
      <trkpt lat="46.1034770" lon="12.4025380">
        <ele>1059.0300000</ele>
        <time>2010-09-29T07:25:29Z</time>
      </trkpt>
      <trkpt lat="46.1034800" lon="12.4025070">
        <ele>1059.0300000</ele>
        <time>2010-09-29T07:25:31Z</time>
      </trkpt>
      <trkpt lat="46.1034550" lon="12.4023430">
        <ele>1059.0300000</ele>
        <time>2010-09-29T07:25:39Z</time>
      </trkpt>
      <trkpt lat="46.1034510" lon="12.4021880">
        <ele>1059.0300000</ele>
        <time>2010-09-29T07:25:48Z</time>
      </trkpt>
      <trkpt lat="46.1034670" lon="12.4021290">
        <ele>1058.0700000</ele>
        <time>2010-09-29T07:25:56Z</time>
      </trkpt>
      <trkpt lat="46.1034610" lon="12.4021240">
        <ele>1058.5500000</ele>
        <time>2010-09-29T07:26:24Z</time>
      </trkpt>
      <trkpt lat="46.1034070" lon="12.4021050">
        <ele>1058.0700000</ele>
        <time>2010-09-29T07:26:29Z</time>
      </trkpt>
      <trkpt lat="46.1033180" lon="12.4019930">
        <ele>1058.0700000</ele>
        <time>2010-09-29T07:26:37Z</time>
      </trkpt>
      <trkpt lat="46.1032880" lon="12.4018830">
        <ele>1057.1100000</ele>
        <time>2010-09-29T07:26:44Z</time>
      </trkpt>
      <trkpt lat="46.1032630" lon="12.4017900">
        <ele>1057.1100000</ele>
        <time>2010-09-29T07:26:50Z</time>
      </trkpt>
      <trkpt lat="46.1032080" lon="12.4016840">
        <ele>1057.1100000</ele>
        <time>2010-09-29T07:26:59Z</time>
      </trkpt>
      <trkpt lat="46.1031890" lon="12.4016000">
        <ele>1056.1500000</ele>
        <time>2010-09-29T07:27:05Z</time>
      </trkpt>
      <trkpt lat="46.1031840" lon="12.4015530">
        <ele>1055.6700000</ele>
        <time>2010-09-29T07:27:34Z</time>
      </trkpt>
      <trkpt lat="46.1030830" lon="12.4014580">
        <ele>1056.1500000</ele>
        <time>2010-09-29T07:27:41Z</time>
      </trkpt>
      <trkpt lat="46.1030100" lon="12.4013610">
        <ele>1055.1800000</ele>
        <time>2010-09-29T07:27:48Z</time>
      </trkpt>
      <trkpt lat="46.1029410" lon="12.4012780">
        <ele>1054.7000000</ele>
        <time>2010-09-29T07:27:55Z</time>
      </trkpt>
      <trkpt lat="46.1028770" lon="12.4011910">
        <ele>1054.2200000</ele>
        <time>2010-09-29T07:28:03Z</time>
      </trkpt>
      <trkpt lat="46.1028360" lon="12.4011040">
        <ele>1053.7400000</ele>
        <time>2010-09-29T07:28:13Z</time>
      </trkpt>
      <trkpt lat="46.1028370" lon="12.4010660">
        <ele>1053.7400000</ele>
        <time>2010-09-29T07:28:31Z</time>
      </trkpt>
      <trkpt lat="46.1027940" lon="12.4009680">
        <ele>1053.2600000</ele>
        <time>2010-09-29T07:28:37Z</time>
      </trkpt>
      <trkpt lat="46.1027620" lon="12.4008770">
        <ele>1053.7400000</ele>
        <time>2010-09-29T07:28:42Z</time>
      </trkpt>
      <trkpt lat="46.1026660" lon="12.4007750">
        <ele>1053.7400000</ele>
        <time>2010-09-29T07:28:50Z</time>
      </trkpt>
      <trkpt lat="46.1025590" lon="12.4006740">
        <ele>1053.7400000</ele>
        <time>2010-09-29T07:28:58Z</time>
      </trkpt>
      <trkpt lat="46.1024630" lon="12.4005800">
        <ele>1053.2600000</ele>
        <time>2010-09-29T07:29:06Z</time>
      </trkpt>
      <trkpt lat="46.1023900" lon="12.4005600">
        <ele>1051.8200000</ele>
        <time>2010-09-29T07:29:13Z</time>
      </trkpt>
      <trkpt lat="46.1023750" lon="12.4005550">
        <ele>1052.3000000</ele>
        <time>2010-09-29T07:29:14Z</time>
      </trkpt>
      <trkpt lat="46.1022820" lon="12.4005280">
        <ele>1051.8200000</ele>
        <time>2010-09-29T07:29:20Z</time>
      </trkpt>
      <trkpt lat="46.1022570" lon="12.4005340">
        <ele>1051.8200000</ele>
        <time>2010-09-29T07:29:22Z</time>
      </trkpt>
      <trkpt lat="46.1021890" lon="12.4004730">
        <ele>1052.3000000</ele>
        <time>2010-09-29T07:29:28Z</time>
      </trkpt>
      <trkpt lat="46.1021360" lon="12.4004000">
        <ele>1052.3000000</ele>
        <time>2010-09-29T07:29:35Z</time>
      </trkpt>
      <trkpt lat="46.1021070" lon="12.4003510">
        <ele>1052.3000000</ele>
        <time>2010-09-29T07:29:40Z</time>
      </trkpt>
      <trkpt lat="46.1020590" lon="12.4002610">
        <ele>1052.7800000</ele>
        <time>2010-09-29T07:29:46Z</time>
      </trkpt>
      <trkpt lat="46.1020380" lon="12.4001960">
        <ele>1052.3000000</ele>
        <time>2010-09-29T07:29:51Z</time>
      </trkpt>
      <trkpt lat="46.1020180" lon="12.4000830">
        <ele>1052.7800000</ele>
        <time>2010-09-29T07:29:58Z</time>
      </trkpt>
      <trkpt lat="46.1020040" lon="12.4000350">
        <ele>1051.8200000</ele>
        <time>2010-09-29T07:30:08Z</time>
      </trkpt>
      <trkpt lat="46.1019740" lon="12.3999790">
        <ele>1051.3400000</ele>
        <time>2010-09-29T07:30:14Z</time>
      </trkpt>
      <trkpt lat="46.1019350" lon="12.3999570">
        <ele>1053.7400000</ele>
        <time>2010-09-29T07:30:22Z</time>
      </trkpt>
      <trkpt lat="46.1019350" lon="12.3999570">
        <ele>1053.2600000</ele>
        <time>2010-09-29T07:30:49Z</time>
      </trkpt>
      <trkpt lat="46.1019420" lon="12.4000190">
        <ele>1052.3000000</ele>
        <time>2010-09-29T07:30:54Z</time>
      </trkpt>
      <trkpt lat="46.1019430" lon="12.4000530">
        <ele>1051.8200000</ele>
        <time>2010-09-29T07:31:02Z</time>
      </trkpt>
      <trkpt lat="46.1019640" lon="12.4000270">
        <ele>1051.8200000</ele>
        <time>2010-09-29T07:31:20Z</time>
      </trkpt>
      <trkpt lat="46.1020710" lon="12.3998620">
        <ele>1052.7800000</ele>
        <time>2010-09-29T07:31:27Z</time>
      </trkpt>
      <trkpt lat="46.1021150" lon="12.3997710">
        <ele>1052.3000000</ele>
        <time>2010-09-29T07:31:32Z</time>
      </trkpt>
      <trkpt lat="46.1021710" lon="12.3996590">
        <ele>1052.3000000</ele>
        <time>2010-09-29T07:31:39Z</time>
      </trkpt>
      <trkpt lat="46.1021940" lon="12.3995890">
        <ele>1051.8200000</ele>
        <time>2010-09-29T07:31:44Z</time>
      </trkpt>
      <trkpt lat="46.1022400" lon="12.3995100">
        <ele>1051.8200000</ele>
        <time>2010-09-29T07:31:51Z</time>
      </trkpt>
      <trkpt lat="46.1022790" lon="12.3994340">
        <ele>1051.8200000</ele>
        <time>2010-09-29T07:32:03Z</time>
      </trkpt>
      <trkpt lat="46.1023340" lon="12.3993970">
        <ele>1052.3000000</ele>
        <time>2010-09-29T07:32:12Z</time>
      </trkpt>
      <trkpt lat="46.1022550" lon="12.3991670">
        <ele>1051.8200000</ele>
        <time>2010-09-29T07:34:48Z</time>
      </trkpt>
      <trkpt lat="46.1022200" lon="12.3991980">
        <ele>1052.3000000</ele>
        <time>2010-09-29T07:35:10Z</time>
      </trkpt>
      <trkpt lat="46.1021160" lon="12.3992550">
        <ele>1050.8600000</ele>
        <time>2010-09-29T07:35:17Z</time>
      </trkpt>
      <trkpt lat="46.1020980" lon="12.3992640">
        <ele>1051.3400000</ele>
        <time>2010-09-29T07:35:18Z</time>
      </trkpt>
      <trkpt lat="46.1020330" lon="12.3993220">
        <ele>1051.8200000</ele>
        <time>2010-09-29T07:35:26Z</time>
      </trkpt>
      <trkpt lat="46.1020110" lon="12.3993750">
        <ele>1051.3400000</ele>
        <time>2010-09-29T07:35:49Z</time>
      </trkpt>
      <trkpt lat="46.1019890" lon="12.3995020">
        <ele>1050.3800000</ele>
        <time>2010-09-29T07:35:55Z</time>
      </trkpt>
      <trkpt lat="46.1019710" lon="12.3996300">
        <ele>1050.8600000</ele>
        <time>2010-09-29T07:36:00Z</time>
      </trkpt>
      <trkpt lat="46.1019210" lon="12.3997960">
        <ele>1050.8600000</ele>
        <time>2010-09-29T07:36:08Z</time>
      </trkpt>
      <trkpt lat="46.1018810" lon="12.3999010">
        <ele>1050.3800000</ele>
        <time>2010-09-29T07:36:14Z</time>
      </trkpt>
      <trkpt lat="46.1018760" lon="12.3999620">
        <ele>1051.8200000</ele>
        <time>2010-09-29T07:36:20Z</time>
      </trkpt>
      <trkpt lat="46.1018720" lon="12.3999650">
        <ele>1051.8200000</ele>
        <time>2010-09-29T07:36:21Z</time>
      </trkpt>
      <trkpt lat="46.1018680" lon="12.3999210">
        <ele>1052.7800000</ele>
        <time>2010-09-29T07:36:27Z</time>
      </trkpt>
      <trkpt lat="46.1018600" lon="12.3998700">
        <ele>1055.1800000</ele>
        <time>2010-09-29T07:36:40Z</time>
      </trkpt>
      <trkpt lat="46.1017930" lon="12.3997600">
        <ele>1057.5900000</ele>
        <time>2010-09-29T07:36:58Z</time>
      </trkpt>
      <trkpt lat="46.1017720" lon="12.3996520">
        <ele>1059.5100000</ele>
        <time>2010-09-29T07:37:08Z</time>
      </trkpt>
      <trkpt lat="46.1017800" lon="12.3996310">
        <ele>1059.5100000</ele>
        <time>2010-09-29T07:37:10Z</time>
      </trkpt>
      <trkpt lat="46.1017970" lon="12.3995620">
        <ele>1059.9900000</ele>
        <time>2010-09-29T07:37:17Z</time>
      </trkpt>
      <trkpt lat="46.1019260" lon="12.3990430">
        <ele>1062.8700000</ele>
        <time>2010-09-29T07:41:07Z</time>
      </trkpt>
      <trkpt lat="46.1019920" lon="12.3985360">
        <ele>1065.7600000</ele>
        <time>2010-09-29T07:41:46Z</time>
      </trkpt>
      <trkpt lat="46.1020120" lon="12.3982890">
        <ele>1068.1600000</ele>
        <time>2010-09-29T07:42:09Z</time>
      </trkpt>
      <trkpt lat="46.1019570" lon="12.3981090">
        <ele>1068.6400000</ele>
        <time>2010-09-29T07:42:16Z</time>
      </trkpt>
      <trkpt lat="46.1019450" lon="12.3980080">
        <ele>1069.6000000</ele>
        <time>2010-09-29T07:42:21Z</time>
      </trkpt>
      <trkpt lat="46.1019520" lon="12.3978760">
        <ele>1070.5700000</ele>
        <time>2010-09-29T07:42:28Z</time>
      </trkpt>
      <trkpt lat="46.1019510" lon="12.3975930">
        <ele>1071.5300000</ele>
        <time>2010-09-29T07:42:41Z</time>
      </trkpt>
      <trkpt lat="46.1019720" lon="12.3974610">
        <ele>1072.0100000</ele>
        <time>2010-09-29T07:42:48Z</time>
      </trkpt>
      <trkpt lat="46.1019980" lon="12.3972850">
        <ele>1072.4900000</ele>
        <time>2010-09-29T07:42:56Z</time>
      </trkpt>
      <trkpt lat="46.1019840" lon="12.3972200">
        <ele>1073.4500000</ele>
        <time>2010-09-29T07:43:01Z</time>
      </trkpt>
      <trkpt lat="46.1020220" lon="12.3971390">
        <ele>1073.4500000</ele>
        <time>2010-09-29T07:43:06Z</time>
      </trkpt>
      <trkpt lat="46.1020670" lon="12.3970290">
        <ele>1074.8900000</ele>
        <time>2010-09-29T07:43:13Z</time>
      </trkpt>
      <trkpt lat="46.1020360" lon="12.3968050">
        <ele>1076.8100000</ele>
        <time>2010-09-29T07:43:34Z</time>
      </trkpt>
      <trkpt lat="46.1020390" lon="12.3966670">
        <ele>1077.7800000</ele>
        <time>2010-09-29T07:43:45Z</time>
      </trkpt>
      <trkpt lat="46.1020440" lon="12.3965470">
        <ele>1078.2600000</ele>
        <time>2010-09-29T07:43:52Z</time>
      </trkpt>
      <trkpt lat="46.1020320" lon="12.3964770">
        <ele>1079.2200000</ele>
        <time>2010-09-29T07:43:58Z</time>
      </trkpt>
      <trkpt lat="46.1020110" lon="12.3964230">
        <ele>1079.2200000</ele>
        <time>2010-09-29T07:44:07Z</time>
      </trkpt>
      <trkpt lat="46.1020000" lon="12.3963150">
        <ele>1082.1000000</ele>
        <time>2010-09-29T07:44:22Z</time>
      </trkpt>
      <trkpt lat="46.1019870" lon="12.3959850">
        <ele>1085.4700000</ele>
        <time>2010-09-29T07:44:50Z</time>
      </trkpt>
      <trkpt lat="46.1020110" lon="12.3955270">
        <ele>1087.8700000</ele>
        <time>2010-09-29T07:45:13Z</time>
      </trkpt>
      <trkpt lat="46.1020460" lon="12.3952080">
        <ele>1090.7500000</ele>
        <time>2010-09-29T07:45:34Z</time>
      </trkpt>
      <trkpt lat="46.1020790" lon="12.3950770">
        <ele>1091.2300000</ele>
        <time>2010-09-29T07:45:44Z</time>
      </trkpt>
      <trkpt lat="46.1020810" lon="12.3948310">
        <ele>1093.6400000</ele>
        <time>2010-09-29T07:46:13Z</time>
      </trkpt>
      <trkpt lat="46.1020910" lon="12.3947730">
        <ele>1092.6800000</ele>
        <time>2010-09-29T07:46:15Z</time>
      </trkpt>
      <trkpt lat="46.1021430" lon="12.3945420">
        <ele>1093.6400000</ele>
        <time>2010-09-29T07:46:23Z</time>
      </trkpt>
      <trkpt lat="46.1022050" lon="12.3943150">
        <ele>1093.6400000</ele>
        <time>2010-09-29T07:46:30Z</time>
      </trkpt>
      <trkpt lat="46.1022090" lon="12.3941190">
        <ele>1093.1600000</ele>
        <time>2010-09-29T07:46:36Z</time>
      </trkpt>
      <trkpt lat="46.1021640" lon="12.3939350">
        <ele>1094.6000000</ele>
        <time>2010-09-29T07:46:45Z</time>
      </trkpt>
      <trkpt lat="46.1022080" lon="12.3938330">
        <ele>1094.6000000</ele>
        <time>2010-09-29T07:46:54Z</time>
      </trkpt>
      <trkpt lat="46.1022150" lon="12.3938010">
        <ele>1095.5600000</ele>
        <time>2010-09-29T07:47:30Z</time>
      </trkpt>
      <trkpt lat="46.1021260" lon="12.3937920">
        <ele>1096.0400000</ele>
        <time>2010-09-29T07:47:37Z</time>
      </trkpt>
      <trkpt lat="46.1021060" lon="12.3938030">
        <ele>1096.0400000</ele>
        <time>2010-09-29T07:47:40Z</time>
      </trkpt>
      <trkpt lat="46.1019440" lon="12.3938620">
        <ele>1097.9600000</ele>
        <time>2010-09-29T07:47:51Z</time>
      </trkpt>
      <trkpt lat="46.1018190" lon="12.3939130">
        <ele>1101.3300000</ele>
        <time>2010-09-29T07:48:10Z</time>
      </trkpt>
      <trkpt lat="46.1017930" lon="12.3938940">
        <ele>1101.8100000</ele>
        <time>2010-09-29T07:48:16Z</time>
      </trkpt>
      <trkpt lat="46.1017190" lon="12.3938090">
        <ele>1105.1700000</ele>
        <time>2010-09-29T07:48:35Z</time>
      </trkpt>
      <trkpt lat="46.1016760" lon="12.3935910">
        <ele>1106.6100000</ele>
        <time>2010-09-29T07:48:49Z</time>
      </trkpt>
      <trkpt lat="46.1016990" lon="12.3935160">
        <ele>1107.5800000</ele>
        <time>2010-09-29T07:48:55Z</time>
      </trkpt>
      <trkpt lat="46.1017260" lon="12.3934710">
        <ele>1107.5800000</ele>
        <time>2010-09-29T07:49:03Z</time>
      </trkpt>
      <trkpt lat="46.1017220" lon="12.3934560">
        <ele>1108.5400000</ele>
        <time>2010-09-29T07:49:13Z</time>
      </trkpt>
      <trkpt lat="46.1017110" lon="12.3933740">
        <ele>1109.5000000</ele>
        <time>2010-09-29T07:49:19Z</time>
      </trkpt>
      <trkpt lat="46.1017120" lon="12.3933040">
        <ele>1109.9800000</ele>
        <time>2010-09-29T07:49:24Z</time>
      </trkpt>
      <trkpt lat="46.1017270" lon="12.3931960">
        <ele>1110.4600000</ele>
        <time>2010-09-29T07:49:30Z</time>
      </trkpt>
      <trkpt lat="46.1017360" lon="12.3930780">
        <ele>1111.4200000</ele>
        <time>2010-09-29T07:49:36Z</time>
      </trkpt>
      <trkpt lat="46.1017030" lon="12.3929840">
        <ele>1112.3800000</ele>
        <time>2010-09-29T07:49:44Z</time>
      </trkpt>
      <trkpt lat="46.1016280" lon="12.3927930">
        <ele>1114.3100000</ele>
        <time>2010-09-29T07:49:59Z</time>
      </trkpt>
      <trkpt lat="46.1015550" lon="12.3926190">
        <ele>1116.2300000</ele>
        <time>2010-09-29T07:50:11Z</time>
      </trkpt>
      <trkpt lat="46.1015460" lon="12.3924740">
        <ele>1116.7100000</ele>
        <time>2010-09-29T07:50:18Z</time>
      </trkpt>
      <trkpt lat="46.1015610" lon="12.3923360">
        <ele>1117.6700000</ele>
        <time>2010-09-29T07:50:26Z</time>
      </trkpt>
      <trkpt lat="46.1015300" lon="12.3922460">
        <ele>1118.6300000</ele>
        <time>2010-09-29T07:50:32Z</time>
      </trkpt>
      <trkpt lat="46.1015230" lon="12.3920650">
        <ele>1119.1100000</ele>
        <time>2010-09-29T07:50:44Z</time>
      </trkpt>
      <trkpt lat="46.1014980" lon="12.3919300">
        <ele>1120.5500000</ele>
        <time>2010-09-29T07:50:55Z</time>
      </trkpt>
      <trkpt lat="46.1014860" lon="12.3918320">
        <ele>1121.0300000</ele>
        <time>2010-09-29T07:51:01Z</time>
      </trkpt>
      <trkpt lat="46.1015070" lon="12.3915660">
        <ele>1124.4000000</ele>
        <time>2010-09-29T07:51:26Z</time>
      </trkpt>
      <trkpt lat="46.1015310" lon="12.3909390">
        <ele>1127.2800000</ele>
        <time>2010-09-29T07:51:59Z</time>
      </trkpt>
      <trkpt lat="46.1015120" lon="12.3906500">
        <ele>1129.6900000</ele>
        <time>2010-09-29T07:52:22Z</time>
      </trkpt>
      <trkpt lat="46.1015150" lon="12.3905650">
        <ele>1130.1700000</ele>
        <time>2010-09-29T07:52:28Z</time>
      </trkpt>
      <trkpt lat="46.1015400" lon="12.3903880">
        <ele>1131.1300000</ele>
        <time>2010-09-29T07:52:35Z</time>
      </trkpt>
      <trkpt lat="46.1016050" lon="12.3902310">
        <ele>1131.6100000</ele>
        <time>2010-09-29T07:52:43Z</time>
      </trkpt>
      <trkpt lat="46.1015490" lon="12.3900600">
        <ele>1134.4900000</ele>
        <time>2010-09-29T07:55:02Z</time>
      </trkpt>
      <trkpt lat="46.1015240" lon="12.3899770">
        <ele>1135.4500000</ele>
        <time>2010-09-29T07:55:08Z</time>
      </trkpt>
      <trkpt lat="46.1015520" lon="12.3899150">
        <ele>1135.9400000</ele>
        <time>2010-09-29T07:55:16Z</time>
      </trkpt>
      <trkpt lat="46.1015140" lon="12.3898310">
        <ele>1136.9000000</ele>
        <time>2010-09-29T07:55:24Z</time>
      </trkpt>
      <trkpt lat="46.1014810" lon="12.3895410">
        <ele>1140.2600000</ele>
        <time>2010-09-29T07:55:45Z</time>
      </trkpt>
      <trkpt lat="46.1014460" lon="12.3893190">
        <ele>1142.6600000</ele>
        <time>2010-09-29T07:56:03Z</time>
      </trkpt>
      <trkpt lat="46.1014250" lon="12.3891580">
        <ele>1144.1100000</ele>
        <time>2010-09-29T07:56:13Z</time>
      </trkpt>
      <trkpt lat="46.1014270" lon="12.3890640">
        <ele>1144.1100000</ele>
        <time>2010-09-29T07:56:21Z</time>
      </trkpt>
      <trkpt lat="46.1014490" lon="12.3889710">
        <ele>1145.5500000</ele>
        <time>2010-09-29T07:56:28Z</time>
      </trkpt>
      <trkpt lat="46.1014390" lon="12.3887780">
        <ele>1146.9900000</ele>
        <time>2010-09-29T07:56:45Z</time>
      </trkpt>
      <trkpt lat="46.1014520" lon="12.3886580">
        <ele>1148.9100000</ele>
        <time>2010-09-29T07:57:02Z</time>
      </trkpt>
      <trkpt lat="46.1014540" lon="12.3886420">
        <ele>1148.9100000</ele>
        <time>2010-09-29T07:57:03Z</time>
      </trkpt>
      <trkpt lat="46.1014690" lon="12.3884430">
        <ele>1149.3900000</ele>
        <time>2010-09-29T07:57:09Z</time>
      </trkpt>
      <trkpt lat="46.1014620" lon="12.3882850">
        <ele>1149.8700000</ele>
        <time>2010-09-29T07:57:16Z</time>
      </trkpt>
      <trkpt lat="46.1014150" lon="12.3881880">
        <ele>1151.3200000</ele>
        <time>2010-09-29T07:57:24Z</time>
      </trkpt>
      <trkpt lat="46.1014070" lon="12.3879900">
        <ele>1153.7200000</ele>
        <time>2010-09-29T07:57:42Z</time>
      </trkpt>
      <trkpt lat="46.1013830" lon="12.3878820">
        <ele>1154.2000000</ele>
        <time>2010-09-29T07:57:48Z</time>
      </trkpt>
      <trkpt lat="46.1013780" lon="12.3877540">
        <ele>1155.1600000</ele>
        <time>2010-09-29T07:57:54Z</time>
      </trkpt>
      <trkpt lat="46.1013870" lon="12.3875820">
        <ele>1155.6400000</ele>
        <time>2010-09-29T07:58:06Z</time>
      </trkpt>
      <trkpt lat="46.1013840" lon="12.3875250">
        <ele>1157.0800000</ele>
        <time>2010-09-29T07:58:11Z</time>
      </trkpt>
      <trkpt lat="46.1013780" lon="12.3874650">
        <ele>1157.5600000</ele>
        <time>2010-09-29T07:58:17Z</time>
      </trkpt>
      <trkpt lat="46.1013850" lon="12.3873780">
        <ele>1158.0500000</ele>
        <time>2010-09-29T07:58:23Z</time>
      </trkpt>
      <trkpt lat="46.1013870" lon="12.3873640">
        <ele>1158.5300000</ele>
        <time>2010-09-29T07:58:24Z</time>
      </trkpt>
      <trkpt lat="46.1013770" lon="12.3873080">
        <ele>1158.5300000</ele>
        <time>2010-09-29T07:58:32Z</time>
      </trkpt>
      <trkpt lat="46.1012600" lon="12.3870730">
        <ele>1159.4900000</ele>
        <time>2010-09-29T07:58:43Z</time>
      </trkpt>
      <trkpt lat="46.1011960" lon="12.3869860">
        <ele>1159.9700000</ele>
        <time>2010-09-29T07:58:50Z</time>
      </trkpt>
      <trkpt lat="46.1011360" lon="12.3868900">
        <ele>1159.9700000</ele>
        <time>2010-09-29T07:58:58Z</time>
      </trkpt>
      <trkpt lat="46.1010960" lon="12.3868180">
        <ele>1160.4500000</ele>
        <time>2010-09-29T07:59:04Z</time>
      </trkpt>
      <trkpt lat="46.1010890" lon="12.3867500">
        <ele>1159.9700000</ele>
        <time>2010-09-29T07:59:08Z</time>
      </trkpt>
      <trkpt lat="46.1010590" lon="12.3866530">
        <ele>1159.4900000</ele>
        <time>2010-09-29T07:59:15Z</time>
      </trkpt>
      <trkpt lat="46.1010680" lon="12.3866380">
        <ele>1160.9300000</ele>
        <time>2010-09-29T07:59:19Z</time>
      </trkpt>
      <trkpt lat="46.1011750" lon="12.3865290">
        <ele>1160.9300000</ele>
        <time>2010-09-29T07:59:28Z</time>
      </trkpt>
      <trkpt lat="46.1012470" lon="12.3865300">
        <ele>1161.8900000</ele>
        <time>2010-09-29T07:59:36Z</time>
      </trkpt>
      <trkpt lat="46.1012810" lon="12.3864890">
        <ele>1162.8500000</ele>
        <time>2010-09-29T07:59:42Z</time>
      </trkpt>
      <trkpt lat="46.1013020" lon="12.3864810">
        <ele>1163.3300000</ele>
        <time>2010-09-29T07:59:50Z</time>
      </trkpt>
      <trkpt lat="46.1012640" lon="12.3865080">
        <ele>1165.2600000</ele>
        <time>2010-09-29T08:00:16Z</time>
      </trkpt>
      <trkpt lat="46.1013070" lon="12.3861360">
        <ele>1167.1800000</ele>
        <time>2010-09-29T08:00:49Z</time>
      </trkpt>
      <trkpt lat="46.1013070" lon="12.3860300">
        <ele>1167.6600000</ele>
        <time>2010-09-29T08:00:56Z</time>
      </trkpt>
      <trkpt lat="46.1013110" lon="12.3858860">
        <ele>1168.1400000</ele>
        <time>2010-09-29T08:01:03Z</time>
      </trkpt>
      <trkpt lat="46.1012960" lon="12.3857900">
        <ele>1169.1000000</ele>
        <time>2010-09-29T08:01:17Z</time>
      </trkpt>
      <trkpt lat="46.1012840" lon="12.3857240">
        <ele>1169.5800000</ele>
        <time>2010-09-29T08:01:21Z</time>
      </trkpt>
      <trkpt lat="46.1012810" lon="12.3856230">
        <ele>1170.0600000</ele>
        <time>2010-09-29T08:01:27Z</time>
      </trkpt>
      <trkpt lat="46.1012850" lon="12.3855240">
        <ele>1171.0200000</ele>
        <time>2010-09-29T08:01:33Z</time>
      </trkpt>
      <trkpt lat="46.1012740" lon="12.3854410">
        <ele>1172.4700000</ele>
        <time>2010-09-29T08:01:39Z</time>
      </trkpt>
      <trkpt lat="46.1012610" lon="12.3853590">
        <ele>1172.4700000</ele>
        <time>2010-09-29T08:01:44Z</time>
      </trkpt>
      <trkpt lat="46.1012480" lon="12.3852830">
        <ele>1173.4300000</ele>
        <time>2010-09-29T08:01:50Z</time>
      </trkpt>
      <trkpt lat="46.1012210" lon="12.3851290">
        <ele>1175.8300000</ele>
        <time>2010-09-29T08:02:04Z</time>
      </trkpt>
      <trkpt lat="46.1012440" lon="12.3850350">
        <ele>1178.7100000</ele>
        <time>2010-09-29T08:02:26Z</time>
      </trkpt>
      <trkpt lat="46.1012210" lon="12.3848710">
        <ele>1181.1200000</ele>
        <time>2010-09-29T08:03:03Z</time>
      </trkpt>
      <trkpt lat="46.1012060" lon="12.3848300">
        <ele>1182.0800000</ele>
        <time>2010-09-29T08:03:32Z</time>
      </trkpt>
      <trkpt lat="46.1011730" lon="12.3847050">
        <ele>1183.0400000</ele>
        <time>2010-09-29T08:03:38Z</time>
      </trkpt>
      <trkpt lat="46.1011210" lon="12.3846400">
        <ele>1184.0000000</ele>
        <time>2010-09-29T08:03:44Z</time>
      </trkpt>
      <trkpt lat="46.1010560" lon="12.3845650">
        <ele>1186.4000000</ele>
        <time>2010-09-29T08:04:33Z</time>
      </trkpt>
      <trkpt lat="46.1008990" lon="12.3844640">
        <ele>1187.3700000</ele>
        <time>2010-09-29T08:04:40Z</time>
      </trkpt>
      <trkpt lat="46.1008080" lon="12.3844030">
        <ele>1188.3300000</ele>
        <time>2010-09-29T08:04:49Z</time>
      </trkpt>
      <trkpt lat="46.1007490" lon="12.3843410">
        <ele>1189.7700000</ele>
        <time>2010-09-29T08:04:55Z</time>
      </trkpt>
      <trkpt lat="46.1007400" lon="12.3842510">
        <ele>1189.7700000</ele>
        <time>2010-09-29T08:05:00Z</time>
      </trkpt>
      <trkpt lat="46.1007340" lon="12.3841640">
        <ele>1190.7300000</ele>
        <time>2010-09-29T08:05:09Z</time>
      </trkpt>
      <trkpt lat="46.1007610" lon="12.3840710">
        <ele>1192.6500000</ele>
        <time>2010-09-29T08:05:20Z</time>
      </trkpt>
      <trkpt lat="46.1007880" lon="12.3840080">
        <ele>1193.1300000</ele>
        <time>2010-09-29T08:05:25Z</time>
      </trkpt>
      <trkpt lat="46.1008220" lon="12.3838630">
        <ele>1194.0900000</ele>
        <time>2010-09-29T08:05:32Z</time>
      </trkpt>
      <trkpt lat="46.1008270" lon="12.3837540">
        <ele>1195.5400000</ele>
        <time>2010-09-29T08:05:39Z</time>
      </trkpt>
      <trkpt lat="46.1008240" lon="12.3836560">
        <ele>1196.0200000</ele>
        <time>2010-09-29T08:05:45Z</time>
      </trkpt>
      <trkpt lat="46.1007750" lon="12.3833910">
        <ele>1198.9000000</ele>
        <time>2010-09-29T08:06:06Z</time>
      </trkpt>
      <trkpt lat="46.1007850" lon="12.3833110">
        <ele>1199.8600000</ele>
        <time>2010-09-29T08:06:13Z</time>
      </trkpt>
      <trkpt lat="46.1007860" lon="12.3831690">
        <ele>1201.3000000</ele>
        <time>2010-09-29T08:06:23Z</time>
      </trkpt>
      <trkpt lat="46.1008080" lon="12.3830200">
        <ele>1202.2700000</ele>
        <time>2010-09-29T08:06:29Z</time>
      </trkpt>
      <trkpt lat="46.1007700" lon="12.3828450">
        <ele>1202.7500000</ele>
        <time>2010-09-29T08:06:37Z</time>
      </trkpt>
      <trkpt lat="46.1007040" lon="12.3827300">
        <ele>1203.7100000</ele>
        <time>2010-09-29T08:06:44Z</time>
      </trkpt>
      <trkpt lat="46.1006970" lon="12.3826930">
        <ele>1204.6700000</ele>
        <time>2010-09-29T08:06:47Z</time>
      </trkpt>
      <trkpt lat="46.1006500" lon="12.3825730">
        <ele>1205.1500000</ele>
        <time>2010-09-29T08:06:56Z</time>
      </trkpt>
      <trkpt lat="46.1006440" lon="12.3824690">
        <ele>1205.6300000</ele>
        <time>2010-09-29T08:07:02Z</time>
      </trkpt>
      <trkpt lat="46.1005950" lon="12.3823930">
        <ele>1206.1100000</ele>
        <time>2010-09-29T08:07:08Z</time>
      </trkpt>
      <trkpt lat="46.1005540" lon="12.3822520">
        <ele>1207.5500000</ele>
        <time>2010-09-29T08:07:22Z</time>
      </trkpt>
      <trkpt lat="46.1005470" lon="12.3821070">
        <ele>1208.5100000</ele>
        <time>2010-09-29T08:07:29Z</time>
      </trkpt>
      <trkpt lat="46.1004890" lon="12.3819170">
        <ele>1209.4800000</ele>
        <time>2010-09-29T08:07:37Z</time>
      </trkpt>
      <trkpt lat="46.1004740" lon="12.3817760">
        <ele>1210.4400000</ele>
        <time>2010-09-29T08:07:45Z</time>
      </trkpt>
      <trkpt lat="46.1004400" lon="12.3816220">
        <ele>1213.8000000</ele>
        <time>2010-09-29T08:08:08Z</time>
      </trkpt>
      <trkpt lat="46.1003530" lon="12.3815440">
        <ele>1215.2400000</ele>
        <time>2010-09-29T08:08:20Z</time>
      </trkpt>
      <trkpt lat="46.1003570" lon="12.3815140">
        <ele>1215.7200000</ele>
        <time>2010-09-29T08:08:25Z</time>
      </trkpt>
      <trkpt lat="46.1003870" lon="12.3814640">
        <ele>1216.6900000</ele>
        <time>2010-09-29T08:08:31Z</time>
      </trkpt>
      <trkpt lat="46.1004030" lon="12.3813950">
        <ele>1217.1700000</ele>
        <time>2010-09-29T08:08:38Z</time>
      </trkpt>
      <trkpt lat="46.1004000" lon="12.3812470">
        <ele>1220.0500000</ele>
        <time>2010-09-29T08:08:54Z</time>
      </trkpt>
      <trkpt lat="46.1003860" lon="12.3811360">
        <ele>1221.4900000</ele>
        <time>2010-09-29T08:09:03Z</time>
      </trkpt>
      <trkpt lat="46.1003220" lon="12.3810120">
        <ele>1224.3800000</ele>
        <time>2010-09-29T08:09:20Z</time>
      </trkpt>
      <trkpt lat="46.1003020" lon="12.3808030">
        <ele>1225.3400000</ele>
        <time>2010-09-29T08:09:29Z</time>
      </trkpt>
      <trkpt lat="46.1002420" lon="12.3806250">
        <ele>1227.7400000</ele>
        <time>2010-09-29T08:09:44Z</time>
      </trkpt>
      <trkpt lat="46.1002320" lon="12.3804970">
        <ele>1228.2200000</ele>
        <time>2010-09-29T08:09:50Z</time>
      </trkpt>
      <trkpt lat="46.1002240" lon="12.3803660">
        <ele>1229.1800000</ele>
        <time>2010-09-29T08:10:01Z</time>
      </trkpt>
      <trkpt lat="46.1002250" lon="12.3802620">
        <ele>1229.6600000</ele>
        <time>2010-09-29T08:10:08Z</time>
      </trkpt>
      <trkpt lat="46.1002050" lon="12.3800780">
        <ele>1231.1100000</ele>
        <time>2010-09-29T08:10:17Z</time>
      </trkpt>
      <trkpt lat="46.1001860" lon="12.3797750">
        <ele>1232.0700000</ele>
        <time>2010-09-29T08:10:29Z</time>
      </trkpt>
      <trkpt lat="46.1001520" lon="12.3795860">
        <ele>1233.9900000</ele>
        <time>2010-09-29T08:10:37Z</time>
      </trkpt>
      <trkpt lat="46.1000930" lon="12.3795030">
        <ele>1234.9500000</ele>
        <time>2010-09-29T08:10:45Z</time>
      </trkpt>
      <trkpt lat="46.1000190" lon="12.3794450">
        <ele>1235.4300000</ele>
        <time>2010-09-29T08:10:51Z</time>
      </trkpt>
      <trkpt lat="46.0999340" lon="12.3794100">
        <ele>1236.3900000</ele>
        <time>2010-09-29T08:10:56Z</time>
      </trkpt>
      <trkpt lat="46.0997910" lon="12.3794380">
        <ele>1237.3500000</ele>
        <time>2010-09-29T08:11:02Z</time>
      </trkpt>
      <trkpt lat="46.0997440" lon="12.3794800">
        <ele>1238.3200000</ele>
        <time>2010-09-29T08:11:06Z</time>
      </trkpt>
      <trkpt lat="46.0997040" lon="12.3795690">
        <ele>1238.3200000</ele>
        <time>2010-09-29T08:11:14Z</time>
      </trkpt>
      <trkpt lat="46.0996700" lon="12.3796380">
        <ele>1239.2800000</ele>
        <time>2010-09-29T08:11:21Z</time>
      </trkpt>
      <trkpt lat="46.0996300" lon="12.3797250">
        <ele>1239.7600000</ele>
        <time>2010-09-29T08:11:29Z</time>
      </trkpt>
      <trkpt lat="46.0995840" lon="12.3797750">
        <ele>1239.7600000</ele>
        <time>2010-09-29T08:11:37Z</time>
      </trkpt>
      <trkpt lat="46.0995530" lon="12.3798620">
        <ele>1240.7200000</ele>
        <time>2010-09-29T08:11:45Z</time>
      </trkpt>
      <trkpt lat="46.0995120" lon="12.3799270">
        <ele>1241.2000000</ele>
        <time>2010-09-29T08:11:51Z</time>
      </trkpt>
      <trkpt lat="46.0994930" lon="12.3800220">
        <ele>1242.1600000</ele>
        <time>2010-09-29T08:11:59Z</time>
      </trkpt>
      <trkpt lat="46.0994850" lon="12.3800400">
        <ele>1243.1200000</ele>
        <time>2010-09-29T08:12:06Z</time>
      </trkpt>
      <trkpt lat="46.0994850" lon="12.3800040">
        <ele>1243.6000000</ele>
        <time>2010-09-29T08:12:14Z</time>
      </trkpt>
      <trkpt lat="46.0994910" lon="12.3799100">
        <ele>1244.0800000</ele>
        <time>2010-09-29T08:12:22Z</time>
      </trkpt>
      <trkpt lat="46.0994540" lon="12.3797990">
        <ele>1244.5600000</ele>
        <time>2010-09-29T08:12:30Z</time>
      </trkpt>
      <trkpt lat="46.0993720" lon="12.3797580">
        <ele>1245.5300000</ele>
        <time>2010-09-29T08:12:37Z</time>
      </trkpt>
      <trkpt lat="46.0993590" lon="12.3797760">
        <ele>1246.0100000</ele>
        <time>2010-09-29T08:13:07Z</time>
      </trkpt>
      <trkpt lat="46.0992890" lon="12.3798310">
        <ele>1246.4900000</ele>
        <time>2010-09-29T08:13:12Z</time>
      </trkpt>
      <trkpt lat="46.0992360" lon="12.3798750">
        <ele>1246.9700000</ele>
        <time>2010-09-29T08:13:20Z</time>
      </trkpt>
      <trkpt lat="46.0992050" lon="12.3799160">
        <ele>1247.4500000</ele>
        <time>2010-09-29T08:13:45Z</time>
      </trkpt>
      <trkpt lat="46.0991480" lon="12.3800060">
        <ele>1247.9300000</ele>
        <time>2010-09-29T08:13:51Z</time>
      </trkpt>
      <trkpt lat="46.0991270" lon="12.3800850">
        <ele>1248.8900000</ele>
        <time>2010-09-29T08:13:58Z</time>
      </trkpt>
      <trkpt lat="46.0990950" lon="12.3801840">
        <ele>1248.8900000</ele>
        <time>2010-09-29T08:14:04Z</time>
      </trkpt>
      <trkpt lat="46.0990370" lon="12.3803050">
        <ele>1250.3300000</ele>
        <time>2010-09-29T08:14:11Z</time>
      </trkpt>
      <trkpt lat="46.0990010" lon="12.3803750">
        <ele>1250.3300000</ele>
        <time>2010-09-29T08:14:20Z</time>
      </trkpt>
      <trkpt lat="46.0989910" lon="12.3804320">
        <ele>1251.7700000</ele>
        <time>2010-09-29T08:14:28Z</time>
      </trkpt>
      <trkpt lat="46.0989490" lon="12.3805380">
        <ele>1253.2200000</ele>
        <time>2010-09-29T08:14:38Z</time>
      </trkpt>
      <trkpt lat="46.0989170" lon="12.3806120">
        <ele>1254.1800000</ele>
        <time>2010-09-29T08:14:44Z</time>
      </trkpt>
      <trkpt lat="46.0988860" lon="12.3807010">
        <ele>1254.1800000</ele>
        <time>2010-09-29T08:14:52Z</time>
      </trkpt>
      <trkpt lat="46.0988100" lon="12.3807720">
        <ele>1255.1400000</ele>
        <time>2010-09-29T08:14:59Z</time>
      </trkpt>
      <trkpt lat="46.0987790" lon="12.3808370">
        <ele>1256.1000000</ele>
        <time>2010-09-29T08:15:04Z</time>
      </trkpt>
      <trkpt lat="46.0987640" lon="12.3808880">
        <ele>1255.6200000</ele>
        <time>2010-09-29T08:15:09Z</time>
      </trkpt>
      <trkpt lat="46.0987360" lon="12.3809680">
        <ele>1256.1000000</ele>
        <time>2010-09-29T08:15:16Z</time>
      </trkpt>
      <trkpt lat="46.0987080" lon="12.3810500">
        <ele>1257.5400000</ele>
        <time>2010-09-29T08:15:19Z</time>
      </trkpt>
      <trkpt lat="46.0987000" lon="12.3812030">
        <ele>1258.0200000</ele>
        <time>2010-09-29T08:15:28Z</time>
      </trkpt>
      <trkpt lat="46.0987270" lon="12.3814710">
        <ele>1259.9400000</ele>
        <time>2010-09-29T08:15:46Z</time>
      </trkpt>
      <trkpt lat="46.0987700" lon="12.3816150">
        <ele>1260.4300000</ele>
        <time>2010-09-29T08:15:54Z</time>
      </trkpt>
      <trkpt lat="46.0987700" lon="12.3816960">
        <ele>1260.9100000</ele>
        <time>2010-09-29T08:15:59Z</time>
      </trkpt>
      <trkpt lat="46.0987500" lon="12.3817670">
        <ele>1261.3900000</ele>
        <time>2010-09-29T08:16:05Z</time>
      </trkpt>
      <trkpt lat="46.0987370" lon="12.3818270">
        <ele>1261.8700000</ele>
        <time>2010-09-29T08:16:10Z</time>
      </trkpt>
      <trkpt lat="46.0987060" lon="12.3819270">
        <ele>1262.3500000</ele>
        <time>2010-09-29T08:16:19Z</time>
      </trkpt>
      <trkpt lat="46.0987100" lon="12.3819640">
        <ele>1263.3100000</ele>
        <time>2010-09-29T08:16:21Z</time>
      </trkpt>
      <trkpt lat="46.0987600" lon="12.3821060">
        <ele>1263.3100000</ele>
        <time>2010-09-29T08:16:30Z</time>
      </trkpt>
      <trkpt lat="46.0987620" lon="12.3821720">
        <ele>1263.7900000</ele>
        <time>2010-09-29T08:16:36Z</time>
      </trkpt>
      <trkpt lat="46.0987630" lon="12.3822730">
        <ele>1264.7500000</ele>
        <time>2010-09-29T08:16:43Z</time>
      </trkpt>
      <trkpt lat="46.0987380" lon="12.3823680">
        <ele>1265.2300000</ele>
        <time>2010-09-29T08:16:49Z</time>
      </trkpt>
      <trkpt lat="46.0987330" lon="12.3824650">
        <ele>1266.6700000</ele>
        <time>2010-09-29T08:16:57Z</time>
      </trkpt>
      <trkpt lat="46.0987130" lon="12.3825080">
        <ele>1266.6700000</ele>
        <time>2010-09-29T08:17:00Z</time>
      </trkpt>
      <trkpt lat="46.0986530" lon="12.3826890">
        <ele>1266.6700000</ele>
        <time>2010-09-29T08:17:09Z</time>
      </trkpt>
      <trkpt lat="46.0986440" lon="12.3827730">
        <ele>1267.6400000</ele>
        <time>2010-09-29T08:17:16Z</time>
      </trkpt>
      <trkpt lat="46.0986100" lon="12.3828420">
        <ele>1268.1200000</ele>
        <time>2010-09-29T08:17:23Z</time>
      </trkpt>
      <trkpt lat="46.0985800" lon="12.3829150">
        <ele>1269.0800000</ele>
        <time>2010-09-29T08:17:29Z</time>
      </trkpt>
      <trkpt lat="46.0985640" lon="12.3830000">
        <ele>1269.0800000</ele>
        <time>2010-09-29T08:17:34Z</time>
      </trkpt>
      <trkpt lat="46.0985410" lon="12.3831910">
        <ele>1269.5600000</ele>
        <time>2010-09-29T08:17:45Z</time>
      </trkpt>
      <trkpt lat="46.0984900" lon="12.3833130">
        <ele>1271.0000000</ele>
        <time>2010-09-29T08:17:53Z</time>
      </trkpt>
      <trkpt lat="46.0984780" lon="12.3833950">
        <ele>1271.9600000</ele>
        <time>2010-09-29T08:18:02Z</time>
      </trkpt>
      <trkpt lat="46.0985130" lon="12.3835810">
        <ele>1272.9200000</ele>
        <time>2010-09-29T08:18:19Z</time>
      </trkpt>
      <trkpt lat="46.0984630" lon="12.3839690">
        <ele>1274.8500000</ele>
        <time>2010-09-29T08:18:38Z</time>
      </trkpt>
      <trkpt lat="46.0984310" lon="12.3841150">
        <ele>1275.8100000</ele>
        <time>2010-09-29T08:18:46Z</time>
      </trkpt>
      <trkpt lat="46.0984080" lon="12.3842970">
        <ele>1276.7700000</ele>
        <time>2010-09-29T08:19:26Z</time>
      </trkpt>
      <trkpt lat="46.0983950" lon="12.3843560">
        <ele>1277.2500000</ele>
        <time>2010-09-29T08:19:29Z</time>
      </trkpt>
      <trkpt lat="46.0983720" lon="12.3845190">
        <ele>1277.7300000</ele>
        <time>2010-09-29T08:19:36Z</time>
      </trkpt>
      <trkpt lat="46.0983390" lon="12.3846230">
        <ele>1278.2100000</ele>
        <time>2010-09-29T08:19:43Z</time>
      </trkpt>
      <trkpt lat="46.0983160" lon="12.3846720">
        <ele>1279.1700000</ele>
        <time>2010-09-29T08:19:49Z</time>
      </trkpt>
      <trkpt lat="46.0982910" lon="12.3846840">
        <ele>1279.6500000</ele>
        <time>2010-09-29T08:19:57Z</time>
      </trkpt>
      <trkpt lat="46.0982830" lon="12.3847110">
        <ele>1280.6100000</ele>
        <time>2010-09-29T08:20:39Z</time>
      </trkpt>
      <trkpt lat="46.0983390" lon="12.3846980">
        <ele>1281.0900000</ele>
        <time>2010-09-29T08:20:45Z</time>
      </trkpt>
      <trkpt lat="46.0983740" lon="12.3846390">
        <ele>1281.0900000</ele>
        <time>2010-09-29T08:20:51Z</time>
      </trkpt>
      <trkpt lat="46.0983970" lon="12.3845500">
        <ele>1281.5700000</ele>
        <time>2010-09-29T08:20:58Z</time>
      </trkpt>
      <trkpt lat="46.0983760" lon="12.3844550">
        <ele>1282.5400000</ele>
        <time>2010-09-29T08:21:04Z</time>
      </trkpt>
      <trkpt lat="46.0983340" lon="12.3843340">
        <ele>1283.0200000</ele>
        <time>2010-09-29T08:21:13Z</time>
      </trkpt>
      <trkpt lat="46.0982940" lon="12.3842540">
        <ele>1283.0200000</ele>
        <time>2010-09-29T08:21:21Z</time>
      </trkpt>
      <trkpt lat="46.0982950" lon="12.3841720">
        <ele>1283.9800000</ele>
        <time>2010-09-29T08:21:28Z</time>
      </trkpt>
      <trkpt lat="46.0983010" lon="12.3840740">
        <ele>1284.4600000</ele>
        <time>2010-09-29T08:21:35Z</time>
      </trkpt>
      <trkpt lat="46.0983060" lon="12.3839780">
        <ele>1285.4200000</ele>
        <time>2010-09-29T08:21:44Z</time>
      </trkpt>
      <trkpt lat="46.0983030" lon="12.3838900">
        <ele>1285.9000000</ele>
        <time>2010-09-29T08:21:50Z</time>
      </trkpt>
      <trkpt lat="46.0983050" lon="12.3837840">
        <ele>1286.3800000</ele>
        <time>2010-09-29T08:21:57Z</time>
      </trkpt>
      <trkpt lat="46.0982780" lon="12.3837210">
        <ele>1286.8600000</ele>
        <time>2010-09-29T08:22:03Z</time>
      </trkpt>
      <trkpt lat="46.0982600" lon="12.3836430">
        <ele>1287.8200000</ele>
        <time>2010-09-29T08:22:11Z</time>
      </trkpt>
      <trkpt lat="46.0982650" lon="12.3836100">
        <ele>1288.3000000</ele>
        <time>2010-09-29T08:22:22Z</time>
      </trkpt>
      <trkpt lat="46.0982460" lon="12.3834800">
        <ele>1289.7500000</ele>
        <time>2010-09-29T08:22:33Z</time>
      </trkpt>
      <trkpt lat="46.0982260" lon="12.3833810">
        <ele>1289.7500000</ele>
        <time>2010-09-29T08:22:40Z</time>
      </trkpt>
      <trkpt lat="46.0982130" lon="12.3833480">
        <ele>1290.2300000</ele>
        <time>2010-09-29T08:22:42Z</time>
      </trkpt>
      <trkpt lat="46.0981630" lon="12.3831750">
        <ele>1290.2300000</ele>
        <time>2010-09-29T08:22:50Z</time>
      </trkpt>
      <trkpt lat="46.0981320" lon="12.3830450">
        <ele>1290.7100000</ele>
        <time>2010-09-29T08:22:57Z</time>
      </trkpt>
      <trkpt lat="46.0980850" lon="12.3829360">
        <ele>1290.7100000</ele>
        <time>2010-09-29T08:23:05Z</time>
      </trkpt>
      <trkpt lat="46.0980660" lon="12.3828960">
        <ele>1291.1900000</ele>
        <time>2010-09-29T08:23:12Z</time>
      </trkpt>
      <trkpt lat="46.0980300" lon="12.3828340">
        <ele>1292.1500000</ele>
        <time>2010-09-29T08:23:35Z</time>
      </trkpt>
      <trkpt lat="46.0980230" lon="12.3827880">
        <ele>1294.5500000</ele>
        <time>2010-09-29T08:23:58Z</time>
      </trkpt>
      <trkpt lat="46.0980220" lon="12.3825560">
        <ele>1295.5100000</ele>
        <time>2010-09-29T08:24:07Z</time>
      </trkpt>
      <trkpt lat="46.0980100" lon="12.3825160">
        <ele>1295.9900000</ele>
        <time>2010-09-29T08:24:14Z</time>
      </trkpt>
      <trkpt lat="46.0979460" lon="12.3823760">
        <ele>1296.9600000</ele>
        <time>2010-09-29T08:24:20Z</time>
      </trkpt>
      <trkpt lat="46.0978800" lon="12.3821960">
        <ele>1296.4800000</ele>
        <time>2010-09-29T08:24:29Z</time>
      </trkpt>
      <trkpt lat="46.0978390" lon="12.3820590">
        <ele>1296.9600000</ele>
        <time>2010-09-29T08:24:36Z</time>
      </trkpt>
      <trkpt lat="46.0977930" lon="12.3819680">
        <ele>1297.4400000</ele>
        <time>2010-09-29T08:24:42Z</time>
      </trkpt>
      <trkpt lat="46.0977550" lon="12.3819150">
        <ele>1297.4400000</ele>
        <time>2010-09-29T08:24:47Z</time>
      </trkpt>
      <trkpt lat="46.0976580" lon="12.3816960">
        <ele>1298.4000000</ele>
        <time>2010-09-29T08:24:57Z</time>
      </trkpt>
      <trkpt lat="46.0976110" lon="12.3816140">
        <ele>1298.8800000</ele>
        <time>2010-09-29T08:25:02Z</time>
      </trkpt>
      <trkpt lat="46.0975600" lon="12.3814860">
        <ele>1298.8800000</ele>
        <time>2010-09-29T08:25:10Z</time>
      </trkpt>
      <trkpt lat="46.0974720" lon="12.3813540">
        <ele>1299.3600000</ele>
        <time>2010-09-29T08:25:18Z</time>
      </trkpt>
      <trkpt lat="46.0973440" lon="12.3812640">
        <ele>1299.3600000</ele>
        <time>2010-09-29T08:25:27Z</time>
      </trkpt>
      <trkpt lat="46.0972290" lon="12.3811970">
        <ele>1299.8400000</ele>
        <time>2010-09-29T08:25:33Z</time>
      </trkpt>
      <trkpt lat="46.0971590" lon="12.3811680">
        <ele>1299.3600000</ele>
        <time>2010-09-29T08:25:40Z</time>
      </trkpt>
      <trkpt lat="46.0970280" lon="12.3811230">
        <ele>1299.3600000</ele>
        <time>2010-09-29T08:25:46Z</time>
      </trkpt>
      <trkpt lat="46.0967680" lon="12.3810690">
        <ele>1299.3600000</ele>
        <time>2010-09-29T08:25:54Z</time>
      </trkpt>
      <trkpt lat="46.0966580" lon="12.3811290">
        <ele>1298.8800000</ele>
        <time>2010-09-29T08:26:02Z</time>
      </trkpt>
      <trkpt lat="46.0966200" lon="12.3811430">
        <ele>1298.8800000</ele>
        <time>2010-09-29T08:26:11Z</time>
      </trkpt>
      <trkpt lat="46.0965950" lon="12.3811490">
        <ele>1298.4000000</ele>
        <time>2010-09-29T08:28:00Z</time>
      </trkpt>
      <trkpt lat="46.0964360" lon="12.3812830">
        <ele>1297.9200000</ele>
        <time>2010-09-29T08:28:08Z</time>
      </trkpt>
      <trkpt lat="46.0963530" lon="12.3813940">
        <ele>1297.9200000</ele>
        <time>2010-09-29T08:28:13Z</time>
      </trkpt>
      <trkpt lat="46.0962220" lon="12.3815020">
        <ele>1297.4400000</ele>
        <time>2010-09-29T08:28:22Z</time>
      </trkpt>
      <trkpt lat="46.0961990" lon="12.3815140">
        <ele>1296.9600000</ele>
        <time>2010-09-29T08:28:24Z</time>
      </trkpt>
      <trkpt lat="46.0961340" lon="12.3815110">
        <ele>1296.9600000</ele>
        <time>2010-09-29T08:28:28Z</time>
      </trkpt>
      <trkpt lat="46.0960430" lon="12.3815390">
        <ele>1296.9600000</ele>
        <time>2010-09-29T08:28:33Z</time>
      </trkpt>
      <trkpt lat="46.0959260" lon="12.3815870">
        <ele>1295.9900000</ele>
        <time>2010-09-29T08:28:40Z</time>
      </trkpt>
      <trkpt lat="46.0959130" lon="12.3815910">
        <ele>1295.9900000</ele>
        <time>2010-09-29T08:28:42Z</time>
      </trkpt>
      <trkpt lat="46.0958710" lon="12.3815850">
        <ele>1295.9900000</ele>
        <time>2010-09-29T08:28:46Z</time>
      </trkpt>
      <trkpt lat="46.0957870" lon="12.3816570">
        <ele>1294.0700000</ele>
        <time>2010-09-29T08:28:53Z</time>
      </trkpt>
      <trkpt lat="46.0957010" lon="12.3817440">
        <ele>1294.5500000</ele>
        <time>2010-09-29T08:29:00Z</time>
      </trkpt>
      <trkpt lat="46.0956830" lon="12.3817580">
        <ele>1293.1100000</ele>
        <time>2010-09-29T08:29:03Z</time>
      </trkpt>
      <trkpt lat="46.0956610" lon="12.3817730">
        <ele>1293.5900000</ele>
        <time>2010-09-29T08:29:05Z</time>
      </trkpt>
      <trkpt lat="46.0955860" lon="12.3817740">
        <ele>1294.0700000</ele>
        <time>2010-09-29T08:29:11Z</time>
      </trkpt>
      <trkpt lat="46.0955320" lon="12.3816960">
        <ele>1293.5900000</ele>
        <time>2010-09-29T08:29:17Z</time>
      </trkpt>
      <trkpt lat="46.0954900" lon="12.3816730">
        <ele>1293.5900000</ele>
        <time>2010-09-29T08:29:24Z</time>
      </trkpt>
      <trkpt lat="46.0953750" lon="12.3816830">
        <ele>1292.6300000</ele>
        <time>2010-09-29T08:29:34Z</time>
      </trkpt>
      <trkpt lat="46.0953180" lon="12.3816680">
        <ele>1292.1500000</ele>
        <time>2010-09-29T08:29:40Z</time>
      </trkpt>
      <trkpt lat="46.0952640" lon="12.3816350">
        <ele>1292.6300000</ele>
        <time>2010-09-29T08:29:47Z</time>
      </trkpt>
      <trkpt lat="46.0951660" lon="12.3815720">
        <ele>1292.6300000</ele>
        <time>2010-09-29T08:29:57Z</time>
      </trkpt>
      <trkpt lat="46.0950430" lon="12.3815970">
        <ele>1293.5900000</ele>
        <time>2010-09-29T08:30:14Z</time>
      </trkpt>
      <trkpt lat="46.0949980" lon="12.3815660">
        <ele>1294.5500000</ele>
        <time>2010-09-29T08:30:20Z</time>
      </trkpt>
      <trkpt lat="46.0950140" lon="12.3815150">
        <ele>1295.0300000</ele>
        <time>2010-09-29T08:30:27Z</time>
      </trkpt>
      <trkpt lat="46.0950330" lon="12.3814620">
        <ele>1295.5100000</ele>
        <time>2010-09-29T08:30:31Z</time>
      </trkpt>
      <trkpt lat="46.0950770" lon="12.3813410">
        <ele>1295.9900000</ele>
        <time>2010-09-29T08:30:40Z</time>
      </trkpt>
      <trkpt lat="46.0952030" lon="12.3811950">
        <ele>1297.4400000</ele>
        <time>2010-09-29T08:30:48Z</time>
      </trkpt>
      <trkpt lat="46.0953320" lon="12.3810500">
        <ele>1297.4400000</ele>
        <time>2010-09-29T08:30:56Z</time>
      </trkpt>
      <trkpt lat="46.0954320" lon="12.3809430">
        <ele>1298.4000000</ele>
        <time>2010-09-29T08:31:05Z</time>
      </trkpt>
      <trkpt lat="46.0954580" lon="12.3809170">
        <ele>1299.3600000</ele>
        <time>2010-09-29T08:31:11Z</time>
      </trkpt>
      <trkpt lat="46.0955050" lon="12.3808100">
        <ele>1299.8400000</ele>
        <time>2010-09-29T08:31:19Z</time>
      </trkpt>
      <trkpt lat="46.0955160" lon="12.3807230">
        <ele>1301.2800000</ele>
        <time>2010-09-29T08:31:26Z</time>
      </trkpt>
      <trkpt lat="46.0955320" lon="12.3806930">
        <ele>1301.2800000</ele>
        <time>2010-09-29T08:31:31Z</time>
      </trkpt>
      <trkpt lat="46.0955760" lon="12.3806110">
        <ele>1302.2400000</ele>
        <time>2010-09-29T08:31:39Z</time>
      </trkpt>
      <trkpt lat="46.0955980" lon="12.3805220">
        <ele>1303.6900000</ele>
        <time>2010-09-29T08:31:43Z</time>
      </trkpt>
      <trkpt lat="46.0956020" lon="12.3804340">
        <ele>1303.6900000</ele>
        <time>2010-09-29T08:31:47Z</time>
      </trkpt>
      <trkpt lat="46.0956280" lon="12.3802630">
        <ele>1305.1300000</ele>
        <time>2010-09-29T08:31:56Z</time>
      </trkpt>
      <trkpt lat="46.0956380" lon="12.3801530">
        <ele>1305.6100000</ele>
        <time>2010-09-29T08:32:02Z</time>
      </trkpt>
      <trkpt lat="46.0956510" lon="12.3800490">
        <ele>1306.0900000</ele>
        <time>2010-09-29T08:32:08Z</time>
      </trkpt>
      <trkpt lat="46.0956570" lon="12.3799510">
        <ele>1306.5700000</ele>
        <time>2010-09-29T08:32:13Z</time>
      </trkpt>
      <trkpt lat="46.0956180" lon="12.3798790">
        <ele>1307.0500000</ele>
        <time>2010-09-29T08:32:22Z</time>
      </trkpt>
      <trkpt lat="46.0956180" lon="12.3798790">
        <ele>1307.0500000</ele>
        <time>2010-09-29T08:32:34Z</time>
      </trkpt>
      <trkpt lat="46.0956310" lon="12.3797400">
        <ele>1306.0900000</ele>
        <time>2010-09-29T08:32:39Z</time>
      </trkpt>
      <trkpt lat="46.0955560" lon="12.3793660">
        <ele>1305.6100000</ele>
        <time>2010-09-29T08:32:50Z</time>
      </trkpt>
      <trkpt lat="46.0955330" lon="12.3792050">
        <ele>1306.5700000</ele>
        <time>2010-09-29T08:32:59Z</time>
      </trkpt>
      <trkpt lat="46.0954670" lon="12.3789950">
        <ele>1307.0500000</ele>
        <time>2010-09-29T08:33:12Z</time>
      </trkpt>
      <trkpt lat="46.0954910" lon="12.3787330">
        <ele>1306.5700000</ele>
        <time>2010-09-29T08:33:24Z</time>
      </trkpt>
      <trkpt lat="46.0954150" lon="12.3785700">
        <ele>1305.6100000</ele>
        <time>2010-09-29T08:33:35Z</time>
      </trkpt>
      <trkpt lat="46.0951820" lon="12.3784180">
        <ele>1305.6100000</ele>
        <time>2010-09-29T08:33:41Z</time>
      </trkpt>
      <trkpt lat="46.0951720" lon="12.3784050">
        <ele>1305.6100000</ele>
        <time>2010-09-29T08:33:42Z</time>
      </trkpt>
      <trkpt lat="46.0951310" lon="12.3783660">
        <ele>1305.6100000</ele>
        <time>2010-09-29T08:33:45Z</time>
      </trkpt>
      <trkpt lat="46.0949090" lon="12.3780370">
        <ele>1305.6100000</ele>
        <time>2010-09-29T08:33:53Z</time>
      </trkpt>
      <trkpt lat="46.0947680" lon="12.3778660">
        <ele>1306.0900000</ele>
        <time>2010-09-29T08:34:02Z</time>
      </trkpt>
      <trkpt lat="46.0947080" lon="12.3777640">
        <ele>1305.6100000</ele>
        <time>2010-09-29T08:34:07Z</time>
      </trkpt>
      <trkpt lat="46.0946000" lon="12.3776680">
        <ele>1305.6100000</ele>
        <time>2010-09-29T08:34:14Z</time>
      </trkpt>
      <trkpt lat="46.0945690" lon="12.3776020">
        <ele>1306.0900000</ele>
        <time>2010-09-29T08:34:22Z</time>
      </trkpt>
      <trkpt lat="46.0945610" lon="12.3775340">
        <ele>1305.6100000</ele>
        <time>2010-09-29T08:34:28Z</time>
      </trkpt>
      <trkpt lat="46.0945500" lon="12.3774950">
        <ele>1305.6100000</ele>
        <time>2010-09-29T08:34:30Z</time>
      </trkpt>
      <trkpt lat="46.0944530" lon="12.3774030">
        <ele>1304.6500000</ele>
        <time>2010-09-29T08:34:40Z</time>
      </trkpt>
      <trkpt lat="46.0944030" lon="12.3773790">
        <ele>1306.0900000</ele>
        <time>2010-09-29T08:34:45Z</time>
      </trkpt>
      <trkpt lat="46.0942880" lon="12.3773290">
        <ele>1303.6900000</ele>
        <time>2010-09-29T08:34:52Z</time>
      </trkpt>
      <trkpt lat="46.0942110" lon="12.3773350">
        <ele>1304.1700000</ele>
        <time>2010-09-29T08:34:55Z</time>
      </trkpt>
      <trkpt lat="46.0941180" lon="12.3773940">
        <ele>1304.6500000</ele>
        <time>2010-09-29T08:35:01Z</time>
      </trkpt>
      <trkpt lat="46.0940890" lon="12.3774280">
        <ele>1304.1700000</ele>
        <time>2010-09-29T08:35:04Z</time>
      </trkpt>
      <trkpt lat="46.0940140" lon="12.3774870">
        <ele>1302.7200000</ele>
        <time>2010-09-29T08:35:13Z</time>
      </trkpt>
      <trkpt lat="46.0939940" lon="12.3775160">
        <ele>1303.2000000</ele>
        <time>2010-09-29T08:35:51Z</time>
      </trkpt>
      <trkpt lat="46.0938900" lon="12.3776170">
        <ele>1301.7600000</ele>
        <time>2010-09-29T08:35:57Z</time>
      </trkpt>
      <trkpt lat="46.0938380" lon="12.3776750">
        <ele>1301.7600000</ele>
        <time>2010-09-29T08:36:05Z</time>
      </trkpt>
      <trkpt lat="46.0937620" lon="12.3777260">
        <ele>1302.2400000</ele>
        <time>2010-09-29T08:36:12Z</time>
      </trkpt>
      <trkpt lat="46.0937330" lon="12.3777330">
        <ele>1301.2800000</ele>
        <time>2010-09-29T08:36:21Z</time>
      </trkpt>
      <trkpt lat="46.0937170" lon="12.3777120">
        <ele>1302.2400000</ele>
        <time>2010-09-29T08:36:25Z</time>
      </trkpt>
      <trkpt lat="46.0937190" lon="12.3775880">
        <ele>1302.7200000</ele>
        <time>2010-09-29T08:36:34Z</time>
      </trkpt>
      <trkpt lat="46.0937740" lon="12.3775360">
        <ele>1303.2000000</ele>
        <time>2010-09-29T08:36:40Z</time>
      </trkpt>
      <trkpt lat="46.0938290" lon="12.3774760">
        <ele>1303.6900000</ele>
        <time>2010-09-29T08:36:46Z</time>
      </trkpt>
      <trkpt lat="46.0938560" lon="12.3774170">
        <ele>1302.7200000</ele>
        <time>2010-09-29T08:36:52Z</time>
      </trkpt>
      <trkpt lat="46.0938590" lon="12.3772780">
        <ele>1302.7200000</ele>
        <time>2010-09-29T08:37:00Z</time>
      </trkpt>
      <trkpt lat="46.0939240" lon="12.3771110">
        <ele>1304.6500000</ele>
        <time>2010-09-29T08:37:10Z</time>
      </trkpt>
      <trkpt lat="46.0940320" lon="12.3769770">
        <ele>1304.6500000</ele>
        <time>2010-09-29T08:37:19Z</time>
      </trkpt>
      <trkpt lat="46.0940550" lon="12.3769180">
        <ele>1305.1300000</ele>
        <time>2010-09-29T08:37:22Z</time>
      </trkpt>
      <trkpt lat="46.0940450" lon="12.3766440">
        <ele>1305.1300000</ele>
        <time>2010-09-29T08:37:32Z</time>
      </trkpt>
      <trkpt lat="46.0940390" lon="12.3764710">
        <ele>1304.1700000</ele>
        <time>2010-09-29T08:37:39Z</time>
      </trkpt>
      <trkpt lat="46.0940600" lon="12.3763630">
        <ele>1305.1300000</ele>
        <time>2010-09-29T08:37:44Z</time>
      </trkpt>
      <trkpt lat="46.0940380" lon="12.3762990">
        <ele>1301.2800000</ele>
        <time>2010-09-29T08:37:48Z</time>
      </trkpt>
      <trkpt lat="46.0940330" lon="12.3762860">
        <ele>1301.7600000</ele>
        <time>2010-09-29T08:37:49Z</time>
      </trkpt>
      <trkpt lat="46.0940140" lon="12.3762580">
        <ele>1303.6900000</ele>
        <time>2010-09-29T08:37:53Z</time>
      </trkpt>
      <trkpt lat="46.0939860" lon="12.3762070">
        <ele>1300.8000000</ele>
        <time>2010-09-29T08:38:01Z</time>
      </trkpt>
      <trkpt lat="46.0939140" lon="12.3761010">
        <ele>1299.8400000</ele>
        <time>2010-09-29T08:38:07Z</time>
      </trkpt>
      <trkpt lat="46.0938520" lon="12.3760030">
        <ele>1300.8000000</ele>
        <time>2010-09-29T08:38:13Z</time>
      </trkpt>
      <trkpt lat="46.0938050" lon="12.3759710">
        <ele>1299.3600000</ele>
        <time>2010-09-29T08:38:19Z</time>
      </trkpt>
      <trkpt lat="46.0936790" lon="12.3758440">
        <ele>1298.8800000</ele>
        <time>2010-09-29T08:38:28Z</time>
      </trkpt>
      <trkpt lat="46.0935570" lon="12.3757860">
        <ele>1296.9600000</ele>
        <time>2010-09-29T08:40:26Z</time>
      </trkpt>
      <trkpt lat="46.0935100" lon="12.3757830">
        <ele>1298.4000000</ele>
        <time>2010-09-29T08:40:30Z</time>
      </trkpt>
      <trkpt lat="46.0934200" lon="12.3757210">
        <ele>1297.4400000</ele>
        <time>2010-09-29T08:40:36Z</time>
      </trkpt>
      <trkpt lat="46.0933720" lon="12.3757010">
        <ele>1295.5100000</ele>
        <time>2010-09-29T08:40:41Z</time>
      </trkpt>
      <trkpt lat="46.0933650" lon="12.3757010">
        <ele>1295.5100000</ele>
        <time>2010-09-29T08:40:42Z</time>
      </trkpt>
      <trkpt lat="46.0933800" lon="12.3758070">
        <ele>1295.9900000</ele>
        <time>2010-09-29T08:40:51Z</time>
      </trkpt>
      <trkpt lat="46.0934920" lon="12.3758200">
        <ele>1295.9900000</ele>
        <time>2010-09-29T08:40:59Z</time>
      </trkpt>
      <trkpt lat="46.0936050" lon="12.3757980">
        <ele>1295.9900000</ele>
        <time>2010-09-29T08:41:06Z</time>
      </trkpt>
      <trkpt lat="46.0936980" lon="12.3757870">
        <ele>1295.9900000</ele>
        <time>2010-09-29T08:41:12Z</time>
      </trkpt>
      <trkpt lat="46.0937880" lon="12.3757590">
        <ele>1296.9600000</ele>
        <time>2010-09-29T08:41:20Z</time>
      </trkpt>
      <trkpt lat="46.0938650" lon="12.3757020">
        <ele>1296.9600000</ele>
        <time>2010-09-29T08:41:27Z</time>
      </trkpt>
      <trkpt lat="46.0939610" lon="12.3756140">
        <ele>1294.5500000</ele>
        <time>2010-09-29T08:41:34Z</time>
      </trkpt>
      <trkpt lat="46.0938440" lon="12.3754130">
        <ele>1296.4800000</ele>
        <time>2010-09-29T08:41:38Z</time>
      </trkpt>
      <trkpt lat="46.0938180" lon="12.3752820">
        <ele>1295.9900000</ele>
        <time>2010-09-29T08:41:43Z</time>
      </trkpt>
      <trkpt lat="46.0938210" lon="12.3752640">
        <ele>1295.9900000</ele>
        <time>2010-09-29T08:41:44Z</time>
      </trkpt>
      <trkpt lat="46.0938210" lon="12.3751920">
        <ele>1293.1100000</ele>
        <time>2010-09-29T08:41:47Z</time>
      </trkpt>
      <trkpt lat="46.0938170" lon="12.3751280">
        <ele>1295.0300000</ele>
        <time>2010-09-29T08:41:51Z</time>
      </trkpt>
      <trkpt lat="46.0938510" lon="12.3751140">
        <ele>1295.0300000</ele>
        <time>2010-09-29T08:41:55Z</time>
      </trkpt>
      <trkpt lat="46.0939370" lon="12.3750420">
        <ele>1292.6300000</ele>
        <time>2010-09-29T08:42:56Z</time>
      </trkpt>
      <trkpt lat="46.0939550" lon="12.3750020">
        <ele>1291.6700000</ele>
        <time>2010-09-29T08:43:02Z</time>
      </trkpt>
      <trkpt lat="46.0939780" lon="12.3749840">
        <ele>1292.1500000</ele>
        <time>2010-09-29T08:43:24Z</time>
      </trkpt>
      <trkpt lat="46.0939970" lon="12.3749760">
        <ele>1289.2700000</ele>
        <time>2010-09-29T08:43:27Z</time>
      </trkpt>
      <trkpt lat="46.0940030" lon="12.3749740">
        <ele>1289.7500000</ele>
        <time>2010-09-29T08:43:28Z</time>
      </trkpt>
      <trkpt lat="46.0940910" lon="12.3749260">
        <ele>1290.7100000</ele>
        <time>2010-09-29T08:43:35Z</time>
      </trkpt>
      <trkpt lat="46.0941070" lon="12.3748940">
        <ele>1287.3400000</ele>
        <time>2010-09-29T08:43:37Z</time>
      </trkpt>
      <trkpt lat="46.0941150" lon="12.3748800">
        <ele>1287.3400000</ele>
        <time>2010-09-29T08:43:38Z</time>
      </trkpt>
      <trkpt lat="46.0941820" lon="12.3747800">
        <ele>1287.3400000</ele>
        <time>2010-09-29T08:43:45Z</time>
      </trkpt>
      <trkpt lat="46.0942080" lon="12.3747600">
        <ele>1288.3000000</ele>
        <time>2010-09-29T08:43:47Z</time>
      </trkpt>
      <trkpt lat="46.0942380" lon="12.3747410">
        <ele>1286.8600000</ele>
        <time>2010-09-29T08:43:50Z</time>
      </trkpt>
      <trkpt lat="46.0943910" lon="12.3746600">
        <ele>1286.3800000</ele>
        <time>2010-09-29T08:44:00Z</time>
      </trkpt>
      <trkpt lat="46.0944550" lon="12.3745060">
        <ele>1283.9800000</ele>
        <time>2010-09-29T08:44:08Z</time>
      </trkpt>
      <trkpt lat="46.0945220" lon="12.3744210">
        <ele>1285.4200000</ele>
        <time>2010-09-29T08:44:12Z</time>
      </trkpt>
      <trkpt lat="46.0946000" lon="12.3742160">
        <ele>1283.5000000</ele>
        <time>2010-09-29T08:44:22Z</time>
      </trkpt>
      <trkpt lat="46.0946650" lon="12.3740830">
        <ele>1282.5400000</ele>
        <time>2010-09-29T08:44:28Z</time>
      </trkpt>
      <trkpt lat="46.0946780" lon="12.3740680">
        <ele>1282.5400000</ele>
        <time>2010-09-29T08:44:39Z</time>
      </trkpt>
      <trkpt lat="46.0947030" lon="12.3740290">
        <ele>1283.0200000</ele>
        <time>2010-09-29T08:44:49Z</time>
      </trkpt>
      <trkpt lat="46.0947170" lon="12.3739270">
        <ele>1281.0900000</ele>
        <time>2010-09-29T08:44:56Z</time>
      </trkpt>
      <trkpt lat="46.0947170" lon="12.3739270">
        <ele>1281.0900000</ele>
        <time>2010-09-29T08:45:10Z</time>
      </trkpt>
      <trkpt lat="46.0947290" lon="12.3738610">
        <ele>1281.0900000</ele>
        <time>2010-09-29T08:45:17Z</time>
      </trkpt>
      <trkpt lat="46.0947590" lon="12.3738000">
        <ele>1279.1700000</ele>
        <time>2010-09-29T08:45:23Z</time>
      </trkpt>
      <trkpt lat="46.0947670" lon="12.3737870">
        <ele>1279.1700000</ele>
        <time>2010-09-29T08:45:24Z</time>
      </trkpt>
      <trkpt lat="46.0948050" lon="12.3737150">
        <ele>1279.6500000</ele>
        <time>2010-09-29T08:45:29Z</time>
      </trkpt>
      <trkpt lat="46.0948270" lon="12.3737160">
        <ele>1279.1700000</ele>
        <time>2010-09-29T08:45:48Z</time>
      </trkpt>
      <trkpt lat="46.0947260" lon="12.3735910">
        <ele>1277.7300000</ele>
        <time>2010-09-29T08:47:32Z</time>
      </trkpt>
      <trkpt lat="46.0946950" lon="12.3736240">
        <ele>1278.2100000</ele>
        <time>2010-09-29T08:47:40Z</time>
      </trkpt>
      <trkpt lat="46.0946950" lon="12.3736240">
        <ele>1277.2500000</ele>
        <time>2010-09-29T08:48:06Z</time>
      </trkpt>
      <trkpt lat="46.0947000" lon="12.3735820">
        <ele>1277.7300000</ele>
        <time>2010-09-29T08:48:13Z</time>
      </trkpt>
      <trkpt lat="46.0947590" lon="12.3735300">
        <ele>1276.7700000</ele>
        <time>2010-09-29T08:48:20Z</time>
      </trkpt>
      <trkpt lat="46.0947740" lon="12.3735320">
        <ele>1275.3300000</ele>
        <time>2010-09-29T08:48:26Z</time>
      </trkpt>
      <trkpt lat="46.0947710" lon="12.3735370">
        <ele>1275.3300000</ele>
        <time>2010-09-29T08:48:44Z</time>
      </trkpt>
      <trkpt lat="46.0947670" lon="12.3734860">
        <ele>1274.8500000</ele>
        <time>2010-09-29T08:49:08Z</time>
      </trkpt>
      <trkpt lat="46.0947810" lon="12.3734680">
        <ele>1273.8800000</ele>
        <time>2010-09-29T08:49:17Z</time>
      </trkpt>
      <trkpt lat="46.0948130" lon="12.3734800">
        <ele>1273.4000000</ele>
        <time>2010-09-29T08:49:23Z</time>
      </trkpt>
      <trkpt lat="46.0948980" lon="12.3734790">
        <ele>1272.9200000</ele>
        <time>2010-09-29T08:49:29Z</time>
      </trkpt>
      <trkpt lat="46.0949590" lon="12.3734950">
        <ele>1270.0400000</ele>
        <time>2010-09-29T08:49:32Z</time>
      </trkpt>
      <trkpt lat="46.0950370" lon="12.3734980">
        <ele>1272.9200000</ele>
        <time>2010-09-29T08:49:39Z</time>
      </trkpt>
      <trkpt lat="46.0951230" lon="12.3734360">
        <ele>1269.0800000</ele>
        <time>2010-09-29T08:49:44Z</time>
      </trkpt>
      <trkpt lat="46.0951630" lon="12.3733990">
        <ele>1270.0400000</ele>
        <time>2010-09-29T08:49:52Z</time>
      </trkpt>
      <trkpt lat="46.0951690" lon="12.3733840">
        <ele>1270.0400000</ele>
        <time>2010-09-29T08:49:55Z</time>
      </trkpt>
      <trkpt lat="46.0951830" lon="12.3732890">
        <ele>1267.1600000</ele>
        <time>2010-09-29T08:49:59Z</time>
      </trkpt>
      <trkpt lat="46.0952290" lon="12.3731730">
        <ele>1268.6000000</ele>
        <time>2010-09-29T08:50:05Z</time>
      </trkpt>
      <trkpt lat="46.0952530" lon="12.3731240">
        <ele>1266.6700000</ele>
        <time>2010-09-29T08:50:13Z</time>
      </trkpt>
      <trkpt lat="46.0952470" lon="12.3731310">
        <ele>1266.6700000</ele>
        <time>2010-09-29T08:50:47Z</time>
      </trkpt>
      <trkpt lat="46.0952440" lon="12.3731350">
        <ele>1267.1600000</ele>
        <time>2010-09-29T08:52:09Z</time>
      </trkpt>
      <trkpt lat="46.0952440" lon="12.3731350">
        <ele>1267.6400000</ele>
        <time>2010-09-29T08:52:20Z</time>
      </trkpt>
      <trkpt lat="46.0952310" lon="12.3731260">
        <ele>1264.2700000</ele>
        <time>2010-09-29T08:54:31Z</time>
      </trkpt>
      <trkpt lat="46.0952310" lon="12.3731260">
        <ele>1255.6200000</ele>
        <time>2010-09-29T08:54:52Z</time>
      </trkpt>
      <trkpt lat="46.0952310" lon="12.3731260">
        <ele>1265.7100000</ele>
        <time>2010-09-29T08:54:53Z</time>
      </trkpt>
      <trkpt lat="46.0952310" lon="12.3731260">
        <ele>1256.1000000</ele>
        <time>2010-09-29T08:54:57Z</time>
      </trkpt>
      <trkpt lat="46.0952310" lon="12.3731260">
        <ele>1266.6700000</ele>
        <time>2010-09-29T08:54:58Z</time>
      </trkpt>
      <trkpt lat="46.0952370" lon="12.3730050">
        <ele>1264.7500000</ele>
        <time>2010-09-29T08:56:12Z</time>
      </trkpt>
      <trkpt lat="46.0952390" lon="12.3729900">
        <ele>1264.7500000</ele>
        <time>2010-09-29T08:56:13Z</time>
      </trkpt>
      <trkpt lat="46.0952450" lon="12.3728200">
        <ele>1263.3100000</ele>
        <time>2010-09-29T08:56:22Z</time>
      </trkpt>
      <trkpt lat="46.0952450" lon="12.3728200">
        <ele>1259.9400000</ele>
        <time>2010-09-29T08:56:31Z</time>
      </trkpt>
      <trkpt lat="46.0952450" lon="12.3728200">
        <ele>1263.3100000</ele>
        <time>2010-09-29T08:56:32Z</time>
      </trkpt>
      <trkpt lat="46.0952450" lon="12.3728200">
        <ele>1258.9800000</ele>
        <time>2010-09-29T08:56:33Z</time>
      </trkpt>
      <trkpt lat="46.0952450" lon="12.3728200">
        <ele>1263.3100000</ele>
        <time>2010-09-29T08:56:34Z</time>
      </trkpt>
      <trkpt lat="46.0952410" lon="12.3728150">
        <ele>1259.9400000</ele>
        <time>2010-09-29T08:57:08Z</time>
      </trkpt>
      <trkpt lat="46.0952410" lon="12.3728150">
        <ele>1265.2300000</ele>
        <time>2010-09-29T08:57:09Z</time>
      </trkpt>
      <trkpt lat="46.0952410" lon="12.3728150">
        <ele>1261.8700000</ele>
        <time>2010-09-29T08:57:14Z</time>
      </trkpt>
      <trkpt lat="46.0952410" lon="12.3728150">
        <ele>1266.6700000</ele>
        <time>2010-09-29T08:57:15Z</time>
      </trkpt>
      <trkpt lat="46.0952410" lon="12.3728150">
        <ele>1263.3100000</ele>
        <time>2010-09-29T08:57:16Z</time>
      </trkpt>
      <trkpt lat="46.0952410" lon="12.3728150">
        <ele>1252.2500000</ele>
        <time>2010-09-29T08:57:39Z</time>
      </trkpt>
      <trkpt lat="46.0952410" lon="12.3728150">
        <ele>1263.7900000</ele>
        <time>2010-09-29T08:57:40Z</time>
      </trkpt>
      <trkpt lat="46.0952370" lon="12.3728110">
        <ele>1257.0600000</ele>
        <time>2010-09-29T08:57:54Z</time>
      </trkpt>
      <trkpt lat="46.0952340" lon="12.3728010">
        <ele>1263.3100000</ele>
        <time>2010-09-29T08:57:55Z</time>
      </trkpt>
      <trkpt lat="46.0952340" lon="12.3728010">
        <ele>1259.4600000</ele>
        <time>2010-09-29T08:57:57Z</time>
      </trkpt>
      <trkpt lat="46.0952340" lon="12.3728010">
        <ele>1262.8300000</ele>
        <time>2010-09-29T08:57:58Z</time>
      </trkpt>
      <trkpt lat="46.0952340" lon="12.3728010">
        <ele>1259.4600000</ele>
        <time>2010-09-29T08:58:02Z</time>
      </trkpt>
      <trkpt lat="46.0952340" lon="12.3728010">
        <ele>1263.7900000</ele>
        <time>2010-09-29T08:58:03Z</time>
      </trkpt>
      <trkpt lat="46.0952340" lon="12.3728010">
        <ele>1257.0600000</ele>
        <time>2010-09-29T08:58:13Z</time>
      </trkpt>
      <trkpt lat="46.0952340" lon="12.3728010">
        <ele>1263.3100000</ele>
        <time>2010-09-29T08:58:14Z</time>
      </trkpt>
      <trkpt lat="46.0952390" lon="12.3727860">
        <ele>1261.3900000</ele>
        <time>2010-09-29T08:59:07Z</time>
      </trkpt>
      <trkpt lat="46.0952590" lon="12.3726920">
        <ele>1260.9100000</ele>
        <time>2010-09-29T08:59:12Z</time>
      </trkpt>
      <trkpt lat="46.0952530" lon="12.3725950">
        <ele>1258.5000000</ele>
        <time>2010-09-29T08:59:16Z</time>
      </trkpt>
      <trkpt lat="46.0952640" lon="12.3725060">
        <ele>1259.4600000</ele>
        <time>2010-09-29T08:59:23Z</time>
      </trkpt>
      <trkpt lat="46.0952650" lon="12.3724760">
        <ele>1256.1000000</ele>
        <time>2010-09-29T08:59:27Z</time>
      </trkpt>
      <trkpt lat="46.0952650" lon="12.3724760">
        <ele>1256.1000000</ele>
        <time>2010-09-29T08:59:28Z</time>
      </trkpt>
      <trkpt lat="46.0952360" lon="12.3724110">
        <ele>1257.5400000</ele>
        <time>2010-09-29T08:59:33Z</time>
      </trkpt>
      <trkpt lat="46.0952140" lon="12.3723650">
        <ele>1258.5000000</ele>
        <time>2010-09-29T08:59:36Z</time>
      </trkpt>
      <trkpt lat="46.0951210" lon="12.3722630">
        <ele>1256.1000000</ele>
        <time>2010-09-29T08:59:43Z</time>
      </trkpt>
      <trkpt lat="46.0951210" lon="12.3722630">
        <ele>1255.6200000</ele>
        <time>2010-09-29T08:59:46Z</time>
      </trkpt>
      <trkpt lat="46.0951060" lon="12.3722620">
        <ele>1253.7000000</ele>
        <time>2010-09-29T08:59:48Z</time>
      </trkpt>
      <trkpt lat="46.0949890" lon="12.3721500">
        <ele>1255.1400000</ele>
        <time>2010-09-29T08:59:54Z</time>
      </trkpt>
      <trkpt lat="46.0949140" lon="12.3721310">
        <ele>1252.2500000</ele>
        <time>2010-09-29T09:00:01Z</time>
      </trkpt>
      <trkpt lat="46.0948990" lon="12.3721220">
        <ele>1251.7700000</ele>
        <time>2010-09-29T09:00:02Z</time>
      </trkpt>
      <trkpt lat="46.0948390" lon="12.3721000">
        <ele>1254.1800000</ele>
        <time>2010-09-29T09:00:07Z</time>
      </trkpt>
      <trkpt lat="46.0948220" lon="12.3720910">
        <ele>1254.1800000</ele>
        <time>2010-09-29T09:00:08Z</time>
      </trkpt>
      <trkpt lat="46.0948020" lon="12.3720750">
        <ele>1254.1800000</ele>
        <time>2010-09-29T09:00:09Z</time>
      </trkpt>
      <trkpt lat="46.0947020" lon="12.3720550">
        <ele>1252.2500000</ele>
        <time>2010-09-29T09:00:16Z</time>
      </trkpt>
      <trkpt lat="46.0946910" lon="12.3720460">
        <ele>1252.7400000</ele>
        <time>2010-09-29T09:00:17Z</time>
      </trkpt>
      <trkpt lat="46.0946340" lon="12.3720450">
        <ele>1249.8500000</ele>
        <time>2010-09-29T09:00:22Z</time>
      </trkpt>
      <trkpt lat="46.0946030" lon="12.3720540">
        <ele>1249.3700000</ele>
        <time>2010-09-29T09:00:24Z</time>
      </trkpt>
      <trkpt lat="46.0944720" lon="12.3721000">
        <ele>1252.2500000</ele>
        <time>2010-09-29T09:00:28Z</time>
      </trkpt>
      <trkpt lat="46.0944040" lon="12.3720710">
        <ele>1248.4100000</ele>
        <time>2010-09-29T09:00:33Z</time>
      </trkpt>
      <trkpt lat="46.0943160" lon="12.3720470">
        <ele>1249.8500000</ele>
        <time>2010-09-29T09:00:39Z</time>
      </trkpt>
      <trkpt lat="46.0942130" lon="12.3720060">
        <ele>1247.9300000</ele>
        <time>2010-09-29T09:00:45Z</time>
      </trkpt>
      <trkpt lat="46.0941240" lon="12.3720070">
        <ele>1246.0100000</ele>
        <time>2010-09-29T09:00:48Z</time>
      </trkpt>
      <trkpt lat="46.0941020" lon="12.3720140">
        <ele>1248.4100000</ele>
        <time>2010-09-29T09:00:49Z</time>
      </trkpt>
      <trkpt lat="46.0940190" lon="12.3720230">
        <ele>1249.8500000</ele>
        <time>2010-09-29T09:00:55Z</time>
      </trkpt>
      <trkpt lat="46.0939640" lon="12.3720110">
        <ele>1247.4500000</ele>
        <time>2010-09-29T09:01:00Z</time>
      </trkpt>
      <trkpt lat="46.0939360" lon="12.3719940">
        <ele>1246.0100000</ele>
        <time>2010-09-29T09:01:02Z</time>
      </trkpt>
      <trkpt lat="46.0938630" lon="12.3719570">
        <ele>1247.4500000</ele>
        <time>2010-09-29T09:01:07Z</time>
      </trkpt>
      <trkpt lat="46.0938310" lon="12.3719620">
        <ele>1246.4900000</ele>
        <time>2010-09-29T09:01:14Z</time>
      </trkpt>
      <trkpt lat="46.0937520" lon="12.3719730">
        <ele>1247.4500000</ele>
        <time>2010-09-29T09:01:19Z</time>
      </trkpt>
      <trkpt lat="46.0937410" lon="12.3719710">
        <ele>1247.4500000</ele>
        <time>2010-09-29T09:01:20Z</time>
      </trkpt>
      <trkpt lat="46.0936400" lon="12.3719620">
        <ele>1244.0800000</ele>
        <time>2010-09-29T09:01:26Z</time>
      </trkpt>
      <trkpt lat="46.0935400" lon="12.3720070">
        <ele>1246.0100000</ele>
        <time>2010-09-29T09:01:30Z</time>
      </trkpt>
      <trkpt lat="46.0934910" lon="12.3719950">
        <ele>1245.5300000</ele>
        <time>2010-09-29T09:01:36Z</time>
      </trkpt>
      <trkpt lat="46.0934750" lon="12.3720090">
        <ele>1243.6000000</ele>
        <time>2010-09-29T09:01:38Z</time>
      </trkpt>
      <trkpt lat="46.0934510" lon="12.3720220">
        <ele>1243.1200000</ele>
        <time>2010-09-29T09:01:40Z</time>
      </trkpt>
      <trkpt lat="46.0933700" lon="12.3719500">
        <ele>1246.4900000</ele>
        <time>2010-09-29T09:01:45Z</time>
      </trkpt>
      <trkpt lat="46.0933560" lon="12.3719570">
        <ele>1245.5300000</ele>
        <time>2010-09-29T09:01:46Z</time>
      </trkpt>
      <trkpt lat="46.0932720" lon="12.3720170">
        <ele>1245.0400000</ele>
        <time>2010-09-29T09:01:55Z</time>
      </trkpt>
      <trkpt lat="46.0931930" lon="12.3721040">
        <ele>1245.0400000</ele>
        <time>2010-09-29T09:02:40Z</time>
      </trkpt>
      <trkpt lat="46.0931640" lon="12.3721370">
        <ele>1243.6000000</ele>
        <time>2010-09-29T09:02:45Z</time>
      </trkpt>
      <trkpt lat="46.0930590" lon="12.3721000">
        <ele>1244.5600000</ele>
        <time>2010-09-29T09:02:53Z</time>
      </trkpt>
      <trkpt lat="46.0930030" lon="12.3721070">
        <ele>1244.0800000</ele>
        <time>2010-09-29T09:02:59Z</time>
      </trkpt>
      <trkpt lat="46.0929010" lon="12.3720570">
        <ele>1244.0800000</ele>
        <time>2010-09-29T09:03:07Z</time>
      </trkpt>
      <trkpt lat="46.0927650" lon="12.3721030">
        <ele>1241.6800000</ele>
        <time>2010-09-29T09:03:15Z</time>
      </trkpt>
      <trkpt lat="46.0926420" lon="12.3721480">
        <ele>1243.1200000</ele>
        <time>2010-09-29T09:03:23Z</time>
      </trkpt>
      <trkpt lat="46.0925460" lon="12.3722720">
        <ele>1241.2000000</ele>
        <time>2010-09-29T09:03:31Z</time>
      </trkpt>
      <trkpt lat="46.0924590" lon="12.3723980">
        <ele>1241.2000000</ele>
        <time>2010-09-29T09:03:39Z</time>
      </trkpt>
      <trkpt lat="46.0923940" lon="12.3724650">
        <ele>1238.3200000</ele>
        <time>2010-09-29T09:03:46Z</time>
      </trkpt>
      <trkpt lat="46.0923400" lon="12.3724010">
        <ele>1239.7600000</ele>
        <time>2010-09-29T09:03:52Z</time>
      </trkpt>
      <trkpt lat="46.0923070" lon="12.3724100">
        <ele>1238.3200000</ele>
        <time>2010-09-29T09:04:05Z</time>
      </trkpt>
      <trkpt lat="46.0921970" lon="12.3723370">
        <ele>1237.3500000</ele>
        <time>2010-09-29T09:04:25Z</time>
      </trkpt>
      <trkpt lat="46.0920410" lon="12.3723040">
        <ele>1235.4300000</ele>
        <time>2010-09-29T09:04:34Z</time>
      </trkpt>
      <trkpt lat="46.0919640" lon="12.3723050">
        <ele>1235.4300000</ele>
        <time>2010-09-29T09:04:41Z</time>
      </trkpt>
      <trkpt lat="46.0919380" lon="12.3722950">
        <ele>1234.4700000</ele>
        <time>2010-09-29T09:04:43Z</time>
      </trkpt>
      <trkpt lat="46.0918580" lon="12.3722480">
        <ele>1233.9900000</ele>
        <time>2010-09-29T09:04:49Z</time>
      </trkpt>
      <trkpt lat="46.0918630" lon="12.3722510">
        <ele>1233.9900000</ele>
        <time>2010-09-29T09:04:54Z</time>
      </trkpt>
      <trkpt lat="46.0919010" lon="12.3722090">
        <ele>1233.9900000</ele>
        <time>2010-09-29T09:05:01Z</time>
      </trkpt>
      <trkpt lat="46.0919880" lon="12.3722140">
        <ele>1233.5100000</ele>
        <time>2010-09-29T09:05:09Z</time>
      </trkpt>
      <trkpt lat="46.0920830" lon="12.3722470">
        <ele>1234.9500000</ele>
        <time>2010-09-29T09:05:29Z</time>
      </trkpt>
      <trkpt lat="46.0919140" lon="12.3719780">
        <ele>1237.8300000</ele>
        <time>2010-09-29T09:05:51Z</time>
      </trkpt>
      <trkpt lat="46.0919220" lon="12.3718440">
        <ele>1241.6800000</ele>
        <time>2010-09-29T09:06:49Z</time>
      </trkpt>
      <trkpt lat="46.0920550" lon="12.3716730">
        <ele>1245.0400000</ele>
        <time>2010-09-29T09:07:28Z</time>
      </trkpt>
      <trkpt lat="46.0921000" lon="12.3716220">
        <ele>1245.0400000</ele>
        <time>2010-09-29T09:07:35Z</time>
      </trkpt>
      <trkpt lat="46.0921790" lon="12.3715270">
        <ele>1246.0100000</ele>
        <time>2010-09-29T09:07:44Z</time>
      </trkpt>
      <trkpt lat="46.0922260" lon="12.3714840">
        <ele>1246.4900000</ele>
        <time>2010-09-29T09:07:50Z</time>
      </trkpt>
      <trkpt lat="46.0924100" lon="12.3712860">
        <ele>1249.3700000</ele>
        <time>2010-09-29T09:08:17Z</time>
      </trkpt>
      <trkpt lat="46.0924410" lon="12.3712560">
        <ele>1250.3300000</ele>
        <time>2010-09-29T09:08:26Z</time>
      </trkpt>
      <trkpt lat="46.0924760" lon="12.3712380">
        <ele>1251.7700000</ele>
        <time>2010-09-29T09:08:34Z</time>
      </trkpt>
      <trkpt lat="46.0925860" lon="12.3709800">
        <ele>1254.6600000</ele>
        <time>2010-09-29T09:08:57Z</time>
      </trkpt>
      <trkpt lat="46.0926540" lon="12.3708700">
        <ele>1255.6200000</ele>
        <time>2010-09-29T09:09:10Z</time>
      </trkpt>
      <trkpt lat="46.0927950" lon="12.3707000">
        <ele>1258.5000000</ele>
        <time>2010-09-29T09:09:35Z</time>
      </trkpt>
      <trkpt lat="46.0928940" lon="12.3705560">
        <ele>1260.9100000</ele>
        <time>2010-09-29T09:09:58Z</time>
      </trkpt>
      <trkpt lat="46.0929730" lon="12.3703790">
        <ele>1262.3500000</ele>
        <time>2010-09-29T09:10:16Z</time>
      </trkpt>
      <trkpt lat="46.0930670" lon="12.3701700">
        <ele>1265.7100000</ele>
        <time>2010-09-29T09:10:33Z</time>
      </trkpt>
      <trkpt lat="46.0930720" lon="12.3701580">
        <ele>1265.7100000</ele>
        <time>2010-09-29T09:10:34Z</time>
      </trkpt>
      <trkpt lat="46.0930840" lon="12.3700660">
        <ele>1266.1900000</ele>
        <time>2010-09-29T09:10:42Z</time>
      </trkpt>
      <trkpt lat="46.0931120" lon="12.3699810">
        <ele>1266.6700000</ele>
        <time>2010-09-29T09:10:47Z</time>
      </trkpt>
      <trkpt lat="46.0931180" lon="12.3699260">
        <ele>1267.6400000</ele>
        <time>2010-09-29T09:10:54Z</time>
      </trkpt>
      <trkpt lat="46.0931320" lon="12.3698680">
        <ele>1268.1200000</ele>
        <time>2010-09-29T09:11:01Z</time>
      </trkpt>
      <trkpt lat="46.0931470" lon="12.3697660">
        <ele>1268.6000000</ele>
        <time>2010-09-29T09:11:08Z</time>
      </trkpt>
      <trkpt lat="46.0931480" lon="12.3697220">
        <ele>1270.0400000</ele>
        <time>2010-09-29T09:11:18Z</time>
      </trkpt>
      <trkpt lat="46.0931570" lon="12.3696370">
        <ele>1270.0400000</ele>
        <time>2010-09-29T09:11:28Z</time>
      </trkpt>
      <trkpt lat="46.0931430" lon="12.3695510">
        <ele>1270.5200000</ele>
        <time>2010-09-29T09:11:33Z</time>
      </trkpt>
      <trkpt lat="46.0931210" lon="12.3694930">
        <ele>1271.0000000</ele>
        <time>2010-09-29T09:11:38Z</time>
      </trkpt>
      <trkpt lat="46.0930950" lon="12.3694410">
        <ele>1271.0000000</ele>
        <time>2010-09-29T09:11:42Z</time>
      </trkpt>
      <trkpt lat="46.0930630" lon="12.3694030">
        <ele>1271.0000000</ele>
        <time>2010-09-29T09:11:49Z</time>
      </trkpt>
      <trkpt lat="46.0930630" lon="12.3694030">
        <ele>1271.0000000</ele>
        <time>2010-09-29T09:11:54Z</time>
      </trkpt>
      <trkpt lat="46.0930290" lon="12.3694510">
        <ele>1271.0000000</ele>
        <time>2010-09-29T09:12:00Z</time>
      </trkpt>
      <trkpt lat="46.0930260" lon="12.3694390">
        <ele>1271.0000000</ele>
        <time>2010-09-29T09:12:27Z</time>
      </trkpt>
      <trkpt lat="46.0930360" lon="12.3693790">
        <ele>1270.5200000</ele>
        <time>2010-09-29T09:12:49Z</time>
      </trkpt>
      <trkpt lat="46.0930270" lon="12.3692470">
        <ele>1271.4800000</ele>
        <time>2010-09-29T09:12:56Z</time>
      </trkpt>
      <trkpt lat="46.0929920" lon="12.3691470">
        <ele>1271.0000000</ele>
        <time>2010-09-29T09:13:02Z</time>
      </trkpt>
      <trkpt lat="46.0929690" lon="12.3691000">
        <ele>1271.4800000</ele>
        <time>2010-09-29T09:13:07Z</time>
      </trkpt>
      <trkpt lat="46.0929400" lon="12.3690480">
        <ele>1271.4800000</ele>
        <time>2010-09-29T09:13:12Z</time>
      </trkpt>
      <trkpt lat="46.0928800" lon="12.3689920">
        <ele>1271.4800000</ele>
        <time>2010-09-29T09:13:18Z</time>
      </trkpt>
      <trkpt lat="46.0928730" lon="12.3689890">
        <ele>1271.4800000</ele>
        <time>2010-09-29T09:13:20Z</time>
      </trkpt>
      <trkpt lat="46.0928060" lon="12.3689170">
        <ele>1271.9600000</ele>
        <time>2010-09-29T09:13:26Z</time>
      </trkpt>
      <trkpt lat="46.0927700" lon="12.3688780">
        <ele>1272.9200000</ele>
        <time>2010-09-29T09:13:30Z</time>
      </trkpt>
      <trkpt lat="46.0926930" lon="12.3688020">
        <ele>1272.9200000</ele>
        <time>2010-09-29T09:13:38Z</time>
      </trkpt>
      <trkpt lat="46.0926530" lon="12.3687380">
        <ele>1272.9200000</ele>
        <time>2010-09-29T09:13:43Z</time>
      </trkpt>
      <trkpt lat="46.0926310" lon="12.3686640">
        <ele>1272.4400000</ele>
        <time>2010-09-29T09:13:49Z</time>
      </trkpt>
      <trkpt lat="46.0926100" lon="12.3686150">
        <ele>1273.4000000</ele>
        <time>2010-09-29T09:13:52Z</time>
      </trkpt>
      <trkpt lat="46.0925980" lon="12.3685740">
        <ele>1273.8800000</ele>
        <time>2010-09-29T09:13:57Z</time>
      </trkpt>
      <trkpt lat="46.0925800" lon="12.3684950">
        <ele>1274.8500000</ele>
        <time>2010-09-29T09:14:04Z</time>
      </trkpt>
      <trkpt lat="46.0925660" lon="12.3684440">
        <ele>1275.8100000</ele>
        <time>2010-09-29T09:14:10Z</time>
      </trkpt>
      <trkpt lat="46.0925580" lon="12.3684090">
        <ele>1275.8100000</ele>
        <time>2010-09-29T09:14:14Z</time>
      </trkpt>
      <trkpt lat="46.0925490" lon="12.3683640">
        <ele>1277.7300000</ele>
        <time>2010-09-29T09:14:21Z</time>
      </trkpt>
      <trkpt lat="46.0925380" lon="12.3683340">
        <ele>1277.2500000</ele>
        <time>2010-09-29T09:14:29Z</time>
      </trkpt>
      <trkpt lat="46.0925060" lon="12.3683230">
        <ele>1278.2100000</ele>
        <time>2010-09-29T09:14:50Z</time>
      </trkpt>
      <trkpt lat="46.0924770" lon="12.3683190">
        <ele>1277.7300000</ele>
        <time>2010-09-29T09:15:03Z</time>
      </trkpt>
      <trkpt lat="46.0924790" lon="12.3683020">
        <ele>1277.7300000</ele>
        <time>2010-09-29T09:15:29Z</time>
      </trkpt>
      <trkpt lat="46.0924750" lon="12.3682910">
        <ele>1277.2500000</ele>
        <time>2010-09-29T09:15:45Z</time>
      </trkpt>
      <trkpt lat="46.0924670" lon="12.3682920">
        <ele>1277.2500000</ele>
        <time>2010-09-29T09:15:51Z</time>
      </trkpt>
      <trkpt lat="46.0924380" lon="12.3683250">
        <ele>1277.2500000</ele>
        <time>2010-09-29T09:15:56Z</time>
      </trkpt>
      <trkpt lat="46.0924060" lon="12.3683730">
        <ele>1277.2500000</ele>
        <time>2010-09-29T09:16:01Z</time>
      </trkpt>
      <trkpt lat="46.0923920" lon="12.3683950">
        <ele>1277.2500000</ele>
        <time>2010-09-29T09:16:08Z</time>
      </trkpt>
      <trkpt lat="46.0923920" lon="12.3683950">
        <ele>1277.2500000</ele>
        <time>2010-09-29T09:16:09Z</time>
      </trkpt>
      <trkpt lat="46.0924070" lon="12.3683560">
        <ele>1277.2500000</ele>
        <time>2010-09-29T09:16:14Z</time>
      </trkpt>
      <trkpt lat="46.0924040" lon="12.3683030">
        <ele>1277.7300000</ele>
        <time>2010-09-29T09:16:20Z</time>
      </trkpt>
      <trkpt lat="46.0924020" lon="12.3683020">
        <ele>1277.7300000</ele>
        <time>2010-09-29T09:16:34Z</time>
      </trkpt>
      <trkpt lat="46.0924020" lon="12.3683020">
        <ele>1277.7300000</ele>
        <time>2010-09-29T09:16:52Z</time>
      </trkpt>
      <trkpt lat="46.0923900" lon="12.3682920">
        <ele>1277.7300000</ele>
        <time>2010-09-29T09:17:14Z</time>
      </trkpt>
      <trkpt lat="46.0923370" lon="12.3683030">
        <ele>1277.7300000</ele>
        <time>2010-09-29T09:17:20Z</time>
      </trkpt>
      <trkpt lat="46.0922790" lon="12.3683060">
        <ele>1278.2100000</ele>
        <time>2010-09-29T09:17:27Z</time>
      </trkpt>
      <trkpt lat="46.0922620" lon="12.3683070">
        <ele>1279.1700000</ele>
        <time>2010-09-29T09:17:29Z</time>
      </trkpt>
      <trkpt lat="46.0921960" lon="12.3683080">
        <ele>1279.6500000</ele>
        <time>2010-09-29T09:17:35Z</time>
      </trkpt>
      <trkpt lat="46.0921460" lon="12.3683380">
        <ele>1280.6100000</ele>
        <time>2010-09-29T09:17:41Z</time>
      </trkpt>
      <trkpt lat="46.0920940" lon="12.3683720">
        <ele>1281.0900000</ele>
        <time>2010-09-29T09:17:46Z</time>
      </trkpt>
      <trkpt lat="46.0920260" lon="12.3684350">
        <ele>1281.5700000</ele>
        <time>2010-09-29T09:17:53Z</time>
      </trkpt>
      <trkpt lat="46.0920120" lon="12.3684540">
        <ele>1282.0600000</ele>
        <time>2010-09-29T09:17:56Z</time>
      </trkpt>
      <trkpt lat="46.0919860" lon="12.3685220">
        <ele>1282.5400000</ele>
        <time>2010-09-29T09:18:01Z</time>
      </trkpt>
      <trkpt lat="46.0919420" lon="12.3685470">
        <ele>1283.0200000</ele>
        <time>2010-09-29T09:18:07Z</time>
      </trkpt>
      <trkpt lat="46.0918970" lon="12.3685560">
        <ele>1283.9800000</ele>
        <time>2010-09-29T09:18:13Z</time>
      </trkpt>
      <trkpt lat="46.0918620" lon="12.3685360">
        <ele>1284.4600000</ele>
        <time>2010-09-29T09:18:19Z</time>
      </trkpt>
      <trkpt lat="46.0918550" lon="12.3685280">
        <ele>1283.9800000</ele>
        <time>2010-09-29T09:18:20Z</time>
      </trkpt>
      <trkpt lat="46.0918020" lon="12.3684580">
        <ele>1284.9400000</ele>
        <time>2010-09-29T09:18:27Z</time>
      </trkpt>
      <trkpt lat="46.0917520" lon="12.3683980">
        <ele>1285.4200000</ele>
        <time>2010-09-29T09:18:33Z</time>
      </trkpt>
      <trkpt lat="46.0916860" lon="12.3683710">
        <ele>1286.3800000</ele>
        <time>2010-09-29T09:18:39Z</time>
      </trkpt>
      <trkpt lat="46.0916130" lon="12.3683560">
        <ele>1286.3800000</ele>
        <time>2010-09-29T09:18:45Z</time>
      </trkpt>
      <trkpt lat="46.0916040" lon="12.3683610">
        <ele>1285.9000000</ele>
        <time>2010-09-29T09:18:46Z</time>
      </trkpt>
      <trkpt lat="46.0915440" lon="12.3683910">
        <ele>1286.3800000</ele>
        <time>2010-09-29T09:18:52Z</time>
      </trkpt>
      <trkpt lat="46.0914650" lon="12.3684080">
        <ele>1286.8600000</ele>
        <time>2010-09-29T09:18:59Z</time>
      </trkpt>
      <trkpt lat="46.0913870" lon="12.3684250">
        <ele>1287.3400000</ele>
        <time>2010-09-29T09:19:06Z</time>
      </trkpt>
      <trkpt lat="46.0913090" lon="12.3684340">
        <ele>1287.8200000</ele>
        <time>2010-09-29T09:19:13Z</time>
      </trkpt>
      <trkpt lat="46.0912710" lon="12.3684360">
        <ele>1288.3000000</ele>
        <time>2010-09-29T09:19:17Z</time>
      </trkpt>
      <trkpt lat="46.0912070" lon="12.3684300">
        <ele>1288.3000000</ele>
        <time>2010-09-29T09:19:23Z</time>
      </trkpt>
      <trkpt lat="46.0911620" lon="12.3684250">
        <ele>1288.3000000</ele>
        <time>2010-09-29T09:19:27Z</time>
      </trkpt>
      <trkpt lat="46.0910770" lon="12.3683820">
        <ele>1289.2700000</ele>
        <time>2010-09-29T09:19:34Z</time>
      </trkpt>
      <trkpt lat="46.0910290" lon="12.3683600">
        <ele>1290.7100000</ele>
        <time>2010-09-29T09:19:40Z</time>
      </trkpt>
      <trkpt lat="46.0909700" lon="12.3683360">
        <ele>1290.2300000</ele>
        <time>2010-09-29T09:19:46Z</time>
      </trkpt>
      <trkpt lat="46.0909140" lon="12.3682880">
        <ele>1290.2300000</ele>
        <time>2010-09-29T09:19:52Z</time>
      </trkpt>
      <trkpt lat="46.0908660" lon="12.3682390">
        <ele>1290.7100000</ele>
        <time>2010-09-29T09:19:58Z</time>
      </trkpt>
      <trkpt lat="46.0908470" lon="12.3682260">
        <ele>1290.7100000</ele>
        <time>2010-09-29T09:20:01Z</time>
      </trkpt>
      <trkpt lat="46.0907980" lon="12.3681690">
        <ele>1291.1900000</ele>
        <time>2010-09-29T09:20:08Z</time>
      </trkpt>
      <trkpt lat="46.0907580" lon="12.3681210">
        <ele>1291.6700000</ele>
        <time>2010-09-29T09:20:14Z</time>
      </trkpt>
      <trkpt lat="46.0907450" lon="12.3681100">
        <ele>1292.1500000</ele>
        <time>2010-09-29T09:20:23Z</time>
      </trkpt>
      <trkpt lat="46.0907440" lon="12.3681150">
        <ele>1291.6700000</ele>
        <time>2010-09-29T09:20:34Z</time>
      </trkpt>
      <trkpt lat="46.0907180" lon="12.3680660">
        <ele>1291.1900000</ele>
        <time>2010-09-29T09:20:41Z</time>
      </trkpt>
      <trkpt lat="46.0907090" lon="12.3680640">
        <ele>1291.6700000</ele>
        <time>2010-09-29T09:20:49Z</time>
      </trkpt>
      <trkpt lat="46.0907090" lon="12.3680640">
        <ele>1291.1900000</ele>
        <time>2010-09-29T09:21:01Z</time>
      </trkpt>
      <trkpt lat="46.0907110" lon="12.3680190">
        <ele>1291.1900000</ele>
        <time>2010-09-29T09:21:05Z</time>
      </trkpt>
      <trkpt lat="46.0907170" lon="12.3679360">
        <ele>1291.6700000</ele>
        <time>2010-09-29T09:21:11Z</time>
      </trkpt>
      <trkpt lat="46.0907090" lon="12.3678710">
        <ele>1290.7100000</ele>
        <time>2010-09-29T09:21:17Z</time>
      </trkpt>
      <trkpt lat="46.0907090" lon="12.3678670">
        <ele>1291.1900000</ele>
        <time>2010-09-29T09:21:29Z</time>
      </trkpt>
      <trkpt lat="46.0907040" lon="12.3678630">
        <ele>1291.1900000</ele>
        <time>2010-09-29T09:21:39Z</time>
      </trkpt>
      <trkpt lat="46.0907070" lon="12.3678790">
        <ele>1291.1900000</ele>
        <time>2010-09-29T09:21:57Z</time>
      </trkpt>
      <trkpt lat="46.0906990" lon="12.3678780">
        <ele>1290.7100000</ele>
        <time>2010-09-29T09:22:06Z</time>
      </trkpt>
      <trkpt lat="46.0906990" lon="12.3678780">
        <ele>1290.7100000</ele>
        <time>2010-09-29T09:22:08Z</time>
      </trkpt>
      <trkpt lat="46.0906520" lon="12.3679050">
        <ele>1290.7100000</ele>
        <time>2010-09-29T09:22:13Z</time>
      </trkpt>
      <trkpt lat="46.0906440" lon="12.3679030">
        <ele>1290.7100000</ele>
        <time>2010-09-29T09:22:14Z</time>
      </trkpt>
      <trkpt lat="46.0906250" lon="12.3678900">
        <ele>1290.7100000</ele>
        <time>2010-09-29T09:22:16Z</time>
      </trkpt>
      <trkpt lat="46.0905970" lon="12.3678230">
        <ele>1290.2300000</ele>
        <time>2010-09-29T09:22:24Z</time>
      </trkpt>
      <trkpt lat="46.0906240" lon="12.3678490">
        <ele>1290.7100000</ele>
        <time>2010-09-29T09:22:40Z</time>
      </trkpt>
      <trkpt lat="46.0906450" lon="12.3679130">
        <ele>1290.7100000</ele>
        <time>2010-09-29T09:22:46Z</time>
      </trkpt>
      <trkpt lat="46.0906490" lon="12.3679150">
        <ele>1290.7100000</ele>
        <time>2010-09-29T09:22:47Z</time>
      </trkpt>
      <trkpt lat="46.0906740" lon="12.3679220">
        <ele>1290.2300000</ele>
        <time>2010-09-29T09:22:54Z</time>
      </trkpt>
      <trkpt lat="46.0907080" lon="12.3679230">
        <ele>1290.7100000</ele>
        <time>2010-09-29T09:23:00Z</time>
      </trkpt>
      <trkpt lat="46.0907570" lon="12.3678740">
        <ele>1290.2300000</ele>
        <time>2010-09-29T09:23:06Z</time>
      </trkpt>
      <trkpt lat="46.0907860" lon="12.3678360">
        <ele>1290.2300000</ele>
        <time>2010-09-29T09:23:11Z</time>
      </trkpt>
      <trkpt lat="46.0908080" lon="12.3677950">
        <ele>1289.2700000</ele>
        <time>2010-09-29T09:23:15Z</time>
      </trkpt>
      <trkpt lat="46.0908160" lon="12.3677650">
        <ele>1289.7500000</ele>
        <time>2010-09-29T09:23:17Z</time>
      </trkpt>
      <trkpt lat="46.0908440" lon="12.3677110">
        <ele>1289.2700000</ele>
        <time>2010-09-29T09:23:23Z</time>
      </trkpt>
      <trkpt lat="46.0908620" lon="12.3676830">
        <ele>1289.2700000</ele>
        <time>2010-09-29T09:23:30Z</time>
      </trkpt>
      <trkpt lat="46.0908640" lon="12.3676820">
        <ele>1289.2700000</ele>
        <time>2010-09-29T09:23:39Z</time>
      </trkpt>
      <trkpt lat="46.0909250" lon="12.3676680">
        <ele>1288.7800000</ele>
        <time>2010-09-29T09:23:46Z</time>
      </trkpt>
      <trkpt lat="46.0909710" lon="12.3676530">
        <ele>1288.7800000</ele>
        <time>2010-09-29T09:23:52Z</time>
      </trkpt>
      <trkpt lat="46.0909860" lon="12.3676570">
        <ele>1288.7800000</ele>
        <time>2010-09-29T09:24:00Z</time>
      </trkpt>
      <trkpt lat="46.0909860" lon="12.3676580">
        <ele>1288.3000000</ele>
        <time>2010-09-29T09:25:00Z</time>
      </trkpt>
      <trkpt lat="46.0909630" lon="12.3676330">
        <ele>1288.3000000</ele>
        <time>2010-09-29T09:25:04Z</time>
      </trkpt>
      <trkpt lat="46.0909470" lon="12.3676310">
        <ele>1288.3000000</ele>
        <time>2010-09-29T09:25:12Z</time>
      </trkpt>
      <trkpt lat="46.0909470" lon="12.3676310">
        <ele>1288.3000000</ele>
        <time>2010-09-29T09:25:16Z</time>
      </trkpt>
      <trkpt lat="46.0909330" lon="12.3676360">
        <ele>1287.8200000</ele>
        <time>2010-09-29T09:25:19Z</time>
      </trkpt>
      <trkpt lat="46.0908880" lon="12.3676410">
        <ele>1288.3000000</ele>
        <time>2010-09-29T09:25:26Z</time>
      </trkpt>
      <trkpt lat="46.0908700" lon="12.3676390">
        <ele>1288.3000000</ele>
        <time>2010-09-29T09:25:32Z</time>
      </trkpt>
      <trkpt lat="46.0908190" lon="12.3676660">
        <ele>1288.7800000</ele>
        <time>2010-09-29T09:25:39Z</time>
      </trkpt>
      <trkpt lat="46.0908090" lon="12.3676550">
        <ele>1289.2700000</ele>
        <time>2010-09-29T09:25:42Z</time>
      </trkpt>
      <trkpt lat="46.0907930" lon="12.3676210">
        <ele>1288.7800000</ele>
        <time>2010-09-29T09:25:46Z</time>
      </trkpt>
      <trkpt lat="46.0907680" lon="12.3676050">
        <ele>1288.3000000</ele>
        <time>2010-09-29T09:25:54Z</time>
      </trkpt>
      <trkpt lat="46.0907690" lon="12.3676110">
        <ele>1288.7800000</ele>
        <time>2010-09-29T09:26:08Z</time>
      </trkpt>
      <trkpt lat="46.0907870" lon="12.3676900">
        <ele>1288.7800000</ele>
        <time>2010-09-29T09:26:14Z</time>
      </trkpt>
      <trkpt lat="46.0907700" lon="12.3677940">
        <ele>1289.2700000</ele>
        <time>2010-09-29T09:26:21Z</time>
      </trkpt>
      <trkpt lat="46.0907610" lon="12.3678000">
        <ele>1288.3000000</ele>
        <time>2010-09-29T09:26:22Z</time>
      </trkpt>
      <trkpt lat="46.0907330" lon="12.3678320">
        <ele>1288.3000000</ele>
        <time>2010-09-29T09:26:26Z</time>
      </trkpt>
      <trkpt lat="46.0907100" lon="12.3678460">
        <ele>1288.7800000</ele>
        <time>2010-09-29T09:26:34Z</time>
      </trkpt>
      <trkpt lat="46.0906970" lon="12.3678360">
        <ele>1288.7800000</ele>
        <time>2010-09-29T09:26:56Z</time>
      </trkpt>
      <trkpt lat="46.0906970" lon="12.3678360">
        <ele>1284.9400000</ele>
        <time>2010-09-29T09:28:00Z</time>
      </trkpt>
      <trkpt lat="46.0906970" lon="12.3678360">
        <ele>1287.8200000</ele>
        <time>2010-09-29T09:28:01Z</time>
      </trkpt>
      <trkpt lat="46.0906980" lon="12.3678460">
        <ele>1287.8200000</ele>
        <time>2010-09-29T09:29:42Z</time>
      </trkpt>
      <trkpt lat="46.0906800" lon="12.3678380">
        <ele>1287.8200000</ele>
        <time>2010-09-29T09:29:50Z</time>
      </trkpt>
      <trkpt lat="46.0906800" lon="12.3678380">
        <ele>1287.3400000</ele>
        <time>2010-09-29T09:30:05Z</time>
      </trkpt>
      <trkpt lat="46.0907040" lon="12.3678590">
        <ele>1287.3400000</ele>
        <time>2010-09-29T09:30:13Z</time>
      </trkpt>
      <trkpt lat="46.0907140" lon="12.3678500">
        <ele>1287.8200000</ele>
        <time>2010-09-29T09:30:53Z</time>
      </trkpt>
      <trkpt lat="46.0907220" lon="12.3678560">
        <ele>1286.8600000</ele>
        <time>2010-09-29T09:31:06Z</time>
      </trkpt>
      <trkpt lat="46.0906880" lon="12.3678550">
        <ele>1286.3800000</ele>
        <time>2010-09-29T09:33:28Z</time>
      </trkpt>
      <trkpt lat="46.0907110" lon="12.3678620">
        <ele>1286.3800000</ele>
        <time>2010-09-29T09:33:39Z</time>
      </trkpt>
      <trkpt lat="46.0907270" lon="12.3678550">
        <ele>1285.9000000</ele>
        <time>2010-09-29T09:33:46Z</time>
      </trkpt>
      <trkpt lat="46.0907280" lon="12.3678550">
        <ele>1283.0200000</ele>
        <time>2010-09-29T09:39:54Z</time>
      </trkpt>
      <trkpt lat="46.0907290" lon="12.3678540">
        <ele>1279.6500000</ele>
        <time>2010-09-29T09:41:25Z</time>
      </trkpt>
      <trkpt lat="46.0907290" lon="12.3678540">
        <ele>1283.0200000</ele>
        <time>2010-09-29T09:41:27Z</time>
      </trkpt>
      <trkpt lat="46.0907290" lon="12.3678540">
        <ele>1283.0200000</ele>
        <time>2010-09-29T09:41:28Z</time>
      </trkpt>
      <trkpt lat="46.0907320" lon="12.3678490">
        <ele>1283.0200000</ele>
        <time>2010-09-29T09:43:22Z</time>
      </trkpt>
      <trkpt lat="46.0907320" lon="12.3678490">
        <ele>1282.0600000</ele>
        <time>2010-09-29T09:43:31Z</time>
      </trkpt>
      <trkpt lat="46.0907320" lon="12.3678490">
        <ele>1281.5700000</ele>
        <time>2010-09-29T09:43:39Z</time>
      </trkpt>
      <trkpt lat="46.0907390" lon="12.3678530">
        <ele>1281.0900000</ele>
        <time>2010-09-29T09:44:43Z</time>
      </trkpt>
      <trkpt lat="46.0907400" lon="12.3678630">
        <ele>1281.0900000</ele>
        <time>2010-09-29T09:48:23Z</time>
      </trkpt>
      <trkpt lat="46.0907400" lon="12.3678630">
        <ele>1280.1300000</ele>
        <time>2010-09-29T09:48:25Z</time>
      </trkpt>
      <trkpt lat="46.0907330" lon="12.3678560">
        <ele>1280.6100000</ele>
        <time>2010-09-29T09:50:05Z</time>
      </trkpt>
      <trkpt lat="46.0907770" lon="12.3679000">
        <ele>1279.6500000</ele>
        <time>2010-09-29T09:50:11Z</time>
      </trkpt>
      <trkpt lat="46.0907890" lon="12.3679100">
        <ele>1280.1300000</ele>
        <time>2010-09-29T09:50:17Z</time>
      </trkpt>
      <trkpt lat="46.0907890" lon="12.3679070">
        <ele>1280.1300000</ele>
        <time>2010-09-29T09:50:22Z</time>
      </trkpt>
      <trkpt lat="46.0907650" lon="12.3678770">
        <ele>1280.1300000</ele>
        <time>2010-09-29T09:50:26Z</time>
      </trkpt>
      <trkpt lat="46.0907410" lon="12.3678640">
        <ele>1280.6100000</ele>
        <time>2010-09-29T09:50:29Z</time>
      </trkpt>
      <trkpt lat="46.0907280" lon="12.3678420">
        <ele>1280.6100000</ele>
        <time>2010-09-29T09:50:36Z</time>
      </trkpt>
      <trkpt lat="46.0907220" lon="12.3678360">
        <ele>1280.6100000</ele>
        <time>2010-09-29T09:53:16Z</time>
      </trkpt>
      <trkpt lat="46.0907220" lon="12.3678490">
        <ele>1279.1700000</ele>
        <time>2010-09-29T09:54:46Z</time>
      </trkpt>
      <trkpt lat="46.0907190" lon="12.3678490">
        <ele>1278.6900000</ele>
        <time>2010-09-29T09:54:54Z</time>
      </trkpt>
      <trkpt lat="46.0907190" lon="12.3678420">
        <ele>1279.1700000</ele>
        <time>2010-09-29T09:55:46Z</time>
      </trkpt>
      <trkpt lat="46.0907190" lon="12.3678460">
        <ele>1278.6900000</ele>
        <time>2010-09-29T09:56:06Z</time>
      </trkpt>
      <trkpt lat="46.0907320" lon="12.3678570">
        <ele>1278.6900000</ele>
        <time>2010-09-29T09:56:34Z</time>
      </trkpt>
      <trkpt lat="46.0907360" lon="12.3678570">
        <ele>1278.6900000</ele>
        <time>2010-09-29T09:56:41Z</time>
      </trkpt>
      <trkpt lat="46.0907170" lon="12.3678410">
        <ele>1278.6900000</ele>
        <time>2010-09-29T09:56:48Z</time>
      </trkpt>
      <trkpt lat="46.0907180" lon="12.3678300">
        <ele>1277.7300000</ele>
        <time>2010-09-29T09:56:53Z</time>
      </trkpt>
      <trkpt lat="46.0907180" lon="12.3678300">
        <ele>1281.0900000</ele>
        <time>2010-09-29T09:57:11Z</time>
      </trkpt>
      <trkpt lat="46.0907180" lon="12.3678300">
        <ele>1278.6900000</ele>
        <time>2010-09-29T09:57:13Z</time>
      </trkpt>
      <trkpt lat="46.0907170" lon="12.3678570">
        <ele>1279.1700000</ele>
        <time>2010-09-29T09:57:20Z</time>
      </trkpt>
      <trkpt lat="46.0907180" lon="12.3678560">
        <ele>1277.7300000</ele>
        <time>2010-09-29T09:57:32Z</time>
      </trkpt>
      <trkpt lat="46.0907180" lon="12.3678500">
        <ele>1278.6900000</ele>
        <time>2010-09-29T09:57:51Z</time>
      </trkpt>
      <trkpt lat="46.0907220" lon="12.3678580">
        <ele>1278.2100000</ele>
        <time>2010-09-29T09:58:01Z</time>
      </trkpt>
      <trkpt lat="46.0907220" lon="12.3678440">
        <ele>1278.2100000</ele>
        <time>2010-09-29T09:58:10Z</time>
      </trkpt>
      <trkpt lat="46.0907190" lon="12.3678470">
        <ele>1279.1700000</ele>
        <time>2010-09-29T09:58:29Z</time>
      </trkpt>
      <trkpt lat="46.0907360" lon="12.3678280">
        <ele>1278.6900000</ele>
        <time>2010-09-29T09:58:35Z</time>
      </trkpt>
      <trkpt lat="46.0907240" lon="12.3678250">
        <ele>1278.2100000</ele>
        <time>2010-09-29T09:59:37Z</time>
      </trkpt>
      <trkpt lat="46.0907230" lon="12.3678200">
        <ele>1278.2100000</ele>
        <time>2010-09-29T09:59:59Z</time>
      </trkpt>
      <trkpt lat="46.0907220" lon="12.3678180">
        <ele>1278.2100000</ele>
        <time>2010-09-29T10:00:37Z</time>
      </trkpt>
      <trkpt lat="46.0907230" lon="12.3678260">
        <ele>1278.2100000</ele>
        <time>2010-09-29T10:02:07Z</time>
      </trkpt>
      <trkpt lat="46.0907150" lon="12.3678140">
        <ele>1278.2100000</ele>
        <time>2010-09-29T10:02:14Z</time>
      </trkpt>
      <trkpt lat="46.0907150" lon="12.3678290">
        <ele>1278.2100000</ele>
        <time>2010-09-29T10:02:20Z</time>
      </trkpt>
      <trkpt lat="46.0907190" lon="12.3678460">
        <ele>1278.2100000</ele>
        <time>2010-09-29T10:02:33Z</time>
      </trkpt>
      <trkpt lat="46.0907190" lon="12.3678460">
        <ele>1278.2100000</ele>
        <time>2010-09-29T10:02:37Z</time>
      </trkpt>
      <trkpt lat="46.0907170" lon="12.3678350">
        <ele>1278.2100000</ele>
        <time>2010-09-29T10:02:40Z</time>
      </trkpt>
      <trkpt lat="46.0907200" lon="12.3678200">
        <ele>1277.7300000</ele>
        <time>2010-09-29T10:02:46Z</time>
      </trkpt>
      <trkpt lat="46.0907290" lon="12.3678220">
        <ele>1277.7300000</ele>
        <time>2010-09-29T10:02:56Z</time>
      </trkpt>
      <trkpt lat="46.0907260" lon="12.3678210">
        <ele>1278.2100000</ele>
        <time>2010-09-29T10:03:01Z</time>
      </trkpt>
      <trkpt lat="46.0907260" lon="12.3678210">
        <ele>1277.7300000</ele>
        <time>2010-09-29T10:03:02Z</time>
      </trkpt>
      <trkpt lat="46.0907190" lon="12.3678340">
        <ele>1278.2100000</ele>
        <time>2010-09-29T10:03:10Z</time>
      </trkpt>
      <trkpt lat="46.0907190" lon="12.3678400">
        <ele>1278.2100000</ele>
        <time>2010-09-29T10:03:24Z</time>
      </trkpt>
      <trkpt lat="46.0907170" lon="12.3678440">
        <ele>1277.7300000</ele>
        <time>2010-09-29T10:03:43Z</time>
      </trkpt>
      <trkpt lat="46.0907170" lon="12.3678440">
        <ele>1277.2500000</ele>
        <time>2010-09-29T10:03:45Z</time>
      </trkpt>
      <trkpt lat="46.0907760" lon="12.3677830">
        <ele>1278.2100000</ele>
        <time>2010-09-29T10:03:52Z</time>
      </trkpt>
      <trkpt lat="46.0907940" lon="12.3677480">
        <ele>1277.2500000</ele>
        <time>2010-09-29T10:03:56Z</time>
      </trkpt>
      <trkpt lat="46.0907980" lon="12.3677180">
        <ele>1277.7300000</ele>
        <time>2010-09-29T10:04:02Z</time>
      </trkpt>
      <trkpt lat="46.0907930" lon="12.3677220">
        <ele>1278.2100000</ele>
        <time>2010-09-29T10:04:24Z</time>
      </trkpt>
      <trkpt lat="46.0907830" lon="12.3677530">
        <ele>1277.2500000</ele>
        <time>2010-09-29T10:04:27Z</time>
      </trkpt>
      <trkpt lat="46.0907610" lon="12.3678010">
        <ele>1277.2500000</ele>
        <time>2010-09-29T10:04:31Z</time>
      </trkpt>
      <trkpt lat="46.0907110" lon="12.3678200">
        <ele>1278.2100000</ele>
        <time>2010-09-29T10:04:37Z</time>
      </trkpt>
      <trkpt lat="46.0907110" lon="12.3678240">
        <ele>1277.7300000</ele>
        <time>2010-09-29T10:04:45Z</time>
      </trkpt>
      <trkpt lat="46.0907110" lon="12.3678240">
        <ele>1279.1700000</ele>
        <time>2010-09-29T10:04:48Z</time>
      </trkpt>
      <trkpt lat="46.0907110" lon="12.3678240">
        <ele>1277.7300000</ele>
        <time>2010-09-29T10:04:50Z</time>
      </trkpt>
      <trkpt lat="46.0907090" lon="12.3678510">
        <ele>1277.7300000</ele>
        <time>2010-09-29T10:05:35Z</time>
      </trkpt>
      <trkpt lat="46.0907110" lon="12.3678520">
        <ele>1277.2500000</ele>
        <time>2010-09-29T10:05:49Z</time>
      </trkpt>
      <trkpt lat="46.0907100" lon="12.3678550">
        <ele>1277.2500000</ele>
        <time>2010-09-29T10:06:11Z</time>
      </trkpt>
      <trkpt lat="46.0907120" lon="12.3678430">
        <ele>1277.2500000</ele>
        <time>2010-09-29T10:06:17Z</time>
      </trkpt>
      <trkpt lat="46.0907160" lon="12.3678490">
        <ele>1277.7300000</ele>
        <time>2010-09-29T10:06:24Z</time>
      </trkpt>
      <trkpt lat="46.0907170" lon="12.3678290">
        <ele>1278.2100000</ele>
        <time>2010-09-29T10:06:31Z</time>
      </trkpt>
      <trkpt lat="46.0907140" lon="12.3678260">
        <ele>1278.2100000</ele>
        <time>2010-09-29T10:06:38Z</time>
      </trkpt>
      <trkpt lat="46.0907140" lon="12.3678260">
        <ele>1277.7300000</ele>
        <time>2010-09-29T10:07:09Z</time>
      </trkpt>
      <trkpt lat="46.0907130" lon="12.3678350">
        <ele>1277.7300000</ele>
        <time>2010-09-29T10:07:19Z</time>
      </trkpt>
      <trkpt lat="46.0907110" lon="12.3678500">
        <ele>1277.7300000</ele>
        <time>2010-09-29T10:07:27Z</time>
      </trkpt>
      <trkpt lat="46.0907300" lon="12.3678350">
        <ele>1277.7300000</ele>
        <time>2010-09-29T10:07:39Z</time>
      </trkpt>
      <trkpt lat="46.0907580" lon="12.3677810">
        <ele>1277.2500000</ele>
        <time>2010-09-29T10:07:44Z</time>
      </trkpt>
      <trkpt lat="46.0907620" lon="12.3677690">
        <ele>1277.2500000</ele>
        <time>2010-09-29T10:07:45Z</time>
      </trkpt>
      <trkpt lat="46.0907710" lon="12.3677100">
        <ele>1277.2500000</ele>
        <time>2010-09-29T10:07:51Z</time>
      </trkpt>
      <trkpt lat="46.0907750" lon="12.3677030">
        <ele>1277.7300000</ele>
        <time>2010-09-29T10:07:58Z</time>
      </trkpt>
      <trkpt lat="46.0907670" lon="12.3677110">
        <ele>1277.2500000</ele>
        <time>2010-09-29T10:08:50Z</time>
      </trkpt>
      <trkpt lat="46.0907670" lon="12.3677110">
        <ele>1277.2500000</ele>
        <time>2010-09-29T10:09:25Z</time>
      </trkpt>
      <trkpt lat="46.0907890" lon="12.3677030">
        <ele>1276.7700000</ele>
        <time>2010-09-29T10:10:03Z</time>
      </trkpt>
      <trkpt lat="46.0907890" lon="12.3677030">
        <ele>1277.2500000</ele>
        <time>2010-09-29T10:10:27Z</time>
      </trkpt>
      <trkpt lat="46.0907960" lon="12.3677250">
        <ele>1276.7700000</ele>
        <time>2010-09-29T10:10:29Z</time>
      </trkpt>
      <trkpt lat="46.0907590" lon="12.3677770">
        <ele>1277.2500000</ele>
        <time>2010-09-29T10:10:37Z</time>
      </trkpt>
      <trkpt lat="46.0907450" lon="12.3677980">
        <ele>1277.2500000</ele>
        <time>2010-09-29T10:10:39Z</time>
      </trkpt>
      <trkpt lat="46.0907190" lon="12.3678210">
        <ele>1277.7300000</ele>
        <time>2010-09-29T10:10:46Z</time>
      </trkpt>
      <trkpt lat="46.0907060" lon="12.3678370">
        <ele>1277.2500000</ele>
        <time>2010-09-29T10:10:53Z</time>
      </trkpt>
      <trkpt lat="46.0907040" lon="12.3678420">
        <ele>1277.2500000</ele>
        <time>2010-09-29T10:11:09Z</time>
      </trkpt>
      <trkpt lat="46.0907060" lon="12.3678540">
        <ele>1277.2500000</ele>
        <time>2010-09-29T10:11:18Z</time>
      </trkpt>
      <trkpt lat="46.0907060" lon="12.3678540">
        <ele>1276.7700000</ele>
        <time>2010-09-29T10:11:47Z</time>
      </trkpt>
      <trkpt lat="46.0907080" lon="12.3678580">
        <ele>1277.2500000</ele>
        <time>2010-09-29T10:12:44Z</time>
      </trkpt>
      <trkpt lat="46.0907110" lon="12.3678600">
        <ele>1276.7700000</ele>
        <time>2010-09-29T10:13:31Z</time>
      </trkpt>
      <trkpt lat="46.0907190" lon="12.3678630">
        <ele>1276.7700000</ele>
        <time>2010-09-29T10:14:00Z</time>
      </trkpt>
      <trkpt lat="46.0907220" lon="12.3678630">
        <ele>1276.7700000</ele>
        <time>2010-09-29T10:14:30Z</time>
      </trkpt>
      <trkpt lat="46.0907250" lon="12.3678670">
        <ele>1276.7700000</ele>
        <time>2010-09-29T10:15:44Z</time>
      </trkpt>
      <trkpt lat="46.0907260" lon="12.3678640">
        <ele>1276.7700000</ele>
        <time>2010-09-29T10:16:08Z</time>
      </trkpt>
      <trkpt lat="46.0907280" lon="12.3678600">
        <ele>1276.2900000</ele>
        <time>2010-09-29T10:16:19Z</time>
      </trkpt>
      <trkpt lat="46.0907180" lon="12.3678720">
        <ele>1276.7700000</ele>
        <time>2010-09-29T10:16:28Z</time>
      </trkpt>
      <trkpt lat="46.0907140" lon="12.3678860">
        <ele>1276.2900000</ele>
        <time>2010-09-29T10:16:35Z</time>
      </trkpt>
      <trkpt lat="46.0906990" lon="12.3679130">
        <ele>1276.2900000</ele>
        <time>2010-09-29T10:16:44Z</time>
      </trkpt>
      <trkpt lat="46.0906950" lon="12.3680190">
        <ele>1276.7700000</ele>
        <time>2010-09-29T10:16:51Z</time>
      </trkpt>
      <trkpt lat="46.0907140" lon="12.3681020">
        <ele>1276.7700000</ele>
        <time>2010-09-29T10:16:57Z</time>
      </trkpt>
      <trkpt lat="46.0907440" lon="12.3681650">
        <ele>1275.8100000</ele>
        <time>2010-09-29T10:17:02Z</time>
      </trkpt>
      <trkpt lat="46.0908020" lon="12.3682390">
        <ele>1276.2900000</ele>
        <time>2010-09-29T10:17:09Z</time>
      </trkpt>
      <trkpt lat="46.0908110" lon="12.3682520">
        <ele>1275.8100000</ele>
        <time>2010-09-29T10:17:10Z</time>
      </trkpt>
      <trkpt lat="46.0908220" lon="12.3683010">
        <ele>1275.8100000</ele>
        <time>2010-09-29T10:17:14Z</time>
      </trkpt>
      <trkpt lat="46.0908010" lon="12.3683020">
        <ele>1276.7700000</ele>
        <time>2010-09-29T10:17:18Z</time>
      </trkpt>
      <trkpt lat="46.0907330" lon="12.3683020">
        <ele>1277.2500000</ele>
        <time>2010-09-29T10:17:26Z</time>
      </trkpt>
      <trkpt lat="46.0907260" lon="12.3683010">
        <ele>1277.2500000</ele>
        <time>2010-09-29T10:17:27Z</time>
      </trkpt>
      <trkpt lat="46.0906610" lon="12.3683030">
        <ele>1278.2100000</ele>
        <time>2010-09-29T10:17:35Z</time>
      </trkpt>
      <trkpt lat="46.0906140" lon="12.3682990">
        <ele>1279.6500000</ele>
        <time>2010-09-29T10:17:41Z</time>
      </trkpt>
      <trkpt lat="46.0905970" lon="12.3682960">
        <ele>1280.1300000</ele>
        <time>2010-09-29T10:17:47Z</time>
      </trkpt>
      <trkpt lat="46.0905840" lon="12.3683120">
        <ele>1280.1300000</ele>
        <time>2010-09-29T10:17:54Z</time>
      </trkpt>
      <trkpt lat="46.0905490" lon="12.3683100">
        <ele>1280.6100000</ele>
        <time>2010-09-29T10:18:34Z</time>
      </trkpt>
      <trkpt lat="46.0905350" lon="12.3683140">
        <ele>1280.6100000</ele>
        <time>2010-09-29T10:18:36Z</time>
      </trkpt>
      <trkpt lat="46.0904910" lon="12.3683020">
        <ele>1282.0600000</ele>
        <time>2010-09-29T10:18:41Z</time>
      </trkpt>
      <trkpt lat="46.0904590" lon="12.3683030">
        <ele>1282.5400000</ele>
        <time>2010-09-29T10:18:44Z</time>
      </trkpt>
      <trkpt lat="46.0904060" lon="12.3682910">
        <ele>1283.0200000</ele>
        <time>2010-09-29T10:18:50Z</time>
      </trkpt>
      <trkpt lat="46.0903680" lon="12.3682870">
        <ele>1283.0200000</ele>
        <time>2010-09-29T10:18:55Z</time>
      </trkpt>
      <trkpt lat="46.0903170" lon="12.3682930">
        <ele>1284.4600000</ele>
        <time>2010-09-29T10:19:01Z</time>
      </trkpt>
      <trkpt lat="46.0903070" lon="12.3682940">
        <ele>1284.4600000</ele>
        <time>2010-09-29T10:19:02Z</time>
      </trkpt>
      <trkpt lat="46.0902820" lon="12.3683000">
        <ele>1284.9400000</ele>
        <time>2010-09-29T10:19:05Z</time>
      </trkpt>
      <trkpt lat="46.0902230" lon="12.3683190">
        <ele>1285.9000000</ele>
        <time>2010-09-29T10:19:12Z</time>
      </trkpt>
      <trkpt lat="46.0902190" lon="12.3683210">
        <ele>1286.3800000</ele>
        <time>2010-09-29T10:19:22Z</time>
      </trkpt>
      <trkpt lat="46.0902100" lon="12.3683150">
        <ele>1286.8600000</ele>
        <time>2010-09-29T10:19:33Z</time>
      </trkpt>
      <trkpt lat="46.0902040" lon="12.3683150">
        <ele>1285.9000000</ele>
        <time>2010-09-29T10:19:37Z</time>
      </trkpt>
      <trkpt lat="46.0901990" lon="12.3683390">
        <ele>1285.4200000</ele>
        <time>2010-09-29T10:19:39Z</time>
      </trkpt>
      <trkpt lat="46.0902020" lon="12.3684500">
        <ele>1286.8600000</ele>
        <time>2010-09-29T10:19:47Z</time>
      </trkpt>
      <trkpt lat="46.0902200" lon="12.3685160">
        <ele>1288.3000000</ele>
        <time>2010-09-29T10:19:53Z</time>
      </trkpt>
      <trkpt lat="46.0902340" lon="12.3685860">
        <ele>1288.3000000</ele>
        <time>2010-09-29T10:19:58Z</time>
      </trkpt>
      <trkpt lat="46.0902380" lon="12.3686120">
        <ele>1288.3000000</ele>
        <time>2010-09-29T10:20:00Z</time>
      </trkpt>
      <trkpt lat="46.0902430" lon="12.3686940">
        <ele>1289.2700000</ele>
        <time>2010-09-29T10:20:06Z</time>
      </trkpt>
      <trkpt lat="46.0902500" lon="12.3687290">
        <ele>1289.7500000</ele>
        <time>2010-09-29T10:20:09Z</time>
      </trkpt>
      <trkpt lat="46.0902520" lon="12.3687530">
        <ele>1289.7500000</ele>
        <time>2010-09-29T10:20:16Z</time>
      </trkpt>
      <trkpt lat="46.0902590" lon="12.3687530">
        <ele>1290.2300000</ele>
        <time>2010-09-29T10:20:23Z</time>
      </trkpt>
      <trkpt lat="46.0902600" lon="12.3687510">
        <ele>1290.2300000</ele>
        <time>2010-09-29T10:20:41Z</time>
      </trkpt>
      <trkpt lat="46.0902630" lon="12.3687430">
        <ele>1290.2300000</ele>
        <time>2010-09-29T10:20:43Z</time>
      </trkpt>
      <trkpt lat="46.0902610" lon="12.3686700">
        <ele>1289.2700000</ele>
        <time>2010-09-29T10:20:49Z</time>
      </trkpt>
      <trkpt lat="46.0902610" lon="12.3687690">
        <ele>1290.2300000</ele>
        <time>2010-09-29T10:20:57Z</time>
      </trkpt>
      <trkpt lat="46.0902570" lon="12.3687790">
        <ele>1289.7500000</ele>
        <time>2010-09-29T10:20:58Z</time>
      </trkpt>
      <trkpt lat="46.0902370" lon="12.3688200">
        <ele>1290.7100000</ele>
        <time>2010-09-29T10:21:05Z</time>
      </trkpt>
      <trkpt lat="46.0902380" lon="12.3688270">
        <ele>1291.6700000</ele>
        <time>2010-09-29T10:21:14Z</time>
      </trkpt>
      <trkpt lat="46.0902010" lon="12.3688060">
        <ele>1291.6700000</ele>
        <time>2010-09-29T10:21:21Z</time>
      </trkpt>
      <trkpt lat="46.0901420" lon="12.3687690">
        <ele>1293.1100000</ele>
        <time>2010-09-29T10:21:28Z</time>
      </trkpt>
      <trkpt lat="46.0901160" lon="12.3687750">
        <ele>1293.5900000</ele>
        <time>2010-09-29T10:21:36Z</time>
      </trkpt>
      <trkpt lat="46.0901160" lon="12.3687740">
        <ele>1292.6300000</ele>
        <time>2010-09-29T10:22:58Z</time>
      </trkpt>
      <trkpt lat="46.0901120" lon="12.3687900">
        <ele>1293.1100000</ele>
        <time>2010-09-29T10:23:01Z</time>
      </trkpt>
      <trkpt lat="46.0901040" lon="12.3688140">
        <ele>1293.5900000</ele>
        <time>2010-09-29T10:23:04Z</time>
      </trkpt>
      <trkpt lat="46.0900660" lon="12.3688590">
        <ele>1293.1100000</ele>
        <time>2010-09-29T10:23:10Z</time>
      </trkpt>
      <trkpt lat="46.0900480" lon="12.3688740">
        <ele>1295.5100000</ele>
        <time>2010-09-29T10:23:15Z</time>
      </trkpt>
      <trkpt lat="46.0900260" lon="12.3688960">
        <ele>1295.5100000</ele>
        <time>2010-09-29T10:23:18Z</time>
      </trkpt>
      <trkpt lat="46.0899940" lon="12.3689000">
        <ele>1295.9900000</ele>
        <time>2010-09-29T10:23:24Z</time>
      </trkpt>
      <trkpt lat="46.0899680" lon="12.3689150">
        <ele>1296.4800000</ele>
        <time>2010-09-29T10:23:28Z</time>
      </trkpt>
      <trkpt lat="46.0899610" lon="12.3689250">
        <ele>1296.9600000</ele>
        <time>2010-09-29T10:23:30Z</time>
      </trkpt>
      <trkpt lat="46.0899210" lon="12.3689350">
        <ele>1298.4000000</ele>
        <time>2010-09-29T10:23:36Z</time>
      </trkpt>
      <trkpt lat="46.0899010" lon="12.3689380">
        <ele>1299.3600000</ele>
        <time>2010-09-29T10:23:39Z</time>
      </trkpt>
      <trkpt lat="46.0898560" lon="12.3689310">
        <ele>1299.3600000</ele>
        <time>2010-09-29T10:23:45Z</time>
      </trkpt>
      <trkpt lat="46.0898120" lon="12.3689540">
        <ele>1299.8400000</ele>
        <time>2010-09-29T10:23:52Z</time>
      </trkpt>
      <trkpt lat="46.0897980" lon="12.3689660">
        <ele>1301.2800000</ele>
        <time>2010-09-29T10:23:57Z</time>
      </trkpt>
      <trkpt lat="46.0897910" lon="12.3689970">
        <ele>1301.7600000</ele>
        <time>2010-09-29T10:24:04Z</time>
      </trkpt>
      <trkpt lat="46.0897910" lon="12.3689970">
        <ele>1301.2800000</ele>
        <time>2010-09-29T10:24:18Z</time>
      </trkpt>
      <trkpt lat="46.0897850" lon="12.3690040">
        <ele>1301.2800000</ele>
        <time>2010-09-29T10:24:20Z</time>
      </trkpt>
      <trkpt lat="46.0897680" lon="12.3690140">
        <ele>1302.2400000</ele>
        <time>2010-09-29T10:24:24Z</time>
      </trkpt>
      <trkpt lat="46.0897220" lon="12.3690110">
        <ele>1302.2400000</ele>
        <time>2010-09-29T10:24:28Z</time>
      </trkpt>
      <trkpt lat="46.0896680" lon="12.3690170">
        <ele>1302.7200000</ele>
        <time>2010-09-29T10:24:33Z</time>
      </trkpt>
      <trkpt lat="46.0896180" lon="12.3690230">
        <ele>1302.2400000</ele>
        <time>2010-09-29T10:24:39Z</time>
      </trkpt>
      <trkpt lat="46.0895620" lon="12.3690470">
        <ele>1303.2000000</ele>
        <time>2010-09-29T10:24:44Z</time>
      </trkpt>
      <trkpt lat="46.0895240" lon="12.3690650">
        <ele>1303.6900000</ele>
        <time>2010-09-29T10:24:49Z</time>
      </trkpt>
      <trkpt lat="46.0894800" lon="12.3690870">
        <ele>1304.1700000</ele>
        <time>2010-09-29T10:24:54Z</time>
      </trkpt>
      <trkpt lat="46.0894380" lon="12.3691050">
        <ele>1303.6900000</ele>
        <time>2010-09-29T10:25:00Z</time>
      </trkpt>
      <trkpt lat="46.0894140" lon="12.3691170">
        <ele>1304.1700000</ele>
        <time>2010-09-29T10:25:02Z</time>
      </trkpt>
      <trkpt lat="46.0893760" lon="12.3691360">
        <ele>1304.1700000</ele>
        <time>2010-09-29T10:25:06Z</time>
      </trkpt>
      <trkpt lat="46.0893190" lon="12.3691480">
        <ele>1304.1700000</ele>
        <time>2010-09-29T10:25:13Z</time>
      </trkpt>
      <trkpt lat="46.0892850" lon="12.3691740">
        <ele>1305.1300000</ele>
        <time>2010-09-29T10:25:18Z</time>
      </trkpt>
      <trkpt lat="46.0892560" lon="12.3691940">
        <ele>1305.6100000</ele>
        <time>2010-09-29T10:25:21Z</time>
      </trkpt>
      <trkpt lat="46.0891960" lon="12.3692070">
        <ele>1306.0900000</ele>
        <time>2010-09-29T10:25:28Z</time>
      </trkpt>
      <trkpt lat="46.0891830" lon="12.3692110">
        <ele>1307.5300000</ele>
        <time>2010-09-29T10:25:33Z</time>
      </trkpt>
      <trkpt lat="46.0891550" lon="12.3692230">
        <ele>1307.0500000</ele>
        <time>2010-09-29T10:25:41Z</time>
      </trkpt>
      <trkpt lat="46.0891150" lon="12.3692420">
        <ele>1307.5300000</ele>
        <time>2010-09-29T10:25:46Z</time>
      </trkpt>
      <trkpt lat="46.0890690" lon="12.3692490">
        <ele>1308.4900000</ele>
        <time>2010-09-29T10:25:52Z</time>
      </trkpt>
      <trkpt lat="46.0890290" lon="12.3692580">
        <ele>1308.4900000</ele>
        <time>2010-09-29T10:25:58Z</time>
      </trkpt>
      <trkpt lat="46.0889820" lon="12.3692480">
        <ele>1309.4500000</ele>
        <time>2010-09-29T10:26:04Z</time>
      </trkpt>
      <trkpt lat="46.0889650" lon="12.3692500">
        <ele>1310.4100000</ele>
        <time>2010-09-29T10:26:09Z</time>
      </trkpt>
      <trkpt lat="46.0889070" lon="12.3692560">
        <ele>1310.9000000</ele>
        <time>2010-09-29T10:26:15Z</time>
      </trkpt>
      <trkpt lat="46.0888600" lon="12.3692600">
        <ele>1311.8600000</ele>
        <time>2010-09-29T10:26:21Z</time>
      </trkpt>
      <trkpt lat="46.0888130" lon="12.3692480">
        <ele>1311.8600000</ele>
        <time>2010-09-29T10:26:26Z</time>
      </trkpt>
      <trkpt lat="46.0887590" lon="12.3692630">
        <ele>1312.8200000</ele>
        <time>2010-09-29T10:26:33Z</time>
      </trkpt>
      <trkpt lat="46.0887240" lon="12.3692770">
        <ele>1313.7800000</ele>
        <time>2010-09-29T10:26:39Z</time>
      </trkpt>
      <trkpt lat="46.0886790" lon="12.3692880">
        <ele>1313.7800000</ele>
        <time>2010-09-29T10:26:45Z</time>
      </trkpt>
      <trkpt lat="46.0886760" lon="12.3692970">
        <ele>1314.7400000</ele>
        <time>2010-09-29T10:26:52Z</time>
      </trkpt>
      <trkpt lat="46.0886500" lon="12.3693080">
        <ele>1314.7400000</ele>
        <time>2010-09-29T10:27:03Z</time>
      </trkpt>
      <trkpt lat="46.0886050" lon="12.3693160">
        <ele>1316.1800000</ele>
        <time>2010-09-29T10:27:08Z</time>
      </trkpt>
      <trkpt lat="46.0885560" lon="12.3693070">
        <ele>1315.7000000</ele>
        <time>2010-09-29T10:27:14Z</time>
      </trkpt>
      <trkpt lat="46.0885060" lon="12.3693100">
        <ele>1316.6600000</ele>
        <time>2010-09-29T10:27:20Z</time>
      </trkpt>
      <trkpt lat="46.0884750" lon="12.3693180">
        <ele>1317.6200000</ele>
        <time>2010-09-29T10:27:25Z</time>
      </trkpt>
      <trkpt lat="46.0884350" lon="12.3693270">
        <ele>1318.5900000</ele>
        <time>2010-09-29T10:27:30Z</time>
      </trkpt>
      <trkpt lat="46.0883910" lon="12.3693340">
        <ele>1318.5900000</ele>
        <time>2010-09-29T10:27:35Z</time>
      </trkpt>
      <trkpt lat="46.0883400" lon="12.3693460">
        <ele>1319.0700000</ele>
        <time>2010-09-29T10:27:40Z</time>
      </trkpt>
      <trkpt lat="46.0883050" lon="12.3693660">
        <ele>1320.0300000</ele>
        <time>2010-09-29T10:27:45Z</time>
      </trkpt>
      <trkpt lat="46.0882450" lon="12.3693950">
        <ele>1319.5500000</ele>
        <time>2010-09-29T10:27:52Z</time>
      </trkpt>
      <trkpt lat="46.0881920" lon="12.3694110">
        <ele>1320.5100000</ele>
        <time>2010-09-29T10:27:59Z</time>
      </trkpt>
      <trkpt lat="46.0881320" lon="12.3694300">
        <ele>1321.4700000</ele>
        <time>2010-09-29T10:28:06Z</time>
      </trkpt>
      <trkpt lat="46.0880810" lon="12.3694520">
        <ele>1320.5100000</ele>
        <time>2010-09-29T10:28:12Z</time>
      </trkpt>
      <trkpt lat="46.0880680" lon="12.3694610">
        <ele>1321.9500000</ele>
        <time>2010-09-29T10:28:14Z</time>
      </trkpt>
      <trkpt lat="46.0880140" lon="12.3694680">
        <ele>1322.4300000</ele>
        <time>2010-09-29T10:28:20Z</time>
      </trkpt>
      <trkpt lat="46.0879810" lon="12.3694610">
        <ele>1322.9100000</ele>
        <time>2010-09-29T10:28:24Z</time>
      </trkpt>
      <trkpt lat="46.0879250" lon="12.3695010">
        <ele>1323.3900000</ele>
        <time>2010-09-29T10:28:30Z</time>
      </trkpt>
      <trkpt lat="46.0878990" lon="12.3695270">
        <ele>1323.8700000</ele>
        <time>2010-09-29T10:28:35Z</time>
      </trkpt>
      <trkpt lat="46.0878780" lon="12.3695640">
        <ele>1323.8700000</ele>
        <time>2010-09-29T10:28:41Z</time>
      </trkpt>
      <trkpt lat="46.0878760" lon="12.3695750">
        <ele>1324.3500000</ele>
        <time>2010-09-29T10:28:50Z</time>
      </trkpt>
      <trkpt lat="46.0878690" lon="12.3695640">
        <ele>1324.8300000</ele>
        <time>2010-09-29T10:28:54Z</time>
      </trkpt>
      <trkpt lat="46.0878350" lon="12.3695430">
        <ele>1325.3100000</ele>
        <time>2010-09-29T10:29:00Z</time>
      </trkpt>
      <trkpt lat="46.0877950" lon="12.3695460">
        <ele>1325.8000000</ele>
        <time>2010-09-29T10:29:06Z</time>
      </trkpt>
      <trkpt lat="46.0877630" lon="12.3695470">
        <ele>1325.3100000</ele>
        <time>2010-09-29T10:29:10Z</time>
      </trkpt>
      <trkpt lat="46.0877410" lon="12.3695270">
        <ele>1325.3100000</ele>
        <time>2010-09-29T10:29:14Z</time>
      </trkpt>
      <trkpt lat="46.0877030" lon="12.3695170">
        <ele>1326.2800000</ele>
        <time>2010-09-29T10:29:18Z</time>
      </trkpt>
      <trkpt lat="46.0876390" lon="12.3695410">
        <ele>1326.7600000</ele>
        <time>2010-09-29T10:29:24Z</time>
      </trkpt>
      <trkpt lat="46.0876070" lon="12.3695880">
        <ele>1326.7600000</ele>
        <time>2010-09-29T10:29:30Z</time>
      </trkpt>
      <trkpt lat="46.0875750" lon="12.3696370">
        <ele>1327.7200000</ele>
        <time>2010-09-29T10:29:36Z</time>
      </trkpt>
      <trkpt lat="46.0875450" lon="12.3696810">
        <ele>1329.6400000</ele>
        <time>2010-09-29T10:29:42Z</time>
      </trkpt>
      <trkpt lat="46.0875440" lon="12.3696850">
        <ele>1328.6800000</ele>
        <time>2010-09-29T10:30:06Z</time>
      </trkpt>
      <trkpt lat="46.0875270" lon="12.3697080">
        <ele>1330.1200000</ele>
        <time>2010-09-29T10:30:17Z</time>
      </trkpt>
      <trkpt lat="46.0874940" lon="12.3697510">
        <ele>1329.6400000</ele>
        <time>2010-09-29T10:30:22Z</time>
      </trkpt>
      <trkpt lat="46.0874530" lon="12.3698030">
        <ele>1331.0800000</ele>
        <time>2010-09-29T10:30:28Z</time>
      </trkpt>
      <trkpt lat="46.0874490" lon="12.3698110">
        <ele>1331.5600000</ele>
        <time>2010-09-29T10:30:29Z</time>
      </trkpt>
      <trkpt lat="46.0874230" lon="12.3698500">
        <ele>1332.0400000</ele>
        <time>2010-09-29T10:30:35Z</time>
      </trkpt>
      <trkpt lat="46.0874320" lon="12.3699090">
        <ele>1333.0100000</ele>
        <time>2010-09-29T10:30:42Z</time>
      </trkpt>
      <trkpt lat="46.0874330" lon="12.3699450">
        <ele>1335.4100000</ele>
        <time>2010-09-29T10:30:49Z</time>
      </trkpt>
      <trkpt lat="46.0874150" lon="12.3699660">
        <ele>1333.9700000</ele>
        <time>2010-09-29T10:30:54Z</time>
      </trkpt>
      <trkpt lat="46.0874040" lon="12.3699800">
        <ele>1334.9300000</ele>
        <time>2010-09-29T10:30:56Z</time>
      </trkpt>
      <trkpt lat="46.0873930" lon="12.3700040">
        <ele>1335.4100000</ele>
        <time>2010-09-29T10:30:59Z</time>
      </trkpt>
      <trkpt lat="46.0873990" lon="12.3700650">
        <ele>1336.3700000</ele>
        <time>2010-09-29T10:31:05Z</time>
      </trkpt>
      <trkpt lat="46.0873960" lon="12.3700950">
        <ele>1337.3300000</ele>
        <time>2010-09-29T10:31:09Z</time>
      </trkpt>
      <trkpt lat="46.0873920" lon="12.3701380">
        <ele>1337.8100000</ele>
        <time>2010-09-29T10:31:15Z</time>
      </trkpt>
      <trkpt lat="46.0873940" lon="12.3701760">
        <ele>1338.2900000</ele>
        <time>2010-09-29T10:31:18Z</time>
      </trkpt>
      <trkpt lat="46.0873610" lon="12.3702570">
        <ele>1339.7300000</ele>
        <time>2010-09-29T10:31:25Z</time>
      </trkpt>
      <trkpt lat="46.0873500" lon="12.3703160">
        <ele>1340.2200000</ele>
        <time>2010-09-29T10:31:31Z</time>
      </trkpt>
      <trkpt lat="46.0873700" lon="12.3703530">
        <ele>1341.1800000</ele>
        <time>2010-09-29T10:31:35Z</time>
      </trkpt>
      <trkpt lat="46.0873670" lon="12.3704140">
        <ele>1341.6600000</ele>
        <time>2010-09-29T10:31:42Z</time>
      </trkpt>
      <trkpt lat="46.0873110" lon="12.3704380">
        <ele>1340.7000000</ele>
        <time>2010-09-29T10:31:47Z</time>
      </trkpt>
      <trkpt lat="46.0872580" lon="12.3704720">
        <ele>1342.1400000</ele>
        <time>2010-09-29T10:31:53Z</time>
      </trkpt>
      <trkpt lat="46.0871970" lon="12.3705090">
        <ele>1342.6200000</ele>
        <time>2010-09-29T10:31:59Z</time>
      </trkpt>
      <trkpt lat="46.0871460" lon="12.3705520">
        <ele>1342.1400000</ele>
        <time>2010-09-29T10:32:05Z</time>
      </trkpt>
      <trkpt lat="46.0871380" lon="12.3705580">
        <ele>1342.1400000</ele>
        <time>2010-09-29T10:32:06Z</time>
      </trkpt>
      <trkpt lat="46.0870730" lon="12.3706210">
        <ele>1342.1400000</ele>
        <time>2010-09-29T10:32:13Z</time>
      </trkpt>
      <trkpt lat="46.0870400" lon="12.3706720">
        <ele>1342.1400000</ele>
        <time>2010-09-29T10:32:18Z</time>
      </trkpt>
      <trkpt lat="46.0869960" lon="12.3707490">
        <ele>1343.1000000</ele>
        <time>2010-09-29T10:32:24Z</time>
      </trkpt>
      <trkpt lat="46.0869700" lon="12.3707890">
        <ele>1343.1000000</ele>
        <time>2010-09-29T10:32:29Z</time>
      </trkpt>
      <trkpt lat="46.0869410" lon="12.3708400">
        <ele>1344.0600000</ele>
        <time>2010-09-29T10:32:34Z</time>
      </trkpt>
      <trkpt lat="46.0868840" lon="12.3708850">
        <ele>1345.0200000</ele>
        <time>2010-09-29T10:32:42Z</time>
      </trkpt>
      <trkpt lat="46.0868400" lon="12.3709020">
        <ele>1345.5000000</ele>
        <time>2010-09-29T10:32:48Z</time>
      </trkpt>
      <trkpt lat="46.0868030" lon="12.3709110">
        <ele>1346.9400000</ele>
        <time>2010-09-29T10:32:54Z</time>
      </trkpt>
      <trkpt lat="46.0867920" lon="12.3709070">
        <ele>1346.4600000</ele>
        <time>2010-09-29T10:33:02Z</time>
      </trkpt>
      <trkpt lat="46.0867720" lon="12.3709120">
        <ele>1347.4300000</ele>
        <time>2010-09-29T10:33:12Z</time>
      </trkpt>
      <trkpt lat="46.0867660" lon="12.3709120">
        <ele>1346.9400000</ele>
        <time>2010-09-29T10:33:21Z</time>
      </trkpt>
      <trkpt lat="46.0867420" lon="12.3709140">
        <ele>1346.9400000</ele>
        <time>2010-09-29T10:33:28Z</time>
      </trkpt>
      <trkpt lat="46.0866760" lon="12.3709210">
        <ele>1347.9100000</ele>
        <time>2010-09-29T10:33:34Z</time>
      </trkpt>
      <trkpt lat="46.0866130" lon="12.3709350">
        <ele>1348.3900000</ele>
        <time>2010-09-29T10:33:40Z</time>
      </trkpt>
      <trkpt lat="46.0865560" lon="12.3709650">
        <ele>1348.8700000</ele>
        <time>2010-09-29T10:33:47Z</time>
      </trkpt>
      <trkpt lat="46.0864960" lon="12.3710070">
        <ele>1349.3500000</ele>
        <time>2010-09-29T10:33:54Z</time>
      </trkpt>
      <trkpt lat="46.0864330" lon="12.3710380">
        <ele>1350.3100000</ele>
        <time>2010-09-29T10:34:01Z</time>
      </trkpt>
      <trkpt lat="46.0863850" lon="12.3710530">
        <ele>1350.7900000</ele>
        <time>2010-09-29T10:34:06Z</time>
      </trkpt>
      <trkpt lat="46.0863430" lon="12.3710810">
        <ele>1350.3100000</ele>
        <time>2010-09-29T10:34:10Z</time>
      </trkpt>
      <trkpt lat="46.0862900" lon="12.3711060">
        <ele>1351.2700000</ele>
        <time>2010-09-29T10:34:15Z</time>
      </trkpt>
      <trkpt lat="46.0862360" lon="12.3711280">
        <ele>1352.2300000</ele>
        <time>2010-09-29T10:34:21Z</time>
      </trkpt>
      <trkpt lat="46.0861790" lon="12.3711470">
        <ele>1352.7100000</ele>
        <time>2010-09-29T10:34:27Z</time>
      </trkpt>
      <trkpt lat="46.0861320" lon="12.3711730">
        <ele>1353.6700000</ele>
        <time>2010-09-29T10:34:33Z</time>
      </trkpt>
      <trkpt lat="46.0860840" lon="12.3711750">
        <ele>1353.6700000</ele>
        <time>2010-09-29T10:34:40Z</time>
      </trkpt>
      <trkpt lat="46.0860350" lon="12.3711770">
        <ele>1354.6300000</ele>
        <time>2010-09-29T10:34:46Z</time>
      </trkpt>
      <trkpt lat="46.0860230" lon="12.3711790">
        <ele>1356.0800000</ele>
        <time>2010-09-29T10:34:48Z</time>
      </trkpt>
      <trkpt lat="46.0859740" lon="12.3712080">
        <ele>1356.0800000</ele>
        <time>2010-09-29T10:34:55Z</time>
      </trkpt>
      <trkpt lat="46.0859420" lon="12.3712170">
        <ele>1357.0400000</ele>
        <time>2010-09-29T10:35:01Z</time>
      </trkpt>
      <trkpt lat="46.0859030" lon="12.3712310">
        <ele>1357.5200000</ele>
        <time>2010-09-29T10:35:06Z</time>
      </trkpt>
      <trkpt lat="46.0858410" lon="12.3712260">
        <ele>1358.9600000</ele>
        <time>2010-09-29T10:35:13Z</time>
      </trkpt>
      <trkpt lat="46.0857910" lon="12.3712360">
        <ele>1359.9200000</ele>
        <time>2010-09-29T10:35:19Z</time>
      </trkpt>
      <trkpt lat="46.0857570" lon="12.3712410">
        <ele>1360.8800000</ele>
        <time>2010-09-29T10:35:26Z</time>
      </trkpt>
      <trkpt lat="46.0857040" lon="12.3712510">
        <ele>1361.3600000</ele>
        <time>2010-09-29T10:35:32Z</time>
      </trkpt>
      <trkpt lat="46.0856580" lon="12.3712630">
        <ele>1362.8100000</ele>
        <time>2010-09-29T10:35:38Z</time>
      </trkpt>
      <trkpt lat="46.0856270" lon="12.3712660">
        <ele>1363.2900000</ele>
        <time>2010-09-29T10:35:43Z</time>
      </trkpt>
      <trkpt lat="46.0855930" lon="12.3712710">
        <ele>1363.7700000</ele>
        <time>2010-09-29T10:35:48Z</time>
      </trkpt>
      <trkpt lat="46.0855570" lon="12.3712720">
        <ele>1364.2500000</ele>
        <time>2010-09-29T10:35:54Z</time>
      </trkpt>
      <trkpt lat="46.0855250" lon="12.3712710">
        <ele>1365.2100000</ele>
        <time>2010-09-29T10:35:59Z</time>
      </trkpt>
      <trkpt lat="46.0855100" lon="12.3712570">
        <ele>1365.6900000</ele>
        <time>2010-09-29T10:36:16Z</time>
      </trkpt>
      <trkpt lat="46.0855150" lon="12.3712530">
        <ele>1365.2100000</ele>
        <time>2010-09-29T10:36:24Z</time>
      </trkpt>
      <trkpt lat="46.0855100" lon="12.3712630">
        <ele>1365.2100000</ele>
        <time>2010-09-29T10:36:32Z</time>
      </trkpt>
      <trkpt lat="46.0855110" lon="12.3712600">
        <ele>1365.6900000</ele>
        <time>2010-09-29T10:36:39Z</time>
      </trkpt>
      <trkpt lat="46.0855110" lon="12.3712600">
        <ele>1370.0200000</ele>
        <time>2010-09-29T10:36:54Z</time>
      </trkpt>
      <trkpt lat="46.0855110" lon="12.3712600">
        <ele>1367.1300000</ele>
        <time>2010-09-29T10:36:55Z</time>
      </trkpt>
      <trkpt lat="46.0855110" lon="12.3712600">
        <ele>1366.1700000</ele>
        <time>2010-09-29T10:36:57Z</time>
      </trkpt>
      <trkpt lat="46.0855110" lon="12.3712600">
        <ele>1365.6900000</ele>
        <time>2010-09-29T10:37:08Z</time>
      </trkpt>
      <trkpt lat="46.0854770" lon="12.3712680">
        <ele>1365.6900000</ele>
        <time>2010-09-29T10:37:14Z</time>
      </trkpt>
      <trkpt lat="46.0854350" lon="12.3712800">
        <ele>1367.1300000</ele>
        <time>2010-09-29T10:37:19Z</time>
      </trkpt>
      <trkpt lat="46.0853930" lon="12.3712790">
        <ele>1368.0900000</ele>
        <time>2010-09-29T10:37:24Z</time>
      </trkpt>
      <trkpt lat="46.0853480" lon="12.3712830">
        <ele>1369.0500000</ele>
        <time>2010-09-29T10:37:30Z</time>
      </trkpt>
      <trkpt lat="46.0853070" lon="12.3712710">
        <ele>1369.5400000</ele>
        <time>2010-09-29T10:37:36Z</time>
      </trkpt>
      <trkpt lat="46.0852620" lon="12.3712690">
        <ele>1370.0200000</ele>
        <time>2010-09-29T10:37:41Z</time>
      </trkpt>
      <trkpt lat="46.0852060" lon="12.3712590">
        <ele>1371.4600000</ele>
        <time>2010-09-29T10:37:48Z</time>
      </trkpt>
      <trkpt lat="46.0851510" lon="12.3712610">
        <ele>1371.4600000</ele>
        <time>2010-09-29T10:37:55Z</time>
      </trkpt>
      <trkpt lat="46.0851070" lon="12.3712680">
        <ele>1372.4200000</ele>
        <time>2010-09-29T10:38:00Z</time>
      </trkpt>
      <trkpt lat="46.0850610" lon="12.3712710">
        <ele>1371.9400000</ele>
        <time>2010-09-29T10:38:05Z</time>
      </trkpt>
      <trkpt lat="46.0850240" lon="12.3712710">
        <ele>1372.4200000</ele>
        <time>2010-09-29T10:38:10Z</time>
      </trkpt>
      <trkpt lat="46.0849690" lon="12.3712580">
        <ele>1372.9000000</ele>
        <time>2010-09-29T10:38:15Z</time>
      </trkpt>
      <trkpt lat="46.0849380" lon="12.3712530">
        <ele>1372.9000000</ele>
        <time>2010-09-29T10:38:19Z</time>
      </trkpt>
      <trkpt lat="46.0848890" lon="12.3712390">
        <ele>1371.4600000</ele>
        <time>2010-09-29T10:38:24Z</time>
      </trkpt>
      <trkpt lat="46.0848180" lon="12.3712210">
        <ele>1371.4600000</ele>
        <time>2010-09-29T10:38:29Z</time>
      </trkpt>
      <trkpt lat="46.0847520" lon="12.3712150">
        <ele>1370.9800000</ele>
        <time>2010-09-29T10:38:35Z</time>
      </trkpt>
      <trkpt lat="46.0847000" lon="12.3712070">
        <ele>1372.4200000</ele>
        <time>2010-09-29T10:38:40Z</time>
      </trkpt>
      <trkpt lat="46.0846520" lon="12.3712090">
        <ele>1371.9400000</ele>
        <time>2010-09-29T10:38:45Z</time>
      </trkpt>
      <trkpt lat="46.0846620" lon="12.3712130">
        <ele>1371.4600000</ele>
        <time>2010-09-29T10:38:48Z</time>
      </trkpt>
      <trkpt lat="46.0847570" lon="12.3712460">
        <ele>1371.9400000</ele>
        <time>2010-09-29T10:38:54Z</time>
      </trkpt>
      <trkpt lat="46.0848420" lon="12.3712800">
        <ele>1371.9400000</ele>
        <time>2010-09-29T10:39:01Z</time>
      </trkpt>
      <trkpt lat="46.0848600" lon="12.3712830">
        <ele>1371.9400000</ele>
        <time>2010-09-29T10:39:05Z</time>
      </trkpt>
      <trkpt lat="46.0849330" lon="12.3712950">
        <ele>1372.4200000</ele>
        <time>2010-09-29T10:39:11Z</time>
      </trkpt>
      <trkpt lat="46.0850220" lon="12.3713340">
        <ele>1372.9000000</ele>
        <time>2010-09-29T10:39:17Z</time>
      </trkpt>
      <trkpt lat="46.0850490" lon="12.3713310">
        <ele>1372.9000000</ele>
        <time>2010-09-29T10:39:20Z</time>
      </trkpt>
      <trkpt lat="46.0850790" lon="12.3713560">
        <ele>1371.9400000</ele>
        <time>2010-09-29T10:39:27Z</time>
      </trkpt>
      <trkpt lat="46.0850750" lon="12.3713520">
        <ele>1371.9400000</ele>
        <time>2010-09-29T10:39:59Z</time>
      </trkpt>
      <trkpt lat="46.0850170" lon="12.3713190">
        <ele>1372.9000000</ele>
        <time>2010-09-29T10:40:05Z</time>
      </trkpt>
      <trkpt lat="46.0849330" lon="12.3712920">
        <ele>1372.9000000</ele>
        <time>2010-09-29T10:40:11Z</time>
      </trkpt>
      <trkpt lat="46.0848640" lon="12.3712800">
        <ele>1371.9400000</ele>
        <time>2010-09-29T10:40:17Z</time>
      </trkpt>
      <trkpt lat="46.0847720" lon="12.3712890">
        <ele>1371.4600000</ele>
        <time>2010-09-29T10:40:22Z</time>
      </trkpt>
      <trkpt lat="46.0847080" lon="12.3712650">
        <ele>1371.9400000</ele>
        <time>2010-09-29T10:40:28Z</time>
      </trkpt>
      <trkpt lat="46.0846540" lon="12.3712380">
        <ele>1370.9800000</ele>
        <time>2010-09-29T10:40:34Z</time>
      </trkpt>
      <trkpt lat="46.0845850" lon="12.3712140">
        <ele>1372.4200000</ele>
        <time>2010-09-29T10:40:40Z</time>
      </trkpt>
      <trkpt lat="46.0845000" lon="12.3711880">
        <ele>1372.4200000</ele>
        <time>2010-09-29T10:40:46Z</time>
      </trkpt>
      <trkpt lat="46.0844550" lon="12.3711790">
        <ele>1372.4200000</ele>
        <time>2010-09-29T10:40:51Z</time>
      </trkpt>
      <trkpt lat="46.0844260" lon="12.3711760">
        <ele>1371.9400000</ele>
        <time>2010-09-29T10:40:57Z</time>
      </trkpt>
      <trkpt lat="46.0843850" lon="12.3711760">
        <ele>1371.9400000</ele>
        <time>2010-09-29T10:41:03Z</time>
      </trkpt>
      <trkpt lat="46.0843380" lon="12.3711780">
        <ele>1372.9000000</ele>
        <time>2010-09-29T10:41:08Z</time>
      </trkpt>
      <trkpt lat="46.0842710" lon="12.3711990">
        <ele>1372.9000000</ele>
        <time>2010-09-29T10:41:14Z</time>
      </trkpt>
      <trkpt lat="46.0842100" lon="12.3712240">
        <ele>1372.9000000</ele>
        <time>2010-09-29T10:41:20Z</time>
      </trkpt>
      <trkpt lat="46.0841740" lon="12.3712490">
        <ele>1373.3800000</ele>
        <time>2010-09-29T10:41:24Z</time>
      </trkpt>
      <trkpt lat="46.0841580" lon="12.3712780">
        <ele>1374.3400000</ele>
        <time>2010-09-29T10:41:32Z</time>
      </trkpt>
      <trkpt lat="46.0841580" lon="12.3712780">
        <ele>1373.8600000</ele>
        <time>2010-09-29T10:41:39Z</time>
      </trkpt>
      <trkpt lat="46.0841110" lon="12.3713000">
        <ele>1374.3400000</ele>
        <time>2010-09-29T10:41:45Z</time>
      </trkpt>
      <trkpt lat="46.0841110" lon="12.3713000">
        <ele>1374.3400000</ele>
        <time>2010-09-29T10:41:48Z</time>
      </trkpt>
      <trkpt lat="46.0840690" lon="12.3712420">
        <ele>1374.8200000</ele>
        <time>2010-09-29T10:41:55Z</time>
      </trkpt>
      <trkpt lat="46.0840410" lon="12.3712160">
        <ele>1374.3400000</ele>
        <time>2010-09-29T10:42:00Z</time>
      </trkpt>
      <trkpt lat="46.0840220" lon="12.3712050">
        <ele>1373.8600000</ele>
        <time>2010-09-29T10:42:03Z</time>
      </trkpt>
      <trkpt lat="46.0840050" lon="12.3711960">
        <ele>1374.3400000</ele>
        <time>2010-09-29T10:42:11Z</time>
      </trkpt>
      <trkpt lat="46.0839770" lon="12.3711780">
        <ele>1374.3400000</ele>
        <time>2010-09-29T10:43:01Z</time>
      </trkpt>
      <trkpt lat="46.0839010" lon="12.3711450">
        <ele>1374.3400000</ele>
        <time>2010-09-29T10:43:07Z</time>
      </trkpt>
      <trkpt lat="46.0838600" lon="12.3711340">
        <ele>1373.8600000</ele>
        <time>2010-09-29T10:43:11Z</time>
      </trkpt>
      <trkpt lat="46.0837860" lon="12.3711040">
        <ele>1373.8600000</ele>
        <time>2010-09-29T10:43:17Z</time>
      </trkpt>
      <trkpt lat="46.0837650" lon="12.3710990">
        <ele>1373.8600000</ele>
        <time>2010-09-29T10:43:20Z</time>
      </trkpt>
      <trkpt lat="46.0836870" lon="12.3710960">
        <ele>1372.4200000</ele>
        <time>2010-09-29T10:43:27Z</time>
      </trkpt>
      <trkpt lat="46.0836410" lon="12.3711010">
        <ele>1372.4200000</ele>
        <time>2010-09-29T10:43:32Z</time>
      </trkpt>
      <trkpt lat="46.0835870" lon="12.3710520">
        <ele>1372.9000000</ele>
        <time>2010-09-29T10:43:38Z</time>
      </trkpt>
      <trkpt lat="46.0835570" lon="12.3710290">
        <ele>1371.4600000</ele>
        <time>2010-09-29T10:43:42Z</time>
      </trkpt>
      <trkpt lat="46.0835020" lon="12.3710130">
        <ele>1370.9800000</ele>
        <time>2010-09-29T10:43:48Z</time>
      </trkpt>
      <trkpt lat="46.0835020" lon="12.3710130">
        <ele>1371.4600000</ele>
        <time>2010-09-29T10:43:52Z</time>
      </trkpt>
      <trkpt lat="46.0834310" lon="12.3710060">
        <ele>1370.9800000</ele>
        <time>2010-09-29T10:43:59Z</time>
      </trkpt>
      <trkpt lat="46.0833520" lon="12.3709870">
        <ele>1370.0200000</ele>
        <time>2010-09-29T10:44:05Z</time>
      </trkpt>
      <trkpt lat="46.0833390" lon="12.3709760">
        <ele>1368.5700000</ele>
        <time>2010-09-29T10:44:08Z</time>
      </trkpt>
      <trkpt lat="46.0833130" lon="12.3709590">
        <ele>1368.0900000</ele>
        <time>2010-09-29T10:44:14Z</time>
      </trkpt>
      <trkpt lat="46.0833130" lon="12.3709550">
        <ele>1368.0900000</ele>
        <time>2010-09-29T10:44:30Z</time>
      </trkpt>
      <trkpt lat="46.0833100" lon="12.3709500">
        <ele>1361.8400000</ele>
        <time>2010-09-29T10:44:31Z</time>
      </trkpt>
      <trkpt lat="46.0833100" lon="12.3709500">
        <ele>1368.5700000</ele>
        <time>2010-09-29T10:44:32Z</time>
      </trkpt>
      <trkpt lat="46.0833100" lon="12.3709500">
        <ele>1364.2500000</ele>
        <time>2010-09-29T10:44:45Z</time>
      </trkpt>
      <trkpt lat="46.0833070" lon="12.3709440">
        <ele>1368.0900000</ele>
        <time>2010-09-29T10:44:46Z</time>
      </trkpt>
      <trkpt lat="46.0832850" lon="12.3709410">
        <ele>1367.6100000</ele>
        <time>2010-09-29T10:44:51Z</time>
      </trkpt>
      <trkpt lat="46.0832830" lon="12.3709470">
        <ele>1367.1300000</ele>
        <time>2010-09-29T10:45:01Z</time>
      </trkpt>
      <trkpt lat="46.0832570" lon="12.3709040">
        <ele>1366.6500000</ele>
        <time>2010-09-29T10:45:17Z</time>
      </trkpt>
      <trkpt lat="46.0832440" lon="12.3708920">
        <ele>1366.6500000</ele>
        <time>2010-09-29T10:45:19Z</time>
      </trkpt>
      <trkpt lat="46.0831680" lon="12.3709150">
        <ele>1364.2500000</ele>
        <time>2010-09-29T10:45:26Z</time>
      </trkpt>
      <trkpt lat="46.0831640" lon="12.3709160">
        <ele>1364.7300000</ele>
        <time>2010-09-29T10:45:27Z</time>
      </trkpt>
      <trkpt lat="46.0830850" lon="12.3709370">
        <ele>1363.7700000</ele>
        <time>2010-09-29T10:45:34Z</time>
      </trkpt>
      <trkpt lat="46.0830560" lon="12.3709430">
        <ele>1363.7700000</ele>
        <time>2010-09-29T10:45:36Z</time>
      </trkpt>
      <trkpt lat="46.0829750" lon="12.3709310">
        <ele>1362.8100000</ele>
        <time>2010-09-29T10:45:40Z</time>
      </trkpt>
      <trkpt lat="46.0829350" lon="12.3709460">
        <ele>1362.8100000</ele>
        <time>2010-09-29T10:45:45Z</time>
      </trkpt>
      <trkpt lat="46.0828480" lon="12.3709220">
        <ele>1361.8400000</ele>
        <time>2010-09-29T10:45:51Z</time>
      </trkpt>
      <trkpt lat="46.0827950" lon="12.3709260">
        <ele>1362.3300000</ele>
        <time>2010-09-29T10:45:56Z</time>
      </trkpt>
      <trkpt lat="46.0827880" lon="12.3709210">
        <ele>1361.8400000</ele>
        <time>2010-09-29T10:45:57Z</time>
      </trkpt>
      <trkpt lat="46.0826640" lon="12.3708860">
        <ele>1360.4000000</ele>
        <time>2010-09-29T10:46:06Z</time>
      </trkpt>
      <trkpt lat="46.0826250" lon="12.3708730">
        <ele>1360.8800000</ele>
        <time>2010-09-29T10:46:11Z</time>
      </trkpt>
      <trkpt lat="46.0825290" lon="12.3708220">
        <ele>1360.8800000</ele>
        <time>2010-09-29T10:46:17Z</time>
      </trkpt>
      <trkpt lat="46.0824630" lon="12.3708060">
        <ele>1360.8800000</ele>
        <time>2010-09-29T10:46:23Z</time>
      </trkpt>
      <trkpt lat="46.0823850" lon="12.3707990">
        <ele>1360.8800000</ele>
        <time>2010-09-29T10:46:30Z</time>
      </trkpt>
      <trkpt lat="46.0822770" lon="12.3707830">
        <ele>1360.8800000</ele>
        <time>2010-09-29T10:46:37Z</time>
      </trkpt>
      <trkpt lat="46.0822440" lon="12.3707790">
        <ele>1361.8400000</ele>
        <time>2010-09-29T10:46:41Z</time>
      </trkpt>
      <trkpt lat="46.0821720" lon="12.3707610">
        <ele>1361.3600000</ele>
        <time>2010-09-29T10:46:46Z</time>
      </trkpt>
      <trkpt lat="46.0820980" lon="12.3707610">
        <ele>1359.9200000</ele>
        <time>2010-09-29T10:46:53Z</time>
      </trkpt>
      <trkpt lat="46.0819850" lon="12.3707560">
        <ele>1360.4000000</ele>
        <time>2010-09-29T10:47:00Z</time>
      </trkpt>
      <trkpt lat="46.0819650" lon="12.3707410">
        <ele>1359.4400000</ele>
        <time>2010-09-29T10:47:03Z</time>
      </trkpt>
      <trkpt lat="46.0818920" lon="12.3707500">
        <ele>1358.9600000</ele>
        <time>2010-09-29T10:47:09Z</time>
      </trkpt>
      <trkpt lat="46.0818260" lon="12.3707250">
        <ele>1358.4800000</ele>
        <time>2010-09-29T10:47:15Z</time>
      </trkpt>
      <trkpt lat="46.0817590" lon="12.3707070">
        <ele>1358.4800000</ele>
        <time>2010-09-29T10:47:20Z</time>
      </trkpt>
      <trkpt lat="46.0817400" lon="12.3707140">
        <ele>1358.0000000</ele>
        <time>2010-09-29T10:47:26Z</time>
      </trkpt>
      <trkpt lat="46.0817090" lon="12.3707120">
        <ele>1357.5200000</ele>
        <time>2010-09-29T10:47:30Z</time>
      </trkpt>
      <trkpt lat="46.0816590" lon="12.3707200">
        <ele>1357.5200000</ele>
        <time>2010-09-29T10:47:34Z</time>
      </trkpt>
      <trkpt lat="46.0816290" lon="12.3707130">
        <ele>1357.5200000</ele>
        <time>2010-09-29T10:47:40Z</time>
      </trkpt>
      <trkpt lat="46.0816200" lon="12.3707000">
        <ele>1357.0400000</ele>
        <time>2010-09-29T10:47:47Z</time>
      </trkpt>
      <trkpt lat="46.0816200" lon="12.3707000">
        <ele>1357.5200000</ele>
        <time>2010-09-29T10:47:52Z</time>
      </trkpt>
      <trkpt lat="46.0815880" lon="12.3706650">
        <ele>1357.5200000</ele>
        <time>2010-09-29T10:47:58Z</time>
      </trkpt>
      <trkpt lat="46.0815880" lon="12.3706650">
        <ele>1357.5200000</ele>
        <time>2010-09-29T10:48:00Z</time>
      </trkpt>
      <trkpt lat="46.0815740" lon="12.3706690">
        <ele>1357.5200000</ele>
        <time>2010-09-29T10:48:08Z</time>
      </trkpt>
      <trkpt lat="46.0815730" lon="12.3706620">
        <ele>1357.5200000</ele>
        <time>2010-09-29T10:48:25Z</time>
      </trkpt>
      <trkpt lat="46.0815590" lon="12.3706680">
        <ele>1357.0400000</ele>
        <time>2010-09-29T10:48:28Z</time>
      </trkpt>
      <trkpt lat="46.0815460" lon="12.3706960">
        <ele>1357.5200000</ele>
        <time>2010-09-29T10:48:36Z</time>
      </trkpt>
      <trkpt lat="46.0815430" lon="12.3707000">
        <ele>1357.5200000</ele>
        <time>2010-09-29T10:48:48Z</time>
      </trkpt>
      <trkpt lat="46.0815430" lon="12.3707000">
        <ele>1358.0000000</ele>
        <time>2010-09-29T10:49:07Z</time>
      </trkpt>
      <trkpt lat="46.0815410" lon="12.3707030">
        <ele>1358.0000000</ele>
        <time>2010-09-29T10:49:13Z</time>
      </trkpt>
      <trkpt lat="46.0814930" lon="12.3706980">
        <ele>1356.5600000</ele>
        <time>2010-09-29T10:49:17Z</time>
      </trkpt>
      <trkpt lat="46.0814520" lon="12.3707120">
        <ele>1356.5600000</ele>
        <time>2010-09-29T10:49:21Z</time>
      </trkpt>
      <trkpt lat="46.0813890" lon="12.3707090">
        <ele>1355.6000000</ele>
        <time>2010-09-29T10:49:27Z</time>
      </trkpt>
      <trkpt lat="46.0813110" lon="12.3707090">
        <ele>1354.6300000</ele>
        <time>2010-09-29T10:49:32Z</time>
      </trkpt>
      <trkpt lat="46.0812930" lon="12.3707080">
        <ele>1354.1500000</ele>
        <time>2010-09-29T10:49:35Z</time>
      </trkpt>
      <trkpt lat="46.0811980" lon="12.3706990">
        <ele>1354.1500000</ele>
        <time>2010-09-29T10:49:42Z</time>
      </trkpt>
      <trkpt lat="46.0811480" lon="12.3706930">
        <ele>1353.6700000</ele>
        <time>2010-09-29T10:49:48Z</time>
      </trkpt>
      <trkpt lat="46.0810500" lon="12.3706880">
        <ele>1351.7500000</ele>
        <time>2010-09-29T10:49:55Z</time>
      </trkpt>
      <trkpt lat="46.0810060" lon="12.3707000">
        <ele>1349.3500000</ele>
        <time>2010-09-29T10:49:57Z</time>
      </trkpt>
      <trkpt lat="46.0809550" lon="12.3707270">
        <ele>1351.2700000</ele>
        <time>2010-09-29T10:50:01Z</time>
      </trkpt>
      <trkpt lat="46.0808780" lon="12.3708040">
        <ele>1350.7900000</ele>
        <time>2010-09-29T10:50:08Z</time>
      </trkpt>
      <trkpt lat="46.0808620" lon="12.3708570">
        <ele>1350.3100000</ele>
        <time>2010-09-29T10:50:14Z</time>
      </trkpt>
      <trkpt lat="46.0808550" lon="12.3708720">
        <ele>1350.3100000</ele>
        <time>2010-09-29T10:50:41Z</time>
      </trkpt>
      <trkpt lat="46.0808290" lon="12.3708890">
        <ele>1350.3100000</ele>
        <time>2010-09-29T10:50:47Z</time>
      </trkpt>
      <trkpt lat="46.0807870" lon="12.3709290">
        <ele>1348.8700000</ele>
        <time>2010-09-29T10:50:57Z</time>
      </trkpt>
      <trkpt lat="46.0807590" lon="12.3709580">
        <ele>1348.3900000</ele>
        <time>2010-09-29T10:51:02Z</time>
      </trkpt>
      <trkpt lat="46.0807080" lon="12.3710140">
        <ele>1346.9400000</ele>
        <time>2010-09-29T10:51:08Z</time>
      </trkpt>
      <trkpt lat="46.0806790" lon="12.3710320">
        <ele>1345.0200000</ele>
        <time>2010-09-29T10:51:10Z</time>
      </trkpt>
      <trkpt lat="46.0806050" lon="12.3710870">
        <ele>1345.0200000</ele>
        <time>2010-09-29T10:51:18Z</time>
      </trkpt>
      <trkpt lat="46.0805830" lon="12.3710990">
        <ele>1343.5800000</ele>
        <time>2010-09-29T10:51:20Z</time>
      </trkpt>
      <trkpt lat="46.0805170" lon="12.3711570">
        <ele>1344.0600000</ele>
        <time>2010-09-29T10:51:28Z</time>
      </trkpt>
      <trkpt lat="46.0804680" lon="12.3712380">
        <ele>1341.6600000</ele>
        <time>2010-09-29T10:51:33Z</time>
      </trkpt>
      <trkpt lat="46.0804500" lon="12.3713100">
        <ele>1342.6200000</ele>
        <time>2010-09-29T10:51:38Z</time>
      </trkpt>
      <trkpt lat="46.0804300" lon="12.3713490">
        <ele>1342.6200000</ele>
        <time>2010-09-29T10:51:42Z</time>
      </trkpt>
      <trkpt lat="46.0803940" lon="12.3713750">
        <ele>1342.6200000</ele>
        <time>2010-09-29T10:51:50Z</time>
      </trkpt>
      <trkpt lat="46.0803460" lon="12.3713790">
        <ele>1342.6200000</ele>
        <time>2010-09-29T10:52:40Z</time>
      </trkpt>
      <trkpt lat="46.0803380" lon="12.3713770">
        <ele>1343.1000000</ele>
        <time>2010-09-29T10:52:41Z</time>
      </trkpt>
      <trkpt lat="46.0802760" lon="12.3713700">
        <ele>1343.1000000</ele>
        <time>2010-09-29T10:52:47Z</time>
      </trkpt>
      <trkpt lat="46.0802680" lon="12.3713610">
        <ele>1343.1000000</ele>
        <time>2010-09-29T10:52:52Z</time>
      </trkpt>
      <trkpt lat="46.0802800" lon="12.3713390">
        <ele>1342.6200000</ele>
        <time>2010-09-29T10:53:05Z</time>
      </trkpt>
      <trkpt lat="46.0802590" lon="12.3713160">
        <ele>1343.1000000</ele>
        <time>2010-09-29T10:53:13Z</time>
      </trkpt>
      <trkpt lat="46.0802140" lon="12.3712800">
        <ele>1343.1000000</ele>
        <time>2010-09-29T10:53:18Z</time>
      </trkpt>
      <trkpt lat="46.0801520" lon="12.3712580">
        <ele>1343.5800000</ele>
        <time>2010-09-29T10:53:23Z</time>
      </trkpt>
      <trkpt lat="46.0801070" lon="12.3712260">
        <ele>1343.5800000</ele>
        <time>2010-09-29T10:53:27Z</time>
      </trkpt>
      <trkpt lat="46.0800520" lon="12.3711870">
        <ele>1345.0200000</ele>
        <time>2010-09-29T10:53:33Z</time>
      </trkpt>
      <trkpt lat="46.0799560" lon="12.3711550">
        <ele>1345.5000000</ele>
        <time>2010-09-29T10:53:41Z</time>
      </trkpt>
      <trkpt lat="46.0799400" lon="12.3711470">
        <ele>1344.5400000</ele>
        <time>2010-09-29T10:53:43Z</time>
      </trkpt>
      <trkpt lat="46.0798820" lon="12.3711700">
        <ele>1345.0200000</ele>
        <time>2010-09-29T10:53:49Z</time>
      </trkpt>
      <trkpt lat="46.0798410" lon="12.3711470">
        <ele>1345.9800000</ele>
        <time>2010-09-29T10:53:55Z</time>
      </trkpt>
      <trkpt lat="46.0798120" lon="12.3711240">
        <ele>1345.9800000</ele>
        <time>2010-09-29T10:53:58Z</time>
      </trkpt>
      <trkpt lat="46.0797710" lon="12.3710880">
        <ele>1345.9800000</ele>
        <time>2010-09-29T10:54:01Z</time>
      </trkpt>
      <trkpt lat="46.0797480" lon="12.3710660">
        <ele>1345.9800000</ele>
        <time>2010-09-29T10:54:07Z</time>
      </trkpt>
      <trkpt lat="46.0797530" lon="12.3710450">
        <ele>1346.4600000</ele>
        <time>2010-09-29T10:54:09Z</time>
      </trkpt>
      <trkpt lat="46.0797220" lon="12.3710270">
        <ele>1346.4600000</ele>
        <time>2010-09-29T10:54:12Z</time>
      </trkpt>
      <trkpt lat="46.0796680" lon="12.3710170">
        <ele>1345.5000000</ele>
        <time>2010-09-29T10:54:17Z</time>
      </trkpt>
      <trkpt lat="46.0796510" lon="12.3710100">
        <ele>1346.9400000</ele>
        <time>2010-09-29T10:54:20Z</time>
      </trkpt>
      <trkpt lat="46.0796090" lon="12.3709740">
        <ele>1346.9400000</ele>
        <time>2010-09-29T10:54:26Z</time>
      </trkpt>
      <trkpt lat="46.0795230" lon="12.3709310">
        <ele>1347.4300000</ele>
        <time>2010-09-29T10:54:35Z</time>
      </trkpt>
      <trkpt lat="46.0794730" lon="12.3709070">
        <ele>1347.4300000</ele>
        <time>2010-09-29T10:54:41Z</time>
      </trkpt>
      <trkpt lat="46.0794510" lon="12.3708640">
        <ele>1347.4300000</ele>
        <time>2010-09-29T10:54:48Z</time>
      </trkpt>
      <trkpt lat="46.0794270" lon="12.3708510">
        <ele>1347.9100000</ele>
        <time>2010-09-29T10:54:57Z</time>
      </trkpt>
      <trkpt lat="46.0793660" lon="12.3708330">
        <ele>1348.3900000</ele>
        <time>2010-09-29T10:55:04Z</time>
      </trkpt>
      <trkpt lat="46.0792890" lon="12.3707760">
        <ele>1348.3900000</ele>
        <time>2010-09-29T10:55:16Z</time>
      </trkpt>
      <trkpt lat="46.0792550" lon="12.3707480">
        <ele>1348.8700000</ele>
        <time>2010-09-29T10:55:21Z</time>
      </trkpt>
      <trkpt lat="46.0791920" lon="12.3706980">
        <ele>1348.8700000</ele>
        <time>2010-09-29T10:55:26Z</time>
      </trkpt>
      <trkpt lat="46.0791770" lon="12.3707010">
        <ele>1349.3500000</ele>
        <time>2010-09-29T10:55:28Z</time>
      </trkpt>
      <trkpt lat="46.0791020" lon="12.3706990">
        <ele>1349.3500000</ele>
        <time>2010-09-29T10:55:36Z</time>
      </trkpt>
      <trkpt lat="46.0791000" lon="12.3707000">
        <ele>1350.3100000</ele>
        <time>2010-09-29T10:55:42Z</time>
      </trkpt>
      <trkpt lat="46.0790920" lon="12.3706950">
        <ele>1350.7900000</ele>
        <time>2010-09-29T10:55:45Z</time>
      </trkpt>
      <trkpt lat="46.0790350" lon="12.3706610">
        <ele>1351.2700000</ele>
        <time>2010-09-29T10:55:50Z</time>
      </trkpt>
      <trkpt lat="46.0789990" lon="12.3706320">
        <ele>1351.2700000</ele>
        <time>2010-09-29T10:55:54Z</time>
      </trkpt>
      <trkpt lat="46.0789430" lon="12.3706140">
        <ele>1352.2300000</ele>
        <time>2010-09-29T10:56:01Z</time>
      </trkpt>
      <trkpt lat="46.0788910" lon="12.3706030">
        <ele>1352.2300000</ele>
        <time>2010-09-29T10:56:07Z</time>
      </trkpt>
      <trkpt lat="46.0788340" lon="12.3705940">
        <ele>1352.2300000</ele>
        <time>2010-09-29T10:56:12Z</time>
      </trkpt>
      <trkpt lat="46.0788040" lon="12.3705860">
        <ele>1352.2300000</ele>
        <time>2010-09-29T10:56:18Z</time>
      </trkpt>
      <trkpt lat="46.0787300" lon="12.3705660">
        <ele>1352.2300000</ele>
        <time>2010-09-29T10:56:24Z</time>
      </trkpt>
      <trkpt lat="46.0786840" lon="12.3705450">
        <ele>1352.2300000</ele>
        <time>2010-09-29T10:56:28Z</time>
      </trkpt>
      <trkpt lat="46.0786420" lon="12.3705360">
        <ele>1352.2300000</ele>
        <time>2010-09-29T10:56:33Z</time>
      </trkpt>
      <trkpt lat="46.0786070" lon="12.3705300">
        <ele>1353.1900000</ele>
        <time>2010-09-29T10:56:38Z</time>
      </trkpt>
      <trkpt lat="46.0785590" lon="12.3705250">
        <ele>1353.1900000</ele>
        <time>2010-09-29T10:56:45Z</time>
      </trkpt>
      <trkpt lat="46.0785070" lon="12.3705020">
        <ele>1353.1900000</ele>
        <time>2010-09-29T10:56:50Z</time>
      </trkpt>
      <trkpt lat="46.0784380" lon="12.3704820">
        <ele>1354.1500000</ele>
        <time>2010-09-29T10:56:57Z</time>
      </trkpt>
      <trkpt lat="46.0783940" lon="12.3704740">
        <ele>1354.1500000</ele>
        <time>2010-09-29T10:57:03Z</time>
      </trkpt>
      <trkpt lat="46.0783740" lon="12.3704510">
        <ele>1355.1200000</ele>
        <time>2010-09-29T10:57:08Z</time>
      </trkpt>
      <trkpt lat="46.0783120" lon="12.3704370">
        <ele>1355.1200000</ele>
        <time>2010-09-29T10:57:13Z</time>
      </trkpt>
      <trkpt lat="46.0782460" lon="12.3703720">
        <ele>1354.6300000</ele>
        <time>2010-09-29T10:57:19Z</time>
      </trkpt>
      <trkpt lat="46.0782080" lon="12.3703680">
        <ele>1355.1200000</ele>
        <time>2010-09-29T10:57:25Z</time>
      </trkpt>
      <trkpt lat="46.0781960" lon="12.3703650">
        <ele>1354.6300000</ele>
        <time>2010-09-29T10:57:27Z</time>
      </trkpt>
      <trkpt lat="46.0781240" lon="12.3703390">
        <ele>1355.6000000</ele>
        <time>2010-09-29T10:57:35Z</time>
      </trkpt>
      <trkpt lat="46.0780620" lon="12.3703140">
        <ele>1355.6000000</ele>
        <time>2010-09-29T10:57:40Z</time>
      </trkpt>
      <trkpt lat="46.0780350" lon="12.3703080">
        <ele>1356.5600000</ele>
        <time>2010-09-29T10:57:42Z</time>
      </trkpt>
      <trkpt lat="46.0779770" lon="12.3702830">
        <ele>1357.0400000</ele>
        <time>2010-09-29T10:57:48Z</time>
      </trkpt>
      <trkpt lat="46.0779070" lon="12.3702560">
        <ele>1356.0800000</ele>
        <time>2010-09-29T10:57:54Z</time>
      </trkpt>
      <trkpt lat="46.0778480" lon="12.3702300">
        <ele>1356.5600000</ele>
        <time>2010-09-29T10:58:01Z</time>
      </trkpt>
      <trkpt lat="46.0777970" lon="12.3702280">
        <ele>1357.5200000</ele>
        <time>2010-09-29T10:58:08Z</time>
      </trkpt>
      <trkpt lat="46.0777110" lon="12.3702010">
        <ele>1357.0400000</ele>
        <time>2010-09-29T10:58:16Z</time>
      </trkpt>
      <trkpt lat="46.0776510" lon="12.3701880">
        <ele>1357.5200000</ele>
        <time>2010-09-29T10:58:22Z</time>
      </trkpt>
      <trkpt lat="46.0775670" lon="12.3701490">
        <ele>1356.0800000</ele>
        <time>2010-09-29T10:58:29Z</time>
      </trkpt>
      <trkpt lat="46.0775220" lon="12.3701370">
        <ele>1357.0400000</ele>
        <time>2010-09-29T10:58:35Z</time>
      </trkpt>
      <trkpt lat="46.0774480" lon="12.3701290">
        <ele>1357.0400000</ele>
        <time>2010-09-29T10:58:42Z</time>
      </trkpt>
      <trkpt lat="46.0773960" lon="12.3701360">
        <ele>1357.0400000</ele>
        <time>2010-09-29T10:58:48Z</time>
      </trkpt>
      <trkpt lat="46.0773590" lon="12.3701450">
        <ele>1357.5200000</ele>
        <time>2010-09-29T10:58:52Z</time>
      </trkpt>
      <trkpt lat="46.0773370" lon="12.3701760">
        <ele>1357.0400000</ele>
        <time>2010-09-29T10:58:55Z</time>
      </trkpt>
      <trkpt lat="46.0773110" lon="12.3702170">
        <ele>1356.5600000</ele>
        <time>2010-09-29T10:58:59Z</time>
      </trkpt>
      <trkpt lat="46.0772080" lon="12.3702280">
        <ele>1357.0400000</ele>
        <time>2010-09-29T10:59:07Z</time>
      </trkpt>
      <trkpt lat="46.0771640" lon="12.3702310">
        <ele>1357.5200000</ele>
        <time>2010-09-29T10:59:11Z</time>
      </trkpt>
      <trkpt lat="46.0770810" lon="12.3702300">
        <ele>1357.0400000</ele>
        <time>2010-09-29T10:59:17Z</time>
      </trkpt>
      <trkpt lat="46.0770220" lon="12.3702140">
        <ele>1357.0400000</ele>
        <time>2010-09-29T10:59:21Z</time>
      </trkpt>
      <trkpt lat="46.0769470" lon="12.3701960">
        <ele>1357.0400000</ele>
        <time>2010-09-29T10:59:27Z</time>
      </trkpt>
      <trkpt lat="46.0768670" lon="12.3701680">
        <ele>1358.0000000</ele>
        <time>2010-09-29T10:59:34Z</time>
      </trkpt>
      <trkpt lat="46.0767870" lon="12.3701490">
        <ele>1357.5200000</ele>
        <time>2010-09-29T10:59:40Z</time>
      </trkpt>
      <trkpt lat="46.0767060" lon="12.3701070">
        <ele>1358.4800000</ele>
        <time>2010-09-29T10:59:48Z</time>
      </trkpt>
      <trkpt lat="46.0766340" lon="12.3700720">
        <ele>1358.4800000</ele>
        <time>2010-09-29T10:59:54Z</time>
      </trkpt>
      <trkpt lat="46.0766150" lon="12.3700530">
        <ele>1358.9600000</ele>
        <time>2010-09-29T10:59:56Z</time>
      </trkpt>
      <trkpt lat="46.0765910" lon="12.3700310">
        <ele>1358.9600000</ele>
        <time>2010-09-29T10:59:59Z</time>
      </trkpt>
      <trkpt lat="46.0765570" lon="12.3699890">
        <ele>1358.9600000</ele>
        <time>2010-09-29T11:00:03Z</time>
      </trkpt>
      <trkpt lat="46.0764670" lon="12.3699270">
        <ele>1359.9200000</ele>
        <time>2010-09-29T11:00:12Z</time>
      </trkpt>
      <trkpt lat="46.0764390" lon="12.3699210">
        <ele>1359.9200000</ele>
        <time>2010-09-29T11:00:15Z</time>
      </trkpt>
      <trkpt lat="46.0763700" lon="12.3698760">
        <ele>1359.4400000</ele>
        <time>2010-09-29T11:00:22Z</time>
      </trkpt>
      <trkpt lat="46.0763280" lon="12.3698690">
        <ele>1359.4400000</ele>
        <time>2010-09-29T11:00:28Z</time>
      </trkpt>
      <trkpt lat="46.0762430" lon="12.3698130">
        <ele>1359.9200000</ele>
        <time>2010-09-29T11:00:36Z</time>
      </trkpt>
      <trkpt lat="46.0761800" lon="12.3697600">
        <ele>1359.9200000</ele>
        <time>2010-09-29T11:00:43Z</time>
      </trkpt>
      <trkpt lat="46.0761190" lon="12.3697120">
        <ele>1360.4000000</ele>
        <time>2010-09-29T11:00:49Z</time>
      </trkpt>
      <trkpt lat="46.0760960" lon="12.3696740">
        <ele>1360.4000000</ele>
        <time>2010-09-29T11:00:53Z</time>
      </trkpt>
      <trkpt lat="46.0760260" lon="12.3695970">
        <ele>1360.8800000</ele>
        <time>2010-09-29T11:01:00Z</time>
      </trkpt>
      <trkpt lat="46.0760090" lon="12.3695780">
        <ele>1360.4000000</ele>
        <time>2010-09-29T11:01:02Z</time>
      </trkpt>
      <trkpt lat="46.0759630" lon="12.3695170">
        <ele>1361.3600000</ele>
        <time>2010-09-29T11:01:08Z</time>
      </trkpt>
      <trkpt lat="46.0759520" lon="12.3695030">
        <ele>1360.8800000</ele>
        <time>2010-09-29T11:01:09Z</time>
      </trkpt>
      <trkpt lat="46.0759270" lon="12.3694680">
        <ele>1361.3600000</ele>
        <time>2010-09-29T11:01:16Z</time>
      </trkpt>
      <trkpt lat="46.0759270" lon="12.3694680">
        <ele>1361.3600000</ele>
        <time>2010-09-29T11:01:21Z</time>
      </trkpt>
      <trkpt lat="46.0758850" lon="12.3695250">
        <ele>1361.8400000</ele>
        <time>2010-09-29T11:01:27Z</time>
      </trkpt>
      <trkpt lat="46.0758190" lon="12.3696250">
        <ele>1361.8400000</ele>
        <time>2010-09-29T11:01:33Z</time>
      </trkpt>
      <trkpt lat="46.0757560" lon="12.3696820">
        <ele>1361.8400000</ele>
        <time>2010-09-29T11:01:39Z</time>
      </trkpt>
      <trkpt lat="46.0757070" lon="12.3697100">
        <ele>1361.3600000</ele>
        <time>2010-09-29T11:01:47Z</time>
      </trkpt>
      <trkpt lat="46.0756650" lon="12.3697250">
        <ele>1361.8400000</ele>
        <time>2010-09-29T11:01:53Z</time>
      </trkpt>
      <trkpt lat="46.0755960" lon="12.3697410">
        <ele>1361.8400000</ele>
        <time>2010-09-29T11:01:58Z</time>
      </trkpt>
      <trkpt lat="46.0754990" lon="12.3697340">
        <ele>1361.8400000</ele>
        <time>2010-09-29T11:02:05Z</time>
      </trkpt>
      <trkpt lat="46.0754660" lon="12.3697180">
        <ele>1361.8400000</ele>
        <time>2010-09-29T11:02:09Z</time>
      </trkpt>
      <trkpt lat="46.0754070" lon="12.3696890">
        <ele>1361.3600000</ele>
        <time>2010-09-29T11:02:14Z</time>
      </trkpt>
      <trkpt lat="46.0753400" lon="12.3696250">
        <ele>1361.3600000</ele>
        <time>2010-09-29T11:02:25Z</time>
      </trkpt>
      <trkpt lat="46.0752500" lon="12.3695550">
        <ele>1362.8100000</ele>
        <time>2010-09-29T11:02:33Z</time>
      </trkpt>
      <trkpt lat="46.0752080" lon="12.3695410">
        <ele>1362.8100000</ele>
        <time>2010-09-29T11:02:46Z</time>
      </trkpt>
      <trkpt lat="46.0751960" lon="12.3695160">
        <ele>1362.3300000</ele>
        <time>2010-09-29T11:02:57Z</time>
      </trkpt>
      <trkpt lat="46.0751380" lon="12.3695110">
        <ele>1364.2500000</ele>
        <time>2010-09-29T11:04:09Z</time>
      </trkpt>
      <trkpt lat="46.0750200" lon="12.3695330">
        <ele>1364.7300000</ele>
        <time>2010-09-29T11:04:24Z</time>
      </trkpt>
      <trkpt lat="46.0748780" lon="12.3694940">
        <ele>1365.2100000</ele>
        <time>2010-09-29T11:04:43Z</time>
      </trkpt>
      <trkpt lat="46.0747780" lon="12.3694720">
        <ele>1365.2100000</ele>
        <time>2010-09-29T11:04:50Z</time>
      </trkpt>
      <trkpt lat="46.0746840" lon="12.3694460">
        <ele>1365.2100000</ele>
        <time>2010-09-29T11:04:59Z</time>
      </trkpt>
      <trkpt lat="46.0746440" lon="12.3694680">
        <ele>1364.2500000</ele>
        <time>2010-09-29T11:05:05Z</time>
      </trkpt>
      <trkpt lat="46.0745850" lon="12.3694760">
        <ele>1366.1700000</ele>
        <time>2010-09-29T11:05:10Z</time>
      </trkpt>
      <trkpt lat="46.0743650" lon="12.3694280">
        <ele>1365.6900000</ele>
        <time>2010-09-29T11:05:32Z</time>
      </trkpt>
      <trkpt lat="46.0743380" lon="12.3694600">
        <ele>1367.1300000</ele>
        <time>2010-09-29T11:05:40Z</time>
      </trkpt>
      <trkpt lat="46.0743390" lon="12.3694670">
        <ele>1366.6500000</ele>
        <time>2010-09-29T11:05:43Z</time>
      </trkpt>
      <trkpt lat="46.0742550" lon="12.3694460">
        <ele>1367.6100000</ele>
        <time>2010-09-29T11:05:50Z</time>
      </trkpt>
      <trkpt lat="46.0741880" lon="12.3694040">
        <ele>1367.6100000</ele>
        <time>2010-09-29T11:05:57Z</time>
      </trkpt>
      <trkpt lat="46.0741510" lon="12.3693940">
        <ele>1368.0900000</ele>
        <time>2010-09-29T11:06:03Z</time>
      </trkpt>
      <trkpt lat="46.0741120" lon="12.3694230">
        <ele>1367.6100000</ele>
        <time>2010-09-29T11:06:08Z</time>
      </trkpt>
      <trkpt lat="46.0740610" lon="12.3694080">
        <ele>1368.5700000</ele>
        <time>2010-09-29T11:06:15Z</time>
      </trkpt>
      <trkpt lat="46.0740320" lon="12.3693850">
        <ele>1369.0500000</ele>
        <time>2010-09-29T11:06:22Z</time>
      </trkpt>
      <trkpt lat="46.0740300" lon="12.3693550">
        <ele>1369.5400000</ele>
        <time>2010-09-29T11:06:30Z</time>
      </trkpt>
      <trkpt lat="46.0739600" lon="12.3692850">
        <ele>1369.5400000</ele>
        <time>2010-09-29T11:06:37Z</time>
      </trkpt>
      <trkpt lat="46.0738510" lon="12.3692290">
        <ele>1369.5400000</ele>
        <time>2010-09-29T11:06:45Z</time>
      </trkpt>
      <trkpt lat="46.0736460" lon="12.3691160">
        <ele>1369.0500000</ele>
        <time>2010-09-29T11:07:04Z</time>
      </trkpt>
      <trkpt lat="46.0735130" lon="12.3690650">
        <ele>1368.5700000</ele>
        <time>2010-09-29T11:07:11Z</time>
      </trkpt>
      <trkpt lat="46.0734830" lon="12.3690720">
        <ele>1367.6100000</ele>
        <time>2010-09-29T11:07:20Z</time>
      </trkpt>
      <trkpt lat="46.0733590" lon="12.3689850">
        <ele>1367.6100000</ele>
        <time>2010-09-29T11:07:29Z</time>
      </trkpt>
      <trkpt lat="46.0732670" lon="12.3689320">
        <ele>1367.6100000</ele>
        <time>2010-09-29T11:07:36Z</time>
      </trkpt>
      <trkpt lat="46.0731720" lon="12.3688740">
        <ele>1367.6100000</ele>
        <time>2010-09-29T11:07:44Z</time>
      </trkpt>
      <trkpt lat="46.0731060" lon="12.3688680">
        <ele>1367.1300000</ele>
        <time>2010-09-29T11:07:50Z</time>
      </trkpt>
      <trkpt lat="46.0730910" lon="12.3688640">
        <ele>1367.1300000</ele>
        <time>2010-09-29T11:07:51Z</time>
      </trkpt>
      <trkpt lat="46.0730150" lon="12.3688820">
        <ele>1367.1300000</ele>
        <time>2010-09-29T11:08:00Z</time>
      </trkpt>
      <trkpt lat="46.0729500" lon="12.3688710">
        <ele>1366.6500000</ele>
        <time>2010-09-29T11:08:10Z</time>
      </trkpt>
      <trkpt lat="46.0728550" lon="12.3688620">
        <ele>1366.6500000</ele>
        <time>2010-09-29T11:08:20Z</time>
      </trkpt>
      <trkpt lat="46.0728230" lon="12.3688430">
        <ele>1367.1300000</ele>
        <time>2010-09-29T11:08:29Z</time>
      </trkpt>
      <trkpt lat="46.0727440" lon="12.3688210">
        <ele>1367.1300000</ele>
        <time>2010-09-29T11:08:37Z</time>
      </trkpt>
      <trkpt lat="46.0726700" lon="12.3688360">
        <ele>1367.6100000</ele>
        <time>2010-09-29T11:08:44Z</time>
      </trkpt>
      <trkpt lat="46.0725310" lon="12.3688390">
        <ele>1368.0900000</ele>
        <time>2010-09-29T11:09:03Z</time>
      </trkpt>
      <trkpt lat="46.0723400" lon="12.3687540">
        <ele>1369.0500000</ele>
        <time>2010-09-29T11:09:18Z</time>
      </trkpt>
      <trkpt lat="46.0722030" lon="12.3687520">
        <ele>1369.5400000</ele>
        <time>2010-09-29T11:09:29Z</time>
      </trkpt>
      <trkpt lat="46.0720120" lon="12.3687230">
        <ele>1370.5000000</ele>
        <time>2010-09-29T11:09:55Z</time>
      </trkpt>
      <trkpt lat="46.0719440" lon="12.3686700">
        <ele>1371.9400000</ele>
        <time>2010-09-29T11:10:01Z</time>
      </trkpt>
      <trkpt lat="46.0719230" lon="12.3686550">
        <ele>1370.9800000</ele>
        <time>2010-09-29T11:10:04Z</time>
      </trkpt>
      <trkpt lat="46.0718340" lon="12.3686350">
        <ele>1372.4200000</ele>
        <time>2010-09-29T11:10:11Z</time>
      </trkpt>
      <trkpt lat="46.0717930" lon="12.3686360">
        <ele>1372.4200000</ele>
        <time>2010-09-29T11:10:16Z</time>
      </trkpt>
      <trkpt lat="46.0717750" lon="12.3686330">
        <ele>1372.4200000</ele>
        <time>2010-09-29T11:10:18Z</time>
      </trkpt>
      <trkpt lat="46.0717090" lon="12.3686400">
        <ele>1373.3800000</ele>
        <time>2010-09-29T11:10:26Z</time>
      </trkpt>
      <trkpt lat="46.0716650" lon="12.3686360">
        <ele>1373.8600000</ele>
        <time>2010-09-29T11:10:36Z</time>
      </trkpt>
      <trkpt lat="46.0715730" lon="12.3686230">
        <ele>1374.3400000</ele>
        <time>2010-09-29T11:10:46Z</time>
      </trkpt>
      <trkpt lat="46.0714550" lon="12.3685650">
        <ele>1374.8200000</ele>
        <time>2010-09-29T11:10:56Z</time>
      </trkpt>
      <trkpt lat="46.0713590" lon="12.3685130">
        <ele>1374.8200000</ele>
        <time>2010-09-29T11:11:10Z</time>
      </trkpt>
      <trkpt lat="46.0713030" lon="12.3685180">
        <ele>1376.2600000</ele>
        <time>2010-09-29T11:11:20Z</time>
      </trkpt>
      <trkpt lat="46.0712380" lon="12.3684350">
        <ele>1375.7800000</ele>
        <time>2010-09-29T11:11:33Z</time>
      </trkpt>
      <trkpt lat="46.0711930" lon="12.3683840">
        <ele>1376.2600000</ele>
        <time>2010-09-29T11:11:47Z</time>
      </trkpt>
      <trkpt lat="46.0711180" lon="12.3683540">
        <ele>1375.7800000</ele>
        <time>2010-09-29T11:11:53Z</time>
      </trkpt>
      <trkpt lat="46.0710090" lon="12.3683120">
        <ele>1377.2300000</ele>
        <time>2010-09-29T11:11:59Z</time>
      </trkpt>
      <trkpt lat="46.0709130" lon="12.3682550">
        <ele>1378.1900000</ele>
        <time>2010-09-29T11:12:13Z</time>
      </trkpt>
      <trkpt lat="46.0708020" lon="12.3682040">
        <ele>1378.1900000</ele>
        <time>2010-09-29T11:12:20Z</time>
      </trkpt>
      <trkpt lat="46.0707270" lon="12.3681710">
        <ele>1378.6700000</ele>
        <time>2010-09-29T11:12:25Z</time>
      </trkpt>
      <trkpt lat="46.0706440" lon="12.3681860">
        <ele>1379.6300000</ele>
        <time>2010-09-29T11:12:33Z</time>
      </trkpt>
      <trkpt lat="46.0705910" lon="12.3681830">
        <ele>1380.1100000</ele>
        <time>2010-09-29T11:12:38Z</time>
      </trkpt>
      <trkpt lat="46.0705270" lon="12.3681520">
        <ele>1380.1100000</ele>
        <time>2010-09-29T11:12:45Z</time>
      </trkpt>
      <trkpt lat="46.0704830" lon="12.3681880">
        <ele>1380.5900000</ele>
        <time>2010-09-29T11:12:52Z</time>
      </trkpt>
      <trkpt lat="46.0704360" lon="12.3681600">
        <ele>1381.5500000</ele>
        <time>2010-09-29T11:13:00Z</time>
      </trkpt>
      <trkpt lat="46.0703810" lon="12.3681690">
        <ele>1381.5500000</ele>
        <time>2010-09-29T11:13:09Z</time>
      </trkpt>
      <trkpt lat="46.0703410" lon="12.3681660">
        <ele>1382.5100000</ele>
        <time>2010-09-29T11:13:17Z</time>
      </trkpt>
      <trkpt lat="46.0702880" lon="12.3681760">
        <ele>1382.0300000</ele>
        <time>2010-09-29T11:13:23Z</time>
      </trkpt>
      <trkpt lat="46.0701800" lon="12.3681460">
        <ele>1383.9600000</ele>
        <time>2010-09-29T11:13:31Z</time>
      </trkpt>
      <trkpt lat="46.0700640" lon="12.3681490">
        <ele>1383.9600000</ele>
        <time>2010-09-29T11:13:42Z</time>
      </trkpt>
      <trkpt lat="46.0700030" lon="12.3680840">
        <ele>1385.4000000</ele>
        <time>2010-09-29T11:14:04Z</time>
      </trkpt>
      <trkpt lat="46.0699630" lon="12.3680600">
        <ele>1386.3600000</ele>
        <time>2010-09-29T11:14:10Z</time>
      </trkpt>
      <trkpt lat="46.0699500" lon="12.3680520">
        <ele>1385.8800000</ele>
        <time>2010-09-29T11:14:19Z</time>
      </trkpt>
      <trkpt lat="46.0698670" lon="12.3680280">
        <ele>1387.3200000</ele>
        <time>2010-09-29T11:14:32Z</time>
      </trkpt>
      <trkpt lat="46.0696970" lon="12.3679670">
        <ele>1388.2800000</ele>
        <time>2010-09-29T11:14:42Z</time>
      </trkpt>
      <trkpt lat="46.0695700" lon="12.3679500">
        <ele>1388.2800000</ele>
        <time>2010-09-29T11:14:51Z</time>
      </trkpt>
      <trkpt lat="46.0694510" lon="12.3679520">
        <ele>1388.7600000</ele>
        <time>2010-09-29T11:15:00Z</time>
      </trkpt>
      <trkpt lat="46.0693760" lon="12.3679190">
        <ele>1390.2000000</ele>
        <time>2010-09-29T11:15:08Z</time>
      </trkpt>
      <trkpt lat="46.0692960" lon="12.3679310">
        <ele>1388.7600000</ele>
        <time>2010-09-29T11:15:14Z</time>
      </trkpt>
      <trkpt lat="46.0691920" lon="12.3679260">
        <ele>1389.7200000</ele>
        <time>2010-09-29T11:15:22Z</time>
      </trkpt>
      <trkpt lat="46.0691420" lon="12.3678950">
        <ele>1390.2000000</ele>
        <time>2010-09-29T11:15:29Z</time>
      </trkpt>
      <trkpt lat="46.0691010" lon="12.3678760">
        <ele>1389.7200000</ele>
        <time>2010-09-29T11:15:34Z</time>
      </trkpt>
      <trkpt lat="46.0690900" lon="12.3678340">
        <ele>1391.1700000</ele>
        <time>2010-09-29T11:15:40Z</time>
      </trkpt>
      <trkpt lat="46.0690510" lon="12.3678190">
        <ele>1390.6800000</ele>
        <time>2010-09-29T11:15:44Z</time>
      </trkpt>
      <trkpt lat="46.0690190" lon="12.3677530">
        <ele>1391.6500000</ele>
        <time>2010-09-29T11:15:49Z</time>
      </trkpt>
      <trkpt lat="46.0689600" lon="12.3677020">
        <ele>1391.1700000</ele>
        <time>2010-09-29T11:15:55Z</time>
      </trkpt>
      <trkpt lat="46.0689350" lon="12.3676830">
        <ele>1392.1300000</ele>
        <time>2010-09-29T11:16:09Z</time>
      </trkpt>
      <trkpt lat="46.0688340" lon="12.3676000">
        <ele>1392.6100000</ele>
        <time>2010-09-29T11:16:28Z</time>
      </trkpt>
      <trkpt lat="46.0688040" lon="12.3675760">
        <ele>1392.6100000</ele>
        <time>2010-09-29T11:16:42Z</time>
      </trkpt>
      <trkpt lat="46.0687480" lon="12.3675710">
        <ele>1393.0900000</ele>
        <time>2010-09-29T11:16:47Z</time>
      </trkpt>
      <trkpt lat="46.0687060" lon="12.3675220">
        <ele>1395.0100000</ele>
        <time>2010-09-29T11:17:56Z</time>
      </trkpt>
      <trkpt lat="46.0686660" lon="12.3675170">
        <ele>1395.0100000</ele>
        <time>2010-09-29T11:18:01Z</time>
      </trkpt>
      <trkpt lat="46.0686360" lon="12.3674810">
        <ele>1395.4900000</ele>
        <time>2010-09-29T11:18:06Z</time>
      </trkpt>
      <trkpt lat="46.0685380" lon="12.3674280">
        <ele>1395.9700000</ele>
        <time>2010-09-29T11:18:13Z</time>
      </trkpt>
      <trkpt lat="46.0684560" lon="12.3673990">
        <ele>1395.9700000</ele>
        <time>2010-09-29T11:18:19Z</time>
      </trkpt>
      <trkpt lat="46.0683580" lon="12.3673110">
        <ele>1396.4500000</ele>
        <time>2010-09-29T11:18:26Z</time>
      </trkpt>
      <trkpt lat="46.0683110" lon="12.3672940">
        <ele>1395.9700000</ele>
        <time>2010-09-29T11:18:31Z</time>
      </trkpt>
      <trkpt lat="46.0682800" lon="12.3672640">
        <ele>1395.9700000</ele>
        <time>2010-09-29T11:18:39Z</time>
      </trkpt>
      <trkpt lat="46.0682320" lon="12.3672520">
        <ele>1396.4500000</ele>
        <time>2010-09-29T11:18:44Z</time>
      </trkpt>
      <trkpt lat="46.0680540" lon="12.3672780">
        <ele>1396.4500000</ele>
        <time>2010-09-29T11:19:01Z</time>
      </trkpt>
      <trkpt lat="46.0679610" lon="12.3672330">
        <ele>1396.9300000</ele>
        <time>2010-09-29T11:19:12Z</time>
      </trkpt>
      <trkpt lat="46.0679400" lon="12.3672370">
        <ele>1396.9300000</ele>
        <time>2010-09-29T11:19:16Z</time>
      </trkpt>
      <trkpt lat="46.0678720" lon="12.3673030">
        <ele>1396.9300000</ele>
        <time>2010-09-29T11:19:24Z</time>
      </trkpt>
      <trkpt lat="46.0678300" lon="12.3673470">
        <ele>1397.8900000</ele>
        <time>2010-09-29T11:19:52Z</time>
      </trkpt>
      <trkpt lat="46.0677690" lon="12.3673090">
        <ele>1397.4100000</ele>
        <time>2010-09-29T11:19:57Z</time>
      </trkpt>
      <trkpt lat="46.0676910" lon="12.3672730">
        <ele>1397.8900000</ele>
        <time>2010-09-29T11:20:03Z</time>
      </trkpt>
      <trkpt lat="46.0676160" lon="12.3672420">
        <ele>1398.8600000</ele>
        <time>2010-09-29T11:20:16Z</time>
      </trkpt>
      <trkpt lat="46.0675670" lon="12.3672370">
        <ele>1398.8600000</ele>
        <time>2010-09-29T11:20:19Z</time>
      </trkpt>
      <trkpt lat="46.0675270" lon="12.3672290">
        <ele>1398.3700000</ele>
        <time>2010-09-29T11:20:27Z</time>
      </trkpt>
      <trkpt lat="46.0674010" lon="12.3672420">
        <ele>1399.8200000</ele>
        <time>2010-09-29T11:20:44Z</time>
      </trkpt>
      <trkpt lat="46.0673580" lon="12.3672600">
        <ele>1400.7800000</ele>
        <time>2010-09-29T11:20:53Z</time>
      </trkpt>
      <trkpt lat="46.0673030" lon="12.3672660">
        <ele>1401.7400000</ele>
        <time>2010-09-29T11:21:00Z</time>
      </trkpt>
      <trkpt lat="46.0671960" lon="12.3672190">
        <ele>1402.2200000</ele>
        <time>2010-09-29T11:21:10Z</time>
      </trkpt>
      <trkpt lat="46.0671150" lon="12.3672270">
        <ele>1403.1800000</ele>
        <time>2010-09-29T11:21:19Z</time>
      </trkpt>
      <trkpt lat="46.0670640" lon="12.3672440">
        <ele>1403.1800000</ele>
        <time>2010-09-29T11:21:26Z</time>
      </trkpt>
      <trkpt lat="46.0670250" lon="12.3672240">
        <ele>1403.1800000</ele>
        <time>2010-09-29T11:21:34Z</time>
      </trkpt>
      <trkpt lat="46.0669990" lon="12.3671880">
        <ele>1405.1000000</ele>
        <time>2010-09-29T11:21:51Z</time>
      </trkpt>
      <trkpt lat="46.0669770" lon="12.3671650">
        <ele>1405.1000000</ele>
        <time>2010-09-29T11:22:53Z</time>
      </trkpt>
      <trkpt lat="46.0668770" lon="12.3671230">
        <ele>1406.5500000</ele>
        <time>2010-09-29T11:23:00Z</time>
      </trkpt>
      <trkpt lat="46.0667920" lon="12.3670330">
        <ele>1407.5100000</ele>
        <time>2010-09-29T11:23:07Z</time>
      </trkpt>
      <trkpt lat="46.0667310" lon="12.3669080">
        <ele>1407.9900000</ele>
        <time>2010-09-29T11:23:14Z</time>
      </trkpt>
      <trkpt lat="46.0667020" lon="12.3668700">
        <ele>1408.9500000</ele>
        <time>2010-09-29T11:23:23Z</time>
      </trkpt>
      <trkpt lat="46.0667020" lon="12.3668510">
        <ele>1410.8700000</ele>
        <time>2010-09-29T11:23:41Z</time>
      </trkpt>
      <trkpt lat="46.0666580" lon="12.3668120">
        <ele>1411.8300000</ele>
        <time>2010-09-29T11:23:51Z</time>
      </trkpt>
      <trkpt lat="46.0665420" lon="12.3667410">
        <ele>1412.7900000</ele>
        <time>2010-09-29T11:23:57Z</time>
      </trkpt>
      <trkpt lat="46.0664680" lon="12.3666520">
        <ele>1412.7900000</ele>
        <time>2010-09-29T11:24:04Z</time>
      </trkpt>
      <trkpt lat="46.0664230" lon="12.3663730">
        <ele>1414.7200000</ele>
        <time>2010-09-29T11:24:14Z</time>
      </trkpt>
      <trkpt lat="46.0663030" lon="12.3663270">
        <ele>1415.6800000</ele>
        <time>2010-09-29T11:24:22Z</time>
      </trkpt>
      <trkpt lat="46.0662510" lon="12.3662810">
        <ele>1415.6800000</ele>
        <time>2010-09-29T11:24:29Z</time>
      </trkpt>
      <trkpt lat="46.0662010" lon="12.3662420">
        <ele>1415.6800000</ele>
        <time>2010-09-29T11:24:34Z</time>
      </trkpt>
      <trkpt lat="46.0661660" lon="12.3662160">
        <ele>1417.6000000</ele>
        <time>2010-09-29T11:24:40Z</time>
      </trkpt>
      <trkpt lat="46.0661210" lon="12.3661510">
        <ele>1417.6000000</ele>
        <time>2010-09-29T11:24:45Z</time>
      </trkpt>
      <trkpt lat="46.0660680" lon="12.3659890">
        <ele>1420.4900000</ele>
        <time>2010-09-29T11:25:05Z</time>
      </trkpt>
      <trkpt lat="46.0660640" lon="12.3659560">
        <ele>1421.4500000</ele>
        <time>2010-09-29T11:25:12Z</time>
      </trkpt>
      <trkpt lat="46.0660130" lon="12.3658900">
        <ele>1421.9300000</ele>
        <time>2010-09-29T11:25:20Z</time>
      </trkpt>
      <trkpt lat="46.0660060" lon="12.3658700">
        <ele>1421.9300000</ele>
        <time>2010-09-29T11:27:43Z</time>
      </trkpt>
      <trkpt lat="46.0659650" lon="12.3658500">
        <ele>1423.3700000</ele>
        <time>2010-09-29T11:27:50Z</time>
      </trkpt>
      <trkpt lat="46.0659220" lon="12.3658290">
        <ele>1423.3700000</ele>
        <time>2010-09-29T11:27:55Z</time>
      </trkpt>
      <trkpt lat="46.0658900" lon="12.3657970">
        <ele>1424.3300000</ele>
        <time>2010-09-29T11:28:00Z</time>
      </trkpt>
      <trkpt lat="46.0658650" lon="12.3657590">
        <ele>1427.7000000</ele>
        <time>2010-09-29T11:28:23Z</time>
      </trkpt>
      <trkpt lat="46.0657530" lon="12.3656690">
        <ele>1430.1000000</ele>
        <time>2010-09-29T11:28:41Z</time>
      </trkpt>
      <trkpt lat="46.0657250" lon="12.3656390">
        <ele>1431.0600000</ele>
        <time>2010-09-29T11:28:55Z</time>
      </trkpt>
      <trkpt lat="46.0656770" lon="12.3655800">
        <ele>1433.9400000</ele>
        <time>2010-09-29T11:29:13Z</time>
      </trkpt>
      <trkpt lat="46.0656460" lon="12.3655640">
        <ele>1434.9100000</ele>
        <time>2010-09-29T11:29:28Z</time>
      </trkpt>
      <trkpt lat="46.0654940" lon="12.3654700">
        <ele>1436.3500000</ele>
        <time>2010-09-29T11:29:35Z</time>
      </trkpt>
      <trkpt lat="46.0653670" lon="12.3654180">
        <ele>1437.3100000</ele>
        <time>2010-09-29T11:29:42Z</time>
      </trkpt>
      <trkpt lat="46.0652480" lon="12.3653990">
        <ele>1438.2700000</ele>
        <time>2010-09-29T11:29:49Z</time>
      </trkpt>
      <trkpt lat="46.0651760" lon="12.3653790">
        <ele>1437.7900000</ele>
        <time>2010-09-29T11:29:55Z</time>
      </trkpt>
      <trkpt lat="46.0651250" lon="12.3653380">
        <ele>1438.2700000</ele>
        <time>2010-09-29T11:30:00Z</time>
      </trkpt>
      <trkpt lat="46.0650890" lon="12.3652960">
        <ele>1438.2700000</ele>
        <time>2010-09-29T11:30:05Z</time>
      </trkpt>
      <trkpt lat="46.0650130" lon="12.3653110">
        <ele>1438.7500000</ele>
        <time>2010-09-29T11:30:12Z</time>
      </trkpt>
      <trkpt lat="46.0649340" lon="12.3652940">
        <ele>1439.2300000</ele>
        <time>2010-09-29T11:30:18Z</time>
      </trkpt>
      <trkpt lat="46.0648460" lon="12.3652010">
        <ele>1441.6300000</ele>
        <time>2010-09-29T11:30:43Z</time>
      </trkpt>
      <trkpt lat="46.0648110" lon="12.3651230">
        <ele>1443.0800000</ele>
        <time>2010-09-29T11:30:51Z</time>
      </trkpt>
      <trkpt lat="46.0647730" lon="12.3651140">
        <ele>1445.0000000</ele>
        <time>2010-09-29T11:31:05Z</time>
      </trkpt>
      <trkpt lat="46.0647450" lon="12.3650710">
        <ele>1445.4800000</ele>
        <time>2010-09-29T11:31:11Z</time>
      </trkpt>
      <trkpt lat="46.0647060" lon="12.3649980">
        <ele>1445.9600000</ele>
        <time>2010-09-29T11:31:20Z</time>
      </trkpt>
      <trkpt lat="46.0646820" lon="12.3649780">
        <ele>1446.9200000</ele>
        <time>2010-09-29T11:31:27Z</time>
      </trkpt>
      <trkpt lat="46.0646320" lon="12.3649200">
        <ele>1448.3600000</ele>
        <time>2010-09-29T11:31:42Z</time>
      </trkpt>
      <trkpt lat="46.0645950" lon="12.3648850">
        <ele>1449.3200000</ele>
        <time>2010-09-29T11:31:48Z</time>
      </trkpt>
      <trkpt lat="46.0645190" lon="12.3648490">
        <ele>1450.2900000</ele>
        <time>2010-09-29T11:31:55Z</time>
      </trkpt>
      <trkpt lat="46.0644830" lon="12.3647660">
        <ele>1451.2500000</ele>
        <time>2010-09-29T11:32:04Z</time>
      </trkpt>
      <trkpt lat="46.0644830" lon="12.3647660">
        <ele>1452.2100000</ele>
        <time>2010-09-29T11:32:18Z</time>
      </trkpt>
      <trkpt lat="46.0643870" lon="12.3647270">
        <ele>1453.6500000</ele>
        <time>2010-09-29T11:32:29Z</time>
      </trkpt>
      <trkpt lat="46.0643240" lon="12.3646870">
        <ele>1454.1300000</ele>
        <time>2010-09-29T11:32:33Z</time>
      </trkpt>
      <trkpt lat="46.0642940" lon="12.3646540">
        <ele>1457.0200000</ele>
        <time>2010-09-29T11:32:57Z</time>
      </trkpt>
      <trkpt lat="46.0641820" lon="12.3644940">
        <ele>1458.4600000</ele>
        <time>2010-09-29T11:33:09Z</time>
      </trkpt>
      <trkpt lat="46.0641370" lon="12.3644460">
        <ele>1459.4200000</ele>
        <time>2010-09-29T11:33:17Z</time>
      </trkpt>
      <trkpt lat="46.0641150" lon="12.3643840">
        <ele>1460.8600000</ele>
        <time>2010-09-29T11:33:24Z</time>
      </trkpt>
      <trkpt lat="46.0640600" lon="12.3643210">
        <ele>1461.3400000</ele>
        <time>2010-09-29T11:33:31Z</time>
      </trkpt>
      <trkpt lat="46.0640270" lon="12.3642890">
        <ele>1461.3400000</ele>
        <time>2010-09-29T11:33:38Z</time>
      </trkpt>
      <trkpt lat="46.0639790" lon="12.3642820">
        <ele>1462.7800000</ele>
        <time>2010-09-29T11:33:44Z</time>
      </trkpt>
      <trkpt lat="46.0638800" lon="12.3642290">
        <ele>1462.7800000</ele>
        <time>2010-09-29T11:33:51Z</time>
      </trkpt>
      <trkpt lat="46.0638280" lon="12.3641900">
        <ele>1463.2600000</ele>
        <time>2010-09-29T11:33:59Z</time>
      </trkpt>
      <trkpt lat="46.0638060" lon="12.3641750">
        <ele>1463.2600000</ele>
        <time>2010-09-29T11:34:01Z</time>
      </trkpt>
      <trkpt lat="46.0637580" lon="12.3641310">
        <ele>1464.2300000</ele>
        <time>2010-09-29T11:34:06Z</time>
      </trkpt>
      <trkpt lat="46.0637000" lon="12.3641040">
        <ele>1464.7100000</ele>
        <time>2010-09-29T11:34:13Z</time>
      </trkpt>
      <trkpt lat="46.0636440" lon="12.3641090">
        <ele>1463.7400000</ele>
        <time>2010-09-29T11:34:20Z</time>
      </trkpt>
      <trkpt lat="46.0635860" lon="12.3641190">
        <ele>1464.7100000</ele>
        <time>2010-09-29T11:34:27Z</time>
      </trkpt>
      <trkpt lat="46.0634820" lon="12.3641170">
        <ele>1465.1900000</ele>
        <time>2010-09-29T11:34:32Z</time>
      </trkpt>
      <trkpt lat="46.0633980" lon="12.3640890">
        <ele>1465.1900000</ele>
        <time>2010-09-29T11:34:38Z</time>
      </trkpt>
      <trkpt lat="46.0633730" lon="12.3640850">
        <ele>1465.6700000</ele>
        <time>2010-09-29T11:34:43Z</time>
      </trkpt>
      <trkpt lat="46.0633390" lon="12.3640380">
        <ele>1465.1900000</ele>
        <time>2010-09-29T11:34:49Z</time>
      </trkpt>
      <trkpt lat="46.0632860" lon="12.3640380">
        <ele>1465.6700000</ele>
        <time>2010-09-29T11:34:56Z</time>
      </trkpt>
      <trkpt lat="46.0632710" lon="12.3640390">
        <ele>1465.6700000</ele>
        <time>2010-09-29T11:35:10Z</time>
      </trkpt>
      <trkpt lat="46.0631730" lon="12.3639900">
        <ele>1465.6700000</ele>
        <time>2010-09-29T11:35:19Z</time>
      </trkpt>
      <trkpt lat="46.0631250" lon="12.3639730">
        <ele>1464.2300000</ele>
        <time>2010-09-29T11:35:35Z</time>
      </trkpt>
      <trkpt lat="46.0629860" lon="12.3639390">
        <ele>1464.2300000</ele>
        <time>2010-09-29T11:35:43Z</time>
      </trkpt>
      <trkpt lat="46.0627830" lon="12.3639210">
        <ele>1464.2300000</ele>
        <time>2010-09-29T11:35:57Z</time>
      </trkpt>
      <trkpt lat="46.0625150" lon="12.3637710">
        <ele>1465.1900000</ele>
        <time>2010-09-29T11:36:19Z</time>
      </trkpt>
      <trkpt lat="46.0624810" lon="12.3637510">
        <ele>1465.6700000</ele>
        <time>2010-09-29T11:36:27Z</time>
      </trkpt>
      <trkpt lat="46.0624810" lon="12.3637510">
        <ele>1466.1500000</ele>
        <time>2010-09-29T11:36:36Z</time>
      </trkpt>
      <trkpt lat="46.0623650" lon="12.3637490">
        <ele>1467.5900000</ele>
        <time>2010-09-29T11:37:18Z</time>
      </trkpt>
      <trkpt lat="46.0621180" lon="12.3638000">
        <ele>1468.5500000</ele>
        <time>2010-09-29T11:37:26Z</time>
      </trkpt>
      <trkpt lat="46.0617170" lon="12.3635910">
        <ele>1469.9900000</ele>
        <time>2010-09-29T11:38:03Z</time>
      </trkpt>
      <trkpt lat="46.0616890" lon="12.3635790">
        <ele>1472.8800000</ele>
        <time>2010-09-29T11:38:28Z</time>
      </trkpt>
      <trkpt lat="46.0616890" lon="12.3635790">
        <ele>1473.3600000</ele>
        <time>2010-09-29T11:38:39Z</time>
      </trkpt>
      <trkpt lat="46.0616290" lon="12.3636440">
        <ele>1474.3200000</ele>
        <time>2010-09-29T11:38:47Z</time>
      </trkpt>
      <trkpt lat="46.0615420" lon="12.3635810">
        <ele>1475.7600000</ele>
        <time>2010-09-29T11:38:58Z</time>
      </trkpt>
      <trkpt lat="46.0614380" lon="12.3635210">
        <ele>1477.2000000</ele>
        <time>2010-09-29T11:39:08Z</time>
      </trkpt>
      <trkpt lat="46.0614040" lon="12.3634940">
        <ele>1478.6500000</ele>
        <time>2010-09-29T11:39:22Z</time>
      </trkpt>
      <trkpt lat="46.0611290" lon="12.3633720">
        <ele>1480.5700000</ele>
        <time>2010-09-29T11:39:38Z</time>
      </trkpt>
      <trkpt lat="46.0609930" lon="12.3632270">
        <ele>1482.0100000</ele>
        <time>2010-09-29T11:39:51Z</time>
      </trkpt>
      <trkpt lat="46.0609460" lon="12.3632200">
        <ele>1481.5300000</ele>
        <time>2010-09-29T11:39:59Z</time>
      </trkpt>
      <trkpt lat="46.0608500" lon="12.3632020">
        <ele>1481.0500000</ele>
        <time>2010-09-29T11:40:08Z</time>
      </trkpt>
      <trkpt lat="46.0607500" lon="12.3631730">
        <ele>1480.5700000</ele>
        <time>2010-09-29T11:40:14Z</time>
      </trkpt>
      <trkpt lat="46.0606860" lon="12.3631040">
        <ele>1479.6100000</ele>
        <time>2010-09-29T11:40:23Z</time>
      </trkpt>
      <trkpt lat="46.0606320" lon="12.3630890">
        <ele>1478.6500000</ele>
        <time>2010-09-29T11:40:35Z</time>
      </trkpt>
      <trkpt lat="46.0605060" lon="12.3629100">
        <ele>1479.1300000</ele>
        <time>2010-09-29T11:40:55Z</time>
      </trkpt>
      <trkpt lat="46.0604430" lon="12.3628160">
        <ele>1479.6100000</ele>
        <time>2010-09-29T11:41:08Z</time>
      </trkpt>
      <trkpt lat="46.0604430" lon="12.3628160">
        <ele>1473.8400000</ele>
        <time>2010-09-29T11:41:17Z</time>
      </trkpt>
      <trkpt lat="46.0604430" lon="12.3628160">
        <ele>1480.5700000</ele>
        <time>2010-09-29T11:41:18Z</time>
      </trkpt>
      <trkpt lat="46.0601890" lon="12.3628150">
        <ele>1479.6100000</ele>
        <time>2010-09-29T11:41:36Z</time>
      </trkpt>
      <trkpt lat="46.0601840" lon="12.3627430">
        <ele>1479.6100000</ele>
        <time>2010-09-29T11:41:43Z</time>
      </trkpt>
      <trkpt lat="46.0601890" lon="12.3626760">
        <ele>1480.0900000</ele>
        <time>2010-09-29T11:41:47Z</time>
      </trkpt>
      <trkpt lat="46.0601910" lon="12.3625720">
        <ele>1478.6500000</ele>
        <time>2010-09-29T11:41:55Z</time>
      </trkpt>
      <trkpt lat="46.0601730" lon="12.3625200">
        <ele>1479.6100000</ele>
        <time>2010-09-29T11:42:06Z</time>
      </trkpt>
      <trkpt lat="46.0601730" lon="12.3625140">
        <ele>1479.6100000</ele>
        <time>2010-09-29T11:42:13Z</time>
      </trkpt>
      <trkpt lat="46.0601680" lon="12.3624260">
        <ele>1480.5700000</ele>
        <time>2010-09-29T11:42:22Z</time>
      </trkpt>
      <trkpt lat="46.0601240" lon="12.3623740">
        <ele>1480.5700000</ele>
        <time>2010-09-29T11:42:30Z</time>
      </trkpt>
      <trkpt lat="46.0600440" lon="12.3623250">
        <ele>1481.0500000</ele>
        <time>2010-09-29T11:42:36Z</time>
      </trkpt>
      <trkpt lat="46.0599980" lon="12.3622390">
        <ele>1481.5300000</ele>
        <time>2010-09-29T11:42:45Z</time>
      </trkpt>
      <trkpt lat="46.0599480" lon="12.3621820">
        <ele>1481.5300000</ele>
        <time>2010-09-29T11:42:51Z</time>
      </trkpt>
      <trkpt lat="46.0598850" lon="12.3621350">
        <ele>1481.0500000</ele>
        <time>2010-09-29T11:42:58Z</time>
      </trkpt>
      <trkpt lat="46.0597870" lon="12.3620750">
        <ele>1481.0500000</ele>
        <time>2010-09-29T11:43:05Z</time>
      </trkpt>
      <trkpt lat="46.0597240" lon="12.3619980">
        <ele>1480.0900000</ele>
        <time>2010-09-29T11:43:12Z</time>
      </trkpt>
      <trkpt lat="46.0596970" lon="12.3619810">
        <ele>1479.1300000</ele>
        <time>2010-09-29T11:43:13Z</time>
      </trkpt>
      <trkpt lat="46.0596190" lon="12.3619390">
        <ele>1480.5700000</ele>
        <time>2010-09-29T11:43:20Z</time>
      </trkpt>
      <trkpt lat="46.0596000" lon="12.3618730">
        <ele>1481.0500000</ele>
        <time>2010-09-29T11:43:26Z</time>
      </trkpt>
      <trkpt lat="46.0595700" lon="12.3618200">
        <ele>1479.1300000</ele>
        <time>2010-09-29T11:43:31Z</time>
      </trkpt>
      <trkpt lat="46.0595070" lon="12.3617320">
        <ele>1480.0900000</ele>
        <time>2010-09-29T11:43:44Z</time>
      </trkpt>
      <trkpt lat="46.0594300" lon="12.3616270">
        <ele>1479.6100000</ele>
        <time>2010-09-29T11:43:52Z</time>
      </trkpt>
      <trkpt lat="46.0593540" lon="12.3615450">
        <ele>1480.5700000</ele>
        <time>2010-09-29T11:44:00Z</time>
      </trkpt>
      <trkpt lat="46.0593310" lon="12.3614780">
        <ele>1479.6100000</ele>
        <time>2010-09-29T11:44:07Z</time>
      </trkpt>
      <trkpt lat="46.0592590" lon="12.3614360">
        <ele>1480.5700000</ele>
        <time>2010-09-29T11:44:15Z</time>
      </trkpt>
      <trkpt lat="46.0592180" lon="12.3613900">
        <ele>1480.0900000</ele>
        <time>2010-09-29T11:44:19Z</time>
      </trkpt>
      <trkpt lat="46.0590950" lon="12.3612760">
        <ele>1481.0500000</ele>
        <time>2010-09-29T11:44:28Z</time>
      </trkpt>
      <trkpt lat="46.0590720" lon="12.3612690">
        <ele>1482.0100000</ele>
        <time>2010-09-29T11:44:36Z</time>
      </trkpt>
      <trkpt lat="46.0590160" lon="12.3611970">
        <ele>1482.4900000</ele>
        <time>2010-09-29T11:44:44Z</time>
      </trkpt>
      <trkpt lat="46.0589520" lon="12.3611160">
        <ele>1482.4900000</ele>
        <time>2010-09-29T11:44:50Z</time>
      </trkpt>
      <trkpt lat="46.0589060" lon="12.3609880">
        <ele>1482.0100000</ele>
        <time>2010-09-29T11:45:00Z</time>
      </trkpt>
      <trkpt lat="46.0588740" lon="12.3608980">
        <ele>1481.0500000</ele>
        <time>2010-09-29T11:45:05Z</time>
      </trkpt>
      <trkpt lat="46.0588480" lon="12.3607700">
        <ele>1480.0900000</ele>
        <time>2010-09-29T11:45:11Z</time>
      </trkpt>
      <trkpt lat="46.0588500" lon="12.3607570">
        <ele>1480.5700000</ele>
        <time>2010-09-29T11:45:12Z</time>
      </trkpt>
      <trkpt lat="46.0588600" lon="12.3605930">
        <ele>1480.0900000</ele>
        <time>2010-09-29T11:45:23Z</time>
      </trkpt>
      <trkpt lat="46.0588700" lon="12.3605510">
        <ele>1479.1300000</ele>
        <time>2010-09-29T11:45:29Z</time>
      </trkpt>
      <trkpt lat="46.0588600" lon="12.3605020">
        <ele>1477.2000000</ele>
        <time>2010-09-29T11:45:34Z</time>
      </trkpt>
      <trkpt lat="46.0588220" lon="12.3603620">
        <ele>1476.7200000</ele>
        <time>2010-09-29T11:45:41Z</time>
      </trkpt>
      <trkpt lat="46.0588260" lon="12.3602620">
        <ele>1476.7200000</ele>
        <time>2010-09-29T11:45:56Z</time>
      </trkpt>
      <trkpt lat="46.0588360" lon="12.3602400">
        <ele>1476.2400000</ele>
        <time>2010-09-29T11:46:04Z</time>
      </trkpt>
      <trkpt lat="46.0587430" lon="12.3601590">
        <ele>1474.8000000</ele>
        <time>2010-09-29T11:46:14Z</time>
      </trkpt>
      <trkpt lat="46.0586850" lon="12.3600470">
        <ele>1473.3600000</ele>
        <time>2010-09-29T11:46:20Z</time>
      </trkpt>
      <trkpt lat="46.0586910" lon="12.3600380">
        <ele>1473.8400000</ele>
        <time>2010-09-29T11:46:22Z</time>
      </trkpt>
      <trkpt lat="46.0586530" lon="12.3599450">
        <ele>1472.4000000</ele>
        <time>2010-09-29T11:46:28Z</time>
      </trkpt>
      <trkpt lat="46.0585760" lon="12.3597830">
        <ele>1473.3600000</ele>
        <time>2010-09-29T11:46:42Z</time>
      </trkpt>
      <trkpt lat="46.0585600" lon="12.3596970">
        <ele>1472.8800000</ele>
        <time>2010-09-29T11:46:53Z</time>
      </trkpt>
      <trkpt lat="46.0584450" lon="12.3596420">
        <ele>1472.8800000</ele>
        <time>2010-09-29T11:46:54Z</time>
      </trkpt>
      <trkpt lat="46.0583470" lon="12.3595770">
        <ele>1473.3600000</ele>
        <time>2010-09-29T11:47:02Z</time>
      </trkpt>
      <trkpt lat="46.0583540" lon="12.3594590">
        <ele>1472.4000000</ele>
        <time>2010-09-29T11:47:16Z</time>
      </trkpt>
      <trkpt lat="46.0582580" lon="12.3593610">
        <ele>1471.9200000</ele>
        <time>2010-09-29T11:47:25Z</time>
      </trkpt>
      <trkpt lat="46.0580180" lon="12.3591880">
        <ele>1472.4000000</ele>
        <time>2010-09-29T11:47:33Z</time>
      </trkpt>
      <trkpt lat="46.0579880" lon="12.3591260">
        <ele>1472.4000000</ele>
        <time>2010-09-29T11:47:42Z</time>
      </trkpt>
      <trkpt lat="46.0579630" lon="12.3590740">
        <ele>1472.8800000</ele>
        <time>2010-09-29T11:47:51Z</time>
      </trkpt>
      <trkpt lat="46.0579570" lon="12.3589980">
        <ele>1471.9200000</ele>
        <time>2010-09-29T11:47:58Z</time>
      </trkpt>
      <trkpt lat="46.0579600" lon="12.3589420">
        <ele>1470.4700000</ele>
        <time>2010-09-29T11:48:19Z</time>
      </trkpt>
      <trkpt lat="46.0578950" lon="12.3589690">
        <ele>1470.9500000</ele>
        <time>2010-09-29T11:49:28Z</time>
      </trkpt>
      <trkpt lat="46.0579480" lon="12.3589140">
        <ele>1469.5100000</ele>
        <time>2010-09-29T11:49:35Z</time>
      </trkpt>
      <trkpt lat="46.0579480" lon="12.3588690">
        <ele>1468.0700000</ele>
        <time>2010-09-29T11:49:41Z</time>
      </trkpt>
      <trkpt lat="46.0578870" lon="12.3586790">
        <ele>1467.1100000</ele>
        <time>2010-09-29T11:49:58Z</time>
      </trkpt>
      <trkpt lat="46.0579000" lon="12.3586660">
        <ele>1470.4700000</ele>
        <time>2010-09-29T11:50:18Z</time>
      </trkpt>
      <trkpt lat="46.0578300" lon="12.3585430">
        <ele>1473.3600000</ele>
        <time>2010-09-29T11:50:37Z</time>
      </trkpt>
      <trkpt lat="46.0577400" lon="12.3584610">
        <ele>1473.8400000</ele>
        <time>2010-09-29T11:50:45Z</time>
      </trkpt>
      <trkpt lat="46.0577290" lon="12.3584330">
        <ele>1474.3200000</ele>
        <time>2010-09-29T11:50:53Z</time>
      </trkpt>
      <trkpt lat="46.0576780" lon="12.3582950">
        <ele>1472.8800000</ele>
        <time>2010-09-29T11:51:07Z</time>
      </trkpt>
      <trkpt lat="46.0576600" lon="12.3582340">
        <ele>1473.3600000</ele>
        <time>2010-09-29T11:51:19Z</time>
      </trkpt>
      <trkpt lat="46.0575770" lon="12.3581130">
        <ele>1473.3600000</ele>
        <time>2010-09-29T11:51:27Z</time>
      </trkpt>
      <trkpt lat="46.0574980" lon="12.3580150">
        <ele>1473.3600000</ele>
        <time>2010-09-29T11:51:40Z</time>
      </trkpt>
      <trkpt lat="46.0574140" lon="12.3579070">
        <ele>1472.8800000</ele>
        <time>2010-09-29T11:51:49Z</time>
      </trkpt>
      <trkpt lat="46.0573200" lon="12.3578480">
        <ele>1473.8400000</ele>
        <time>2010-09-29T11:51:58Z</time>
      </trkpt>
      <trkpt lat="46.0571880" lon="12.3576300">
        <ele>1472.4000000</ele>
        <time>2010-09-29T11:52:27Z</time>
      </trkpt>
      <trkpt lat="46.0571720" lon="12.3575940">
        <ele>1470.9500000</ele>
        <time>2010-09-29T11:52:34Z</time>
      </trkpt>
      <trkpt lat="46.0571690" lon="12.3575320">
        <ele>1472.4000000</ele>
        <time>2010-09-29T11:52:42Z</time>
      </trkpt>
      <trkpt lat="46.0571670" lon="12.3574610">
        <ele>1472.4000000</ele>
        <time>2010-09-29T11:52:52Z</time>
      </trkpt>
      <trkpt lat="46.0568700" lon="12.3573010">
        <ele>1472.4000000</ele>
        <time>2010-09-29T11:53:03Z</time>
      </trkpt>
      <trkpt lat="46.0568020" lon="12.3572490">
        <ele>1475.7600000</ele>
        <time>2010-09-29T11:53:26Z</time>
      </trkpt>
      <trkpt lat="46.0567490" lon="12.3572230">
        <ele>1479.1300000</ele>
        <time>2010-09-29T11:53:58Z</time>
      </trkpt>
      <trkpt lat="46.0566940" lon="12.3571270">
        <ele>1478.1600000</ele>
        <time>2010-09-29T11:54:07Z</time>
      </trkpt>
      <trkpt lat="46.0566600" lon="12.3570380">
        <ele>1478.1600000</ele>
        <time>2010-09-29T11:54:16Z</time>
      </trkpt>
      <trkpt lat="46.0565870" lon="12.3569710">
        <ele>1478.1600000</ele>
        <time>2010-09-29T11:54:28Z</time>
      </trkpt>
      <trkpt lat="46.0565830" lon="12.3569680">
        <ele>1479.1300000</ele>
        <time>2010-09-29T11:54:32Z</time>
      </trkpt>
      <trkpt lat="46.0565720" lon="12.3569540">
        <ele>1478.1600000</ele>
        <time>2010-09-29T11:54:34Z</time>
      </trkpt>
      <trkpt lat="46.0563590" lon="12.3568470">
        <ele>1478.6500000</ele>
        <time>2010-09-29T11:54:43Z</time>
      </trkpt>
      <trkpt lat="46.0562980" lon="12.3567840">
        <ele>1478.6500000</ele>
        <time>2010-09-29T11:54:48Z</time>
      </trkpt>
      <trkpt lat="46.0562560" lon="12.3567470">
        <ele>1480.0900000</ele>
        <time>2010-09-29T11:54:56Z</time>
      </trkpt>
      <trkpt lat="46.0562470" lon="12.3567480">
        <ele>1483.4500000</ele>
        <time>2010-09-29T11:55:20Z</time>
      </trkpt>
      <trkpt lat="46.0561420" lon="12.3567290">
        <ele>1485.8500000</ele>
        <time>2010-09-29T11:55:37Z</time>
      </trkpt>
      <trkpt lat="46.0560290" lon="12.3567280">
        <ele>1486.3400000</ele>
        <time>2010-09-29T11:55:45Z</time>
      </trkpt>
      <trkpt lat="46.0559730" lon="12.3566480">
        <ele>1486.3400000</ele>
        <time>2010-09-29T11:55:57Z</time>
      </trkpt>
      <trkpt lat="46.0559030" lon="12.3565450">
        <ele>1484.8900000</ele>
        <time>2010-09-29T11:56:06Z</time>
      </trkpt>
      <trkpt lat="46.0558270" lon="12.3564740">
        <ele>1482.0100000</ele>
        <time>2010-09-29T11:56:12Z</time>
      </trkpt>
      <trkpt lat="46.0557790" lon="12.3563800">
        <ele>1482.4900000</ele>
        <time>2010-09-29T11:56:23Z</time>
      </trkpt>
      <trkpt lat="46.0557290" lon="12.3562970">
        <ele>1479.1300000</ele>
        <time>2010-09-29T11:56:38Z</time>
      </trkpt>
      <trkpt lat="46.0557200" lon="12.3562850">
        <ele>1478.6500000</ele>
        <time>2010-09-29T11:56:39Z</time>
      </trkpt>
      <trkpt lat="46.0557050" lon="12.3562600">
        <ele>1480.0900000</ele>
        <time>2010-09-29T11:56:46Z</time>
      </trkpt>
      <trkpt lat="46.0557060" lon="12.3561870">
        <ele>1482.0100000</ele>
        <time>2010-09-29T11:57:08Z</time>
      </trkpt>
      <trkpt lat="46.0556940" lon="12.3561360">
        <ele>1482.0100000</ele>
        <time>2010-09-29T11:57:17Z</time>
      </trkpt>
      <trkpt lat="46.0556240" lon="12.3560560">
        <ele>1481.0500000</ele>
        <time>2010-09-29T11:57:25Z</time>
      </trkpt>
      <trkpt lat="46.0556350" lon="12.3560090">
        <ele>1479.6100000</ele>
        <time>2010-09-29T11:57:28Z</time>
      </trkpt>
      <trkpt lat="46.0554030" lon="12.3558590">
        <ele>1481.0500000</ele>
        <time>2010-09-29T11:57:36Z</time>
      </trkpt>
      <trkpt lat="46.0554030" lon="12.3558590">
        <ele>1479.1300000</ele>
        <time>2010-09-29T11:57:37Z</time>
      </trkpt>
      <trkpt lat="46.0551860" lon="12.3557500">
        <ele>1479.1300000</ele>
        <time>2010-09-29T11:57:49Z</time>
      </trkpt>
      <trkpt lat="46.0551140" lon="12.3556690">
        <ele>1479.6100000</ele>
        <time>2010-09-29T11:57:58Z</time>
      </trkpt>
      <trkpt lat="46.0550290" lon="12.3555920">
        <ele>1479.1300000</ele>
        <time>2010-09-29T11:58:07Z</time>
      </trkpt>
      <trkpt lat="46.0550120" lon="12.3555310">
        <ele>1478.1600000</ele>
        <time>2010-09-29T11:58:24Z</time>
      </trkpt>
      <trkpt lat="46.0548620" lon="12.3555560">
        <ele>1479.1300000</ele>
        <time>2010-09-29T12:00:50Z</time>
      </trkpt>
      <trkpt lat="46.0548290" lon="12.3555460">
        <ele>1479.1300000</ele>
        <time>2010-09-29T12:01:37Z</time>
      </trkpt>
      <trkpt lat="46.0548290" lon="12.3555460">
        <ele>1479.6100000</ele>
        <time>2010-09-29T12:01:40Z</time>
      </trkpt>
      <trkpt lat="46.0548050" lon="12.3555190">
        <ele>1479.1300000</ele>
        <time>2010-09-29T12:01:45Z</time>
      </trkpt>
      <trkpt lat="46.0548210" lon="12.3553520">
        <ele>1482.9700000</ele>
        <time>2010-09-29T12:06:29Z</time>
      </trkpt>
      <trkpt lat="46.0548210" lon="12.3553520">
        <ele>1481.5300000</ele>
        <time>2010-09-29T12:06:30Z</time>
      </trkpt>
      <trkpt lat="46.0548210" lon="12.3553520">
        <ele>1525.7500000</ele>
        <time>2010-09-29T12:07:13Z</time>
      </trkpt>
      <trkpt lat="46.0548210" lon="12.3553520">
        <ele>1471.9200000</ele>
        <time>2010-09-29T12:07:14Z</time>
      </trkpt>
      <trkpt lat="46.0550260" lon="12.3551120">
        <ele>1471.4400000</ele>
        <time>2010-09-29T12:07:26Z</time>
      </trkpt>
      <trkpt lat="46.0550050" lon="12.3550470">
        <ele>1466.1500000</ele>
        <time>2010-09-29T12:07:42Z</time>
      </trkpt>
      <trkpt lat="46.0549970" lon="12.3550400">
        <ele>1470.9500000</ele>
        <time>2010-09-29T12:07:43Z</time>
      </trkpt>
      <trkpt lat="46.0549940" lon="12.3550460">
        <ele>1474.3200000</ele>
        <time>2010-09-29T12:07:48Z</time>
      </trkpt>
      <trkpt lat="46.0550000" lon="12.3550580">
        <ele>1470.9500000</ele>
        <time>2010-09-29T12:07:50Z</time>
      </trkpt>
      <trkpt lat="46.0550170" lon="12.3550570">
        <ele>1470.9500000</ele>
        <time>2010-09-29T12:08:04Z</time>
      </trkpt>
      <trkpt lat="46.0549950" lon="12.3550810">
        <ele>1468.0700000</ele>
        <time>2010-09-29T12:08:08Z</time>
      </trkpt>
      <trkpt lat="46.0549610" lon="12.3550770">
        <ele>1474.8000000</ele>
        <time>2010-09-29T12:08:09Z</time>
      </trkpt>
      <trkpt lat="46.0549010" lon="12.3550700">
        <ele>1470.9500000</ele>
        <time>2010-09-29T12:08:11Z</time>
      </trkpt>
      <trkpt lat="46.0548770" lon="12.3550690">
        <ele>1471.4400000</ele>
        <time>2010-09-29T12:08:12Z</time>
      </trkpt>
      <trkpt lat="46.0547240" lon="12.3552640">
        <ele>1470.9500000</ele>
        <time>2010-09-29T12:08:56Z</time>
      </trkpt>
      <trkpt lat="46.0547520" lon="12.3552580">
        <ele>1470.9500000</ele>
        <time>2010-09-29T12:09:26Z</time>
      </trkpt>
      <trkpt lat="46.0547400" lon="12.3552360">
        <ele>1470.4700000</ele>
        <time>2010-09-29T12:09:28Z</time>
      </trkpt>
      <trkpt lat="46.0546860" lon="12.3551970">
        <ele>1469.5100000</ele>
        <time>2010-09-29T12:09:35Z</time>
      </trkpt>
      <trkpt lat="46.0546400" lon="12.3553090">
        <ele>1467.5900000</ele>
        <time>2010-09-29T12:10:18Z</time>
      </trkpt>
      <trkpt lat="46.0546180" lon="12.3553240">
        <ele>1468.0700000</ele>
        <time>2010-09-29T12:10:22Z</time>
      </trkpt>
      <trkpt lat="46.0544940" lon="12.3553930">
        <ele>1466.6300000</ele>
        <time>2010-09-29T12:10:29Z</time>
      </trkpt>
      <trkpt lat="46.0544700" lon="12.3554840">
        <ele>1465.1900000</ele>
        <time>2010-09-29T12:10:35Z</time>
      </trkpt>
      <trkpt lat="46.0544640" lon="12.3555320">
        <ele>1464.2300000</ele>
        <time>2010-09-29T12:10:38Z</time>
      </trkpt>
      <trkpt lat="46.0544420" lon="12.3555830">
        <ele>1463.2600000</ele>
        <time>2010-09-29T12:10:43Z</time>
      </trkpt>
      <trkpt lat="46.0543640" lon="12.3557260">
        <ele>1462.3000000</ele>
        <time>2010-09-29T12:10:50Z</time>
      </trkpt>
      <trkpt lat="46.0543580" lon="12.3557660">
        <ele>1461.8200000</ele>
        <time>2010-09-29T12:10:57Z</time>
      </trkpt>
      <trkpt lat="46.0543690" lon="12.3558080">
        <ele>1462.3000000</ele>
        <time>2010-09-29T12:11:05Z</time>
      </trkpt>
      <trkpt lat="46.0543390" lon="12.3559240">
        <ele>1460.8600000</ele>
        <time>2010-09-29T12:11:13Z</time>
      </trkpt>
      <trkpt lat="46.0543150" lon="12.3559540">
        <ele>1459.9000000</ele>
        <time>2010-09-29T12:11:17Z</time>
      </trkpt>
      <trkpt lat="46.0542600" lon="12.3560060">
        <ele>1459.9000000</ele>
        <time>2010-09-29T12:11:24Z</time>
      </trkpt>
      <trkpt lat="46.0542370" lon="12.3560990">
        <ele>1458.4600000</ele>
        <time>2010-09-29T12:11:31Z</time>
      </trkpt>
      <trkpt lat="46.0542120" lon="12.3562250">
        <ele>1457.0200000</ele>
        <time>2010-09-29T12:11:38Z</time>
      </trkpt>
      <trkpt lat="46.0541620" lon="12.3563200">
        <ele>1457.5000000</ele>
        <time>2010-09-29T12:11:46Z</time>
      </trkpt>
      <trkpt lat="46.0541310" lon="12.3563850">
        <ele>1457.0200000</ele>
        <time>2010-09-29T12:11:51Z</time>
      </trkpt>
      <trkpt lat="46.0541300" lon="12.3564190">
        <ele>1456.5300000</ele>
        <time>2010-09-29T12:11:59Z</time>
      </trkpt>
      <trkpt lat="46.0541340" lon="12.3565580">
        <ele>1456.5300000</ele>
        <time>2010-09-29T12:12:07Z</time>
      </trkpt>
      <trkpt lat="46.0541370" lon="12.3566260">
        <ele>1456.0500000</ele>
        <time>2010-09-29T12:12:13Z</time>
      </trkpt>
      <trkpt lat="46.0541250" lon="12.3567490">
        <ele>1453.6500000</ele>
        <time>2010-09-29T12:12:22Z</time>
      </trkpt>
      <trkpt lat="46.0541150" lon="12.3568310">
        <ele>1453.1700000</ele>
        <time>2010-09-29T12:12:28Z</time>
      </trkpt>
      <trkpt lat="46.0541130" lon="12.3568720">
        <ele>1452.2100000</ele>
        <time>2010-09-29T12:12:32Z</time>
      </trkpt>
      <trkpt lat="46.0540870" lon="12.3569190">
        <ele>1451.7300000</ele>
        <time>2010-09-29T12:12:35Z</time>
      </trkpt>
      <trkpt lat="46.0540810" lon="12.3569780">
        <ele>1451.2500000</ele>
        <time>2010-09-29T12:12:42Z</time>
      </trkpt>
      <trkpt lat="46.0540600" lon="12.3570430">
        <ele>1450.7700000</ele>
        <time>2010-09-29T12:12:48Z</time>
      </trkpt>
      <trkpt lat="46.0540320" lon="12.3571270">
        <ele>1449.8100000</ele>
        <time>2010-09-29T12:12:56Z</time>
      </trkpt>
      <trkpt lat="46.0539850" lon="12.3571670">
        <ele>1447.8800000</ele>
        <time>2010-09-29T12:13:01Z</time>
      </trkpt>
      <trkpt lat="46.0539350" lon="12.3572420">
        <ele>1447.8800000</ele>
        <time>2010-09-29T12:13:08Z</time>
      </trkpt>
      <trkpt lat="46.0539250" lon="12.3573320">
        <ele>1446.9200000</ele>
        <time>2010-09-29T12:13:15Z</time>
      </trkpt>
      <trkpt lat="46.0538730" lon="12.3574250">
        <ele>1445.9600000</ele>
        <time>2010-09-29T12:13:21Z</time>
      </trkpt>
      <trkpt lat="46.0538450" lon="12.3575000">
        <ele>1445.9600000</ele>
        <time>2010-09-29T12:13:27Z</time>
      </trkpt>
      <trkpt lat="46.0538240" lon="12.3575860">
        <ele>1445.9600000</ele>
        <time>2010-09-29T12:13:34Z</time>
      </trkpt>
      <trkpt lat="46.0537900" lon="12.3576870">
        <ele>1445.4800000</ele>
        <time>2010-09-29T12:13:41Z</time>
      </trkpt>
      <trkpt lat="46.0537870" lon="12.3577330">
        <ele>1445.4800000</ele>
        <time>2010-09-29T12:13:46Z</time>
      </trkpt>
      <trkpt lat="46.0537850" lon="12.3577440">
        <ele>1445.0000000</ele>
        <time>2010-09-29T12:13:53Z</time>
      </trkpt>
      <trkpt lat="46.0537730" lon="12.3577410">
        <ele>1445.4800000</ele>
        <time>2010-09-29T12:13:59Z</time>
      </trkpt>
      <trkpt lat="46.0537800" lon="12.3577390">
        <ele>1445.9600000</ele>
        <time>2010-09-29T12:14:05Z</time>
      </trkpt>
      <trkpt lat="46.0537670" lon="12.3577110">
        <ele>1446.9200000</ele>
        <time>2010-09-29T12:14:12Z</time>
      </trkpt>
      <trkpt lat="46.0537240" lon="12.3576660">
        <ele>1446.4400000</ele>
        <time>2010-09-29T12:14:19Z</time>
      </trkpt>
      <trkpt lat="46.0537120" lon="12.3576640">
        <ele>1446.4400000</ele>
        <time>2010-09-29T12:14:20Z</time>
      </trkpt>
      <trkpt lat="46.0536650" lon="12.3576270">
        <ele>1446.4400000</ele>
        <time>2010-09-29T12:14:24Z</time>
      </trkpt>
      <trkpt lat="46.0536000" lon="12.3576100">
        <ele>1445.4800000</ele>
        <time>2010-09-29T12:14:29Z</time>
      </trkpt>
      <trkpt lat="46.0535170" lon="12.3575610">
        <ele>1445.0000000</ele>
        <time>2010-09-29T12:14:37Z</time>
      </trkpt>
      <trkpt lat="46.0534480" lon="12.3575540">
        <ele>1444.0400000</ele>
        <time>2010-09-29T12:14:44Z</time>
      </trkpt>
      <trkpt lat="46.0533360" lon="12.3575530">
        <ele>1442.1100000</ele>
        <time>2010-09-29T12:14:50Z</time>
      </trkpt>
      <trkpt lat="46.0532540" lon="12.3575800">
        <ele>1441.6300000</ele>
        <time>2010-09-29T12:14:56Z</time>
      </trkpt>
      <trkpt lat="46.0532090" lon="12.3575740">
        <ele>1440.1900000</ele>
        <time>2010-09-29T12:15:02Z</time>
      </trkpt>
      <trkpt lat="46.0531380" lon="12.3575430">
        <ele>1439.7100000</ele>
        <time>2010-09-29T12:15:09Z</time>
      </trkpt>
      <trkpt lat="46.0530340" lon="12.3574660">
        <ele>1438.2700000</ele>
        <time>2010-09-29T12:15:17Z</time>
      </trkpt>
      <trkpt lat="46.0529530" lon="12.3574190">
        <ele>1438.2700000</ele>
        <time>2010-09-29T12:15:25Z</time>
      </trkpt>
      <trkpt lat="46.0528830" lon="12.3573650">
        <ele>1438.7500000</ele>
        <time>2010-09-29T12:15:35Z</time>
      </trkpt>
      <trkpt lat="46.0528640" lon="12.3573080">
        <ele>1438.2700000</ele>
        <time>2010-09-29T12:15:45Z</time>
      </trkpt>
      <trkpt lat="46.0527770" lon="12.3572640">
        <ele>1437.3100000</ele>
        <time>2010-09-29T12:15:52Z</time>
      </trkpt>
      <trkpt lat="46.0527390" lon="12.3572320">
        <ele>1437.3100000</ele>
        <time>2010-09-29T12:15:59Z</time>
      </trkpt>
      <trkpt lat="46.0526680" lon="12.3571420">
        <ele>1437.7900000</ele>
        <time>2010-09-29T12:16:07Z</time>
      </trkpt>
      <trkpt lat="46.0525600" lon="12.3569970">
        <ele>1437.3100000</ele>
        <time>2010-09-29T12:16:16Z</time>
      </trkpt>
      <trkpt lat="46.0525050" lon="12.3569500">
        <ele>1436.8300000</ele>
        <time>2010-09-29T12:16:21Z</time>
      </trkpt>
      <trkpt lat="46.0524470" lon="12.3569120">
        <ele>1435.8700000</ele>
        <time>2010-09-29T12:16:28Z</time>
      </trkpt>
      <trkpt lat="46.0524480" lon="12.3568990">
        <ele>1436.3500000</ele>
        <time>2010-09-29T12:16:30Z</time>
      </trkpt>
      <trkpt lat="46.0524050" lon="12.3566980">
        <ele>1437.3100000</ele>
        <time>2010-09-29T12:16:38Z</time>
      </trkpt>
      <trkpt lat="46.0524270" lon="12.3566280">
        <ele>1435.8700000</ele>
        <time>2010-09-29T12:16:49Z</time>
      </trkpt>
      <trkpt lat="46.0524440" lon="12.3566410">
        <ele>1434.9100000</ele>
        <time>2010-09-29T12:16:57Z</time>
      </trkpt>
      <trkpt lat="46.0524540" lon="12.3565690">
        <ele>1433.9400000</ele>
        <time>2010-09-29T12:17:02Z</time>
      </trkpt>
      <trkpt lat="46.0524630" lon="12.3565200">
        <ele>1432.9800000</ele>
        <time>2010-09-29T12:17:08Z</time>
      </trkpt>
      <trkpt lat="46.0524400" lon="12.3564390">
        <ele>1431.5400000</ele>
        <time>2010-09-29T12:17:15Z</time>
      </trkpt>
      <trkpt lat="46.0524440" lon="12.3563740">
        <ele>1432.5000000</ele>
        <time>2010-09-29T12:17:21Z</time>
      </trkpt>
      <trkpt lat="46.0524240" lon="12.3563010">
        <ele>1433.4600000</ele>
        <time>2010-09-29T12:17:30Z</time>
      </trkpt>
      <trkpt lat="46.0524770" lon="12.3562110">
        <ele>1433.4600000</ele>
        <time>2010-09-29T12:17:39Z</time>
      </trkpt>
      <trkpt lat="46.0524850" lon="12.3561420">
        <ele>1434.4200000</ele>
        <time>2010-09-29T12:17:45Z</time>
      </trkpt>
      <trkpt lat="46.0525000" lon="12.3560950">
        <ele>1435.8700000</ele>
        <time>2010-09-29T12:17:56Z</time>
      </trkpt>
      <trkpt lat="46.0525290" lon="12.3559480">
        <ele>1435.8700000</ele>
        <time>2010-09-29T12:18:05Z</time>
      </trkpt>
      <trkpt lat="46.0525430" lon="12.3558700">
        <ele>1436.3500000</ele>
        <time>2010-09-29T12:18:13Z</time>
      </trkpt>
      <trkpt lat="46.0525270" lon="12.3557380">
        <ele>1435.8700000</ele>
        <time>2010-09-29T12:18:21Z</time>
      </trkpt>
      <trkpt lat="46.0524800" lon="12.3556750">
        <ele>1437.3100000</ele>
        <time>2010-09-29T12:18:29Z</time>
      </trkpt>
      <trkpt lat="46.0524820" lon="12.3556580">
        <ele>1439.2300000</ele>
        <time>2010-09-29T12:18:36Z</time>
      </trkpt>
      <trkpt lat="46.0524700" lon="12.3555500">
        <ele>1438.7500000</ele>
        <time>2010-09-29T12:18:46Z</time>
      </trkpt>
      <trkpt lat="46.0524290" lon="12.3553740">
        <ele>1440.1900000</ele>
        <time>2010-09-29T12:19:04Z</time>
      </trkpt>
      <trkpt lat="46.0523740" lon="12.3553070">
        <ele>1440.1900000</ele>
        <time>2010-09-29T12:19:07Z</time>
      </trkpt>
      <trkpt lat="46.0523500" lon="12.3552580">
        <ele>1441.6300000</ele>
        <time>2010-09-29T12:19:16Z</time>
      </trkpt>
      <trkpt lat="46.0522850" lon="12.3551630">
        <ele>1442.6000000</ele>
        <time>2010-09-29T12:19:24Z</time>
      </trkpt>
      <trkpt lat="46.0522900" lon="12.3551200">
        <ele>1443.0800000</ele>
        <time>2010-09-29T12:19:30Z</time>
      </trkpt>
      <trkpt lat="46.0522680" lon="12.3550360">
        <ele>1443.5600000</ele>
        <time>2010-09-29T12:19:37Z</time>
      </trkpt>
      <trkpt lat="46.0522910" lon="12.3549570">
        <ele>1442.6000000</ele>
        <time>2010-09-29T12:19:44Z</time>
      </trkpt>
      <trkpt lat="46.0522820" lon="12.3548730">
        <ele>1443.0800000</ele>
        <time>2010-09-29T12:19:51Z</time>
      </trkpt>
      <trkpt lat="46.0522720" lon="12.3548170">
        <ele>1443.5600000</ele>
        <time>2010-09-29T12:19:59Z</time>
      </trkpt>
      <trkpt lat="46.0522300" lon="12.3547110">
        <ele>1444.0400000</ele>
        <time>2010-09-29T12:20:06Z</time>
      </trkpt>
      <trkpt lat="46.0522360" lon="12.3545800">
        <ele>1444.0400000</ele>
        <time>2010-09-29T12:20:13Z</time>
      </trkpt>
      <trkpt lat="46.0521980" lon="12.3544610">
        <ele>1444.5200000</ele>
        <time>2010-09-29T12:20:19Z</time>
      </trkpt>
      <trkpt lat="46.0521810" lon="12.3543420">
        <ele>1444.5200000</ele>
        <time>2010-09-29T12:20:27Z</time>
      </trkpt>
      <trkpt lat="46.0521640" lon="12.3543340">
        <ele>1445.4800000</ele>
        <time>2010-09-29T12:20:34Z</time>
      </trkpt>
      <trkpt lat="46.0521500" lon="12.3543030">
        <ele>1445.4800000</ele>
        <time>2010-09-29T12:20:37Z</time>
      </trkpt>
      <trkpt lat="46.0521410" lon="12.3542340">
        <ele>1446.4400000</ele>
        <time>2010-09-29T12:20:44Z</time>
      </trkpt>
      <trkpt lat="46.0521150" lon="12.3541650">
        <ele>1445.4800000</ele>
        <time>2010-09-29T12:20:50Z</time>
      </trkpt>
      <trkpt lat="46.0521130" lon="12.3541360">
        <ele>1445.0000000</ele>
        <time>2010-09-29T12:20:55Z</time>
      </trkpt>
      <trkpt lat="46.0521000" lon="12.3541010">
        <ele>1443.5600000</ele>
        <time>2010-09-29T12:21:01Z</time>
      </trkpt>
      <trkpt lat="46.0521060" lon="12.3540430">
        <ele>1446.9200000</ele>
        <time>2010-09-29T12:21:06Z</time>
      </trkpt>
      <trkpt lat="46.0520850" lon="12.3539210">
        <ele>1446.4400000</ele>
        <time>2010-09-29T12:21:13Z</time>
      </trkpt>
      <trkpt lat="46.0520560" lon="12.3538790">
        <ele>1447.4000000</ele>
        <time>2010-09-29T12:21:19Z</time>
      </trkpt>
      <trkpt lat="46.0520120" lon="12.3537980">
        <ele>1447.4000000</ele>
        <time>2010-09-29T12:21:25Z</time>
      </trkpt>
      <trkpt lat="46.0519920" lon="12.3537540">
        <ele>1446.9200000</ele>
        <time>2010-09-29T12:21:31Z</time>
      </trkpt>
      <trkpt lat="46.0519950" lon="12.3536980">
        <ele>1448.3600000</ele>
        <time>2010-09-29T12:21:41Z</time>
      </trkpt>
      <trkpt lat="46.0520000" lon="12.3536440">
        <ele>1448.8400000</ele>
        <time>2010-09-29T12:21:47Z</time>
      </trkpt>
      <trkpt lat="46.0519770" lon="12.3535020">
        <ele>1448.3600000</ele>
        <time>2010-09-29T12:21:54Z</time>
      </trkpt>
      <trkpt lat="46.0519160" lon="12.3533230">
        <ele>1449.3200000</ele>
        <time>2010-09-29T12:22:09Z</time>
      </trkpt>
      <trkpt lat="46.0518790" lon="12.3532220">
        <ele>1449.8100000</ele>
        <time>2010-09-29T12:22:18Z</time>
      </trkpt>
      <trkpt lat="46.0518900" lon="12.3532090">
        <ele>1451.7300000</ele>
        <time>2010-09-29T12:22:32Z</time>
      </trkpt>
      <trkpt lat="46.0519290" lon="12.3530760">
        <ele>1454.1300000</ele>
        <time>2010-09-29T12:22:44Z</time>
      </trkpt>
      <trkpt lat="46.0519470" lon="12.3530090">
        <ele>1453.1700000</ele>
        <time>2010-09-29T12:22:54Z</time>
      </trkpt>
      <trkpt lat="46.0519030" lon="12.3527770">
        <ele>1454.6100000</ele>
        <time>2010-09-29T12:23:00Z</time>
      </trkpt>
      <trkpt lat="46.0518500" lon="12.3526740">
        <ele>1454.6100000</ele>
        <time>2010-09-29T12:23:05Z</time>
      </trkpt>
      <trkpt lat="46.0518730" lon="12.3526590">
        <ele>1455.0900000</ele>
        <time>2010-09-29T12:23:13Z</time>
      </trkpt>
      <trkpt lat="46.0518930" lon="12.3526280">
        <ele>1455.5700000</ele>
        <time>2010-09-29T12:23:17Z</time>
      </trkpt>
      <trkpt lat="46.0518570" lon="12.3525570">
        <ele>1456.5300000</ele>
        <time>2010-09-29T12:23:24Z</time>
      </trkpt>
      <trkpt lat="46.0518410" lon="12.3524990">
        <ele>1455.5700000</ele>
        <time>2010-09-29T12:23:29Z</time>
      </trkpt>
      <trkpt lat="46.0518400" lon="12.3524750">
        <ele>1456.5300000</ele>
        <time>2010-09-29T12:23:31Z</time>
      </trkpt>
      <trkpt lat="46.0517820" lon="12.3523610">
        <ele>1456.0500000</ele>
        <time>2010-09-29T12:23:38Z</time>
      </trkpt>
      <trkpt lat="46.0517710" lon="12.3522940">
        <ele>1456.5300000</ele>
        <time>2010-09-29T12:23:44Z</time>
      </trkpt>
      <trkpt lat="46.0517880" lon="12.3522450">
        <ele>1456.5300000</ele>
        <time>2010-09-29T12:23:50Z</time>
      </trkpt>
      <trkpt lat="46.0518140" lon="12.3522220">
        <ele>1457.5000000</ele>
        <time>2010-09-29T12:23:56Z</time>
      </trkpt>
      <trkpt lat="46.0517620" lon="12.3521290">
        <ele>1457.0200000</ele>
        <time>2010-09-29T12:24:01Z</time>
      </trkpt>
      <trkpt lat="46.0517340" lon="12.3521060">
        <ele>1457.5000000</ele>
        <time>2010-09-29T12:24:04Z</time>
      </trkpt>
      <trkpt lat="46.0516640" lon="12.3519700">
        <ele>1457.5000000</ele>
        <time>2010-09-29T12:24:11Z</time>
      </trkpt>
      <trkpt lat="46.0517120" lon="12.3519110">
        <ele>1457.5000000</ele>
        <time>2010-09-29T12:24:27Z</time>
      </trkpt>
      <trkpt lat="46.0516840" lon="12.3518750">
        <ele>1458.4600000</ele>
        <time>2010-09-29T12:24:33Z</time>
      </trkpt>
      <trkpt lat="46.0516710" lon="12.3518320">
        <ele>1459.4200000</ele>
        <time>2010-09-29T12:24:39Z</time>
      </trkpt>
      <trkpt lat="46.0516830" lon="12.3517660">
        <ele>1462.3000000</ele>
        <time>2010-09-29T12:24:56Z</time>
      </trkpt>
      <trkpt lat="46.0516740" lon="12.3517030">
        <ele>1463.2600000</ele>
        <time>2010-09-29T12:25:07Z</time>
      </trkpt>
      <trkpt lat="46.0517040" lon="12.3516060">
        <ele>1466.1500000</ele>
        <time>2010-09-29T12:25:26Z</time>
      </trkpt>
      <trkpt lat="46.0516810" lon="12.3514870">
        <ele>1466.6300000</ele>
        <time>2010-09-29T12:25:35Z</time>
      </trkpt>
      <trkpt lat="46.0516390" lon="12.3514180">
        <ele>1467.1100000</ele>
        <time>2010-09-29T12:25:44Z</time>
      </trkpt>
      <trkpt lat="46.0515950" lon="12.3513760">
        <ele>1473.3600000</ele>
        <time>2010-09-29T12:25:48Z</time>
      </trkpt>
      <trkpt lat="46.0515890" lon="12.3513740">
        <ele>1467.5900000</ele>
        <time>2010-09-29T12:25:49Z</time>
      </trkpt>
      <trkpt lat="46.0514220" lon="12.3513360">
        <ele>1467.5900000</ele>
        <time>2010-09-29T12:26:19Z</time>
      </trkpt>
      <trkpt lat="46.0514440" lon="12.3506420">
        <ele>1469.5100000</ele>
        <time>2010-09-29T12:26:59Z</time>
      </trkpt>
      <trkpt lat="46.0513230" lon="12.3505740">
        <ele>1470.4700000</ele>
        <time>2010-09-29T12:27:04Z</time>
      </trkpt>
      <trkpt lat="46.0513780" lon="12.3505930">
        <ele>1470.4700000</ele>
        <time>2010-09-29T12:27:10Z</time>
      </trkpt>
      <trkpt lat="46.0514350" lon="12.3505350">
        <ele>1471.4400000</ele>
        <time>2010-09-29T12:27:17Z</time>
      </trkpt>
      <trkpt lat="46.0514260" lon="12.3505090">
        <ele>1472.4000000</ele>
        <time>2010-09-29T12:27:24Z</time>
      </trkpt>
      <trkpt lat="46.0513660" lon="12.3504050">
        <ele>1470.4700000</ele>
        <time>2010-09-29T12:27:30Z</time>
      </trkpt>
      <trkpt lat="46.0513140" lon="12.3503470">
        <ele>1470.9500000</ele>
        <time>2010-09-29T12:27:38Z</time>
      </trkpt>
      <trkpt lat="46.0512610" lon="12.3502490">
        <ele>1470.4700000</ele>
        <time>2010-09-29T12:27:45Z</time>
      </trkpt>
      <trkpt lat="46.0512390" lon="12.3501910">
        <ele>1469.9900000</ele>
        <time>2010-09-29T12:27:50Z</time>
      </trkpt>
      <trkpt lat="46.0512400" lon="12.3501050">
        <ele>1471.9200000</ele>
        <time>2010-09-29T12:27:56Z</time>
      </trkpt>
      <trkpt lat="46.0512500" lon="12.3500210">
        <ele>1470.9500000</ele>
        <time>2010-09-29T12:28:02Z</time>
      </trkpt>
      <trkpt lat="46.0512540" lon="12.3499300">
        <ele>1470.4700000</ele>
        <time>2010-09-29T12:28:06Z</time>
      </trkpt>
      <trkpt lat="46.0512270" lon="12.3498410">
        <ele>1470.9500000</ele>
        <time>2010-09-29T12:28:11Z</time>
      </trkpt>
      <trkpt lat="46.0511800" lon="12.3497540">
        <ele>1471.4400000</ele>
        <time>2010-09-29T12:28:19Z</time>
      </trkpt>
      <trkpt lat="46.0511860" lon="12.3497020">
        <ele>1470.9500000</ele>
        <time>2010-09-29T12:28:26Z</time>
      </trkpt>
      <trkpt lat="46.0511390" lon="12.3496130">
        <ele>1470.9500000</ele>
        <time>2010-09-29T12:28:33Z</time>
      </trkpt>
      <trkpt lat="46.0511110" lon="12.3495580">
        <ele>1469.9900000</ele>
        <time>2010-09-29T12:28:38Z</time>
      </trkpt>
      <trkpt lat="46.0511070" lon="12.3494940">
        <ele>1469.9900000</ele>
        <time>2010-09-29T12:28:44Z</time>
      </trkpt>
      <trkpt lat="46.0511100" lon="12.3494430">
        <ele>1471.4400000</ele>
        <time>2010-09-29T12:28:51Z</time>
      </trkpt>
      <trkpt lat="46.0510610" lon="12.3494120">
        <ele>1471.4400000</ele>
        <time>2010-09-29T12:28:57Z</time>
      </trkpt>
      <trkpt lat="46.0510770" lon="12.3493840">
        <ele>1472.4000000</ele>
        <time>2010-09-29T12:29:03Z</time>
      </trkpt>
      <trkpt lat="46.0510880" lon="12.3492420">
        <ele>1472.4000000</ele>
        <time>2010-09-29T12:29:10Z</time>
      </trkpt>
      <trkpt lat="46.0510280" lon="12.3491590">
        <ele>1471.9200000</ele>
        <time>2010-09-29T12:29:19Z</time>
      </trkpt>
      <trkpt lat="46.0509980" lon="12.3490920">
        <ele>1471.4400000</ele>
        <time>2010-09-29T12:29:28Z</time>
      </trkpt>
      <trkpt lat="46.0510150" lon="12.3490180">
        <ele>1473.8400000</ele>
        <time>2010-09-29T12:29:40Z</time>
      </trkpt>
      <trkpt lat="46.0510150" lon="12.3490180">
        <ele>1475.2800000</ele>
        <time>2010-09-29T12:29:41Z</time>
      </trkpt>
      <trkpt lat="46.0510330" lon="12.3489560">
        <ele>1475.7600000</ele>
        <time>2010-09-29T12:29:55Z</time>
      </trkpt>
      <trkpt lat="46.0510010" lon="12.3488480">
        <ele>1475.7600000</ele>
        <time>2010-09-29T12:30:06Z</time>
      </trkpt>
      <trkpt lat="46.0509850" lon="12.3487690">
        <ele>1475.7600000</ele>
        <time>2010-09-29T12:30:12Z</time>
      </trkpt>
      <trkpt lat="46.0509610" lon="12.3487290">
        <ele>1476.7200000</ele>
        <time>2010-09-29T12:30:18Z</time>
      </trkpt>
      <trkpt lat="46.0509200" lon="12.3486370">
        <ele>1477.2000000</ele>
        <time>2010-09-29T12:30:25Z</time>
      </trkpt>
      <trkpt lat="46.0509080" lon="12.3485510">
        <ele>1477.2000000</ele>
        <time>2010-09-29T12:30:31Z</time>
      </trkpt>
      <trkpt lat="46.0509120" lon="12.3484790">
        <ele>1477.6800000</ele>
        <time>2010-09-29T12:30:41Z</time>
      </trkpt>
      <trkpt lat="46.0509140" lon="12.3484370">
        <ele>1478.1600000</ele>
        <time>2010-09-29T12:30:46Z</time>
      </trkpt>
      <trkpt lat="46.0509080" lon="12.3483870">
        <ele>1479.1300000</ele>
        <time>2010-09-29T12:30:54Z</time>
      </trkpt>
      <trkpt lat="46.0508270" lon="12.3482370">
        <ele>1479.1300000</ele>
        <time>2010-09-29T12:31:02Z</time>
      </trkpt>
      <trkpt lat="46.0508110" lon="12.3481690">
        <ele>1480.0900000</ele>
        <time>2010-09-29T12:31:11Z</time>
      </trkpt>
      <trkpt lat="46.0507730" lon="12.3481000">
        <ele>1480.5700000</ele>
        <time>2010-09-29T12:31:17Z</time>
      </trkpt>
      <trkpt lat="46.0507330" lon="12.3480120">
        <ele>1481.0500000</ele>
        <time>2010-09-29T12:31:24Z</time>
      </trkpt>
      <trkpt lat="46.0506770" lon="12.3478980">
        <ele>1480.0900000</ele>
        <time>2010-09-29T12:31:31Z</time>
      </trkpt>
      <trkpt lat="46.0506420" lon="12.3477980">
        <ele>1480.0900000</ele>
        <time>2010-09-29T12:31:38Z</time>
      </trkpt>
      <trkpt lat="46.0506240" lon="12.3477620">
        <ele>1481.0500000</ele>
        <time>2010-09-29T12:31:44Z</time>
      </trkpt>
      <trkpt lat="46.0506000" lon="12.3477080">
        <ele>1479.1300000</ele>
        <time>2010-09-29T12:31:50Z</time>
      </trkpt>
      <trkpt lat="46.0505660" lon="12.3476710">
        <ele>1480.5700000</ele>
        <time>2010-09-29T12:31:55Z</time>
      </trkpt>
      <trkpt lat="46.0505020" lon="12.3475690">
        <ele>1480.5700000</ele>
        <time>2010-09-29T12:32:03Z</time>
      </trkpt>
      <trkpt lat="46.0504880" lon="12.3475200">
        <ele>1480.5700000</ele>
        <time>2010-09-29T12:32:08Z</time>
      </trkpt>
      <trkpt lat="46.0504730" lon="12.3474510">
        <ele>1482.0100000</ele>
        <time>2010-09-29T12:32:13Z</time>
      </trkpt>
      <trkpt lat="46.0504220" lon="12.3473400">
        <ele>1481.5300000</ele>
        <time>2010-09-29T12:32:21Z</time>
      </trkpt>
      <trkpt lat="46.0504080" lon="12.3472840">
        <ele>1480.0900000</ele>
        <time>2010-09-29T12:32:26Z</time>
      </trkpt>
      <trkpt lat="46.0503820" lon="12.3472100">
        <ele>1479.1300000</ele>
        <time>2010-09-29T12:32:32Z</time>
      </trkpt>
      <trkpt lat="46.0503640" lon="12.3471770">
        <ele>1479.6100000</ele>
        <time>2010-09-29T12:32:39Z</time>
      </trkpt>
      <trkpt lat="46.0503090" lon="12.3469360">
        <ele>1481.0500000</ele>
        <time>2010-09-29T12:33:08Z</time>
      </trkpt>
      <trkpt lat="46.0502800" lon="12.3468720">
        <ele>1480.5700000</ele>
        <time>2010-09-29T12:33:15Z</time>
      </trkpt>
      <trkpt lat="46.0502270" lon="12.3467590">
        <ele>1480.0900000</ele>
        <time>2010-09-29T12:33:24Z</time>
      </trkpt>
      <trkpt lat="46.0501920" lon="12.3466930">
        <ele>1479.1300000</ele>
        <time>2010-09-29T12:33:33Z</time>
      </trkpt>
      <trkpt lat="46.0501800" lon="12.3466530">
        <ele>1478.1600000</ele>
        <time>2010-09-29T12:33:37Z</time>
      </trkpt>
      <trkpt lat="46.0501660" lon="12.3465280">
        <ele>1477.2000000</ele>
        <time>2010-09-29T12:33:45Z</time>
      </trkpt>
      <trkpt lat="46.0501430" lon="12.3464450">
        <ele>1476.7200000</ele>
        <time>2010-09-29T12:33:50Z</time>
      </trkpt>
      <trkpt lat="46.0501400" lon="12.3464380">
        <ele>1476.2400000</ele>
        <time>2010-09-29T12:33:52Z</time>
      </trkpt>
      <trkpt lat="46.0501320" lon="12.3463300">
        <ele>1475.7600000</ele>
        <time>2010-09-29T12:33:59Z</time>
      </trkpt>
      <trkpt lat="46.0501200" lon="12.3462700">
        <ele>1475.7600000</ele>
        <time>2010-09-29T12:34:05Z</time>
      </trkpt>
      <trkpt lat="46.0500990" lon="12.3461530">
        <ele>1475.7600000</ele>
        <time>2010-09-29T12:34:12Z</time>
      </trkpt>
      <trkpt lat="46.0501030" lon="12.3460720">
        <ele>1475.2800000</ele>
        <time>2010-09-29T12:34:17Z</time>
      </trkpt>
      <trkpt lat="46.0501190" lon="12.3460170">
        <ele>1475.7600000</ele>
        <time>2010-09-29T12:34:22Z</time>
      </trkpt>
      <trkpt lat="46.0501080" lon="12.3459500">
        <ele>1475.2800000</ele>
        <time>2010-09-29T12:34:29Z</time>
      </trkpt>
      <trkpt lat="46.0501040" lon="12.3458800">
        <ele>1475.2800000</ele>
        <time>2010-09-29T12:34:35Z</time>
      </trkpt>
      <trkpt lat="46.0501040" lon="12.3458600">
        <ele>1475.7600000</ele>
        <time>2010-09-29T12:34:36Z</time>
      </trkpt>
      <trkpt lat="46.0501060" lon="12.3458450">
        <ele>1475.2800000</ele>
        <time>2010-09-29T12:34:37Z</time>
      </trkpt>
      <trkpt lat="46.0501250" lon="12.3457320">
        <ele>1474.8000000</ele>
        <time>2010-09-29T12:34:43Z</time>
      </trkpt>
      <trkpt lat="46.0501290" lon="12.3456760">
        <ele>1475.2800000</ele>
        <time>2010-09-29T12:34:50Z</time>
      </trkpt>
      <trkpt lat="46.0501060" lon="12.3455370">
        <ele>1475.2800000</ele>
        <time>2010-09-29T12:34:57Z</time>
      </trkpt>
      <trkpt lat="46.0500930" lon="12.3454340">
        <ele>1475.2800000</ele>
        <time>2010-09-29T12:35:04Z</time>
      </trkpt>
      <trkpt lat="46.0500480" lon="12.3453670">
        <ele>1475.2800000</ele>
        <time>2010-09-29T12:35:09Z</time>
      </trkpt>
      <trkpt lat="46.0500150" lon="12.3452240">
        <ele>1474.8000000</ele>
        <time>2010-09-29T12:35:16Z</time>
      </trkpt>
      <trkpt lat="46.0500170" lon="12.3451290">
        <ele>1475.2800000</ele>
        <time>2010-09-29T12:35:23Z</time>
      </trkpt>
      <trkpt lat="46.0500130" lon="12.3450990">
        <ele>1475.7600000</ele>
        <time>2010-09-29T12:35:25Z</time>
      </trkpt>
      <trkpt lat="46.0499860" lon="12.3450350">
        <ele>1473.8400000</ele>
        <time>2010-09-29T12:35:30Z</time>
      </trkpt>
      <trkpt lat="46.0499740" lon="12.3449260">
        <ele>1473.3600000</ele>
        <time>2010-09-29T12:35:38Z</time>
      </trkpt>
      <trkpt lat="46.0499920" lon="12.3448950">
        <ele>1474.8000000</ele>
        <time>2010-09-29T12:35:50Z</time>
      </trkpt>
      <trkpt lat="46.0499830" lon="12.3447490">
        <ele>1473.3600000</ele>
        <time>2010-09-29T12:35:59Z</time>
      </trkpt>
      <trkpt lat="46.0499720" lon="12.3447150">
        <ele>1472.4000000</ele>
        <time>2010-09-29T12:36:06Z</time>
      </trkpt>
      <trkpt lat="46.0499720" lon="12.3447150">
        <ele>1471.9200000</ele>
        <time>2010-09-29T12:36:08Z</time>
      </trkpt>
      <trkpt lat="46.0499440" lon="12.3446670">
        <ele>1470.4700000</ele>
        <time>2010-09-29T12:36:11Z</time>
      </trkpt>
      <trkpt lat="46.0499180" lon="12.3445970">
        <ele>1469.0300000</ele>
        <time>2010-09-29T12:36:15Z</time>
      </trkpt>
      <trkpt lat="46.0499040" lon="12.3445460">
        <ele>1470.4700000</ele>
        <time>2010-09-29T12:36:17Z</time>
      </trkpt>
      <trkpt lat="46.0498850" lon="12.3444730">
        <ele>1468.5500000</ele>
        <time>2010-09-29T12:36:23Z</time>
      </trkpt>
      <trkpt lat="46.0498830" lon="12.3443690">
        <ele>1468.0700000</ele>
        <time>2010-09-29T12:36:30Z</time>
      </trkpt>
      <trkpt lat="46.0498850" lon="12.3442760">
        <ele>1468.5500000</ele>
        <time>2010-09-29T12:36:36Z</time>
      </trkpt>
      <trkpt lat="46.0498950" lon="12.3441230">
        <ele>1467.5900000</ele>
        <time>2010-09-29T12:36:50Z</time>
      </trkpt>
      <trkpt lat="46.0498910" lon="12.3439970">
        <ele>1467.5900000</ele>
        <time>2010-09-29T12:36:57Z</time>
      </trkpt>
      <trkpt lat="46.0498800" lon="12.3439360">
        <ele>1467.1100000</ele>
        <time>2010-09-29T12:37:03Z</time>
      </trkpt>
      <trkpt lat="46.0498990" lon="12.3438020">
        <ele>1467.5900000</ele>
        <time>2010-09-29T12:37:10Z</time>
      </trkpt>
      <trkpt lat="46.0499060" lon="12.3437340">
        <ele>1468.0700000</ele>
        <time>2010-09-29T12:37:16Z</time>
      </trkpt>
      <trkpt lat="46.0498860" lon="12.3436870">
        <ele>1469.0300000</ele>
        <time>2010-09-29T12:37:22Z</time>
      </trkpt>
      <trkpt lat="46.0499070" lon="12.3435050">
        <ele>1469.0300000</ele>
        <time>2010-09-29T12:37:48Z</time>
      </trkpt>
      <trkpt lat="46.0499380" lon="12.3434160">
        <ele>1469.9900000</ele>
        <time>2010-09-29T12:37:55Z</time>
      </trkpt>
      <trkpt lat="46.0499410" lon="12.3433380">
        <ele>1470.4700000</ele>
        <time>2010-09-29T12:38:01Z</time>
      </trkpt>
      <trkpt lat="46.0499290" lon="12.3432470">
        <ele>1470.4700000</ele>
        <time>2010-09-29T12:38:07Z</time>
      </trkpt>
      <trkpt lat="46.0499490" lon="12.3431370">
        <ele>1471.9200000</ele>
        <time>2010-09-29T12:38:16Z</time>
      </trkpt>
      <trkpt lat="46.0499490" lon="12.3431170">
        <ele>1470.9500000</ele>
        <time>2010-09-29T12:38:18Z</time>
      </trkpt>
      <trkpt lat="46.0499470" lon="12.3430240">
        <ele>1471.4400000</ele>
        <time>2010-09-29T12:38:23Z</time>
      </trkpt>
      <trkpt lat="46.0499330" lon="12.3429520">
        <ele>1472.8800000</ele>
        <time>2010-09-29T12:38:30Z</time>
      </trkpt>
      <trkpt lat="46.0499170" lon="12.3428050">
        <ele>1472.4000000</ele>
        <time>2010-09-29T12:38:38Z</time>
      </trkpt>
      <trkpt lat="46.0499130" lon="12.3427620">
        <ele>1473.3600000</ele>
        <time>2010-09-29T12:38:45Z</time>
      </trkpt>
      <trkpt lat="46.0498980" lon="12.3426720">
        <ele>1473.3600000</ele>
        <time>2010-09-29T12:38:53Z</time>
      </trkpt>
      <trkpt lat="46.0498740" lon="12.3426070">
        <ele>1473.8400000</ele>
        <time>2010-09-29T12:38:56Z</time>
      </trkpt>
      <trkpt lat="46.0498710" lon="12.3425310">
        <ele>1474.3200000</ele>
        <time>2010-09-29T12:39:02Z</time>
      </trkpt>
      <trkpt lat="46.0498590" lon="12.3424880">
        <ele>1474.8000000</ele>
        <time>2010-09-29T12:39:08Z</time>
      </trkpt>
      <trkpt lat="46.0498330" lon="12.3424100">
        <ele>1475.2800000</ele>
        <time>2010-09-29T12:39:15Z</time>
      </trkpt>
      <trkpt lat="46.0498240" lon="12.3423930">
        <ele>1475.2800000</ele>
        <time>2010-09-29T12:39:16Z</time>
      </trkpt>
      <trkpt lat="46.0497830" lon="12.3423280">
        <ele>1476.7200000</ele>
        <time>2010-09-29T12:39:23Z</time>
      </trkpt>
      <trkpt lat="46.0497980" lon="12.3422770">
        <ele>1476.7200000</ele>
        <time>2010-09-29T12:39:30Z</time>
      </trkpt>
      <trkpt lat="46.0498260" lon="12.3422210">
        <ele>1478.1600000</ele>
        <time>2010-09-29T12:39:36Z</time>
      </trkpt>
      <trkpt lat="46.0498510" lon="12.3421430">
        <ele>1478.1600000</ele>
        <time>2010-09-29T12:39:43Z</time>
      </trkpt>
      <trkpt lat="46.0498000" lon="12.3420310">
        <ele>1478.6500000</ele>
        <time>2010-09-29T12:39:50Z</time>
      </trkpt>
      <trkpt lat="46.0497900" lon="12.3419980">
        <ele>1477.6800000</ele>
        <time>2010-09-29T12:39:55Z</time>
      </trkpt>
      <trkpt lat="46.0497760" lon="12.3420050">
        <ele>1478.1600000</ele>
        <time>2010-09-29T12:40:01Z</time>
      </trkpt>
      <trkpt lat="46.0497260" lon="12.3420190">
        <ele>1477.6800000</ele>
        <time>2010-09-29T12:40:39Z</time>
      </trkpt>
      <trkpt lat="46.0497260" lon="12.3420250">
        <ele>1477.6800000</ele>
        <time>2010-09-29T12:40:48Z</time>
      </trkpt>
      <trkpt lat="46.0497290" lon="12.3420310">
        <ele>1477.6800000</ele>
        <time>2010-09-29T12:41:29Z</time>
      </trkpt>
      <trkpt lat="46.0497320" lon="12.3420240">
        <ele>1477.6800000</ele>
        <time>2010-09-29T12:41:30Z</time>
      </trkpt>
      <trkpt lat="46.0497390" lon="12.3420090">
        <ele>1477.6800000</ele>
        <time>2010-09-29T12:41:37Z</time>
      </trkpt>
      <trkpt lat="46.0497570" lon="12.3420290">
        <ele>1476.2400000</ele>
        <time>2010-09-29T12:44:10Z</time>
      </trkpt>
      <trkpt lat="46.0497330" lon="12.3419990">
        <ele>1472.4000000</ele>
        <time>2010-09-29T12:44:50Z</time>
      </trkpt>
      <trkpt lat="46.0497290" lon="12.3420130">
        <ele>1476.7200000</ele>
        <time>2010-09-29T12:44:51Z</time>
      </trkpt>
      <trkpt lat="46.0497230" lon="12.3420530">
        <ele>1477.2000000</ele>
        <time>2010-09-29T12:44:59Z</time>
      </trkpt>
      <trkpt lat="46.0498100" lon="12.3420910">
        <ele>1476.2400000</ele>
        <time>2010-09-29T12:45:11Z</time>
      </trkpt>
      <trkpt lat="46.0497730" lon="12.3421030">
        <ele>1477.6800000</ele>
        <time>2010-09-29T12:49:00Z</time>
      </trkpt>
      <trkpt lat="46.0497780" lon="12.3421270">
        <ele>1476.2400000</ele>
        <time>2010-09-29T12:49:02Z</time>
      </trkpt>
      <trkpt lat="46.0497250" lon="12.3420390">
        <ele>1473.3600000</ele>
        <time>2010-09-29T12:56:29Z</time>
      </trkpt>
      <trkpt lat="46.0497180" lon="12.3419780">
        <ele>1472.4000000</ele>
        <time>2010-09-29T13:02:04Z</time>
      </trkpt>
      <trkpt lat="46.0497180" lon="12.3419780">
        <ele>1468.5500000</ele>
        <time>2010-09-29T13:02:09Z</time>
      </trkpt>
      <trkpt lat="46.0497180" lon="12.3419780">
        <ele>1473.8400000</ele>
        <time>2010-09-29T13:02:10Z</time>
      </trkpt>
      <trkpt lat="46.0497140" lon="12.3419770">
        <ele>1470.4700000</ele>
        <time>2010-09-29T13:03:37Z</time>
      </trkpt>
      <trkpt lat="46.0497070" lon="12.3419850">
        <ele>1465.1900000</ele>
        <time>2010-09-29T13:03:50Z</time>
      </trkpt>
      <trkpt lat="46.0497070" lon="12.3419850">
        <ele>1473.3600000</ele>
        <time>2010-09-29T13:03:51Z</time>
      </trkpt>
      <trkpt lat="46.0497190" lon="12.3420490">
        <ele>1469.9900000</ele>
        <time>2010-09-29T13:06:45Z</time>
      </trkpt>
      <trkpt lat="46.0497210" lon="12.3420930">
        <ele>1471.4400000</ele>
        <time>2010-09-29T13:06:48Z</time>
      </trkpt>
      <trkpt lat="46.0497030" lon="12.3421280">
        <ele>1471.9200000</ele>
        <time>2010-09-29T13:07:24Z</time>
      </trkpt>
      <trkpt lat="46.0496950" lon="12.3421310">
        <ele>1470.4700000</ele>
        <time>2010-09-29T13:07:47Z</time>
      </trkpt>
      <trkpt lat="46.0496920" lon="12.3420730">
        <ele>1471.4400000</ele>
        <time>2010-09-29T13:08:26Z</time>
      </trkpt>
      <trkpt lat="46.0497090" lon="12.3420650">
        <ele>1471.9200000</ele>
        <time>2010-09-29T13:09:01Z</time>
      </trkpt>
      <trkpt lat="46.0497120" lon="12.3420520">
        <ele>1471.4400000</ele>
        <time>2010-09-29T13:09:05Z</time>
      </trkpt>
      <trkpt lat="46.0496930" lon="12.3420660">
        <ele>1471.4400000</ele>
        <time>2010-09-29T13:09:13Z</time>
      </trkpt>
      <trkpt lat="46.0496830" lon="12.3420850">
        <ele>1471.4400000</ele>
        <time>2010-09-29T13:09:18Z</time>
      </trkpt>
      <trkpt lat="46.0496830" lon="12.3420850">
        <ele>1471.4400000</ele>
        <time>2010-09-29T13:09:46Z</time>
      </trkpt>
      <trkpt lat="46.0496840" lon="12.3420150">
        <ele>1472.4000000</ele>
        <time>2010-09-29T13:09:52Z</time>
      </trkpt>
      <trkpt lat="46.0496890" lon="12.3420030">
        <ele>1471.4400000</ele>
        <time>2010-09-29T13:09:59Z</time>
      </trkpt>
      <trkpt lat="46.0496930" lon="12.3420110">
        <ele>1470.4700000</ele>
        <time>2010-09-29T13:10:18Z</time>
      </trkpt>
      <trkpt lat="46.0497010" lon="12.3420170">
        <ele>1471.4400000</ele>
        <time>2010-09-29T13:10:25Z</time>
      </trkpt>
      <trkpt lat="46.0497050" lon="12.3420220">
        <ele>1471.4400000</ele>
        <time>2010-09-29T13:10:33Z</time>
      </trkpt>
      <trkpt lat="46.0497050" lon="12.3420220">
        <ele>1471.9200000</ele>
        <time>2010-09-29T13:10:58Z</time>
      </trkpt>
      <trkpt lat="46.0497060" lon="12.3420290">
        <ele>1471.4400000</ele>
        <time>2010-09-29T13:11:27Z</time>
      </trkpt>
      <trkpt lat="46.0497070" lon="12.3420900">
        <ele>1471.4400000</ele>
        <time>2010-09-29T13:11:33Z</time>
      </trkpt>
      <trkpt lat="46.0497430" lon="12.3421770">
        <ele>1469.9900000</ele>
        <time>2010-09-29T13:11:39Z</time>
      </trkpt>
      <trkpt lat="46.0497380" lon="12.3421980">
        <ele>1469.9900000</ele>
        <time>2010-09-29T13:11:42Z</time>
      </trkpt>
      <trkpt lat="46.0497160" lon="12.3422130">
        <ele>1471.4400000</ele>
        <time>2010-09-29T13:11:45Z</time>
      </trkpt>
      <trkpt lat="46.0497000" lon="12.3422070">
        <ele>1470.4700000</ele>
        <time>2010-09-29T13:11:48Z</time>
      </trkpt>
      <trkpt lat="46.0496600" lon="12.3421440">
        <ele>1467.1100000</ele>
        <time>2010-09-29T13:11:53Z</time>
      </trkpt>
      <trkpt lat="46.0496360" lon="12.3421100">
        <ele>1468.5500000</ele>
        <time>2010-09-29T13:11:56Z</time>
      </trkpt>
      <trkpt lat="46.0496150" lon="12.3420370">
        <ele>1467.1100000</ele>
        <time>2010-09-29T13:12:04Z</time>
      </trkpt>
      <trkpt lat="46.0496120" lon="12.3420190">
        <ele>1463.2600000</ele>
        <time>2010-09-29T13:12:06Z</time>
      </trkpt>
      <trkpt lat="46.0496030" lon="12.3419940">
        <ele>1467.1100000</ele>
        <time>2010-09-29T13:12:09Z</time>
      </trkpt>
      <trkpt lat="46.0495990" lon="12.3419840">
        <ele>1466.1500000</ele>
        <time>2010-09-29T13:12:10Z</time>
      </trkpt>
      <trkpt lat="46.0495840" lon="12.3419360">
        <ele>1465.1900000</ele>
        <time>2010-09-29T13:12:14Z</time>
      </trkpt>
      <trkpt lat="46.0495820" lon="12.3419240">
        <ele>1463.2600000</ele>
        <time>2010-09-29T13:12:15Z</time>
      </trkpt>
      <trkpt lat="46.0495590" lon="12.3418840">
        <ele>1466.1500000</ele>
        <time>2010-09-29T13:12:19Z</time>
      </trkpt>
      <trkpt lat="46.0495360" lon="12.3418150">
        <ele>1464.7100000</ele>
        <time>2010-09-29T13:12:25Z</time>
      </trkpt>
      <trkpt lat="46.0495190" lon="12.3418700">
        <ele>1464.7100000</ele>
        <time>2010-09-29T13:12:41Z</time>
      </trkpt>
      <trkpt lat="46.0495190" lon="12.3418700">
        <ele>1465.1900000</ele>
        <time>2010-09-29T13:12:53Z</time>
      </trkpt>
      <trkpt lat="46.0495390" lon="12.3419310">
        <ele>1465.6700000</ele>
        <time>2010-09-29T13:12:58Z</time>
      </trkpt>
      <trkpt lat="46.0495590" lon="12.3419790">
        <ele>1465.1900000</ele>
        <time>2010-09-29T13:13:02Z</time>
      </trkpt>
      <trkpt lat="46.0495890" lon="12.3419890">
        <ele>1466.6300000</ele>
        <time>2010-09-29T13:13:06Z</time>
      </trkpt>
      <trkpt lat="46.0496220" lon="12.3419190">
        <ele>1468.0700000</ele>
        <time>2010-09-29T13:13:13Z</time>
      </trkpt>
      <trkpt lat="46.0496330" lon="12.3418180">
        <ele>1469.0300000</ele>
        <time>2010-09-29T13:13:20Z</time>
      </trkpt>
      <trkpt lat="46.0496330" lon="12.3417570">
        <ele>1469.9900000</ele>
        <time>2010-09-29T13:13:26Z</time>
      </trkpt>
      <trkpt lat="46.0496370" lon="12.3417080">
        <ele>1471.4400000</ele>
        <time>2010-09-29T13:13:32Z</time>
      </trkpt>
      <trkpt lat="46.0496480" lon="12.3416030">
        <ele>1471.9200000</ele>
        <time>2010-09-29T13:13:39Z</time>
      </trkpt>
      <trkpt lat="46.0496440" lon="12.3415720">
        <ele>1471.4400000</ele>
        <time>2010-09-29T13:13:47Z</time>
      </trkpt>
      <trkpt lat="46.0496410" lon="12.3415330">
        <ele>1472.4000000</ele>
        <time>2010-09-29T13:13:53Z</time>
      </trkpt>
      <trkpt lat="46.0496360" lon="12.3415230">
        <ele>1471.9200000</ele>
        <time>2010-09-29T13:14:02Z</time>
      </trkpt>
      <trkpt lat="46.0496080" lon="12.3415920">
        <ele>1470.9500000</ele>
        <time>2010-09-29T13:14:08Z</time>
      </trkpt>
      <trkpt lat="46.0495930" lon="12.3416140">
        <ele>1471.9200000</ele>
        <time>2010-09-29T13:14:10Z</time>
      </trkpt>
      <trkpt lat="46.0495910" lon="12.3416140">
        <ele>1470.4700000</ele>
        <time>2010-09-29T13:14:27Z</time>
      </trkpt>
      <trkpt lat="46.0495900" lon="12.3416160">
        <ele>1470.4700000</ele>
        <time>2010-09-29T13:14:55Z</time>
      </trkpt>
      <trkpt lat="46.0495830" lon="12.3416480">
        <ele>1469.0300000</ele>
        <time>2010-09-29T13:15:23Z</time>
      </trkpt>
      <trkpt lat="46.0495830" lon="12.3416480">
        <ele>1469.9900000</ele>
        <time>2010-09-29T13:15:27Z</time>
      </trkpt>
      <trkpt lat="46.0496060" lon="12.3417410">
        <ele>1467.1100000</ele>
        <time>2010-09-29T13:15:32Z</time>
      </trkpt>
      <trkpt lat="46.0495920" lon="12.3417740">
        <ele>1466.1500000</ele>
        <time>2010-09-29T13:15:34Z</time>
      </trkpt>
      <trkpt lat="46.0495910" lon="12.3418530">
        <ele>1467.1100000</ele>
        <time>2010-09-29T13:15:39Z</time>
      </trkpt>
      <trkpt lat="46.0495850" lon="12.3418780">
        <ele>1468.5500000</ele>
        <time>2010-09-29T13:15:42Z</time>
      </trkpt>
      <trkpt lat="46.0495800" lon="12.3418860">
        <ele>1465.6700000</ele>
        <time>2010-09-29T13:15:43Z</time>
      </trkpt>
      <trkpt lat="46.0495360" lon="12.3419190">
        <ele>1466.1500000</ele>
        <time>2010-09-29T13:15:51Z</time>
      </trkpt>
      <trkpt lat="46.0495360" lon="12.3419190">
        <ele>1465.1900000</ele>
        <time>2010-09-29T13:15:55Z</time>
      </trkpt>
      <trkpt lat="46.0495350" lon="12.3419010">
        <ele>1466.6300000</ele>
        <time>2010-09-29T13:15:57Z</time>
      </trkpt>
      <trkpt lat="46.0495330" lon="12.3418820">
        <ele>1463.2600000</ele>
        <time>2010-09-29T13:15:59Z</time>
      </trkpt>
      <trkpt lat="46.0495120" lon="12.3418640">
        <ele>1465.1900000</ele>
        <time>2010-09-29T13:16:03Z</time>
      </trkpt>
      <trkpt lat="46.0494650" lon="12.3417680">
        <ele>1461.3400000</ele>
        <time>2010-09-29T13:16:09Z</time>
      </trkpt>
      <trkpt lat="46.0494510" lon="12.3417600">
        <ele>1461.3400000</ele>
        <time>2010-09-29T13:16:10Z</time>
      </trkpt>
      <trkpt lat="46.0494230" lon="12.3417200">
        <ele>1463.2600000</ele>
        <time>2010-09-29T13:16:14Z</time>
      </trkpt>
      <trkpt lat="46.0493160" lon="12.3417030">
        <ele>1461.3400000</ele>
        <time>2010-09-29T13:16:20Z</time>
      </trkpt>
      <trkpt lat="46.0492990" lon="12.3417110">
        <ele>1459.9000000</ele>
        <time>2010-09-29T13:16:21Z</time>
      </trkpt>
      <trkpt lat="46.0492730" lon="12.3417520">
        <ele>1461.3400000</ele>
        <time>2010-09-29T13:16:25Z</time>
      </trkpt>
      <trkpt lat="46.0492330" lon="12.3417720">
        <ele>1462.7800000</ele>
        <time>2010-09-29T13:16:28Z</time>
      </trkpt>
      <trkpt lat="46.0491830" lon="12.3418130">
        <ele>1459.4200000</ele>
        <time>2010-09-29T13:16:32Z</time>
      </trkpt>
      <trkpt lat="46.0491620" lon="12.3418280">
        <ele>1457.9800000</ele>
        <time>2010-09-29T13:16:34Z</time>
      </trkpt>
      <trkpt lat="46.0490990" lon="12.3418310">
        <ele>1460.3800000</ele>
        <time>2010-09-29T13:16:37Z</time>
      </trkpt>
      <trkpt lat="46.0489980" lon="12.3418130">
        <ele>1456.0500000</ele>
        <time>2010-09-29T13:16:41Z</time>
      </trkpt>
      <trkpt lat="46.0489660" lon="12.3418370">
        <ele>1459.4200000</ele>
        <time>2010-09-29T13:16:43Z</time>
      </trkpt>
      <trkpt lat="46.0489500" lon="12.3418490">
        <ele>1461.3400000</ele>
        <time>2010-09-29T13:16:44Z</time>
      </trkpt>
      <trkpt lat="46.0489250" lon="12.3418910">
        <ele>1456.5300000</ele>
        <time>2010-09-29T13:16:47Z</time>
      </trkpt>
      <trkpt lat="46.0489000" lon="12.3419750">
        <ele>1457.9800000</ele>
        <time>2010-09-29T13:16:53Z</time>
      </trkpt>
      <trkpt lat="46.0488730" lon="12.3420510">
        <ele>1454.6100000</ele>
        <time>2010-09-29T13:16:59Z</time>
      </trkpt>
      <trkpt lat="46.0488690" lon="12.3420720">
        <ele>1454.6100000</ele>
        <time>2010-09-29T13:17:00Z</time>
      </trkpt>
      <trkpt lat="46.0488360" lon="12.3421700">
        <ele>1454.6100000</ele>
        <time>2010-09-29T13:17:06Z</time>
      </trkpt>
      <trkpt lat="46.0488230" lon="12.3421970">
        <ele>1456.0500000</ele>
        <time>2010-09-29T13:17:23Z</time>
      </trkpt>
      <trkpt lat="46.0488230" lon="12.3421970">
        <ele>1455.5700000</ele>
        <time>2010-09-29T13:17:27Z</time>
      </trkpt>
      <trkpt lat="46.0487910" lon="12.3422220">
        <ele>1457.5000000</ele>
        <time>2010-09-29T13:17:30Z</time>
      </trkpt>
      <trkpt lat="46.0487640" lon="12.3422330">
        <ele>1453.6500000</ele>
        <time>2010-09-29T13:17:33Z</time>
      </trkpt>
      <trkpt lat="46.0487210" lon="12.3422330">
        <ele>1454.6100000</ele>
        <time>2010-09-29T13:17:37Z</time>
      </trkpt>
      <trkpt lat="46.0486370" lon="12.3422150">
        <ele>1457.0200000</ele>
        <time>2010-09-29T13:17:43Z</time>
      </trkpt>
      <trkpt lat="46.0485600" lon="12.3421820">
        <ele>1456.0500000</ele>
        <time>2010-09-29T13:17:49Z</time>
      </trkpt>
      <trkpt lat="46.0485420" lon="12.3421710">
        <ele>1454.1300000</ele>
        <time>2010-09-29T13:17:51Z</time>
      </trkpt>
      <trkpt lat="46.0484600" lon="12.3421940">
        <ele>1453.6500000</ele>
        <time>2010-09-29T13:17:57Z</time>
      </trkpt>
      <trkpt lat="46.0484290" lon="12.3422100">
        <ele>1453.6500000</ele>
        <time>2010-09-29T13:17:59Z</time>
      </trkpt>
      <trkpt lat="46.0483620" lon="12.3422520">
        <ele>1456.0500000</ele>
        <time>2010-09-29T13:18:06Z</time>
      </trkpt>
      <trkpt lat="46.0483210" lon="12.3423030">
        <ele>1456.5300000</ele>
        <time>2010-09-29T13:18:10Z</time>
      </trkpt>
      <trkpt lat="46.0482900" lon="12.3423240">
        <ele>1456.5300000</ele>
        <time>2010-09-29T13:18:12Z</time>
      </trkpt>
      <trkpt lat="46.0482320" lon="12.3424280">
        <ele>1457.0200000</ele>
        <time>2010-09-29T13:18:20Z</time>
      </trkpt>
      <trkpt lat="46.0481690" lon="12.3425130">
        <ele>1457.0200000</ele>
        <time>2010-09-29T13:18:26Z</time>
      </trkpt>
      <trkpt lat="46.0481270" lon="12.3425840">
        <ele>1457.0200000</ele>
        <time>2010-09-29T13:18:32Z</time>
      </trkpt>
      <trkpt lat="46.0480760" lon="12.3426120">
        <ele>1457.0200000</ele>
        <time>2010-09-29T13:18:38Z</time>
      </trkpt>
      <trkpt lat="46.0479920" lon="12.3426080">
        <ele>1458.4600000</ele>
        <time>2010-09-29T13:18:45Z</time>
      </trkpt>
      <trkpt lat="46.0479610" lon="12.3426240">
        <ele>1457.9800000</ele>
        <time>2010-09-29T13:18:52Z</time>
      </trkpt>
      <trkpt lat="46.0479210" lon="12.3426000">
        <ele>1458.4600000</ele>
        <time>2010-09-29T13:18:59Z</time>
      </trkpt>
      <trkpt lat="46.0478980" lon="12.3425960">
        <ele>1457.5000000</ele>
        <time>2010-09-29T13:19:02Z</time>
      </trkpt>
      <trkpt lat="46.0478520" lon="12.3425480">
        <ele>1458.4600000</ele>
        <time>2010-09-29T13:19:08Z</time>
      </trkpt>
      <trkpt lat="46.0478410" lon="12.3425390">
        <ele>1458.9400000</ele>
        <time>2010-09-29T13:19:09Z</time>
      </trkpt>
      <trkpt lat="46.0477830" lon="12.3424910">
        <ele>1458.4600000</ele>
        <time>2010-09-29T13:19:15Z</time>
      </trkpt>
      <trkpt lat="46.0477400" lon="12.3424750">
        <ele>1459.9000000</ele>
        <time>2010-09-29T13:19:18Z</time>
      </trkpt>
      <trkpt lat="46.0476660" lon="12.3424390">
        <ele>1460.8600000</ele>
        <time>2010-09-29T13:19:25Z</time>
      </trkpt>
      <trkpt lat="46.0476040" lon="12.3424140">
        <ele>1461.3400000</ele>
        <time>2010-09-29T13:19:31Z</time>
      </trkpt>
      <trkpt lat="46.0475350" lon="12.3423700">
        <ele>1461.3400000</ele>
        <time>2010-09-29T13:19:39Z</time>
      </trkpt>
      <trkpt lat="46.0475140" lon="12.3423450">
        <ele>1460.8600000</ele>
        <time>2010-09-29T13:19:41Z</time>
      </trkpt>
      <trkpt lat="46.0475010" lon="12.3423170">
        <ele>1458.9400000</ele>
        <time>2010-09-29T13:19:43Z</time>
      </trkpt>
      <trkpt lat="46.0474900" lon="12.3422930">
        <ele>1462.3000000</ele>
        <time>2010-09-29T13:19:45Z</time>
      </trkpt>
      <trkpt lat="46.0474390" lon="12.3421960">
        <ele>1460.8600000</ele>
        <time>2010-09-29T13:19:52Z</time>
      </trkpt>
      <trkpt lat="46.0474180" lon="12.3421640">
        <ele>1461.3400000</ele>
        <time>2010-09-29T13:19:55Z</time>
      </trkpt>
      <trkpt lat="46.0474060" lon="12.3421240">
        <ele>1462.3000000</ele>
        <time>2010-09-29T13:19:57Z</time>
      </trkpt>
      <trkpt lat="46.0473820" lon="12.3420760">
        <ele>1461.8200000</ele>
        <time>2010-09-29T13:20:02Z</time>
      </trkpt>
      <trkpt lat="46.0473410" lon="12.3419790">
        <ele>1459.9000000</ele>
        <time>2010-09-29T13:20:08Z</time>
      </trkpt>
      <trkpt lat="46.0473360" lon="12.3419730">
        <ele>1460.8600000</ele>
        <time>2010-09-29T13:20:10Z</time>
      </trkpt>
      <trkpt lat="46.0473130" lon="12.3418920">
        <ele>1462.7800000</ele>
        <time>2010-09-29T13:20:16Z</time>
      </trkpt>
      <trkpt lat="46.0472890" lon="12.3418080">
        <ele>1462.7800000</ele>
        <time>2010-09-29T13:20:23Z</time>
      </trkpt>
      <trkpt lat="46.0472660" lon="12.3417550">
        <ele>1463.2600000</ele>
        <time>2010-09-29T13:20:28Z</time>
      </trkpt>
      <trkpt lat="46.0472060" lon="12.3416980">
        <ele>1464.7100000</ele>
        <time>2010-09-29T13:20:34Z</time>
      </trkpt>
      <trkpt lat="46.0471940" lon="12.3416980">
        <ele>1464.2300000</ele>
        <time>2010-09-29T13:20:37Z</time>
      </trkpt>
      <trkpt lat="46.0471270" lon="12.3416800">
        <ele>1465.1900000</ele>
        <time>2010-09-29T13:20:43Z</time>
      </trkpt>
      <trkpt lat="46.0470590" lon="12.3416690">
        <ele>1467.1100000</ele>
        <time>2010-09-29T13:20:50Z</time>
      </trkpt>
      <trkpt lat="46.0470130" lon="12.3416550">
        <ele>1468.0700000</ele>
        <time>2010-09-29T13:20:57Z</time>
      </trkpt>
      <trkpt lat="46.0469990" lon="12.3416050">
        <ele>1468.0700000</ele>
        <time>2010-09-29T13:21:03Z</time>
      </trkpt>
      <trkpt lat="46.0470000" lon="12.3415520">
        <ele>1468.5500000</ele>
        <time>2010-09-29T13:21:09Z</time>
      </trkpt>
      <trkpt lat="46.0470080" lon="12.3415370">
        <ele>1469.5100000</ele>
        <time>2010-09-29T13:21:13Z</time>
      </trkpt>
      <trkpt lat="46.0470300" lon="12.3415080">
        <ele>1469.9900000</ele>
        <time>2010-09-29T13:21:19Z</time>
      </trkpt>
      <trkpt lat="46.0470420" lon="12.3414260">
        <ele>1471.9200000</ele>
        <time>2010-09-29T13:21:26Z</time>
      </trkpt>
      <trkpt lat="46.0470470" lon="12.3414180">
        <ele>1471.9200000</ele>
        <time>2010-09-29T13:21:27Z</time>
      </trkpt>
      <trkpt lat="46.0470670" lon="12.3413980">
        <ele>1472.4000000</ele>
        <time>2010-09-29T13:21:30Z</time>
      </trkpt>
      <trkpt lat="46.0470820" lon="12.3413150">
        <ele>1472.8800000</ele>
        <time>2010-09-29T13:21:38Z</time>
      </trkpt>
      <trkpt lat="46.0471070" lon="12.3412660">
        <ele>1472.8800000</ele>
        <time>2010-09-29T13:21:43Z</time>
      </trkpt>
      <trkpt lat="46.0471110" lon="12.3412470">
        <ele>1473.8400000</ele>
        <time>2010-09-29T13:21:45Z</time>
      </trkpt>
      <trkpt lat="46.0471130" lon="12.3411880">
        <ele>1474.3200000</ele>
        <time>2010-09-29T13:21:49Z</time>
      </trkpt>
      <trkpt lat="46.0471300" lon="12.3411560">
        <ele>1474.8000000</ele>
        <time>2010-09-29T13:21:52Z</time>
      </trkpt>
      <trkpt lat="46.0471480" lon="12.3410730">
        <ele>1475.7600000</ele>
        <time>2010-09-29T13:21:58Z</time>
      </trkpt>
      <trkpt lat="46.0471700" lon="12.3409820">
        <ele>1475.7600000</ele>
        <time>2010-09-29T13:22:05Z</time>
      </trkpt>
      <trkpt lat="46.0471900" lon="12.3409330">
        <ele>1477.2000000</ele>
        <time>2010-09-29T13:22:11Z</time>
      </trkpt>
      <trkpt lat="46.0472020" lon="12.3408830">
        <ele>1477.6800000</ele>
        <time>2010-09-29T13:22:16Z</time>
      </trkpt>
      <trkpt lat="46.0472530" lon="12.3408040">
        <ele>1478.1600000</ele>
        <time>2010-09-29T13:22:24Z</time>
      </trkpt>
      <trkpt lat="46.0472620" lon="12.3407300">
        <ele>1476.7200000</ele>
        <time>2010-09-29T13:22:30Z</time>
      </trkpt>
      <trkpt lat="46.0472640" lon="12.3407040">
        <ele>1480.5700000</ele>
        <time>2010-09-29T13:22:32Z</time>
      </trkpt>
      <trkpt lat="46.0472670" lon="12.3406870">
        <ele>1480.5700000</ele>
        <time>2010-09-29T13:22:33Z</time>
      </trkpt>
      <trkpt lat="46.0472700" lon="12.3406700">
        <ele>1479.6100000</ele>
        <time>2010-09-29T13:22:34Z</time>
      </trkpt>
      <trkpt lat="46.0472680" lon="12.3405700">
        <ele>1480.0900000</ele>
        <time>2010-09-29T13:22:38Z</time>
      </trkpt>
      <trkpt lat="46.0472460" lon="12.3404680">
        <ele>1478.6500000</ele>
        <time>2010-09-29T13:22:44Z</time>
      </trkpt>
      <trkpt lat="46.0472090" lon="12.3404030">
        <ele>1476.2400000</ele>
        <time>2010-09-29T13:22:49Z</time>
      </trkpt>
      <trkpt lat="46.0471450" lon="12.3403140">
        <ele>1475.7600000</ele>
        <time>2010-09-29T13:22:56Z</time>
      </trkpt>
      <trkpt lat="46.0471320" lon="12.3402960">
        <ele>1476.7200000</ele>
        <time>2010-09-29T13:22:58Z</time>
      </trkpt>
      <trkpt lat="46.0470800" lon="12.3402540">
        <ele>1478.1600000</ele>
        <time>2010-09-29T13:23:04Z</time>
      </trkpt>
      <trkpt lat="46.0470180" lon="12.3401980">
        <ele>1478.1600000</ele>
        <time>2010-09-29T13:23:10Z</time>
      </trkpt>
      <trkpt lat="46.0469320" lon="12.3401050">
        <ele>1479.1300000</ele>
        <time>2010-09-29T13:23:17Z</time>
      </trkpt>
      <trkpt lat="46.0468750" lon="12.3400740">
        <ele>1479.1300000</ele>
        <time>2010-09-29T13:23:23Z</time>
      </trkpt>
      <trkpt lat="46.0468680" lon="12.3400680">
        <ele>1479.1300000</ele>
        <time>2010-09-29T13:23:24Z</time>
      </trkpt>
      <trkpt lat="46.0467510" lon="12.3399890">
        <ele>1478.1600000</ele>
        <time>2010-09-29T13:23:34Z</time>
      </trkpt>
      <trkpt lat="46.0467390" lon="12.3399870">
        <ele>1479.1300000</ele>
        <time>2010-09-29T13:23:35Z</time>
      </trkpt>
      <trkpt lat="46.0467120" lon="12.3399770">
        <ele>1479.6100000</ele>
        <time>2010-09-29T13:23:37Z</time>
      </trkpt>
      <trkpt lat="46.0465970" lon="12.3399560">
        <ele>1476.7200000</ele>
        <time>2010-09-29T13:23:44Z</time>
      </trkpt>
      <trkpt lat="46.0465270" lon="12.3399700">
        <ele>1478.1600000</ele>
        <time>2010-09-29T13:23:50Z</time>
      </trkpt>
      <trkpt lat="46.0464180" lon="12.3399880">
        <ele>1479.6100000</ele>
        <time>2010-09-29T13:23:58Z</time>
      </trkpt>
      <trkpt lat="46.0463430" lon="12.3399990">
        <ele>1480.0900000</ele>
        <time>2010-09-29T13:24:05Z</time>
      </trkpt>
      <trkpt lat="46.0462730" lon="12.3400180">
        <ele>1481.5300000</ele>
        <time>2010-09-29T13:24:12Z</time>
      </trkpt>
      <trkpt lat="46.0461960" lon="12.3400180">
        <ele>1482.9700000</ele>
        <time>2010-09-29T13:24:19Z</time>
      </trkpt>
      <trkpt lat="46.0461090" lon="12.3399600">
        <ele>1482.9700000</ele>
        <time>2010-09-29T13:24:26Z</time>
      </trkpt>
      <trkpt lat="46.0460570" lon="12.3399200">
        <ele>1482.4900000</ele>
        <time>2010-09-29T13:24:32Z</time>
      </trkpt>
      <trkpt lat="46.0460510" lon="12.3399070">
        <ele>1482.9700000</ele>
        <time>2010-09-29T13:24:33Z</time>
      </trkpt>
      <trkpt lat="46.0459940" lon="12.3398060">
        <ele>1483.4500000</ele>
        <time>2010-09-29T13:24:40Z</time>
      </trkpt>
      <trkpt lat="46.0459570" lon="12.3397410">
        <ele>1484.4100000</ele>
        <time>2010-09-29T13:24:46Z</time>
      </trkpt>
      <trkpt lat="46.0459340" lon="12.3396880">
        <ele>1484.8900000</ele>
        <time>2010-09-29T13:24:49Z</time>
      </trkpt>
      <trkpt lat="46.0458930" lon="12.3395950">
        <ele>1486.3400000</ele>
        <time>2010-09-29T13:24:57Z</time>
      </trkpt>
      <trkpt lat="46.0458650" lon="12.3395300">
        <ele>1486.3400000</ele>
        <time>2010-09-29T13:25:01Z</time>
      </trkpt>
      <trkpt lat="46.0457930" lon="12.3394160">
        <ele>1487.7800000</ele>
        <time>2010-09-29T13:25:09Z</time>
      </trkpt>
      <trkpt lat="46.0457870" lon="12.3394030">
        <ele>1487.3000000</ele>
        <time>2010-09-29T13:25:10Z</time>
      </trkpt>
      <trkpt lat="46.0457740" lon="12.3393730">
        <ele>1486.8200000</ele>
        <time>2010-09-29T13:25:14Z</time>
      </trkpt>
      <trkpt lat="46.0457320" lon="12.3393150">
        <ele>1483.9300000</ele>
        <time>2010-09-29T13:25:18Z</time>
      </trkpt>
      <trkpt lat="46.0457110" lon="12.3392970">
        <ele>1486.8200000</ele>
        <time>2010-09-29T13:25:20Z</time>
      </trkpt>
      <trkpt lat="46.0457010" lon="12.3392900">
        <ele>1486.3400000</ele>
        <time>2010-09-29T13:25:21Z</time>
      </trkpt>
      <trkpt lat="46.0456560" lon="12.3391970">
        <ele>1486.8200000</ele>
        <time>2010-09-29T13:25:28Z</time>
      </trkpt>
      <trkpt lat="46.0456390" lon="12.3391670">
        <ele>1487.7800000</ele>
        <time>2010-09-29T13:25:30Z</time>
      </trkpt>
      <trkpt lat="46.0455940" lon="12.3390740">
        <ele>1486.8200000</ele>
        <time>2010-09-29T13:25:37Z</time>
      </trkpt>
      <trkpt lat="46.0455660" lon="12.3389860">
        <ele>1488.2600000</ele>
        <time>2010-09-29T13:25:43Z</time>
      </trkpt>
      <trkpt lat="46.0455270" lon="12.3389050">
        <ele>1487.3000000</ele>
        <time>2010-09-29T13:25:49Z</time>
      </trkpt>
      <trkpt lat="46.0454790" lon="12.3388470">
        <ele>1488.7400000</ele>
        <time>2010-09-29T13:25:55Z</time>
      </trkpt>
      <trkpt lat="46.0454390" lon="12.3387720">
        <ele>1488.7400000</ele>
        <time>2010-09-29T13:26:01Z</time>
      </trkpt>
      <trkpt lat="46.0453960" lon="12.3387090">
        <ele>1489.2200000</ele>
        <time>2010-09-29T13:26:07Z</time>
      </trkpt>
      <trkpt lat="46.0453760" lon="12.3386530">
        <ele>1490.1800000</ele>
        <time>2010-09-29T13:26:10Z</time>
      </trkpt>
      <trkpt lat="46.0453140" lon="12.3385340">
        <ele>1490.6600000</ele>
        <time>2010-09-29T13:26:19Z</time>
      </trkpt>
      <trkpt lat="46.0452920" lon="12.3384490">
        <ele>1490.6600000</ele>
        <time>2010-09-29T13:26:26Z</time>
      </trkpt>
      <trkpt lat="46.0452490" lon="12.3383680">
        <ele>1491.6200000</ele>
        <time>2010-09-29T13:26:32Z</time>
      </trkpt>
      <trkpt lat="46.0452300" lon="12.3383070">
        <ele>1492.1000000</ele>
        <time>2010-09-29T13:26:38Z</time>
      </trkpt>
      <trkpt lat="46.0451890" lon="12.3381790">
        <ele>1493.5500000</ele>
        <time>2010-09-29T13:26:46Z</time>
      </trkpt>
      <trkpt lat="46.0451890" lon="12.3381100">
        <ele>1494.0300000</ele>
        <time>2010-09-29T13:26:52Z</time>
      </trkpt>
      <trkpt lat="46.0451930" lon="12.3380380">
        <ele>1494.9900000</ele>
        <time>2010-09-29T13:26:58Z</time>
      </trkpt>
      <trkpt lat="46.0452150" lon="12.3379770">
        <ele>1496.9100000</ele>
        <time>2010-09-29T13:27:05Z</time>
      </trkpt>
      <trkpt lat="46.0452150" lon="12.3379770">
        <ele>1497.3900000</ele>
        <time>2010-09-29T13:27:06Z</time>
      </trkpt>
      <trkpt lat="46.0452340" lon="12.3379360">
        <ele>1497.3900000</ele>
        <time>2010-09-29T13:27:09Z</time>
      </trkpt>
      <trkpt lat="46.0452440" lon="12.3378550">
        <ele>1497.3900000</ele>
        <time>2010-09-29T13:27:14Z</time>
      </trkpt>
      <trkpt lat="46.0452560" lon="12.3377300">
        <ele>1496.9100000</ele>
        <time>2010-09-29T13:27:21Z</time>
      </trkpt>
      <trkpt lat="46.0452560" lon="12.3376820">
        <ele>1495.9500000</ele>
        <time>2010-09-29T13:27:23Z</time>
      </trkpt>
      <trkpt lat="46.0452510" lon="12.3376170">
        <ele>1497.3900000</ele>
        <time>2010-09-29T13:27:27Z</time>
      </trkpt>
      <trkpt lat="46.0452570" lon="12.3375260">
        <ele>1497.3900000</ele>
        <time>2010-09-29T13:27:33Z</time>
      </trkpt>
      <trkpt lat="46.0452460" lon="12.3374270">
        <ele>1497.8700000</ele>
        <time>2010-09-29T13:27:40Z</time>
      </trkpt>
      <trkpt lat="46.0452210" lon="12.3373350">
        <ele>1498.3500000</ele>
        <time>2010-09-29T13:27:46Z</time>
      </trkpt>
      <trkpt lat="46.0451960" lon="12.3372610">
        <ele>1497.8700000</ele>
        <time>2010-09-29T13:27:52Z</time>
      </trkpt>
      <trkpt lat="46.0451910" lon="12.3372430">
        <ele>1498.8300000</ele>
        <time>2010-09-29T13:27:53Z</time>
      </trkpt>
      <trkpt lat="46.0451390" lon="12.3371410">
        <ele>1499.3100000</ele>
        <time>2010-09-29T13:28:01Z</time>
      </trkpt>
      <trkpt lat="46.0451210" lon="12.3370630">
        <ele>1499.7900000</ele>
        <time>2010-09-29T13:28:07Z</time>
      </trkpt>
      <trkpt lat="46.0450930" lon="12.3369850">
        <ele>1500.7600000</ele>
        <time>2010-09-29T13:28:13Z</time>
      </trkpt>
      <trkpt lat="46.0450740" lon="12.3369550">
        <ele>1500.7600000</ele>
        <time>2010-09-29T13:28:16Z</time>
      </trkpt>
      <trkpt lat="46.0450310" lon="12.3368980">
        <ele>1501.2400000</ele>
        <time>2010-09-29T13:28:23Z</time>
      </trkpt>
      <trkpt lat="46.0450100" lon="12.3368770">
        <ele>1502.2000000</ele>
        <time>2010-09-29T13:28:26Z</time>
      </trkpt>
      <trkpt lat="46.0449970" lon="12.3368580">
        <ele>1501.7200000</ele>
        <time>2010-09-29T13:28:34Z</time>
      </trkpt>
      <trkpt lat="46.0449860" lon="12.3368650">
        <ele>1502.6800000</ele>
        <time>2010-09-29T13:31:31Z</time>
      </trkpt>
      <trkpt lat="46.0449590" lon="12.3368510">
        <ele>1502.6800000</ele>
        <time>2010-09-29T13:31:34Z</time>
      </trkpt>
      <trkpt lat="46.0449230" lon="12.3368090">
        <ele>1503.6400000</ele>
        <time>2010-09-29T13:31:41Z</time>
      </trkpt>
      <trkpt lat="46.0448840" lon="12.3367890">
        <ele>1504.6000000</ele>
        <time>2010-09-29T13:31:47Z</time>
      </trkpt>
      <trkpt lat="46.0448770" lon="12.3367850">
        <ele>1505.0800000</ele>
        <time>2010-09-29T13:31:48Z</time>
      </trkpt>
      <trkpt lat="46.0448320" lon="12.3367490">
        <ele>1505.0800000</ele>
        <time>2010-09-29T13:31:54Z</time>
      </trkpt>
      <trkpt lat="46.0448020" lon="12.3367450">
        <ele>1506.0400000</ele>
        <time>2010-09-29T13:31:58Z</time>
      </trkpt>
      <trkpt lat="46.0447670" lon="12.3366960">
        <ele>1506.5200000</ele>
        <time>2010-09-29T13:32:04Z</time>
      </trkpt>
      <trkpt lat="46.0447290" lon="12.3366570">
        <ele>1507.4800000</ele>
        <time>2010-09-29T13:32:11Z</time>
      </trkpt>
      <trkpt lat="46.0446990" lon="12.3366150">
        <ele>1508.4500000</ele>
        <time>2010-09-29T13:32:17Z</time>
      </trkpt>
      <trkpt lat="46.0446580" lon="12.3365700">
        <ele>1509.4100000</ele>
        <time>2010-09-29T13:32:23Z</time>
      </trkpt>
      <trkpt lat="46.0446200" lon="12.3365180">
        <ele>1510.8500000</ele>
        <time>2010-09-29T13:32:30Z</time>
      </trkpt>
      <trkpt lat="46.0445770" lon="12.3364640">
        <ele>1512.2900000</ele>
        <time>2010-09-29T13:32:36Z</time>
      </trkpt>
      <trkpt lat="46.0445540" lon="12.3364410">
        <ele>1512.7700000</ele>
        <time>2010-09-29T13:32:40Z</time>
      </trkpt>
      <trkpt lat="46.0444920" lon="12.3364230">
        <ele>1514.2100000</ele>
        <time>2010-09-29T13:32:46Z</time>
      </trkpt>
      <trkpt lat="46.0444610" lon="12.3364350">
        <ele>1514.2100000</ele>
        <time>2010-09-29T13:32:50Z</time>
      </trkpt>
      <trkpt lat="46.0444420" lon="12.3364400">
        <ele>1513.7300000</ele>
        <time>2010-09-29T13:32:52Z</time>
      </trkpt>
      <trkpt lat="46.0443880" lon="12.3364790">
        <ele>1515.1800000</ele>
        <time>2010-09-29T13:32:59Z</time>
      </trkpt>
      <trkpt lat="46.0443350" lon="12.3365100">
        <ele>1515.1800000</ele>
        <time>2010-09-29T13:33:05Z</time>
      </trkpt>
      <trkpt lat="46.0442870" lon="12.3365450">
        <ele>1515.1800000</ele>
        <time>2010-09-29T13:33:11Z</time>
      </trkpt>
      <trkpt lat="46.0442460" lon="12.3365520">
        <ele>1516.1400000</ele>
        <time>2010-09-29T13:33:16Z</time>
      </trkpt>
      <trkpt lat="46.0442090" lon="12.3365650">
        <ele>1517.1000000</ele>
        <time>2010-09-29T13:33:21Z</time>
      </trkpt>
      <trkpt lat="46.0441690" lon="12.3365680">
        <ele>1518.0600000</ele>
        <time>2010-09-29T13:33:26Z</time>
      </trkpt>
      <trkpt lat="46.0441480" lon="12.3364990">
        <ele>1519.0200000</ele>
        <time>2010-09-29T13:33:33Z</time>
      </trkpt>
      <trkpt lat="46.0441460" lon="12.3364910">
        <ele>1519.5000000</ele>
        <time>2010-09-29T13:33:34Z</time>
      </trkpt>
      <trkpt lat="46.0441380" lon="12.3364520">
        <ele>1516.6200000</ele>
        <time>2010-09-29T13:33:39Z</time>
      </trkpt>
      <trkpt lat="46.0441320" lon="12.3364250">
        <ele>1519.0200000</ele>
        <time>2010-09-29T13:33:42Z</time>
      </trkpt>
      <trkpt lat="46.0441320" lon="12.3364250">
        <ele>1517.5800000</ele>
        <time>2010-09-29T13:33:44Z</time>
      </trkpt>
      <trkpt lat="46.0441280" lon="12.3364130">
        <ele>1518.0600000</ele>
        <time>2010-09-29T13:33:46Z</time>
      </trkpt>
      <trkpt lat="46.0441030" lon="12.3363660">
        <ele>1515.1800000</ele>
        <time>2010-09-29T13:33:49Z</time>
      </trkpt>
      <trkpt lat="46.0440980" lon="12.3363580">
        <ele>1515.1800000</ele>
        <time>2010-09-29T13:33:50Z</time>
      </trkpt>
      <trkpt lat="46.0440790" lon="12.3363300">
        <ele>1518.0600000</ele>
        <time>2010-09-29T13:33:52Z</time>
      </trkpt>
      <trkpt lat="46.0440740" lon="12.3363210">
        <ele>1516.6200000</ele>
        <time>2010-09-29T13:33:55Z</time>
      </trkpt>
      <trkpt lat="46.0440680" lon="12.3363170">
        <ele>1516.1400000</ele>
        <time>2010-09-29T13:34:06Z</time>
      </trkpt>
      <trkpt lat="46.0440590" lon="12.3363100">
        <ele>1516.1400000</ele>
        <time>2010-09-29T13:35:16Z</time>
      </trkpt>
      <trkpt lat="46.0440210" lon="12.3363340">
        <ele>1516.1400000</ele>
        <time>2010-09-29T13:35:20Z</time>
      </trkpt>
      <trkpt lat="46.0439710" lon="12.3363650">
        <ele>1517.1000000</ele>
        <time>2010-09-29T13:35:24Z</time>
      </trkpt>
      <trkpt lat="46.0439420" lon="12.3363800">
        <ele>1516.1400000</ele>
        <time>2010-09-29T13:35:26Z</time>
      </trkpt>
      <trkpt lat="46.0439190" lon="12.3363910">
        <ele>1516.1400000</ele>
        <time>2010-09-29T13:35:29Z</time>
      </trkpt>
      <trkpt lat="46.0438700" lon="12.3363930">
        <ele>1511.8100000</ele>
        <time>2010-09-29T13:35:33Z</time>
      </trkpt>
      <trkpt lat="46.0438010" lon="12.3364040">
        <ele>1512.7700000</ele>
        <time>2010-09-29T13:35:38Z</time>
      </trkpt>
      <trkpt lat="46.0437370" lon="12.3364020">
        <ele>1514.2100000</ele>
        <time>2010-09-29T13:35:44Z</time>
      </trkpt>
      <trkpt lat="46.0437270" lon="12.3364090">
        <ele>1514.6900000</ele>
        <time>2010-09-29T13:35:46Z</time>
      </trkpt>
      <trkpt lat="46.0436520" lon="12.3364410">
        <ele>1512.2900000</ele>
        <time>2010-09-29T13:35:51Z</time>
      </trkpt>
      <trkpt lat="46.0436090" lon="12.3364810">
        <ele>1510.8500000</ele>
        <time>2010-09-29T13:35:57Z</time>
      </trkpt>
      <trkpt lat="46.0435970" lon="12.3365080">
        <ele>1512.2900000</ele>
        <time>2010-09-29T13:35:59Z</time>
      </trkpt>
      <trkpt lat="46.0435890" lon="12.3365600">
        <ele>1508.9300000</ele>
        <time>2010-09-29T13:36:02Z</time>
      </trkpt>
      <trkpt lat="46.0435640" lon="12.3365590">
        <ele>1508.9300000</ele>
        <time>2010-09-29T13:37:18Z</time>
      </trkpt>
      <trkpt lat="46.0435390" lon="12.3365620">
        <ele>1508.4500000</ele>
        <time>2010-09-29T13:37:24Z</time>
      </trkpt>
      <trkpt lat="46.0435340" lon="12.3365630">
        <ele>1508.4500000</ele>
        <time>2010-09-29T13:37:32Z</time>
      </trkpt>
      <trkpt lat="46.0435170" lon="12.3365620">
        <ele>1507.9700000</ele>
        <time>2010-09-29T13:37:58Z</time>
      </trkpt>
      <trkpt lat="46.0434810" lon="12.3365420">
        <ele>1507.9700000</ele>
        <time>2010-09-29T13:38:05Z</time>
      </trkpt>
      <trkpt lat="46.0434880" lon="12.3365470">
        <ele>1508.4500000</ele>
        <time>2010-09-29T13:38:12Z</time>
      </trkpt>
      <trkpt lat="46.0434750" lon="12.3365450">
        <ele>1507.4800000</ele>
        <time>2010-09-29T13:38:35Z</time>
      </trkpt>
      <trkpt lat="46.0434420" lon="12.3365600">
        <ele>1507.0000000</ele>
        <time>2010-09-29T13:38:41Z</time>
      </trkpt>
      <trkpt lat="46.0434170" lon="12.3365660">
        <ele>1507.4800000</ele>
        <time>2010-09-29T13:38:45Z</time>
      </trkpt>
      <trkpt lat="46.0433920" lon="12.3365610">
        <ele>1504.1200000</ele>
        <time>2010-09-29T13:38:50Z</time>
      </trkpt>
      <trkpt lat="46.0433300" lon="12.3365880">
        <ele>1504.6000000</ele>
        <time>2010-09-29T13:38:58Z</time>
      </trkpt>
      <trkpt lat="46.0433300" lon="12.3365880">
        <ele>1503.6400000</ele>
        <time>2010-09-29T13:38:59Z</time>
      </trkpt>
      <trkpt lat="46.0433110" lon="12.3365900">
        <ele>1500.2700000</ele>
        <time>2010-09-29T13:39:01Z</time>
      </trkpt>
      <trkpt lat="46.0432570" lon="12.3366310">
        <ele>1500.2700000</ele>
        <time>2010-09-29T13:39:07Z</time>
      </trkpt>
      <trkpt lat="46.0432340" lon="12.3366500">
        <ele>1500.2700000</ele>
        <time>2010-09-29T13:39:11Z</time>
      </trkpt>
      <trkpt lat="46.0431730" lon="12.3366660">
        <ele>1499.3100000</ele>
        <time>2010-09-29T13:39:17Z</time>
      </trkpt>
      <trkpt lat="46.0431730" lon="12.3366720">
        <ele>1499.3100000</ele>
        <time>2010-09-29T13:39:18Z</time>
      </trkpt>
      <trkpt lat="46.0431490" lon="12.3366750">
        <ele>1496.9100000</ele>
        <time>2010-09-29T13:39:29Z</time>
      </trkpt>
      <trkpt lat="46.0430830" lon="12.3366650">
        <ele>1499.3100000</ele>
        <time>2010-09-29T13:39:35Z</time>
      </trkpt>
      <trkpt lat="46.0430630" lon="12.3366620">
        <ele>1499.7900000</ele>
        <time>2010-09-29T13:39:38Z</time>
      </trkpt>
      <trkpt lat="46.0430150" lon="12.3366270">
        <ele>1496.4300000</ele>
        <time>2010-09-29T13:39:45Z</time>
      </trkpt>
      <trkpt lat="46.0429960" lon="12.3366030">
        <ele>1492.5800000</ele>
        <time>2010-09-29T13:39:50Z</time>
      </trkpt>
      <trkpt lat="46.0429880" lon="12.3365880">
        <ele>1493.0600000</ele>
        <time>2010-09-29T13:39:52Z</time>
      </trkpt>
      <trkpt lat="46.0429320" lon="12.3365530">
        <ele>1492.5800000</ele>
        <time>2010-09-29T13:40:00Z</time>
      </trkpt>
      <trkpt lat="46.0429320" lon="12.3365530">
        <ele>1492.5800000</ele>
        <time>2010-09-29T13:40:01Z</time>
      </trkpt>
      <trkpt lat="46.0429270" lon="12.3365480">
        <ele>1493.0600000</ele>
        <time>2010-09-29T13:40:04Z</time>
      </trkpt>
      <trkpt lat="46.0429160" lon="12.3365280">
        <ele>1494.5100000</ele>
        <time>2010-09-29T13:40:06Z</time>
      </trkpt>
      <trkpt lat="46.0428870" lon="12.3365130">
        <ele>1490.6600000</ele>
        <time>2010-09-29T13:40:09Z</time>
      </trkpt>
      <trkpt lat="46.0428820" lon="12.3365080">
        <ele>1492.1000000</ele>
        <time>2010-09-29T13:40:10Z</time>
      </trkpt>
      <trkpt lat="46.0428750" lon="12.3365000">
        <ele>1492.1000000</ele>
        <time>2010-09-29T13:40:11Z</time>
      </trkpt>
      <trkpt lat="46.0428080" lon="12.3364680">
        <ele>1488.2600000</ele>
        <time>2010-09-29T13:40:16Z</time>
      </trkpt>
      <trkpt lat="46.0427990" lon="12.3364610">
        <ele>1492.1000000</ele>
        <time>2010-09-29T13:40:17Z</time>
      </trkpt>
      <trkpt lat="46.0427840" lon="12.3364530">
        <ele>1487.7800000</ele>
        <time>2010-09-29T13:40:19Z</time>
      </trkpt>
      <trkpt lat="46.0427660" lon="12.3364390">
        <ele>1486.3400000</ele>
        <time>2010-09-29T13:40:21Z</time>
      </trkpt>
      <trkpt lat="46.0427450" lon="12.3364480">
        <ele>1486.3400000</ele>
        <time>2010-09-29T13:40:23Z</time>
      </trkpt>
      <trkpt lat="46.0427010" lon="12.3364620">
        <ele>1488.2600000</ele>
        <time>2010-09-29T13:40:27Z</time>
      </trkpt>
      <trkpt lat="46.0426700" lon="12.3364420">
        <ele>1486.3400000</ele>
        <time>2010-09-29T13:40:33Z</time>
      </trkpt>
      <trkpt lat="46.0426630" lon="12.3364290">
        <ele>1485.3700000</ele>
        <time>2010-09-29T13:40:36Z</time>
      </trkpt>
      <trkpt lat="46.0426510" lon="12.3363990">
        <ele>1482.9700000</ele>
        <time>2010-09-29T13:40:38Z</time>
      </trkpt>
      <trkpt lat="46.0426270" lon="12.3363470">
        <ele>1485.3700000</ele>
        <time>2010-09-29T13:40:41Z</time>
      </trkpt>
      <trkpt lat="46.0425960" lon="12.3363090">
        <ele>1482.4900000</ele>
        <time>2010-09-29T13:40:44Z</time>
      </trkpt>
      <trkpt lat="46.0425800" lon="12.3363010">
        <ele>1478.6500000</ele>
        <time>2010-09-29T13:40:46Z</time>
      </trkpt>
      <trkpt lat="46.0425510" lon="12.3363230">
        <ele>1482.0100000</ele>
        <time>2010-09-29T13:40:50Z</time>
      </trkpt>
      <trkpt lat="46.0425420" lon="12.3363260">
        <ele>1482.0100000</ele>
        <time>2010-09-29T13:40:51Z</time>
      </trkpt>
      <trkpt lat="46.0425310" lon="12.3363290">
        <ele>1480.5700000</ele>
        <time>2010-09-29T13:40:54Z</time>
      </trkpt>
      <trkpt lat="46.0425150" lon="12.3363450">
        <ele>1477.2000000</ele>
        <time>2010-09-29T13:40:55Z</time>
      </trkpt>
      <trkpt lat="46.0424770" lon="12.3363500">
        <ele>1480.5700000</ele>
        <time>2010-09-29T13:40:57Z</time>
      </trkpt>
      <trkpt lat="46.0424620" lon="12.3362950">
        <ele>1479.1300000</ele>
        <time>2010-09-29T13:41:02Z</time>
      </trkpt>
      <trkpt lat="46.0424520" lon="12.3362830">
        <ele>1475.2800000</ele>
        <time>2010-09-29T13:41:04Z</time>
      </trkpt>
      <trkpt lat="46.0423620" lon="12.3363020">
        <ele>1474.8000000</ele>
        <time>2010-09-29T13:41:11Z</time>
      </trkpt>
      <trkpt lat="46.0423420" lon="12.3362890">
        <ele>1472.8800000</ele>
        <time>2010-09-29T13:41:13Z</time>
      </trkpt>
      <trkpt lat="46.0423310" lon="12.3362800">
        <ele>1475.2800000</ele>
        <time>2010-09-29T13:41:15Z</time>
      </trkpt>
      <trkpt lat="46.0423120" lon="12.3362750">
        <ele>1470.4700000</ele>
        <time>2010-09-29T13:41:17Z</time>
      </trkpt>
      <trkpt lat="46.0423040" lon="12.3362740">
        <ele>1471.9200000</ele>
        <time>2010-09-29T13:41:18Z</time>
      </trkpt>
      <trkpt lat="46.0422990" lon="12.3362690">
        <ele>1472.4000000</ele>
        <time>2010-09-29T13:41:19Z</time>
      </trkpt>
      <trkpt lat="46.0422830" lon="12.3362290">
        <ele>1468.0700000</ele>
        <time>2010-09-29T13:41:23Z</time>
      </trkpt>
      <trkpt lat="46.0422800" lon="12.3362200">
        <ele>1468.5500000</ele>
        <time>2010-09-29T13:41:24Z</time>
      </trkpt>
      <trkpt lat="46.0422700" lon="12.3362140">
        <ele>1472.4000000</ele>
        <time>2010-09-29T13:41:26Z</time>
      </trkpt>
      <trkpt lat="46.0422370" lon="12.3362140">
        <ele>1468.0700000</ele>
        <time>2010-09-29T13:41:30Z</time>
      </trkpt>
      <trkpt lat="46.0422110" lon="12.3362160">
        <ele>1470.9500000</ele>
        <time>2010-09-29T13:41:34Z</time>
      </trkpt>
      <trkpt lat="46.0421950" lon="12.3362110">
        <ele>1466.6300000</ele>
        <time>2010-09-29T13:41:36Z</time>
      </trkpt>
      <trkpt lat="46.0421770" lon="12.3362190">
        <ele>1469.9900000</ele>
        <time>2010-09-29T13:41:38Z</time>
      </trkpt>
      <trkpt lat="46.0421720" lon="12.3362290">
        <ele>1469.9900000</ele>
        <time>2010-09-29T13:41:39Z</time>
      </trkpt>
      <trkpt lat="46.0421650" lon="12.3362510">
        <ele>1467.1100000</ele>
        <time>2010-09-29T13:41:41Z</time>
      </trkpt>
      <trkpt lat="46.0421500" lon="12.3362960">
        <ele>1462.3000000</ele>
        <time>2010-09-29T13:41:44Z</time>
      </trkpt>
      <trkpt lat="46.0421420" lon="12.3363120">
        <ele>1463.7400000</ele>
        <time>2010-09-29T13:41:45Z</time>
      </trkpt>
      <trkpt lat="46.0421110" lon="12.3363690">
        <ele>1467.1100000</ele>
        <time>2010-09-29T13:41:51Z</time>
      </trkpt>
      <trkpt lat="46.0421050" lon="12.3363870">
        <ele>1461.3400000</ele>
        <time>2010-09-29T13:41:53Z</time>
      </trkpt>
      <trkpt lat="46.0420960" lon="12.3364040">
        <ele>1459.9000000</ele>
        <time>2010-09-29T13:41:55Z</time>
      </trkpt>
      <trkpt lat="46.0420830" lon="12.3364090">
        <ele>1463.2600000</ele>
        <time>2010-09-29T13:41:57Z</time>
      </trkpt>
      <trkpt lat="46.0420780" lon="12.3364050">
        <ele>1462.7800000</ele>
        <time>2010-09-29T13:41:58Z</time>
      </trkpt>
      <trkpt lat="46.0420660" lon="12.3363910">
        <ele>1459.9000000</ele>
        <time>2010-09-29T13:42:00Z</time>
      </trkpt>
      <trkpt lat="46.0420610" lon="12.3363900">
        <ele>1461.8200000</ele>
        <time>2010-09-29T13:42:01Z</time>
      </trkpt>
      <trkpt lat="46.0420350" lon="12.3363370">
        <ele>1458.4600000</ele>
        <time>2010-09-29T13:42:07Z</time>
      </trkpt>
      <trkpt lat="46.0420300" lon="12.3363260">
        <ele>1458.4600000</ele>
        <time>2010-09-29T13:42:08Z</time>
      </trkpt>
      <trkpt lat="46.0420290" lon="12.3362810">
        <ele>1459.4200000</ele>
        <time>2010-09-29T13:42:12Z</time>
      </trkpt>
      <trkpt lat="46.0420230" lon="12.3362530">
        <ele>1455.0900000</ele>
        <time>2010-09-29T13:42:14Z</time>
      </trkpt>
      <trkpt lat="46.0420100" lon="12.3362110">
        <ele>1458.4600000</ele>
        <time>2010-09-29T13:42:17Z</time>
      </trkpt>
      <trkpt lat="46.0420080" lon="12.3362010">
        <ele>1457.5000000</ele>
        <time>2010-09-29T13:42:18Z</time>
      </trkpt>
      <trkpt lat="46.0420070" lon="12.3361760">
        <ele>1454.6100000</ele>
        <time>2010-09-29T13:42:20Z</time>
      </trkpt>
      <trkpt lat="46.0420180" lon="12.3361350">
        <ele>1457.0200000</ele>
        <time>2010-09-29T13:42:24Z</time>
      </trkpt>
      <trkpt lat="46.0420130" lon="12.3361190">
        <ele>1452.2100000</ele>
        <time>2010-09-29T13:42:26Z</time>
      </trkpt>
      <trkpt lat="46.0420080" lon="12.3361070">
        <ele>1451.7300000</ele>
        <time>2010-09-29T13:42:27Z</time>
      </trkpt>
      <trkpt lat="46.0419850" lon="12.3359910">
        <ele>1450.2900000</ele>
        <time>2010-09-29T13:42:34Z</time>
      </trkpt>
      <trkpt lat="46.0419820" lon="12.3359670">
        <ele>1451.7300000</ele>
        <time>2010-09-29T13:42:36Z</time>
      </trkpt>
      <trkpt lat="46.0419660" lon="12.3359090">
        <ele>1448.3600000</ele>
        <time>2010-09-29T13:42:39Z</time>
      </trkpt>
      <trkpt lat="46.0419590" lon="12.3358930">
        <ele>1448.3600000</ele>
        <time>2010-09-29T13:42:40Z</time>
      </trkpt>
      <trkpt lat="46.0419470" lon="12.3358440">
        <ele>1451.7300000</ele>
        <time>2010-09-29T13:42:43Z</time>
      </trkpt>
      <trkpt lat="46.0419320" lon="12.3358010">
        <ele>1445.4800000</ele>
        <time>2010-09-29T13:42:46Z</time>
      </trkpt>
      <trkpt lat="46.0419270" lon="12.3357920">
        <ele>1445.9600000</ele>
        <time>2010-09-29T13:42:47Z</time>
      </trkpt>
      <trkpt lat="46.0419070" lon="12.3357590">
        <ele>1448.3600000</ele>
        <time>2010-09-29T13:42:49Z</time>
      </trkpt>
      <trkpt lat="46.0418980" lon="12.3357180">
        <ele>1445.0000000</ele>
        <time>2010-09-29T13:42:53Z</time>
      </trkpt>
      <trkpt lat="46.0418970" lon="12.3357100">
        <ele>1444.5200000</ele>
        <time>2010-09-29T13:42:54Z</time>
      </trkpt>
      <trkpt lat="46.0418900" lon="12.3356750">
        <ele>1447.8800000</ele>
        <time>2010-09-29T13:42:57Z</time>
      </trkpt>
      <trkpt lat="46.0418890" lon="12.3356590">
        <ele>1443.5600000</ele>
        <time>2010-09-29T13:42:59Z</time>
      </trkpt>
      <trkpt lat="46.0418790" lon="12.3356310">
        <ele>1442.1100000</ele>
        <time>2010-09-29T13:43:02Z</time>
      </trkpt>
      <trkpt lat="46.0418790" lon="12.3355820">
        <ele>1444.0400000</ele>
        <time>2010-09-29T13:43:05Z</time>
      </trkpt>
      <trkpt lat="46.0418780" lon="12.3355380">
        <ele>1440.1900000</ele>
        <time>2010-09-29T13:43:07Z</time>
      </trkpt>
      <trkpt lat="46.0418780" lon="12.3354960">
        <ele>1441.1500000</ele>
        <time>2010-09-29T13:43:09Z</time>
      </trkpt>
      <trkpt lat="46.0418670" lon="12.3354550">
        <ele>1442.1100000</ele>
        <time>2010-09-29T13:43:11Z</time>
      </trkpt>
      <trkpt lat="46.0418510" lon="12.3354050">
        <ele>1438.2700000</ele>
        <time>2010-09-29T13:43:14Z</time>
      </trkpt>
      <trkpt lat="46.0418480" lon="12.3353500">
        <ele>1440.6700000</ele>
        <time>2010-09-29T13:43:18Z</time>
      </trkpt>
      <trkpt lat="46.0418430" lon="12.3353070">
        <ele>1436.3500000</ele>
        <time>2010-09-29T13:43:21Z</time>
      </trkpt>
      <trkpt lat="46.0418280" lon="12.3352390">
        <ele>1438.2700000</ele>
        <time>2010-09-29T13:43:26Z</time>
      </trkpt>
      <trkpt lat="46.0418110" lon="12.3352090">
        <ele>1433.9400000</ele>
        <time>2010-09-29T13:43:29Z</time>
      </trkpt>
      <trkpt lat="46.0418030" lon="12.3352030">
        <ele>1435.8700000</ele>
        <time>2010-09-29T13:43:30Z</time>
      </trkpt>
      <trkpt lat="46.0417680" lon="12.3351630">
        <ele>1435.3900000</ele>
        <time>2010-09-29T13:43:35Z</time>
      </trkpt>
      <trkpt lat="46.0417250" lon="12.3351350">
        <ele>1435.3900000</ele>
        <time>2010-09-29T13:43:40Z</time>
      </trkpt>
      <trkpt lat="46.0417160" lon="12.3351210">
        <ele>1431.0600000</ele>
        <time>2010-09-29T13:43:42Z</time>
      </trkpt>
      <trkpt lat="46.0417010" lon="12.3351000">
        <ele>1432.0200000</ele>
        <time>2010-09-29T13:43:46Z</time>
      </trkpt>
      <trkpt lat="46.0416990" lon="12.3350530">
        <ele>1430.5800000</ele>
        <time>2010-09-29T13:44:57Z</time>
      </trkpt>
      <trkpt lat="46.0416990" lon="12.3350310">
        <ele>1431.5400000</ele>
        <time>2010-09-29T13:45:03Z</time>
      </trkpt>
      <trkpt lat="46.0417020" lon="12.3349930">
        <ele>1427.7000000</ele>
        <time>2010-09-29T13:45:07Z</time>
      </trkpt>
      <trkpt lat="46.0417050" lon="12.3349860">
        <ele>1427.7000000</ele>
        <time>2010-09-29T13:45:08Z</time>
      </trkpt>
      <trkpt lat="46.0417090" lon="12.3349200">
        <ele>1426.2500000</ele>
        <time>2010-09-29T13:45:13Z</time>
      </trkpt>
      <trkpt lat="46.0417140" lon="12.3349000">
        <ele>1427.7000000</ele>
        <time>2010-09-29T13:45:15Z</time>
      </trkpt>
      <trkpt lat="46.0416920" lon="12.3348400">
        <ele>1426.2500000</ele>
        <time>2010-09-29T13:45:20Z</time>
      </trkpt>
      <trkpt lat="46.0416800" lon="12.3348250">
        <ele>1423.3700000</ele>
        <time>2010-09-29T13:45:22Z</time>
      </trkpt>
      <trkpt lat="46.0416630" lon="12.3348050">
        <ele>1425.7700000</ele>
        <time>2010-09-29T13:45:24Z</time>
      </trkpt>
      <trkpt lat="46.0416560" lon="12.3347820">
        <ele>1424.3300000</ele>
        <time>2010-09-29T13:45:28Z</time>
      </trkpt>
      <trkpt lat="46.0416630" lon="12.3347090">
        <ele>1424.3300000</ele>
        <time>2010-09-29T13:45:35Z</time>
      </trkpt>
      <trkpt lat="46.0416470" lon="12.3346950">
        <ele>1422.4100000</ele>
        <time>2010-09-29T13:45:37Z</time>
      </trkpt>
      <trkpt lat="46.0416280" lon="12.3346730">
        <ele>1420.9700000</ele>
        <time>2010-09-29T13:45:40Z</time>
      </trkpt>
      <trkpt lat="46.0415850" lon="12.3346580">
        <ele>1419.5200000</ele>
        <time>2010-09-29T13:45:47Z</time>
      </trkpt>
      <trkpt lat="46.0415620" lon="12.3346510">
        <ele>1416.6400000</ele>
        <time>2010-09-29T13:45:51Z</time>
      </trkpt>
      <trkpt lat="46.0415200" lon="12.3346220">
        <ele>1415.6800000</ele>
        <time>2010-09-29T13:45:56Z</time>
      </trkpt>
      <trkpt lat="46.0415070" lon="12.3345910">
        <ele>1414.7200000</ele>
        <time>2010-09-29T13:46:00Z</time>
      </trkpt>
      <trkpt lat="46.0415050" lon="12.3345650">
        <ele>1415.6800000</ele>
        <time>2010-09-29T13:46:06Z</time>
      </trkpt>
      <trkpt lat="46.0415040" lon="12.3345350">
        <ele>1412.7900000</ele>
        <time>2010-09-29T13:46:10Z</time>
      </trkpt>
      <trkpt lat="46.0415070" lon="12.3345210">
        <ele>1411.3500000</ele>
        <time>2010-09-29T13:46:11Z</time>
      </trkpt>
      <trkpt lat="46.0414770" lon="12.3344680">
        <ele>1409.9100000</ele>
        <time>2010-09-29T13:46:19Z</time>
      </trkpt>
      <trkpt lat="46.0414550" lon="12.3344420">
        <ele>1408.4700000</ele>
        <time>2010-09-29T13:46:22Z</time>
      </trkpt>
      <trkpt lat="46.0414640" lon="12.3343810">
        <ele>1406.0700000</ele>
        <time>2010-09-29T13:46:29Z</time>
      </trkpt>
      <trkpt lat="46.0414580" lon="12.3343410">
        <ele>1407.5100000</ele>
        <time>2010-09-29T13:46:33Z</time>
      </trkpt>
      <trkpt lat="46.0414530" lon="12.3342900">
        <ele>1405.5800000</ele>
        <time>2010-09-29T13:46:41Z</time>
      </trkpt>
      <trkpt lat="46.0414570" lon="12.3342770">
        <ele>1405.5800000</ele>
        <time>2010-09-29T13:46:42Z</time>
      </trkpt>
      <trkpt lat="46.0414650" lon="12.3342200">
        <ele>1404.6200000</ele>
        <time>2010-09-29T13:46:46Z</time>
      </trkpt>
      <trkpt lat="46.0414480" lon="12.3341590">
        <ele>1402.2200000</ele>
        <time>2010-09-29T13:46:51Z</time>
      </trkpt>
      <trkpt lat="46.0414460" lon="12.3340690">
        <ele>1400.3000000</ele>
        <time>2010-09-29T13:47:00Z</time>
      </trkpt>
      <trkpt lat="46.0414450" lon="12.3340460">
        <ele>1397.8900000</ele>
        <time>2010-09-29T13:47:02Z</time>
      </trkpt>
      <trkpt lat="46.0414310" lon="12.3339770">
        <ele>1397.8900000</ele>
        <time>2010-09-29T13:47:07Z</time>
      </trkpt>
      <trkpt lat="46.0414340" lon="12.3338980">
        <ele>1394.0500000</ele>
        <time>2010-09-29T13:47:14Z</time>
      </trkpt>
      <trkpt lat="46.0414300" lon="12.3338580">
        <ele>1395.4900000</ele>
        <time>2010-09-29T13:47:18Z</time>
      </trkpt>
      <trkpt lat="46.0414340" lon="12.3338310">
        <ele>1393.5700000</ele>
        <time>2010-09-29T13:47:21Z</time>
      </trkpt>
      <trkpt lat="46.0414520" lon="12.3338040">
        <ele>1392.1300000</ele>
        <time>2010-09-29T13:47:28Z</time>
      </trkpt>
      <trkpt lat="46.0414490" lon="12.3337960">
        <ele>1392.6100000</ele>
        <time>2010-09-29T13:47:29Z</time>
      </trkpt>
      <trkpt lat="46.0414090" lon="12.3337590">
        <ele>1391.1700000</ele>
        <time>2010-09-29T13:47:34Z</time>
      </trkpt>
      <trkpt lat="46.0414000" lon="12.3337550">
        <ele>1391.1700000</ele>
        <time>2010-09-29T13:47:35Z</time>
      </trkpt>
      <trkpt lat="46.0413750" lon="12.3337340">
        <ele>1389.7200000</ele>
        <time>2010-09-29T13:47:38Z</time>
      </trkpt>
      <trkpt lat="46.0413100" lon="12.3337060">
        <ele>1387.3200000</ele>
        <time>2010-09-29T13:47:41Z</time>
      </trkpt>
      <trkpt lat="46.0411960" lon="12.3336730">
        <ele>1388.7600000</ele>
        <time>2010-09-29T13:47:46Z</time>
      </trkpt>
      <trkpt lat="46.0411670" lon="12.3336740">
        <ele>1385.8800000</ele>
        <time>2010-09-29T13:47:49Z</time>
      </trkpt>
      <trkpt lat="46.0411010" lon="12.3336650">
        <ele>1384.9200000</ele>
        <time>2010-09-29T13:47:56Z</time>
      </trkpt>
      <trkpt lat="46.0410940" lon="12.3336600">
        <ele>1384.9200000</ele>
        <time>2010-09-29T13:47:57Z</time>
      </trkpt>
      <trkpt lat="46.0410600" lon="12.3336030">
        <ele>1381.5500000</ele>
        <time>2010-09-29T13:48:05Z</time>
      </trkpt>
      <trkpt lat="46.0410910" lon="12.3335380">
        <ele>1381.5500000</ele>
        <time>2010-09-29T13:48:12Z</time>
      </trkpt>
      <trkpt lat="46.0410980" lon="12.3335310">
        <ele>1381.0700000</ele>
        <time>2010-09-29T13:48:14Z</time>
      </trkpt>
      <trkpt lat="46.0411120" lon="12.3334410">
        <ele>1377.7100000</ele>
        <time>2010-09-29T13:48:22Z</time>
      </trkpt>
      <trkpt lat="46.0411200" lon="12.3333590">
        <ele>1374.8200000</ele>
        <time>2010-09-29T13:48:29Z</time>
      </trkpt>
      <trkpt lat="46.0411190" lon="12.3333460">
        <ele>1375.7800000</ele>
        <time>2010-09-29T13:48:30Z</time>
      </trkpt>
      <trkpt lat="46.0411230" lon="12.3332820">
        <ele>1373.8600000</ele>
        <time>2010-09-29T13:48:36Z</time>
      </trkpt>
      <trkpt lat="46.0410990" lon="12.3332670">
        <ele>1373.3800000</ele>
        <time>2010-09-29T13:48:43Z</time>
      </trkpt>
      <trkpt lat="46.0410990" lon="12.3332680">
        <ele>1373.3800000</ele>
        <time>2010-09-29T13:49:22Z</time>
      </trkpt>
      <trkpt lat="46.0410710" lon="12.3332250">
        <ele>1371.4600000</ele>
        <time>2010-09-29T13:49:43Z</time>
      </trkpt>
      <trkpt lat="46.0410490" lon="12.3332060">
        <ele>1370.0200000</ele>
        <time>2010-09-29T13:49:46Z</time>
      </trkpt>
      <trkpt lat="46.0409890" lon="12.3331370">
        <ele>1368.5700000</ele>
        <time>2010-09-29T13:49:53Z</time>
      </trkpt>
      <trkpt lat="46.0409860" lon="12.3329990">
        <ele>1364.7300000</ele>
        <time>2010-09-29T13:50:00Z</time>
      </trkpt>
      <trkpt lat="46.0409850" lon="12.3329920">
        <ele>1365.2100000</ele>
        <time>2010-09-29T13:50:01Z</time>
      </trkpt>
      <trkpt lat="46.0409780" lon="12.3329730">
        <ele>1364.7300000</ele>
        <time>2010-09-29T13:50:09Z</time>
      </trkpt>
      <trkpt lat="46.0409680" lon="12.3329500">
        <ele>1364.2500000</ele>
        <time>2010-09-29T13:50:35Z</time>
      </trkpt>
      <trkpt lat="46.0409650" lon="12.3328990">
        <ele>1363.7700000</ele>
        <time>2010-09-29T13:50:42Z</time>
      </trkpt>
      <trkpt lat="46.0409730" lon="12.3328590">
        <ele>1361.3600000</ele>
        <time>2010-09-29T13:50:46Z</time>
      </trkpt>
      <trkpt lat="46.0409430" lon="12.3328160">
        <ele>1360.4000000</ele>
        <time>2010-09-29T13:50:51Z</time>
      </trkpt>
      <trkpt lat="46.0409300" lon="12.3327280">
        <ele>1357.5200000</ele>
        <time>2010-09-29T13:50:59Z</time>
      </trkpt>
      <trkpt lat="46.0409100" lon="12.3326930">
        <ele>1357.0400000</ele>
        <time>2010-09-29T13:51:03Z</time>
      </trkpt>
      <trkpt lat="46.0409020" lon="12.3326710">
        <ele>1356.0800000</ele>
        <time>2010-09-29T13:51:05Z</time>
      </trkpt>
      <trkpt lat="46.0409040" lon="12.3326270">
        <ele>1354.6300000</ele>
        <time>2010-09-29T13:51:08Z</time>
      </trkpt>
      <trkpt lat="46.0409300" lon="12.3325660">
        <ele>1354.1500000</ele>
        <time>2010-09-29T13:51:12Z</time>
      </trkpt>
      <trkpt lat="46.0408700" lon="12.3324760">
        <ele>1352.2300000</ele>
        <time>2010-09-29T13:51:20Z</time>
      </trkpt>
      <trkpt lat="46.0408580" lon="12.3324460">
        <ele>1350.3100000</ele>
        <time>2010-09-29T13:51:23Z</time>
      </trkpt>
      <trkpt lat="46.0408140" lon="12.3323270">
        <ele>1348.3900000</ele>
        <time>2010-09-29T13:51:33Z</time>
      </trkpt>
      <trkpt lat="46.0407700" lon="12.3322760">
        <ele>1345.9800000</ele>
        <time>2010-09-29T13:51:38Z</time>
      </trkpt>
      <trkpt lat="46.0407600" lon="12.3322420">
        <ele>1345.0200000</ele>
        <time>2010-09-29T13:51:43Z</time>
      </trkpt>
      <trkpt lat="46.0407670" lon="12.3322340">
        <ele>1345.0200000</ele>
        <time>2010-09-29T13:51:44Z</time>
      </trkpt>
      <trkpt lat="46.0407740" lon="12.3321640">
        <ele>1342.6200000</ele>
        <time>2010-09-29T13:51:51Z</time>
      </trkpt>
      <trkpt lat="46.0407690" lon="12.3321580">
        <ele>1342.6200000</ele>
        <time>2010-09-29T13:51:52Z</time>
      </trkpt>
      <trkpt lat="46.0407380" lon="12.3321240">
        <ele>1342.1400000</ele>
        <time>2010-09-29T13:51:59Z</time>
      </trkpt>
      <trkpt lat="46.0407370" lon="12.3321110">
        <ele>1341.6600000</ele>
        <time>2010-09-29T13:52:13Z</time>
      </trkpt>
      <trkpt lat="46.0407270" lon="12.3321070">
        <ele>1340.7000000</ele>
        <time>2010-09-29T13:52:23Z</time>
      </trkpt>
      <trkpt lat="46.0407260" lon="12.3321020">
        <ele>1341.1800000</ele>
        <time>2010-09-29T13:52:59Z</time>
      </trkpt>
      <trkpt lat="46.0407310" lon="12.3320930">
        <ele>1340.7000000</ele>
        <time>2010-09-29T13:57:55Z</time>
      </trkpt>
      <trkpt lat="46.0407350" lon="12.3320660">
        <ele>1339.2500000</ele>
        <time>2010-09-29T13:58:02Z</time>
      </trkpt>
      <trkpt lat="46.0407400" lon="12.3320620">
        <ele>1339.7300000</ele>
        <time>2010-09-29T13:58:04Z</time>
      </trkpt>
      <trkpt lat="46.0407680" lon="12.3320370">
        <ele>1337.3300000</ele>
        <time>2010-09-29T13:58:11Z</time>
      </trkpt>
      <trkpt lat="46.0407760" lon="12.3320330">
        <ele>1337.3300000</ele>
        <time>2010-09-29T13:58:12Z</time>
      </trkpt>
      <trkpt lat="46.0408060" lon="12.3320130">
        <ele>1334.9300000</ele>
        <time>2010-09-29T13:58:22Z</time>
      </trkpt>
      <trkpt lat="46.0408530" lon="12.3319600">
        <ele>1334.4500000</ele>
        <time>2010-09-29T13:58:29Z</time>
      </trkpt>
      <trkpt lat="46.0408790" lon="12.3319400">
        <ele>1332.5200000</ele>
        <time>2010-09-29T13:58:33Z</time>
      </trkpt>
      <trkpt lat="46.0408830" lon="12.3319290">
        <ele>1332.0400000</ele>
        <time>2010-09-29T13:58:34Z</time>
      </trkpt>
      <trkpt lat="46.0409080" lon="12.3318810">
        <ele>1329.1600000</ele>
        <time>2010-09-29T13:58:39Z</time>
      </trkpt>
      <trkpt lat="46.0409130" lon="12.3318670">
        <ele>1329.6400000</ele>
        <time>2010-09-29T13:58:40Z</time>
      </trkpt>
      <trkpt lat="46.0409240" lon="12.3317860">
        <ele>1328.6800000</ele>
        <time>2010-09-29T13:58:47Z</time>
      </trkpt>
      <trkpt lat="46.0409290" lon="12.3317590">
        <ele>1327.7200000</ele>
        <time>2010-09-29T13:58:49Z</time>
      </trkpt>
      <trkpt lat="46.0408690" lon="12.3316940">
        <ele>1327.7200000</ele>
        <time>2010-09-29T13:58:57Z</time>
      </trkpt>
      <trkpt lat="46.0408290" lon="12.3316650">
        <ele>1326.2800000</ele>
        <time>2010-09-29T13:59:02Z</time>
      </trkpt>
      <trkpt lat="46.0408000" lon="12.3316180">
        <ele>1324.3500000</ele>
        <time>2010-09-29T13:59:08Z</time>
      </trkpt>
      <trkpt lat="46.0407590" lon="12.3315920">
        <ele>1322.4300000</ele>
        <time>2010-09-29T13:59:14Z</time>
      </trkpt>
      <trkpt lat="46.0407510" lon="12.3315860">
        <ele>1321.9500000</ele>
        <time>2010-09-29T13:59:15Z</time>
      </trkpt>
      <trkpt lat="46.0407200" lon="12.3315350">
        <ele>1320.0300000</ele>
        <time>2010-09-29T13:59:23Z</time>
      </trkpt>
      <trkpt lat="46.0406870" lon="12.3314830">
        <ele>1318.1000000</ele>
        <time>2010-09-29T13:59:28Z</time>
      </trkpt>
      <trkpt lat="46.0406640" lon="12.3314760">
        <ele>1317.6200000</ele>
        <time>2010-09-29T13:59:30Z</time>
      </trkpt>
      <trkpt lat="46.0406500" lon="12.3314730">
        <ele>1317.6200000</ele>
        <time>2010-09-29T13:59:39Z</time>
      </trkpt>
      <trkpt lat="46.0405910" lon="12.3314500">
        <ele>1317.1400000</ele>
        <time>2010-09-29T13:59:45Z</time>
      </trkpt>
      <trkpt lat="46.0405850" lon="12.3314430">
        <ele>1317.1400000</ele>
        <time>2010-09-29T13:59:46Z</time>
      </trkpt>
      <trkpt lat="46.0405570" lon="12.3313870">
        <ele>1314.7400000</ele>
        <time>2010-09-29T13:59:52Z</time>
      </trkpt>
      <trkpt lat="46.0405380" lon="12.3313600">
        <ele>1312.8200000</ele>
        <time>2010-09-29T13:59:59Z</time>
      </trkpt>
      <trkpt lat="46.0405360" lon="12.3313440">
        <ele>1311.3800000</ele>
        <time>2010-09-29T14:00:01Z</time>
      </trkpt>
      <trkpt lat="46.0404900" lon="12.3313050">
        <ele>1311.8600000</ele>
        <time>2010-09-29T14:00:08Z</time>
      </trkpt>
      <trkpt lat="46.0404850" lon="12.3312930">
        <ele>1308.9700000</ele>
        <time>2010-09-29T14:00:10Z</time>
      </trkpt>
      <trkpt lat="46.0404720" lon="12.3312660">
        <ele>1307.5300000</ele>
        <time>2010-09-29T14:00:14Z</time>
      </trkpt>
      <trkpt lat="46.0404540" lon="12.3312310">
        <ele>1308.9700000</ele>
        <time>2010-09-29T14:00:17Z</time>
      </trkpt>
      <trkpt lat="46.0404510" lon="12.3312070">
        <ele>1307.0500000</ele>
        <time>2010-09-29T14:00:22Z</time>
      </trkpt>
      <trkpt lat="46.0404490" lon="12.3311440">
        <ele>1304.1700000</ele>
        <time>2010-09-29T14:00:29Z</time>
      </trkpt>
      <trkpt lat="46.0404350" lon="12.3311230">
        <ele>1303.2000000</ele>
        <time>2010-09-29T14:00:31Z</time>
      </trkpt>
      <trkpt lat="46.0404100" lon="12.3310740">
        <ele>1303.6900000</ele>
        <time>2010-09-29T14:00:36Z</time>
      </trkpt>
      <trkpt lat="46.0403740" lon="12.3309930">
        <ele>1299.8400000</ele>
        <time>2010-09-29T14:00:44Z</time>
      </trkpt>
      <trkpt lat="46.0403470" lon="12.3309060">
        <ele>1299.8400000</ele>
        <time>2010-09-29T14:00:52Z</time>
      </trkpt>
      <trkpt lat="46.0403380" lon="12.3308630">
        <ele>1297.9200000</ele>
        <time>2010-09-29T14:00:56Z</time>
      </trkpt>
      <trkpt lat="46.0403030" lon="12.3308550">
        <ele>1296.4800000</ele>
        <time>2010-09-29T14:01:00Z</time>
      </trkpt>
      <trkpt lat="46.0402910" lon="12.3307950">
        <ele>1293.5900000</ele>
        <time>2010-09-29T14:01:06Z</time>
      </trkpt>
      <trkpt lat="46.0402840" lon="12.3307840">
        <ele>1294.0700000</ele>
        <time>2010-09-29T14:01:07Z</time>
      </trkpt>
      <trkpt lat="46.0402710" lon="12.3307560">
        <ele>1293.1100000</ele>
        <time>2010-09-29T14:01:12Z</time>
      </trkpt>
      <trkpt lat="46.0402300" lon="12.3307420">
        <ele>1292.6300000</ele>
        <time>2010-09-29T14:01:21Z</time>
      </trkpt>
      <trkpt lat="46.0401870" lon="12.3307160">
        <ele>1291.6700000</ele>
        <time>2010-09-29T14:01:29Z</time>
      </trkpt>
      <trkpt lat="46.0401400" lon="12.3306610">
        <ele>1289.2700000</ele>
        <time>2010-09-29T14:01:39Z</time>
      </trkpt>
      <trkpt lat="46.0401280" lon="12.3306110">
        <ele>1287.8200000</ele>
        <time>2010-09-29T14:01:44Z</time>
      </trkpt>
      <trkpt lat="46.0401480" lon="12.3305530">
        <ele>1284.9400000</ele>
        <time>2010-09-29T14:01:57Z</time>
      </trkpt>
      <trkpt lat="46.0401570" lon="12.3305330">
        <ele>1283.5000000</ele>
        <time>2010-09-29T14:02:03Z</time>
      </trkpt>
      <trkpt lat="46.0401530" lon="12.3304660">
        <ele>1280.1300000</ele>
        <time>2010-09-29T14:02:12Z</time>
      </trkpt>
      <trkpt lat="46.0401460" lon="12.3304030">
        <ele>1278.6900000</ele>
        <time>2010-09-29T14:02:19Z</time>
      </trkpt>
      <trkpt lat="46.0400830" lon="12.3303330">
        <ele>1277.7300000</ele>
        <time>2010-09-29T14:02:26Z</time>
      </trkpt>
      <trkpt lat="46.0400750" lon="12.3302610">
        <ele>1277.2500000</ele>
        <time>2010-09-29T14:02:31Z</time>
      </trkpt>
      <trkpt lat="46.0400510" lon="12.3302320">
        <ele>1273.8800000</ele>
        <time>2010-09-29T14:02:34Z</time>
      </trkpt>
      <trkpt lat="46.0400510" lon="12.3302320">
        <ele>1273.8800000</ele>
        <time>2010-09-29T14:02:35Z</time>
      </trkpt>
      <trkpt lat="46.0400160" lon="12.3301890">
        <ele>1273.8800000</ele>
        <time>2010-09-29T14:02:42Z</time>
      </trkpt>
      <trkpt lat="46.0400160" lon="12.3301890">
        <ele>1273.4000000</ele>
        <time>2010-09-29T14:02:54Z</time>
      </trkpt>
      <trkpt lat="46.0400160" lon="12.3301890">
        <ele>1272.4400000</ele>
        <time>2010-09-29T14:03:09Z</time>
      </trkpt>
      <trkpt lat="46.0399520" lon="12.3301070">
        <ele>1271.0000000</ele>
        <time>2010-09-29T14:03:17Z</time>
      </trkpt>
      <trkpt lat="46.0399480" lon="12.3300960">
        <ele>1270.5200000</ele>
        <time>2010-09-29T14:03:18Z</time>
      </trkpt>
      <trkpt lat="46.0399050" lon="12.3299930">
        <ele>1268.6000000</ele>
        <time>2010-09-29T14:03:26Z</time>
      </trkpt>
      <trkpt lat="46.0398730" lon="12.3299240">
        <ele>1266.6700000</ele>
        <time>2010-09-29T14:03:32Z</time>
      </trkpt>
      <trkpt lat="46.0398600" lon="12.3298770">
        <ele>1264.7500000</ele>
        <time>2010-09-29T14:03:36Z</time>
      </trkpt>
      <trkpt lat="46.0398330" lon="12.3298270">
        <ele>1263.3100000</ele>
        <time>2010-09-29T14:03:42Z</time>
      </trkpt>
      <trkpt lat="46.0398070" lon="12.3297870">
        <ele>1261.8700000</ele>
        <time>2010-09-29T14:03:45Z</time>
      </trkpt>
      <trkpt lat="46.0397740" lon="12.3297380">
        <ele>1261.3900000</ele>
        <time>2010-09-29T14:03:51Z</time>
      </trkpt>
      <trkpt lat="46.0397620" lon="12.3297270">
        <ele>1261.8700000</ele>
        <time>2010-09-29T14:03:52Z</time>
      </trkpt>
      <trkpt lat="46.0396780" lon="12.3296710">
        <ele>1259.9400000</ele>
        <time>2010-09-29T14:03:59Z</time>
      </trkpt>
      <trkpt lat="46.0396290" lon="12.3296190">
        <ele>1257.5400000</ele>
        <time>2010-09-29T14:04:07Z</time>
      </trkpt>
      <trkpt lat="46.0395850" lon="12.3295800">
        <ele>1257.5400000</ele>
        <time>2010-09-29T14:04:13Z</time>
      </trkpt>
      <trkpt lat="46.0395780" lon="12.3295570">
        <ele>1256.1000000</ele>
        <time>2010-09-29T14:04:15Z</time>
      </trkpt>
      <trkpt lat="46.0395650" lon="12.3295380">
        <ele>1256.1000000</ele>
        <time>2010-09-29T14:04:17Z</time>
      </trkpt>
      <trkpt lat="46.0395240" lon="12.3294620">
        <ele>1253.2200000</ele>
        <time>2010-09-29T14:04:25Z</time>
      </trkpt>
      <trkpt lat="46.0394730" lon="12.3294250">
        <ele>1251.2900000</ele>
        <time>2010-09-29T14:04:30Z</time>
      </trkpt>
      <trkpt lat="46.0394690" lon="12.3294150">
        <ele>1250.8100000</ele>
        <time>2010-09-29T14:04:31Z</time>
      </trkpt>
      <trkpt lat="46.0394420" lon="12.3293510">
        <ele>1248.8900000</ele>
        <time>2010-09-29T14:04:37Z</time>
      </trkpt>
      <trkpt lat="46.0394300" lon="12.3293240">
        <ele>1248.8900000</ele>
        <time>2010-09-29T14:04:40Z</time>
      </trkpt>
      <trkpt lat="46.0394100" lon="12.3292970">
        <ele>1247.4500000</ele>
        <time>2010-09-29T14:04:43Z</time>
      </trkpt>
      <trkpt lat="46.0393930" lon="12.3292370">
        <ele>1246.9700000</ele>
        <time>2010-09-29T14:04:49Z</time>
      </trkpt>
      <trkpt lat="46.0393680" lon="12.3291730">
        <ele>1246.0100000</ele>
        <time>2010-09-29T14:04:55Z</time>
      </trkpt>
      <trkpt lat="46.0393470" lon="12.3290930">
        <ele>1245.0400000</ele>
        <time>2010-09-29T14:05:25Z</time>
      </trkpt>
      <trkpt lat="46.0393400" lon="12.3290580">
        <ele>1244.0800000</ele>
        <time>2010-09-29T14:05:29Z</time>
      </trkpt>
      <trkpt lat="46.0393270" lon="12.3289940">
        <ele>1243.6000000</ele>
        <time>2010-09-29T14:05:33Z</time>
      </trkpt>
      <trkpt lat="46.0392890" lon="12.3289110">
        <ele>1241.6800000</ele>
        <time>2010-09-29T14:05:39Z</time>
      </trkpt>
      <trkpt lat="46.0392650" lon="12.3288390">
        <ele>1241.2000000</ele>
        <time>2010-09-29T14:05:45Z</time>
      </trkpt>
      <trkpt lat="46.0392300" lon="12.3287490">
        <ele>1239.2800000</ele>
        <time>2010-09-29T14:05:50Z</time>
      </trkpt>
      <trkpt lat="46.0391920" lon="12.3286700">
        <ele>1237.8300000</ele>
        <time>2010-09-29T14:05:58Z</time>
      </trkpt>
      <trkpt lat="46.0391530" lon="12.3286190">
        <ele>1236.8700000</ele>
        <time>2010-09-29T14:06:04Z</time>
      </trkpt>
      <trkpt lat="46.0391050" lon="12.3285310">
        <ele>1234.4700000</ele>
        <time>2010-09-29T14:06:12Z</time>
      </trkpt>
      <trkpt lat="46.0391050" lon="12.3285290">
        <ele>1233.9900000</ele>
        <time>2010-09-29T14:06:14Z</time>
      </trkpt>
      <trkpt lat="46.0390680" lon="12.3284610">
        <ele>1233.0300000</ele>
        <time>2010-09-29T14:06:20Z</time>
      </trkpt>
      <trkpt lat="46.0390650" lon="12.3284130">
        <ele>1231.5900000</ele>
        <time>2010-09-29T14:06:25Z</time>
      </trkpt>
      <trkpt lat="46.0390630" lon="12.3283690">
        <ele>1230.6200000</ele>
        <time>2010-09-29T14:06:28Z</time>
      </trkpt>
      <trkpt lat="46.0390480" lon="12.3282830">
        <ele>1228.2200000</ele>
        <time>2010-09-29T14:06:35Z</time>
      </trkpt>
      <trkpt lat="46.0390410" lon="12.3282740">
        <ele>1227.7400000</ele>
        <time>2010-09-29T14:06:36Z</time>
      </trkpt>
      <trkpt lat="46.0390270" lon="12.3282620">
        <ele>1228.2200000</ele>
        <time>2010-09-29T14:06:38Z</time>
      </trkpt>
      <trkpt lat="46.0389850" lon="12.3282350">
        <ele>1228.2200000</ele>
        <time>2010-09-29T14:06:42Z</time>
      </trkpt>
      <trkpt lat="46.0389410" lon="12.3281860">
        <ele>1224.8600000</ele>
        <time>2010-09-29T14:06:49Z</time>
      </trkpt>
      <trkpt lat="46.0389410" lon="12.3281860">
        <ele>1224.3800000</ele>
        <time>2010-09-29T14:06:51Z</time>
      </trkpt>
      <trkpt lat="46.0389110" lon="12.3281680">
        <ele>1223.9000000</ele>
        <time>2010-09-29T14:06:54Z</time>
      </trkpt>
      <trkpt lat="46.0388370" lon="12.3281070">
        <ele>1221.4900000</ele>
        <time>2010-09-29T14:07:03Z</time>
      </trkpt>
      <trkpt lat="46.0387640" lon="12.3280210">
        <ele>1220.0500000</ele>
        <time>2010-09-29T14:07:11Z</time>
      </trkpt>
      <trkpt lat="46.0387270" lon="12.3279960">
        <ele>1219.5700000</ele>
        <time>2010-09-29T14:07:17Z</time>
      </trkpt>
      <trkpt lat="46.0387160" lon="12.3279790">
        <ele>1218.6100000</ele>
        <time>2010-09-29T14:07:21Z</time>
      </trkpt>
      <trkpt lat="46.0386610" lon="12.3279180">
        <ele>1217.1700000</ele>
        <time>2010-09-29T14:07:28Z</time>
      </trkpt>
      <trkpt lat="46.0386050" lon="12.3278640">
        <ele>1216.2100000</ele>
        <time>2010-09-29T14:07:35Z</time>
      </trkpt>
      <trkpt lat="46.0385610" lon="12.3277800">
        <ele>1213.8000000</ele>
        <time>2010-09-29T14:07:41Z</time>
      </trkpt>
      <trkpt lat="46.0385670" lon="12.3277340">
        <ele>1212.3600000</ele>
        <time>2010-09-29T14:07:47Z</time>
      </trkpt>
      <trkpt lat="46.0385680" lon="12.3277140">
        <ele>1211.4000000</ele>
        <time>2010-09-29T14:07:49Z</time>
      </trkpt>
      <trkpt lat="46.0385520" lon="12.3276500">
        <ele>1210.9200000</ele>
        <time>2010-09-29T14:07:53Z</time>
      </trkpt>
      <trkpt lat="46.0385430" lon="12.3276330">
        <ele>1210.9200000</ele>
        <time>2010-09-29T14:07:58Z</time>
      </trkpt>
      <trkpt lat="46.0385050" lon="12.3275140">
        <ele>1209.4800000</ele>
        <time>2010-09-29T14:08:05Z</time>
      </trkpt>
      <trkpt lat="46.0384760" lon="12.3274710">
        <ele>1207.0700000</ele>
        <time>2010-09-29T14:08:11Z</time>
      </trkpt>
      <trkpt lat="46.0384630" lon="12.3274430">
        <ele>1206.5900000</ele>
        <time>2010-09-29T14:08:13Z</time>
      </trkpt>
      <trkpt lat="46.0384360" lon="12.3273510">
        <ele>1206.5900000</ele>
        <time>2010-09-29T14:08:17Z</time>
      </trkpt>
      <trkpt lat="46.0384410" lon="12.3272760">
        <ele>1205.1500000</ele>
        <time>2010-09-29T14:08:24Z</time>
      </trkpt>
      <trkpt lat="46.0384280" lon="12.3272390">
        <ele>1204.1900000</ele>
        <time>2010-09-29T14:08:30Z</time>
      </trkpt>
      <trkpt lat="46.0384100" lon="12.3271540">
        <ele>1202.7500000</ele>
        <time>2010-09-29T14:08:49Z</time>
      </trkpt>
      <trkpt lat="46.0383950" lon="12.3271170">
        <ele>1201.3000000</ele>
        <time>2010-09-29T14:08:54Z</time>
      </trkpt>
      <trkpt lat="46.0383640" lon="12.3270720">
        <ele>1199.8600000</ele>
        <time>2010-09-29T14:08:58Z</time>
      </trkpt>
      <trkpt lat="46.0383470" lon="12.3270040">
        <ele>1199.3800000</ele>
        <time>2010-09-29T14:09:04Z</time>
      </trkpt>
      <trkpt lat="46.0383340" lon="12.3269580">
        <ele>1198.9000000</ele>
        <time>2010-09-29T14:09:07Z</time>
      </trkpt>
      <trkpt lat="46.0382740" lon="12.3268400">
        <ele>1196.9800000</ele>
        <time>2010-09-29T14:09:14Z</time>
      </trkpt>
      <trkpt lat="46.0382510" lon="12.3268030">
        <ele>1196.9800000</ele>
        <time>2010-09-29T14:09:19Z</time>
      </trkpt>
      <trkpt lat="46.0382230" lon="12.3267580">
        <ele>1196.5000000</ele>
        <time>2010-09-29T14:09:23Z</time>
      </trkpt>
      <trkpt lat="46.0382030" lon="12.3266640">
        <ele>1195.5400000</ele>
        <time>2010-09-29T14:09:29Z</time>
      </trkpt>
      <trkpt lat="46.0381890" lon="12.3266190">
        <ele>1195.0600000</ele>
        <time>2010-09-29T14:09:36Z</time>
      </trkpt>
      <trkpt lat="46.0381880" lon="12.3266040">
        <ele>1194.5800000</ele>
        <time>2010-09-29T14:09:47Z</time>
      </trkpt>
      <trkpt lat="46.0381670" lon="12.3265620">
        <ele>1194.0900000</ele>
        <time>2010-09-29T14:09:50Z</time>
      </trkpt>
      <trkpt lat="46.0381350" lon="12.3264900">
        <ele>1193.6100000</ele>
        <time>2010-09-29T14:09:56Z</time>
      </trkpt>
      <trkpt lat="46.0381210" lon="12.3264720">
        <ele>1193.1300000</ele>
        <time>2010-09-29T14:09:58Z</time>
      </trkpt>
      <trkpt lat="46.0380270" lon="12.3263860">
        <ele>1191.2100000</ele>
        <time>2010-09-29T14:10:05Z</time>
      </trkpt>
      <trkpt lat="46.0379580" lon="12.3263060">
        <ele>1188.8100000</ele>
        <time>2010-09-29T14:10:11Z</time>
      </trkpt>
      <trkpt lat="46.0379180" lon="12.3262720">
        <ele>1188.3300000</ele>
        <time>2010-09-29T14:10:17Z</time>
      </trkpt>
      <trkpt lat="46.0378440" lon="12.3262160">
        <ele>1185.9200000</ele>
        <time>2010-09-29T14:10:24Z</time>
      </trkpt>
      <trkpt lat="46.0377750" lon="12.3261480">
        <ele>1183.0400000</ele>
        <time>2010-09-29T14:10:32Z</time>
      </trkpt>
      <trkpt lat="46.0377690" lon="12.3261470">
        <ele>1182.5600000</ele>
        <time>2010-09-29T14:10:33Z</time>
      </trkpt>
      <trkpt lat="46.0377580" lon="12.3261430">
        <ele>1182.5600000</ele>
        <time>2010-09-29T14:10:35Z</time>
      </trkpt>
      <trkpt lat="46.0377150" lon="12.3261320">
        <ele>1181.6000000</ele>
        <time>2010-09-29T14:10:41Z</time>
      </trkpt>
      <trkpt lat="46.0376950" lon="12.3261060">
        <ele>1180.6400000</ele>
        <time>2010-09-29T14:10:43Z</time>
      </trkpt>
      <trkpt lat="46.0376370" lon="12.3260800">
        <ele>1178.2300000</ele>
        <time>2010-09-29T14:10:49Z</time>
      </trkpt>
      <trkpt lat="46.0375940" lon="12.3260510">
        <ele>1177.2700000</ele>
        <time>2010-09-29T14:10:55Z</time>
      </trkpt>
      <trkpt lat="46.0375600" lon="12.3260440">
        <ele>1175.8300000</ele>
        <time>2010-09-29T14:11:03Z</time>
      </trkpt>
      <trkpt lat="46.0375510" lon="12.3260380">
        <ele>1175.3500000</ele>
        <time>2010-09-29T14:11:04Z</time>
      </trkpt>
      <trkpt lat="46.0374960" lon="12.3260150">
        <ele>1172.9500000</ele>
        <time>2010-09-29T14:11:09Z</time>
      </trkpt>
      <trkpt lat="46.0374530" lon="12.3259860">
        <ele>1170.5400000</ele>
        <time>2010-09-29T14:11:16Z</time>
      </trkpt>
      <trkpt lat="46.0374100" lon="12.3259550">
        <ele>1169.5800000</ele>
        <time>2010-09-29T14:11:23Z</time>
      </trkpt>
      <trkpt lat="46.0373760" lon="12.3259280">
        <ele>1167.6600000</ele>
        <time>2010-09-29T14:11:27Z</time>
      </trkpt>
      <trkpt lat="46.0373030" lon="12.3258940">
        <ele>1166.2200000</ele>
        <time>2010-09-29T14:11:33Z</time>
      </trkpt>
      <trkpt lat="46.0372150" lon="12.3258220">
        <ele>1163.8100000</ele>
        <time>2010-09-29T14:11:42Z</time>
      </trkpt>
      <trkpt lat="46.0371970" lon="12.3258090">
        <ele>1162.3700000</ele>
        <time>2010-09-29T14:11:45Z</time>
      </trkpt>
      <trkpt lat="46.0371700" lon="12.3257780">
        <ele>1160.4500000</ele>
        <time>2010-09-29T14:11:49Z</time>
      </trkpt>
      <trkpt lat="46.0371160" lon="12.3257320">
        <ele>1158.0500000</ele>
        <time>2010-09-29T14:11:58Z</time>
      </trkpt>
      <trkpt lat="46.0371050" lon="12.3257240">
        <ele>1158.5300000</ele>
        <time>2010-09-29T14:11:59Z</time>
      </trkpt>
      <trkpt lat="46.0370550" lon="12.3256840">
        <ele>1157.0800000</ele>
        <time>2010-09-29T14:12:06Z</time>
      </trkpt>
      <trkpt lat="46.0370150" lon="12.3256720">
        <ele>1154.6800000</ele>
        <time>2010-09-29T14:12:12Z</time>
      </trkpt>
      <trkpt lat="46.0369940" lon="12.3256550">
        <ele>1153.7200000</ele>
        <time>2010-09-29T14:12:14Z</time>
      </trkpt>
      <trkpt lat="46.0369760" lon="12.3256480">
        <ele>1152.7600000</ele>
        <time>2010-09-29T14:12:16Z</time>
      </trkpt>
      <trkpt lat="46.0369450" lon="12.3256210">
        <ele>1152.2800000</ele>
        <time>2010-09-29T14:12:23Z</time>
      </trkpt>
      <trkpt lat="46.0369420" lon="12.3256030">
        <ele>1150.8400000</ele>
        <time>2010-09-29T14:12:26Z</time>
      </trkpt>
      <trkpt lat="46.0369300" lon="12.3255830">
        <ele>1148.4300000</ele>
        <time>2010-09-29T14:12:35Z</time>
      </trkpt>
      <trkpt lat="46.0368750" lon="12.3255730">
        <ele>1146.0300000</ele>
        <time>2010-09-29T14:12:40Z</time>
      </trkpt>
      <trkpt lat="46.0368510" lon="12.3255740">
        <ele>1145.5500000</ele>
        <time>2010-09-29T14:12:42Z</time>
      </trkpt>
      <trkpt lat="46.0367920" lon="12.3255620">
        <ele>1145.0700000</ele>
        <time>2010-09-29T14:12:49Z</time>
      </trkpt>
      <trkpt lat="46.0367760" lon="12.3255340">
        <ele>1143.6300000</ele>
        <time>2010-09-29T14:12:53Z</time>
      </trkpt>
      <trkpt lat="46.0367570" lon="12.3255030">
        <ele>1142.6600000</ele>
        <time>2010-09-29T14:12:55Z</time>
      </trkpt>
      <trkpt lat="46.0367250" lon="12.3254650">
        <ele>1141.2200000</ele>
        <time>2010-09-29T14:12:58Z</time>
      </trkpt>
      <trkpt lat="46.0366450" lon="12.3253980">
        <ele>1140.7400000</ele>
        <time>2010-09-29T14:13:04Z</time>
      </trkpt>
      <trkpt lat="46.0366080" lon="12.3253870">
        <ele>1139.3000000</ele>
        <time>2010-09-29T14:13:09Z</time>
      </trkpt>
      <trkpt lat="46.0365550" lon="12.3253590">
        <ele>1137.8600000</ele>
        <time>2010-09-29T14:13:15Z</time>
      </trkpt>
      <trkpt lat="46.0364770" lon="12.3253340">
        <ele>1135.4500000</ele>
        <time>2010-09-29T14:13:20Z</time>
      </trkpt>
      <trkpt lat="46.0363910" lon="12.3252800">
        <ele>1133.0500000</ele>
        <time>2010-09-29T14:13:28Z</time>
      </trkpt>
      <trkpt lat="46.0363860" lon="12.3252760">
        <ele>1133.0500000</ele>
        <time>2010-09-29T14:13:29Z</time>
      </trkpt>
      <trkpt lat="46.0363480" lon="12.3252500">
        <ele>1130.1700000</ele>
        <time>2010-09-29T14:13:35Z</time>
      </trkpt>
      <trkpt lat="46.0363060" lon="12.3252410">
        <ele>1128.7300000</ele>
        <time>2010-09-29T14:13:43Z</time>
      </trkpt>
      <trkpt lat="46.0362810" lon="12.3252110">
        <ele>1126.8000000</ele>
        <time>2010-09-29T14:13:47Z</time>
      </trkpt>
      <trkpt lat="46.0362010" lon="12.3251380">
        <ele>1124.4000000</ele>
        <time>2010-09-29T14:13:54Z</time>
      </trkpt>
      <trkpt lat="46.0361850" lon="12.3251220">
        <ele>1123.9200000</ele>
        <time>2010-09-29T14:14:01Z</time>
      </trkpt>
      <trkpt lat="46.0361840" lon="12.3251140">
        <ele>1121.5200000</ele>
        <time>2010-09-29T14:14:06Z</time>
      </trkpt>
      <trkpt lat="46.0360980" lon="12.3250920">
        <ele>1121.0300000</ele>
        <time>2010-09-29T14:14:11Z</time>
      </trkpt>
      <trkpt lat="46.0360150" lon="12.3251440">
        <ele>1119.1100000</ele>
        <time>2010-09-29T14:14:19Z</time>
      </trkpt>
      <trkpt lat="46.0359750" lon="12.3251800">
        <ele>1116.7100000</ele>
        <time>2010-09-29T14:14:24Z</time>
      </trkpt>
      <trkpt lat="46.0359290" lon="12.3252080">
        <ele>1114.7900000</ele>
        <time>2010-09-29T14:14:31Z</time>
      </trkpt>
      <trkpt lat="46.0359110" lon="12.3252120">
        <ele>1114.3100000</ele>
        <time>2010-09-29T14:14:32Z</time>
      </trkpt>
      <trkpt lat="46.0358670" lon="12.3252760">
        <ele>1112.8600000</ele>
        <time>2010-09-29T14:14:37Z</time>
      </trkpt>
      <trkpt lat="46.0358300" lon="12.3253650">
        <ele>1110.9400000</ele>
        <time>2010-09-29T14:14:45Z</time>
      </trkpt>
      <trkpt lat="46.0358330" lon="12.3254140">
        <ele>1109.5000000</ele>
        <time>2010-09-29T14:14:48Z</time>
      </trkpt>
      <trkpt lat="46.0358160" lon="12.3255190">
        <ele>1108.5400000</ele>
        <time>2010-09-29T14:14:52Z</time>
      </trkpt>
      <trkpt lat="46.0357780" lon="12.3255810">
        <ele>1107.1000000</ele>
        <time>2010-09-29T14:14:57Z</time>
      </trkpt>
      <trkpt lat="46.0357680" lon="12.3256730">
        <ele>1105.6500000</ele>
        <time>2010-09-29T14:15:05Z</time>
      </trkpt>
      <trkpt lat="46.0357300" lon="12.3257610">
        <ele>1103.7300000</ele>
        <time>2010-09-29T14:15:12Z</time>
      </trkpt>
      <trkpt lat="46.0357340" lon="12.3257840">
        <ele>1102.7700000</ele>
        <time>2010-09-29T14:15:15Z</time>
      </trkpt>
      <trkpt lat="46.0357900" lon="12.3257820">
        <ele>1101.3300000</ele>
        <time>2010-09-29T14:15:19Z</time>
      </trkpt>
      <trkpt lat="46.0357710" lon="12.3258040">
        <ele>1100.3700000</ele>
        <time>2010-09-29T14:15:21Z</time>
      </trkpt>
      <trkpt lat="46.0356520" lon="12.3259850">
        <ele>1099.4000000</ele>
        <time>2010-09-29T14:15:28Z</time>
      </trkpt>
      <trkpt lat="46.0356310" lon="12.3259920">
        <ele>1097.9600000</ele>
        <time>2010-09-29T14:15:31Z</time>
      </trkpt>
      <trkpt lat="46.0356090" lon="12.3260360">
        <ele>1097.0000000</ele>
        <time>2010-09-29T14:15:37Z</time>
      </trkpt>
      <trkpt lat="46.0356030" lon="12.3260460">
        <ele>1097.0000000</ele>
        <time>2010-09-29T14:15:38Z</time>
      </trkpt>
      <trkpt lat="46.0355780" lon="12.3260830">
        <ele>1096.0400000</ele>
        <time>2010-09-29T14:15:41Z</time>
      </trkpt>
      <trkpt lat="46.0355740" lon="12.3262020">
        <ele>1094.6000000</ele>
        <time>2010-09-29T14:15:48Z</time>
      </trkpt>
      <trkpt lat="46.0355930" lon="12.3262670">
        <ele>1093.6400000</ele>
        <time>2010-09-29T14:15:54Z</time>
      </trkpt>
      <trkpt lat="46.0356430" lon="12.3263480">
        <ele>1091.7100000</ele>
        <time>2010-09-29T14:16:01Z</time>
      </trkpt>
      <trkpt lat="46.0356700" lon="12.3263940">
        <ele>1090.7500000</ele>
        <time>2010-09-29T14:16:06Z</time>
      </trkpt>
      <trkpt lat="46.0357080" lon="12.3264730">
        <ele>1089.3100000</ele>
        <time>2010-09-29T14:16:11Z</time>
      </trkpt>
      <trkpt lat="46.0357160" lon="12.3264990">
        <ele>1089.3100000</ele>
        <time>2010-09-29T14:16:13Z</time>
      </trkpt>
      <trkpt lat="46.0356960" lon="12.3265880">
        <ele>1087.3900000</ele>
        <time>2010-09-29T14:16:21Z</time>
      </trkpt>
      <trkpt lat="46.0356540" lon="12.3266050">
        <ele>1086.9100000</ele>
        <time>2010-09-29T14:16:28Z</time>
      </trkpt>
      <trkpt lat="46.0356550" lon="12.3265980">
        <ele>1086.4300000</ele>
        <time>2010-09-29T14:16:34Z</time>
      </trkpt>
      <trkpt lat="46.0356180" lon="12.3266060">
        <ele>1084.9900000</ele>
        <time>2010-09-29T14:16:42Z</time>
      </trkpt>
      <trkpt lat="46.0355940" lon="12.3266190">
        <ele>1084.0200000</ele>
        <time>2010-09-29T14:16:45Z</time>
      </trkpt>
      <trkpt lat="46.0355520" lon="12.3266230">
        <ele>1082.1000000</ele>
        <time>2010-09-29T14:16:55Z</time>
      </trkpt>
      <trkpt lat="46.0355520" lon="12.3266230">
        <ele>1082.1000000</ele>
        <time>2010-09-29T14:16:59Z</time>
      </trkpt>
      <trkpt lat="46.0355510" lon="12.3266350">
        <ele>1082.1000000</ele>
        <time>2010-09-29T14:17:01Z</time>
      </trkpt>
      <trkpt lat="46.0355700" lon="12.3266770">
        <ele>1078.7400000</ele>
        <time>2010-09-29T14:17:08Z</time>
      </trkpt>
      <trkpt lat="46.0355830" lon="12.3267370">
        <ele>1078.2600000</ele>
        <time>2010-09-29T14:17:13Z</time>
      </trkpt>
      <trkpt lat="46.0355830" lon="12.3268550">
        <ele>1076.3300000</ele>
        <time>2010-09-29T14:17:21Z</time>
      </trkpt>
      <trkpt lat="46.0355510" lon="12.3269230">
        <ele>1074.4100000</ele>
        <time>2010-09-29T14:17:27Z</time>
      </trkpt>
      <trkpt lat="46.0355450" lon="12.3269440">
        <ele>1074.4100000</ele>
        <time>2010-09-29T14:17:29Z</time>
      </trkpt>
      <trkpt lat="46.0355020" lon="12.3270850">
        <ele>1072.9700000</ele>
        <time>2010-09-29T14:17:36Z</time>
      </trkpt>
      <trkpt lat="46.0354790" lon="12.3271380">
        <ele>1070.5700000</ele>
        <time>2010-09-29T14:17:42Z</time>
      </trkpt>
      <trkpt lat="46.0354400" lon="12.3272300">
        <ele>1069.6000000</ele>
        <time>2010-09-29T14:17:50Z</time>
      </trkpt>
      <trkpt lat="46.0354280" lon="12.3273010">
        <ele>1067.6800000</ele>
        <time>2010-09-29T14:17:56Z</time>
      </trkpt>
      <trkpt lat="46.0354280" lon="12.3273010">
        <ele>1067.2000000</ele>
        <time>2010-09-29T14:17:59Z</time>
      </trkpt>
      <trkpt lat="46.0354220" lon="12.3273560">
        <ele>1066.2400000</ele>
        <time>2010-09-29T14:18:03Z</time>
      </trkpt>
      <trkpt lat="46.0354160" lon="12.3273860">
        <ele>1065.7600000</ele>
        <time>2010-09-29T14:18:05Z</time>
      </trkpt>
      <trkpt lat="46.0354290" lon="12.3274920">
        <ele>1064.3200000</ele>
        <time>2010-09-29T14:18:12Z</time>
      </trkpt>
      <trkpt lat="46.0354280" lon="12.3274910">
        <ele>1062.8700000</ele>
        <time>2010-09-29T14:19:01Z</time>
      </trkpt>
      <trkpt lat="46.0354320" lon="12.3274980">
        <ele>1063.3600000</ele>
        <time>2010-09-29T14:20:21Z</time>
      </trkpt>
      <trkpt lat="46.0354320" lon="12.3275140">
        <ele>1062.8700000</ele>
        <time>2010-09-29T14:20:41Z</time>
      </trkpt>
      <trkpt lat="46.0354400" lon="12.3275760">
        <ele>1062.3900000</ele>
        <time>2010-09-29T14:20:44Z</time>
      </trkpt>
      <trkpt lat="46.0354550" lon="12.3276550">
        <ele>1060.9500000</ele>
        <time>2010-09-29T14:20:51Z</time>
      </trkpt>
      <trkpt lat="46.0354720" lon="12.3277090">
        <ele>1059.9900000</ele>
        <time>2010-09-29T14:20:56Z</time>
      </trkpt>
      <trkpt lat="46.0355040" lon="12.3277850">
        <ele>1059.0300000</ele>
        <time>2010-09-29T14:21:01Z</time>
      </trkpt>
      <trkpt lat="46.0355040" lon="12.3277850">
        <ele>1057.1100000</ele>
        <time>2010-09-29T14:21:07Z</time>
      </trkpt>
      <trkpt lat="46.0354830" lon="12.3278770">
        <ele>1056.1500000</ele>
        <time>2010-09-29T14:21:13Z</time>
      </trkpt>
      <trkpt lat="46.0354130" lon="12.3279620">
        <ele>1054.2200000</ele>
        <time>2010-09-29T14:21:22Z</time>
      </trkpt>
      <trkpt lat="46.0353680" lon="12.3280500">
        <ele>1052.7800000</ele>
        <time>2010-09-29T14:21:30Z</time>
      </trkpt>
      <trkpt lat="46.0353120" lon="12.3281270">
        <ele>1051.8200000</ele>
        <time>2010-09-29T14:21:36Z</time>
      </trkpt>
      <trkpt lat="46.0352680" lon="12.3282100">
        <ele>1050.3800000</ele>
        <time>2010-09-29T14:21:43Z</time>
      </trkpt>
      <trkpt lat="46.0352520" lon="12.3282940">
        <ele>1048.9400000</ele>
        <time>2010-09-29T14:21:48Z</time>
      </trkpt>
      <trkpt lat="46.0352560" lon="12.3283780">
        <ele>1047.9700000</ele>
        <time>2010-09-29T14:21:54Z</time>
      </trkpt>
      <trkpt lat="46.0352310" lon="12.3284220">
        <ele>1046.5300000</ele>
        <time>2010-09-29T14:22:00Z</time>
      </trkpt>
      <trkpt lat="46.0352250" lon="12.3285190">
        <ele>1045.0900000</ele>
        <time>2010-09-29T14:22:07Z</time>
      </trkpt>
      <trkpt lat="46.0352220" lon="12.3285390">
        <ele>1045.0900000</ele>
        <time>2010-09-29T14:22:09Z</time>
      </trkpt>
      <trkpt lat="46.0352170" lon="12.3285840">
        <ele>1043.1700000</ele>
        <time>2010-09-29T14:22:13Z</time>
      </trkpt>
      <trkpt lat="46.0352070" lon="12.3286040">
        <ele>1042.2100000</ele>
        <time>2010-09-29T14:22:18Z</time>
      </trkpt>
      <trkpt lat="46.0352050" lon="12.3286510">
        <ele>1041.2500000</ele>
        <time>2010-09-29T14:22:23Z</time>
      </trkpt>
      <trkpt lat="46.0352010" lon="12.3287290">
        <ele>1038.8400000</ele>
        <time>2010-09-29T14:22:30Z</time>
      </trkpt>
      <trkpt lat="46.0351870" lon="12.3288030">
        <ele>1037.4000000</ele>
        <time>2010-09-29T14:22:37Z</time>
      </trkpt>
      <trkpt lat="46.0352000" lon="12.3288570">
        <ele>1035.9600000</ele>
        <time>2010-09-29T14:22:44Z</time>
      </trkpt>
      <trkpt lat="46.0352050" lon="12.3288710">
        <ele>1035.4800000</ele>
        <time>2010-09-29T14:22:45Z</time>
      </trkpt>
      <trkpt lat="46.0352160" lon="12.3289730">
        <ele>1032.5900000</ele>
        <time>2010-09-29T14:22:54Z</time>
      </trkpt>
      <trkpt lat="46.0352090" lon="12.3290040">
        <ele>1032.1100000</ele>
        <time>2010-09-29T14:22:57Z</time>
      </trkpt>
      <trkpt lat="46.0351820" lon="12.3290800">
        <ele>1030.6700000</ele>
        <time>2010-09-29T14:23:05Z</time>
      </trkpt>
      <trkpt lat="46.0351830" lon="12.3291100">
        <ele>1029.2300000</ele>
        <time>2010-09-29T14:23:08Z</time>
      </trkpt>
      <trkpt lat="46.0351770" lon="12.3291530">
        <ele>1027.7900000</ele>
        <time>2010-09-29T14:23:13Z</time>
      </trkpt>
      <trkpt lat="46.0351740" lon="12.3292240">
        <ele>1025.8600000</ele>
        <time>2010-09-29T14:23:19Z</time>
      </trkpt>
      <trkpt lat="46.0351670" lon="12.3292330">
        <ele>1023.9400000</ele>
        <time>2010-09-29T14:23:27Z</time>
      </trkpt>
      <trkpt lat="46.0351700" lon="12.3292490">
        <ele>1022.0200000</ele>
        <time>2010-09-29T14:23:35Z</time>
      </trkpt>
      <trkpt lat="46.0351700" lon="12.3292490">
        <ele>1020.5800000</ele>
        <time>2010-09-29T14:23:36Z</time>
      </trkpt>
      <trkpt lat="46.0351530" lon="12.3293630">
        <ele>1019.6200000</ele>
        <time>2010-09-29T14:23:44Z</time>
      </trkpt>
      <trkpt lat="46.0351530" lon="12.3293630">
        <ele>1017.2100000</ele>
        <time>2010-09-29T14:23:53Z</time>
      </trkpt>
      <trkpt lat="46.0351170" lon="12.3294190">
        <ele>1014.8100000</ele>
        <time>2010-09-29T14:24:02Z</time>
      </trkpt>
      <trkpt lat="46.0351170" lon="12.3294190">
        <ele>1012.8900000</ele>
        <time>2010-09-29T14:24:10Z</time>
      </trkpt>
      <trkpt lat="46.0351170" lon="12.3294190">
        <ele>1012.4100000</ele>
        <time>2010-09-29T14:24:12Z</time>
      </trkpt>
      <trkpt lat="46.0350800" lon="12.3295020">
        <ele>1010.9600000</ele>
        <time>2010-09-29T14:24:18Z</time>
      </trkpt>
      <trkpt lat="46.0350800" lon="12.3295020">
        <ele>1009.5200000</ele>
        <time>2010-09-29T14:24:24Z</time>
      </trkpt>
      <trkpt lat="46.0350440" lon="12.3295250">
        <ele>1009.0400000</ele>
        <time>2010-09-29T14:24:31Z</time>
      </trkpt>
      <trkpt lat="46.0350440" lon="12.3295250">
        <ele>1006.6400000</ele>
        <time>2010-09-29T14:24:39Z</time>
      </trkpt>
      <trkpt lat="46.0350440" lon="12.3295250">
        <ele>1004.2300000</ele>
        <time>2010-09-29T14:24:48Z</time>
      </trkpt>
      <trkpt lat="46.0350440" lon="12.3295250">
        <ele>1003.2700000</ele>
        <time>2010-09-29T14:24:50Z</time>
      </trkpt>
      <trkpt lat="46.0350220" lon="12.3295350">
        <ele>1001.3500000</ele>
        <time>2010-09-29T14:24:59Z</time>
      </trkpt>
      <trkpt lat="46.0350160" lon="12.3295420">
        <ele>999.4300000</ele>
        <time>2010-09-29T14:25:04Z</time>
      </trkpt>
      <trkpt lat="46.0349600" lon="12.3295430">
        <ele>998.4700000</ele>
        <time>2010-09-29T14:25:14Z</time>
      </trkpt>
      <trkpt lat="46.0349600" lon="12.3295430">
        <ele>997.9900000</ele>
        <time>2010-09-29T14:25:19Z</time>
      </trkpt>
      <trkpt lat="46.0349600" lon="12.3295430">
        <ele>996.0600000</ele>
        <time>2010-09-29T14:25:29Z</time>
      </trkpt>
      <trkpt lat="46.0349600" lon="12.3295430">
        <ele>993.1800000</ele>
        <time>2010-09-29T14:25:41Z</time>
      </trkpt>
      <trkpt lat="46.0349600" lon="12.3295430">
        <ele>992.2200000</ele>
        <time>2010-09-29T14:25:48Z</time>
      </trkpt>
      <trkpt lat="46.0349280" lon="12.3296340">
        <ele>989.3300000</ele>
        <time>2010-09-29T14:26:05Z</time>
      </trkpt>
      <trkpt lat="46.0348580" lon="12.3297360">
        <ele>988.8500000</ele>
        <time>2010-09-29T14:26:11Z</time>
      </trkpt>
      <trkpt lat="46.0348370" lon="12.3297460">
        <ele>986.9300000</ele>
        <time>2010-09-29T14:26:19Z</time>
      </trkpt>
      <trkpt lat="46.0348170" lon="12.3297610">
        <ele>986.4500000</ele>
        <time>2010-09-29T14:26:28Z</time>
      </trkpt>
      <trkpt lat="46.0347050" lon="12.3297730">
        <ele>986.4500000</ele>
        <time>2010-09-29T14:27:08Z</time>
      </trkpt>
      <trkpt lat="46.0346580" lon="12.3297380">
        <ele>985.4900000</ele>
        <time>2010-09-29T14:27:11Z</time>
      </trkpt>
      <trkpt lat="46.0346540" lon="12.3297040">
        <ele>984.5300000</ele>
        <time>2010-09-29T14:27:19Z</time>
      </trkpt>
      <trkpt lat="46.0346230" lon="12.3296520">
        <ele>982.6000000</ele>
        <time>2010-09-29T14:27:26Z</time>
      </trkpt>
      <trkpt lat="46.0346070" lon="12.3296200">
        <ele>980.2000000</ele>
        <time>2010-09-29T14:27:37Z</time>
      </trkpt>
      <trkpt lat="46.0345650" lon="12.3295690">
        <ele>977.3200000</ele>
        <time>2010-09-29T14:27:51Z</time>
      </trkpt>
      <trkpt lat="46.0345090" lon="12.3294920">
        <ele>975.3900000</ele>
        <time>2010-09-29T14:27:57Z</time>
      </trkpt>
      <trkpt lat="46.0344190" lon="12.3294250">
        <ele>973.4700000</ele>
        <time>2010-09-29T14:28:03Z</time>
      </trkpt>
      <trkpt lat="46.0343920" lon="12.3294610">
        <ele>971.0700000</ele>
        <time>2010-09-29T14:28:11Z</time>
      </trkpt>
      <trkpt lat="46.0343510" lon="12.3294890">
        <ele>969.6300000</ele>
        <time>2010-09-29T14:28:17Z</time>
      </trkpt>
      <trkpt lat="46.0343300" lon="12.3295060">
        <ele>968.1800000</ele>
        <time>2010-09-29T14:28:24Z</time>
      </trkpt>
      <trkpt lat="46.0343160" lon="12.3295860">
        <ele>965.7800000</ele>
        <time>2010-09-29T14:28:32Z</time>
      </trkpt>
      <trkpt lat="46.0343350" lon="12.3296740">
        <ele>963.8600000</ele>
        <time>2010-09-29T14:28:39Z</time>
      </trkpt>
      <trkpt lat="46.0343230" lon="12.3296900">
        <ele>963.3800000</ele>
        <time>2010-09-29T14:28:41Z</time>
      </trkpt>
      <trkpt lat="46.0342520" lon="12.3296850">
        <ele>960.9800000</ele>
        <time>2010-09-29T14:28:48Z</time>
      </trkpt>
      <trkpt lat="46.0342250" lon="12.3297280">
        <ele>960.0100000</ele>
        <time>2010-09-29T14:28:54Z</time>
      </trkpt>
      <trkpt lat="46.0341990" lon="12.3297360">
        <ele>959.0500000</ele>
        <time>2010-09-29T14:28:59Z</time>
      </trkpt>
      <trkpt lat="46.0341750" lon="12.3297720">
        <ele>958.0900000</ele>
        <time>2010-09-29T14:29:08Z</time>
      </trkpt>
      <trkpt lat="46.0341830" lon="12.3297960">
        <ele>957.6100000</ele>
        <time>2010-09-29T14:29:28Z</time>
      </trkpt>
      <trkpt lat="46.0342440" lon="12.3298590">
        <ele>956.6500000</ele>
        <time>2010-09-29T14:29:34Z</time>
      </trkpt>
      <trkpt lat="46.0342520" lon="12.3298600">
        <ele>956.1700000</ele>
        <time>2010-09-29T14:29:45Z</time>
      </trkpt>
      <trkpt lat="46.0342740" lon="12.3298910">
        <ele>955.2100000</ele>
        <time>2010-09-29T14:29:51Z</time>
      </trkpt>
      <trkpt lat="46.0343080" lon="12.3299320">
        <ele>954.2500000</ele>
        <time>2010-09-29T14:29:58Z</time>
      </trkpt>
      <trkpt lat="46.0343390" lon="12.3299940">
        <ele>952.8000000</ele>
        <time>2010-09-29T14:30:05Z</time>
      </trkpt>
      <trkpt lat="46.0343500" lon="12.3300680">
        <ele>949.4400000</ele>
        <time>2010-09-29T14:30:17Z</time>
      </trkpt>
      <trkpt lat="46.0343390" lon="12.3301490">
        <ele>946.0700000</ele>
        <time>2010-09-29T14:30:40Z</time>
      </trkpt>
      <trkpt lat="46.0343510" lon="12.3301680">
        <ele>945.1100000</ele>
        <time>2010-09-29T14:30:47Z</time>
      </trkpt>
      <trkpt lat="46.0343480" lon="12.3302140">
        <ele>944.6300000</ele>
        <time>2010-09-29T14:30:52Z</time>
      </trkpt>
      <trkpt lat="46.0343270" lon="12.3302350">
        <ele>943.1900000</ele>
        <time>2010-09-29T14:30:58Z</time>
      </trkpt>
      <trkpt lat="46.0343080" lon="12.3302720">
        <ele>942.2300000</ele>
        <time>2010-09-29T14:31:04Z</time>
      </trkpt>
      <trkpt lat="46.0343300" lon="12.3303770">
        <ele>939.8300000</ele>
        <time>2010-09-29T14:31:16Z</time>
      </trkpt>
      <trkpt lat="46.0343250" lon="12.3303820">
        <ele>937.4200000</ele>
        <time>2010-09-29T14:33:42Z</time>
      </trkpt>
      <trkpt lat="46.0342610" lon="12.3303500">
        <ele>934.0600000</ele>
        <time>2010-09-29T14:33:55Z</time>
      </trkpt>
      <trkpt lat="46.0342060" lon="12.3303400">
        <ele>932.6200000</ele>
        <time>2010-09-29T14:34:03Z</time>
      </trkpt>
      <trkpt lat="46.0342020" lon="12.3304230">
        <ele>931.1700000</ele>
        <time>2010-09-29T14:34:11Z</time>
      </trkpt>
      <trkpt lat="46.0342320" lon="12.3305140">
        <ele>927.8100000</ele>
        <time>2010-09-29T14:34:22Z</time>
      </trkpt>
      <trkpt lat="46.0342270" lon="12.3305360">
        <ele>927.3300000</ele>
        <time>2010-09-29T14:34:30Z</time>
      </trkpt>
      <trkpt lat="46.0342490" lon="12.3305270">
        <ele>926.8500000</ele>
        <time>2010-09-29T14:34:43Z</time>
      </trkpt>
      <trkpt lat="46.0343090" lon="12.3304640">
        <ele>926.8500000</ele>
        <time>2010-09-29T14:34:53Z</time>
      </trkpt>
      <trkpt lat="46.0342560" lon="12.3307130">
        <ele>925.8900000</ele>
        <time>2010-09-29T14:35:51Z</time>
      </trkpt>
      <trkpt lat="46.0342470" lon="12.3307500">
        <ele>923.4800000</ele>
        <time>2010-09-29T14:35:58Z</time>
      </trkpt>
      <trkpt lat="46.0342790" lon="12.3307270">
        <ele>925.4100000</ele>
        <time>2010-09-29T14:36:57Z</time>
      </trkpt>
      <trkpt lat="46.0342760" lon="12.3306720">
        <ele>922.5200000</ele>
        <time>2010-09-29T14:37:28Z</time>
      </trkpt>
      <trkpt lat="46.0341720" lon="12.3306550">
        <ele>919.6400000</ele>
        <time>2010-09-29T14:37:39Z</time>
      </trkpt>
      <trkpt lat="46.0341340" lon="12.3306070">
        <ele>917.7200000</ele>
        <time>2010-09-29T14:37:45Z</time>
      </trkpt>
      <trkpt lat="46.0341180" lon="12.3305960">
        <ele>916.7500000</ele>
        <time>2010-09-29T14:37:47Z</time>
      </trkpt>
      <trkpt lat="46.0341090" lon="12.3305920">
        <ele>913.8700000</ele>
        <time>2010-09-29T14:37:59Z</time>
      </trkpt>
      <trkpt lat="46.0340390" lon="12.3305530">
        <ele>910.5100000</ele>
        <time>2010-09-29T14:38:12Z</time>
      </trkpt>
      <trkpt lat="46.0339670" lon="12.3305000">
        <ele>907.6200000</ele>
        <time>2010-09-29T14:38:23Z</time>
      </trkpt>
      <trkpt lat="46.0339070" lon="12.3304630">
        <ele>906.1800000</ele>
        <time>2010-09-29T14:38:29Z</time>
      </trkpt>
      <trkpt lat="46.0338640" lon="12.3304370">
        <ele>902.8200000</ele>
        <time>2010-09-29T14:38:39Z</time>
      </trkpt>
      <trkpt lat="46.0338300" lon="12.3303440">
        <ele>901.3700000</ele>
        <time>2010-09-29T14:38:46Z</time>
      </trkpt>
      <trkpt lat="46.0337730" lon="12.3302320">
        <ele>898.9700000</ele>
        <time>2010-09-29T14:38:55Z</time>
      </trkpt>
      <trkpt lat="46.0337190" lon="12.3301490">
        <ele>896.0900000</ele>
        <time>2010-09-29T14:39:08Z</time>
      </trkpt>
      <trkpt lat="46.0336650" lon="12.3300880">
        <ele>894.6400000</ele>
        <time>2010-09-29T14:39:14Z</time>
      </trkpt>
      <trkpt lat="46.0335430" lon="12.3299520">
        <ele>892.7200000</ele>
        <time>2010-09-29T14:39:22Z</time>
      </trkpt>
      <trkpt lat="46.0334740" lon="12.3298540">
        <ele>889.8400000</ele>
        <time>2010-09-29T14:39:33Z</time>
      </trkpt>
      <trkpt lat="46.0333820" lon="12.3297000">
        <ele>886.9500000</ele>
        <time>2010-09-29T14:39:44Z</time>
      </trkpt>
      <trkpt lat="46.0332870" lon="12.3295220">
        <ele>883.5900000</ele>
        <time>2010-09-29T14:39:55Z</time>
      </trkpt>
      <trkpt lat="46.0332490" lon="12.3294330">
        <ele>883.1100000</ele>
        <time>2010-09-29T14:40:02Z</time>
      </trkpt>
      <trkpt lat="46.0332360" lon="12.3293570">
        <ele>883.1100000</ele>
        <time>2010-09-29T14:40:08Z</time>
      </trkpt>
      <trkpt lat="46.0332190" lon="12.3293100">
        <ele>882.1500000</ele>
        <time>2010-09-29T14:40:13Z</time>
      </trkpt>
      <trkpt lat="46.0331750" lon="12.3292750">
        <ele>880.2200000</ele>
        <time>2010-09-29T14:40:20Z</time>
      </trkpt>
      <trkpt lat="46.0330760" lon="12.3291780">
        <ele>877.3400000</ele>
        <time>2010-09-29T14:40:32Z</time>
      </trkpt>
      <trkpt lat="46.0330020" lon="12.3291250">
        <ele>874.9400000</ele>
        <time>2010-09-29T14:40:40Z</time>
      </trkpt>
      <trkpt lat="46.0329660" lon="12.3290640">
        <ele>873.9800000</ele>
        <time>2010-09-29T14:40:48Z</time>
      </trkpt>
      <trkpt lat="46.0329030" lon="12.3289630">
        <ele>873.5000000</ele>
        <time>2010-09-29T14:40:54Z</time>
      </trkpt>
      <trkpt lat="46.0328940" lon="12.3289020">
        <ele>873.0100000</ele>
        <time>2010-09-29T14:40:57Z</time>
      </trkpt>
      <trkpt lat="46.0328800" lon="12.3288130">
        <ele>873.5000000</ele>
        <time>2010-09-29T14:41:04Z</time>
      </trkpt>
      <trkpt lat="46.0328840" lon="12.3286990">
        <ele>872.5300000</ele>
        <time>2010-09-29T14:41:11Z</time>
      </trkpt>
      <trkpt lat="46.0328640" lon="12.3286090">
        <ele>870.1300000</ele>
        <time>2010-09-29T14:41:17Z</time>
      </trkpt>
      <trkpt lat="46.0328510" lon="12.3285840">
        <ele>869.1700000</ele>
        <time>2010-09-29T14:41:23Z</time>
      </trkpt>
      <trkpt lat="46.0327630" lon="12.3284650">
        <ele>867.7300000</ele>
        <time>2010-09-29T14:41:31Z</time>
      </trkpt>
      <trkpt lat="46.0327560" lon="12.3284240">
        <ele>866.2900000</ele>
        <time>2010-09-29T14:41:37Z</time>
      </trkpt>
      <trkpt lat="46.0327430" lon="12.3283380">
        <ele>864.8400000</ele>
        <time>2010-09-29T14:41:45Z</time>
      </trkpt>
      <trkpt lat="46.0327370" lon="12.3282710">
        <ele>863.4000000</ele>
        <time>2010-09-29T14:41:51Z</time>
      </trkpt>
      <trkpt lat="46.0327040" lon="12.3281590">
        <ele>861.9600000</ele>
        <time>2010-09-29T14:41:58Z</time>
      </trkpt>
      <trkpt lat="46.0326880" lon="12.3281350">
        <ele>861.0000000</ele>
        <time>2010-09-29T14:42:00Z</time>
      </trkpt>
      <trkpt lat="46.0326330" lon="12.3280330">
        <ele>859.5600000</ele>
        <time>2010-09-29T14:42:08Z</time>
      </trkpt>
      <trkpt lat="46.0326280" lon="12.3280020">
        <ele>858.1100000</ele>
        <time>2010-09-29T14:42:15Z</time>
      </trkpt>
      <trkpt lat="46.0325880" lon="12.3279400">
        <ele>856.6700000</ele>
        <time>2010-09-29T14:42:26Z</time>
      </trkpt>
      <trkpt lat="46.0325070" lon="12.3278540">
        <ele>855.7100000</ele>
        <time>2010-09-29T14:42:34Z</time>
      </trkpt>
      <trkpt lat="46.0324490" lon="12.3277900">
        <ele>855.7100000</ele>
        <time>2010-09-29T14:42:38Z</time>
      </trkpt>
      <trkpt lat="46.0323890" lon="12.3277070">
        <ele>854.7500000</ele>
        <time>2010-09-29T14:42:46Z</time>
      </trkpt>
      <trkpt lat="46.0323800" lon="12.3275880">
        <ele>854.7500000</ele>
        <time>2010-09-29T14:42:54Z</time>
      </trkpt>
      <trkpt lat="46.0323760" lon="12.3275500">
        <ele>854.2700000</ele>
        <time>2010-09-29T14:42:57Z</time>
      </trkpt>
      <trkpt lat="46.0323620" lon="12.3274310">
        <ele>855.2300000</ele>
        <time>2010-09-29T14:43:05Z</time>
      </trkpt>
      <trkpt lat="46.0323460" lon="12.3273120">
        <ele>854.7500000</ele>
        <time>2010-09-29T14:43:12Z</time>
      </trkpt>
      <trkpt lat="46.0322970" lon="12.3271890">
        <ele>852.8300000</ele>
        <time>2010-09-29T14:43:21Z</time>
      </trkpt>
      <trkpt lat="46.0322810" lon="12.3271350">
        <ele>851.3800000</ele>
        <time>2010-09-29T14:43:30Z</time>
      </trkpt>
      <trkpt lat="46.0322640" lon="12.3270520">
        <ele>850.9000000</ele>
        <time>2010-09-29T14:43:37Z</time>
      </trkpt>
      <trkpt lat="46.0321470" lon="12.3269220">
        <ele>850.9000000</ele>
        <time>2010-09-29T14:43:45Z</time>
      </trkpt>
      <trkpt lat="46.0321250" lon="12.3268950">
        <ele>849.4600000</ele>
        <time>2010-09-29T14:43:55Z</time>
      </trkpt>
      <trkpt lat="46.0320870" lon="12.3268950">
        <ele>848.5000000</ele>
        <time>2010-09-29T14:44:02Z</time>
      </trkpt>
      <trkpt lat="46.0320130" lon="12.3268840">
        <ele>849.4600000</ele>
        <time>2010-09-29T14:44:11Z</time>
      </trkpt>
      <trkpt lat="46.0318640" lon="12.3268670">
        <ele>850.4200000</ele>
        <time>2010-09-29T14:44:19Z</time>
      </trkpt>
      <trkpt lat="46.0317820" lon="12.3268810">
        <ele>850.9000000</ele>
        <time>2010-09-29T14:44:31Z</time>
      </trkpt>
      <trkpt lat="46.0317510" lon="12.3268640">
        <ele>851.8700000</ele>
        <time>2010-09-29T14:44:33Z</time>
      </trkpt>
      <trkpt lat="46.0316210" lon="12.3268050">
        <ele>851.8700000</ele>
        <time>2010-09-29T14:44:41Z</time>
      </trkpt>
      <trkpt lat="46.0315530" lon="12.3267770">
        <ele>849.9400000</ele>
        <time>2010-09-29T14:44:47Z</time>
      </trkpt>
      <trkpt lat="46.0314550" lon="12.3266720">
        <ele>849.4600000</ele>
        <time>2010-09-29T14:44:58Z</time>
      </trkpt>
      <trkpt lat="46.0314310" lon="12.3266790">
        <ele>848.0200000</ele>
        <time>2010-09-29T14:45:07Z</time>
      </trkpt>
      <trkpt lat="46.0313170" lon="12.3265770">
        <ele>844.6600000</ele>
        <time>2010-09-29T14:45:20Z</time>
      </trkpt>
      <trkpt lat="46.0312690" lon="12.3265130">
        <ele>843.2100000</ele>
        <time>2010-09-29T14:45:29Z</time>
      </trkpt>
      <trkpt lat="46.0311990" lon="12.3264180">
        <ele>842.2500000</ele>
        <time>2010-09-29T14:45:37Z</time>
      </trkpt>
      <trkpt lat="46.0311520" lon="12.3263520">
        <ele>839.8500000</ele>
        <time>2010-09-29T14:45:50Z</time>
      </trkpt>
      <trkpt lat="46.0311110" lon="12.3262560">
        <ele>838.4100000</ele>
        <time>2010-09-29T14:45:57Z</time>
      </trkpt>
      <trkpt lat="46.0310910" lon="12.3261290">
        <ele>838.8900000</ele>
        <time>2010-09-29T14:46:05Z</time>
      </trkpt>
      <trkpt lat="46.0310410" lon="12.3260650">
        <ele>837.4500000</ele>
        <time>2010-09-29T14:46:15Z</time>
      </trkpt>
      <trkpt lat="46.0309490" lon="12.3259680">
        <ele>837.4500000</ele>
        <time>2010-09-29T14:46:23Z</time>
      </trkpt>
      <trkpt lat="46.0308910" lon="12.3259170">
        <ele>836.0000000</ele>
        <time>2010-09-29T14:46:53Z</time>
      </trkpt>
      <trkpt lat="46.0307880" lon="12.3258130">
        <ele>836.0000000</ele>
        <time>2010-09-29T14:47:02Z</time>
      </trkpt>
      <trkpt lat="46.0307150" lon="12.3256600">
        <ele>836.0000000</ele>
        <time>2010-09-29T14:47:14Z</time>
      </trkpt>
      <trkpt lat="46.0305890" lon="12.3255480">
        <ele>835.0400000</ele>
        <time>2010-09-29T14:47:25Z</time>
      </trkpt>
      <trkpt lat="46.0305720" lon="12.3254780">
        <ele>833.1200000</ele>
        <time>2010-09-29T14:47:32Z</time>
      </trkpt>
      <trkpt lat="46.0305390" lon="12.3254080">
        <ele>830.7200000</ele>
        <time>2010-09-29T14:47:44Z</time>
      </trkpt>
      <trkpt lat="46.0304510" lon="12.3252690">
        <ele>829.7600000</ele>
        <time>2010-09-29T14:47:58Z</time>
      </trkpt>
      <trkpt lat="46.0304190" lon="12.3252200">
        <ele>829.2700000</ele>
        <time>2010-09-29T14:48:02Z</time>
      </trkpt>
      <trkpt lat="46.0304020" lon="12.3251350">
        <ele>829.2700000</ele>
        <time>2010-09-29T14:48:10Z</time>
      </trkpt>
      <trkpt lat="46.0303790" lon="12.3250540">
        <ele>828.7900000</ele>
        <time>2010-09-29T14:48:20Z</time>
      </trkpt>
      <trkpt lat="46.0303490" lon="12.3250170">
        <ele>828.3100000</ele>
        <time>2010-09-29T14:48:22Z</time>
      </trkpt>
      <trkpt lat="46.0302990" lon="12.3249330">
        <ele>829.2700000</ele>
        <time>2010-09-29T14:48:30Z</time>
      </trkpt>
      <trkpt lat="46.0302450" lon="12.3248180">
        <ele>828.3100000</ele>
        <time>2010-09-29T14:48:36Z</time>
      </trkpt>
      <trkpt lat="46.0302420" lon="12.3247740">
        <ele>828.3100000</ele>
        <time>2010-09-29T14:48:41Z</time>
      </trkpt>
      <trkpt lat="46.0302440" lon="12.3247070">
        <ele>828.3100000</ele>
        <time>2010-09-29T14:48:46Z</time>
      </trkpt>
      <trkpt lat="46.0301410" lon="12.3245250">
        <ele>826.3900000</ele>
        <time>2010-09-29T14:48:57Z</time>
      </trkpt>
      <trkpt lat="46.0300920" lon="12.3244550">
        <ele>825.9100000</ele>
        <time>2010-09-29T14:49:01Z</time>
      </trkpt>
      <trkpt lat="46.0300490" lon="12.3243950">
        <ele>824.4700000</ele>
        <time>2010-09-29T14:49:08Z</time>
      </trkpt>
      <trkpt lat="46.0300040" lon="12.3243390">
        <ele>821.5800000</ele>
        <time>2010-09-29T14:49:19Z</time>
      </trkpt>
      <trkpt lat="46.0299050" lon="12.3243160">
        <ele>820.1400000</ele>
        <time>2010-09-29T14:49:27Z</time>
      </trkpt>
      <trkpt lat="46.0298650" lon="12.3243070">
        <ele>819.6600000</ele>
        <time>2010-09-29T14:49:32Z</time>
      </trkpt>
      <trkpt lat="46.0298340" lon="12.3242830">
        <ele>819.6600000</ele>
        <time>2010-09-29T14:49:35Z</time>
      </trkpt>
      <trkpt lat="46.0297910" lon="12.3242150">
        <ele>819.6600000</ele>
        <time>2010-09-29T14:49:44Z</time>
      </trkpt>
      <trkpt lat="46.0297600" lon="12.3241410">
        <ele>818.7000000</ele>
        <time>2010-09-29T14:49:52Z</time>
      </trkpt>
      <trkpt lat="46.0297090" lon="12.3240020">
        <ele>816.3000000</ele>
        <time>2010-09-29T14:50:01Z</time>
      </trkpt>
      <trkpt lat="46.0296340" lon="12.3238850">
        <ele>815.3400000</ele>
        <time>2010-09-29T14:50:09Z</time>
      </trkpt>
      <trkpt lat="46.0295410" lon="12.3238220">
        <ele>814.3700000</ele>
        <time>2010-09-29T14:50:17Z</time>
      </trkpt>
      <trkpt lat="46.0295090" lon="12.3237590">
        <ele>813.4100000</ele>
        <time>2010-09-29T14:50:27Z</time>
      </trkpt>
      <trkpt lat="46.0294830" lon="12.3237280">
        <ele>812.4500000</ele>
        <time>2010-09-29T14:50:32Z</time>
      </trkpt>
      <trkpt lat="46.0293850" lon="12.3237280">
        <ele>810.0500000</ele>
        <time>2010-09-29T14:50:39Z</time>
      </trkpt>
      <trkpt lat="46.0293570" lon="12.3237180">
        <ele>809.5700000</ele>
        <time>2010-09-29T14:50:41Z</time>
      </trkpt>
      <trkpt lat="46.0292670" lon="12.3236890">
        <ele>809.5700000</ele>
        <time>2010-09-29T14:50:48Z</time>
      </trkpt>
      <trkpt lat="46.0292100" lon="12.3236720">
        <ele>809.5700000</ele>
        <time>2010-09-29T14:50:54Z</time>
      </trkpt>
      <trkpt lat="46.0291880" lon="12.3236730">
        <ele>809.0900000</ele>
        <time>2010-09-29T14:50:56Z</time>
      </trkpt>
      <trkpt lat="46.0291050" lon="12.3237540">
        <ele>807.6400000</ele>
        <time>2010-09-29T14:51:05Z</time>
      </trkpt>
      <trkpt lat="46.0290510" lon="12.3238080">
        <ele>806.2000000</ele>
        <time>2010-09-29T14:51:12Z</time>
      </trkpt>
      <trkpt lat="46.0289780" lon="12.3238680">
        <ele>803.8000000</ele>
        <time>2010-09-29T14:51:20Z</time>
      </trkpt>
      <trkpt lat="46.0289120" lon="12.3239240">
        <ele>802.8400000</ele>
        <time>2010-09-29T14:51:26Z</time>
      </trkpt>
      <trkpt lat="46.0288800" lon="12.3239920">
        <ele>800.9200000</ele>
        <time>2010-09-29T14:51:33Z</time>
      </trkpt>
      <trkpt lat="46.0288740" lon="12.3240000">
        <ele>800.4400000</ele>
        <time>2010-09-29T14:51:34Z</time>
      </trkpt>
      <trkpt lat="46.0288660" lon="12.3240120">
        <ele>799.4700000</ele>
        <time>2010-09-29T14:51:43Z</time>
      </trkpt>
      <trkpt lat="46.0288140" lon="12.3240290">
        <ele>797.0700000</ele>
        <time>2010-09-29T14:51:51Z</time>
      </trkpt>
      <trkpt lat="46.0287960" lon="12.3240810">
        <ele>795.6300000</ele>
        <time>2010-09-29T14:51:59Z</time>
      </trkpt>
      <trkpt lat="46.0287800" lon="12.3241160">
        <ele>795.6300000</ele>
        <time>2010-09-29T14:52:11Z</time>
      </trkpt>
      <trkpt lat="46.0287460" lon="12.3241320">
        <ele>792.7400000</ele>
        <time>2010-09-29T14:52:22Z</time>
      </trkpt>
      <trkpt lat="46.0287130" lon="12.3241690">
        <ele>790.3400000</ele>
        <time>2010-09-29T14:52:30Z</time>
      </trkpt>
      <trkpt lat="46.0287040" lon="12.3241760">
        <ele>789.8600000</ele>
        <time>2010-09-29T14:52:31Z</time>
      </trkpt>
      <trkpt lat="46.0286860" lon="12.3242540">
        <ele>789.3800000</ele>
        <time>2010-09-29T14:52:38Z</time>
      </trkpt>
      <trkpt lat="46.0286870" lon="12.3243050">
        <ele>788.4200000</ele>
        <time>2010-09-29T14:52:45Z</time>
      </trkpt>
      <trkpt lat="46.0286540" lon="12.3243080">
        <ele>785.0500000</ele>
        <time>2010-09-29T14:53:10Z</time>
      </trkpt>
      <trkpt lat="46.0286190" lon="12.3243400">
        <ele>781.6900000</ele>
        <time>2010-09-29T14:53:22Z</time>
      </trkpt>
      <trkpt lat="46.0285940" lon="12.3243720">
        <ele>779.2900000</ele>
        <time>2010-09-29T14:53:33Z</time>
      </trkpt>
      <trkpt lat="46.0285650" lon="12.3244060">
        <ele>776.8800000</ele>
        <time>2010-09-29T14:53:42Z</time>
      </trkpt>
      <trkpt lat="46.0282930" lon="12.3245520">
        <ele>773.5200000</ele>
        <time>2010-09-29T14:53:52Z</time>
      </trkpt>
      <trkpt lat="46.0282390" lon="12.3246050">
        <ele>772.0800000</ele>
        <time>2010-09-29T14:53:58Z</time>
      </trkpt>
      <trkpt lat="46.0282110" lon="12.3246400">
        <ele>769.6700000</ele>
        <time>2010-09-29T14:54:06Z</time>
      </trkpt>
      <trkpt lat="46.0281590" lon="12.3246630">
        <ele>767.7500000</ele>
        <time>2010-09-29T14:54:13Z</time>
      </trkpt>
      <trkpt lat="46.0281400" lon="12.3246820">
        <ele>767.7500000</ele>
        <time>2010-09-29T14:54:22Z</time>
      </trkpt>
      <trkpt lat="46.0281150" lon="12.3247300">
        <ele>766.7900000</ele>
        <time>2010-09-29T14:54:30Z</time>
      </trkpt>
      <trkpt lat="46.0280520" lon="12.3247910">
        <ele>763.9000000</ele>
        <time>2010-09-29T14:54:37Z</time>
      </trkpt>
      <trkpt lat="46.0279910" lon="12.3248330">
        <ele>762.4600000</ele>
        <time>2010-09-29T14:54:44Z</time>
      </trkpt>
      <trkpt lat="46.0279770" lon="12.3248370">
        <ele>762.4600000</ele>
        <time>2010-09-29T14:54:45Z</time>
      </trkpt>
      <trkpt lat="46.0279460" lon="12.3248700">
        <ele>761.0200000</ele>
        <time>2010-09-29T14:54:49Z</time>
      </trkpt>
      <trkpt lat="46.0279340" lon="12.3248800">
        <ele>760.5400000</ele>
        <time>2010-09-29T14:55:17Z</time>
      </trkpt>
      <trkpt lat="46.0278840" lon="12.3248930">
        <ele>760.0600000</ele>
        <time>2010-09-29T14:55:24Z</time>
      </trkpt>
      <trkpt lat="46.0278350" lon="12.3249180">
        <ele>759.5800000</ele>
        <time>2010-09-29T14:55:31Z</time>
      </trkpt>
      <trkpt lat="46.0277160" lon="12.3250040">
        <ele>757.1800000</ele>
        <time>2010-09-29T14:55:39Z</time>
      </trkpt>
      <trkpt lat="46.0277040" lon="12.3250040">
        <ele>756.6900000</ele>
        <time>2010-09-29T14:55:40Z</time>
      </trkpt>
      <trkpt lat="46.0276920" lon="12.3250100">
        <ele>756.6900000</ele>
        <time>2010-09-29T14:55:42Z</time>
      </trkpt>
      <trkpt lat="46.0276620" lon="12.3250170">
        <ele>755.7300000</ele>
        <time>2010-09-29T14:55:46Z</time>
      </trkpt>
      <trkpt lat="46.0276230" lon="12.3250360">
        <ele>753.3300000</ele>
        <time>2010-09-29T14:55:55Z</time>
      </trkpt>
      <trkpt lat="46.0275790" lon="12.3250510">
        <ele>752.3700000</ele>
        <time>2010-09-29T14:57:56Z</time>
      </trkpt>
      <trkpt lat="46.0274930" lon="12.3249240">
        <ele>752.3700000</ele>
        <time>2010-09-29T14:58:11Z</time>
      </trkpt>
      <trkpt lat="46.0274220" lon="12.3248490">
        <ele>752.8500000</ele>
        <time>2010-09-29T14:58:16Z</time>
      </trkpt>
      <trkpt lat="46.0273310" lon="12.3247390">
        <ele>752.3700000</ele>
        <time>2010-09-29T14:58:23Z</time>
      </trkpt>
      <trkpt lat="46.0272920" lon="12.3246790">
        <ele>752.3700000</ele>
        <time>2010-09-29T14:58:29Z</time>
      </trkpt>
      <trkpt lat="46.0272240" lon="12.3245610">
        <ele>752.8500000</ele>
        <time>2010-09-29T14:58:37Z</time>
      </trkpt>
      <trkpt lat="46.0271590" lon="12.3244390">
        <ele>752.8500000</ele>
        <time>2010-09-29T14:58:47Z</time>
      </trkpt>
      <trkpt lat="46.0270830" lon="12.3242650">
        <ele>752.3700000</ele>
        <time>2010-09-29T14:58:59Z</time>
      </trkpt>
      <trkpt lat="46.0270500" lon="12.3242250">
        <ele>752.3700000</ele>
        <time>2010-09-29T14:59:05Z</time>
      </trkpt>
      <trkpt lat="46.0269900" lon="12.3241280">
        <ele>752.8500000</ele>
        <time>2010-09-29T14:59:11Z</time>
      </trkpt>
      <trkpt lat="46.0269390" lon="12.3240500">
        <ele>752.3700000</ele>
        <time>2010-09-29T14:59:16Z</time>
      </trkpt>
      <trkpt lat="46.0269290" lon="12.3240370">
        <ele>752.3700000</ele>
        <time>2010-09-29T14:59:17Z</time>
      </trkpt>
      <trkpt lat="46.0268800" lon="12.3239430">
        <ele>752.8500000</ele>
        <time>2010-09-29T14:59:25Z</time>
      </trkpt>
      <trkpt lat="46.0268340" lon="12.3238480">
        <ele>752.8500000</ele>
        <time>2010-09-29T14:59:32Z</time>
      </trkpt>
      <trkpt lat="46.0267370" lon="12.3236500">
        <ele>752.3700000</ele>
        <time>2010-09-29T14:59:44Z</time>
      </trkpt>
      <trkpt lat="46.0266880" lon="12.3235560">
        <ele>752.8500000</ele>
        <time>2010-09-29T14:59:50Z</time>
      </trkpt>
      <trkpt lat="46.0266560" lon="12.3234410">
        <ele>753.3300000</ele>
        <time>2010-09-29T14:59:58Z</time>
      </trkpt>
      <trkpt lat="46.0265170" lon="12.3232880">
        <ele>753.3300000</ele>
        <time>2010-09-29T15:00:10Z</time>
      </trkpt>
      <trkpt lat="46.0264490" lon="12.3231960">
        <ele>753.3300000</ele>
        <time>2010-09-29T15:00:16Z</time>
      </trkpt>
      <trkpt lat="46.0263770" lon="12.3231110">
        <ele>753.8100000</ele>
        <time>2010-09-29T15:00:23Z</time>
      </trkpt>
      <trkpt lat="46.0263280" lon="12.3230720">
        <ele>753.3300000</ele>
        <time>2010-09-29T15:00:29Z</time>
      </trkpt>
      <trkpt lat="46.0263330" lon="12.3230770">
        <ele>753.8100000</ele>
        <time>2010-09-29T15:00:30Z</time>
      </trkpt>
      <trkpt lat="46.0263160" lon="12.3230410">
        <ele>753.8100000</ele>
        <time>2010-09-29T15:00:38Z</time>
      </trkpt>
      <trkpt lat="46.0262220" lon="12.3229790">
        <ele>753.8100000</ele>
        <time>2010-09-29T15:00:43Z</time>
      </trkpt>
      <trkpt lat="46.0261410" lon="12.3228970">
        <ele>754.2900000</ele>
        <time>2010-09-29T15:00:50Z</time>
      </trkpt>
      <trkpt lat="46.0260740" lon="12.3228240">
        <ele>754.2900000</ele>
        <time>2010-09-29T15:00:58Z</time>
      </trkpt>
      <trkpt lat="46.0259700" lon="12.3227260">
        <ele>754.2900000</ele>
        <time>2010-09-29T15:01:06Z</time>
      </trkpt>
      <trkpt lat="46.0258960" lon="12.3226100">
        <ele>754.2900000</ele>
        <time>2010-09-29T15:01:14Z</time>
      </trkpt>
      <trkpt lat="46.0258250" lon="12.3224960">
        <ele>754.7700000</ele>
        <time>2010-09-29T15:01:22Z</time>
      </trkpt>
      <trkpt lat="46.0257550" lon="12.3223510">
        <ele>754.7700000</ele>
        <time>2010-09-29T15:01:30Z</time>
      </trkpt>
      <trkpt lat="46.0257500" lon="12.3222750">
        <ele>754.7700000</ele>
        <time>2010-09-29T15:01:38Z</time>
      </trkpt>
      <trkpt lat="46.0257350" lon="12.3222360">
        <ele>755.2500000</ele>
        <time>2010-09-29T15:01:41Z</time>
      </trkpt>
      <trkpt lat="46.0257050" lon="12.3221510">
        <ele>755.2500000</ele>
        <time>2010-09-29T15:01:47Z</time>
      </trkpt>
      <trkpt lat="46.0256530" lon="12.3221070">
        <ele>755.7300000</ele>
        <time>2010-09-29T15:01:53Z</time>
      </trkpt>
      <trkpt lat="46.0255800" lon="12.3220500">
        <ele>755.7300000</ele>
        <time>2010-09-29T15:01:59Z</time>
      </trkpt>
      <trkpt lat="46.0255440" lon="12.3219990">
        <ele>755.7300000</ele>
        <time>2010-09-29T15:02:02Z</time>
      </trkpt>
      <trkpt lat="46.0254560" lon="12.3219100">
        <ele>755.7300000</ele>
        <time>2010-09-29T15:02:09Z</time>
      </trkpt>
      <trkpt lat="46.0254120" lon="12.3218160">
        <ele>755.7300000</ele>
        <time>2010-09-29T15:02:15Z</time>
      </trkpt>
      <trkpt lat="46.0254120" lon="12.3217920">
        <ele>755.7300000</ele>
        <time>2010-09-29T15:02:18Z</time>
      </trkpt>
      <trkpt lat="46.0254090" lon="12.3217400">
        <ele>755.7300000</ele>
        <time>2010-09-29T15:02:21Z</time>
      </trkpt>
      <trkpt lat="46.0253570" lon="12.3216950">
        <ele>756.6900000</ele>
        <time>2010-09-29T15:02:25Z</time>
      </trkpt>
      <trkpt lat="46.0252920" lon="12.3216070">
        <ele>756.2100000</ele>
        <time>2010-09-29T15:02:32Z</time>
      </trkpt>
      <trkpt lat="46.0252360" lon="12.3215740">
        <ele>756.6900000</ele>
        <time>2010-09-29T15:02:37Z</time>
      </trkpt>
      <trkpt lat="46.0251550" lon="12.3215350">
        <ele>756.6900000</ele>
        <time>2010-09-29T15:02:46Z</time>
      </trkpt>
      <trkpt lat="46.0251230" lon="12.3215290">
        <ele>758.1400000</ele>
        <time>2010-09-29T15:02:50Z</time>
      </trkpt>
      <trkpt lat="46.0250300" lon="12.3215030">
        <ele>758.1400000</ele>
        <time>2010-09-29T15:02:58Z</time>
      </trkpt>
      <trkpt lat="46.0249580" lon="12.3214580">
        <ele>758.1400000</ele>
        <time>2010-09-29T15:03:04Z</time>
      </trkpt>
      <trkpt lat="46.0248930" lon="12.3214680">
        <ele>756.6900000</ele>
        <time>2010-09-29T15:03:11Z</time>
      </trkpt>
      <trkpt lat="46.0248210" lon="12.3214600">
        <ele>758.1400000</ele>
        <time>2010-09-29T15:03:23Z</time>
      </trkpt>
      <trkpt lat="46.0248140" lon="12.3214500">
        <ele>758.1400000</ele>
        <time>2010-09-29T15:03:24Z</time>
      </trkpt>
      <trkpt lat="46.0247770" lon="12.3213710">
        <ele>759.1000000</ele>
        <time>2010-09-29T15:03:30Z</time>
      </trkpt>
      <trkpt lat="46.0246980" lon="12.3213300">
        <ele>760.0600000</ele>
        <time>2010-09-29T15:03:38Z</time>
      </trkpt>
      <trkpt lat="46.0246040" lon="12.3212270">
        <ele>760.5400000</ele>
        <time>2010-09-29T15:03:47Z</time>
      </trkpt>
      <trkpt lat="46.0245460" lon="12.3211840">
        <ele>761.0200000</ele>
        <time>2010-09-29T15:03:52Z</time>
      </trkpt>
      <trkpt lat="46.0245150" lon="12.3210990">
        <ele>761.0200000</ele>
        <time>2010-09-29T15:03:56Z</time>
      </trkpt>
      <trkpt lat="46.0244170" lon="12.3209960">
        <ele>760.5400000</ele>
        <time>2010-09-29T15:04:04Z</time>
      </trkpt>
      <trkpt lat="46.0243320" lon="12.3209210">
        <ele>760.0600000</ele>
        <time>2010-09-29T15:04:11Z</time>
      </trkpt>
      <trkpt lat="46.0242770" lon="12.3208430">
        <ele>760.5400000</ele>
        <time>2010-09-29T15:04:18Z</time>
      </trkpt>
      <trkpt lat="46.0242360" lon="12.3207810">
        <ele>760.0600000</ele>
        <time>2010-09-29T15:04:23Z</time>
      </trkpt>
      <trkpt lat="46.0241660" lon="12.3207320">
        <ele>760.5400000</ele>
        <time>2010-09-29T15:04:30Z</time>
      </trkpt>
      <trkpt lat="46.0240990" lon="12.3206280">
        <ele>760.0600000</ele>
        <time>2010-09-29T15:04:38Z</time>
      </trkpt>
      <trkpt lat="46.0240680" lon="12.3205830">
        <ele>760.0600000</ele>
        <time>2010-09-29T15:04:45Z</time>
      </trkpt>
      <trkpt lat="46.0239710" lon="12.3204950">
        <ele>760.5400000</ele>
        <time>2010-09-29T15:04:52Z</time>
      </trkpt>
      <trkpt lat="46.0239090" lon="12.3204440">
        <ele>760.5400000</ele>
        <time>2010-09-29T15:04:57Z</time>
      </trkpt>
      <trkpt lat="46.0238350" lon="12.3203530">
        <ele>760.5400000</ele>
        <time>2010-09-29T15:05:04Z</time>
      </trkpt>
      <trkpt lat="46.0237500" lon="12.3202760">
        <ele>760.0600000</ele>
        <time>2010-09-29T15:05:10Z</time>
      </trkpt>
      <trkpt lat="46.0237170" lon="12.3202340">
        <ele>760.0600000</ele>
        <time>2010-09-29T15:05:13Z</time>
      </trkpt>
      <trkpt lat="46.0236410" lon="12.3201700">
        <ele>760.0600000</ele>
        <time>2010-09-29T15:05:20Z</time>
      </trkpt>
      <trkpt lat="46.0235570" lon="12.3200550">
        <ele>760.0600000</ele>
        <time>2010-09-29T15:05:27Z</time>
      </trkpt>
      <trkpt lat="46.0235300" lon="12.3199730">
        <ele>760.5400000</ele>
        <time>2010-09-29T15:05:35Z</time>
      </trkpt>
      <trkpt lat="46.0234900" lon="12.3198630">
        <ele>760.5400000</ele>
        <time>2010-09-29T15:05:40Z</time>
      </trkpt>
      <trkpt lat="46.0234340" lon="12.3197870">
        <ele>760.5400000</ele>
        <time>2010-09-29T15:05:46Z</time>
      </trkpt>
      <trkpt lat="46.0233600" lon="12.3196690">
        <ele>760.0600000</ele>
        <time>2010-09-29T15:05:53Z</time>
      </trkpt>
      <trkpt lat="46.0232740" lon="12.3196010">
        <ele>760.0600000</ele>
        <time>2010-09-29T15:06:00Z</time>
      </trkpt>
      <trkpt lat="46.0232260" lon="12.3195540">
        <ele>760.0600000</ele>
        <time>2010-09-29T15:06:06Z</time>
      </trkpt>
      <trkpt lat="46.0231860" lon="12.3195230">
        <ele>760.0600000</ele>
        <time>2010-09-29T15:06:09Z</time>
      </trkpt>
      <trkpt lat="46.0230780" lon="12.3194840">
        <ele>759.1000000</ele>
        <time>2010-09-29T15:06:17Z</time>
      </trkpt>
      <trkpt lat="46.0230490" lon="12.3194800">
        <ele>760.0600000</ele>
        <time>2010-09-29T15:06:19Z</time>
      </trkpt>
      <trkpt lat="46.0229260" lon="12.3194510">
        <ele>759.5800000</ele>
        <time>2010-09-29T15:06:26Z</time>
      </trkpt>
      <trkpt lat="46.0229100" lon="12.3194470">
        <ele>759.5800000</ele>
        <time>2010-09-29T15:06:27Z</time>
      </trkpt>
      <trkpt lat="46.0228380" lon="12.3194680">
        <ele>759.5800000</ele>
        <time>2010-09-29T15:06:32Z</time>
      </trkpt>
      <trkpt lat="46.0227860" lon="12.3194690">
        <ele>759.1000000</ele>
        <time>2010-09-29T15:06:39Z</time>
      </trkpt>
      <trkpt lat="46.0227610" lon="12.3194830">
        <ele>759.5800000</ele>
        <time>2010-09-29T15:06:44Z</time>
      </trkpt>
      <trkpt lat="46.0226690" lon="12.3194920">
        <ele>759.1000000</ele>
        <time>2010-09-29T15:06:51Z</time>
      </trkpt>
      <trkpt lat="46.0225820" lon="12.3194750">
        <ele>759.1000000</ele>
        <time>2010-09-29T15:06:57Z</time>
      </trkpt>
      <trkpt lat="46.0224900" lon="12.3194480">
        <ele>758.6200000</ele>
        <time>2010-09-29T15:07:05Z</time>
      </trkpt>
      <trkpt lat="46.0224600" lon="12.3194500">
        <ele>758.1400000</ele>
        <time>2010-09-29T15:07:11Z</time>
      </trkpt>
      <trkpt lat="46.0224600" lon="12.3194500">
        <ele>758.1400000</ele>
        <time>2010-09-29T15:07:12Z</time>
      </trkpt>
      <trkpt lat="46.0224420" lon="12.3194020">
        <ele>758.6200000</ele>
        <time>2010-09-29T15:07:18Z</time>
      </trkpt>
      <trkpt lat="46.0224230" lon="12.3193410">
        <ele>758.6200000</ele>
        <time>2010-09-29T15:07:24Z</time>
      </trkpt>
      <trkpt lat="46.0224080" lon="12.3192260">
        <ele>758.1400000</ele>
        <time>2010-09-29T15:07:32Z</time>
      </trkpt>
      <trkpt lat="46.0224050" lon="12.3192210">
        <ele>758.6200000</ele>
        <time>2010-09-29T15:07:33Z</time>
      </trkpt>
      <trkpt lat="46.0224010" lon="12.3191290">
        <ele>758.6200000</ele>
        <time>2010-09-29T15:07:40Z</time>
      </trkpt>
      <trkpt lat="46.0223880" lon="12.3190250">
        <ele>759.5800000</ele>
        <time>2010-09-29T15:07:46Z</time>
      </trkpt>
      <trkpt lat="46.0223510" lon="12.3188730">
        <ele>759.1000000</ele>
        <time>2010-09-29T15:07:55Z</time>
      </trkpt>
      <trkpt lat="46.0223240" lon="12.3187600">
        <ele>759.1000000</ele>
        <time>2010-09-29T15:08:01Z</time>
      </trkpt>
      <trkpt lat="46.0223050" lon="12.3186040">
        <ele>758.6200000</ele>
        <time>2010-09-29T15:08:08Z</time>
      </trkpt>
      <trkpt lat="46.0222730" lon="12.3185090">
        <ele>757.1800000</ele>
        <time>2010-09-29T15:08:14Z</time>
      </trkpt>
      <trkpt lat="46.0222350" lon="12.3184610">
        <ele>757.6600000</ele>
        <time>2010-09-29T15:08:18Z</time>
      </trkpt>
      <trkpt lat="46.0221840" lon="12.3183340">
        <ele>757.1800000</ele>
        <time>2010-09-29T15:08:24Z</time>
      </trkpt>
      <trkpt lat="46.0221750" lon="12.3182900">
        <ele>757.6600000</ele>
        <time>2010-09-29T15:08:31Z</time>
      </trkpt>
      <trkpt lat="46.0220760" lon="12.3182140">
        <ele>757.1800000</ele>
        <time>2010-09-29T15:08:38Z</time>
      </trkpt>
      <trkpt lat="46.0219850" lon="12.3181840">
        <ele>757.1800000</ele>
        <time>2010-09-29T15:08:45Z</time>
      </trkpt>
      <trkpt lat="46.0219320" lon="12.3181460">
        <ele>757.1800000</ele>
        <time>2010-09-29T15:08:50Z</time>
      </trkpt>
      <trkpt lat="46.0218400" lon="12.3180480">
        <ele>757.6600000</ele>
        <time>2010-09-29T15:08:58Z</time>
      </trkpt>
      <trkpt lat="46.0217900" lon="12.3180120">
        <ele>757.6600000</ele>
        <time>2010-09-29T15:09:05Z</time>
      </trkpt>
      <trkpt lat="46.0216920" lon="12.3179430">
        <ele>757.6600000</ele>
        <time>2010-09-29T15:09:12Z</time>
      </trkpt>
      <trkpt lat="46.0216700" lon="12.3178860">
        <ele>757.1800000</ele>
        <time>2010-09-29T15:09:18Z</time>
      </trkpt>
      <trkpt lat="46.0216520" lon="12.3178460">
        <ele>757.6600000</ele>
        <time>2010-09-29T15:09:25Z</time>
      </trkpt>
      <trkpt lat="46.0216000" lon="12.3177800">
        <ele>757.6600000</ele>
        <time>2010-09-29T15:09:58Z</time>
      </trkpt>
      <trkpt lat="46.0215350" lon="12.3177070">
        <ele>758.1400000</ele>
        <time>2010-09-29T15:10:04Z</time>
      </trkpt>
      <trkpt lat="46.0214880" lon="12.3176010">
        <ele>758.1400000</ele>
        <time>2010-09-29T15:10:11Z</time>
      </trkpt>
      <trkpt lat="46.0214570" lon="12.3175210">
        <ele>757.6600000</ele>
        <time>2010-09-29T15:10:16Z</time>
      </trkpt>
      <trkpt lat="46.0214580" lon="12.3174960">
        <ele>757.6600000</ele>
        <time>2010-09-29T15:10:18Z</time>
      </trkpt>
      <trkpt lat="46.0214380" lon="12.3173710">
        <ele>757.6600000</ele>
        <time>2010-09-29T15:10:24Z</time>
      </trkpt>
      <trkpt lat="46.0214230" lon="12.3172790">
        <ele>757.6600000</ele>
        <time>2010-09-29T15:10:30Z</time>
      </trkpt>
      <trkpt lat="46.0213850" lon="12.3171760">
        <ele>758.6200000</ele>
        <time>2010-09-29T15:10:35Z</time>
      </trkpt>
      <trkpt lat="46.0213560" lon="12.3170940">
        <ele>758.1400000</ele>
        <time>2010-09-29T15:10:41Z</time>
      </trkpt>
      <trkpt lat="46.0213050" lon="12.3169600">
        <ele>757.6600000</ele>
        <time>2010-09-29T15:10:48Z</time>
      </trkpt>
      <trkpt lat="46.0212730" lon="12.3169020">
        <ele>757.6600000</ele>
        <time>2010-09-29T15:10:53Z</time>
      </trkpt>
      <trkpt lat="46.0212130" lon="12.3167790">
        <ele>757.6600000</ele>
        <time>2010-09-29T15:10:59Z</time>
      </trkpt>
      <trkpt lat="46.0212100" lon="12.3167370">
        <ele>757.6600000</ele>
        <time>2010-09-29T15:11:03Z</time>
      </trkpt>
      <trkpt lat="46.0211490" lon="12.3166360">
        <ele>757.6600000</ele>
        <time>2010-09-29T15:11:10Z</time>
      </trkpt>
      <trkpt lat="46.0211250" lon="12.3165970">
        <ele>757.6600000</ele>
        <time>2010-09-29T15:11:14Z</time>
      </trkpt>
      <trkpt lat="46.0211010" lon="12.3165730">
        <ele>757.6600000</ele>
        <time>2010-09-29T15:11:23Z</time>
      </trkpt>
      <trkpt lat="46.0210720" lon="12.3165470">
        <ele>757.6600000</ele>
        <time>2010-09-29T15:11:29Z</time>
      </trkpt>
      <trkpt lat="46.0210310" lon="12.3165000">
        <ele>757.6600000</ele>
        <time>2010-09-29T15:11:34Z</time>
      </trkpt>
      <trkpt lat="46.0209920" lon="12.3164190">
        <ele>757.6600000</ele>
        <time>2010-09-29T15:11:40Z</time>
      </trkpt>
      <trkpt lat="46.0209480" lon="12.3163110">
        <ele>757.6600000</ele>
        <time>2010-09-29T15:11:46Z</time>
      </trkpt>
      <trkpt lat="46.0209130" lon="12.3162420">
        <ele>758.1400000</ele>
        <time>2010-09-29T15:11:52Z</time>
      </trkpt>
      <trkpt lat="46.0208820" lon="12.3161380">
        <ele>757.6600000</ele>
        <time>2010-09-29T15:11:59Z</time>
      </trkpt>
      <trkpt lat="46.0208200" lon="12.3160150">
        <ele>757.6600000</ele>
        <time>2010-09-29T15:12:07Z</time>
      </trkpt>
      <trkpt lat="46.0207890" lon="12.3159230">
        <ele>757.6600000</ele>
        <time>2010-09-29T15:12:14Z</time>
      </trkpt>
      <trkpt lat="46.0207850" lon="12.3158570">
        <ele>757.6600000</ele>
        <time>2010-09-29T15:12:18Z</time>
      </trkpt>
      <trkpt lat="46.0208010" lon="12.3157380">
        <ele>757.6600000</ele>
        <time>2010-09-29T15:12:26Z</time>
      </trkpt>
      <trkpt lat="46.0208270" lon="12.3156930">
        <ele>757.1800000</ele>
        <time>2010-09-29T15:12:33Z</time>
      </trkpt>
      <trkpt lat="46.0208540" lon="12.3156580">
        <ele>756.6900000</ele>
        <time>2010-09-29T15:12:37Z</time>
      </trkpt>
      <trkpt lat="46.0208870" lon="12.3155770">
        <ele>754.2900000</ele>
        <time>2010-09-29T15:12:44Z</time>
      </trkpt>
      <trkpt lat="46.0208910" lon="12.3155410">
        <ele>753.8100000</ele>
        <time>2010-09-29T15:12:47Z</time>
      </trkpt>
      <trkpt lat="46.0208970" lon="12.3154650">
        <ele>752.3700000</ele>
        <time>2010-09-29T15:12:53Z</time>
      </trkpt>
      <trkpt lat="46.0208780" lon="12.3154050">
        <ele>751.8900000</ele>
        <time>2010-09-29T15:12:57Z</time>
      </trkpt>
      <trkpt lat="46.0208440" lon="12.3153100">
        <ele>751.4100000</ele>
        <time>2010-09-29T15:13:03Z</time>
      </trkpt>
      <trkpt lat="46.0208110" lon="12.3152390">
        <ele>750.4500000</ele>
        <time>2010-09-29T15:13:09Z</time>
      </trkpt>
      <trkpt lat="46.0207150" lon="12.3151270">
        <ele>749.9700000</ele>
        <time>2010-09-29T15:13:16Z</time>
      </trkpt>
      <trkpt lat="46.0206760" lon="12.3150720">
        <ele>748.0400000</ele>
        <time>2010-09-29T15:13:24Z</time>
      </trkpt>
      <trkpt lat="46.0206360" lon="12.3149470">
        <ele>748.0400000</ele>
        <time>2010-09-29T15:13:31Z</time>
      </trkpt>
      <trkpt lat="46.0206170" lon="12.3148640">
        <ele>748.0400000</ele>
        <time>2010-09-29T15:13:36Z</time>
      </trkpt>
      <trkpt lat="46.0205750" lon="12.3147650">
        <ele>747.0800000</ele>
        <time>2010-09-29T15:13:43Z</time>
      </trkpt>
      <trkpt lat="46.0205510" lon="12.3147480">
        <ele>747.0800000</ele>
        <time>2010-09-29T15:13:45Z</time>
      </trkpt>
      <trkpt lat="46.0204810" lon="12.3146480">
        <ele>746.6000000</ele>
        <time>2010-09-29T15:13:52Z</time>
      </trkpt>
      <trkpt lat="46.0204340" lon="12.3145730">
        <ele>746.1200000</ele>
        <time>2010-09-29T15:13:58Z</time>
      </trkpt>
      <trkpt lat="46.0203750" lon="12.3144920">
        <ele>745.1600000</ele>
        <time>2010-09-29T15:14:04Z</time>
      </trkpt>
      <trkpt lat="46.0203220" lon="12.3143670">
        <ele>745.6400000</ele>
        <time>2010-09-29T15:14:12Z</time>
      </trkpt>
      <trkpt lat="46.0202370" lon="12.3142840">
        <ele>745.1600000</ele>
        <time>2010-09-29T15:14:22Z</time>
      </trkpt>
      <trkpt lat="46.0202010" lon="12.3142370">
        <ele>745.6400000</ele>
        <time>2010-09-29T15:14:26Z</time>
      </trkpt>
      <trkpt lat="46.0201370" lon="12.3141690">
        <ele>745.6400000</ele>
        <time>2010-09-29T15:14:34Z</time>
      </trkpt>
      <trkpt lat="46.0200620" lon="12.3140760">
        <ele>745.1600000</ele>
        <time>2010-09-29T15:14:41Z</time>
      </trkpt>
      <trkpt lat="46.0200130" lon="12.3140250">
        <ele>743.7200000</ele>
        <time>2010-09-29T15:14:48Z</time>
      </trkpt>
      <trkpt lat="46.0199660" lon="12.3139810">
        <ele>742.7600000</ele>
        <time>2010-09-29T15:14:54Z</time>
      </trkpt>
      <trkpt lat="46.0198900" lon="12.3138800">
        <ele>742.2800000</ele>
        <time>2010-09-29T15:15:01Z</time>
      </trkpt>
      <trkpt lat="46.0198140" lon="12.3137560">
        <ele>743.2400000</ele>
        <time>2010-09-29T15:15:09Z</time>
      </trkpt>
      <trkpt lat="46.0197940" lon="12.3137270">
        <ele>743.2400000</ele>
        <time>2010-09-29T15:15:12Z</time>
      </trkpt>
      <trkpt lat="46.0197710" lon="12.3136580">
        <ele>744.2000000</ele>
        <time>2010-09-29T15:15:18Z</time>
      </trkpt>
      <trkpt lat="46.0197210" lon="12.3135640">
        <ele>744.2000000</ele>
        <time>2010-09-29T15:15:25Z</time>
      </trkpt>
      <trkpt lat="46.0196640" lon="12.3134780">
        <ele>745.6400000</ele>
        <time>2010-09-29T15:15:32Z</time>
      </trkpt>
      <trkpt lat="46.0196370" lon="12.3134310">
        <ele>745.1600000</ele>
        <time>2010-09-29T15:15:38Z</time>
      </trkpt>
      <trkpt lat="46.0196170" lon="12.3133670">
        <ele>745.1600000</ele>
        <time>2010-09-29T15:15:47Z</time>
      </trkpt>
      <trkpt lat="46.0196130" lon="12.3133570">
        <ele>745.1600000</ele>
        <time>2010-09-29T15:15:49Z</time>
      </trkpt>
      <trkpt lat="46.0195780" lon="12.3132920">
        <ele>745.6400000</ele>
        <time>2010-09-29T15:15:55Z</time>
      </trkpt>
      <trkpt lat="46.0195540" lon="12.3132590">
        <ele>745.6400000</ele>
        <time>2010-09-29T15:15:57Z</time>
      </trkpt>
      <trkpt lat="46.0195110" lon="12.3131650">
        <ele>747.0800000</ele>
        <time>2010-09-29T15:16:05Z</time>
      </trkpt>
      <trkpt lat="46.0194570" lon="12.3130910">
        <ele>747.5600000</ele>
        <time>2010-09-29T15:16:11Z</time>
      </trkpt>
      <trkpt lat="46.0193740" lon="12.3129640">
        <ele>746.6000000</ele>
        <time>2010-09-29T15:16:18Z</time>
      </trkpt>
      <trkpt lat="46.0192940" lon="12.3128690">
        <ele>745.1600000</ele>
        <time>2010-09-29T15:16:26Z</time>
      </trkpt>
      <trkpt lat="46.0192550" lon="12.3128110">
        <ele>743.7200000</ele>
        <time>2010-09-29T15:16:34Z</time>
      </trkpt>
      <trkpt lat="46.0191920" lon="12.3127370">
        <ele>741.7900000</ele>
        <time>2010-09-29T15:16:40Z</time>
      </trkpt>
      <trkpt lat="46.0191730" lon="12.3127160">
        <ele>740.8300000</ele>
        <time>2010-09-29T15:16:42Z</time>
      </trkpt>
      <trkpt lat="46.0190810" lon="12.3126740">
        <ele>740.3500000</ele>
        <time>2010-09-29T15:16:49Z</time>
      </trkpt>
      <trkpt lat="46.0190660" lon="12.3126640">
        <ele>739.8700000</ele>
        <time>2010-09-29T15:16:51Z</time>
      </trkpt>
      <trkpt lat="46.0190010" lon="12.3125860">
        <ele>737.9500000</ele>
        <time>2010-09-29T15:17:01Z</time>
      </trkpt>
      <trkpt lat="46.0190000" lon="12.3125410">
        <ele>736.9900000</ele>
        <time>2010-09-29T15:17:07Z</time>
      </trkpt>
      <trkpt lat="46.0189960" lon="12.3125010">
        <ele>736.0300000</ele>
        <time>2010-09-29T15:17:14Z</time>
      </trkpt>
      <trkpt lat="46.0189250" lon="12.3123960">
        <ele>736.5100000</ele>
        <time>2010-09-29T15:17:22Z</time>
      </trkpt>
      <trkpt lat="46.0188630" lon="12.3123850">
        <ele>737.9500000</ele>
        <time>2010-09-29T15:17:29Z</time>
      </trkpt>
      <trkpt lat="46.0188370" lon="12.3123300">
        <ele>737.9500000</ele>
        <time>2010-09-29T15:17:36Z</time>
      </trkpt>
      <trkpt lat="46.0187770" lon="12.3122300">
        <ele>738.4300000</ele>
        <time>2010-09-29T15:17:44Z</time>
      </trkpt>
      <trkpt lat="46.0187660" lon="12.3121560">
        <ele>739.3900000</ele>
        <time>2010-09-29T15:17:51Z</time>
      </trkpt>
      <trkpt lat="46.0187360" lon="12.3120870">
        <ele>739.8700000</ele>
        <time>2010-09-29T15:17:57Z</time>
      </trkpt>
      <trkpt lat="46.0186800" lon="12.3120480">
        <ele>740.8300000</ele>
        <time>2010-09-29T15:18:02Z</time>
      </trkpt>
      <trkpt lat="46.0186250" lon="12.3119650">
        <ele>740.8300000</ele>
        <time>2010-09-29T15:18:08Z</time>
      </trkpt>
      <trkpt lat="46.0186020" lon="12.3119130">
        <ele>740.8300000</ele>
        <time>2010-09-29T15:18:13Z</time>
      </trkpt>
      <trkpt lat="46.0185520" lon="12.3118450">
        <ele>740.3500000</ele>
        <time>2010-09-29T15:18:19Z</time>
      </trkpt>
      <trkpt lat="46.0185180" lon="12.3117760">
        <ele>740.3500000</ele>
        <time>2010-09-29T15:18:25Z</time>
      </trkpt>
      <trkpt lat="46.0184340" lon="12.3116780">
        <ele>739.8700000</ele>
        <time>2010-09-29T15:18:33Z</time>
      </trkpt>
      <trkpt lat="46.0183750" lon="12.3115960">
        <ele>740.3500000</ele>
        <time>2010-09-29T15:18:41Z</time>
      </trkpt>
      <trkpt lat="46.0183110" lon="12.3115130">
        <ele>741.3100000</ele>
        <time>2010-09-29T15:18:49Z</time>
      </trkpt>
      <trkpt lat="46.0182400" lon="12.3114680">
        <ele>741.7900000</ele>
        <time>2010-09-29T15:18:58Z</time>
      </trkpt>
      <trkpt lat="46.0182160" lon="12.3114360">
        <ele>742.7600000</ele>
        <time>2010-09-29T15:19:00Z</time>
      </trkpt>
      <trkpt lat="46.0181570" lon="12.3113690">
        <ele>741.3100000</ele>
        <time>2010-09-29T15:19:07Z</time>
      </trkpt>
      <trkpt lat="46.0181180" lon="12.3113340">
        <ele>739.8700000</ele>
        <time>2010-09-29T15:19:10Z</time>
      </trkpt>
      <trkpt lat="46.0180670" lon="12.3112930">
        <ele>739.8700000</ele>
        <time>2010-09-29T15:19:14Z</time>
      </trkpt>
      <trkpt lat="46.0179870" lon="12.3112070">
        <ele>738.9100000</ele>
        <time>2010-09-29T15:19:23Z</time>
      </trkpt>
      <trkpt lat="46.0178920" lon="12.3111220">
        <ele>736.9900000</ele>
        <time>2010-09-29T15:19:37Z</time>
      </trkpt>
      <trkpt lat="46.0178450" lon="12.3110730">
        <ele>735.5500000</ele>
        <time>2010-09-29T15:19:45Z</time>
      </trkpt>
      <trkpt lat="46.0178200" lon="12.3110500">
        <ele>736.0300000</ele>
        <time>2010-09-29T15:19:48Z</time>
      </trkpt>
      <trkpt lat="46.0177440" lon="12.3109730">
        <ele>736.0300000</ele>
        <time>2010-09-29T15:19:56Z</time>
      </trkpt>
      <trkpt lat="46.0176990" lon="12.3109250">
        <ele>737.9500000</ele>
        <time>2010-09-29T15:20:01Z</time>
      </trkpt>
      <trkpt lat="46.0176610" lon="12.3108390">
        <ele>737.4700000</ele>
        <time>2010-09-29T15:20:08Z</time>
      </trkpt>
      <trkpt lat="46.0175990" lon="12.3107550">
        <ele>740.8300000</ele>
        <time>2010-09-29T15:20:20Z</time>
      </trkpt>
      <trkpt lat="46.0175860" lon="12.3107370">
        <ele>740.8300000</ele>
        <time>2010-09-29T15:20:23Z</time>
      </trkpt>
      <trkpt lat="46.0175400" lon="12.3106590">
        <ele>740.8300000</ele>
        <time>2010-09-29T15:20:29Z</time>
      </trkpt>
      <trkpt lat="46.0175220" lon="12.3106130">
        <ele>742.7600000</ele>
        <time>2010-09-29T15:20:36Z</time>
      </trkpt>
      <trkpt lat="46.0174790" lon="12.3105370">
        <ele>742.7600000</ele>
        <time>2010-09-29T15:20:40Z</time>
      </trkpt>
      <trkpt lat="46.0174530" lon="12.3105190">
        <ele>743.2400000</ele>
        <time>2010-09-29T15:20:42Z</time>
      </trkpt>
      <trkpt lat="46.0173630" lon="12.3104540">
        <ele>743.7200000</ele>
        <time>2010-09-29T15:20:50Z</time>
      </trkpt>
      <trkpt lat="46.0173200" lon="12.3104230">
        <ele>744.6800000</ele>
        <time>2010-09-29T15:20:58Z</time>
      </trkpt>
      <trkpt lat="46.0172870" lon="12.3104000">
        <ele>745.6400000</ele>
        <time>2010-09-29T15:21:01Z</time>
      </trkpt>
      <trkpt lat="46.0172550" lon="12.3103810">
        <ele>746.1200000</ele>
        <time>2010-09-29T15:21:11Z</time>
      </trkpt>
      <trkpt lat="46.0171870" lon="12.3103630">
        <ele>744.6800000</ele>
        <time>2010-09-29T15:21:15Z</time>
      </trkpt>
      <trkpt lat="46.0170720" lon="12.3103170">
        <ele>742.7600000</ele>
        <time>2010-09-29T15:21:23Z</time>
      </trkpt>
      <trkpt lat="46.0170110" lon="12.3103040">
        <ele>741.3100000</ele>
        <time>2010-09-29T15:21:29Z</time>
      </trkpt>
      <trkpt lat="46.0169500" lon="12.3102960">
        <ele>738.9100000</ele>
        <time>2010-09-29T15:21:36Z</time>
      </trkpt>
      <trkpt lat="46.0169190" lon="12.3102890">
        <ele>736.0300000</ele>
        <time>2010-09-29T15:21:44Z</time>
      </trkpt>
      <trkpt lat="46.0168970" lon="12.3102710">
        <ele>735.0700000</ele>
        <time>2010-09-29T15:21:49Z</time>
      </trkpt>
      <trkpt lat="46.0168610" lon="12.3102490">
        <ele>733.1400000</ele>
        <time>2010-09-29T15:21:54Z</time>
      </trkpt>
      <trkpt lat="46.0167910" lon="12.3102420">
        <ele>730.7400000</ele>
        <time>2010-09-29T15:22:00Z</time>
      </trkpt>
      <trkpt lat="46.0167220" lon="12.3102290">
        <ele>729.7800000</ele>
        <time>2010-09-29T15:22:06Z</time>
      </trkpt>
      <trkpt lat="46.0166510" lon="12.3102340">
        <ele>727.3700000</ele>
        <time>2010-09-29T15:22:15Z</time>
      </trkpt>
      <trkpt lat="46.0166150" lon="12.3102340">
        <ele>726.4100000</ele>
        <time>2010-09-29T15:22:20Z</time>
      </trkpt>
      <trkpt lat="46.0165680" lon="12.3102600">
        <ele>724.9700000</ele>
        <time>2010-09-29T15:22:26Z</time>
      </trkpt>
      <trkpt lat="46.0165190" lon="12.3102560">
        <ele>723.0500000</ele>
        <time>2010-09-29T15:22:32Z</time>
      </trkpt>
      <trkpt lat="46.0164530" lon="12.3102280">
        <ele>721.1300000</ele>
        <time>2010-09-29T15:22:39Z</time>
      </trkpt>
      <trkpt lat="46.0164360" lon="12.3102160">
        <ele>721.1300000</ele>
        <time>2010-09-29T15:22:43Z</time>
      </trkpt>
      <trkpt lat="46.0163850" lon="12.3101870">
        <ele>720.1600000</ele>
        <time>2010-09-29T15:22:51Z</time>
      </trkpt>
      <trkpt lat="46.0163160" lon="12.3101560">
        <ele>718.2400000</ele>
        <time>2010-09-29T15:22:58Z</time>
      </trkpt>
      <trkpt lat="46.0162470" lon="12.3100960">
        <ele>717.7600000</ele>
        <time>2010-09-29T15:23:05Z</time>
      </trkpt>
      <trkpt lat="46.0162310" lon="12.3100340">
        <ele>716.8000000</ele>
        <time>2010-09-29T15:23:14Z</time>
      </trkpt>
      <trkpt lat="46.0162120" lon="12.3099260">
        <ele>716.8000000</ele>
        <time>2010-09-29T15:23:20Z</time>
      </trkpt>
      <trkpt lat="46.0161510" lon="12.3097900">
        <ele>717.2800000</ele>
        <time>2010-09-29T15:23:28Z</time>
      </trkpt>
      <trkpt lat="46.0161440" lon="12.3097720">
        <ele>717.7600000</ele>
        <time>2010-09-29T15:23:29Z</time>
      </trkpt>
      <trkpt lat="46.0161330" lon="12.3096460">
        <ele>717.2800000</ele>
        <time>2010-09-29T15:23:35Z</time>
      </trkpt>
      <trkpt lat="46.0161250" lon="12.3096230">
        <ele>716.8000000</ele>
        <time>2010-09-29T15:23:37Z</time>
      </trkpt>
      <trkpt lat="46.0161130" lon="12.3096020">
        <ele>716.3200000</ele>
        <time>2010-09-29T15:23:39Z</time>
      </trkpt>
      <trkpt lat="46.0160980" lon="12.3095920">
        <ele>715.8400000</ele>
        <time>2010-09-29T15:23:49Z</time>
      </trkpt>
      <trkpt lat="46.0160950" lon="12.3095730">
        <ele>715.3600000</ele>
        <time>2010-09-29T15:23:53Z</time>
      </trkpt>
      <trkpt lat="46.0160940" lon="12.3095330">
        <ele>713.9200000</ele>
        <time>2010-09-29T15:23:56Z</time>
      </trkpt>
      <trkpt lat="46.0160780" lon="12.3094600">
        <ele>712.9500000</ele>
        <time>2010-09-29T15:24:03Z</time>
      </trkpt>
      <trkpt lat="46.0160720" lon="12.3094480">
        <ele>712.4700000</ele>
        <time>2010-09-29T15:24:04Z</time>
      </trkpt>
      <trkpt lat="46.0160580" lon="12.3094270">
        <ele>711.5100000</ele>
        <time>2010-09-29T15:24:06Z</time>
      </trkpt>
      <trkpt lat="46.0160350" lon="12.3093900">
        <ele>710.0700000</ele>
        <time>2010-09-29T15:24:10Z</time>
      </trkpt>
      <trkpt lat="46.0159710" lon="12.3092790">
        <ele>708.6300000</ele>
        <time>2010-09-29T15:24:18Z</time>
      </trkpt>
      <trkpt lat="46.0159390" lon="12.3092210">
        <ele>708.6300000</ele>
        <time>2010-09-29T15:24:25Z</time>
      </trkpt>
      <trkpt lat="46.0159120" lon="12.3091400">
        <ele>708.6300000</ele>
        <time>2010-09-29T15:24:31Z</time>
      </trkpt>
      <trkpt lat="46.0158850" lon="12.3091030">
        <ele>709.1100000</ele>
        <time>2010-09-29T15:24:38Z</time>
      </trkpt>
      <trkpt lat="46.0158290" lon="12.3090020">
        <ele>709.1100000</ele>
        <time>2010-09-29T15:24:44Z</time>
      </trkpt>
      <trkpt lat="46.0157740" lon="12.3089210">
        <ele>708.1500000</ele>
        <time>2010-09-29T15:24:50Z</time>
      </trkpt>
      <trkpt lat="46.0157700" lon="12.3087900">
        <ele>707.6700000</ele>
        <time>2010-09-29T15:24:57Z</time>
      </trkpt>
      <trkpt lat="46.0157620" lon="12.3087820">
        <ele>706.7100000</ele>
        <time>2010-09-29T15:25:32Z</time>
      </trkpt>
      <trkpt lat="46.0157520" lon="12.3087650">
        <ele>706.7100000</ele>
        <time>2010-09-29T15:25:34Z</time>
      </trkpt>
      <trkpt lat="46.0157250" lon="12.3087100">
        <ele>706.7100000</ele>
        <time>2010-09-29T15:25:37Z</time>
      </trkpt>
      <trkpt lat="46.0157120" lon="12.3086560">
        <ele>704.7800000</ele>
        <time>2010-09-29T15:25:43Z</time>
      </trkpt>
      <trkpt lat="46.0157440" lon="12.3086250">
        <ele>705.2600000</ele>
        <time>2010-09-29T15:25:50Z</time>
      </trkpt>
      <trkpt lat="46.0158050" lon="12.3085930">
        <ele>704.7800000</ele>
        <time>2010-09-29T15:25:58Z</time>
      </trkpt>
      <trkpt lat="46.0158170" lon="12.3085850">
        <ele>705.2600000</ele>
        <time>2010-09-29T15:26:00Z</time>
      </trkpt>
      <trkpt lat="46.0158850" lon="12.3085600">
        <ele>703.3400000</ele>
        <time>2010-09-29T15:26:07Z</time>
      </trkpt>
      <trkpt lat="46.0159290" lon="12.3085280">
        <ele>703.8200000</ele>
        <time>2010-09-29T15:26:13Z</time>
      </trkpt>
      <trkpt lat="46.0160060" lon="12.3085110">
        <ele>703.3400000</ele>
        <time>2010-09-29T15:26:18Z</time>
      </trkpt>
      <trkpt lat="46.0160290" lon="12.3084900">
        <ele>702.8600000</ele>
        <time>2010-09-29T15:26:20Z</time>
      </trkpt>
      <trkpt lat="46.0160710" lon="12.3084380">
        <ele>702.8600000</ele>
        <time>2010-09-29T15:26:24Z</time>
      </trkpt>
      <trkpt lat="46.0160980" lon="12.3083290">
        <ele>701.9000000</ele>
        <time>2010-09-29T15:26:30Z</time>
      </trkpt>
      <trkpt lat="46.0160460" lon="12.3081780">
        <ele>699.9800000</ele>
        <time>2010-09-29T15:26:38Z</time>
      </trkpt>
      <trkpt lat="46.0160000" lon="12.3080430">
        <ele>699.0200000</ele>
        <time>2010-09-29T15:26:44Z</time>
      </trkpt>
      <trkpt lat="46.0159570" lon="12.3079860">
        <ele>698.0500000</ele>
        <time>2010-09-29T15:26:50Z</time>
      </trkpt>
      <trkpt lat="46.0159190" lon="12.3079230">
        <ele>695.6500000</ele>
        <time>2010-09-29T15:26:56Z</time>
      </trkpt>
      <trkpt lat="46.0159050" lon="12.3078700">
        <ele>694.6900000</ele>
        <time>2010-09-29T15:27:03Z</time>
      </trkpt>
      <trkpt lat="46.0158760" lon="12.3078110">
        <ele>692.7700000</ele>
        <time>2010-09-29T15:27:10Z</time>
      </trkpt>
      <trkpt lat="46.0158650" lon="12.3077610">
        <ele>690.3600000</ele>
        <time>2010-09-29T15:27:16Z</time>
      </trkpt>
      <trkpt lat="46.0158770" lon="12.3077040">
        <ele>688.9200000</ele>
        <time>2010-09-29T15:27:23Z</time>
      </trkpt>
      <trkpt lat="46.0158630" lon="12.3076540">
        <ele>687.4800000</ele>
        <time>2010-09-29T15:27:27Z</time>
      </trkpt>
      <trkpt lat="46.0158350" lon="12.3075700">
        <ele>685.0800000</ele>
        <time>2010-09-29T15:27:35Z</time>
      </trkpt>
      <trkpt lat="46.0158040" lon="12.3075320">
        <ele>684.6000000</ele>
        <time>2010-09-29T15:27:39Z</time>
      </trkpt>
      <trkpt lat="46.0157520" lon="12.3074700">
        <ele>682.6700000</ele>
        <time>2010-09-29T15:27:46Z</time>
      </trkpt>
      <trkpt lat="46.0157310" lon="12.3074090">
        <ele>680.7500000</ele>
        <time>2010-09-29T15:27:57Z</time>
      </trkpt>
      <trkpt lat="46.0156960" lon="12.3073160">
        <ele>677.8700000</ele>
        <time>2010-09-29T15:28:04Z</time>
      </trkpt>
      <trkpt lat="46.0156810" lon="12.3072670">
        <ele>676.4200000</ele>
        <time>2010-09-29T15:28:08Z</time>
      </trkpt>
      <trkpt lat="46.0156730" lon="12.3072570">
        <ele>676.4200000</ele>
        <time>2010-09-29T15:28:09Z</time>
      </trkpt>
      <trkpt lat="46.0156560" lon="12.3072330">
        <ele>675.4600000</ele>
        <time>2010-09-29T15:28:11Z</time>
      </trkpt>
      <trkpt lat="46.0156030" lon="12.3072040">
        <ele>674.0200000</ele>
        <time>2010-09-29T15:28:19Z</time>
      </trkpt>
      <trkpt lat="46.0155650" lon="12.3071680">
        <ele>673.5400000</ele>
        <time>2010-09-29T15:28:25Z</time>
      </trkpt>
      <trkpt lat="46.0155540" lon="12.3071380">
        <ele>671.6200000</ele>
        <time>2010-09-29T15:28:28Z</time>
      </trkpt>
      <trkpt lat="46.0155360" lon="12.3071230">
        <ele>671.6200000</ele>
        <time>2010-09-29T15:28:32Z</time>
      </trkpt>
      <trkpt lat="46.0155100" lon="12.3070750">
        <ele>669.7000000</ele>
        <time>2010-09-29T15:28:37Z</time>
      </trkpt>
      <trkpt lat="46.0154650" lon="12.3069560">
        <ele>668.2500000</ele>
        <time>2010-09-29T15:28:42Z</time>
      </trkpt>
      <trkpt lat="46.0154260" lon="12.3069080">
        <ele>667.2900000</ele>
        <time>2010-09-29T15:28:48Z</time>
      </trkpt>
      <trkpt lat="46.0154050" lon="12.3068330">
        <ele>665.8500000</ele>
        <time>2010-09-29T15:28:55Z</time>
      </trkpt>
      <trkpt lat="46.0153990" lon="12.3068240">
        <ele>664.4100000</ele>
        <time>2010-09-29T15:28:57Z</time>
      </trkpt>
      <trkpt lat="46.0153720" lon="12.3067720">
        <ele>663.9300000</ele>
        <time>2010-09-29T15:29:00Z</time>
      </trkpt>
      <trkpt lat="46.0153170" lon="12.3066780">
        <ele>661.5200000</ele>
        <time>2010-09-29T15:29:08Z</time>
      </trkpt>
      <trkpt lat="46.0153120" lon="12.3066680">
        <ele>661.5200000</ele>
        <time>2010-09-29T15:29:09Z</time>
      </trkpt>
      <trkpt lat="46.0152970" lon="12.3065770">
        <ele>661.0400000</ele>
        <time>2010-09-29T15:29:13Z</time>
      </trkpt>
      <trkpt lat="46.0152600" lon="12.3065180">
        <ele>660.5600000</ele>
        <time>2010-09-29T15:29:20Z</time>
      </trkpt>
      <trkpt lat="46.0152090" lon="12.3064220">
        <ele>658.6400000</ele>
        <time>2010-09-29T15:29:28Z</time>
      </trkpt>
      <trkpt lat="46.0151950" lon="12.3063980">
        <ele>658.1600000</ele>
        <time>2010-09-29T15:29:30Z</time>
      </trkpt>
      <trkpt lat="46.0151630" lon="12.3063510">
        <ele>657.2000000</ele>
        <time>2010-09-29T15:29:37Z</time>
      </trkpt>
      <trkpt lat="46.0151060" lon="12.3063200">
        <ele>655.2800000</ele>
        <time>2010-09-29T15:29:42Z</time>
      </trkpt>
      <trkpt lat="46.0150360" lon="12.3062620">
        <ele>654.3100000</ele>
        <time>2010-09-29T15:29:48Z</time>
      </trkpt>
      <trkpt lat="46.0150360" lon="12.3062620">
        <ele>653.3500000</ele>
        <time>2010-09-29T15:29:52Z</time>
      </trkpt>
      <trkpt lat="46.0149960" lon="12.3062040">
        <ele>651.9100000</ele>
        <time>2010-09-29T15:29:57Z</time>
      </trkpt>
      <trkpt lat="46.0149270" lon="12.3061090">
        <ele>650.4700000</ele>
        <time>2010-09-29T15:30:05Z</time>
      </trkpt>
      <trkpt lat="46.0149170" lon="12.3060470">
        <ele>648.0700000</ele>
        <time>2010-09-29T15:30:10Z</time>
      </trkpt>
      <trkpt lat="46.0148510" lon="12.3059990">
        <ele>647.1000000</ele>
        <time>2010-09-29T15:30:15Z</time>
      </trkpt>
      <trkpt lat="46.0148070" lon="12.3059540">
        <ele>645.6600000</ele>
        <time>2010-09-29T15:30:22Z</time>
      </trkpt>
      <trkpt lat="46.0147840" lon="12.3059020">
        <ele>644.7000000</ele>
        <time>2010-09-29T15:30:26Z</time>
      </trkpt>
      <trkpt lat="46.0147090" lon="12.3058320">
        <ele>642.7800000</ele>
        <time>2010-09-29T15:30:32Z</time>
      </trkpt>
      <trkpt lat="46.0146780" lon="12.3057900">
        <ele>641.3400000</ele>
        <time>2010-09-29T15:30:38Z</time>
      </trkpt>
      <trkpt lat="46.0146270" lon="12.3057530">
        <ele>640.3800000</ele>
        <time>2010-09-29T15:30:41Z</time>
      </trkpt>
      <trkpt lat="46.0146050" lon="12.3057240">
        <ele>640.8600000</ele>
        <time>2010-09-29T15:30:43Z</time>
      </trkpt>
      <trkpt lat="46.0145920" lon="12.3056670">
        <ele>640.3800000</ele>
        <time>2010-09-29T15:30:46Z</time>
      </trkpt>
      <trkpt lat="46.0145840" lon="12.3055920">
        <ele>639.8900000</ele>
        <time>2010-09-29T15:30:49Z</time>
      </trkpt>
      <trkpt lat="46.0144800" lon="12.3054960">
        <ele>639.4100000</ele>
        <time>2010-09-29T15:30:56Z</time>
      </trkpt>
      <trkpt lat="46.0144610" lon="12.3054890">
        <ele>637.9700000</ele>
        <time>2010-09-29T15:30:59Z</time>
      </trkpt>
      <trkpt lat="46.0144130" lon="12.3054510">
        <ele>637.9700000</ele>
        <time>2010-09-29T15:31:03Z</time>
      </trkpt>
      <trkpt lat="46.0143790" lon="12.3053940">
        <ele>636.5300000</ele>
        <time>2010-09-29T15:31:07Z</time>
      </trkpt>
      <trkpt lat="46.0142880" lon="12.3053140">
        <ele>634.6100000</ele>
        <time>2010-09-29T15:31:13Z</time>
      </trkpt>
      <trkpt lat="46.0142390" lon="12.3052780">
        <ele>633.6500000</ele>
        <time>2010-09-29T15:31:20Z</time>
      </trkpt>
      <trkpt lat="46.0142210" lon="12.3052600">
        <ele>633.6500000</ele>
        <time>2010-09-29T15:31:23Z</time>
      </trkpt>
      <trkpt lat="46.0141530" lon="12.3051790">
        <ele>632.6800000</ele>
        <time>2010-09-29T15:31:29Z</time>
      </trkpt>
      <trkpt lat="46.0141230" lon="12.3051430">
        <ele>632.2000000</ele>
        <time>2010-09-29T15:31:38Z</time>
      </trkpt>
      <trkpt lat="46.0140920" lon="12.3050930">
        <ele>632.6800000</ele>
        <time>2010-09-29T15:31:44Z</time>
      </trkpt>
      <trkpt lat="46.0140720" lon="12.3050800">
        <ele>633.6500000</ele>
        <time>2010-09-29T15:31:47Z</time>
      </trkpt>
      <trkpt lat="46.0140580" lon="12.3050450">
        <ele>634.1300000</ele>
        <time>2010-09-29T15:31:51Z</time>
      </trkpt>
      <trkpt lat="46.0139910" lon="12.3049930">
        <ele>633.6500000</ele>
        <time>2010-09-29T15:31:56Z</time>
      </trkpt>
      <trkpt lat="46.0139570" lon="12.3049830">
        <ele>633.1700000</ele>
        <time>2010-09-29T15:31:59Z</time>
      </trkpt>
      <trkpt lat="46.0139240" lon="12.3049820">
        <ele>633.1700000</ele>
        <time>2010-09-29T15:32:01Z</time>
      </trkpt>
      <trkpt lat="46.0138750" lon="12.3049030">
        <ele>633.1700000</ele>
        <time>2010-09-29T15:32:07Z</time>
      </trkpt>
      <trkpt lat="46.0138630" lon="12.3048670">
        <ele>632.2000000</ele>
        <time>2010-09-29T15:32:10Z</time>
      </trkpt>
      <trkpt lat="46.0138380" lon="12.3048310">
        <ele>630.7600000</ele>
        <time>2010-09-29T15:32:15Z</time>
      </trkpt>
      <trkpt lat="46.0138180" lon="12.3048160">
        <ele>631.7200000</ele>
        <time>2010-09-29T15:32:17Z</time>
      </trkpt>
      <trkpt lat="46.0137740" lon="12.3047890">
        <ele>630.2800000</ele>
        <time>2010-09-29T15:32:20Z</time>
      </trkpt>
      <trkpt lat="46.0137260" lon="12.3046940">
        <ele>629.8000000</ele>
        <time>2010-09-29T15:32:25Z</time>
      </trkpt>
      <trkpt lat="46.0136890" lon="12.3046560">
        <ele>628.8400000</ele>
        <time>2010-09-29T15:32:31Z</time>
      </trkpt>
      <trkpt lat="46.0136720" lon="12.3046400">
        <ele>628.3600000</ele>
        <time>2010-09-29T15:32:33Z</time>
      </trkpt>
      <trkpt lat="46.0136230" lon="12.3045550">
        <ele>628.3600000</ele>
        <time>2010-09-29T15:32:38Z</time>
      </trkpt>
      <trkpt lat="46.0136060" lon="12.3045120">
        <ele>627.4000000</ele>
        <time>2010-09-29T15:32:41Z</time>
      </trkpt>
      <trkpt lat="46.0135460" lon="12.3044650">
        <ele>626.4400000</ele>
        <time>2010-09-29T15:32:47Z</time>
      </trkpt>
      <trkpt lat="46.0135100" lon="12.3044510">
        <ele>625.9600000</ele>
        <time>2010-09-29T15:32:52Z</time>
      </trkpt>
      <trkpt lat="46.0134470" lon="12.3043680">
        <ele>625.4700000</ele>
        <time>2010-09-29T15:32:58Z</time>
      </trkpt>
      <trkpt lat="46.0133880" lon="12.3042390">
        <ele>625.4700000</ele>
        <time>2010-09-29T15:33:05Z</time>
      </trkpt>
      <trkpt lat="46.0134090" lon="12.3041960">
        <ele>625.4700000</ele>
        <time>2010-09-29T15:33:12Z</time>
      </trkpt>
      <trkpt lat="46.0134100" lon="12.3040520">
        <ele>625.9600000</ele>
        <time>2010-09-29T15:33:21Z</time>
      </trkpt>
      <trkpt lat="46.0133860" lon="12.3039740">
        <ele>626.9200000</ele>
        <time>2010-09-29T15:33:27Z</time>
      </trkpt>
      <trkpt lat="46.0133870" lon="12.3039570">
        <ele>626.9200000</ele>
        <time>2010-09-29T15:33:28Z</time>
      </trkpt>
      <trkpt lat="46.0133900" lon="12.3039300">
        <ele>627.8800000</ele>
        <time>2010-09-29T15:33:32Z</time>
      </trkpt>
      <trkpt lat="46.0133630" lon="12.3038330">
        <ele>627.4000000</ele>
        <time>2010-09-29T15:33:38Z</time>
      </trkpt>
      <trkpt lat="46.0133670" lon="12.3038040">
        <ele>628.3600000</ele>
        <time>2010-09-29T15:33:42Z</time>
      </trkpt>
      <trkpt lat="46.0133250" lon="12.3037250">
        <ele>628.8400000</ele>
        <time>2010-09-29T15:33:48Z</time>
      </trkpt>
      <trkpt lat="46.0132950" lon="12.3037000">
        <ele>627.8800000</ele>
        <time>2010-09-29T15:33:50Z</time>
      </trkpt>
      <trkpt lat="46.0132620" lon="12.3036270">
        <ele>628.3600000</ele>
        <time>2010-09-29T15:33:57Z</time>
      </trkpt>
      <trkpt lat="46.0132230" lon="12.3035270">
        <ele>627.8800000</ele>
        <time>2010-09-29T15:34:03Z</time>
      </trkpt>
      <trkpt lat="46.0132110" lon="12.3034690">
        <ele>626.9200000</ele>
        <time>2010-09-29T15:34:06Z</time>
      </trkpt>
      <trkpt lat="46.0131570" lon="12.3033760">
        <ele>624.9900000</ele>
        <time>2010-09-29T15:34:13Z</time>
      </trkpt>
      <trkpt lat="46.0131330" lon="12.3033270">
        <ele>624.0300000</ele>
        <time>2010-09-29T15:34:16Z</time>
      </trkpt>
      <trkpt lat="46.0130910" lon="12.3032930">
        <ele>622.5900000</ele>
        <time>2010-09-29T15:34:19Z</time>
      </trkpt>
      <trkpt lat="46.0130380" lon="12.3032770">
        <ele>621.6300000</ele>
        <time>2010-09-29T15:34:26Z</time>
      </trkpt>
      <trkpt lat="46.0130190" lon="12.3031750">
        <ele>619.7100000</ele>
        <time>2010-09-29T15:34:33Z</time>
      </trkpt>
      <trkpt lat="46.0129940" lon="12.3031490">
        <ele>618.7500000</ele>
        <time>2010-09-29T15:34:36Z</time>
      </trkpt>
      <trkpt lat="46.0129710" lon="12.3031040">
        <ele>616.8200000</ele>
        <time>2010-09-29T15:34:39Z</time>
      </trkpt>
      <trkpt lat="46.0129760" lon="12.3030750">
        <ele>615.8600000</ele>
        <time>2010-09-29T15:34:44Z</time>
      </trkpt>
      <trkpt lat="46.0129700" lon="12.3029570">
        <ele>613.4600000</ele>
        <time>2010-09-29T15:34:51Z</time>
      </trkpt>
      <trkpt lat="46.0129640" lon="12.3029520">
        <ele>613.4600000</ele>
        <time>2010-09-29T15:34:52Z</time>
      </trkpt>
      <trkpt lat="46.0129200" lon="12.3028850">
        <ele>612.0200000</ele>
        <time>2010-09-29T15:34:58Z</time>
      </trkpt>
      <trkpt lat="46.0128890" lon="12.3028530">
        <ele>610.5700000</ele>
        <time>2010-09-29T15:35:01Z</time>
      </trkpt>
      <trkpt lat="46.0128650" lon="12.3028130">
        <ele>607.6900000</ele>
        <time>2010-09-29T15:35:08Z</time>
      </trkpt>
      <trkpt lat="46.0128650" lon="12.3028130">
        <ele>607.6900000</ele>
        <time>2010-09-29T15:35:09Z</time>
      </trkpt>
      <trkpt lat="46.0128310" lon="12.3027630">
        <ele>606.7300000</ele>
        <time>2010-09-29T15:35:13Z</time>
      </trkpt>
      <trkpt lat="46.0127450" lon="12.3026950">
        <ele>604.8100000</ele>
        <time>2010-09-29T15:35:19Z</time>
      </trkpt>
      <trkpt lat="46.0127060" lon="12.3026190">
        <ele>602.8800000</ele>
        <time>2010-09-29T15:35:25Z</time>
      </trkpt>
      <trkpt lat="46.0126320" lon="12.3025830">
        <ele>601.9200000</ele>
        <time>2010-09-29T15:35:32Z</time>
      </trkpt>
      <trkpt lat="46.0125690" lon="12.3025830">
        <ele>602.4000000</ele>
        <time>2010-09-29T15:35:39Z</time>
      </trkpt>
      <trkpt lat="46.0125470" lon="12.3025770">
        <ele>603.3600000</ele>
        <time>2010-09-29T15:35:44Z</time>
      </trkpt>
      <trkpt lat="46.0125270" lon="12.3025600">
        <ele>604.3300000</ele>
        <time>2010-09-29T15:35:50Z</time>
      </trkpt>
      <trkpt lat="46.0125120" lon="12.3025520">
        <ele>605.2900000</ele>
        <time>2010-09-29T15:35:52Z</time>
      </trkpt>
      <trkpt lat="46.0124910" lon="12.3025360">
        <ele>605.7700000</ele>
        <time>2010-09-29T15:35:58Z</time>
      </trkpt>
      <trkpt lat="46.0124300" lon="12.3025010">
        <ele>606.2500000</ele>
        <time>2010-09-29T15:36:04Z</time>
      </trkpt>
      <trkpt lat="46.0123710" lon="12.3024650">
        <ele>606.2500000</ele>
        <time>2010-09-29T15:36:10Z</time>
      </trkpt>
      <trkpt lat="46.0123040" lon="12.3023790">
        <ele>607.2100000</ele>
        <time>2010-09-29T15:36:17Z</time>
      </trkpt>
      <trkpt lat="46.0122740" lon="12.3022940">
        <ele>605.2900000</ele>
        <time>2010-09-29T15:36:24Z</time>
      </trkpt>
      <trkpt lat="46.0122270" lon="12.3022170">
        <ele>603.3600000</ele>
        <time>2010-09-29T15:36:32Z</time>
      </trkpt>
      <trkpt lat="46.0121810" lon="12.3021960">
        <ele>601.9200000</ele>
        <time>2010-09-29T15:36:36Z</time>
      </trkpt>
      <trkpt lat="46.0121240" lon="12.3021780">
        <ele>601.4400000</ele>
        <time>2010-09-29T15:36:41Z</time>
      </trkpt>
      <trkpt lat="46.0120810" lon="12.3021080">
        <ele>600.9600000</ele>
        <time>2010-09-29T15:36:48Z</time>
      </trkpt>
      <trkpt lat="46.0120340" lon="12.3020630">
        <ele>601.4400000</ele>
        <time>2010-09-29T15:36:56Z</time>
      </trkpt>
      <trkpt lat="46.0120230" lon="12.3020320">
        <ele>603.3600000</ele>
        <time>2010-09-29T15:37:04Z</time>
      </trkpt>
      <trkpt lat="46.0120090" lon="12.3020140">
        <ele>603.8500000</ele>
        <time>2010-09-29T15:37:08Z</time>
      </trkpt>
      <trkpt lat="46.0119710" lon="12.3019960">
        <ele>603.8500000</ele>
        <time>2010-09-29T15:37:10Z</time>
      </trkpt>
      <trkpt lat="46.0119160" lon="12.3019060">
        <ele>604.8100000</ele>
        <time>2010-09-29T15:37:17Z</time>
      </trkpt>
      <trkpt lat="46.0118710" lon="12.3017920">
        <ele>604.3300000</ele>
        <time>2010-09-29T15:37:24Z</time>
      </trkpt>
      <trkpt lat="46.0118170" lon="12.3017110">
        <ele>603.8500000</ele>
        <time>2010-09-29T15:37:30Z</time>
      </trkpt>
      <trkpt lat="46.0117780" lon="12.3016480">
        <ele>604.3300000</ele>
        <time>2010-09-29T15:37:36Z</time>
      </trkpt>
      <trkpt lat="46.0117440" lon="12.3015850">
        <ele>602.8800000</ele>
        <time>2010-09-29T15:37:42Z</time>
      </trkpt>
      <trkpt lat="46.0116780" lon="12.3014910">
        <ele>602.4000000</ele>
        <time>2010-09-29T15:37:49Z</time>
      </trkpt>
      <trkpt lat="46.0116480" lon="12.3014690">
        <ele>601.4400000</ele>
        <time>2010-09-29T15:37:54Z</time>
      </trkpt>
      <trkpt lat="46.0115820" lon="12.3014620">
        <ele>599.0400000</ele>
        <time>2010-09-29T15:38:02Z</time>
      </trkpt>
      <trkpt lat="46.0115600" lon="12.3014540">
        <ele>598.5600000</ele>
        <time>2010-09-29T15:38:05Z</time>
      </trkpt>
      <trkpt lat="46.0115120" lon="12.3014150">
        <ele>595.6700000</ele>
        <time>2010-09-29T15:38:10Z</time>
      </trkpt>
      <trkpt lat="46.0114100" lon="12.3013970">
        <ele>593.7500000</ele>
        <time>2010-09-29T15:38:17Z</time>
      </trkpt>
      <trkpt lat="46.0113310" lon="12.3014000">
        <ele>592.3100000</ele>
        <time>2010-09-29T15:38:23Z</time>
      </trkpt>
      <trkpt lat="46.0113010" lon="12.3013760">
        <ele>593.2700000</ele>
        <time>2010-09-29T15:38:30Z</time>
      </trkpt>
      <trkpt lat="46.0112750" lon="12.3013000">
        <ele>594.2300000</ele>
        <time>2010-09-29T15:38:36Z</time>
      </trkpt>
      <trkpt lat="46.0112120" lon="12.3012350">
        <ele>593.7500000</ele>
        <time>2010-09-29T15:38:42Z</time>
      </trkpt>
      <trkpt lat="46.0111570" lon="12.3011880">
        <ele>592.3100000</ele>
        <time>2010-09-29T15:38:49Z</time>
      </trkpt>
      <trkpt lat="46.0110760" lon="12.3011210">
        <ele>590.3900000</ele>
        <time>2010-09-29T15:38:56Z</time>
      </trkpt>
      <trkpt lat="46.0110150" lon="12.3010770">
        <ele>588.9500000</ele>
        <time>2010-09-29T15:39:01Z</time>
      </trkpt>
      <trkpt lat="46.0109670" lon="12.3011070">
        <ele>587.9800000</ele>
        <time>2010-09-29T15:39:05Z</time>
      </trkpt>
      <trkpt lat="46.0109070" lon="12.3010300">
        <ele>587.0200000</ele>
        <time>2010-09-29T15:39:12Z</time>
      </trkpt>
      <trkpt lat="46.0108470" lon="12.3009220">
        <ele>587.0200000</ele>
        <time>2010-09-29T15:39:18Z</time>
      </trkpt>
      <trkpt lat="46.0108350" lon="12.3008860">
        <ele>587.5000000</ele>
        <time>2010-09-29T15:39:20Z</time>
      </trkpt>
      <trkpt lat="46.0108270" lon="12.3007970">
        <ele>587.9800000</ele>
        <time>2010-09-29T15:39:25Z</time>
      </trkpt>
      <trkpt lat="46.0108020" lon="12.3007450">
        <ele>588.4600000</ele>
        <time>2010-09-29T15:39:29Z</time>
      </trkpt>
      <trkpt lat="46.0107760" lon="12.3006480">
        <ele>587.9800000</ele>
        <time>2010-09-29T15:39:33Z</time>
      </trkpt>
      <trkpt lat="46.0107000" lon="12.3005390">
        <ele>587.0200000</ele>
        <time>2010-09-29T15:39:42Z</time>
      </trkpt>
      <trkpt lat="46.0106790" lon="12.3005060">
        <ele>588.4600000</ele>
        <time>2010-09-29T15:39:45Z</time>
      </trkpt>
      <trkpt lat="46.0106330" lon="12.3004080">
        <ele>587.9800000</ele>
        <time>2010-09-29T15:39:52Z</time>
      </trkpt>
      <trkpt lat="46.0105510" lon="12.3002870">
        <ele>587.5000000</ele>
        <time>2010-09-29T15:40:00Z</time>
      </trkpt>
      <trkpt lat="46.0104790" lon="12.3001340">
        <ele>586.5400000</ele>
        <time>2010-09-29T15:40:07Z</time>
      </trkpt>
      <trkpt lat="46.0104480" lon="12.3000470">
        <ele>586.0600000</ele>
        <time>2010-09-29T15:40:14Z</time>
      </trkpt>
      <trkpt lat="46.0104030" lon="12.2999720">
        <ele>585.5800000</ele>
        <time>2010-09-29T15:40:21Z</time>
      </trkpt>
      <trkpt lat="46.0103870" lon="12.2999380">
        <ele>585.5800000</ele>
        <time>2010-09-29T15:40:23Z</time>
      </trkpt>
      <trkpt lat="46.0103670" lon="12.2998830">
        <ele>584.1400000</ele>
        <time>2010-09-29T15:40:26Z</time>
      </trkpt>
      <trkpt lat="46.0103650" lon="12.2998430">
        <ele>583.6600000</ele>
        <time>2010-09-29T15:40:29Z</time>
      </trkpt>
      <trkpt lat="46.0103620" lon="12.2997840">
        <ele>582.7000000</ele>
        <time>2010-09-29T15:40:32Z</time>
      </trkpt>
      <trkpt lat="46.0103360" lon="12.2996510">
        <ele>582.2200000</ele>
        <time>2010-09-29T15:40:38Z</time>
      </trkpt>
      <trkpt lat="46.0102920" lon="12.2995660">
        <ele>580.7700000</ele>
        <time>2010-09-29T15:40:43Z</time>
      </trkpt>
      <trkpt lat="46.0102950" lon="12.2995330">
        <ele>579.8100000</ele>
        <time>2010-09-29T15:40:49Z</time>
      </trkpt>
      <trkpt lat="46.0102690" lon="12.2994380">
        <ele>576.9300000</ele>
        <time>2010-09-29T15:40:57Z</time>
      </trkpt>
      <trkpt lat="46.0102610" lon="12.2994250">
        <ele>576.4500000</ele>
        <time>2010-09-29T15:40:58Z</time>
      </trkpt>
      <trkpt lat="46.0101830" lon="12.2992750">
        <ele>575.0100000</ele>
        <time>2010-09-29T15:41:07Z</time>
      </trkpt>
      <trkpt lat="46.0101660" lon="12.2992210">
        <ele>575.0100000</ele>
        <time>2010-09-29T15:41:10Z</time>
      </trkpt>
      <trkpt lat="46.0101140" lon="12.2991130">
        <ele>574.5300000</ele>
        <time>2010-09-29T15:41:17Z</time>
      </trkpt>
      <trkpt lat="46.0101010" lon="12.2990550">
        <ele>574.5300000</ele>
        <time>2010-09-29T15:41:24Z</time>
      </trkpt>
      <trkpt lat="46.0100370" lon="12.2989400">
        <ele>575.9700000</ele>
        <time>2010-09-29T15:41:31Z</time>
      </trkpt>
      <trkpt lat="46.0100160" lon="12.2988720">
        <ele>575.4900000</ele>
        <time>2010-09-29T15:41:35Z</time>
      </trkpt>
      <trkpt lat="46.0099770" lon="12.2988180">
        <ele>576.9300000</ele>
        <time>2010-09-29T15:41:39Z</time>
      </trkpt>
      <trkpt lat="46.0099170" lon="12.2987540">
        <ele>578.3700000</ele>
        <time>2010-09-29T15:41:50Z</time>
      </trkpt>
      <trkpt lat="46.0098230" lon="12.2986630">
        <ele>579.8100000</ele>
        <time>2010-09-29T15:41:59Z</time>
      </trkpt>
      <trkpt lat="46.0098100" lon="12.2986560">
        <ele>579.8100000</ele>
        <time>2010-09-29T15:42:00Z</time>
      </trkpt>
      <trkpt lat="46.0097270" lon="12.2985660">
        <ele>577.4100000</ele>
        <time>2010-09-29T15:42:08Z</time>
      </trkpt>
      <trkpt lat="46.0097160" lon="12.2985550">
        <ele>576.9300000</ele>
        <time>2010-09-29T15:42:09Z</time>
      </trkpt>
      <trkpt lat="46.0097020" lon="12.2985150">
        <ele>576.9300000</ele>
        <time>2010-09-29T15:42:11Z</time>
      </trkpt>
      <trkpt lat="46.0096990" lon="12.2984720">
        <ele>575.0100000</ele>
        <time>2010-09-29T15:42:14Z</time>
      </trkpt>
      <trkpt lat="46.0096610" lon="12.2983710">
        <ele>573.5600000</ele>
        <time>2010-09-29T15:42:21Z</time>
      </trkpt>
      <trkpt lat="46.0096200" lon="12.2983360">
        <ele>573.0800000</ele>
        <time>2010-09-29T15:42:27Z</time>
      </trkpt>
      <trkpt lat="46.0095080" lon="12.2982090">
        <ele>570.2000000</ele>
        <time>2010-09-29T15:42:35Z</time>
      </trkpt>
      <trkpt lat="46.0094940" lon="12.2981940">
        <ele>569.7200000</ele>
        <time>2010-09-29T15:42:36Z</time>
      </trkpt>
      <trkpt lat="46.0094580" lon="12.2981160">
        <ele>567.8000000</ele>
        <time>2010-09-29T15:42:41Z</time>
      </trkpt>
      <trkpt lat="46.0093780" lon="12.2979920">
        <ele>565.3900000</ele>
        <time>2010-09-29T15:42:50Z</time>
      </trkpt>
      <trkpt lat="46.0093200" lon="12.2978820">
        <ele>563.9500000</ele>
        <time>2010-09-29T15:42:58Z</time>
      </trkpt>
      <trkpt lat="46.0093180" lon="12.2978670">
        <ele>562.9900000</ele>
        <time>2010-09-29T15:43:03Z</time>
      </trkpt>
      <trkpt lat="46.0092460" lon="12.2977450">
        <ele>561.0700000</ele>
        <time>2010-09-29T15:43:10Z</time>
      </trkpt>
      <trkpt lat="46.0091450" lon="12.2976890">
        <ele>560.1100000</ele>
        <time>2010-09-29T15:43:18Z</time>
      </trkpt>
      <trkpt lat="46.0091310" lon="12.2976770">
        <ele>559.6200000</ele>
        <time>2010-09-29T15:43:19Z</time>
      </trkpt>
      <trkpt lat="46.0090740" lon="12.2976520">
        <ele>559.1400000</ele>
        <time>2010-09-29T15:43:22Z</time>
      </trkpt>
      <trkpt lat="46.0089500" lon="12.2976750">
        <ele>558.6600000</ele>
        <time>2010-09-29T15:43:30Z</time>
      </trkpt>
      <trkpt lat="46.0089380" lon="12.2976670">
        <ele>558.1800000</ele>
        <time>2010-09-29T15:43:31Z</time>
      </trkpt>
      <trkpt lat="46.0088920" lon="12.2976230">
        <ele>557.2200000</ele>
        <time>2010-09-29T15:43:36Z</time>
      </trkpt>
      <trkpt lat="46.0088870" lon="12.2975950">
        <ele>557.2200000</ele>
        <time>2010-09-29T15:43:38Z</time>
      </trkpt>
      <trkpt lat="46.0088430" lon="12.2975230">
        <ele>555.7800000</ele>
        <time>2010-09-29T15:43:46Z</time>
      </trkpt>
      <trkpt lat="46.0088040" lon="12.2974810">
        <ele>554.3400000</ele>
        <time>2010-09-29T15:43:52Z</time>
      </trkpt>
      <trkpt lat="46.0087990" lon="12.2974670">
        <ele>554.3400000</ele>
        <time>2010-09-29T15:43:53Z</time>
      </trkpt>
      <trkpt lat="46.0087440" lon="12.2973920">
        <ele>552.4100000</ele>
        <time>2010-09-29T15:43:58Z</time>
      </trkpt>
      <trkpt lat="46.0086750" lon="12.2972920">
        <ele>551.4500000</ele>
        <time>2010-09-29T15:44:04Z</time>
      </trkpt>
      <trkpt lat="46.0085980" lon="12.2972060">
        <ele>550.0100000</ele>
        <time>2010-09-29T15:44:10Z</time>
      </trkpt>
      <trkpt lat="46.0085570" lon="12.2971590">
        <ele>550.0100000</ele>
        <time>2010-09-29T15:44:15Z</time>
      </trkpt>
      <trkpt lat="46.0084820" lon="12.2970610">
        <ele>550.0100000</ele>
        <time>2010-09-29T15:44:23Z</time>
      </trkpt>
      <trkpt lat="46.0084160" lon="12.2970050">
        <ele>550.4900000</ele>
        <time>2010-09-29T15:44:30Z</time>
      </trkpt>
      <trkpt lat="46.0083850" lon="12.2969150">
        <ele>550.4900000</ele>
        <time>2010-09-29T15:44:36Z</time>
      </trkpt>
      <trkpt lat="46.0083420" lon="12.2968160">
        <ele>550.9700000</ele>
        <time>2010-09-29T15:44:43Z</time>
      </trkpt>
      <trkpt lat="46.0082850" lon="12.2966750">
        <ele>550.9700000</ele>
        <time>2010-09-29T15:44:51Z</time>
      </trkpt>
      <trkpt lat="46.0082600" lon="12.2966380">
        <ele>550.9700000</ele>
        <time>2010-09-29T15:44:56Z</time>
      </trkpt>
      <trkpt lat="46.0082270" lon="12.2965760">
        <ele>551.4500000</ele>
        <time>2010-09-29T15:45:00Z</time>
      </trkpt>
      <trkpt lat="46.0082000" lon="12.2965420">
        <ele>550.9700000</ele>
        <time>2010-09-29T15:45:03Z</time>
      </trkpt>
      <trkpt lat="46.0081590" lon="12.2964260">
        <ele>551.4500000</ele>
        <time>2010-09-29T15:45:09Z</time>
      </trkpt>
      <trkpt lat="46.0080810" lon="12.2963610">
        <ele>550.4900000</ele>
        <time>2010-09-29T15:45:16Z</time>
      </trkpt>
      <trkpt lat="46.0080570" lon="12.2963260">
        <ele>550.9700000</ele>
        <time>2010-09-29T15:45:19Z</time>
      </trkpt>
      <trkpt lat="46.0079870" lon="12.2962210">
        <ele>549.5300000</ele>
        <time>2010-09-29T15:45:27Z</time>
      </trkpt>
      <trkpt lat="46.0079710" lon="12.2961950">
        <ele>548.5700000</ele>
        <time>2010-09-29T15:45:29Z</time>
      </trkpt>
      <trkpt lat="46.0079480" lon="12.2961520">
        <ele>548.0900000</ele>
        <time>2010-09-29T15:45:33Z</time>
      </trkpt>
      <trkpt lat="46.0079020" lon="12.2961500">
        <ele>547.1300000</ele>
        <time>2010-09-29T15:45:35Z</time>
      </trkpt>
      <trkpt lat="46.0078160" lon="12.2961130">
        <ele>545.2000000</ele>
        <time>2010-09-29T15:45:41Z</time>
      </trkpt>
      <trkpt lat="46.0077890" lon="12.2960890">
        <ele>544.2400000</ele>
        <time>2010-09-29T15:45:44Z</time>
      </trkpt>
      <trkpt lat="46.0077810" lon="12.2960850">
        <ele>543.7600000</ele>
        <time>2010-09-29T15:45:45Z</time>
      </trkpt>
      <trkpt lat="46.0077060" lon="12.2960650">
        <ele>541.8400000</ele>
        <time>2010-09-29T15:45:53Z</time>
      </trkpt>
      <trkpt lat="46.0076420" lon="12.2960240">
        <ele>540.4000000</ele>
        <time>2010-09-29T15:46:00Z</time>
      </trkpt>
      <trkpt lat="46.0075920" lon="12.2959450">
        <ele>539.4400000</ele>
        <time>2010-09-29T15:46:06Z</time>
      </trkpt>
      <trkpt lat="46.0074980" lon="12.2959190">
        <ele>537.5100000</ele>
        <time>2010-09-29T15:46:12Z</time>
      </trkpt>
      <trkpt lat="46.0074820" lon="12.2959160">
        <ele>537.5100000</ele>
        <time>2010-09-29T15:46:13Z</time>
      </trkpt>
      <trkpt lat="46.0074180" lon="12.2958670">
        <ele>536.5500000</ele>
        <time>2010-09-29T15:46:20Z</time>
      </trkpt>
      <trkpt lat="46.0073500" lon="12.2958040">
        <ele>535.5900000</ele>
        <time>2010-09-29T15:46:26Z</time>
      </trkpt>
      <trkpt lat="46.0073340" lon="12.2957850">
        <ele>535.5900000</ele>
        <time>2010-09-29T15:46:28Z</time>
      </trkpt>
      <trkpt lat="46.0072530" lon="12.2957340">
        <ele>535.5900000</ele>
        <time>2010-09-29T15:46:36Z</time>
      </trkpt>
      <trkpt lat="46.0072410" lon="12.2957220">
        <ele>535.5900000</ele>
        <time>2010-09-29T15:46:37Z</time>
      </trkpt>
      <trkpt lat="46.0070940" lon="12.2956350">
        <ele>536.5500000</ele>
        <time>2010-09-29T15:46:47Z</time>
      </trkpt>
      <trkpt lat="46.0070730" lon="12.2956090">
        <ele>536.0700000</ele>
        <time>2010-09-29T15:46:50Z</time>
      </trkpt>
      <trkpt lat="46.0070330" lon="12.2955710">
        <ele>537.5100000</ele>
        <time>2010-09-29T15:46:57Z</time>
      </trkpt>
      <trkpt lat="46.0069890" lon="12.2955530">
        <ele>538.9600000</ele>
        <time>2010-09-29T15:47:03Z</time>
      </trkpt>
      <trkpt lat="46.0069340" lon="12.2954980">
        <ele>538.4800000</ele>
        <time>2010-09-29T15:47:09Z</time>
      </trkpt>
      <trkpt lat="46.0069110" lon="12.2954810">
        <ele>538.4800000</ele>
        <time>2010-09-29T15:47:12Z</time>
      </trkpt>
      <trkpt lat="46.0068300" lon="12.2954080">
        <ele>537.0300000</ele>
        <time>2010-09-29T15:47:19Z</time>
      </trkpt>
      <trkpt lat="46.0068000" lon="12.2953430">
        <ele>536.0700000</ele>
        <time>2010-09-29T15:47:26Z</time>
      </trkpt>
      <trkpt lat="46.0067720" lon="12.2953120">
        <ele>532.2300000</ele>
        <time>2010-09-29T15:47:34Z</time>
      </trkpt>
      <trkpt lat="46.0067550" lon="12.2952780">
        <ele>531.2700000</ele>
        <time>2010-09-29T15:47:37Z</time>
      </trkpt>
      <trkpt lat="46.0067170" lon="12.2952350">
        <ele>529.8200000</ele>
        <time>2010-09-29T15:47:41Z</time>
      </trkpt>
      <trkpt lat="46.0067020" lon="12.2952100">
        <ele>527.9000000</ele>
        <time>2010-09-29T15:47:44Z</time>
      </trkpt>
      <trkpt lat="46.0066840" lon="12.2951410">
        <ele>525.0200000</ele>
        <time>2010-09-29T15:47:50Z</time>
      </trkpt>
      <trkpt lat="46.0066580" lon="12.2950920">
        <ele>523.0900000</ele>
        <time>2010-09-29T15:47:54Z</time>
      </trkpt>
      <trkpt lat="46.0066310" lon="12.2950180">
        <ele>519.7300000</ele>
        <time>2010-09-29T15:47:59Z</time>
      </trkpt>
      <trkpt lat="46.0065890" lon="12.2949560">
        <ele>519.2500000</ele>
        <time>2010-09-29T15:48:07Z</time>
      </trkpt>
      <trkpt lat="46.0065150" lon="12.2948500">
        <ele>516.3700000</ele>
        <time>2010-09-29T15:48:17Z</time>
      </trkpt>
      <trkpt lat="46.0064700" lon="12.2947770">
        <ele>514.9200000</ele>
        <time>2010-09-29T15:48:22Z</time>
      </trkpt>
      <trkpt lat="46.0064000" lon="12.2946640">
        <ele>512.5200000</ele>
        <time>2010-09-29T15:48:30Z</time>
      </trkpt>
      <trkpt lat="46.0063370" lon="12.2945370">
        <ele>511.0800000</ele>
        <time>2010-09-29T15:48:41Z</time>
      </trkpt>
      <trkpt lat="46.0063070" lon="12.2944970">
        <ele>510.6000000</ele>
        <time>2010-09-29T15:48:43Z</time>
      </trkpt>
      <trkpt lat="46.0062520" lon="12.2943910">
        <ele>508.1900000</ele>
        <time>2010-09-29T15:48:50Z</time>
      </trkpt>
      <trkpt lat="46.0062380" lon="12.2943390">
        <ele>507.7100000</ele>
        <time>2010-09-29T15:48:53Z</time>
      </trkpt>
      <trkpt lat="46.0061400" lon="12.2942470">
        <ele>505.3100000</ele>
        <time>2010-09-29T15:49:01Z</time>
      </trkpt>
      <trkpt lat="46.0060620" lon="12.2941760">
        <ele>505.3100000</ele>
        <time>2010-09-29T15:49:08Z</time>
      </trkpt>
      <trkpt lat="46.0060130" lon="12.2941240">
        <ele>502.4300000</ele>
        <time>2010-09-29T15:49:15Z</time>
      </trkpt>
      <trkpt lat="46.0059940" lon="12.2941080">
        <ele>502.4300000</ele>
        <time>2010-09-29T15:49:16Z</time>
      </trkpt>
      <trkpt lat="46.0059210" lon="12.2940420">
        <ele>501.4600000</ele>
        <time>2010-09-29T15:49:22Z</time>
      </trkpt>
      <trkpt lat="46.0057990" lon="12.2939650">
        <ele>499.5400000</ele>
        <time>2010-09-29T15:49:31Z</time>
      </trkpt>
      <trkpt lat="46.0057660" lon="12.2939320">
        <ele>498.5800000</ele>
        <time>2010-09-29T15:49:36Z</time>
      </trkpt>
      <trkpt lat="46.0057370" lon="12.2938990">
        <ele>497.1400000</ele>
        <time>2010-09-29T15:49:39Z</time>
      </trkpt>
      <trkpt lat="46.0057180" lon="12.2939030">
        <ele>494.7400000</ele>
        <time>2010-09-29T15:49:44Z</time>
      </trkpt>
      <trkpt lat="46.0056960" lon="12.2938820">
        <ele>494.2600000</ele>
        <time>2010-09-29T15:49:47Z</time>
      </trkpt>
      <trkpt lat="46.0056530" lon="12.2938530">
        <ele>492.8100000</ele>
        <time>2010-09-29T15:49:50Z</time>
      </trkpt>
      <trkpt lat="46.0056470" lon="12.2938470">
        <ele>492.3300000</ele>
        <time>2010-09-29T15:49:51Z</time>
      </trkpt>
      <trkpt lat="46.0056050" lon="12.2937580">
        <ele>490.4100000</ele>
        <time>2010-09-29T15:49:59Z</time>
      </trkpt>
      <trkpt lat="46.0056010" lon="12.2937580">
        <ele>488.4900000</ele>
        <time>2010-09-29T15:50:03Z</time>
      </trkpt>
      <trkpt lat="46.0055610" lon="12.2937230">
        <ele>486.0800000</ele>
        <time>2010-09-29T15:50:09Z</time>
      </trkpt>
      <trkpt lat="46.0055200" lon="12.2936900">
        <ele>484.6400000</ele>
        <time>2010-09-29T15:50:13Z</time>
      </trkpt>
      <trkpt lat="46.0054540" lon="12.2936810">
        <ele>483.6800000</ele>
        <time>2010-09-29T15:50:21Z</time>
      </trkpt>
      <trkpt lat="46.0054290" lon="12.2936580">
        <ele>482.7200000</ele>
        <time>2010-09-29T15:50:24Z</time>
      </trkpt>
      <trkpt lat="46.0053330" lon="12.2936430">
        <ele>480.3200000</ele>
        <time>2010-09-29T15:50:32Z</time>
      </trkpt>
      <trkpt lat="46.0053150" lon="12.2936370">
        <ele>479.3500000</ele>
        <time>2010-09-29T15:50:34Z</time>
      </trkpt>
      <trkpt lat="46.0053000" lon="12.2936280">
        <ele>479.8400000</ele>
        <time>2010-09-29T15:50:35Z</time>
      </trkpt>
      <trkpt lat="46.0052130" lon="12.2936330">
        <ele>479.8400000</ele>
        <time>2010-09-29T15:50:42Z</time>
      </trkpt>
      <trkpt lat="46.0052030" lon="12.2936510">
        <ele>479.8400000</ele>
        <time>2010-09-29T15:50:44Z</time>
      </trkpt>
      <trkpt lat="46.0051750" lon="12.2936580">
        <ele>478.3900000</ele>
        <time>2010-09-29T15:50:50Z</time>
      </trkpt>
      <trkpt lat="46.0051210" lon="12.2936450">
        <ele>477.4300000</ele>
        <time>2010-09-29T15:50:58Z</time>
      </trkpt>
      <trkpt lat="46.0050550" lon="12.2936070">
        <ele>474.5500000</ele>
        <time>2010-09-29T15:51:06Z</time>
      </trkpt>
      <trkpt lat="46.0050030" lon="12.2935880">
        <ele>474.0700000</ele>
        <time>2010-09-29T15:51:09Z</time>
      </trkpt>
      <trkpt lat="46.0049320" lon="12.2935230">
        <ele>473.5900000</ele>
        <time>2010-09-29T15:51:16Z</time>
      </trkpt>
      <trkpt lat="46.0049100" lon="12.2935020">
        <ele>472.1400000</ele>
        <time>2010-09-29T15:51:21Z</time>
      </trkpt>
      <trkpt lat="46.0048770" lon="12.2934710">
        <ele>471.1800000</ele>
        <time>2010-09-29T15:51:28Z</time>
      </trkpt>
      <trkpt lat="46.0048480" lon="12.2934060">
        <ele>471.1800000</ele>
        <time>2010-09-29T15:51:48Z</time>
      </trkpt>
      <trkpt lat="46.0048210" lon="12.2933670">
        <ele>471.1800000</ele>
        <time>2010-09-29T15:51:55Z</time>
      </trkpt>
      <trkpt lat="46.0048060" lon="12.2933510">
        <ele>472.1400000</ele>
        <time>2010-09-29T15:52:02Z</time>
      </trkpt>
      <trkpt lat="46.0047620" lon="12.2932880">
        <ele>471.1800000</ele>
        <time>2010-09-29T15:52:08Z</time>
      </trkpt>
      <trkpt lat="46.0047330" lon="12.2932670">
        <ele>471.6600000</ele>
        <time>2010-09-29T15:52:18Z</time>
      </trkpt>
      <trkpt lat="46.0046800" lon="12.2932770">
        <ele>469.7400000</ele>
        <time>2010-09-29T15:52:27Z</time>
      </trkpt>
      <trkpt lat="46.0046480" lon="12.2932990">
        <ele>468.3000000</ele>
        <time>2010-09-29T15:52:31Z</time>
      </trkpt>
      <trkpt lat="46.0045600" lon="12.2932300">
        <ele>468.3000000</ele>
        <time>2010-09-29T15:52:38Z</time>
      </trkpt>
      <trkpt lat="46.0045450" lon="12.2932090">
        <ele>468.3000000</ele>
        <time>2010-09-29T15:52:40Z</time>
      </trkpt>
      <trkpt lat="46.0045400" lon="12.2931480">
        <ele>468.3000000</ele>
        <time>2010-09-29T15:52:46Z</time>
      </trkpt>
      <trkpt lat="46.0045400" lon="12.2931480">
        <ele>467.8200000</ele>
        <time>2010-09-29T15:52:47Z</time>
      </trkpt>
      <trkpt lat="46.0044700" lon="12.2931270">
        <ele>464.9300000</ele>
        <time>2010-09-29T15:52:54Z</time>
      </trkpt>
      <trkpt lat="46.0044000" lon="12.2931240">
        <ele>463.0100000</ele>
        <time>2010-09-29T15:53:01Z</time>
      </trkpt>
      <trkpt lat="46.0043710" lon="12.2930750">
        <ele>460.6100000</ele>
        <time>2010-09-29T15:53:08Z</time>
      </trkpt>
      <trkpt lat="46.0043630" lon="12.2930630">
        <ele>459.6500000</ele>
        <time>2010-09-29T15:53:10Z</time>
      </trkpt>
      <trkpt lat="46.0043260" lon="12.2930640">
        <ele>457.7200000</ele>
        <time>2010-09-29T15:53:17Z</time>
      </trkpt>
      <trkpt lat="46.0043190" lon="12.2930820">
        <ele>456.2800000</ele>
        <time>2010-09-29T15:53:20Z</time>
      </trkpt>
      <trkpt lat="46.0042830" lon="12.2930390">
        <ele>453.8800000</ele>
        <time>2010-09-29T15:53:28Z</time>
      </trkpt>
      <trkpt lat="46.0042510" lon="12.2930160">
        <ele>451.4800000</ele>
        <time>2010-09-29T15:53:34Z</time>
      </trkpt>
      <trkpt lat="46.0042270" lon="12.2929690">
        <ele>450.0300000</ele>
        <time>2010-09-29T15:53:39Z</time>
      </trkpt>
      <trkpt lat="46.0042070" lon="12.2929620">
        <ele>449.0700000</ele>
        <time>2010-09-29T15:53:41Z</time>
      </trkpt>
      <trkpt lat="46.0041690" lon="12.2929720">
        <ele>449.0700000</ele>
        <time>2010-09-29T15:53:47Z</time>
      </trkpt>
      <trkpt lat="46.0041630" lon="12.2929650">
        <ele>448.5900000</ele>
        <time>2010-09-29T15:54:51Z</time>
      </trkpt>
      <trkpt lat="46.0041640" lon="12.2929720">
        <ele>448.1100000</ele>
        <time>2010-09-29T15:55:14Z</time>
      </trkpt>
      <trkpt lat="46.0041500" lon="12.2929590">
        <ele>446.1900000</ele>
        <time>2010-09-29T15:55:23Z</time>
      </trkpt>
      <trkpt lat="46.0041470" lon="12.2929490">
        <ele>445.2300000</ele>
        <time>2010-09-29T15:55:25Z</time>
      </trkpt>
      <trkpt lat="46.0041270" lon="12.2929150">
        <ele>443.3100000</ele>
        <time>2010-09-29T15:55:31Z</time>
      </trkpt>
      <trkpt lat="46.0041220" lon="12.2929010">
        <ele>442.3400000</ele>
        <time>2010-09-29T15:55:35Z</time>
      </trkpt>
      <trkpt lat="46.0040920" lon="12.2928580">
        <ele>440.4200000</ele>
        <time>2010-09-29T15:55:42Z</time>
      </trkpt>
      <trkpt lat="46.0040650" lon="12.2928180">
        <ele>437.0600000</ele>
        <time>2010-09-29T15:55:57Z</time>
      </trkpt>
      <trkpt lat="46.0040380" lon="12.2927940">
        <ele>434.6500000</ele>
        <time>2010-09-29T15:56:06Z</time>
      </trkpt>
      <trkpt lat="46.0040070" lon="12.2927700">
        <ele>431.7700000</ele>
        <time>2010-09-29T15:56:17Z</time>
      </trkpt>
      <trkpt lat="46.0040080" lon="12.2927600">
        <ele>430.8100000</ele>
        <time>2010-09-29T15:56:32Z</time>
      </trkpt>
      <trkpt lat="46.0040010" lon="12.2927080">
        <ele>429.3700000</ele>
        <time>2010-09-29T15:56:36Z</time>
      </trkpt>
      <trkpt lat="46.0039670" lon="12.2926580">
        <ele>427.4400000</ele>
        <time>2010-09-29T15:56:42Z</time>
      </trkpt>
      <trkpt lat="46.0039440" lon="12.2926070">
        <ele>426.0000000</ele>
        <time>2010-09-29T15:56:52Z</time>
      </trkpt>
      <trkpt lat="46.0039330" lon="12.2925890">
        <ele>424.5600000</ele>
        <time>2010-09-29T15:56:56Z</time>
      </trkpt>
      <trkpt lat="46.0039070" lon="12.2925380">
        <ele>423.6000000</ele>
        <time>2010-09-29T15:57:01Z</time>
      </trkpt>
      <trkpt lat="46.0038710" lon="12.2925170">
        <ele>421.6800000</ele>
        <time>2010-09-29T15:57:07Z</time>
      </trkpt>
      <trkpt lat="46.0038610" lon="12.2924880">
        <ele>420.7100000</ele>
        <time>2010-09-29T15:57:12Z</time>
      </trkpt>
      <trkpt lat="46.0038530" lon="12.2924880">
        <ele>420.2300000</ele>
        <time>2010-09-29T15:57:20Z</time>
      </trkpt>
      <trkpt lat="46.0038350" lon="12.2924970">
        <ele>419.2700000</ele>
        <time>2010-09-29T15:57:24Z</time>
      </trkpt>
      <trkpt lat="46.0038140" lon="12.2925060">
        <ele>418.3100000</ele>
        <time>2010-09-29T15:57:31Z</time>
      </trkpt>
      <trkpt lat="46.0037890" lon="12.2925130">
        <ele>416.3900000</ele>
        <time>2010-09-29T15:57:41Z</time>
      </trkpt>
      <trkpt lat="46.0037750" lon="12.2925190">
        <ele>414.9500000</ele>
        <time>2010-09-29T15:57:47Z</time>
      </trkpt>
      <trkpt lat="46.0037540" lon="12.2925140">
        <ele>413.5000000</ele>
        <time>2010-09-29T15:57:53Z</time>
      </trkpt>
      <trkpt lat="46.0037310" lon="12.2925100">
        <ele>412.0600000</ele>
        <time>2010-09-29T15:57:59Z</time>
      </trkpt>
      <trkpt lat="46.0037150" lon="12.2925150">
        <ele>410.6200000</ele>
        <time>2010-09-29T15:58:04Z</time>
      </trkpt>
      <trkpt lat="46.0037080" lon="12.2925100">
        <ele>410.1400000</ele>
        <time>2010-09-29T15:58:05Z</time>
      </trkpt>
      <trkpt lat="46.0036800" lon="12.2925090">
        <ele>408.7000000</ele>
        <time>2010-09-29T15:58:11Z</time>
      </trkpt>
      <trkpt lat="46.0036800" lon="12.2925090">
        <ele>408.2200000</ele>
        <time>2010-09-29T15:58:12Z</time>
      </trkpt>
      <trkpt lat="46.0036090" lon="12.2925530">
        <ele>405.8100000</ele>
        <time>2010-09-29T15:58:19Z</time>
      </trkpt>
      <trkpt lat="46.0035920" lon="12.2925460">
        <ele>404.3700000</ele>
        <time>2010-09-29T15:58:25Z</time>
      </trkpt>
      <trkpt lat="46.0035920" lon="12.2925460">
        <ele>403.4100000</ele>
        <time>2010-09-29T15:58:27Z</time>
      </trkpt>
      <trkpt lat="46.0035840" lon="12.2924930">
        <ele>401.4900000</ele>
        <time>2010-09-29T15:58:33Z</time>
      </trkpt>
      <trkpt lat="46.0035560" lon="12.2924700">
        <ele>400.0500000</ele>
        <time>2010-09-29T15:58:40Z</time>
      </trkpt>
      <trkpt lat="46.0035520" lon="12.2924620">
        <ele>399.5700000</ele>
        <time>2010-09-29T15:58:41Z</time>
      </trkpt>
      <trkpt lat="46.0035590" lon="12.2924100">
        <ele>398.6000000</ele>
        <time>2010-09-29T15:58:45Z</time>
      </trkpt>
      <trkpt lat="46.0035410" lon="12.2923590">
        <ele>397.1600000</ele>
        <time>2010-09-29T15:58:51Z</time>
      </trkpt>
      <trkpt lat="46.0035320" lon="12.2923520">
        <ele>396.2000000</ele>
        <time>2010-09-29T15:58:53Z</time>
      </trkpt>
      <trkpt lat="46.0035150" lon="12.2923040">
        <ele>395.2400000</ele>
        <time>2010-09-29T15:58:57Z</time>
      </trkpt>
      <trkpt lat="46.0035350" lon="12.2922620">
        <ele>394.2800000</ele>
        <time>2010-09-29T15:59:01Z</time>
      </trkpt>
      <trkpt lat="46.0035490" lon="12.2921800">
        <ele>392.3600000</ele>
        <time>2010-09-29T15:59:09Z</time>
      </trkpt>
      <trkpt lat="46.0035690" lon="12.2921400">
        <ele>390.9100000</ele>
        <time>2010-09-29T15:59:14Z</time>
      </trkpt>
      <trkpt lat="46.0035640" lon="12.2921190">
        <ele>389.9500000</ele>
        <time>2010-09-29T15:59:20Z</time>
      </trkpt>
      <trkpt lat="46.0035480" lon="12.2921120">
        <ele>388.9900000</ele>
        <time>2010-09-29T15:59:25Z</time>
      </trkpt>
      <trkpt lat="46.0035620" lon="12.2920810">
        <ele>388.5100000</ele>
        <time>2010-09-29T15:59:29Z</time>
      </trkpt>
      <trkpt lat="46.0035580" lon="12.2920560">
        <ele>387.0700000</ele>
        <time>2010-09-29T15:59:35Z</time>
      </trkpt>
      <trkpt lat="46.0035620" lon="12.2919960">
        <ele>385.1500000</ele>
        <time>2010-09-29T15:59:40Z</time>
      </trkpt>
      <trkpt lat="46.0035590" lon="12.2919880">
        <ele>384.6600000</ele>
        <time>2010-09-29T15:59:41Z</time>
      </trkpt>
      <trkpt lat="46.0035100" lon="12.2919440">
        <ele>383.2200000</ele>
        <time>2010-09-29T15:59:48Z</time>
      </trkpt>
      <trkpt lat="46.0034920" lon="12.2919450">
        <ele>382.7400000</ele>
        <time>2010-09-29T15:59:55Z</time>
      </trkpt>
      <trkpt lat="46.0034640" lon="12.2919320">
        <ele>383.7000000</ele>
        <time>2010-09-29T16:00:00Z</time>
      </trkpt>
      <trkpt lat="46.0034450" lon="12.2919210">
        <ele>382.7400000</ele>
        <time>2010-09-29T16:00:08Z</time>
      </trkpt>
      <trkpt lat="46.0034480" lon="12.2919290">
        <ele>378.9000000</ele>
        <time>2010-09-29T16:01:59Z</time>
      </trkpt>
      <trkpt lat="46.0034490" lon="12.2919290">
        <ele>381.7800000</ele>
        <time>2010-09-29T16:02:08Z</time>
      </trkpt>
      <trkpt lat="46.0034490" lon="12.2919290">
        <ele>381.3000000</ele>
        <time>2010-09-29T16:02:09Z</time>
      </trkpt>
      <trkpt lat="46.0034490" lon="12.2919290">
        <ele>381.3000000</ele>
        <time>2010-09-29T16:02:29Z</time>
      </trkpt>
      <trkpt lat="46.0034420" lon="12.2919620">
        <ele>380.8200000</ele>
        <time>2010-09-29T16:03:04Z</time>
      </trkpt>
      <trkpt lat="46.0034390" lon="12.2919690">
        <ele>380.8200000</ele>
        <time>2010-09-29T16:03:10Z</time>
      </trkpt>
      <trkpt lat="46.0034430" lon="12.2919560">
        <ele>380.3400000</ele>
        <time>2010-09-29T16:03:29Z</time>
      </trkpt>
      <trkpt lat="46.0034410" lon="12.2919530">
        <ele>379.8600000</ele>
        <time>2010-09-29T16:03:54Z</time>
      </trkpt>
      <trkpt lat="46.0034230" lon="12.2919370">
        <ele>379.8600000</ele>
        <time>2010-09-29T16:04:03Z</time>
      </trkpt>
      <trkpt lat="46.0034200" lon="12.2919370">
        <ele>379.8600000</ele>
        <time>2010-09-29T16:04:12Z</time>
      </trkpt>
      <trkpt lat="46.0034320" lon="12.2919310">
        <ele>376.4900000</ele>
        <time>2010-09-29T16:05:48Z</time>
      </trkpt>
      <trkpt lat="46.0033950" lon="12.2919220">
        <ele>377.4500000</ele>
        <time>2010-09-29T16:06:41Z</time>
      </trkpt>
      <trkpt lat="46.0033470" lon="12.2919300">
        <ele>376.9700000</ele>
        <time>2010-09-29T16:06:46Z</time>
      </trkpt>
      <trkpt lat="46.0033430" lon="12.2919320">
        <ele>377.9400000</ele>
        <time>2010-09-29T16:06:47Z</time>
      </trkpt>
      <trkpt lat="46.0033010" lon="12.2920020">
        <ele>377.4500000</ele>
        <time>2010-09-29T16:06:54Z</time>
      </trkpt>
      <trkpt lat="46.0032850" lon="12.2920200">
        <ele>376.9700000</ele>
        <time>2010-09-29T16:07:03Z</time>
      </trkpt>
      <trkpt lat="46.0032740" lon="12.2920370">
        <ele>376.9700000</ele>
        <time>2010-09-29T16:07:07Z</time>
      </trkpt>
      <trkpt lat="46.0032360" lon="12.2920880">
        <ele>376.9700000</ele>
        <time>2010-09-29T16:07:13Z</time>
      </trkpt>
      <trkpt lat="46.0032310" lon="12.2920980">
        <ele>376.9700000</ele>
        <time>2010-09-29T16:07:15Z</time>
      </trkpt>
      <trkpt lat="46.0032210" lon="12.2921620">
        <ele>376.9700000</ele>
        <time>2010-09-29T16:07:21Z</time>
      </trkpt>
      <trkpt lat="46.0032260" lon="12.2921590">
        <ele>376.9700000</ele>
        <time>2010-09-29T16:07:45Z</time>
      </trkpt>
      <trkpt lat="46.0032110" lon="12.2921870">
        <ele>376.4900000</ele>
        <time>2010-09-29T16:08:12Z</time>
      </trkpt>
      <trkpt lat="46.0032080" lon="12.2922050">
        <ele>376.4900000</ele>
        <time>2010-09-29T16:08:30Z</time>
      </trkpt>
      <trkpt lat="46.0031790" lon="12.2922520">
        <ele>376.4900000</ele>
        <time>2010-09-29T16:08:37Z</time>
      </trkpt>
      <trkpt lat="46.0031550" lon="12.2922630">
        <ele>376.0100000</ele>
        <time>2010-09-29T16:08:42Z</time>
      </trkpt>
      <trkpt lat="46.0031390" lon="12.2922660">
        <ele>375.5300000</ele>
        <time>2010-09-29T16:08:50Z</time>
      </trkpt>
      <trkpt lat="46.0031350" lon="12.2922540">
        <ele>375.0500000</ele>
        <time>2010-09-29T16:09:12Z</time>
      </trkpt>
      <trkpt lat="46.0031240" lon="12.2922230">
        <ele>372.6500000</ele>
        <time>2010-09-29T16:09:25Z</time>
      </trkpt>
      <trkpt lat="46.0030920" lon="12.2922210">
        <ele>371.2100000</ele>
        <time>2010-09-29T16:09:32Z</time>
      </trkpt>
      <trkpt lat="46.0030770" lon="12.2922010">
        <ele>370.7300000</ele>
        <time>2010-09-29T16:09:37Z</time>
      </trkpt>
      <trkpt lat="46.0030710" lon="12.2921960">
        <ele>369.7600000</ele>
        <time>2010-09-29T16:09:38Z</time>
      </trkpt>
      <trkpt lat="46.0030580" lon="12.2921900">
        <ele>368.8000000</ele>
        <time>2010-09-29T16:09:46Z</time>
      </trkpt>
      <trkpt lat="46.0030580" lon="12.2921880">
        <ele>368.8000000</ele>
        <time>2010-09-29T16:10:18Z</time>
      </trkpt>
      <trkpt lat="46.0030440" lon="12.2921930">
        <ele>368.3200000</ele>
        <time>2010-09-29T16:10:25Z</time>
      </trkpt>
      <trkpt lat="46.0030140" lon="12.2921800">
        <ele>366.4000000</ele>
        <time>2010-09-29T16:10:36Z</time>
      </trkpt>
      <trkpt lat="46.0029940" lon="12.2921510">
        <ele>364.9600000</ele>
        <time>2010-09-29T16:10:42Z</time>
      </trkpt>
      <trkpt lat="46.0029640" lon="12.2921350">
        <ele>362.5500000</ele>
        <time>2010-09-29T16:11:42Z</time>
      </trkpt>
      <trkpt lat="46.0029330" lon="12.2921130">
        <ele>361.5900000</ele>
        <time>2010-09-29T16:11:47Z</time>
      </trkpt>
      <trkpt lat="46.0029100" lon="12.2920810">
        <ele>360.1500000</ele>
        <time>2010-09-29T16:11:53Z</time>
      </trkpt>
      <trkpt lat="46.0028740" lon="12.2920640">
        <ele>357.7500000</ele>
        <time>2010-09-29T16:12:00Z</time>
      </trkpt>
      <trkpt lat="46.0028710" lon="12.2920600">
        <ele>357.2700000</ele>
        <time>2010-09-29T16:12:01Z</time>
      </trkpt>
      <trkpt lat="46.0028350" lon="12.2920490">
        <ele>355.8300000</ele>
        <time>2010-09-29T16:12:08Z</time>
      </trkpt>
      <trkpt lat="46.0028070" lon="12.2920340">
        <ele>354.3800000</ele>
        <time>2010-09-29T16:12:13Z</time>
      </trkpt>
      <trkpt lat="46.0027550" lon="12.2920020">
        <ele>354.3800000</ele>
        <time>2010-09-29T16:12:20Z</time>
      </trkpt>
      <trkpt lat="46.0027550" lon="12.2920020">
        <ele>354.3800000</ele>
        <time>2010-09-29T16:12:22Z</time>
      </trkpt>
      <trkpt lat="46.0027390" lon="12.2920300">
        <ele>353.9000000</ele>
        <time>2010-09-29T16:12:26Z</time>
      </trkpt>
      <trkpt lat="46.0027360" lon="12.2920720">
        <ele>353.9000000</ele>
        <time>2010-09-29T16:12:29Z</time>
      </trkpt>
      <trkpt lat="46.0027490" lon="12.2921260">
        <ele>352.9400000</ele>
        <time>2010-09-29T16:12:34Z</time>
      </trkpt>
      <trkpt lat="46.0028070" lon="12.2921740">
        <ele>352.9400000</ele>
        <time>2010-09-29T16:12:41Z</time>
      </trkpt>
      <trkpt lat="46.0028310" lon="12.2922130">
        <ele>352.9400000</ele>
        <time>2010-09-29T16:12:46Z</time>
      </trkpt>
      <trkpt lat="46.0028500" lon="12.2922470">
        <ele>351.0200000</ele>
        <time>2010-09-29T16:12:51Z</time>
      </trkpt>
      <trkpt lat="46.0028710" lon="12.2923160">
        <ele>351.5000000</ele>
        <time>2010-09-29T16:13:36Z</time>
      </trkpt>
      <trkpt lat="46.0029050" lon="12.2923760">
        <ele>351.0200000</ele>
        <time>2010-09-29T16:13:41Z</time>
      </trkpt>
      <trkpt lat="46.0029110" lon="12.2923880">
        <ele>350.5400000</ele>
        <time>2010-09-29T16:13:42Z</time>
      </trkpt>
      <trkpt lat="46.0029410" lon="12.2924790">
        <ele>350.0600000</ele>
        <time>2010-09-29T16:13:49Z</time>
      </trkpt>
      <trkpt lat="46.0029620" lon="12.2924870">
        <ele>349.1000000</ele>
        <time>2010-09-29T16:13:51Z</time>
      </trkpt>
      <trkpt lat="46.0029850" lon="12.2924900">
        <ele>349.5800000</ele>
        <time>2010-09-29T16:13:53Z</time>
      </trkpt>
      <trkpt lat="46.0030250" lon="12.2925790">
        <ele>348.6200000</ele>
        <time>2010-09-29T16:13:57Z</time>
      </trkpt>
      <trkpt lat="46.0030430" lon="12.2927120">
        <ele>347.1700000</ele>
        <time>2010-09-29T16:14:04Z</time>
      </trkpt>
      <trkpt lat="46.0030640" lon="12.2927990">
        <ele>346.2100000</ele>
        <time>2010-09-29T16:14:08Z</time>
      </trkpt>
      <trkpt lat="46.0031110" lon="12.2929070">
        <ele>346.2100000</ele>
        <time>2010-09-29T16:14:14Z</time>
      </trkpt>
      <trkpt lat="46.0031400" lon="12.2929390">
        <ele>346.2100000</ele>
        <time>2010-09-29T16:14:19Z</time>
      </trkpt>
      <trkpt lat="46.0031330" lon="12.2929210">
        <ele>345.7300000</ele>
        <time>2010-09-29T16:14:24Z</time>
      </trkpt>
      <trkpt lat="46.0030880" lon="12.2927760">
        <ele>347.1700000</ele>
        <time>2010-09-29T16:14:32Z</time>
      </trkpt>
      <trkpt lat="46.0030530" lon="12.2927160">
        <ele>347.1700000</ele>
        <time>2010-09-29T16:14:38Z</time>
      </trkpt>
      <trkpt lat="46.0030150" lon="12.2926380">
        <ele>348.1300000</ele>
        <time>2010-09-29T16:14:45Z</time>
      </trkpt>
      <trkpt lat="46.0029710" lon="12.2925890">
        <ele>348.6200000</ele>
        <time>2010-09-29T16:14:50Z</time>
      </trkpt>
      <trkpt lat="46.0029090" lon="12.2925480">
        <ele>349.5800000</ele>
        <time>2010-09-29T16:14:58Z</time>
      </trkpt>
      <trkpt lat="46.0028950" lon="12.2924440">
        <ele>350.0600000</ele>
        <time>2010-09-29T16:15:02Z</time>
      </trkpt>
      <trkpt lat="46.0028800" lon="12.2923170">
        <ele>350.5400000</ele>
        <time>2010-09-29T16:15:08Z</time>
      </trkpt>
      <trkpt lat="46.0028720" lon="12.2923110">
        <ele>350.5400000</ele>
        <time>2010-09-29T16:15:14Z</time>
      </trkpt>
      <trkpt lat="46.0028880" lon="12.2923680">
        <ele>349.5800000</ele>
        <time>2010-09-29T16:15:21Z</time>
      </trkpt>
      <trkpt lat="46.0028890" lon="12.2923830">
        <ele>350.0600000</ele>
        <time>2010-09-29T16:15:22Z</time>
      </trkpt>
      <trkpt lat="46.0029210" lon="12.2924570">
        <ele>349.1000000</ele>
        <time>2010-09-29T16:15:29Z</time>
      </trkpt>
      <trkpt lat="46.0029320" lon="12.2925710">
        <ele>347.6500000</ele>
        <time>2010-09-29T16:16:02Z</time>
      </trkpt>
      <trkpt lat="46.0029320" lon="12.2925830">
        <ele>347.6500000</ele>
        <time>2010-09-29T16:16:03Z</time>
      </trkpt>
      <trkpt lat="46.0029520" lon="12.2926260">
        <ele>347.1700000</ele>
        <time>2010-09-29T16:16:07Z</time>
      </trkpt>
      <trkpt lat="46.0030110" lon="12.2927260">
        <ele>345.7300000</ele>
        <time>2010-09-29T16:16:15Z</time>
      </trkpt>
      <trkpt lat="46.0030130" lon="12.2927350">
        <ele>346.2100000</ele>
        <time>2010-09-29T16:16:16Z</time>
      </trkpt>
      <trkpt lat="46.0030300" lon="12.2928010">
        <ele>345.2500000</ele>
        <time>2010-09-29T16:16:20Z</time>
      </trkpt>
      <trkpt lat="46.0030420" lon="12.2928240">
        <ele>344.7700000</ele>
        <time>2010-09-29T16:16:22Z</time>
      </trkpt>
      <trkpt lat="46.0030940" lon="12.2928880">
        <ele>344.2900000</ele>
        <time>2010-09-29T16:16:28Z</time>
      </trkpt>
      <trkpt lat="46.0031090" lon="12.2929240">
        <ele>344.2900000</ele>
        <time>2010-09-29T16:16:31Z</time>
      </trkpt>
      <trkpt lat="46.0031270" lon="12.2930000">
        <ele>343.3300000</ele>
        <time>2010-09-29T16:16:36Z</time>
      </trkpt>
      <trkpt lat="46.0031680" lon="12.2930890">
        <ele>343.3300000</ele>
        <time>2010-09-29T16:16:43Z</time>
      </trkpt>
      <trkpt lat="46.0032310" lon="12.2931710">
        <ele>341.8900000</ele>
        <time>2010-09-29T16:16:50Z</time>
      </trkpt>
      <trkpt lat="46.0032550" lon="12.2932360">
        <ele>339.9600000</ele>
        <time>2010-09-29T16:16:58Z</time>
      </trkpt>
      <trkpt lat="46.0032900" lon="12.2932900">
        <ele>338.5200000</ele>
        <time>2010-09-29T16:17:05Z</time>
      </trkpt>
      <trkpt lat="46.0032940" lon="12.2932980">
        <ele>338.0400000</ele>
        <time>2010-09-29T16:17:06Z</time>
      </trkpt>
      <trkpt lat="46.0033060" lon="12.2933890">
        <ele>336.6000000</ele>
        <time>2010-09-29T16:17:13Z</time>
      </trkpt>
      <trkpt lat="46.0033420" lon="12.2934490">
        <ele>335.6400000</ele>
        <time>2010-09-29T16:17:19Z</time>
      </trkpt>
      <trkpt lat="46.0033540" lon="12.2934820">
        <ele>334.6800000</ele>
        <time>2010-09-29T16:17:21Z</time>
      </trkpt>
      <trkpt lat="46.0034030" lon="12.2935640">
        <ele>333.7100000</ele>
        <time>2010-09-29T16:17:28Z</time>
      </trkpt>
      <trkpt lat="46.0034000" lon="12.2936710">
        <ele>331.7900000</ele>
        <time>2010-09-29T16:17:35Z</time>
      </trkpt>
      <trkpt lat="46.0033900" lon="12.2937240">
        <ele>330.8300000</ele>
        <time>2010-09-29T16:17:40Z</time>
      </trkpt>
      <trkpt lat="46.0034180" lon="12.2938470">
        <ele>329.8700000</ele>
        <time>2010-09-29T16:17:47Z</time>
      </trkpt>
      <trkpt lat="46.0034240" lon="12.2939440">
        <ele>327.9500000</ele>
        <time>2010-09-29T16:17:54Z</time>
      </trkpt>
      <trkpt lat="46.0034370" lon="12.2940340">
        <ele>327.4700000</ele>
        <time>2010-09-29T16:18:01Z</time>
      </trkpt>
      <trkpt lat="46.0034480" lon="12.2940390">
        <ele>327.4700000</ele>
        <time>2010-09-29T16:18:04Z</time>
      </trkpt>
      <trkpt lat="46.0034720" lon="12.2940670">
        <ele>327.4700000</ele>
        <time>2010-09-29T16:18:11Z</time>
      </trkpt>
      <trkpt lat="46.0034220" lon="12.2940700">
        <ele>325.0600000</ele>
        <time>2010-09-29T16:18:19Z</time>
      </trkpt>
      <trkpt lat="46.0034070" lon="12.2940340">
        <ele>324.5800000</ele>
        <time>2010-09-29T16:18:24Z</time>
      </trkpt>
      <trkpt lat="46.0033950" lon="12.2939730">
        <ele>323.1400000</ele>
        <time>2010-09-29T16:18:30Z</time>
      </trkpt>
      <trkpt lat="46.0033790" lon="12.2939590">
        <ele>322.6600000</ele>
        <time>2010-09-29T16:18:32Z</time>
      </trkpt>
      <trkpt lat="46.0033590" lon="12.2939100">
        <ele>321.2200000</ele>
        <time>2010-09-29T16:18:38Z</time>
      </trkpt>
      <trkpt lat="46.0033540" lon="12.2938730">
        <ele>319.7800000</ele>
        <time>2010-09-29T16:18:44Z</time>
      </trkpt>
      <trkpt lat="46.0032850" lon="12.2937890">
        <ele>318.8100000</ele>
        <time>2010-09-29T16:18:50Z</time>
      </trkpt>
      <trkpt lat="46.0032460" lon="12.2937160">
        <ele>317.8500000</ele>
        <time>2010-09-29T16:18:54Z</time>
      </trkpt>
      <trkpt lat="46.0031670" lon="12.2936260">
        <ele>315.9300000</ele>
        <time>2010-09-29T16:19:02Z</time>
      </trkpt>
      <trkpt lat="46.0031100" lon="12.2935510">
        <ele>314.0100000</ele>
        <time>2010-09-29T16:19:10Z</time>
      </trkpt>
      <trkpt lat="46.0031130" lon="12.2935390">
        <ele>314.0100000</ele>
        <time>2010-09-29T16:19:11Z</time>
      </trkpt>
      <trkpt lat="46.0030780" lon="12.2934750">
        <ele>313.0500000</ele>
        <time>2010-09-29T16:19:17Z</time>
      </trkpt>
      <trkpt lat="46.0030040" lon="12.2934470">
        <ele>310.6400000</ele>
        <time>2010-09-29T16:19:24Z</time>
      </trkpt>
      <trkpt lat="46.0029780" lon="12.2934480">
        <ele>310.1600000</ele>
        <time>2010-09-29T16:19:26Z</time>
      </trkpt>
      <trkpt lat="46.0029130" lon="12.2933910">
        <ele>308.2400000</ele>
        <time>2010-09-29T16:19:34Z</time>
      </trkpt>
      <trkpt lat="46.0028330" lon="12.2933320">
        <ele>306.8000000</ele>
        <time>2010-09-29T16:19:42Z</time>
      </trkpt>
      <trkpt lat="46.0027720" lon="12.2932830">
        <ele>305.3600000</ele>
        <time>2010-09-29T16:19:49Z</time>
      </trkpt>
      <trkpt lat="46.0027190" lon="12.2932500">
        <ele>303.4300000</ele>
        <time>2010-09-29T16:19:56Z</time>
      </trkpt>
      <trkpt lat="46.0026480" lon="12.2932020">
        <ele>301.9900000</ele>
        <time>2010-09-29T16:20:05Z</time>
      </trkpt>
      <trkpt lat="46.0026450" lon="12.2931840">
        <ele>302.4700000</ele>
        <time>2010-09-29T16:20:07Z</time>
      </trkpt>
      <trkpt lat="46.0026460" lon="12.2931590">
        <ele>301.0300000</ele>
        <time>2010-09-29T16:20:10Z</time>
      </trkpt>
      <trkpt lat="46.0026330" lon="12.2930790">
        <ele>299.5900000</ele>
        <time>2010-09-29T16:20:17Z</time>
      </trkpt>
      <trkpt lat="46.0026060" lon="12.2930290">
        <ele>299.1100000</ele>
        <time>2010-09-29T16:20:23Z</time>
      </trkpt>
      <trkpt lat="46.0025760" lon="12.2929360">
        <ele>297.1800000</ele>
        <time>2010-09-29T16:20:30Z</time>
      </trkpt>
      <trkpt lat="46.0025630" lon="12.2929250">
        <ele>297.6700000</ele>
        <time>2010-09-29T16:20:31Z</time>
      </trkpt>
      <trkpt lat="46.0024600" lon="12.2928620">
        <ele>295.2600000</ele>
        <time>2010-09-29T16:20:40Z</time>
      </trkpt>
      <trkpt lat="46.0023980" lon="12.2927830">
        <ele>293.8200000</ele>
        <time>2010-09-29T16:20:50Z</time>
      </trkpt>
      <trkpt lat="46.0023590" lon="12.2927230">
        <ele>292.3800000</ele>
        <time>2010-09-29T16:20:56Z</time>
      </trkpt>
      <trkpt lat="46.0022740" lon="12.2926560">
        <ele>291.4200000</ele>
        <time>2010-09-29T16:21:04Z</time>
      </trkpt>
      <trkpt lat="46.0021710" lon="12.2926060">
        <ele>289.9700000</ele>
        <time>2010-09-29T16:21:11Z</time>
      </trkpt>
      <trkpt lat="46.0021240" lon="12.2925230">
        <ele>288.5300000</ele>
        <time>2010-09-29T16:21:19Z</time>
      </trkpt>
      <trkpt lat="46.0020670" lon="12.2924870">
        <ele>286.6100000</ele>
        <time>2010-09-29T16:21:25Z</time>
      </trkpt>
      <trkpt lat="46.0019870" lon="12.2924520">
        <ele>286.1300000</ele>
        <time>2010-09-29T16:21:31Z</time>
      </trkpt>
      <trkpt lat="46.0019240" lon="12.2924560">
        <ele>284.6900000</ele>
        <time>2010-09-29T16:21:40Z</time>
      </trkpt>
      <trkpt lat="46.0019190" lon="12.2924880">
        <ele>283.7300000</ele>
        <time>2010-09-29T16:21:45Z</time>
      </trkpt>
      <trkpt lat="46.0019230" lon="12.2925460">
        <ele>282.7700000</ele>
        <time>2010-09-29T16:21:51Z</time>
      </trkpt>
      <trkpt lat="46.0019270" lon="12.2925590">
        <ele>283.2500000</ele>
        <time>2010-09-29T16:21:52Z</time>
      </trkpt>
      <trkpt lat="46.0019470" lon="12.2926200">
        <ele>282.7700000</ele>
        <time>2010-09-29T16:21:56Z</time>
      </trkpt>
      <trkpt lat="46.0019750" lon="12.2926930">
        <ele>281.3200000</ele>
        <time>2010-09-29T16:22:02Z</time>
      </trkpt>
      <trkpt lat="46.0019820" lon="12.2927250">
        <ele>280.8400000</ele>
        <time>2010-09-29T16:22:04Z</time>
      </trkpt>
      <trkpt lat="46.0020110" lon="12.2927960">
        <ele>279.8800000</ele>
        <time>2010-09-29T16:22:10Z</time>
      </trkpt>
      <trkpt lat="46.0020150" lon="12.2928830">
        <ele>278.9200000</ele>
        <time>2010-09-29T16:22:16Z</time>
      </trkpt>
      <trkpt lat="46.0020300" lon="12.2929730">
        <ele>277.4800000</ele>
        <time>2010-09-29T16:22:23Z</time>
      </trkpt>
      <trkpt lat="46.0020570" lon="12.2930260">
        <ele>277.0000000</ele>
        <time>2010-09-29T16:22:27Z</time>
      </trkpt>
      <trkpt lat="46.0020770" lon="12.2931130">
        <ele>276.0400000</ele>
        <time>2010-09-29T16:22:34Z</time>
      </trkpt>
      <trkpt lat="46.0021040" lon="12.2932080">
        <ele>275.0700000</ele>
        <time>2010-09-29T16:22:41Z</time>
      </trkpt>
      <trkpt lat="46.0021030" lon="12.2932230">
        <ele>274.1100000</ele>
        <time>2010-09-29T16:22:43Z</time>
      </trkpt>
      <trkpt lat="46.0021200" lon="12.2933010">
        <ele>273.6300000</ele>
        <time>2010-09-29T16:22:49Z</time>
      </trkpt>
      <trkpt lat="46.0021570" lon="12.2934160">
        <ele>271.7100000</ele>
        <time>2010-09-29T16:22:57Z</time>
      </trkpt>
      <trkpt lat="46.0021600" lon="12.2934220">
        <ele>272.1900000</ele>
        <time>2010-09-29T16:22:58Z</time>
      </trkpt>
      <trkpt lat="46.0021680" lon="12.2934900">
        <ele>270.7500000</ele>
        <time>2010-09-29T16:23:03Z</time>
      </trkpt>
      <trkpt lat="46.0021950" lon="12.2935590">
        <ele>270.2700000</ele>
        <time>2010-09-29T16:23:07Z</time>
      </trkpt>
      <trkpt lat="46.0022230" lon="12.2936700">
        <ele>268.8300000</ele>
        <time>2010-09-29T16:23:14Z</time>
      </trkpt>
      <trkpt lat="46.0022750" lon="12.2937350">
        <ele>267.3800000</ele>
        <time>2010-09-29T16:23:21Z</time>
      </trkpt>
      <trkpt lat="46.0022790" lon="12.2937570">
        <ele>267.8600000</ele>
        <time>2010-09-29T16:23:24Z</time>
      </trkpt>
      <trkpt lat="46.0022750" lon="12.2938260">
        <ele>266.4200000</ele>
        <time>2010-09-29T16:23:32Z</time>
      </trkpt>
      <trkpt lat="46.0022570" lon="12.2937870">
        <ele>264.9800000</ele>
        <time>2010-09-29T16:23:40Z</time>
      </trkpt>
      <trkpt lat="46.0021960" lon="12.2937460">
        <ele>264.0200000</ele>
        <time>2010-09-29T16:23:48Z</time>
      </trkpt>
      <trkpt lat="46.0021840" lon="12.2937250">
        <ele>263.0600000</ele>
        <time>2010-09-29T16:23:52Z</time>
      </trkpt>
      <trkpt lat="46.0021350" lon="12.2936530">
        <ele>262.1000000</ele>
        <time>2010-09-29T16:23:59Z</time>
      </trkpt>
      <trkpt lat="46.0020970" lon="12.2935710">
        <ele>261.6200000</ele>
        <time>2010-09-29T16:24:05Z</time>
      </trkpt>
      <trkpt lat="46.0021020" lon="12.2935110">
        <ele>261.6200000</ele>
        <time>2010-09-29T16:24:21Z</time>
      </trkpt>
      <trkpt lat="46.0020850" lon="12.2934880">
        <ele>259.6900000</ele>
        <time>2010-09-29T16:24:27Z</time>
      </trkpt>
      <trkpt lat="46.0020230" lon="12.2934650">
        <ele>258.7300000</ele>
        <time>2010-09-29T16:24:35Z</time>
      </trkpt>
      <trkpt lat="46.0020040" lon="12.2933860">
        <ele>256.8100000</ele>
        <time>2010-09-29T16:24:44Z</time>
      </trkpt>
      <trkpt lat="46.0019580" lon="12.2933390">
        <ele>255.3700000</ele>
        <time>2010-09-29T16:24:52Z</time>
      </trkpt>
      <trkpt lat="46.0019060" lon="12.2932940">
        <ele>253.4400000</ele>
        <time>2010-09-29T16:24:58Z</time>
      </trkpt>
      <trkpt lat="46.0018580" lon="12.2932510">
        <ele>252.4800000</ele>
        <time>2010-09-29T16:25:05Z</time>
      </trkpt>
      <trkpt lat="46.0017930" lon="12.2931640">
        <ele>249.6000000</ele>
        <time>2010-09-29T16:25:16Z</time>
      </trkpt>
      <trkpt lat="46.0017880" lon="12.2931570">
        <ele>249.6000000</ele>
        <time>2010-09-29T16:25:17Z</time>
      </trkpt>
      <trkpt lat="46.0017350" lon="12.2931190">
        <ele>247.6800000</ele>
        <time>2010-09-29T16:25:26Z</time>
      </trkpt>
      <trkpt lat="46.0016780" lon="12.2930980">
        <ele>246.2300000</ele>
        <time>2010-09-29T16:25:33Z</time>
      </trkpt>
      <trkpt lat="46.0016290" lon="12.2930380">
        <ele>244.7900000</ele>
        <time>2010-09-29T16:25:40Z</time>
      </trkpt>
      <trkpt lat="46.0015760" lon="12.2929890">
        <ele>243.3500000</ele>
        <time>2010-09-29T16:25:46Z</time>
      </trkpt>
      <trkpt lat="46.0015350" lon="12.2929370">
        <ele>241.9100000</ele>
        <time>2010-09-29T16:25:52Z</time>
      </trkpt>
      <trkpt lat="46.0014840" lon="12.2928950">
        <ele>240.4700000</ele>
        <time>2010-09-29T16:25:56Z</time>
      </trkpt>
      <trkpt lat="46.0013930" lon="12.2928460">
        <ele>239.5100000</ele>
        <time>2010-09-29T16:26:03Z</time>
      </trkpt>
      <trkpt lat="46.0013790" lon="12.2928000">
        <ele>238.0600000</ele>
        <time>2010-09-29T16:26:09Z</time>
      </trkpt>
      <trkpt lat="46.0012960" lon="12.2927340">
        <ele>236.1400000</ele>
        <time>2010-09-29T16:26:17Z</time>
      </trkpt>
      <trkpt lat="46.0012400" lon="12.2926900">
        <ele>234.7000000</ele>
        <time>2010-09-29T16:26:23Z</time>
      </trkpt>
      <trkpt lat="46.0011740" lon="12.2926560">
        <ele>232.7800000</ele>
        <time>2010-09-29T16:26:30Z</time>
      </trkpt>
      <trkpt lat="46.0011460" lon="12.2926020">
        <ele>230.8500000</ele>
        <time>2010-09-29T16:26:37Z</time>
      </trkpt>
      <trkpt lat="46.0011320" lon="12.2925900">
        <ele>229.8900000</ele>
        <time>2010-09-29T16:26:41Z</time>
      </trkpt>
      <trkpt lat="46.0010950" lon="12.2924880">
        <ele>227.9700000</ele>
        <time>2010-09-29T16:26:50Z</time>
      </trkpt>
      <trkpt lat="46.0010810" lon="12.2924420">
        <ele>226.5300000</ele>
        <time>2010-09-29T16:26:56Z</time>
      </trkpt>
      <trkpt lat="46.0010640" lon="12.2923770">
        <ele>225.0900000</ele>
        <time>2010-09-29T16:27:03Z</time>
      </trkpt>
      <trkpt lat="46.0010640" lon="12.2923650">
        <ele>225.0900000</ele>
        <time>2010-09-29T16:27:04Z</time>
      </trkpt>
      <trkpt lat="46.0010330" lon="12.2922680">
        <ele>222.6800000</ele>
        <time>2010-09-29T16:27:12Z</time>
      </trkpt>
      <trkpt lat="46.0010190" lon="12.2922290">
        <ele>221.7200000</ele>
        <time>2010-09-29T16:27:18Z</time>
      </trkpt>
      <trkpt lat="46.0010100" lon="12.2921600">
        <ele>220.2800000</ele>
        <time>2010-09-29T16:27:22Z</time>
      </trkpt>
      <trkpt lat="46.0009860" lon="12.2921190">
        <ele>219.8000000</ele>
        <time>2010-09-29T16:27:26Z</time>
      </trkpt>
      <trkpt lat="46.0009750" lon="12.2920290">
        <ele>218.3600000</ele>
        <time>2010-09-29T16:27:32Z</time>
      </trkpt>
      <trkpt lat="46.0009670" lon="12.2919430">
        <ele>216.9100000</ele>
        <time>2010-09-29T16:27:39Z</time>
      </trkpt>
      <trkpt lat="46.0009430" lon="12.2918830">
        <ele>214.9900000</ele>
        <time>2010-09-29T16:27:46Z</time>
      </trkpt>
      <trkpt lat="46.0009150" lon="12.2918200">
        <ele>214.0300000</ele>
        <time>2010-09-29T16:27:51Z</time>
      </trkpt>
      <trkpt lat="46.0008920" lon="12.2917710">
        <ele>212.1100000</ele>
        <time>2010-09-29T16:27:58Z</time>
      </trkpt>
      <trkpt lat="46.0008710" lon="12.2917300">
        <ele>210.6700000</ele>
        <time>2010-09-29T16:28:05Z</time>
      </trkpt>
      <trkpt lat="46.0008430" lon="12.2916760">
        <ele>210.1900000</ele>
        <time>2010-09-29T16:28:11Z</time>
      </trkpt>
      <trkpt lat="46.0008050" lon="12.2916400">
        <ele>208.7400000</ele>
        <time>2010-09-29T16:28:17Z</time>
      </trkpt>
      <trkpt lat="46.0007870" lon="12.2916000">
        <ele>205.8600000</ele>
        <time>2010-09-29T16:28:31Z</time>
      </trkpt>
      <trkpt lat="46.0007390" lon="12.2914140">
        <ele>204.9000000</ele>
        <time>2010-09-29T16:28:44Z</time>
      </trkpt>
      <trkpt lat="46.0006870" lon="12.2913480">
        <ele>204.4200000</ele>
        <time>2010-09-29T16:28:51Z</time>
      </trkpt>
      <trkpt lat="46.0006310" lon="12.2913580">
        <ele>202.9800000</ele>
        <time>2010-09-29T16:28:56Z</time>
      </trkpt>
      <trkpt lat="46.0006140" lon="12.2914000">
        <ele>202.4900000</ele>
        <time>2010-09-29T16:29:04Z</time>
      </trkpt>
      <trkpt lat="46.0006140" lon="12.2913740">
        <ele>200.5700000</ele>
        <time>2010-09-29T16:29:13Z</time>
      </trkpt>
      <trkpt lat="46.0005780" lon="12.2913180">
        <ele>199.1300000</ele>
        <time>2010-09-29T16:29:22Z</time>
      </trkpt>
      <trkpt lat="46.0005640" lon="12.2913250">
        <ele>197.6900000</ele>
        <time>2010-09-29T16:29:27Z</time>
      </trkpt>
      <trkpt lat="46.0005550" lon="12.2913510">
        <ele>198.1700000</ele>
        <time>2010-09-29T16:29:29Z</time>
      </trkpt>
      <trkpt lat="46.0005390" lon="12.2913570">
        <ele>196.7300000</ele>
        <time>2010-09-29T16:29:36Z</time>
      </trkpt>
      <trkpt lat="46.0005530" lon="12.2913370">
        <ele>196.2500000</ele>
        <time>2010-09-29T16:29:41Z</time>
      </trkpt>
      <trkpt lat="46.0005400" lon="12.2913300">
        <ele>195.2800000</ele>
        <time>2010-09-29T16:29:44Z</time>
      </trkpt>
      <trkpt lat="46.0005000" lon="12.2913240">
        <ele>195.2800000</ele>
        <time>2010-09-29T16:29:47Z</time>
      </trkpt>
      <trkpt lat="46.0004550" lon="12.2913620">
        <ele>193.8400000</ele>
        <time>2010-09-29T16:29:57Z</time>
      </trkpt>
      <trkpt lat="46.0004480" lon="12.2913870">
        <ele>193.3600000</ele>
        <time>2010-09-29T16:30:01Z</time>
      </trkpt>
      <trkpt lat="46.0004440" lon="12.2913470">
        <ele>191.9200000</ele>
        <time>2010-09-29T16:30:09Z</time>
      </trkpt>
      <trkpt lat="46.0004270" lon="12.2913390">
        <ele>192.8800000</ele>
        <time>2010-09-29T16:30:11Z</time>
      </trkpt>
      <trkpt lat="46.0003980" lon="12.2913270">
        <ele>191.4400000</ele>
        <time>2010-09-29T16:30:17Z</time>
      </trkpt>
      <trkpt lat="46.0003710" lon="12.2913900">
        <ele>190.0000000</ele>
        <time>2010-09-29T16:30:24Z</time>
      </trkpt>
      <trkpt lat="46.0003840" lon="12.2913490">
        <ele>189.0400000</ele>
        <time>2010-09-29T16:30:30Z</time>
      </trkpt>
      <trkpt lat="46.0003380" lon="12.2913180">
        <ele>187.5900000</ele>
        <time>2010-09-29T16:30:37Z</time>
      </trkpt>
      <trkpt lat="46.0003110" lon="12.2914060">
        <ele>186.1500000</ele>
        <time>2010-09-29T16:30:45Z</time>
      </trkpt>
      <trkpt lat="46.0002860" lon="12.2914320">
        <ele>185.6700000</ele>
        <time>2010-09-29T16:30:51Z</time>
      </trkpt>
      <trkpt lat="46.0002830" lon="12.2913540">
        <ele>185.1900000</ele>
        <time>2010-09-29T16:30:57Z</time>
      </trkpt>
      <trkpt lat="46.0002560" lon="12.2913520">
        <ele>184.2300000</ele>
        <time>2010-09-29T16:31:03Z</time>
      </trkpt>
      <trkpt lat="46.0002510" lon="12.2914140">
        <ele>183.2700000</ele>
        <time>2010-09-29T16:31:08Z</time>
      </trkpt>
      <trkpt lat="46.0002310" lon="12.2913920">
        <ele>181.3500000</ele>
        <time>2010-09-29T16:31:16Z</time>
      </trkpt>
      <trkpt lat="46.0002190" lon="12.2913360">
        <ele>180.3800000</ele>
        <time>2010-09-29T16:31:21Z</time>
      </trkpt>
      <trkpt lat="46.0001630" lon="12.2913380">
        <ele>179.4200000</ele>
        <time>2010-09-29T16:31:26Z</time>
      </trkpt>
      <trkpt lat="46.0001650" lon="12.2913550">
        <ele>179.4200000</ele>
        <time>2010-09-29T16:31:27Z</time>
      </trkpt>
      <trkpt lat="46.0001510" lon="12.2914440">
        <ele>177.9800000</ele>
        <time>2010-09-29T16:31:35Z</time>
      </trkpt>
      <trkpt lat="46.0001410" lon="12.2914480">
        <ele>177.9800000</ele>
        <time>2010-09-29T16:31:40Z</time>
      </trkpt>
      <trkpt lat="46.0001530" lon="12.2913680">
        <ele>175.5800000</ele>
        <time>2010-09-29T16:32:11Z</time>
      </trkpt>
      <trkpt lat="46.0001320" lon="12.2913680">
        <ele>174.6200000</ele>
        <time>2010-09-29T16:32:18Z</time>
      </trkpt>
      <trkpt lat="46.0000790" lon="12.2913650">
        <ele>174.1400000</ele>
        <time>2010-09-29T16:32:26Z</time>
      </trkpt>
      <trkpt lat="46.0000710" lon="12.2913670">
        <ele>172.6900000</ele>
        <time>2010-09-29T16:32:32Z</time>
      </trkpt>
      <trkpt lat="46.0000520" lon="12.2913900">
        <ele>172.2100000</ele>
        <time>2010-09-29T16:32:36Z</time>
      </trkpt>
      <trkpt lat="46.0000480" lon="12.2913720">
        <ele>171.2500000</ele>
        <time>2010-09-29T16:32:41Z</time>
      </trkpt>
      <trkpt lat="46.0000300" lon="12.2913750">
        <ele>171.7300000</ele>
        <time>2010-09-29T16:32:46Z</time>
      </trkpt>
      <trkpt lat="46.0000150" lon="12.2913240">
        <ele>169.8100000</ele>
        <time>2010-09-29T16:33:01Z</time>
      </trkpt>
      <trkpt lat="45.9999700" lon="12.2913010">
        <ele>166.9300000</ele>
        <time>2010-09-29T16:33:15Z</time>
      </trkpt>
      <trkpt lat="45.9999180" lon="12.2913340">
        <ele>166.4500000</ele>
        <time>2010-09-29T16:33:22Z</time>
      </trkpt>
      <trkpt lat="45.9998820" lon="12.2913420">
        <ele>164.5200000</ele>
        <time>2010-09-29T16:33:28Z</time>
      </trkpt>
      <trkpt lat="45.9998710" lon="12.2913210">
        <ele>163.5600000</ele>
        <time>2010-09-29T16:33:36Z</time>
      </trkpt>
      <trkpt lat="45.9998560" lon="12.2913150">
        <ele>162.6000000</ele>
        <time>2010-09-29T16:33:41Z</time>
      </trkpt>
      <trkpt lat="45.9998030" lon="12.2913360">
        <ele>161.1600000</ele>
        <time>2010-09-29T16:33:47Z</time>
      </trkpt>
      <trkpt lat="45.9997670" lon="12.2913550">
        <ele>160.2000000</ele>
        <time>2010-09-29T16:33:52Z</time>
      </trkpt>
      <trkpt lat="45.9997500" lon="12.2913650">
        <ele>159.7200000</ele>
        <time>2010-09-29T16:34:12Z</time>
      </trkpt>
      <trkpt lat="45.9997340" lon="12.2913730">
        <ele>159.7200000</ele>
        <time>2010-09-29T16:34:26Z</time>
      </trkpt>
      <trkpt lat="45.9997130" lon="12.2913050">
        <ele>159.7200000</ele>
        <time>2010-09-29T16:34:31Z</time>
      </trkpt>
      <trkpt lat="45.9997020" lon="12.2912530">
        <ele>159.2400000</ele>
        <time>2010-09-29T16:34:35Z</time>
      </trkpt>
      <trkpt lat="45.9996780" lon="12.2912050">
        <ele>159.7200000</ele>
        <time>2010-09-29T16:34:39Z</time>
      </trkpt>
      <trkpt lat="45.9996620" lon="12.2911270">
        <ele>159.2400000</ele>
        <time>2010-09-29T16:34:45Z</time>
      </trkpt>
      <trkpt lat="45.9996060" lon="12.2910950">
        <ele>159.7200000</ele>
        <time>2010-09-29T16:34:52Z</time>
      </trkpt>
      <trkpt lat="45.9995730" lon="12.2909630">
        <ele>159.2400000</ele>
        <time>2010-09-29T16:35:11Z</time>
      </trkpt>
      <trkpt lat="45.9996130" lon="12.2909750">
        <ele>159.2400000</ele>
        <time>2010-09-29T16:35:17Z</time>
      </trkpt>
      <trkpt lat="45.9996240" lon="12.2908550">
        <ele>159.7200000</ele>
        <time>2010-09-29T16:35:23Z</time>
      </trkpt>
      <trkpt lat="45.9996260" lon="12.2907580">
        <ele>159.2400000</ele>
        <time>2010-09-29T16:35:28Z</time>
      </trkpt>
      <trkpt lat="45.9996380" lon="12.2906860">
        <ele>159.7200000</ele>
        <time>2010-09-29T16:35:35Z</time>
      </trkpt>
      <trkpt lat="45.9996190" lon="12.2906340">
        <ele>160.2000000</ele>
        <time>2010-09-29T16:35:41Z</time>
      </trkpt>
      <trkpt lat="45.9996190" lon="12.2906340">
        <ele>160.2000000</ele>
        <time>2010-09-29T16:35:43Z</time>
      </trkpt>
      <trkpt lat="45.9995610" lon="12.2905790">
        <ele>160.2000000</ele>
        <time>2010-09-29T16:35:48Z</time>
      </trkpt>
      <trkpt lat="45.9995120" lon="12.2905000">
        <ele>159.7200000</ele>
        <time>2010-09-29T16:35:54Z</time>
      </trkpt>
      <trkpt lat="45.9994630" lon="12.2904400">
        <ele>159.7200000</ele>
        <time>2010-09-29T16:36:00Z</time>
      </trkpt>
      <trkpt lat="45.9994630" lon="12.2904380">
        <ele>159.2400000</ele>
        <time>2010-09-29T16:36:12Z</time>
      </trkpt>
      <trkpt lat="45.9994460" lon="12.2903830">
        <ele>158.7500000</ele>
        <time>2010-09-29T16:36:18Z</time>
      </trkpt>
      <trkpt lat="45.9994200" lon="12.2903270">
        <ele>159.2400000</ele>
        <time>2010-09-29T16:36:23Z</time>
      </trkpt>
      <trkpt lat="45.9994120" lon="12.2903160">
        <ele>158.7500000</ele>
        <time>2010-09-29T16:36:31Z</time>
      </trkpt>
      <trkpt lat="45.9994390" lon="12.2903340">
        <ele>158.7500000</ele>
        <time>2010-09-29T16:37:07Z</time>
      </trkpt>
      <trkpt lat="45.9992210" lon="12.2904610">
        <ele>158.2700000</ele>
        <time>2010-09-29T16:40:29Z</time>
      </trkpt>
      <trkpt lat="45.9992970" lon="12.2902680">
        <ele>158.2700000</ele>
        <time>2010-09-29T16:40:34Z</time>
      </trkpt>
      <trkpt lat="45.9993230" lon="12.2901470">
        <ele>158.7500000</ele>
        <time>2010-09-29T16:40:40Z</time>
      </trkpt>
      <trkpt lat="45.9993140" lon="12.2901060">
        <ele>158.2700000</ele>
        <time>2010-09-29T16:40:45Z</time>
      </trkpt>
      <trkpt lat="45.9993090" lon="12.2900800">
        <ele>158.2700000</ele>
        <time>2010-09-29T16:40:47Z</time>
      </trkpt>
      <trkpt lat="45.9992790" lon="12.2900270">
        <ele>158.2700000</ele>
        <time>2010-09-29T16:40:53Z</time>
      </trkpt>
      <trkpt lat="45.9992850" lon="12.2899590">
        <ele>158.7500000</ele>
        <time>2010-09-29T16:41:04Z</time>
      </trkpt>
      <trkpt lat="45.9993790" lon="12.2898660">
        <ele>158.7500000</ele>
        <time>2010-09-29T16:41:19Z</time>
      </trkpt>
      <trkpt lat="45.9995020" lon="12.2899930">
        <ele>157.7900000</ele>
        <time>2010-09-29T16:41:27Z</time>
      </trkpt>
      <trkpt lat="45.9995810" lon="12.2900760">
        <ele>157.7900000</ele>
        <time>2010-09-29T16:41:34Z</time>
      </trkpt>
      <trkpt lat="45.9995950" lon="12.2900730">
        <ele>157.7900000</ele>
        <time>2010-09-29T16:41:35Z</time>
      </trkpt>
      <trkpt lat="45.9996790" lon="12.2900890">
        <ele>158.2700000</ele>
        <time>2010-09-29T16:41:42Z</time>
      </trkpt>
      <trkpt lat="45.9996780" lon="12.2900720">
        <ele>158.2700000</ele>
        <time>2010-09-29T16:41:46Z</time>
      </trkpt>
      <trkpt lat="45.9996650" lon="12.2900250">
        <ele>158.2700000</ele>
        <time>2010-09-29T16:41:53Z</time>
      </trkpt>
      <trkpt lat="45.9996610" lon="12.2900300">
        <ele>158.2700000</ele>
        <time>2010-09-29T16:42:00Z</time>
      </trkpt>
      <trkpt lat="45.9995860" lon="12.2899740">
        <ele>158.2700000</ele>
        <time>2010-09-29T16:42:08Z</time>
      </trkpt>
      <trkpt lat="45.9994640" lon="12.2900540">
        <ele>158.2700000</ele>
        <time>2010-09-29T16:42:20Z</time>
      </trkpt>
      <trkpt lat="45.9993980" lon="12.2900660">
        <ele>158.2700000</ele>
        <time>2010-09-29T16:42:27Z</time>
      </trkpt>
      <trkpt lat="45.9992540" lon="12.2898410">
        <ele>158.2700000</ele>
        <time>2010-09-29T16:42:40Z</time>
      </trkpt>
      <trkpt lat="45.9992150" lon="12.2897920">
        <ele>158.7500000</ele>
        <time>2010-09-29T16:42:43Z</time>
      </trkpt>
      <trkpt lat="45.9992140" lon="12.2897280">
        <ele>158.7500000</ele>
        <time>2010-09-29T16:42:49Z</time>
      </trkpt>
      <trkpt lat="45.9992240" lon="12.2896820">
        <ele>158.7500000</ele>
        <time>2010-09-29T16:42:55Z</time>
      </trkpt>
      <trkpt lat="45.9991840" lon="12.2896150">
        <ele>158.7500000</ele>
        <time>2010-09-29T16:43:14Z</time>
      </trkpt>
      <trkpt lat="45.9991170" lon="12.2896580">
        <ele>158.2700000</ele>
        <time>2010-09-29T16:43:20Z</time>
      </trkpt>
      <trkpt lat="45.9991070" lon="12.2896960">
        <ele>157.7900000</ele>
        <time>2010-09-29T16:43:24Z</time>
      </trkpt>
      <trkpt lat="45.9990260" lon="12.2896560">
        <ele>156.8300000</ele>
        <time>2010-09-29T16:43:33Z</time>
      </trkpt>
      <trkpt lat="45.9989980" lon="12.2895730">
        <ele>156.8300000</ele>
        <time>2010-09-29T16:43:40Z</time>
      </trkpt>
      <trkpt lat="45.9990210" lon="12.2894800">
        <ele>156.8300000</ele>
        <time>2010-09-29T16:43:49Z</time>
      </trkpt>
      <trkpt lat="45.9989810" lon="12.2894810">
        <ele>156.3500000</ele>
        <time>2010-09-29T16:43:57Z</time>
      </trkpt>
      <trkpt lat="45.9988560" lon="12.2897200">
        <ele>155.8700000</ele>
        <time>2010-09-29T16:44:08Z</time>
      </trkpt>
      <trkpt lat="45.9987980" lon="12.2898460">
        <ele>155.3900000</ele>
        <time>2010-09-29T16:44:15Z</time>
      </trkpt>
      <trkpt lat="45.9987980" lon="12.2899850">
        <ele>155.8700000</ele>
        <time>2010-09-29T16:44:23Z</time>
      </trkpt>
      <trkpt lat="45.9988400" lon="12.2902700">
        <ele>155.8700000</ele>
        <time>2010-09-29T16:44:37Z</time>
      </trkpt>
      <trkpt lat="45.9987990" lon="12.2904720">
        <ele>155.8700000</ele>
        <time>2010-09-29T16:44:51Z</time>
      </trkpt>
      <trkpt lat="45.9986200" lon="12.2903920">
        <ele>156.3500000</ele>
        <time>2010-09-29T16:45:00Z</time>
      </trkpt>
      <trkpt lat="45.9984260" lon="12.2901720">
        <ele>155.8700000</ele>
        <time>2010-09-29T16:45:04Z</time>
      </trkpt>
      <trkpt lat="45.9982830" lon="12.2901230">
        <ele>156.3500000</ele>
        <time>2010-09-29T16:45:09Z</time>
      </trkpt>
      <trkpt lat="45.9982300" lon="12.2901420">
        <ele>156.3500000</ele>
        <time>2010-09-29T16:45:12Z</time>
      </trkpt>
      <trkpt lat="45.9981510" lon="12.2901140">
        <ele>156.3500000</ele>
        <time>2010-09-29T16:45:20Z</time>
      </trkpt>
      <trkpt lat="45.9981060" lon="12.2900830">
        <ele>156.3500000</ele>
        <time>2010-09-29T16:45:27Z</time>
      </trkpt>
      <trkpt lat="45.9980690" lon="12.2901000">
        <ele>156.3500000</ele>
        <time>2010-09-29T16:45:33Z</time>
      </trkpt>
      <trkpt lat="45.9980510" lon="12.2901050">
        <ele>156.3500000</ele>
        <time>2010-09-29T16:45:38Z</time>
      </trkpt>
      <trkpt lat="45.9979320" lon="12.2903540">
        <ele>156.8300000</ele>
        <time>2010-09-29T16:46:07Z</time>
      </trkpt>
      <trkpt lat="45.9977690" lon="12.2905710">
        <ele>156.3500000</ele>
        <time>2010-09-29T16:46:18Z</time>
      </trkpt>
      <trkpt lat="45.9977550" lon="12.2906100">
        <ele>156.3500000</ele>
        <time>2010-09-29T16:46:20Z</time>
      </trkpt>
      <trkpt lat="45.9977390" lon="12.2906670">
        <ele>156.8300000</ele>
        <time>2010-09-29T16:46:23Z</time>
      </trkpt>
      <trkpt lat="45.9973700" lon="12.2906180">
        <ele>156.3500000</ele>
        <time>2010-09-29T16:46:32Z</time>
      </trkpt>
      <trkpt lat="45.9973310" lon="12.2904260">
        <ele>156.8300000</ele>
        <time>2010-09-29T16:46:38Z</time>
      </trkpt>
      <trkpt lat="45.9972680" lon="12.2904610">
        <ele>156.8300000</ele>
        <time>2010-09-29T16:46:44Z</time>
      </trkpt>
      <trkpt lat="45.9971740" lon="12.2905050">
        <ele>156.3500000</ele>
        <time>2010-09-29T16:46:51Z</time>
      </trkpt>
      <trkpt lat="45.9971350" lon="12.2905700">
        <ele>155.8700000</ele>
        <time>2010-09-29T16:46:58Z</time>
      </trkpt>
      <trkpt lat="45.9971270" lon="12.2905830">
        <ele>155.8700000</ele>
        <time>2010-09-29T16:46:59Z</time>
      </trkpt>
      <trkpt lat="45.9970830" lon="12.2906520">
        <ele>156.3500000</ele>
        <time>2010-09-29T16:47:04Z</time>
      </trkpt>
      <trkpt lat="45.9969810" lon="12.2907730">
        <ele>155.8700000</ele>
        <time>2010-09-29T16:47:12Z</time>
      </trkpt>
      <trkpt lat="45.9969550" lon="12.2909350">
        <ele>156.3500000</ele>
        <time>2010-09-29T16:47:19Z</time>
      </trkpt>
      <trkpt lat="45.9969520" lon="12.2910270">
        <ele>156.3500000</ele>
        <time>2010-09-29T16:47:24Z</time>
      </trkpt>
      <trkpt lat="45.9969560" lon="12.2911170">
        <ele>156.3500000</ele>
        <time>2010-09-29T16:47:37Z</time>
      </trkpt>
      <trkpt lat="45.9966920" lon="12.2911780">
        <ele>155.8700000</ele>
        <time>2010-09-29T16:47:48Z</time>
      </trkpt>
      <trkpt lat="45.9966430" lon="12.2912020">
        <ele>156.3500000</ele>
        <time>2010-09-29T16:47:54Z</time>
      </trkpt>
      <trkpt lat="45.9965890" lon="12.2912450">
        <ele>156.3500000</ele>
        <time>2010-09-29T16:48:00Z</time>
      </trkpt>
      <trkpt lat="45.9965600" lon="12.2913060">
        <ele>156.3500000</ele>
        <time>2010-09-29T16:48:05Z</time>
      </trkpt>
      <trkpt lat="45.9965310" lon="12.2913840">
        <ele>156.3500000</ele>
        <time>2010-09-29T16:48:10Z</time>
      </trkpt>
      <trkpt lat="45.9964370" lon="12.2914620">
        <ele>156.3500000</ele>
        <time>2010-09-29T16:48:27Z</time>
      </trkpt>
      <trkpt lat="45.9964090" lon="12.2915630">
        <ele>156.3500000</ele>
        <time>2010-09-29T16:48:34Z</time>
      </trkpt>
      <trkpt lat="45.9963520" lon="12.2916600">
        <ele>156.3500000</ele>
        <time>2010-09-29T16:48:41Z</time>
      </trkpt>
      <trkpt lat="45.9963190" lon="12.2917040">
        <ele>156.8300000</ele>
        <time>2010-09-29T16:48:50Z</time>
      </trkpt>
      <trkpt lat="45.9962670" lon="12.2917350">
        <ele>156.8300000</ele>
        <time>2010-09-29T16:48:56Z</time>
      </trkpt>
      <trkpt lat="45.9962270" lon="12.2917650">
        <ele>156.8300000</ele>
        <time>2010-09-29T16:49:00Z</time>
      </trkpt>
      <trkpt lat="45.9961060" lon="12.2918750">
        <ele>157.3100000</ele>
        <time>2010-09-29T16:49:08Z</time>
      </trkpt>
      <trkpt lat="45.9959860" lon="12.2919420">
        <ele>156.8300000</ele>
        <time>2010-09-29T16:49:16Z</time>
      </trkpt>
      <trkpt lat="45.9959010" lon="12.2920070">
        <ele>157.3100000</ele>
        <time>2010-09-29T16:49:24Z</time>
      </trkpt>
      <trkpt lat="45.9958490" lon="12.2920550">
        <ele>157.7900000</ele>
        <time>2010-09-29T16:49:30Z</time>
      </trkpt>
      <trkpt lat="45.9957930" lon="12.2920880">
        <ele>157.7900000</ele>
        <time>2010-09-29T16:49:37Z</time>
      </trkpt>
      <trkpt lat="45.9957140" lon="12.2921320">
        <ele>157.7900000</ele>
        <time>2010-09-29T16:49:44Z</time>
      </trkpt>
      <trkpt lat="45.9956100" lon="12.2921760">
        <ele>158.2700000</ele>
        <time>2010-09-29T16:49:51Z</time>
      </trkpt>
      <trkpt lat="45.9955210" lon="12.2922240">
        <ele>158.2700000</ele>
        <time>2010-09-29T16:49:57Z</time>
      </trkpt>
      <trkpt lat="45.9954170" lon="12.2922760">
        <ele>158.2700000</ele>
        <time>2010-09-29T16:50:04Z</time>
      </trkpt>
      <trkpt lat="45.9952620" lon="12.2923980">
        <ele>158.7500000</ele>
        <time>2010-09-29T16:50:13Z</time>
      </trkpt>
      <trkpt lat="45.9951040" lon="12.2925170">
        <ele>158.2700000</ele>
        <time>2010-09-29T16:50:24Z</time>
      </trkpt>
      <trkpt lat="45.9949630" lon="12.2925540">
        <ele>158.7500000</ele>
        <time>2010-09-29T16:50:35Z</time>
      </trkpt>
      <trkpt lat="45.9948820" lon="12.2925770">
        <ele>159.2400000</ele>
        <time>2010-09-29T16:50:42Z</time>
      </trkpt>
      <trkpt lat="45.9948000" lon="12.2926010">
        <ele>159.2400000</ele>
        <time>2010-09-29T16:50:48Z</time>
      </trkpt>
      <trkpt lat="45.9947330" lon="12.2926670">
        <ele>159.7200000</ele>
        <time>2010-09-29T16:50:57Z</time>
      </trkpt>
      <trkpt lat="45.9947070" lon="12.2926970">
        <ele>159.7200000</ele>
        <time>2010-09-29T16:51:00Z</time>
      </trkpt>
      <trkpt lat="45.9946240" lon="12.2927230">
        <ele>160.2000000</ele>
        <time>2010-09-29T16:51:06Z</time>
      </trkpt>
      <trkpt lat="45.9945550" lon="12.2927610">
        <ele>160.2000000</ele>
        <time>2010-09-29T16:51:12Z</time>
      </trkpt>
      <trkpt lat="45.9944290" lon="12.2928210">
        <ele>160.2000000</ele>
        <time>2010-09-29T16:51:21Z</time>
      </trkpt>
      <trkpt lat="45.9943860" lon="12.2928710">
        <ele>160.2000000</ele>
        <time>2010-09-29T16:51:28Z</time>
      </trkpt>
      <trkpt lat="45.9943400" lon="12.2929550">
        <ele>160.2000000</ele>
        <time>2010-09-29T16:51:35Z</time>
      </trkpt>
      <trkpt lat="45.9942890" lon="12.2930150">
        <ele>160.2000000</ele>
        <time>2010-09-29T16:51:39Z</time>
      </trkpt>
      <trkpt lat="45.9941640" lon="12.2931380">
        <ele>160.2000000</ele>
        <time>2010-09-29T16:51:49Z</time>
      </trkpt>
      <trkpt lat="45.9940600" lon="12.2932160">
        <ele>160.6800000</ele>
        <time>2010-09-29T16:51:58Z</time>
      </trkpt>
      <trkpt lat="45.9940500" lon="12.2932280">
        <ele>160.6800000</ele>
        <time>2010-09-29T16:52:05Z</time>
      </trkpt>
      <trkpt lat="45.9940110" lon="12.2932600">
        <ele>160.6800000</ele>
        <time>2010-09-29T16:52:10Z</time>
      </trkpt>
      <trkpt lat="45.9939910" lon="12.2933420">
        <ele>161.1600000</ele>
        <time>2010-09-29T16:52:15Z</time>
      </trkpt>
      <trkpt lat="45.9937870" lon="12.2935610">
        <ele>160.6800000</ele>
        <time>2010-09-29T16:52:32Z</time>
      </trkpt>
      <trkpt lat="45.9937610" lon="12.2935170">
        <ele>161.1600000</ele>
        <time>2010-09-29T16:52:44Z</time>
      </trkpt>
      <trkpt lat="45.9936060" lon="12.2934690">
        <ele>161.1600000</ele>
        <time>2010-09-29T16:52:52Z</time>
      </trkpt>
      <trkpt lat="45.9934550" lon="12.2935740">
        <ele>161.6400000</ele>
        <time>2010-09-29T16:53:00Z</time>
      </trkpt>
      <trkpt lat="45.9932700" lon="12.2937090">
        <ele>161.1600000</ele>
        <time>2010-09-29T16:53:14Z</time>
      </trkpt>
      <trkpt lat="45.9930400" lon="12.2938090">
        <ele>160.6800000</ele>
        <time>2010-09-29T16:53:37Z</time>
      </trkpt>
      <trkpt lat="45.9929340" lon="12.2938530">
        <ele>161.1600000</ele>
        <time>2010-09-29T16:53:45Z</time>
      </trkpt>
      <trkpt lat="45.9929210" lon="12.2938530">
        <ele>161.1600000</ele>
        <time>2010-09-29T16:53:46Z</time>
      </trkpt>
      <trkpt lat="45.9927790" lon="12.2938550">
        <ele>160.6800000</ele>
        <time>2010-09-29T16:53:55Z</time>
      </trkpt>
      <trkpt lat="45.9927100" lon="12.2938890">
        <ele>161.1600000</ele>
        <time>2010-09-29T16:54:03Z</time>
      </trkpt>
      <trkpt lat="45.9925880" lon="12.2939280">
        <ele>160.6800000</ele>
        <time>2010-09-29T16:54:15Z</time>
      </trkpt>
      <trkpt lat="45.9925310" lon="12.2939510">
        <ele>160.6800000</ele>
        <time>2010-09-29T16:54:23Z</time>
      </trkpt>
      <trkpt lat="45.9923730" lon="12.2939740">
        <ele>160.2000000</ele>
        <time>2010-09-29T16:54:44Z</time>
      </trkpt>
      <trkpt lat="45.9922170" lon="12.2941160">
        <ele>160.2000000</ele>
        <time>2010-09-29T16:54:52Z</time>
      </trkpt>
      <trkpt lat="45.9920780" lon="12.2941830">
        <ele>161.1600000</ele>
        <time>2010-09-29T16:55:03Z</time>
      </trkpt>
      <trkpt lat="45.9920000" lon="12.2941460">
        <ele>160.6800000</ele>
        <time>2010-09-29T16:55:12Z</time>
      </trkpt>
      <trkpt lat="45.9918020" lon="12.2941570">
        <ele>160.6800000</ele>
        <time>2010-09-29T16:55:20Z</time>
      </trkpt>
      <trkpt lat="45.9916390" lon="12.2941700">
        <ele>160.2000000</ele>
        <time>2010-09-29T16:55:27Z</time>
      </trkpt>
      <trkpt lat="45.9915550" lon="12.2942050">
        <ele>160.2000000</ele>
        <time>2010-09-29T16:55:33Z</time>
      </trkpt>
      <trkpt lat="45.9914710" lon="12.2942290">
        <ele>160.2000000</ele>
        <time>2010-09-29T16:55:40Z</time>
      </trkpt>
      <trkpt lat="45.9914220" lon="12.2942250">
        <ele>160.2000000</ele>
        <time>2010-09-29T16:56:01Z</time>
      </trkpt>
      <trkpt lat="45.9913780" lon="12.2942250">
        <ele>160.6800000</ele>
        <time>2010-09-29T16:56:04Z</time>
      </trkpt>
      <trkpt lat="45.9913500" lon="12.2942360">
        <ele>160.6800000</ele>
        <time>2010-09-29T16:56:08Z</time>
      </trkpt>
      <trkpt lat="45.9912610" lon="12.2943090">
        <ele>159.7200000</ele>
        <time>2010-09-29T16:56:16Z</time>
      </trkpt>
      <trkpt lat="45.9911690" lon="12.2943550">
        <ele>160.2000000</ele>
        <time>2010-09-29T16:56:23Z</time>
      </trkpt>
      <trkpt lat="45.9910950" lon="12.2943910">
        <ele>159.7200000</ele>
        <time>2010-09-29T16:56:28Z</time>
      </trkpt>
      <trkpt lat="45.9910280" lon="12.2944220">
        <ele>159.7200000</ele>
        <time>2010-09-29T16:56:34Z</time>
      </trkpt>
      <trkpt lat="45.9909160" lon="12.2944580">
        <ele>159.7200000</ele>
        <time>2010-09-29T16:56:40Z</time>
      </trkpt>
      <trkpt lat="45.9908460" lon="12.2945140">
        <ele>159.7200000</ele>
        <time>2010-09-29T16:56:47Z</time>
      </trkpt>
      <trkpt lat="45.9907710" lon="12.2945820">
        <ele>159.7200000</ele>
        <time>2010-09-29T16:56:56Z</time>
      </trkpt>
      <trkpt lat="45.9906390" lon="12.2946400">
        <ele>159.7200000</ele>
        <time>2010-09-29T16:57:06Z</time>
      </trkpt>
      <trkpt lat="45.9905470" lon="12.2946810">
        <ele>159.7200000</ele>
        <time>2010-09-29T16:57:13Z</time>
      </trkpt>
      <trkpt lat="45.9904640" lon="12.2947310">
        <ele>159.7200000</ele>
        <time>2010-09-29T16:57:19Z</time>
      </trkpt>
      <trkpt lat="45.9903660" lon="12.2947890">
        <ele>159.2400000</ele>
        <time>2010-09-29T16:57:26Z</time>
      </trkpt>
      <trkpt lat="45.9902600" lon="12.2948040">
        <ele>158.2700000</ele>
        <time>2010-09-29T16:57:31Z</time>
      </trkpt>
      <trkpt lat="45.9901630" lon="12.2948350">
        <ele>158.7500000</ele>
        <time>2010-09-29T16:57:39Z</time>
      </trkpt>
      <trkpt lat="45.9901020" lon="12.2948580">
        <ele>158.2700000</ele>
        <time>2010-09-29T16:57:44Z</time>
      </trkpt>
      <trkpt lat="45.9899580" lon="12.2948870">
        <ele>158.2700000</ele>
        <time>2010-09-29T16:57:52Z</time>
      </trkpt>
      <trkpt lat="45.9898010" lon="12.2949340">
        <ele>157.7900000</ele>
        <time>2010-09-29T16:58:00Z</time>
      </trkpt>
      <trkpt lat="45.9897090" lon="12.2949750">
        <ele>158.2700000</ele>
        <time>2010-09-29T16:58:06Z</time>
      </trkpt>
      <trkpt lat="45.9896180" lon="12.2949910">
        <ele>157.7900000</ele>
        <time>2010-09-29T16:58:13Z</time>
      </trkpt>
      <trkpt lat="45.9895740" lon="12.2950030">
        <ele>157.7900000</ele>
        <time>2010-09-29T16:58:18Z</time>
      </trkpt>
      <trkpt lat="45.9895610" lon="12.2950050">
        <ele>158.2700000</ele>
        <time>2010-09-29T16:58:19Z</time>
      </trkpt>
      <trkpt lat="45.9895050" lon="12.2950600">
        <ele>157.3100000</ele>
        <time>2010-09-29T16:58:25Z</time>
      </trkpt>
      <trkpt lat="45.9894530" lon="12.2950790">
        <ele>158.2700000</ele>
        <time>2010-09-29T16:58:31Z</time>
      </trkpt>
      <trkpt lat="45.9893650" lon="12.2951000">
        <ele>157.7900000</ele>
        <time>2010-09-29T16:58:38Z</time>
      </trkpt>
      <trkpt lat="45.9893170" lon="12.2951360">
        <ele>157.3100000</ele>
        <time>2010-09-29T16:58:43Z</time>
      </trkpt>
      <trkpt lat="45.9892240" lon="12.2951710">
        <ele>158.2700000</ele>
        <time>2010-09-29T16:58:49Z</time>
      </trkpt>
      <trkpt lat="45.9891550" lon="12.2952600">
        <ele>157.3100000</ele>
        <time>2010-09-29T16:58:58Z</time>
      </trkpt>
      <trkpt lat="45.9890850" lon="12.2953050">
        <ele>157.3100000</ele>
        <time>2010-09-29T16:59:06Z</time>
      </trkpt>
      <trkpt lat="45.9890220" lon="12.2953400">
        <ele>156.8300000</ele>
        <time>2010-09-29T16:59:12Z</time>
      </trkpt>
      <trkpt lat="45.9889540" lon="12.2954030">
        <ele>156.8300000</ele>
        <time>2010-09-29T16:59:19Z</time>
      </trkpt>
      <trkpt lat="45.9888430" lon="12.2954430">
        <ele>156.8300000</ele>
        <time>2010-09-29T16:59:27Z</time>
      </trkpt>
      <trkpt lat="45.9887350" lon="12.2954720">
        <ele>156.3500000</ele>
        <time>2010-09-29T16:59:36Z</time>
      </trkpt>
      <trkpt lat="45.9886880" lon="12.2955070">
        <ele>155.8700000</ele>
        <time>2010-09-29T16:59:44Z</time>
      </trkpt>
      <trkpt lat="45.9886360" lon="12.2955470">
        <ele>156.3500000</ele>
        <time>2010-09-29T16:59:50Z</time>
      </trkpt>
      <trkpt lat="45.9885690" lon="12.2955640">
        <ele>155.8700000</ele>
        <time>2010-09-29T16:59:59Z</time>
      </trkpt>
      <trkpt lat="45.9884570" lon="12.2956070">
        <ele>155.8700000</ele>
        <time>2010-09-29T17:00:06Z</time>
      </trkpt>
      <trkpt lat="45.9883350" lon="12.2956710">
        <ele>155.8700000</ele>
        <time>2010-09-29T17:00:14Z</time>
      </trkpt>
      <trkpt lat="45.9882270" lon="12.2957110">
        <ele>155.8700000</ele>
        <time>2010-09-29T17:00:22Z</time>
      </trkpt>
      <trkpt lat="45.9881590" lon="12.2957150">
        <ele>155.3900000</ele>
        <time>2010-09-29T17:00:29Z</time>
      </trkpt>
      <trkpt lat="45.9880580" lon="12.2957430">
        <ele>155.3900000</ele>
        <time>2010-09-29T17:00:37Z</time>
      </trkpt>
      <trkpt lat="45.9880150" lon="12.2957430">
        <ele>155.3900000</ele>
        <time>2010-09-29T17:00:41Z</time>
      </trkpt>
      <trkpt lat="45.9879610" lon="12.2957020">
        <ele>155.3900000</ele>
        <time>2010-09-29T17:00:48Z</time>
      </trkpt>
      <trkpt lat="45.9875620" lon="12.2961810">
        <ele>155.3900000</ele>
        <time>2010-09-29T17:01:33Z</time>
      </trkpt>
      <trkpt lat="45.9871710" lon="12.2962580">
        <ele>155.8700000</ele>
        <time>2010-09-29T17:02:20Z</time>
      </trkpt>
      <trkpt lat="45.9869670" lon="12.2962200">
        <ele>156.8300000</ele>
        <time>2010-09-29T17:02:41Z</time>
      </trkpt>
      <trkpt lat="45.9869070" lon="12.2964280">
        <ele>156.3500000</ele>
        <time>2010-09-29T17:03:21Z</time>
      </trkpt>
      <trkpt lat="45.9869180" lon="12.2952040">
        <ele>156.8300000</ele>
        <time>2010-09-29T17:03:55Z</time>
      </trkpt>
      <trkpt lat="45.9868560" lon="12.2948280">
        <ele>156.3500000</ele>
        <time>2010-09-29T17:04:26Z</time>
      </trkpt>
      <trkpt lat="45.9868560" lon="12.2948280">
        <ele>160.2000000</ele>
        <time>2010-09-29T17:05:36Z</time>
      </trkpt>
      <trkpt lat="45.9868560" lon="12.2948280">
        <ele>163.0800000</ele>
        <time>2010-09-29T17:05:40Z</time>
      </trkpt>
      <trkpt lat="45.9868560" lon="12.2948280">
        <ele>166.9300000</ele>
        <time>2010-09-29T17:05:46Z</time>
      </trkpt>
      <trkpt lat="45.9868560" lon="12.2948280">
        <ele>169.8100000</ele>
        <time>2010-09-29T17:05:52Z</time>
      </trkpt>
      <trkpt lat="45.9868560" lon="12.2948280">
        <ele>168.3700000</ele>
        <time>2010-09-29T17:08:45Z</time>
      </trkpt>
      <trkpt lat="45.9868290" lon="12.2953270">
        <ele>169.8100000</ele>
        <time>2010-09-29T17:09:42Z</time>
      </trkpt>
      <trkpt lat="45.9870260" lon="12.2957860">
        <ele>169.3300000</ele>
        <time>2010-09-29T17:10:18Z</time>
      </trkpt>
      <trkpt lat="45.9873030" lon="12.2955770">
        <ele>168.8500000</ele>
        <time>2010-09-29T17:10:29Z</time>
      </trkpt>
      <trkpt lat="45.9870980" lon="12.2956060">
        <ele>168.8500000</ele>
        <time>2010-09-29T17:10:34Z</time>
      </trkpt>
      <trkpt lat="45.9869160" lon="12.2956480">
        <ele>165.9600000</ele>
        <time>2010-09-29T17:17:54Z</time>
      </trkpt>
      <trkpt lat="45.9868730" lon="12.2956790">
        <ele>163.0800000</ele>
        <time>2010-09-29T17:28:43Z</time>
      </trkpt>
      <trkpt lat="45.9868030" lon="12.2957290">
        <ele>164.0400000</ele>
        <time>2010-09-29T17:30:59Z</time>
      </trkpt>
      <trkpt lat="45.9867300" lon="12.2958390">
        <ele>163.5600000</ele>
        <time>2010-09-29T17:31:15Z</time>
      </trkpt>
      <trkpt lat="45.9867300" lon="12.2958390">
        <ele>162.1200000</ele>
        <time>2010-09-29T17:31:18Z</time>
      </trkpt>
      <trkpt lat="45.9867300" lon="12.2958390">
        <ele>163.0800000</ele>
        <time>2010-09-29T17:31:19Z</time>
      </trkpt>
      <trkpt lat="45.9867300" lon="12.2958390">
        <ele>164.0400000</ele>
        <time>2010-09-29T17:31:22Z</time>
      </trkpt>
      <trkpt lat="45.9867300" lon="12.2958390">
        <ele>162.6000000</ele>
        <time>2010-09-29T17:31:26Z</time>
      </trkpt>
    </trkseg>
  </trk>

</gpx>
